<?xml version='1.0' encoding='UTF-8'?><gpx version="1.1" creator="JPX - https://github.com/jenetics/jpx" xmlns="http://www.topografix.com/GPX/1/1"><trk><trkseg><trkpt lat="44.8245433" lon="11.6433158"><ele>7.000000000000001</ele><time>2026-04-04T06:22:17.931Z</time></trkpt><trkpt lat="44.8246273" lon="11.6433037"><ele>7.0</ele><time>2026-04-04T06:22:19.931Z</time></trkpt><trkpt lat="44.8247428" lon="11.6433095"><ele>7.0</ele><time>2026-04-04T06:22:21.932Z</time></trkpt><trkpt lat="44.8248093" lon="11.6433099"><ele>7.0</ele><time>2026-04-04T06:22:22.931Z</time></trkpt><trkpt lat="44.824879" lon="11.6433055"><ele>7.000000000000001</ele><time>2026-04-04T06:22:23.93Z</time></trkpt><trkpt lat="44.824957" lon="11.6432962"><ele>7.0</ele><time>2026-04-04T06:22:24.932Z</time></trkpt><trkpt lat="44.8250415" lon="11.6432867"><ele>7.000000000000001</ele><time>2026-04-04T06:22:25.931Z</time></trkpt><trkpt lat="44.8251303" lon="11.6432812"><ele>7.0</ele><time>2026-04-04T06:22:26.931Z</time></trkpt><trkpt lat="44.8252203" lon="11.6432752"><ele>7.0</ele><time>2026-04-04T06:22:27.932Z</time></trkpt><trkpt lat="44.8253092" lon="11.6432688"><ele>7.0</ele><time>2026-04-04T06:22:28.931Z</time></trkpt><trkpt lat="44.8253877" lon="11.6432721"><ele>7.000000000000001</ele><time>2026-04-04T06:22:29.932Z</time></trkpt><trkpt lat="44.8254821" lon="11.6432413"><ele>7.0</ele><time>2026-04-04T06:22:31.931Z</time></trkpt><trkpt lat="44.8255105" lon="11.6431507"><ele>7.199999999999999</ele><time>2026-04-04T06:22:33.93Z</time></trkpt><trkpt lat="44.8255125" lon="11.642958"><ele>7.3999999999999995</ele><time>2026-04-04T06:22:35.931Z</time></trkpt><trkpt lat="44.8255055" lon="11.6428229"><ele>7.6000000000000005</ele><time>2026-04-04T06:22:36.932Z</time></trkpt><trkpt lat="44.8254926" lon="11.642681"><ele>7.800000000000001</ele><time>2026-04-04T06:22:37.932Z</time></trkpt><trkpt lat="44.8254718" lon="11.6425261"><ele>8.0</ele><time>2026-04-04T06:22:38.931Z</time></trkpt><trkpt lat="44.8254386" lon="11.6423728"><ele>8.0</ele><time>2026-04-04T06:22:39.931Z</time></trkpt><trkpt lat="44.8253918" lon="11.6422147"><ele>8.0</ele><time>2026-04-04T06:22:40.931Z</time></trkpt><trkpt lat="44.8253391" lon="11.6420554"><ele>8.0</ele><time>2026-04-04T06:22:41.93Z</time></trkpt><trkpt lat="44.8252844" lon="11.641898"><ele>8.0</ele><time>2026-04-04T06:22:42.932Z</time></trkpt><trkpt lat="44.8252304" lon="11.6417486"><ele>7.999999999999999</ele><time>2026-04-04T06:22:43.932Z</time></trkpt><trkpt lat="44.8251801" lon="11.6416125"><ele>8.0</ele><time>2026-04-04T06:22:44.931Z</time></trkpt><trkpt lat="44.8251365" lon="11.6414865"><ele>8.0</ele><time>2026-04-04T06:22:45.932Z</time></trkpt><trkpt lat="44.8251006" lon="11.6413759"><ele>8.0</ele><time>2026-04-04T06:22:46.932Z</time></trkpt><trkpt lat="44.825081" lon="11.6412907"><ele>7.999999999999999</ele><time>2026-04-04T06:22:47.932Z</time></trkpt><trkpt lat="44.8250625" lon="11.641182"><ele>8.0</ele><time>2026-04-04T06:22:49.931Z</time></trkpt><trkpt lat="44.8250315" lon="11.6410679"><ele>8.4</ele><time>2026-04-04T06:22:51.931Z</time></trkpt><trkpt lat="44.8249889" lon="11.640983"><ele>8.8</ele><time>2026-04-04T06:22:52.932Z</time></trkpt><trkpt lat="44.8249463" lon="11.6408802"><ele>9.2</ele><time>2026-04-04T06:22:53.932Z</time></trkpt><trkpt lat="44.824906" lon="11.6407605"><ele>9.6</ele><time>2026-04-04T06:22:54.931Z</time></trkpt><trkpt lat="44.8248736" lon="11.640621"><ele>10.0</ele><time>2026-04-04T06:22:55.931Z</time></trkpt><trkpt lat="44.8248615" lon="11.6404639"><ele>10.2</ele><time>2026-04-04T06:22:56.931Z</time></trkpt><trkpt lat="44.8248673" lon="11.6402995"><ele>10.4</ele><time>2026-04-04T06:22:57.931Z</time></trkpt><trkpt lat="44.8248817" lon="11.6401399"><ele>10.600000000000001</ele><time>2026-04-04T06:22:58.932Z</time></trkpt><trkpt lat="44.8248974" lon="11.6399942"><ele>10.8</ele><time>2026-04-04T06:22:59.932Z</time></trkpt><trkpt lat="44.8249139" lon="11.6398657"><ele>11.0</ele><time>2026-04-04T06:23:00.931Z</time></trkpt><trkpt lat="44.8249284" lon="11.6397485"><ele>11.0</ele><time>2026-04-04T06:23:01.932Z</time></trkpt><trkpt lat="44.8249377" lon="11.6396435"><ele>11.0</ele><time>2026-04-04T06:23:02.932Z</time></trkpt><trkpt lat="44.8249474" lon="11.6395491"><ele>11.0</ele><time>2026-04-04T06:23:03.931Z</time></trkpt><trkpt lat="44.8249669" lon="11.6393823"><ele>11.0</ele><time>2026-04-04T06:23:05.932Z</time></trkpt><trkpt lat="44.8249738" lon="11.6392858"><ele>11.0</ele><time>2026-04-04T06:23:06.932Z</time></trkpt><trkpt lat="44.8249829" lon="11.6391724"><ele>11.0</ele><time>2026-04-04T06:23:07.932Z</time></trkpt><trkpt lat="44.8249897" lon="11.6390413"><ele>11.0</ele><time>2026-04-04T06:23:08.932Z</time></trkpt><trkpt lat="44.8249867" lon="11.6389162"><ele>11.0</ele><time>2026-04-04T06:23:09.931Z</time></trkpt><trkpt lat="44.8249768" lon="11.6387963"><ele>11.0</ele><time>2026-04-04T06:23:10.931Z</time></trkpt><trkpt lat="44.8249615" lon="11.6386787"><ele>11.0</ele><time>2026-04-04T06:23:11.931Z</time></trkpt><trkpt lat="44.8249444" lon="11.6385631"><ele>11.0</ele><time>2026-04-04T06:23:12.932Z</time></trkpt><trkpt lat="44.8249263" lon="11.6384455"><ele>11.0</ele><time>2026-04-04T06:23:13.932Z</time></trkpt><trkpt lat="44.8249112" lon="11.6383251"><ele>10.8</ele><time>2026-04-04T06:23:14.932Z</time></trkpt><trkpt lat="44.8248961" lon="11.6382108"><ele>10.600000000000001</ele><time>2026-04-04T06:23:15.932Z</time></trkpt><trkpt lat="44.8248834" lon="11.6380856"><ele>10.4</ele><time>2026-04-04T06:23:16.932Z</time></trkpt><trkpt lat="44.8248733" lon="11.6379464"><ele>10.2</ele><time>2026-04-04T06:23:17.932Z</time></trkpt><trkpt lat="44.8248635" lon="11.6377999"><ele>10.0</ele><time>2026-04-04T06:23:18.931Z</time></trkpt><trkpt lat="44.8248531" lon="11.6376485"><ele>10.0</ele><time>2026-04-04T06:23:19.93Z</time></trkpt><trkpt lat="44.824844" lon="11.6374989"><ele>10.0</ele><time>2026-04-04T06:23:20.931Z</time></trkpt><trkpt lat="44.8248405" lon="11.6373421"><ele>10.0</ele><time>2026-04-04T06:23:21.931Z</time></trkpt><trkpt lat="44.8248395" lon="11.6372015"><ele>10.0</ele><time>2026-04-04T06:23:22.93Z</time></trkpt><trkpt lat="44.8248425" lon="11.6370724"><ele>10.0</ele><time>2026-04-04T06:23:23.931Z</time></trkpt><trkpt lat="44.8248416" lon="11.6369577"><ele>10.2</ele><time>2026-04-04T06:23:24.931Z</time></trkpt><trkpt lat="44.8248386" lon="11.6368529"><ele>10.4</ele><time>2026-04-04T06:23:25.931Z</time></trkpt><trkpt lat="44.8248359" lon="11.6367362"><ele>10.600000000000001</ele><time>2026-04-04T06:23:26.93Z</time></trkpt><trkpt lat="44.8248313" lon="11.6366086"><ele>10.8</ele><time>2026-04-04T06:23:27.931Z</time></trkpt><trkpt lat="44.8248276" lon="11.6364611"><ele>11.0</ele><time>2026-04-04T06:23:28.932Z</time></trkpt><trkpt lat="44.8248224" lon="11.6363022"><ele>11.0</ele><time>2026-04-04T06:23:29.932Z</time></trkpt><trkpt lat="44.8248153" lon="11.6361403"><ele>11.0</ele><time>2026-04-04T06:23:30.931Z</time></trkpt><trkpt lat="44.8248118" lon="11.6359915"><ele>11.0</ele><time>2026-04-04T06:23:31.932Z</time></trkpt><trkpt lat="44.8248099" lon="11.6358554"><ele>11.0</ele><time>2026-04-04T06:23:32.932Z</time></trkpt><trkpt lat="44.824807" lon="11.6357348"><ele>11.0</ele><time>2026-04-04T06:23:33.932Z</time></trkpt><trkpt lat="44.8248056" lon="11.6356197"><ele>10.833333333333332</ele><time>2026-04-04T06:23:34.932Z</time></trkpt><trkpt lat="44.8248056" lon="11.6355146"><ele>10.666666666666666</ele><time>2026-04-04T06:23:35.931Z</time></trkpt><trkpt lat="44.8248027" lon="11.6354178"><ele>10.5</ele><time>2026-04-04T06:23:36.931Z</time></trkpt><trkpt lat="44.8248041" lon="11.635243"><ele>10.333333333333334</ele><time>2026-04-04T06:23:38.932Z</time></trkpt><trkpt lat="44.8248284" lon="11.6350962"><ele>10.166666666666668</ele><time>2026-04-04T06:23:40.931Z</time></trkpt><trkpt lat="44.8248625" lon="11.6350202"><ele>10.0</ele><time>2026-04-04T06:23:43.932Z</time></trkpt><trkpt lat="44.8249192" lon="11.6349125"><ele>9.6</ele><time>2026-04-04T06:23:45.932Z</time></trkpt><trkpt lat="44.8249608" lon="11.6347639"><ele>9.2</ele><time>2026-04-04T06:23:47.932Z</time></trkpt><trkpt lat="44.8249054" lon="11.6346493"><ele>8.8</ele><time>2026-04-04T06:23:49.932Z</time></trkpt><trkpt lat="44.8247717" lon="11.6346652"><ele>8.4</ele><time>2026-04-04T06:23:51.932Z</time></trkpt><trkpt lat="44.8246756" lon="11.6347042"><ele>8.0</ele><time>2026-04-04T06:23:52.932Z</time></trkpt><trkpt lat="44.8245733" lon="11.634724"><ele>8.0</ele><time>2026-04-04T06:23:53.931Z</time></trkpt><trkpt lat="44.8244521" lon="11.6347303"><ele>8.0</ele><time>2026-04-04T06:23:54.932Z</time></trkpt><trkpt lat="44.8243222" lon="11.6347359"><ele>8.0</ele><time>2026-04-04T06:23:55.932Z</time></trkpt><trkpt lat="44.8241844" lon="11.6347407"><ele>8.0</ele><time>2026-04-04T06:23:56.932Z</time></trkpt><trkpt lat="44.8240341" lon="11.6347412"><ele>7.666666666666666</ele><time>2026-04-04T06:23:57.931Z</time></trkpt><trkpt lat="44.8238768" lon="11.6347393"><ele>7.333333333333334</ele><time>2026-04-04T06:23:58.93Z</time></trkpt><trkpt lat="44.8237189" lon="11.6347318"><ele>7.0</ele><time>2026-04-04T06:23:59.931Z</time></trkpt><trkpt lat="44.8235722" lon="11.6347191"><ele>7.0</ele><time>2026-04-04T06:24:00.931Z</time></trkpt><trkpt lat="44.8234365" lon="11.634705"><ele>7.0</ele><time>2026-04-04T06:24:01.931Z</time></trkpt><trkpt lat="44.8233083" lon="11.6346946"><ele>7.0</ele><time>2026-04-04T06:24:02.931Z</time></trkpt><trkpt lat="44.8231888" lon="11.6346842"><ele>7.0</ele><time>2026-04-04T06:24:03.931Z</time></trkpt><trkpt lat="44.8230744" lon="11.6346771"><ele>7.000000000000001</ele><time>2026-04-04T06:24:04.931Z</time></trkpt><trkpt lat="44.8229717" lon="11.6346644"><ele>7.0</ele><time>2026-04-04T06:24:05.931Z</time></trkpt><trkpt lat="44.8228906" lon="11.6346322"><ele>7.0</ele><time>2026-04-04T06:24:06.931Z</time></trkpt><trkpt lat="44.8228169" lon="11.6345835"><ele>7.0</ele><time>2026-04-04T06:24:07.931Z</time></trkpt><trkpt lat="44.8227593" lon="11.6345177"><ele>7.000000000000001</ele><time>2026-04-04T06:24:08.93Z</time></trkpt><trkpt lat="44.8227191" lon="11.6344373"><ele>7.0</ele><time>2026-04-04T06:24:09.931Z</time></trkpt><trkpt lat="44.8226942" lon="11.6343385"><ele>7.199999999999999</ele><time>2026-04-04T06:24:10.931Z</time></trkpt><trkpt lat="44.8226843" lon="11.6342203"><ele>7.3999999999999995</ele><time>2026-04-04T06:24:11.932Z</time></trkpt><trkpt lat="44.8226777" lon="11.6340856"><ele>7.6000000000000005</ele><time>2026-04-04T06:24:12.932Z</time></trkpt><trkpt lat="44.822666" lon="11.6339427"><ele>7.800000000000001</ele><time>2026-04-04T06:24:13.932Z</time></trkpt><trkpt lat="44.8226561" lon="11.6337925"><ele>8.0</ele><time>2026-04-04T06:24:14.93Z</time></trkpt><trkpt lat="44.822643" lon="11.6336252"><ele>8.5</ele><time>2026-04-04T06:24:15.93Z</time></trkpt><trkpt lat="44.822627" lon="11.6334431"><ele>9.0</ele><time>2026-04-04T06:24:16.931Z</time></trkpt><trkpt lat="44.822607" lon="11.6332543"><ele>9.5</ele><time>2026-04-04T06:24:17.932Z</time></trkpt><trkpt lat="44.822584" lon="11.6330586"><ele>10.0</ele><time>2026-04-04T06:24:18.931Z</time></trkpt><trkpt lat="44.8225623" lon="11.6328616"><ele>10.5</ele><time>2026-04-04T06:24:19.93Z</time></trkpt><trkpt lat="44.8225448" lon="11.6326788"><ele>11.0</ele><time>2026-04-04T06:24:20.932Z</time></trkpt><trkpt lat="44.8225353" lon="11.6325099"><ele>11.5</ele><time>2026-04-04T06:24:21.932Z</time></trkpt><trkpt lat="44.8225252" lon="11.6323516"><ele>12.0</ele><time>2026-04-04T06:24:22.932Z</time></trkpt><trkpt lat="44.822518" lon="11.6321994"><ele>12.0</ele><time>2026-04-04T06:24:23.931Z</time></trkpt><trkpt lat="44.8225112" lon="11.6320425"><ele>12.0</ele><time>2026-04-04T06:24:24.932Z</time></trkpt><trkpt lat="44.8225055" lon="11.631884"><ele>12.0</ele><time>2026-04-04T06:24:25.931Z</time></trkpt><trkpt lat="44.822502" lon="11.6317235"><ele>12.0</ele><time>2026-04-04T06:24:26.931Z</time></trkpt><trkpt lat="44.8224973" lon="11.6315647"><ele>11.8</ele><time>2026-04-04T06:24:27.931Z</time></trkpt><trkpt lat="44.8224927" lon="11.6314157"><ele>11.6</ele><time>2026-04-04T06:24:28.931Z</time></trkpt><trkpt lat="44.8224863" lon="11.6312789"><ele>11.4</ele><time>2026-04-04T06:24:29.931Z</time></trkpt><trkpt lat="44.822483" lon="11.6311507"><ele>11.200000000000001</ele><time>2026-04-04T06:24:30.931Z</time></trkpt><trkpt lat="44.8224817" lon="11.6310312"><ele>11.0</ele><time>2026-04-04T06:24:31.93Z</time></trkpt><trkpt lat="44.8224802" lon="11.6309097"><ele>11.0</ele><time>2026-04-04T06:24:32.931Z</time></trkpt><trkpt lat="44.8224799" lon="11.6307786"><ele>11.0</ele><time>2026-04-04T06:24:33.932Z</time></trkpt><trkpt lat="44.8224753" lon="11.6306424"><ele>11.0</ele><time>2026-04-04T06:24:34.932Z</time></trkpt><trkpt lat="44.8224691" lon="11.6304976"><ele>11.0</ele><time>2026-04-04T06:24:35.932Z</time></trkpt><trkpt lat="44.8224666" lon="11.6303514"><ele>11.0</ele><time>2026-04-04T06:24:36.931Z</time></trkpt><trkpt lat="44.8224656" lon="11.630205"><ele>11.0</ele><time>2026-04-04T06:24:37.932Z</time></trkpt><trkpt lat="44.8224623" lon="11.6300619"><ele>11.0</ele><time>2026-04-04T06:24:38.931Z</time></trkpt><trkpt lat="44.8224569" lon="11.6299253"><ele>11.0</ele><time>2026-04-04T06:24:39.931Z</time></trkpt><trkpt lat="44.8224527" lon="11.6297964"><ele>11.0</ele><time>2026-04-04T06:24:40.931Z</time></trkpt><trkpt lat="44.8224521" lon="11.6296717"><ele>11.0</ele><time>2026-04-04T06:24:41.931Z</time></trkpt><trkpt lat="44.8224505" lon="11.6295536"><ele>10.714285714285715</ele><time>2026-04-04T06:24:42.931Z</time></trkpt><trkpt lat="44.8224503" lon="11.6294477"><ele>10.428571428571429</ele><time>2026-04-04T06:24:43.931Z</time></trkpt><trkpt lat="44.8224602" lon="11.6293506"><ele>10.142857142857142</ele><time>2026-04-04T06:24:44.931Z</time></trkpt><trkpt lat="44.8224708" lon="11.6292527"><ele>9.857142857142858</ele><time>2026-04-04T06:24:45.932Z</time></trkpt><trkpt lat="44.8224841" lon="11.6291551"><ele>9.571428571428571</ele><time>2026-04-04T06:24:46.931Z</time></trkpt><trkpt lat="44.8224934" lon="11.6290596"><ele>9.285714285714286</ele><time>2026-04-04T06:24:47.931Z</time></trkpt><trkpt lat="44.8225008" lon="11.6289595"><ele>9.0</ele><time>2026-04-04T06:24:48.931Z</time></trkpt><trkpt lat="44.8225113" lon="11.6288626"><ele>9.0</ele><time>2026-04-04T06:24:49.932Z</time></trkpt><trkpt lat="44.8225199" lon="11.628765"><ele>9.0</ele><time>2026-04-04T06:24:50.932Z</time></trkpt><trkpt lat="44.8225125" lon="11.628667"><ele>9.0</ele><time>2026-04-04T06:24:51.932Z</time></trkpt><trkpt lat="44.8224821" lon="11.6285881"><ele>9.0</ele><time>2026-04-04T06:24:52.932Z</time></trkpt><trkpt lat="44.8223831" lon="11.6285284"><ele>9.0</ele><time>2026-04-04T06:24:54.931Z</time></trkpt><trkpt lat="44.8222863" lon="11.6285998"><ele>9.0</ele><time>2026-04-04T06:24:56.93Z</time></trkpt><trkpt lat="44.8222427" lon="11.6286977"><ele>9.0</ele><time>2026-04-04T06:24:57.932Z</time></trkpt><trkpt lat="44.8222031" lon="11.6288239"><ele>9.0</ele><time>2026-04-04T06:24:58.932Z</time></trkpt><trkpt lat="44.8221398" lon="11.6289509"><ele>9.0</ele><time>2026-04-04T06:24:59.932Z</time></trkpt><trkpt lat="44.8220688" lon="11.6290782"><ele>9.0</ele><time>2026-04-04T06:25:00.932Z</time></trkpt><trkpt lat="44.8219871" lon="11.629173"><ele>9.0</ele><time>2026-04-04T06:25:01.931Z</time></trkpt><trkpt lat="44.821896" lon="11.6292233"><ele>8.75</ele><time>2026-04-04T06:25:02.93Z</time></trkpt><trkpt lat="44.8217965" lon="11.6292275"><ele>8.5</ele><time>2026-04-04T06:25:03.93Z</time></trkpt><trkpt lat="44.821699" lon="11.629184"><ele>8.25</ele><time>2026-04-04T06:25:04.932Z</time></trkpt><trkpt lat="44.8215942" lon="11.6291118"><ele>8.0</ele><time>2026-04-04T06:25:05.931Z</time></trkpt><trkpt lat="44.821476" lon="11.6290251"><ele>8.0</ele><time>2026-04-04T06:25:06.932Z</time></trkpt><trkpt lat="44.8213539" lon="11.6289413"><ele>8.0</ele><time>2026-04-04T06:25:07.932Z</time></trkpt><trkpt lat="44.8212437" lon="11.6288728"><ele>8.0</ele><time>2026-04-04T06:25:08.931Z</time></trkpt><trkpt lat="44.821155" lon="11.6288074"><ele>8.0</ele><time>2026-04-04T06:25:09.931Z</time></trkpt><trkpt lat="44.8210969" lon="11.6287226"><ele>8.0</ele><time>2026-04-04T06:25:10.931Z</time></trkpt><trkpt lat="44.8210588" lon="11.6286423"><ele>8.4</ele><time>2026-04-04T06:25:11.93Z</time></trkpt><trkpt lat="44.8209342" lon="11.6286128"><ele>8.8</ele><time>2026-04-04T06:25:13.932Z</time></trkpt><trkpt lat="44.8208469" lon="11.6286147"><ele>9.2</ele><time>2026-04-04T06:25:14.932Z</time></trkpt><trkpt lat="44.8207455" lon="11.6285895"><ele>9.6</ele><time>2026-04-04T06:25:15.932Z</time></trkpt><trkpt lat="44.8206387" lon="11.6285457"><ele>10.0</ele><time>2026-04-04T06:25:16.932Z</time></trkpt><trkpt lat="44.8205241" lon="11.6284815"><ele>10.0</ele><time>2026-04-04T06:25:17.932Z</time></trkpt><trkpt lat="44.8203904" lon="11.6284168"><ele>10.0</ele><time>2026-04-04T06:25:18.932Z</time></trkpt><trkpt lat="44.8202443" lon="11.6283511"><ele>10.0</ele><time>2026-04-04T06:25:19.931Z</time></trkpt><trkpt lat="44.8200929" lon="11.628293"><ele>10.0</ele><time>2026-04-04T06:25:20.93Z</time></trkpt><trkpt lat="44.8199344" lon="11.6282416"><ele>10.0</ele><time>2026-04-04T06:25:21.931Z</time></trkpt><trkpt lat="44.819773" lon="11.6281904"><ele>10.0</ele><time>2026-04-04T06:25:22.931Z</time></trkpt><trkpt lat="44.8196138" lon="11.6281382"><ele>10.0</ele><time>2026-04-04T06:25:23.931Z</time></trkpt><trkpt lat="44.8194657" lon="11.6280893"><ele>10.0</ele><time>2026-04-04T06:25:24.932Z</time></trkpt><trkpt lat="44.8193278" lon="11.6280454"><ele>10.0</ele><time>2026-04-04T06:25:25.932Z</time></trkpt><trkpt lat="44.8191935" lon="11.6280192"><ele>10.0</ele><time>2026-04-04T06:25:26.932Z</time></trkpt><trkpt lat="44.8190585" lon="11.6280288"><ele>9.5</ele><time>2026-04-04T06:25:27.931Z</time></trkpt><trkpt lat="44.8189254" lon="11.6280692"><ele>9.0</ele><time>2026-04-04T06:25:28.932Z</time></trkpt><trkpt lat="44.8187943" lon="11.628134"><ele>8.5</ele><time>2026-04-04T06:25:29.931Z</time></trkpt><trkpt lat="44.8186597" lon="11.6282168"><ele>8.0</ele><time>2026-04-04T06:25:30.932Z</time></trkpt><trkpt lat="44.8185217" lon="11.6282978"><ele>8.25</ele><time>2026-04-04T06:25:31.931Z</time></trkpt><trkpt lat="44.8183955" lon="11.628378"><ele>8.5</ele><time>2026-04-04T06:25:32.931Z</time></trkpt><trkpt lat="44.8182724" lon="11.6284604"><ele>8.75</ele><time>2026-04-04T06:25:33.931Z</time></trkpt><trkpt lat="44.8181578" lon="11.6285261"><ele>9.0</ele><time>2026-04-04T06:25:34.931Z</time></trkpt><trkpt lat="44.8180459" lon="11.6285866"><ele>9.0</ele><time>2026-04-04T06:25:35.931Z</time></trkpt><trkpt lat="44.8179452" lon="11.6286351"><ele>9.0</ele><time>2026-04-04T06:25:36.931Z</time></trkpt><trkpt lat="44.8178531" lon="11.6286785"><ele>9.0</ele><time>2026-04-04T06:25:37.931Z</time></trkpt><trkpt lat="44.8177712" lon="11.628726"><ele>9.0</ele><time>2026-04-04T06:25:38.931Z</time></trkpt><trkpt lat="44.8176848" lon="11.628769"><ele>9.0</ele><time>2026-04-04T06:25:39.93Z</time></trkpt><trkpt lat="44.8175978" lon="11.6288411"><ele>9.2</ele><time>2026-04-04T06:25:40.931Z</time></trkpt><trkpt lat="44.8175188" lon="11.6289298"><ele>9.4</ele><time>2026-04-04T06:25:41.931Z</time></trkpt><trkpt lat="44.8174244" lon="11.6290198"><ele>9.6</ele><time>2026-04-04T06:25:42.93Z</time></trkpt><trkpt lat="44.8173326" lon="11.6291256"><ele>9.8</ele><time>2026-04-04T06:25:43.93Z</time></trkpt><trkpt lat="44.8172377" lon="11.6292192"><ele>10.0</ele><time>2026-04-04T06:25:44.93Z</time></trkpt><trkpt lat="44.8171396" lon="11.6293046"><ele>10.0</ele><time>2026-04-04T06:25:45.931Z</time></trkpt><trkpt lat="44.8170439" lon="11.6293836"><ele>10.0</ele><time>2026-04-04T06:25:46.931Z</time></trkpt><trkpt lat="44.8169391" lon="11.6294535"><ele>10.0</ele><time>2026-04-04T06:25:47.931Z</time></trkpt><trkpt lat="44.8168283" lon="11.629515"><ele>10.0</ele><time>2026-04-04T06:25:48.93Z</time></trkpt><trkpt lat="44.8167173" lon="11.6295663"><ele>9.5</ele><time>2026-04-04T06:25:49.93Z</time></trkpt><trkpt lat="44.8166069" lon="11.6296149"><ele>9.0</ele><time>2026-04-04T06:25:50.929Z</time></trkpt><trkpt lat="44.8164964" lon="11.6296591"><ele>8.5</ele><time>2026-04-04T06:25:51.93Z</time></trkpt><trkpt lat="44.8163857" lon="11.6297029"><ele>8.0</ele><time>2026-04-04T06:25:52.93Z</time></trkpt><trkpt lat="44.8162779" lon="11.6297504"><ele>8.0</ele><time>2026-04-04T06:25:53.93Z</time></trkpt><trkpt lat="44.8161728" lon="11.6298108"><ele>8.0</ele><time>2026-04-04T06:25:54.931Z</time></trkpt><trkpt lat="44.8160742" lon="11.6298831"><ele>8.0</ele><time>2026-04-04T06:25:55.931Z</time></trkpt><trkpt lat="44.8159629" lon="11.6299736"><ele>8.0</ele><time>2026-04-04T06:25:56.931Z</time></trkpt><trkpt lat="44.8158592" lon="11.6300529"><ele>8.0</ele><time>2026-04-04T06:25:57.931Z</time></trkpt><trkpt lat="44.8157586" lon="11.6301355"><ele>8.0</ele><time>2026-04-04T06:25:58.931Z</time></trkpt><trkpt lat="44.8156589" lon="11.6302218"><ele>8.0</ele><time>2026-04-04T06:25:59.931Z</time></trkpt><trkpt lat="44.8155615" lon="11.6303081"><ele>8.0</ele><time>2026-04-04T06:26:00.931Z</time></trkpt><trkpt lat="44.81546" lon="11.6303931"><ele>7.800000000000001</ele><time>2026-04-04T06:26:01.931Z</time></trkpt><trkpt lat="44.815368" lon="11.6304862"><ele>7.6000000000000005</ele><time>2026-04-04T06:26:02.93Z</time></trkpt><trkpt lat="44.8152685" lon="11.6305739"><ele>7.3999999999999995</ele><time>2026-04-04T06:26:03.931Z</time></trkpt><trkpt lat="44.8151756" lon="11.6306573"><ele>7.199999999999999</ele><time>2026-04-04T06:26:04.929Z</time></trkpt><trkpt lat="44.8150908" lon="11.6307262"><ele>7.0</ele><time>2026-04-04T06:26:05.93Z</time></trkpt><trkpt lat="44.815014" lon="11.6307878"><ele>7.000000000000001</ele><time>2026-04-04T06:26:06.93Z</time></trkpt><trkpt lat="44.8149423" lon="11.6308306"><ele>7.0</ele><time>2026-04-04T06:26:07.93Z</time></trkpt><trkpt lat="44.8148728" lon="11.6308361"><ele>7.0</ele><time>2026-04-04T06:26:08.931Z</time></trkpt><trkpt lat="44.814756" lon="11.6307581"><ele>7.0</ele><time>2026-04-04T06:26:10.931Z</time></trkpt><trkpt lat="44.8146768" lon="11.6307223"><ele>7.000000000000001</ele><time>2026-04-04T06:26:11.93Z</time></trkpt><trkpt lat="44.8145926" lon="11.6307392"><ele>7.0</ele><time>2026-04-04T06:26:12.931Z</time></trkpt><trkpt lat="44.8145174" lon="11.6308093"><ele>7.0</ele><time>2026-04-04T06:26:13.93Z</time></trkpt><trkpt lat="44.8144584" lon="11.6309237"><ele>7.0</ele><time>2026-04-04T06:26:14.93Z</time></trkpt><trkpt lat="44.8144064" lon="11.6310582"><ele>7.0</ele><time>2026-04-04T06:26:15.931Z</time></trkpt><trkpt lat="44.8143402" lon="11.6312004"><ele>7.0</ele><time>2026-04-04T06:26:16.93Z</time></trkpt><trkpt lat="44.8142533" lon="11.6313447"><ele>7.0</ele><time>2026-04-04T06:26:17.931Z</time></trkpt><trkpt lat="44.8141447" lon="11.631479"><ele>7.0</ele><time>2026-04-04T06:26:18.93Z</time></trkpt><trkpt lat="44.814016" lon="11.6315981"><ele>7.0</ele><time>2026-04-04T06:26:19.93Z</time></trkpt><trkpt lat="44.813866" lon="11.6317033"><ele>7.0</ele><time>2026-04-04T06:26:20.931Z</time></trkpt><trkpt lat="44.8137064" lon="11.6318134"><ele>7.0</ele><time>2026-04-04T06:26:21.931Z</time></trkpt><trkpt lat="44.8135535" lon="11.6319214"><ele>7.0</ele><time>2026-04-04T06:26:22.931Z</time></trkpt><trkpt lat="44.8134139" lon="11.6320219"><ele>6.5</ele><time>2026-04-04T06:26:23.931Z</time></trkpt><trkpt lat="44.8132811" lon="11.6321135"><ele>6.0</ele><time>2026-04-04T06:26:24.93Z</time></trkpt><trkpt lat="44.8131591" lon="11.6321962"><ele>5.5</ele><time>2026-04-04T06:26:25.931Z</time></trkpt><trkpt lat="44.8130372" lon="11.6322805"><ele>5.0</ele><time>2026-04-04T06:26:26.929Z</time></trkpt><trkpt lat="44.8129195" lon="11.6323657"><ele>5.0</ele><time>2026-04-04T06:26:27.93Z</time></trkpt><trkpt lat="44.8128048" lon="11.6324556"><ele>5.0</ele><time>2026-04-04T06:26:28.931Z</time></trkpt><trkpt lat="44.8126952" lon="11.6325455"><ele>5.0</ele><time>2026-04-04T06:26:29.931Z</time></trkpt><trkpt lat="44.812583" lon="11.6326381"><ele>5.0</ele><time>2026-04-04T06:26:30.93Z</time></trkpt><trkpt lat="44.8124769" lon="11.6327324"><ele>5.75</ele><time>2026-04-04T06:26:31.93Z</time></trkpt><trkpt lat="44.8123793" lon="11.6328277"><ele>6.5</ele><time>2026-04-04T06:26:32.931Z</time></trkpt><trkpt lat="44.8122835" lon="11.6329201"><ele>7.25</ele><time>2026-04-04T06:26:33.929Z</time></trkpt><trkpt lat="44.8121927" lon="11.633014"><ele>8.0</ele><time>2026-04-04T06:26:34.931Z</time></trkpt><trkpt lat="44.8121082" lon="11.6331098"><ele>8.0</ele><time>2026-04-04T06:26:35.931Z</time></trkpt><trkpt lat="44.8120205" lon="11.6332122"><ele>8.0</ele><time>2026-04-04T06:26:36.93Z</time></trkpt><trkpt lat="44.8119326" lon="11.6333124"><ele>8.0</ele><time>2026-04-04T06:26:37.929Z</time></trkpt><trkpt lat="44.8118402" lon="11.6334223"><ele>8.0</ele><time>2026-04-04T06:26:38.93Z</time></trkpt><trkpt lat="44.811739" lon="11.6335383"><ele>7.75</ele><time>2026-04-04T06:26:39.93Z</time></trkpt><trkpt lat="44.8116245" lon="11.6336684"><ele>7.5</ele><time>2026-04-04T06:26:40.93Z</time></trkpt><trkpt lat="44.8115016" lon="11.6337981"><ele>7.25</ele><time>2026-04-04T06:26:41.93Z</time></trkpt><trkpt lat="44.8113895" lon="11.6339233"><ele>7.0</ele><time>2026-04-04T06:26:42.929Z</time></trkpt><trkpt lat="44.8112817" lon="11.6340402"><ele>7.0</ele><time>2026-04-04T06:26:43.93Z</time></trkpt><trkpt lat="44.8111779" lon="11.6341551"><ele>7.0</ele><time>2026-04-04T06:26:44.931Z</time></trkpt><trkpt lat="44.8110736" lon="11.6342735"><ele>7.0</ele><time>2026-04-04T06:26:45.931Z</time></trkpt><trkpt lat="44.8109675" lon="11.6343882"><ele>7.0</ele><time>2026-04-04T06:26:46.931Z</time></trkpt><trkpt lat="44.8108609" lon="11.6345061"><ele>7.0</ele><time>2026-04-04T06:26:47.93Z</time></trkpt><trkpt lat="44.8107505" lon="11.6346214"><ele>7.0</ele><time>2026-04-04T06:26:48.931Z</time></trkpt><trkpt lat="44.8106359" lon="11.6347308"><ele>7.0</ele><time>2026-04-04T06:26:49.929Z</time></trkpt><trkpt lat="44.8105109" lon="11.6348189"><ele>7.0</ele><time>2026-04-04T06:26:50.931Z</time></trkpt><trkpt lat="44.8103841" lon="11.6348825"><ele>7.0</ele><time>2026-04-04T06:26:51.931Z</time></trkpt><trkpt lat="44.8102557" lon="11.6349298"><ele>7.0</ele><time>2026-04-04T06:26:52.931Z</time></trkpt><trkpt lat="44.8101232" lon="11.6349775"><ele>7.0</ele><time>2026-04-04T06:26:53.93Z</time></trkpt><trkpt lat="44.8099828" lon="11.6350213"><ele>7.0</ele><time>2026-04-04T06:26:54.93Z</time></trkpt><trkpt lat="44.8098479" lon="11.6350572"><ele>7.333333333333334</ele><time>2026-04-04T06:26:55.93Z</time></trkpt><trkpt lat="44.8097112" lon="11.6350932"><ele>7.666666666666666</ele><time>2026-04-04T06:26:56.93Z</time></trkpt><trkpt lat="44.8095631" lon="11.635135"><ele>8.0</ele><time>2026-04-04T06:26:57.931Z</time></trkpt><trkpt lat="44.8094014" lon="11.6351886"><ele>7.333333333333333</ele><time>2026-04-04T06:26:58.931Z</time></trkpt><trkpt lat="44.8092251" lon="11.6352409"><ele>6.666666666666666</ele><time>2026-04-04T06:26:59.931Z</time></trkpt><trkpt lat="44.8090314" lon="11.6352979"><ele>6.0</ele><time>2026-04-04T06:27:00.931Z</time></trkpt><trkpt lat="44.8088268" lon="11.63536"><ele>5.666666666666667</ele><time>2026-04-04T06:27:01.931Z</time></trkpt><trkpt lat="44.8086179" lon="11.6354197"><ele>5.333333333333334</ele><time>2026-04-04T06:27:02.931Z</time></trkpt><trkpt lat="44.8084032" lon="11.6354779"><ele>5.0</ele><time>2026-04-04T06:27:03.93Z</time></trkpt><trkpt lat="44.8081931" lon="11.6355303"><ele>5.0</ele><time>2026-04-04T06:27:04.93Z</time></trkpt><trkpt lat="44.8079929" lon="11.6355838"><ele>5.0</ele><time>2026-04-04T06:27:05.931Z</time></trkpt><trkpt lat="44.8078062" lon="11.6356452"><ele>5.0</ele><time>2026-04-04T06:27:06.931Z</time></trkpt><trkpt lat="44.807623" lon="11.6357056"><ele>5.333333333333334</ele><time>2026-04-04T06:27:07.931Z</time></trkpt><trkpt lat="44.8074422" lon="11.6357726"><ele>5.666666666666667</ele><time>2026-04-04T06:27:08.93Z</time></trkpt><trkpt lat="44.8072549" lon="11.6358465"><ele>6.0</ele><time>2026-04-04T06:27:09.931Z</time></trkpt><trkpt lat="44.8070558" lon="11.6359164"><ele>6.0</ele><time>2026-04-04T06:27:10.931Z</time></trkpt><trkpt lat="44.8068468" lon="11.6359736"><ele>6.0</ele><time>2026-04-04T06:27:11.93Z</time></trkpt><trkpt lat="44.8066267" lon="11.6360217"><ele>6.0</ele><time>2026-04-04T06:27:12.93Z</time></trkpt><trkpt lat="44.8064057" lon="11.6360569"><ele>6.333333333333334</ele><time>2026-04-04T06:27:13.93Z</time></trkpt><trkpt lat="44.8062096" lon="11.6360796"><ele>6.666666666666667</ele><time>2026-04-04T06:27:14.93Z</time></trkpt><trkpt lat="44.8060415" lon="11.6360909"><ele>7.0</ele><time>2026-04-04T06:27:15.93Z</time></trkpt><trkpt lat="44.8058838" lon="11.6360914"><ele>6.25</ele><time>2026-04-04T06:27:16.93Z</time></trkpt><trkpt lat="44.8057366" lon="11.6360887"><ele>5.5</ele><time>2026-04-04T06:27:17.93Z</time></trkpt><trkpt lat="44.8055958" lon="11.6360941"><ele>4.75</ele><time>2026-04-04T06:27:18.93Z</time></trkpt><trkpt lat="44.8054628" lon="11.6361008"><ele>4.0</ele><time>2026-04-04T06:27:19.93Z</time></trkpt><trkpt lat="44.8053429" lon="11.6361076"><ele>3.9999999999999996</ele><time>2026-04-04T06:27:20.929Z</time></trkpt><trkpt lat="44.8052647" lon="11.6361029"><ele>4.0</ele><time>2026-04-04T06:27:21.93Z</time></trkpt><trkpt lat="44.805209" lon="11.6360158"><ele>4.0</ele><time>2026-04-04T06:27:23.93Z</time></trkpt><trkpt lat="44.8051987" lon="11.6359281"><ele>4.0</ele><time>2026-04-04T06:27:24.931Z</time></trkpt><trkpt lat="44.8051745" lon="11.6358153"><ele>3.9999999999999996</ele><time>2026-04-04T06:27:25.931Z</time></trkpt><trkpt lat="44.8051328" lon="11.6356947"><ele>4.0</ele><time>2026-04-04T06:27:26.93Z</time></trkpt><trkpt lat="44.8050744" lon="11.6355582"><ele>4.0</ele><time>2026-04-04T06:27:27.931Z</time></trkpt><trkpt lat="44.8049956" lon="11.6354198"><ele>4.0</ele><time>2026-04-04T06:27:28.931Z</time></trkpt><trkpt lat="44.804902" lon="11.6352598"><ele>4.0</ele><time>2026-04-04T06:27:29.931Z</time></trkpt><trkpt lat="44.8048098" lon="11.6350883"><ele>4.0</ele><time>2026-04-04T06:27:30.931Z</time></trkpt><trkpt lat="44.8047112" lon="11.6348971"><ele>4.0</ele><time>2026-04-04T06:27:31.931Z</time></trkpt><trkpt lat="44.8046107" lon="11.6347017"><ele>4.0</ele><time>2026-04-04T06:27:32.931Z</time></trkpt><trkpt lat="44.8045101" lon="11.6345073"><ele>4.0</ele><time>2026-04-04T06:27:33.931Z</time></trkpt><trkpt lat="44.804408" lon="11.6343135"><ele>4.0</ele><time>2026-04-04T06:27:34.93Z</time></trkpt><trkpt lat="44.8043044" lon="11.6341216"><ele>4.0</ele><time>2026-04-04T06:27:35.929Z</time></trkpt><trkpt lat="44.8042016" lon="11.6339275"><ele>4.0</ele><time>2026-04-04T06:27:36.93Z</time></trkpt><trkpt lat="44.8040979" lon="11.6337346"><ele>4.666666666666666</ele><time>2026-04-04T06:27:37.93Z</time></trkpt><trkpt lat="44.8039956" lon="11.6335428"><ele>5.333333333333333</ele><time>2026-04-04T06:27:38.931Z</time></trkpt><trkpt lat="44.8038867" lon="11.6333424"><ele>6.0</ele><time>2026-04-04T06:27:39.931Z</time></trkpt><trkpt lat="44.8037706" lon="11.6331276"><ele>6.0</ele><time>2026-04-04T06:27:40.931Z</time></trkpt><trkpt lat="44.8036525" lon="11.6329081"><ele>6.0</ele><time>2026-04-04T06:27:41.93Z</time></trkpt><trkpt lat="44.80353" lon="11.6326742"><ele>6.0</ele><time>2026-04-04T06:27:42.931Z</time></trkpt><trkpt lat="44.8034161" lon="11.6324229"><ele>5.666666666666667</ele><time>2026-04-04T06:27:43.93Z</time></trkpt><trkpt lat="44.8033086" lon="11.6321518"><ele>5.333333333333334</ele><time>2026-04-04T06:27:44.931Z</time></trkpt><trkpt lat="44.8032043" lon="11.6318761"><ele>5.0</ele><time>2026-04-04T06:27:45.93Z</time></trkpt><trkpt lat="44.8031007" lon="11.6316045"><ele>5.0</ele><time>2026-04-04T06:27:46.931Z</time></trkpt><trkpt lat="44.802998" lon="11.6313403"><ele>5.0</ele><time>2026-04-04T06:27:47.931Z</time></trkpt><trkpt lat="44.8028969" lon="11.6310888"><ele>5.0</ele><time>2026-04-04T06:27:48.931Z</time></trkpt><trkpt lat="44.8028018" lon="11.6308574"><ele>5.0</ele><time>2026-04-04T06:27:49.931Z</time></trkpt><trkpt lat="44.8027012" lon="11.6306487"><ele>5.0</ele><time>2026-04-04T06:27:50.931Z</time></trkpt><trkpt lat="44.802558" lon="11.6304656"><ele>5.0</ele><time>2026-04-04T06:27:51.931Z</time></trkpt><trkpt lat="44.8024044" lon="11.6303249"><ele>5.333333333333334</ele><time>2026-04-04T06:27:52.931Z</time></trkpt><trkpt lat="44.8022301" lon="11.6302153"><ele>5.666666666666667</ele><time>2026-04-04T06:27:53.931Z</time></trkpt><trkpt lat="44.8020398" lon="11.6301295"><ele>6.0</ele><time>2026-04-04T06:27:54.931Z</time></trkpt><trkpt lat="44.8018402" lon="11.6300646"><ele>5.666666666666667</ele><time>2026-04-04T06:27:55.93Z</time></trkpt><trkpt lat="44.8016258" lon="11.6300043"><ele>5.333333333333334</ele><time>2026-04-04T06:27:56.93Z</time></trkpt><trkpt lat="44.8014056" lon="11.6299383"><ele>5.0</ele><time>2026-04-04T06:27:57.931Z</time></trkpt><trkpt lat="44.8011826" lon="11.6298689"><ele>5.0</ele><time>2026-04-04T06:27:58.93Z</time></trkpt><trkpt lat="44.8009615" lon="11.6298028"><ele>5.0</ele><time>2026-04-04T06:27:59.93Z</time></trkpt><trkpt lat="44.8007395" lon="11.6297357"><ele>5.0</ele><time>2026-04-04T06:28:00.931Z</time></trkpt><trkpt lat="44.8005257" lon="11.6296746"><ele>5.0</ele><time>2026-04-04T06:28:01.931Z</time></trkpt><trkpt lat="44.8003166" lon="11.6296406"><ele>5.0</ele><time>2026-04-04T06:28:02.931Z</time></trkpt><trkpt lat="44.8001058" lon="11.629646"><ele>4.333333333333334</ele><time>2026-04-04T06:28:03.931Z</time></trkpt><trkpt lat="44.7998939" lon="11.6296838"><ele>3.666666666666667</ele><time>2026-04-04T06:28:04.931Z</time></trkpt><trkpt lat="44.7996793" lon="11.6297364"><ele>3.0</ele><time>2026-04-04T06:28:05.931Z</time></trkpt><trkpt lat="44.799461" lon="11.6297893"><ele>3.333333333333333</ele><time>2026-04-04T06:28:06.93Z</time></trkpt><trkpt lat="44.7992442" lon="11.6298429"><ele>3.6666666666666665</ele><time>2026-04-04T06:28:07.931Z</time></trkpt><trkpt lat="44.7990285" lon="11.6298973"><ele>4.0</ele><time>2026-04-04T06:28:08.93Z</time></trkpt><trkpt lat="44.7988139" lon="11.6299488"><ele>4.0</ele><time>2026-04-04T06:28:09.93Z</time></trkpt><trkpt lat="44.7986025" lon="11.6300033"><ele>4.0</ele><time>2026-04-04T06:28:10.93Z</time></trkpt><trkpt lat="44.7983932" lon="11.6300577"><ele>4.0</ele><time>2026-04-04T06:28:11.93Z</time></trkpt><trkpt lat="44.7981861" lon="11.6301106"><ele>3.6666666666666665</ele><time>2026-04-04T06:28:12.93Z</time></trkpt><trkpt lat="44.7979815" lon="11.6301529"><ele>3.333333333333333</ele><time>2026-04-04T06:28:13.93Z</time></trkpt><trkpt lat="44.7977764" lon="11.6301796"><ele>3.0</ele><time>2026-04-04T06:28:14.93Z</time></trkpt><trkpt lat="44.7975699" lon="11.6301914"><ele>3.0</ele><time>2026-04-04T06:28:15.93Z</time></trkpt><trkpt lat="44.7973645" lon="11.6301885"><ele>3.0</ele><time>2026-04-04T06:28:16.929Z</time></trkpt><trkpt lat="44.797158" lon="11.6301755"><ele>3.0</ele><time>2026-04-04T06:28:17.93Z</time></trkpt><trkpt lat="44.7969538" lon="11.6301571"><ele>3.666666666666667</ele><time>2026-04-04T06:28:18.93Z</time></trkpt><trkpt lat="44.7967513" lon="11.6301314"><ele>4.333333333333334</ele><time>2026-04-04T06:28:19.93Z</time></trkpt><trkpt lat="44.79655" lon="11.6301018"><ele>5.0</ele><time>2026-04-04T06:28:20.931Z</time></trkpt><trkpt lat="44.7963496" lon="11.630067"><ele>5.0</ele><time>2026-04-04T06:28:21.931Z</time></trkpt><trkpt lat="44.7961496" lon="11.6300331"><ele>5.0</ele><time>2026-04-04T06:28:22.929Z</time></trkpt><trkpt lat="44.7959517" lon="11.6300005"><ele>5.0</ele><time>2026-04-04T06:28:23.929Z</time></trkpt><trkpt lat="44.7957544" lon="11.6299692"><ele>5.0</ele><time>2026-04-04T06:28:24.929Z</time></trkpt><trkpt lat="44.7955603" lon="11.6299398"><ele>5.0</ele><time>2026-04-04T06:28:25.93Z</time></trkpt><trkpt lat="44.795368" lon="11.6299193"><ele>5.0</ele><time>2026-04-04T06:28:26.931Z</time></trkpt><trkpt lat="44.7951772" lon="11.6299263"><ele>5.0</ele><time>2026-04-04T06:28:27.931Z</time></trkpt><trkpt lat="44.7949872" lon="11.6299675"><ele>5.0</ele><time>2026-04-04T06:28:28.929Z</time></trkpt><trkpt lat="44.7947971" lon="11.6300392"><ele>5.0</ele><time>2026-04-04T06:28:29.931Z</time></trkpt><trkpt lat="44.7946085" lon="11.630126"><ele>5.0</ele><time>2026-04-04T06:28:30.93Z</time></trkpt><trkpt lat="44.7944182" lon="11.6302149"><ele>5.0</ele><time>2026-04-04T06:28:31.931Z</time></trkpt><trkpt lat="44.7942258" lon="11.6302961"><ele>5.0</ele><time>2026-04-04T06:28:32.931Z</time></trkpt><trkpt lat="44.7940306" lon="11.6303756"><ele>5.0</ele><time>2026-04-04T06:28:33.931Z</time></trkpt><trkpt lat="44.7938376" lon="11.630455"><ele>5.0</ele><time>2026-04-04T06:28:34.931Z</time></trkpt><trkpt lat="44.7936423" lon="11.6305364"><ele>5.0</ele><time>2026-04-04T06:28:35.929Z</time></trkpt><trkpt lat="44.7934483" lon="11.6306201"><ele>5.0</ele><time>2026-04-04T06:28:36.931Z</time></trkpt><trkpt lat="44.7932535" lon="11.6307054"><ele>5.0</ele><time>2026-04-04T06:28:37.931Z</time></trkpt><trkpt lat="44.793059" lon="11.6307926"><ele>5.0</ele><time>2026-04-04T06:28:38.931Z</time></trkpt><trkpt lat="44.7928627" lon="11.6308769"><ele>5.333333333333334</ele><time>2026-04-04T06:28:39.93Z</time></trkpt><trkpt lat="44.7926686" lon="11.6309585"><ele>5.666666666666667</ele><time>2026-04-04T06:28:40.931Z</time></trkpt><trkpt lat="44.7924991" lon="11.6310398"><ele>6.0</ele><time>2026-04-04T06:28:41.931Z</time></trkpt><trkpt lat="44.792325" lon="11.6311092"><ele>6.0</ele><time>2026-04-04T06:28:42.931Z</time></trkpt><trkpt lat="44.7921405" lon="11.631156"><ele>6.0</ele><time>2026-04-04T06:28:43.931Z</time></trkpt><trkpt lat="44.7919546" lon="11.6311669"><ele>6.0</ele><time>2026-04-04T06:28:44.93Z</time></trkpt><trkpt lat="44.7917687" lon="11.6311334"><ele>6.0</ele><time>2026-04-04T06:28:45.931Z</time></trkpt><trkpt lat="44.7915781" lon="11.6310679"><ele>6.0</ele><time>2026-04-04T06:28:46.931Z</time></trkpt><trkpt lat="44.7913795" lon="11.63099"><ele>6.0</ele><time>2026-04-04T06:28:47.93Z</time></trkpt><trkpt lat="44.7911779" lon="11.6309152"><ele>6.333333333333334</ele><time>2026-04-04T06:28:48.931Z</time></trkpt><trkpt lat="44.790983" lon="11.6308268"><ele>6.666666666666667</ele><time>2026-04-04T06:28:49.931Z</time></trkpt><trkpt lat="44.7907968" lon="11.6307522"><ele>7.0</ele><time>2026-04-04T06:28:50.931Z</time></trkpt><trkpt lat="44.7906185" lon="11.6306819"><ele>7.0</ele><time>2026-04-04T06:28:51.931Z</time></trkpt><trkpt lat="44.790447" lon="11.6306013"><ele>7.0</ele><time>2026-04-04T06:28:52.931Z</time></trkpt><trkpt lat="44.7902873" lon="11.6304965"><ele>7.0</ele><time>2026-04-04T06:28:53.931Z</time></trkpt><trkpt lat="44.7901305" lon="11.6303704"><ele>7.666666666666667</ele><time>2026-04-04T06:28:54.93Z</time></trkpt><trkpt lat="44.7899841" lon="11.6302377"><ele>8.333333333333334</ele><time>2026-04-04T06:28:55.93Z</time></trkpt><trkpt lat="44.7898477" lon="11.6301207"><ele>9.0</ele><time>2026-04-04T06:28:56.931Z</time></trkpt><trkpt lat="44.7897173" lon="11.6300144"><ele>9.0</ele><time>2026-04-04T06:28:57.93Z</time></trkpt><trkpt lat="44.789589" lon="11.6299331"><ele>9.0</ele><time>2026-04-04T06:28:58.931Z</time></trkpt><trkpt lat="44.7894506" lon="11.6298777"><ele>9.0</ele><time>2026-04-04T06:28:59.93Z</time></trkpt><trkpt lat="44.7893111" lon="11.6298312"><ele>9.0</ele><time>2026-04-04T06:29:00.931Z</time></trkpt><trkpt lat="44.7891682" lon="11.6297848"><ele>8.25</ele><time>2026-04-04T06:29:01.931Z</time></trkpt><trkpt lat="44.7890275" lon="11.629737"><ele>7.5</ele><time>2026-04-04T06:29:02.931Z</time></trkpt><trkpt lat="44.7888919" lon="11.6296949"><ele>6.75</ele><time>2026-04-04T06:29:03.931Z</time></trkpt><trkpt lat="44.7887576" lon="11.6296531"><ele>6.0</ele><time>2026-04-04T06:29:04.931Z</time></trkpt><trkpt lat="44.7886213" lon="11.6296091"><ele>6.0</ele><time>2026-04-04T06:29:05.931Z</time></trkpt><trkpt lat="44.7884843" lon="11.6295697"><ele>6.0</ele><time>2026-04-04T06:29:06.931Z</time></trkpt><trkpt lat="44.788349" lon="11.6295447"><ele>6.0</ele><time>2026-04-04T06:29:07.931Z</time></trkpt><trkpt lat="44.7882206" lon="11.6295275"><ele>6.0</ele><time>2026-04-04T06:29:08.929Z</time></trkpt><trkpt lat="44.7880958" lon="11.6295117"><ele>6.0</ele><time>2026-04-04T06:29:09.93Z</time></trkpt><trkpt lat="44.7879722" lon="11.6294948"><ele>6.0</ele><time>2026-04-04T06:29:10.93Z</time></trkpt><trkpt lat="44.7878432" lon="11.6294784"><ele>6.0</ele><time>2026-04-04T06:29:11.931Z</time></trkpt><trkpt lat="44.7877043" lon="11.6294651"><ele>6.0</ele><time>2026-04-04T06:29:12.931Z</time></trkpt><trkpt lat="44.7875544" lon="11.6294547"><ele>7.0</ele><time>2026-04-04T06:29:13.931Z</time></trkpt><trkpt lat="44.7873961" lon="11.6294448"><ele>8.0</ele><time>2026-04-04T06:29:14.93Z</time></trkpt><trkpt lat="44.7872406" lon="11.629433"><ele>9.0</ele><time>2026-04-04T06:29:15.93Z</time></trkpt><trkpt lat="44.7870859" lon="11.6294213"><ele>9.0</ele><time>2026-04-04T06:29:16.929Z</time></trkpt><trkpt lat="44.7869377" lon="11.6294107"><ele>9.0</ele><time>2026-04-04T06:29:17.931Z</time></trkpt><trkpt lat="44.7867994" lon="11.6293976"><ele>9.0</ele><time>2026-04-04T06:29:18.931Z</time></trkpt><trkpt lat="44.7866655" lon="11.6293842"><ele>9.0</ele><time>2026-04-04T06:29:19.93Z</time></trkpt><trkpt lat="44.7865309" lon="11.6293662"><ele>8.75</ele><time>2026-04-04T06:29:20.93Z</time></trkpt><trkpt lat="44.7863916" lon="11.6293488"><ele>8.5</ele><time>2026-04-04T06:29:21.931Z</time></trkpt><trkpt lat="44.7862532" lon="11.6293277"><ele>8.25</ele><time>2026-04-04T06:29:22.931Z</time></trkpt><trkpt lat="44.7860976" lon="11.6293072"><ele>8.0</ele><time>2026-04-04T06:29:23.93Z</time></trkpt><trkpt lat="44.7859419" lon="11.6292848"><ele>8.0</ele><time>2026-04-04T06:29:24.931Z</time></trkpt><trkpt lat="44.7857848" lon="11.6292588"><ele>8.0</ele><time>2026-04-04T06:29:25.931Z</time></trkpt><trkpt lat="44.7856238" lon="11.6292289"><ele>8.0</ele><time>2026-04-04T06:29:26.93Z</time></trkpt><trkpt lat="44.7854609" lon="11.6291947"><ele>8.0</ele><time>2026-04-04T06:29:27.929Z</time></trkpt><trkpt lat="44.785299" lon="11.6291653"><ele>8.0</ele><time>2026-04-04T06:29:28.93Z</time></trkpt><trkpt lat="44.7851377" lon="11.629137"><ele>8.0</ele><time>2026-04-04T06:29:29.93Z</time></trkpt><trkpt lat="44.7849811" lon="11.6291106"><ele>7.75</ele><time>2026-04-04T06:29:30.93Z</time></trkpt><trkpt lat="44.7848338" lon="11.6290885"><ele>7.5</ele><time>2026-04-04T06:29:31.93Z</time></trkpt><trkpt lat="44.7846976" lon="11.6290704"><ele>7.25</ele><time>2026-04-04T06:29:32.929Z</time></trkpt><trkpt lat="44.7845618" lon="11.62906"><ele>7.0</ele><time>2026-04-04T06:29:33.931Z</time></trkpt><trkpt lat="44.7844242" lon="11.6290624"><ele>6.75</ele><time>2026-04-04T06:29:34.93Z</time></trkpt><trkpt lat="44.784287" lon="11.6290784"><ele>6.5</ele><time>2026-04-04T06:29:35.93Z</time></trkpt><trkpt lat="44.7841474" lon="11.6291138"><ele>6.25</ele><time>2026-04-04T06:29:36.931Z</time></trkpt><trkpt lat="44.7840036" lon="11.6291683"><ele>6.0</ele><time>2026-04-04T06:29:37.93Z</time></trkpt><trkpt lat="44.7838612" lon="11.6292376"><ele>6.0</ele><time>2026-04-04T06:29:38.931Z</time></trkpt><trkpt lat="44.7837224" lon="11.6293222"><ele>6.0</ele><time>2026-04-04T06:29:39.931Z</time></trkpt><trkpt lat="44.7835949" lon="11.6294239"><ele>6.0</ele><time>2026-04-04T06:29:40.931Z</time></trkpt><trkpt lat="44.7834828" lon="11.629559"><ele>6.0</ele><time>2026-04-04T06:29:41.93Z</time></trkpt><trkpt lat="44.7833779" lon="11.6297132"><ele>6.666666666666666</ele><time>2026-04-04T06:29:42.93Z</time></trkpt><trkpt lat="44.7832761" lon="11.6298835"><ele>7.333333333333333</ele><time>2026-04-04T06:29:43.931Z</time></trkpt><trkpt lat="44.7831768" lon="11.6300543"><ele>8.0</ele><time>2026-04-04T06:29:44.931Z</time></trkpt><trkpt lat="44.7830721" lon="11.6302391"><ele>7.333333333333333</ele><time>2026-04-04T06:29:45.931Z</time></trkpt><trkpt lat="44.7829701" lon="11.6304483"><ele>6.666666666666666</ele><time>2026-04-04T06:29:46.931Z</time></trkpt><trkpt lat="44.782851" lon="11.630677"><ele>6.0</ele><time>2026-04-04T06:29:47.93Z</time></trkpt><trkpt lat="44.7827181" lon="11.6309126"><ele>6.5</ele><time>2026-04-04T06:29:48.929Z</time></trkpt><trkpt lat="44.7825754" lon="11.6311523"><ele>7.0</ele><time>2026-04-04T06:29:49.929Z</time></trkpt><trkpt lat="44.7824283" lon="11.6314001"><ele>7.0</ele><time>2026-04-04T06:29:50.931Z</time></trkpt><trkpt lat="44.7822803" lon="11.6316609"><ele>7.0</ele><time>2026-04-04T06:29:51.931Z</time></trkpt><trkpt lat="44.7821293" lon="11.6319228"><ele>6.5</ele><time>2026-04-04T06:29:52.93Z</time></trkpt><trkpt lat="44.7819824" lon="11.6321766"><ele>6.0</ele><time>2026-04-04T06:29:53.931Z</time></trkpt><trkpt lat="44.7818308" lon="11.6324357"><ele>6.0</ele><time>2026-04-04T06:29:54.93Z</time></trkpt><trkpt lat="44.7816879" lon="11.6326961"><ele>6.0</ele><time>2026-04-04T06:29:55.931Z</time></trkpt><trkpt lat="44.7815439" lon="11.6329707"><ele>6.0</ele><time>2026-04-04T06:29:56.931Z</time></trkpt><trkpt lat="44.7814002" lon="11.6332552"><ele>6.0</ele><time>2026-04-04T06:29:57.931Z</time></trkpt><trkpt lat="44.7812525" lon="11.6335469"><ele>5.5</ele><time>2026-04-04T06:29:58.93Z</time></trkpt><trkpt lat="44.7811022" lon="11.6338413"><ele>5.0</ele><time>2026-04-04T06:29:59.93Z</time></trkpt><trkpt lat="44.7809535" lon="11.6341315"><ele>5.0</ele><time>2026-04-04T06:30:00.93Z</time></trkpt><trkpt lat="44.7808048" lon="11.6344195"><ele>5.0</ele><time>2026-04-04T06:30:01.93Z</time></trkpt><trkpt lat="44.7806568" lon="11.6347092"><ele>4.5</ele><time>2026-04-04T06:30:02.929Z</time></trkpt><trkpt lat="44.7805126" lon="11.6349984"><ele>4.0</ele><time>2026-04-04T06:30:03.93Z</time></trkpt><trkpt lat="44.7803734" lon="11.6352857"><ele>4.5</ele><time>2026-04-04T06:30:04.93Z</time></trkpt><trkpt lat="44.7802378" lon="11.6355728"><ele>5.0</ele><time>2026-04-04T06:30:05.93Z</time></trkpt><trkpt lat="44.7801086" lon="11.6358679"><ele>5.0</ele><time>2026-04-04T06:30:06.931Z</time></trkpt><trkpt lat="44.7799851" lon="11.6361662"><ele>5.0</ele><time>2026-04-04T06:30:07.931Z</time></trkpt><trkpt lat="44.7798638" lon="11.6364622"><ele>5.0</ele><time>2026-04-04T06:30:08.931Z</time></trkpt><trkpt lat="44.7797463" lon="11.636759"><ele>5.0</ele><time>2026-04-04T06:30:09.93Z</time></trkpt><trkpt lat="44.7796278" lon="11.6370509"><ele>4.5</ele><time>2026-04-04T06:30:10.93Z</time></trkpt><trkpt lat="44.7795055" lon="11.6373431"><ele>4.0</ele><time>2026-04-04T06:30:11.931Z</time></trkpt><trkpt lat="44.7793874" lon="11.6376355"><ele>4.5</ele><time>2026-04-04T06:30:12.931Z</time></trkpt><trkpt lat="44.7792682" lon="11.6379257"><ele>5.0</ele><time>2026-04-04T06:30:13.931Z</time></trkpt><trkpt lat="44.7791511" lon="11.6382091"><ele>5.0</ele><time>2026-04-04T06:30:14.93Z</time></trkpt><trkpt lat="44.7790359" lon="11.6384918"><ele>5.0</ele><time>2026-04-04T06:30:15.93Z</time></trkpt><trkpt lat="44.7789234" lon="11.6387733"><ele>5.0</ele><time>2026-04-04T06:30:16.931Z</time></trkpt><trkpt lat="44.7788098" lon="11.6390529"><ele>5.0</ele><time>2026-04-04T06:30:17.93Z</time></trkpt><trkpt lat="44.7786973" lon="11.6393336"><ele>5.333333333333334</ele><time>2026-04-04T06:30:18.93Z</time></trkpt><trkpt lat="44.7785795" lon="11.6396022"><ele>5.666666666666667</ele><time>2026-04-04T06:30:19.93Z</time></trkpt><trkpt lat="44.7784558" lon="11.6398657"><ele>6.0</ele><time>2026-04-04T06:30:20.931Z</time></trkpt><trkpt lat="44.7783157" lon="11.6401149"><ele>6.0</ele><time>2026-04-04T06:30:21.93Z</time></trkpt><trkpt lat="44.7781608" lon="11.64034"><ele>6.0</ele><time>2026-04-04T06:30:22.929Z</time></trkpt><trkpt lat="44.7779989" lon="11.6405643"><ele>6.0</ele><time>2026-04-04T06:30:23.93Z</time></trkpt><trkpt lat="44.777841" lon="11.6407796"><ele>6.0</ele><time>2026-04-04T06:30:24.931Z</time></trkpt><trkpt lat="44.7776833" lon="11.641003"><ele>6.0</ele><time>2026-04-04T06:30:25.931Z</time></trkpt><trkpt lat="44.7775263" lon="11.6412244"><ele>5.5</ele><time>2026-04-04T06:30:26.931Z</time></trkpt><trkpt lat="44.7773628" lon="11.6414457"><ele>5.0</ele><time>2026-04-04T06:30:27.93Z</time></trkpt><trkpt lat="44.777203" lon="11.6416729"><ele>5.0</ele><time>2026-04-04T06:30:28.93Z</time></trkpt><trkpt lat="44.777042" lon="11.641901"><ele>5.0</ele><time>2026-04-04T06:30:29.93Z</time></trkpt><trkpt lat="44.7768813" lon="11.6421309"><ele>4.5</ele><time>2026-04-04T06:30:30.931Z</time></trkpt><trkpt lat="44.7767169" lon="11.642356"><ele>4.0</ele><time>2026-04-04T06:30:31.93Z</time></trkpt><trkpt lat="44.7765512" lon="11.6425839"><ele>4.0</ele><time>2026-04-04T06:30:32.931Z</time></trkpt><trkpt lat="44.7763856" lon="11.6428128"><ele>4.0</ele><time>2026-04-04T06:30:33.929Z</time></trkpt><trkpt lat="44.7762218" lon="11.6430437"><ele>4.0</ele><time>2026-04-04T06:30:34.93Z</time></trkpt><trkpt lat="44.7760555" lon="11.6432723"><ele>4.0</ele><time>2026-04-04T06:30:35.931Z</time></trkpt><trkpt lat="44.7758915" lon="11.6435051"><ele>4.0</ele><time>2026-04-04T06:30:36.93Z</time></trkpt><trkpt lat="44.7757273" lon="11.643732"><ele>4.0</ele><time>2026-04-04T06:30:37.93Z</time></trkpt><trkpt lat="44.7755562" lon="11.6439588"><ele>4.0</ele><time>2026-04-04T06:30:38.93Z</time></trkpt><trkpt lat="44.7753752" lon="11.6441584"><ele>4.0</ele><time>2026-04-04T06:30:39.93Z</time></trkpt><trkpt lat="44.7751824" lon="11.6443204"><ele>5.0</ele><time>2026-04-04T06:30:40.931Z</time></trkpt><trkpt lat="44.7749784" lon="11.6444573"><ele>6.0</ele><time>2026-04-04T06:30:41.93Z</time></trkpt><trkpt lat="44.774775" lon="11.644594"><ele>6.0</ele><time>2026-04-04T06:30:42.931Z</time></trkpt><trkpt lat="44.7745845" lon="11.6447486"><ele>6.0</ele><time>2026-04-04T06:30:43.931Z</time></trkpt><trkpt lat="44.774398" lon="11.6449275"><ele>6.0</ele><time>2026-04-04T06:30:44.931Z</time></trkpt><trkpt lat="44.7742195" lon="11.6451277"><ele>6.0</ele><time>2026-04-04T06:30:45.931Z</time></trkpt><trkpt lat="44.7740427" lon="11.6453336"><ele>6.0</ele><time>2026-04-04T06:30:46.931Z</time></trkpt><trkpt lat="44.7738634" lon="11.6455404"><ele>6.0</ele><time>2026-04-04T06:30:47.931Z</time></trkpt><trkpt lat="44.773683" lon="11.6457478"><ele>6.0</ele><time>2026-04-04T06:30:48.93Z</time></trkpt><trkpt lat="44.7735042" lon="11.6459541"><ele>6.0</ele><time>2026-04-04T06:30:49.93Z</time></trkpt><trkpt lat="44.7733266" lon="11.6461656"><ele>6.0</ele><time>2026-04-04T06:30:50.931Z</time></trkpt><trkpt lat="44.7731473" lon="11.6463773"><ele>6.0</ele><time>2026-04-04T06:30:51.931Z</time></trkpt><trkpt lat="44.7729673" lon="11.6465867"><ele>6.0</ele><time>2026-04-04T06:30:52.931Z</time></trkpt><trkpt lat="44.7727909" lon="11.646799"><ele>6.0</ele><time>2026-04-04T06:30:53.93Z</time></trkpt><trkpt lat="44.7726137" lon="11.6470036"><ele>6.0</ele><time>2026-04-04T06:30:54.931Z</time></trkpt><trkpt lat="44.7724356" lon="11.6472098"><ele>6.0</ele><time>2026-04-04T06:30:55.931Z</time></trkpt><trkpt lat="44.7722561" lon="11.6474154"><ele>6.0</ele><time>2026-04-04T06:30:56.931Z</time></trkpt><trkpt lat="44.7720781" lon="11.6476176"><ele>5.5</ele><time>2026-04-04T06:30:57.931Z</time></trkpt><trkpt lat="44.7719035" lon="11.6478166"><ele>5.0</ele><time>2026-04-04T06:30:58.931Z</time></trkpt><trkpt lat="44.7717294" lon="11.6480233"><ele>5.0</ele><time>2026-04-04T06:30:59.931Z</time></trkpt><trkpt lat="44.7715597" lon="11.6482281"><ele>5.0</ele><time>2026-04-04T06:31:00.931Z</time></trkpt><trkpt lat="44.7713857" lon="11.6484308"><ele>5.0</ele><time>2026-04-04T06:31:01.931Z</time></trkpt><trkpt lat="44.7712141" lon="11.6486363"><ele>5.0</ele><time>2026-04-04T06:31:02.931Z</time></trkpt><trkpt lat="44.7710416" lon="11.6488431"><ele>5.0</ele><time>2026-04-04T06:31:03.93Z</time></trkpt><trkpt lat="44.7708729" lon="11.6490575"><ele>5.0</ele><time>2026-04-04T06:31:04.93Z</time></trkpt><trkpt lat="44.7707132" lon="11.6492845"><ele>5.0</ele><time>2026-04-04T06:31:05.93Z</time></trkpt><trkpt lat="44.7705528" lon="11.6495063"><ele>5.0</ele><time>2026-04-04T06:31:06.93Z</time></trkpt><trkpt lat="44.7703872" lon="11.6497308"><ele>5.0</ele><time>2026-04-04T06:31:07.93Z</time></trkpt><trkpt lat="44.7702287" lon="11.6499578"><ele>5.5</ele><time>2026-04-04T06:31:08.929Z</time></trkpt><trkpt lat="44.7700668" lon="11.6501824"><ele>6.0</ele><time>2026-04-04T06:31:09.93Z</time></trkpt><trkpt lat="44.7699067" lon="11.6504075"><ele>6.0</ele><time>2026-04-04T06:31:10.931Z</time></trkpt><trkpt lat="44.7697491" lon="11.6506359"><ele>6.0</ele><time>2026-04-04T06:31:11.93Z</time></trkpt><trkpt lat="44.7696123" lon="11.6508778"><ele>6.0</ele><time>2026-04-04T06:31:12.929Z</time></trkpt><trkpt lat="44.7695028" lon="11.6511398"><ele>6.0</ele><time>2026-04-04T06:31:13.93Z</time></trkpt><trkpt lat="44.7693989" lon="11.6514088"><ele>6.0</ele><time>2026-04-04T06:31:14.93Z</time></trkpt><trkpt lat="44.7692784" lon="11.6516667"><ele>6.0</ele><time>2026-04-04T06:31:15.93Z</time></trkpt><trkpt lat="44.7691423" lon="11.6519073"><ele>5.666666666666667</ele><time>2026-04-04T06:31:16.931Z</time></trkpt><trkpt lat="44.7689874" lon="11.6521325"><ele>5.333333333333334</ele><time>2026-04-04T06:31:17.931Z</time></trkpt><trkpt lat="44.7688258" lon="11.6523403"><ele>5.0</ele><time>2026-04-04T06:31:18.931Z</time></trkpt><trkpt lat="44.7686649" lon="11.6525431"><ele>5.0</ele><time>2026-04-04T06:31:19.93Z</time></trkpt><trkpt lat="44.7685061" lon="11.6527435"><ele>5.0</ele><time>2026-04-04T06:31:20.93Z</time></trkpt><trkpt lat="44.7683405" lon="11.6529285"><ele>5.0</ele><time>2026-04-04T06:31:21.93Z</time></trkpt><trkpt lat="44.768162" lon="11.6530939"><ele>5.0</ele><time>2026-04-04T06:31:22.93Z</time></trkpt><trkpt lat="44.7679754" lon="11.653244"><ele>5.0</ele><time>2026-04-04T06:31:23.93Z</time></trkpt><trkpt lat="44.7677884" lon="11.6533844"><ele>5.0</ele><time>2026-04-04T06:31:24.93Z</time></trkpt><trkpt lat="44.7676052" lon="11.6535284"><ele>5.333333333333334</ele><time>2026-04-04T06:31:25.93Z</time></trkpt><trkpt lat="44.7674245" lon="11.6536873"><ele>5.666666666666667</ele><time>2026-04-04T06:31:26.931Z</time></trkpt><trkpt lat="44.767243" lon="11.6538718"><ele>6.0</ele><time>2026-04-04T06:31:27.93Z</time></trkpt><trkpt lat="44.7670647" lon="11.6540628"><ele>6.0</ele><time>2026-04-04T06:31:28.929Z</time></trkpt><trkpt lat="44.7668885" lon="11.6542577"><ele>6.0</ele><time>2026-04-04T06:31:29.929Z</time></trkpt><trkpt lat="44.7667165" lon="11.6544533"><ele>6.0</ele><time>2026-04-04T06:31:30.93Z</time></trkpt><trkpt lat="44.7665465" lon="11.6546456"><ele>5.666666666666667</ele><time>2026-04-04T06:31:31.929Z</time></trkpt><trkpt lat="44.7663791" lon="11.6548347"><ele>5.333333333333334</ele><time>2026-04-04T06:31:32.93Z</time></trkpt><trkpt lat="44.7662125" lon="11.6550187"><ele>5.0</ele><time>2026-04-04T06:31:33.93Z</time></trkpt><trkpt lat="44.766046" lon="11.6551987"><ele>6.0</ele><time>2026-04-04T06:31:34.93Z</time></trkpt><trkpt lat="44.7658733" lon="11.6553598"><ele>7.0</ele><time>2026-04-04T06:31:35.93Z</time></trkpt><trkpt lat="44.7656895" lon="11.6554868"><ele>8.0</ele><time>2026-04-04T06:31:36.93Z</time></trkpt><trkpt lat="44.7654913" lon="11.6555841"><ele>8.0</ele><time>2026-04-04T06:31:37.93Z</time></trkpt><trkpt lat="44.7652838" lon="11.6556717"><ele>8.0</ele><time>2026-04-04T06:31:38.93Z</time></trkpt><trkpt lat="44.7650716" lon="11.6557619"><ele>8.0</ele><time>2026-04-04T06:31:39.93Z</time></trkpt><trkpt lat="44.764859" lon="11.6558491"><ele>8.0</ele><time>2026-04-04T06:31:40.931Z</time></trkpt><trkpt lat="44.7646468" lon="11.655937"><ele>8.0</ele><time>2026-04-04T06:31:41.93Z</time></trkpt><trkpt lat="44.7644364" lon="11.6560202"><ele>8.0</ele><time>2026-04-04T06:31:42.93Z</time></trkpt><trkpt lat="44.7642276" lon="11.6561136"><ele>7.666666666666666</ele><time>2026-04-04T06:31:43.93Z</time></trkpt><trkpt lat="44.7640298" lon="11.6561935"><ele>7.333333333333334</ele><time>2026-04-04T06:31:44.931Z</time></trkpt><trkpt lat="44.7638478" lon="11.6562739"><ele>7.0</ele><time>2026-04-04T06:31:45.931Z</time></trkpt><trkpt lat="44.7636858" lon="11.6563806"><ele>7.0</ele><time>2026-04-04T06:31:46.931Z</time></trkpt><trkpt lat="44.7635509" lon="11.6565186"><ele>7.0</ele><time>2026-04-04T06:31:47.93Z</time></trkpt><trkpt lat="44.7634246" lon="11.6567001"><ele>7.0</ele><time>2026-04-04T06:31:48.931Z</time></trkpt><trkpt lat="44.7633101" lon="11.6569129"><ele>7.666666666666667</ele><time>2026-04-04T06:31:49.93Z</time></trkpt><trkpt lat="44.7631934" lon="11.6571391"><ele>8.333333333333334</ele><time>2026-04-04T06:31:50.929Z</time></trkpt><trkpt lat="44.7630695" lon="11.657375"><ele>9.0</ele><time>2026-04-04T06:31:51.93Z</time></trkpt><trkpt lat="44.7629425" lon="11.6576146"><ele>8.666666666666666</ele><time>2026-04-04T06:31:52.93Z</time></trkpt><trkpt lat="44.7628183" lon="11.6578532"><ele>8.333333333333332</ele><time>2026-04-04T06:31:53.929Z</time></trkpt><trkpt lat="44.7626968" lon="11.6580842"><ele>8.0</ele><time>2026-04-04T06:31:54.929Z</time></trkpt><trkpt lat="44.7625832" lon="11.6582967"><ele>7.75</ele><time>2026-04-04T06:31:55.93Z</time></trkpt><trkpt lat="44.762475" lon="11.6584497"><ele>7.5</ele><time>2026-04-04T06:31:56.93Z</time></trkpt><trkpt lat="44.7623502" lon="11.6585618"><ele>7.25</ele><time>2026-04-04T06:31:57.93Z</time></trkpt><trkpt lat="44.7622166" lon="11.658622"><ele>7.0</ele><time>2026-04-04T06:31:58.931Z</time></trkpt><trkpt lat="44.7620728" lon="11.658641"><ele>7.0</ele><time>2026-04-04T06:31:59.931Z</time></trkpt><trkpt lat="44.7619122" lon="11.6586447"><ele>7.0</ele><time>2026-04-04T06:32:00.931Z</time></trkpt><trkpt lat="44.7617399" lon="11.6586449"><ele>7.0</ele><time>2026-04-04T06:32:01.931Z</time></trkpt><trkpt lat="44.7615566" lon="11.6586546"><ele>7.0</ele><time>2026-04-04T06:32:02.929Z</time></trkpt><trkpt lat="44.7613584" lon="11.6586574"><ele>7.0</ele><time>2026-04-04T06:32:03.931Z</time></trkpt><trkpt lat="44.7611519" lon="11.6586557"><ele>7.0</ele><time>2026-04-04T06:32:04.929Z</time></trkpt><trkpt lat="44.7609432" lon="11.6586536"><ele>6.0</ele><time>2026-04-04T06:32:05.929Z</time></trkpt><trkpt lat="44.7607326" lon="11.6586561"><ele>5.0</ele><time>2026-04-04T06:32:06.929Z</time></trkpt><trkpt lat="44.7605215" lon="11.6586567"><ele>4.0</ele><time>2026-04-04T06:32:07.931Z</time></trkpt><trkpt lat="44.7603084" lon="11.6586569"><ele>3.6666666666666665</ele><time>2026-04-04T06:32:08.93Z</time></trkpt><trkpt lat="44.7600948" lon="11.6586602"><ele>3.333333333333333</ele><time>2026-04-04T06:32:09.93Z</time></trkpt><trkpt lat="44.7598833" lon="11.6586606"><ele>3.0</ele><time>2026-04-04T06:32:10.931Z</time></trkpt><trkpt lat="44.7596751" lon="11.6586614"><ele>3.0</ele><time>2026-04-04T06:32:11.931Z</time></trkpt><trkpt lat="44.759472" lon="11.6586601"><ele>3.0</ele><time>2026-04-04T06:32:12.93Z</time></trkpt><trkpt lat="44.7592715" lon="11.6586461"><ele>3.0</ele><time>2026-04-04T06:32:13.931Z</time></trkpt><trkpt lat="44.7590739" lon="11.6585903"><ele>3.333333333333333</ele><time>2026-04-04T06:32:14.929Z</time></trkpt><trkpt lat="44.7588847" lon="11.6584971"><ele>3.6666666666666665</ele><time>2026-04-04T06:32:15.931Z</time></trkpt><trkpt lat="44.7587037" lon="11.6583649"><ele>4.0</ele><time>2026-04-04T06:32:16.93Z</time></trkpt><trkpt lat="44.7585313" lon="11.6582012"><ele>4.333333333333333</ele><time>2026-04-04T06:32:17.93Z</time></trkpt><trkpt lat="44.7583705" lon="11.6580077"><ele>4.666666666666667</ele><time>2026-04-04T06:32:18.931Z</time></trkpt><trkpt lat="44.7582162" lon="11.6577935"><ele>5.0</ele><time>2026-04-04T06:32:19.931Z</time></trkpt><trkpt lat="44.7580582" lon="11.6575748"><ele>5.0</ele><time>2026-04-04T06:32:20.931Z</time></trkpt><trkpt lat="44.7579042" lon="11.6573607"><ele>5.0</ele><time>2026-04-04T06:32:21.929Z</time></trkpt><trkpt lat="44.757761" lon="11.6571596"><ele>5.0</ele><time>2026-04-04T06:32:22.93Z</time></trkpt><trkpt lat="44.7576199" lon="11.6569619"><ele>4.666666666666667</ele><time>2026-04-04T06:32:23.929Z</time></trkpt><trkpt lat="44.7574802" lon="11.6567679"><ele>4.333333333333333</ele><time>2026-04-04T06:32:24.93Z</time></trkpt><trkpt lat="44.7573352" lon="11.6565826"><ele>4.0</ele><time>2026-04-04T06:32:25.93Z</time></trkpt><trkpt lat="44.7571753" lon="11.656424"><ele>4.0</ele><time>2026-04-04T06:32:26.93Z</time></trkpt><trkpt lat="44.7569951" lon="11.6563053"><ele>4.0</ele><time>2026-04-04T06:32:27.93Z</time></trkpt><trkpt lat="44.7568002" lon="11.6562107"><ele>4.0</ele><time>2026-04-04T06:32:28.93Z</time></trkpt><trkpt lat="44.756602" lon="11.6561207"><ele>4.333333333333333</ele><time>2026-04-04T06:32:29.929Z</time></trkpt><trkpt lat="44.7564042" lon="11.6560201"><ele>4.666666666666667</ele><time>2026-04-04T06:32:30.93Z</time></trkpt><trkpt lat="44.7562049" lon="11.655921"><ele>5.0</ele><time>2026-04-04T06:32:31.93Z</time></trkpt><trkpt lat="44.7560065" lon="11.6558305"><ele>5.333333333333334</ele><time>2026-04-04T06:32:32.93Z</time></trkpt><trkpt lat="44.755805" lon="11.6557596"><ele>5.666666666666667</ele><time>2026-04-04T06:32:33.93Z</time></trkpt><trkpt lat="44.7556016" lon="11.6557057"><ele>6.0</ele><time>2026-04-04T06:32:34.93Z</time></trkpt><trkpt lat="44.755396" lon="11.6556616"><ele>6.333333333333334</ele><time>2026-04-04T06:32:35.93Z</time></trkpt><trkpt lat="44.7551892" lon="11.6556165"><ele>6.666666666666667</ele><time>2026-04-04T06:32:36.931Z</time></trkpt><trkpt lat="44.7549821" lon="11.6555716"><ele>7.0</ele><time>2026-04-04T06:32:37.931Z</time></trkpt><trkpt lat="44.7547742" lon="11.6555263"><ele>7.0</ele><time>2026-04-04T06:32:38.93Z</time></trkpt><trkpt lat="44.754568" lon="11.6554801"><ele>7.0</ele><time>2026-04-04T06:32:39.931Z</time></trkpt><trkpt lat="44.7543626" lon="11.65543"><ele>7.0</ele><time>2026-04-04T06:32:40.93Z</time></trkpt><trkpt lat="44.7541578" lon="11.6553802"><ele>7.0</ele><time>2026-04-04T06:32:41.93Z</time></trkpt><trkpt lat="44.7539554" lon="11.6553339"><ele>7.0</ele><time>2026-04-04T06:32:42.93Z</time></trkpt><trkpt lat="44.7537534" lon="11.655289"><ele>7.0</ele><time>2026-04-04T06:32:43.93Z</time></trkpt><trkpt lat="44.7535519" lon="11.6552452"><ele>7.666666666666667</ele><time>2026-04-04T06:32:44.93Z</time></trkpt><trkpt lat="44.7533512" lon="11.6552021"><ele>8.333333333333334</ele><time>2026-04-04T06:32:45.93Z</time></trkpt><trkpt lat="44.7531574" lon="11.6551549"><ele>9.0</ele><time>2026-04-04T06:32:46.931Z</time></trkpt><trkpt lat="44.7529749" lon="11.6551132"><ele>9.0</ele><time>2026-04-04T06:32:47.931Z</time></trkpt><trkpt lat="44.7527922" lon="11.6550975"><ele>9.0</ele><time>2026-04-04T06:32:48.931Z</time></trkpt><trkpt lat="44.7526059" lon="11.6551375"><ele>9.0</ele><time>2026-04-04T06:32:49.931Z</time></trkpt><trkpt lat="44.7524195" lon="11.6552239"><ele>8.333333333333334</ele><time>2026-04-04T06:32:50.931Z</time></trkpt><trkpt lat="44.752232" lon="11.6553286"><ele>7.666666666666667</ele><time>2026-04-04T06:32:51.931Z</time></trkpt><trkpt lat="44.7520378" lon="11.6554375"><ele>7.0</ele><time>2026-04-04T06:32:52.93Z</time></trkpt><trkpt lat="44.7518425" lon="11.6555489"><ele>7.0</ele><time>2026-04-04T06:32:53.931Z</time></trkpt><trkpt lat="44.7516428" lon="11.6556595"><ele>7.0</ele><time>2026-04-04T06:32:54.93Z</time></trkpt><trkpt lat="44.7514423" lon="11.6557728"><ele>7.0</ele><time>2026-04-04T06:32:55.93Z</time></trkpt><trkpt lat="44.7512416" lon="11.6558881"><ele>7.0</ele><time>2026-04-04T06:32:56.93Z</time></trkpt><trkpt lat="44.7510415" lon="11.6560049"><ele>7.0</ele><time>2026-04-04T06:32:57.93Z</time></trkpt><trkpt lat="44.7508408" lon="11.6561226"><ele>7.0</ele><time>2026-04-04T06:32:58.93Z</time></trkpt><trkpt lat="44.750642" lon="11.6562387"><ele>6.666666666666667</ele><time>2026-04-04T06:32:59.93Z</time></trkpt><trkpt lat="44.7504469" lon="11.6563484"><ele>6.333333333333334</ele><time>2026-04-04T06:33:00.93Z</time></trkpt><trkpt lat="44.7502594" lon="11.6564514"><ele>6.0</ele><time>2026-04-04T06:33:01.93Z</time></trkpt><trkpt lat="44.7500806" lon="11.6565516"><ele>6.666666666666666</ele><time>2026-04-04T06:33:02.931Z</time></trkpt><trkpt lat="44.7499071" lon="11.656642"><ele>7.333333333333333</ele><time>2026-04-04T06:33:03.931Z</time></trkpt><trkpt lat="44.7497336" lon="11.6567011"><ele>8.0</ele><time>2026-04-04T06:33:04.931Z</time></trkpt><trkpt lat="44.7495567" lon="11.6567179"><ele>8.0</ele><time>2026-04-04T06:33:05.931Z</time></trkpt><trkpt lat="44.74937" lon="11.6567027"><ele>8.0</ele><time>2026-04-04T06:33:06.931Z</time></trkpt><trkpt lat="44.7491873" lon="11.6566663"><ele>8.0</ele><time>2026-04-04T06:33:07.931Z</time></trkpt><trkpt lat="44.7490054" lon="11.6566324"><ele>8.0</ele><time>2026-04-04T06:33:08.93Z</time></trkpt><trkpt lat="44.7488299" lon="11.6566053"><ele>8.0</ele><time>2026-04-04T06:33:09.93Z</time></trkpt><trkpt lat="44.748653" lon="11.656585"><ele>8.0</ele><time>2026-04-04T06:33:10.931Z</time></trkpt><trkpt lat="44.7484827" lon="11.6565938"><ele>7.666666666666666</ele><time>2026-04-04T06:33:11.931Z</time></trkpt><trkpt lat="44.7483041" lon="11.6566472"><ele>7.333333333333334</ele><time>2026-04-04T06:33:12.929Z</time></trkpt><trkpt lat="44.7481219" lon="11.6567351"><ele>7.0</ele><time>2026-04-04T06:33:13.93Z</time></trkpt><trkpt lat="44.7479398" lon="11.6568333"><ele>7.0</ele><time>2026-04-04T06:33:14.93Z</time></trkpt><trkpt lat="44.7477584" lon="11.656936"><ele>7.0</ele><time>2026-04-04T06:33:15.93Z</time></trkpt><trkpt lat="44.7475774" lon="11.6570383"><ele>7.0</ele><time>2026-04-04T06:33:16.931Z</time></trkpt><trkpt lat="44.747399" lon="11.6571436"><ele>6.0</ele><time>2026-04-04T06:33:17.931Z</time></trkpt><trkpt lat="44.7472246" lon="11.6572617"><ele>5.0</ele><time>2026-04-04T06:33:18.93Z</time></trkpt><trkpt lat="44.7470593" lon="11.6574148"><ele>4.0</ele><time>2026-04-04T06:33:19.93Z</time></trkpt><trkpt lat="44.74691" lon="11.6576053"><ele>4.333333333333333</ele><time>2026-04-04T06:33:20.93Z</time></trkpt><trkpt lat="44.7467794" lon="11.6578312"><ele>4.666666666666667</ele><time>2026-04-04T06:33:21.929Z</time></trkpt><trkpt lat="44.7466666" lon="11.6580972"><ele>5.0</ele><time>2026-04-04T06:33:22.93Z</time></trkpt><trkpt lat="44.7465719" lon="11.658383"><ele>5.5</ele><time>2026-04-04T06:33:23.931Z</time></trkpt><trkpt lat="44.7464816" lon="11.6586918"><ele>6.0</ele><time>2026-04-04T06:33:24.929Z</time></trkpt><trkpt lat="44.7463865" lon="11.6590035"><ele>6.0</ele><time>2026-04-04T06:33:25.931Z</time></trkpt><trkpt lat="44.7462867" lon="11.6593178"><ele>6.0</ele><time>2026-04-04T06:33:26.931Z</time></trkpt><trkpt lat="44.7461831" lon="11.6596346"><ele>6.0</ele><time>2026-04-04T06:33:27.931Z</time></trkpt><trkpt lat="44.7460783" lon="11.6599536"><ele>6.0</ele><time>2026-04-04T06:33:28.93Z</time></trkpt><trkpt lat="44.7459718" lon="11.6602755"><ele>5.0</ele><time>2026-04-04T06:33:29.931Z</time></trkpt><trkpt lat="44.7458619" lon="11.6605949"><ele>4.0</ele><time>2026-04-04T06:33:30.931Z</time></trkpt><trkpt lat="44.7457537" lon="11.6609059"><ele>4.0</ele><time>2026-04-04T06:33:31.93Z</time></trkpt><trkpt lat="44.7456503" lon="11.6612108"><ele>4.0</ele><time>2026-04-04T06:33:32.931Z</time></trkpt><trkpt lat="44.7455545" lon="11.6614961"><ele>4.0</ele><time>2026-04-04T06:33:33.931Z</time></trkpt><trkpt lat="44.7454611" lon="11.6617601"><ele>4.0</ele><time>2026-04-04T06:33:34.931Z</time></trkpt><trkpt lat="44.7453575" lon="11.6619971"><ele>4.0</ele><time>2026-04-04T06:33:35.93Z</time></trkpt><trkpt lat="44.7452238" lon="11.6622046"><ele>4.666666666666666</ele><time>2026-04-04T06:33:36.93Z</time></trkpt><trkpt lat="44.7450628" lon="11.6623836"><ele>5.333333333333333</ele><time>2026-04-04T06:33:37.931Z</time></trkpt><trkpt lat="44.7448871" lon="11.662558"><ele>6.0</ele><time>2026-04-04T06:33:38.931Z</time></trkpt><trkpt lat="44.7447074" lon="11.6627387"><ele>5.666666666666667</ele><time>2026-04-04T06:33:39.931Z</time></trkpt><trkpt lat="44.7445291" lon="11.6629143"><ele>5.333333333333334</ele><time>2026-04-04T06:33:40.931Z</time></trkpt><trkpt lat="44.7443638" lon="11.6630822"><ele>5.0</ele><time>2026-04-04T06:33:41.93Z</time></trkpt><trkpt lat="44.7442124" lon="11.6632419"><ele>5.0</ele><time>2026-04-04T06:33:42.931Z</time></trkpt><trkpt lat="44.7440835" lon="11.6634253"><ele>5.0</ele><time>2026-04-04T06:33:43.931Z</time></trkpt><trkpt lat="44.7439782" lon="11.6636555"><ele>5.0</ele><time>2026-04-04T06:33:44.931Z</time></trkpt><trkpt lat="44.7439078" lon="11.6639202"><ele>5.0</ele><time>2026-04-04T06:33:45.931Z</time></trkpt><trkpt lat="44.7438523" lon="11.6642065"><ele>5.0</ele><time>2026-04-04T06:33:46.929Z</time></trkpt><trkpt lat="44.7437953" lon="11.664507"><ele>5.0</ele><time>2026-04-04T06:33:47.93Z</time></trkpt><trkpt lat="44.7437353" lon="11.6648154"><ele>5.0</ele><time>2026-04-04T06:33:48.931Z</time></trkpt><trkpt lat="44.7436603" lon="11.66512"><ele>5.0</ele><time>2026-04-04T06:33:49.931Z</time></trkpt><trkpt lat="44.7435573" lon="11.6654093"><ele>5.5</ele><time>2026-04-04T06:33:50.931Z</time></trkpt><trkpt lat="44.7434262" lon="11.6656842"><ele>6.0</ele><time>2026-04-04T06:33:51.931Z</time></trkpt><trkpt lat="44.7432793" lon="11.6659522"><ele>5.0</ele><time>2026-04-04T06:33:52.93Z</time></trkpt><trkpt lat="44.7431295" lon="11.6662308"><ele>4.0</ele><time>2026-04-04T06:33:53.93Z</time></trkpt><trkpt lat="44.7429808" lon="11.6665111"><ele>4.0</ele><time>2026-04-04T06:33:54.93Z</time></trkpt><trkpt lat="44.7428278" lon="11.6667892"><ele>4.0</ele><time>2026-04-04T06:33:55.929Z</time></trkpt><trkpt lat="44.7426756" lon="11.667066"><ele>4.0</ele><time>2026-04-04T06:33:56.931Z</time></trkpt><trkpt lat="44.7425237" lon="11.6673445"><ele>4.0</ele><time>2026-04-04T06:33:57.929Z</time></trkpt><trkpt lat="44.7423729" lon="11.6676213"><ele>5.0</ele><time>2026-04-04T06:33:58.931Z</time></trkpt><trkpt lat="44.742223" lon="11.6678979"><ele>6.0</ele><time>2026-04-04T06:33:59.931Z</time></trkpt><trkpt lat="44.7420716" lon="11.6681727"><ele>6.0</ele><time>2026-04-04T06:34:00.931Z</time></trkpt><trkpt lat="44.741916" lon="11.6684443"><ele>6.0</ele><time>2026-04-04T06:34:01.931Z</time></trkpt><trkpt lat="44.7417534" lon="11.6687095"><ele>5.5</ele><time>2026-04-04T06:34:02.931Z</time></trkpt><trkpt lat="44.7415845" lon="11.6689628"><ele>5.0</ele><time>2026-04-04T06:34:03.931Z</time></trkpt><trkpt lat="44.7414126" lon="11.6692165"><ele>4.5</ele><time>2026-04-04T06:34:04.931Z</time></trkpt><trkpt lat="44.7412403" lon="11.6694742"><ele>4.0</ele><time>2026-04-04T06:34:05.93Z</time></trkpt><trkpt lat="44.7410684" lon="11.6697311"><ele>4.0</ele><time>2026-04-04T06:34:06.931Z</time></trkpt><trkpt lat="44.7408993" lon="11.6699923"><ele>4.0</ele><time>2026-04-04T06:34:07.931Z</time></trkpt><trkpt lat="44.7407381" lon="11.6702671"><ele>4.0</ele><time>2026-04-04T06:34:08.929Z</time></trkpt><trkpt lat="44.740587" lon="11.6705526"><ele>4.0</ele><time>2026-04-04T06:34:09.93Z</time></trkpt><trkpt lat="44.7404426" lon="11.6708428"><ele>4.0</ele><time>2026-04-04T06:34:10.93Z</time></trkpt><trkpt lat="44.7402993" lon="11.6711322"><ele>4.0</ele><time>2026-04-04T06:34:11.93Z</time></trkpt><trkpt lat="44.7401581" lon="11.6714212"><ele>4.0</ele><time>2026-04-04T06:34:12.931Z</time></trkpt><trkpt lat="44.7400185" lon="11.6717102"><ele>4.0</ele><time>2026-04-04T06:34:13.931Z</time></trkpt><trkpt lat="44.7398833" lon="11.6720024"><ele>4.0</ele><time>2026-04-04T06:34:14.93Z</time></trkpt><trkpt lat="44.7397524" lon="11.6722973"><ele>4.0</ele><time>2026-04-04T06:34:15.931Z</time></trkpt><trkpt lat="44.7396248" lon="11.6725947"><ele>4.0</ele><time>2026-04-04T06:34:16.93Z</time></trkpt><trkpt lat="44.7395029" lon="11.6728934"><ele>4.0</ele><time>2026-04-04T06:34:17.93Z</time></trkpt><trkpt lat="44.7393861" lon="11.6731952"><ele>4.5</ele><time>2026-04-04T06:34:18.931Z</time></trkpt><trkpt lat="44.7392679" lon="11.6734973"><ele>5.0</ele><time>2026-04-04T06:34:19.93Z</time></trkpt><trkpt lat="44.7391505" lon="11.6737957"><ele>5.0</ele><time>2026-04-04T06:34:20.929Z</time></trkpt><trkpt lat="44.7390368" lon="11.674096"><ele>5.0</ele><time>2026-04-04T06:34:21.93Z</time></trkpt><trkpt lat="44.7389279" lon="11.6743983"><ele>5.0</ele><time>2026-04-04T06:34:22.931Z</time></trkpt><trkpt lat="44.7388224" lon="11.674703"><ele>5.0</ele><time>2026-04-04T06:34:23.931Z</time></trkpt><trkpt lat="44.7387167" lon="11.6750072"><ele>5.0</ele><time>2026-04-04T06:34:24.931Z</time></trkpt><trkpt lat="44.7386143" lon="11.6753085"><ele>5.0</ele><time>2026-04-04T06:34:25.931Z</time></trkpt><trkpt lat="44.7385121" lon="11.6756088"><ele>5.0</ele><time>2026-04-04T06:34:26.931Z</time></trkpt><trkpt lat="44.7384096" lon="11.6759084"><ele>5.0</ele><time>2026-04-04T06:34:27.93Z</time></trkpt><trkpt lat="44.7383059" lon="11.6762054"><ele>4.5</ele><time>2026-04-04T06:34:28.93Z</time></trkpt><trkpt lat="44.7382029" lon="11.6765026"><ele>4.0</ele><time>2026-04-04T06:34:29.93Z</time></trkpt><trkpt lat="44.7381001" lon="11.676799"><ele>4.0</ele><time>2026-04-04T06:34:30.929Z</time></trkpt><trkpt lat="44.7379974" lon="11.6770939"><ele>4.0</ele><time>2026-04-04T06:34:31.93Z</time></trkpt><trkpt lat="44.7378949" lon="11.6773889"><ele>4.0</ele><time>2026-04-04T06:34:32.929Z</time></trkpt><trkpt lat="44.7377931" lon="11.6776819"><ele>4.0</ele><time>2026-04-04T06:34:33.931Z</time></trkpt><trkpt lat="44.7376934" lon="11.6779724"><ele>4.5</ele><time>2026-04-04T06:34:34.93Z</time></trkpt><trkpt lat="44.7375939" lon="11.6782598"><ele>5.0</ele><time>2026-04-04T06:34:35.93Z</time></trkpt><trkpt lat="44.7374957" lon="11.6785465"><ele>5.5</ele><time>2026-04-04T06:34:36.93Z</time></trkpt><trkpt lat="44.7374003" lon="11.6788322"><ele>6.0</ele><time>2026-04-04T06:34:37.93Z</time></trkpt><trkpt lat="44.7373176" lon="11.6791282"><ele>5.5</ele><time>2026-04-04T06:34:38.929Z</time></trkpt><trkpt lat="44.7372528" lon="11.6794379"><ele>5.0</ele><time>2026-04-04T06:34:39.931Z</time></trkpt><trkpt lat="44.737203" lon="11.6797542"><ele>5.0</ele><time>2026-04-04T06:34:40.931Z</time></trkpt><trkpt lat="44.737161" lon="11.6800775"><ele>5.0</ele><time>2026-04-04T06:34:41.931Z</time></trkpt><trkpt lat="44.7371174" lon="11.6804019"><ele>5.0</ele><time>2026-04-04T06:34:42.931Z</time></trkpt><trkpt lat="44.7370774" lon="11.6807293"><ele>5.0</ele><time>2026-04-04T06:34:43.929Z</time></trkpt><trkpt lat="44.7370336" lon="11.6810648"><ele>4.5</ele><time>2026-04-04T06:34:44.93Z</time></trkpt><trkpt lat="44.7369885" lon="11.6813905"><ele>4.0</ele><time>2026-04-04T06:34:45.93Z</time></trkpt><trkpt lat="44.736947" lon="11.6816899"><ele>4.666666666666666</ele><time>2026-04-04T06:34:46.931Z</time></trkpt><trkpt lat="44.7369068" lon="11.6819739"><ele>5.333333333333333</ele><time>2026-04-04T06:34:47.931Z</time></trkpt><trkpt lat="44.7368709" lon="11.6822402"><ele>6.0</ele><time>2026-04-04T06:34:48.931Z</time></trkpt><trkpt lat="44.7368379" lon="11.6824991"><ele>6.333333333333334</ele><time>2026-04-04T06:34:49.931Z</time></trkpt><trkpt lat="44.7368028" lon="11.6827611"><ele>6.666666666666667</ele><time>2026-04-04T06:34:50.93Z</time></trkpt><trkpt lat="44.7367676" lon="11.6830335"><ele>7.0</ele><time>2026-04-04T06:34:51.93Z</time></trkpt><trkpt lat="44.7367317" lon="11.6833197"><ele>6.333333333333334</ele><time>2026-04-04T06:34:52.93Z</time></trkpt><trkpt lat="44.7366982" lon="11.6836097"><ele>5.666666666666667</ele><time>2026-04-04T06:34:53.93Z</time></trkpt><trkpt lat="44.7366759" lon="11.6839141"><ele>5.0</ele><time>2026-04-04T06:34:54.93Z</time></trkpt><trkpt lat="44.7366671" lon="11.68424"><ele>4.5</ele><time>2026-04-04T06:34:55.93Z</time></trkpt><trkpt lat="44.7366664" lon="11.6845738"><ele>4.0</ele><time>2026-04-04T06:34:56.93Z</time></trkpt><trkpt lat="44.7366716" lon="11.6849137"><ele>4.0</ele><time>2026-04-04T06:34:57.931Z</time></trkpt><trkpt lat="44.7366793" lon="11.6852528"><ele>4.0</ele><time>2026-04-04T06:34:58.93Z</time></trkpt><trkpt lat="44.7366917" lon="11.6855905"><ele>4.0</ele><time>2026-04-04T06:34:59.931Z</time></trkpt><trkpt lat="44.7367" lon="11.6859255"><ele>4.0</ele><time>2026-04-04T06:35:00.931Z</time></trkpt><trkpt lat="44.7367064" lon="11.6862557"><ele>4.0</ele><time>2026-04-04T06:35:01.93Z</time></trkpt><trkpt lat="44.7367097" lon="11.6865797"><ele>4.0</ele><time>2026-04-04T06:35:02.929Z</time></trkpt><trkpt lat="44.7366993" lon="11.6869005"><ele>3.5</ele><time>2026-04-04T06:35:03.93Z</time></trkpt><trkpt lat="44.736665" lon="11.6872122"><ele>3.0</ele><time>2026-04-04T06:35:04.929Z</time></trkpt><trkpt lat="44.7366045" lon="11.6875216"><ele>3.0</ele><time>2026-04-04T06:35:05.93Z</time></trkpt><trkpt lat="44.7365178" lon="11.6878126"><ele>3.0</ele><time>2026-04-04T06:35:06.93Z</time></trkpt><trkpt lat="44.7364066" lon="11.688075"><ele>3.0</ele><time>2026-04-04T06:35:07.93Z</time></trkpt><trkpt lat="44.7362876" lon="11.6883045"><ele>3.0</ele><time>2026-04-04T06:35:08.93Z</time></trkpt><trkpt lat="44.7361742" lon="11.6885098"><ele>3.0</ele><time>2026-04-04T06:35:09.931Z</time></trkpt><trkpt lat="44.7360659" lon="11.6886938"><ele>3.0</ele><time>2026-04-04T06:35:10.931Z</time></trkpt><trkpt lat="44.7359599" lon="11.6888592"><ele>4.666666666666666</ele><time>2026-04-04T06:35:11.931Z</time></trkpt><trkpt lat="44.7358516" lon="11.6890175"><ele>6.333333333333333</ele><time>2026-04-04T06:35:12.93Z</time></trkpt><trkpt lat="44.7357396" lon="11.6891635"><ele>8.0</ele><time>2026-04-04T06:35:13.93Z</time></trkpt><trkpt lat="44.7356251" lon="11.6893167"><ele>7.333333333333333</ele><time>2026-04-04T06:35:14.93Z</time></trkpt><trkpt lat="44.7355084" lon="11.6894783"><ele>6.666666666666666</ele><time>2026-04-04T06:35:15.93Z</time></trkpt><trkpt lat="44.735392" lon="11.6896369"><ele>6.0</ele><time>2026-04-04T06:35:16.929Z</time></trkpt><trkpt lat="44.7352729" lon="11.6897901"><ele>6.333333333333334</ele><time>2026-04-04T06:35:17.929Z</time></trkpt><trkpt lat="44.7351468" lon="11.689956"><ele>6.666666666666667</ele><time>2026-04-04T06:35:18.928Z</time></trkpt><trkpt lat="44.7350204" lon="11.6901479"><ele>7.0</ele><time>2026-04-04T06:35:19.93Z</time></trkpt><trkpt lat="44.7348841" lon="11.6903544"><ele>7.0</ele><time>2026-04-04T06:35:20.929Z</time></trkpt><trkpt lat="44.7347388" lon="11.6905683"><ele>7.0</ele><time>2026-04-04T06:35:21.93Z</time></trkpt><trkpt lat="44.7345895" lon="11.6907727"><ele>7.0</ele><time>2026-04-04T06:35:22.929Z</time></trkpt><trkpt lat="44.7344256" lon="11.6909559"><ele>6.333333333333334</ele><time>2026-04-04T06:35:23.929Z</time></trkpt><trkpt lat="44.7342436" lon="11.691107"><ele>5.666666666666667</ele><time>2026-04-04T06:35:24.929Z</time></trkpt><trkpt lat="44.7340443" lon="11.6912309"><ele>5.0</ele><time>2026-04-04T06:35:25.928Z</time></trkpt><trkpt lat="44.7338374" lon="11.6913059"><ele>5.0</ele><time>2026-04-04T06:35:26.929Z</time></trkpt><trkpt lat="44.7336262" lon="11.6913324"><ele>5.0</ele><time>2026-04-04T06:35:27.929Z</time></trkpt><trkpt lat="44.7334066" lon="11.6913086"><ele>5.0</ele><time>2026-04-04T06:35:28.929Z</time></trkpt><trkpt lat="44.7331756" lon="11.691257"><ele>5.5</ele><time>2026-04-04T06:35:29.929Z</time></trkpt><trkpt lat="44.7329391" lon="11.6911949"><ele>6.0</ele><time>2026-04-04T06:35:30.93Z</time></trkpt><trkpt lat="44.7326962" lon="11.6911328"><ele>7.0</ele><time>2026-04-04T06:35:31.929Z</time></trkpt><trkpt lat="44.7324451" lon="11.6910646"><ele>8.0</ele><time>2026-04-04T06:35:32.928Z</time></trkpt><trkpt lat="44.7321894" lon="11.6909995"><ele>8.0</ele><time>2026-04-04T06:35:33.929Z</time></trkpt><trkpt lat="44.7319495" lon="11.690939"><ele>8.0</ele><time>2026-04-04T06:35:34.93Z</time></trkpt><trkpt lat="44.731715" lon="11.6908841"><ele>6.5</ele><time>2026-04-04T06:35:35.929Z</time></trkpt><trkpt lat="44.731489" lon="11.6908377"><ele>5.0</ele><time>2026-04-04T06:35:36.928Z</time></trkpt><trkpt lat="44.731258" lon="11.6908183"><ele>4.0</ele><time>2026-04-04T06:35:37.93Z</time></trkpt><trkpt lat="44.7310219" lon="11.6908363"><ele>3.0</ele><time>2026-04-04T06:35:38.93Z</time></trkpt><trkpt lat="44.7307819" lon="11.6908918"><ele>3.0</ele><time>2026-04-04T06:35:39.93Z</time></trkpt><trkpt lat="44.7305417" lon="11.6909773"><ele>3.0</ele><time>2026-04-04T06:35:40.929Z</time></trkpt><trkpt lat="44.7302955" lon="11.6910829"><ele>2.5</ele><time>2026-04-04T06:35:41.93Z</time></trkpt><trkpt lat="44.7300422" lon="11.6911951"><ele>2.0</ele><time>2026-04-04T06:35:42.93Z</time></trkpt><trkpt lat="44.7297862" lon="11.6913208"><ele>2.0</ele><time>2026-04-04T06:35:43.929Z</time></trkpt><trkpt lat="44.729523" lon="11.6914507"><ele>2.0</ele><time>2026-04-04T06:35:44.93Z</time></trkpt><trkpt lat="44.7292619" lon="11.6915821"><ele>2.5</ele><time>2026-04-04T06:35:45.93Z</time></trkpt><trkpt lat="44.7290053" lon="11.6917262"><ele>3.0</ele><time>2026-04-04T06:35:46.929Z</time></trkpt><trkpt lat="44.7287519" lon="11.6918799"><ele>3.0</ele><time>2026-04-04T06:35:47.928Z</time></trkpt><trkpt lat="44.7285004" lon="11.6920324"><ele>3.0</ele><time>2026-04-04T06:35:48.93Z</time></trkpt><trkpt lat="44.7282569" lon="11.6921823"><ele>3.0</ele><time>2026-04-04T06:35:49.929Z</time></trkpt><trkpt lat="44.7280255" lon="11.6923232"><ele>3.0</ele><time>2026-04-04T06:35:50.929Z</time></trkpt><trkpt lat="44.7278125" lon="11.6924498"><ele>2.6666666666666665</ele><time>2026-04-04T06:35:51.929Z</time></trkpt><trkpt lat="44.7276137" lon="11.6925595"><ele>2.333333333333333</ele><time>2026-04-04T06:35:52.929Z</time></trkpt><trkpt lat="44.727416" lon="11.6926345"><ele>2.0</ele><time>2026-04-04T06:35:53.929Z</time></trkpt><trkpt lat="44.7272102" lon="11.6926751"><ele>2.0</ele><time>2026-04-04T06:35:54.929Z</time></trkpt><trkpt lat="44.7269966" lon="11.6926763"><ele>2.0</ele><time>2026-04-04T06:35:55.93Z</time></trkpt><trkpt lat="44.7267754" lon="11.6926614"><ele>2.0</ele><time>2026-04-04T06:35:56.929Z</time></trkpt><trkpt lat="44.7265479" lon="11.6926424"><ele>2.0</ele><time>2026-04-04T06:35:57.93Z</time></trkpt><trkpt lat="44.7263186" lon="11.6926227"><ele>2.0</ele><time>2026-04-04T06:35:58.929Z</time></trkpt><trkpt lat="44.7260927" lon="11.6926005"><ele>3.0</ele><time>2026-04-04T06:35:59.93Z</time></trkpt><trkpt lat="44.7258693" lon="11.6925819"><ele>4.0</ele><time>2026-04-04T06:36:00.929Z</time></trkpt><trkpt lat="44.7256524" lon="11.6925618"><ele>5.0</ele><time>2026-04-04T06:36:01.929Z</time></trkpt><trkpt lat="44.7254391" lon="11.6925363"><ele>5.0</ele><time>2026-04-04T06:36:02.93Z</time></trkpt><trkpt lat="44.7252434" lon="11.6925189"><ele>5.0</ele><time>2026-04-04T06:36:03.93Z</time></trkpt><trkpt lat="44.7250586" lon="11.6924981"><ele>5.0</ele><time>2026-04-04T06:36:04.929Z</time></trkpt><trkpt lat="44.7248902" lon="11.6924816"><ele>5.0</ele><time>2026-04-04T06:36:05.928Z</time></trkpt><trkpt lat="44.7247398" lon="11.6924717"><ele>5.0</ele><time>2026-04-04T06:36:06.929Z</time></trkpt><trkpt lat="44.7246032" lon="11.6924863"><ele>5.0</ele><time>2026-04-04T06:36:07.93Z</time></trkpt><trkpt lat="44.7244943" lon="11.6925658"><ele>5.0</ele><time>2026-04-04T06:36:08.93Z</time></trkpt><trkpt lat="44.7244044" lon="11.6926847"><ele>4.333333333333334</ele><time>2026-04-04T06:36:09.93Z</time></trkpt><trkpt lat="44.7243394" lon="11.6928535"><ele>3.666666666666667</ele><time>2026-04-04T06:36:10.93Z</time></trkpt><trkpt lat="44.7243018" lon="11.6930607"><ele>3.0</ele><time>2026-04-04T06:36:11.93Z</time></trkpt><trkpt lat="44.724268" lon="11.6933002"><ele>3.0</ele><time>2026-04-04T06:36:12.929Z</time></trkpt><trkpt lat="44.7242259" lon="11.6935675"><ele>3.0</ele><time>2026-04-04T06:36:13.93Z</time></trkpt><trkpt lat="44.7241822" lon="11.6938529"><ele>3.0</ele><time>2026-04-04T06:36:14.93Z</time></trkpt><trkpt lat="44.724133" lon="11.6941579"><ele>2.5</ele><time>2026-04-04T06:36:15.93Z</time></trkpt><trkpt lat="44.7240805" lon="11.6944715"><ele>2.0</ele><time>2026-04-04T06:36:16.929Z</time></trkpt><trkpt lat="44.7240182" lon="11.6947892"><ele>2.0</ele><time>2026-04-04T06:36:17.929Z</time></trkpt><trkpt lat="44.7239446" lon="11.6951095"><ele>2.0</ele><time>2026-04-04T06:36:18.93Z</time></trkpt><trkpt lat="44.7238455" lon="11.695422"><ele>2.5</ele><time>2026-04-04T06:36:19.929Z</time></trkpt><trkpt lat="44.7237219" lon="11.6957247"><ele>3.0</ele><time>2026-04-04T06:36:20.929Z</time></trkpt><trkpt lat="44.72358" lon="11.6960155"><ele>3.5</ele><time>2026-04-04T06:36:21.929Z</time></trkpt><trkpt lat="44.7234272" lon="11.6963015"><ele>4.0</ele><time>2026-04-04T06:36:22.93Z</time></trkpt><trkpt lat="44.7232693" lon="11.6965862"><ele>4.0</ele><time>2026-04-04T06:36:23.93Z</time></trkpt><trkpt lat="44.7231036" lon="11.6968594"><ele>4.0</ele><time>2026-04-04T06:36:24.929Z</time></trkpt><trkpt lat="44.7229247" lon="11.6971068"><ele>4.0</ele><time>2026-04-04T06:36:25.93Z</time></trkpt><trkpt lat="44.7227316" lon="11.6973312"><ele>4.0</ele><time>2026-04-04T06:36:26.929Z</time></trkpt><trkpt lat="44.7225299" lon="11.6975395"><ele>4.0</ele><time>2026-04-04T06:36:27.93Z</time></trkpt><trkpt lat="44.7223206" lon="11.6977308"><ele>4.0</ele><time>2026-04-04T06:36:28.93Z</time></trkpt><trkpt lat="44.7221065" lon="11.69791"><ele>3.5</ele><time>2026-04-04T06:36:29.929Z</time></trkpt><trkpt lat="44.7218881" lon="11.6980725"><ele>3.0</ele><time>2026-04-04T06:36:30.93Z</time></trkpt><trkpt lat="44.7216679" lon="11.6982119"><ele>3.0</ele><time>2026-04-04T06:36:31.93Z</time></trkpt><trkpt lat="44.7214461" lon="11.6983365"><ele>3.0</ele><time>2026-04-04T06:36:32.93Z</time></trkpt><trkpt lat="44.7212225" lon="11.6984614"><ele>2.5</ele><time>2026-04-04T06:36:33.93Z</time></trkpt><trkpt lat="44.7210108" lon="11.6985943"><ele>2.0</ele><time>2026-04-04T06:36:34.93Z</time></trkpt><trkpt lat="44.7207974" lon="11.6987257"><ele>2.0</ele><time>2026-04-04T06:36:35.93Z</time></trkpt><trkpt lat="44.7206188" lon="11.6989601"><ele>2.0</ele><time>2026-04-04T06:36:36.93Z</time></trkpt><trkpt lat="44.7204358" lon="11.6991846"><ele>2.0</ele><time>2026-04-04T06:36:37.93Z</time></trkpt><trkpt lat="44.7202553" lon="11.6994229"><ele>2.0</ele><time>2026-04-04T06:36:38.93Z</time></trkpt><trkpt lat="44.7200696" lon="11.6996576"><ele>2.5</ele><time>2026-04-04T06:36:39.93Z</time></trkpt><trkpt lat="44.7198787" lon="11.6998945"><ele>3.0</ele><time>2026-04-04T06:36:40.93Z</time></trkpt><trkpt lat="44.7196894" lon="11.7001321"><ele>3.0</ele><time>2026-04-04T06:36:41.93Z</time></trkpt><trkpt lat="44.7195022" lon="11.7003694"><ele>3.0</ele><time>2026-04-04T06:36:42.93Z</time></trkpt><trkpt lat="44.7193219" lon="11.7005993"><ele>3.0</ele><time>2026-04-04T06:36:43.93Z</time></trkpt><trkpt lat="44.7191555" lon="11.7008048"><ele>3.0</ele><time>2026-04-04T06:36:44.93Z</time></trkpt><trkpt lat="44.7189979" lon="11.7010031"><ele>3.0</ele><time>2026-04-04T06:36:45.929Z</time></trkpt><trkpt lat="44.7188489" lon="11.7011924"><ele>3.0</ele><time>2026-04-04T06:36:46.929Z</time></trkpt><trkpt lat="44.7187122" lon="11.7013869"><ele>3.0</ele><time>2026-04-04T06:36:47.929Z</time></trkpt><trkpt lat="44.7186016" lon="11.7016159"><ele>3.0</ele><time>2026-04-04T06:36:48.929Z</time></trkpt><trkpt lat="44.718526" lon="11.7018811"><ele>3.333333333333333</ele><time>2026-04-04T06:36:49.929Z</time></trkpt><trkpt lat="44.7184786" lon="11.7021708"><ele>3.6666666666666665</ele><time>2026-04-04T06:36:50.929Z</time></trkpt><trkpt lat="44.7184557" lon="11.7024779"><ele>4.0</ele><time>2026-04-04T06:36:51.929Z</time></trkpt><trkpt lat="44.7184355" lon="11.7027965"><ele>5.0</ele><time>2026-04-04T06:36:52.929Z</time></trkpt><trkpt lat="44.718411" lon="11.7031281"><ele>6.0</ele><time>2026-04-04T06:36:53.929Z</time></trkpt><trkpt lat="44.7183885" lon="11.7034596"><ele>5.666666666666667</ele><time>2026-04-04T06:36:54.929Z</time></trkpt><trkpt lat="44.7183676" lon="11.7037793"><ele>5.333333333333334</ele><time>2026-04-04T06:36:55.93Z</time></trkpt><trkpt lat="44.7183488" lon="11.7040892"><ele>5.0</ele><time>2026-04-04T06:36:56.93Z</time></trkpt><trkpt lat="44.7183289" lon="11.7043863"><ele>4.666666666666667</ele><time>2026-04-04T06:36:57.93Z</time></trkpt><trkpt lat="44.7183017" lon="11.7046691"><ele>4.333333333333333</ele><time>2026-04-04T06:36:58.929Z</time></trkpt><trkpt lat="44.7182467" lon="11.7049431"><ele>4.0</ele><time>2026-04-04T06:36:59.929Z</time></trkpt><trkpt lat="44.7181627" lon="11.7052018"><ele>3.6666666666666665</ele><time>2026-04-04T06:37:00.929Z</time></trkpt><trkpt lat="44.7180489" lon="11.705438"><ele>3.333333333333333</ele><time>2026-04-04T06:37:01.93Z</time></trkpt><trkpt lat="44.7179069" lon="11.705657"><ele>3.0</ele><time>2026-04-04T06:37:02.93Z</time></trkpt><trkpt lat="44.7177407" lon="11.7058604"><ele>3.0</ele><time>2026-04-04T06:37:03.93Z</time></trkpt><trkpt lat="44.7175594" lon="11.7060619"><ele>3.0</ele><time>2026-04-04T06:37:04.929Z</time></trkpt><trkpt lat="44.7173736" lon="11.7062752"><ele>3.0</ele><time>2026-04-04T06:37:05.93Z</time></trkpt><trkpt lat="44.7171822" lon="11.7065008"><ele>3.0</ele><time>2026-04-04T06:37:06.93Z</time></trkpt><trkpt lat="44.7169872" lon="11.7067258"><ele>4.0</ele><time>2026-04-04T06:37:07.929Z</time></trkpt><trkpt lat="44.7167988" lon="11.7069434"><ele>5.0</ele><time>2026-04-04T06:37:08.93Z</time></trkpt><trkpt lat="44.7166184" lon="11.7071512"><ele>5.0</ele><time>2026-04-04T06:37:09.93Z</time></trkpt><trkpt lat="44.716451" lon="11.7073556"><ele>5.0</ele><time>2026-04-04T06:37:10.928Z</time></trkpt><trkpt lat="44.716297" lon="11.7075693"><ele>5.0</ele><time>2026-04-04T06:37:11.93Z</time></trkpt><trkpt lat="44.7161576" lon="11.7077992"><ele>4.666666666666667</ele><time>2026-04-04T06:37:12.93Z</time></trkpt><trkpt lat="44.716032" lon="11.7080409"><ele>4.333333333333333</ele><time>2026-04-04T06:37:13.929Z</time></trkpt><trkpt lat="44.7158966" lon="11.7082628"><ele>4.0</ele><time>2026-04-04T06:37:14.929Z</time></trkpt><trkpt lat="44.7157528" lon="11.708448"><ele>3.6666666666666665</ele><time>2026-04-04T06:37:15.93Z</time></trkpt><trkpt lat="44.7155939" lon="11.7086188"><ele>3.333333333333333</ele><time>2026-04-04T06:37:16.929Z</time></trkpt><trkpt lat="44.715421" lon="11.7087741"><ele>3.0</ele><time>2026-04-04T06:37:17.93Z</time></trkpt><trkpt lat="44.715238" lon="11.7089163"><ele>3.0</ele><time>2026-04-04T06:37:18.93Z</time></trkpt><trkpt lat="44.7150508" lon="11.7090482"><ele>3.0</ele><time>2026-04-04T06:37:19.928Z</time></trkpt><trkpt lat="44.7148611" lon="11.7091669"><ele>3.0</ele><time>2026-04-04T06:37:20.929Z</time></trkpt><trkpt lat="44.7146645" lon="11.7092608"><ele>3.0</ele><time>2026-04-04T06:37:21.93Z</time></trkpt><trkpt lat="44.7144606" lon="11.7093223"><ele>3.0</ele><time>2026-04-04T06:37:22.928Z</time></trkpt><trkpt lat="44.7142528" lon="11.7093577"><ele>3.0</ele><time>2026-04-04T06:37:23.93Z</time></trkpt><trkpt lat="44.7140525" lon="11.7093471"><ele>3.0</ele><time>2026-04-04T06:37:24.93Z</time></trkpt><trkpt lat="44.7138479" lon="11.709293"><ele>3.0</ele><time>2026-04-04T06:37:25.929Z</time></trkpt><trkpt lat="44.7136408" lon="11.7092175"><ele>3.0</ele><time>2026-04-04T06:37:26.93Z</time></trkpt><trkpt lat="44.7134256" lon="11.7091304"><ele>3.0</ele><time>2026-04-04T06:37:27.929Z</time></trkpt><trkpt lat="44.7132131" lon="11.7090421"><ele>3.0</ele><time>2026-04-04T06:37:28.93Z</time></trkpt><trkpt lat="44.713004" lon="11.7089441"><ele>3.0</ele><time>2026-04-04T06:37:29.93Z</time></trkpt><trkpt lat="44.712798" lon="11.7088527"><ele>2.6666666666666665</ele><time>2026-04-04T06:37:30.929Z</time></trkpt><trkpt lat="44.7125917" lon="11.7087667"><ele>2.333333333333333</ele><time>2026-04-04T06:37:31.929Z</time></trkpt><trkpt lat="44.7123904" lon="11.7086798"><ele>2.0</ele><time>2026-04-04T06:37:32.929Z</time></trkpt><trkpt lat="44.712197" lon="11.7086052"><ele>2.6666666666666665</ele><time>2026-04-04T06:37:33.93Z</time></trkpt><trkpt lat="44.7120139" lon="11.7085579"><ele>3.333333333333333</ele><time>2026-04-04T06:37:34.93Z</time></trkpt><trkpt lat="44.7118402" lon="11.7085308"><ele>4.0</ele><time>2026-04-04T06:37:35.93Z</time></trkpt><trkpt lat="44.7116759" lon="11.7085144"><ele>4.0</ele><time>2026-04-04T06:37:36.93Z</time></trkpt><trkpt lat="44.7115215" lon="11.7084974"><ele>4.0</ele><time>2026-04-04T06:37:37.929Z</time></trkpt><trkpt lat="44.711375" lon="11.7084829"><ele>4.0</ele><time>2026-04-04T06:37:38.93Z</time></trkpt><trkpt lat="44.7112359" lon="11.7084749"><ele>4.0</ele><time>2026-04-04T06:37:39.929Z</time></trkpt><trkpt lat="44.7110942" lon="11.7084702"><ele>4.666666666666666</ele><time>2026-04-04T06:37:40.929Z</time></trkpt><trkpt lat="44.7109399" lon="11.7084574"><ele>5.333333333333333</ele><time>2026-04-04T06:37:41.93Z</time></trkpt><trkpt lat="44.7107733" lon="11.7084266"><ele>6.0</ele><time>2026-04-04T06:37:42.93Z</time></trkpt><trkpt lat="44.7106149" lon="11.7083973"><ele>6.0</ele><time>2026-04-04T06:37:43.929Z</time></trkpt><trkpt lat="44.7104659" lon="11.7083742"><ele>6.0</ele><time>2026-04-04T06:37:44.929Z</time></trkpt><trkpt lat="44.7103245" lon="11.708353"><ele>6.0</ele><time>2026-04-04T06:37:45.93Z</time></trkpt><trkpt lat="44.7101903" lon="11.7083381"><ele>6.0</ele><time>2026-04-04T06:37:46.93Z</time></trkpt><trkpt lat="44.7100573" lon="11.7083232"><ele>6.0</ele><time>2026-04-04T06:37:47.929Z</time></trkpt><trkpt lat="44.7099324" lon="11.7083102"><ele>6.0</ele><time>2026-04-04T06:37:48.93Z</time></trkpt><trkpt lat="44.7098073" lon="11.708295"><ele>6.0</ele><time>2026-04-04T06:37:49.929Z</time></trkpt><trkpt lat="44.7096835" lon="11.7082767"><ele>6.0</ele><time>2026-04-04T06:37:50.93Z</time></trkpt><trkpt lat="44.7095603" lon="11.7082568"><ele>6.0</ele><time>2026-04-04T06:37:51.93Z</time></trkpt><trkpt lat="44.7094391" lon="11.7082361"><ele>6.0</ele><time>2026-04-04T06:37:52.929Z</time></trkpt><trkpt lat="44.709317" lon="11.7082103"><ele>6.0</ele><time>2026-04-04T06:37:53.929Z</time></trkpt><trkpt lat="44.7091902" lon="11.708177"><ele>6.0</ele><time>2026-04-04T06:37:54.93Z</time></trkpt><trkpt lat="44.7090653" lon="11.7081365"><ele>6.0</ele><time>2026-04-04T06:37:55.93Z</time></trkpt><trkpt lat="44.7089418" lon="11.7080962"><ele>6.0</ele><time>2026-04-04T06:37:56.929Z</time></trkpt><trkpt lat="44.7088169" lon="11.7080615"><ele>6.0</ele><time>2026-04-04T06:37:57.93Z</time></trkpt><trkpt lat="44.7086879" lon="11.7080335"><ele>6.0</ele><time>2026-04-04T06:37:58.93Z</time></trkpt><trkpt lat="44.7085545" lon="11.7080087"><ele>6.0</ele><time>2026-04-04T06:37:59.93Z</time></trkpt><trkpt lat="44.7084294" lon="11.7079894"><ele>6.0</ele><time>2026-04-04T06:38:00.93Z</time></trkpt><trkpt lat="44.7083028" lon="11.7079724"><ele>6.0</ele><time>2026-04-04T06:38:01.93Z</time></trkpt><trkpt lat="44.7081731" lon="11.7079561"><ele>6.0</ele><time>2026-04-04T06:38:02.93Z</time></trkpt><trkpt lat="44.7080483" lon="11.7079373"><ele>6.0</ele><time>2026-04-04T06:38:03.929Z</time></trkpt><trkpt lat="44.707921" lon="11.7079194"><ele>6.0</ele><time>2026-04-04T06:38:04.929Z</time></trkpt><trkpt lat="44.707802" lon="11.7079035"><ele>6.0</ele><time>2026-04-04T06:38:05.93Z</time></trkpt><trkpt lat="44.7076912" lon="11.7078934"><ele>6.0</ele><time>2026-04-04T06:38:06.93Z</time></trkpt><trkpt lat="44.7075736" lon="11.7078891"><ele>6.0</ele><time>2026-04-04T06:38:07.929Z</time></trkpt><trkpt lat="44.707446" lon="11.7078996"><ele>6.0</ele><time>2026-04-04T06:38:08.928Z</time></trkpt><trkpt lat="44.7073059" lon="11.7079258"><ele>6.0</ele><time>2026-04-04T06:38:09.93Z</time></trkpt><trkpt lat="44.707156" lon="11.7079587"><ele>6.0</ele><time>2026-04-04T06:38:10.929Z</time></trkpt><trkpt lat="44.7069985" lon="11.707994"><ele>5.75</ele><time>2026-04-04T06:38:11.93Z</time></trkpt><trkpt lat="44.7068473" lon="11.7080184"><ele>5.5</ele><time>2026-04-04T06:38:12.93Z</time></trkpt><trkpt lat="44.7067031" lon="11.708028"><ele>5.25</ele><time>2026-04-04T06:38:13.929Z</time></trkpt><trkpt lat="44.7065794" lon="11.7080029"><ele>5.0</ele><time>2026-04-04T06:38:14.929Z</time></trkpt><trkpt lat="44.7064685" lon="11.7079564"><ele>5.0</ele><time>2026-04-04T06:38:15.929Z</time></trkpt><trkpt lat="44.7063661" lon="11.7078828"><ele>5.0</ele><time>2026-04-04T06:38:16.93Z</time></trkpt><trkpt lat="44.7062717" lon="11.7077829"><ele>5.0</ele><time>2026-04-04T06:38:17.93Z</time></trkpt><trkpt lat="44.7061746" lon="11.7076485"><ele>5.0</ele><time>2026-04-04T06:38:18.929Z</time></trkpt><trkpt lat="44.7060665" lon="11.7074984"><ele>5.333333333333334</ele><time>2026-04-04T06:38:19.93Z</time></trkpt><trkpt lat="44.7059471" lon="11.7073343"><ele>5.666666666666667</ele><time>2026-04-04T06:38:20.929Z</time></trkpt><trkpt lat="44.7058188" lon="11.7071504"><ele>6.0</ele><time>2026-04-04T06:38:21.93Z</time></trkpt><trkpt lat="44.7056776" lon="11.7069533"><ele>5.666666666666667</ele><time>2026-04-04T06:38:22.93Z</time></trkpt><trkpt lat="44.7055307" lon="11.7067421"><ele>5.333333333333334</ele><time>2026-04-04T06:38:23.93Z</time></trkpt><trkpt lat="44.7053765" lon="11.7065304"><ele>5.0</ele><time>2026-04-04T06:38:24.93Z</time></trkpt><trkpt lat="44.7052235" lon="11.7063063"><ele>5.0</ele><time>2026-04-04T06:38:25.93Z</time></trkpt><trkpt lat="44.7050654" lon="11.7060759"><ele>5.0</ele><time>2026-04-04T06:38:26.93Z</time></trkpt><trkpt lat="44.7049083" lon="11.7058588"><ele>5.0</ele><time>2026-04-04T06:38:27.93Z</time></trkpt><trkpt lat="44.7047463" lon="11.7056406"><ele>5.0</ele><time>2026-04-04T06:38:28.93Z</time></trkpt><trkpt lat="44.704572" lon="11.7054278"><ele>5.0</ele><time>2026-04-04T06:38:29.929Z</time></trkpt><trkpt lat="44.7043918" lon="11.7052192"><ele>5.0</ele><time>2026-04-04T06:38:30.929Z</time></trkpt><trkpt lat="44.7042167" lon="11.7050104"><ele>5.0</ele><time>2026-04-04T06:38:31.929Z</time></trkpt><trkpt lat="44.7040464" lon="11.7048029"><ele>5.0</ele><time>2026-04-04T06:38:32.93Z</time></trkpt><trkpt lat="44.7038765" lon="11.7045895"><ele>5.0</ele><time>2026-04-04T06:38:33.93Z</time></trkpt><trkpt lat="44.7037122" lon="11.7043656"><ele>3.0</ele><time>2026-04-04T06:38:34.929Z</time></trkpt><trkpt lat="44.7035566" lon="11.7041314"><ele>1.0</ele><time>2026-04-04T06:38:35.93Z</time></trkpt><trkpt lat="44.7034203" lon="11.7038771"><ele>1.0</ele><time>2026-04-04T06:38:36.93Z</time></trkpt><trkpt lat="44.7032918" lon="11.7036049"><ele>1.0</ele><time>2026-04-04T06:38:37.929Z</time></trkpt><trkpt lat="44.703168" lon="11.7033239"><ele>2.0</ele><time>2026-04-04T06:38:38.93Z</time></trkpt><trkpt lat="44.703056" lon="11.703038"><ele>3.0</ele><time>2026-04-04T06:38:39.929Z</time></trkpt><trkpt lat="44.7029534" lon="11.7027449"><ele>3.5</ele><time>2026-04-04T06:38:40.929Z</time></trkpt><trkpt lat="44.7028543" lon="11.7024434"><ele>4.0</ele><time>2026-04-04T06:38:41.929Z</time></trkpt><trkpt lat="44.7027675" lon="11.7021427"><ele>2.5</ele><time>2026-04-04T06:38:42.929Z</time></trkpt><trkpt lat="44.7026824" lon="11.7018393"><ele>1.0</ele><time>2026-04-04T06:38:43.93Z</time></trkpt><trkpt lat="44.7025937" lon="11.7015432"><ele>1.0</ele><time>2026-04-04T06:38:44.929Z</time></trkpt><trkpt lat="44.702503" lon="11.7012481"><ele>1.0</ele><time>2026-04-04T06:38:45.93Z</time></trkpt><trkpt lat="44.7024203" lon="11.7009542"><ele>2.5</ele><time>2026-04-04T06:38:46.93Z</time></trkpt><trkpt lat="44.7023501" lon="11.7006552"><ele>4.0</ele><time>2026-04-04T06:38:47.929Z</time></trkpt><trkpt lat="44.7022878" lon="11.7003486"><ele>4.5</ele><time>2026-04-04T06:38:48.929Z</time></trkpt><trkpt lat="44.7022219" lon="11.7000368"><ele>5.0</ele><time>2026-04-04T06:38:49.93Z</time></trkpt><trkpt lat="44.7021488" lon="11.6997243"><ele>5.0</ele><time>2026-04-04T06:38:50.93Z</time></trkpt><trkpt lat="44.7020714" lon="11.6994162"><ele>5.0</ele><time>2026-04-04T06:38:51.93Z</time></trkpt><trkpt lat="44.7019872" lon="11.6991084"><ele>4.5</ele><time>2026-04-04T06:38:52.929Z</time></trkpt><trkpt lat="44.7018988" lon="11.6988052"><ele>4.0</ele><time>2026-04-04T06:38:53.93Z</time></trkpt><trkpt lat="44.7018069" lon="11.6985009"><ele>4.0</ele><time>2026-04-04T06:38:54.93Z</time></trkpt><trkpt lat="44.701712" lon="11.69819"><ele>4.0</ele><time>2026-04-04T06:38:55.929Z</time></trkpt><trkpt lat="44.7016156" lon="11.6978829"><ele>4.0</ele><time>2026-04-04T06:38:56.929Z</time></trkpt><trkpt lat="44.7015161" lon="11.6975792"><ele>4.0</ele><time>2026-04-04T06:38:57.93Z</time></trkpt><trkpt lat="44.7014138" lon="11.6972754"><ele>4.0</ele><time>2026-04-04T06:38:58.929Z</time></trkpt><trkpt lat="44.7013057" lon="11.6969722"><ele>4.0</ele><time>2026-04-04T06:38:59.929Z</time></trkpt><trkpt lat="44.701197" lon="11.6966756"><ele>4.0</ele><time>2026-04-04T06:39:00.928Z</time></trkpt><trkpt lat="44.7010791" lon="11.6963819"><ele>4.0</ele><time>2026-04-04T06:39:01.929Z</time></trkpt><trkpt lat="44.7009556" lon="11.6960979"><ele>4.0</ele><time>2026-04-04T06:39:02.929Z</time></trkpt><trkpt lat="44.7008299" lon="11.6958165"><ele>4.0</ele><time>2026-04-04T06:39:03.93Z</time></trkpt><trkpt lat="44.7006996" lon="11.6955397"><ele>4.0</ele><time>2026-04-04T06:39:04.93Z</time></trkpt><trkpt lat="44.700564" lon="11.6952677"><ele>4.0</ele><time>2026-04-04T06:39:05.93Z</time></trkpt><trkpt lat="44.7004282" lon="11.6949978"><ele>4.5</ele><time>2026-04-04T06:39:06.93Z</time></trkpt><trkpt lat="44.7002872" lon="11.6947332"><ele>5.0</ele><time>2026-04-04T06:39:07.93Z</time></trkpt><trkpt lat="44.7001469" lon="11.6944742"><ele>5.5</ele><time>2026-04-04T06:39:08.93Z</time></trkpt><trkpt lat="44.7000041" lon="11.6942179"><ele>6.0</ele><time>2026-04-04T06:39:09.93Z</time></trkpt><trkpt lat="44.6998606" lon="11.6939604"><ele>6.0</ele><time>2026-04-04T06:39:10.929Z</time></trkpt><trkpt lat="44.6997152" lon="11.6937084"><ele>6.0</ele><time>2026-04-04T06:39:11.929Z</time></trkpt><trkpt lat="44.6995682" lon="11.6934637"><ele>5.333333333333333</ele><time>2026-04-04T06:39:12.93Z</time></trkpt><trkpt lat="44.6994135" lon="11.6932374"><ele>4.666666666666666</ele><time>2026-04-04T06:39:13.928Z</time></trkpt><trkpt lat="44.6992461" lon="11.6930333"><ele>4.0</ele><time>2026-04-04T06:39:14.928Z</time></trkpt><trkpt lat="44.6990651" lon="11.6928505"><ele>4.0</ele><time>2026-04-04T06:39:15.93Z</time></trkpt><trkpt lat="44.6988707" lon="11.6926958"><ele>4.0</ele><time>2026-04-04T06:39:16.929Z</time></trkpt><trkpt lat="44.6986663" lon="11.6925617"><ele>4.0</ele><time>2026-04-04T06:39:17.93Z</time></trkpt><trkpt lat="44.6984593" lon="11.6924361"><ele>4.5</ele><time>2026-04-04T06:39:18.93Z</time></trkpt><trkpt lat="44.6982477" lon="11.6923123"><ele>5.0</ele><time>2026-04-04T06:39:19.929Z</time></trkpt><trkpt lat="44.6980348" lon="11.6921895"><ele>5.0</ele><time>2026-04-04T06:39:20.929Z</time></trkpt><trkpt lat="44.697822" lon="11.6920681"><ele>5.0</ele><time>2026-04-04T06:39:21.929Z</time></trkpt><trkpt lat="44.6976115" lon="11.691945"><ele>4.5</ele><time>2026-04-04T06:39:22.929Z</time></trkpt><trkpt lat="44.6973974" lon="11.6918229"><ele>4.0</ele><time>2026-04-04T06:39:23.93Z</time></trkpt><trkpt lat="44.6971804" lon="11.6917085"><ele>4.0</ele><time>2026-04-04T06:39:24.929Z</time></trkpt><trkpt lat="44.6969618" lon="11.6916022"><ele>4.0</ele><time>2026-04-04T06:39:25.929Z</time></trkpt><trkpt lat="44.6967417" lon="11.691506"><ele>4.5</ele><time>2026-04-04T06:39:26.929Z</time></trkpt><trkpt lat="44.6965221" lon="11.6914131"><ele>5.0</ele><time>2026-04-04T06:39:27.928Z</time></trkpt><trkpt lat="44.6963021" lon="11.691321"><ele>4.0</ele><time>2026-04-04T06:39:28.929Z</time></trkpt><trkpt lat="44.6960786" lon="11.6912381"><ele>3.0</ele><time>2026-04-04T06:39:29.929Z</time></trkpt><trkpt lat="44.6958552" lon="11.6911558"><ele>3.5</ele><time>2026-04-04T06:39:30.93Z</time></trkpt><trkpt lat="44.6956307" lon="11.6910869"><ele>4.0</ele><time>2026-04-04T06:39:31.929Z</time></trkpt><trkpt lat="44.6954093" lon="11.6910244"><ele>4.0</ele><time>2026-04-04T06:39:32.929Z</time></trkpt><trkpt lat="44.6951859" lon="11.6909719"><ele>4.0</ele><time>2026-04-04T06:39:33.929Z</time></trkpt><trkpt lat="44.6949613" lon="11.690918"><ele>4.0</ele><time>2026-04-04T06:39:34.93Z</time></trkpt><trkpt lat="44.6947386" lon="11.6908702"><ele>4.0</ele><time>2026-04-04T06:39:35.93Z</time></trkpt><trkpt lat="44.6945138" lon="11.6908182"><ele>4.0</ele><time>2026-04-04T06:39:36.93Z</time></trkpt><trkpt lat="44.6942894" lon="11.6907643"><ele>4.0</ele><time>2026-04-04T06:39:37.93Z</time></trkpt><trkpt lat="44.6940671" lon="11.6907107"><ele>4.0</ele><time>2026-04-04T06:39:38.93Z</time></trkpt><trkpt lat="44.6938455" lon="11.6906571"><ele>4.0</ele><time>2026-04-04T06:39:39.93Z</time></trkpt><trkpt lat="44.6936215" lon="11.6906066"><ele>4.5</ele><time>2026-04-04T06:39:40.93Z</time></trkpt><trkpt lat="44.6933975" lon="11.6905606"><ele>5.0</ele><time>2026-04-04T06:39:41.93Z</time></trkpt><trkpt lat="44.6931713" lon="11.6905342"><ele>5.0</ele><time>2026-04-04T06:39:42.93Z</time></trkpt><trkpt lat="44.6929458" lon="11.6905343"><ele>5.0</ele><time>2026-04-04T06:39:43.93Z</time></trkpt><trkpt lat="44.6927216" lon="11.6905579"><ele>4.5</ele><time>2026-04-04T06:39:44.93Z</time></trkpt><trkpt lat="44.692497" lon="11.6905982"><ele>4.0</ele><time>2026-04-04T06:39:45.93Z</time></trkpt><trkpt lat="44.6922749" lon="11.6906366"><ele>4.0</ele><time>2026-04-04T06:39:46.929Z</time></trkpt><trkpt lat="44.6920495" lon="11.6906769"><ele>4.0</ele><time>2026-04-04T06:39:47.928Z</time></trkpt><trkpt lat="44.6918273" lon="11.6907216"><ele>4.5</ele><time>2026-04-04T06:39:48.928Z</time></trkpt><trkpt lat="44.6916044" lon="11.6907781"><ele>5.0</ele><time>2026-04-04T06:39:49.93Z</time></trkpt><trkpt lat="44.6913827" lon="11.6908502"><ele>5.0</ele><time>2026-04-04T06:39:50.93Z</time></trkpt><trkpt lat="44.6911634" lon="11.6909454"><ele>5.0</ele><time>2026-04-04T06:39:51.93Z</time></trkpt><trkpt lat="44.6909544" lon="11.6910737"><ele>5.0</ele><time>2026-04-04T06:39:52.929Z</time></trkpt><trkpt lat="44.690759" lon="11.6912322"><ele>5.0</ele><time>2026-04-04T06:39:53.93Z</time></trkpt><trkpt lat="44.690564" lon="11.6914026"><ele>5.0</ele><time>2026-04-04T06:39:54.93Z</time></trkpt><trkpt lat="44.6903627" lon="11.6915722"><ele>5.0</ele><time>2026-04-04T06:39:55.929Z</time></trkpt><trkpt lat="44.6901651" lon="11.6917468"><ele>5.0</ele><time>2026-04-04T06:39:56.929Z</time></trkpt><trkpt lat="44.6899653" lon="11.6919244"><ele>5.0</ele><time>2026-04-04T06:39:57.93Z</time></trkpt><trkpt lat="44.689767" lon="11.692102"><ele>5.0</ele><time>2026-04-04T06:39:58.93Z</time></trkpt><trkpt lat="44.6895678" lon="11.692276"><ele>5.0</ele><time>2026-04-04T06:39:59.93Z</time></trkpt><trkpt lat="44.6893656" lon="11.692451"><ele>5.0</ele><time>2026-04-04T06:40:00.93Z</time></trkpt><trkpt lat="44.6891657" lon="11.6926244"><ele>5.0</ele><time>2026-04-04T06:40:01.929Z</time></trkpt><trkpt lat="44.6889645" lon="11.6927986"><ele>5.0</ele><time>2026-04-04T06:40:02.929Z</time></trkpt><trkpt lat="44.6887605" lon="11.6929717"><ele>5.0</ele><time>2026-04-04T06:40:03.929Z</time></trkpt><trkpt lat="44.6885585" lon="11.6931451"><ele>5.0</ele><time>2026-04-04T06:40:04.929Z</time></trkpt><trkpt lat="44.6883562" lon="11.6933212"><ele>5.0</ele><time>2026-04-04T06:40:05.928Z</time></trkpt><trkpt lat="44.6881544" lon="11.6934969"><ele>5.0</ele><time>2026-04-04T06:40:06.928Z</time></trkpt><trkpt lat="44.6879485" lon="11.6936702"><ele>5.0</ele><time>2026-04-04T06:40:07.929Z</time></trkpt><trkpt lat="44.6877424" lon="11.6938397"><ele>5.0</ele><time>2026-04-04T06:40:08.929Z</time></trkpt><trkpt lat="44.6875339" lon="11.6940015"><ele>5.0</ele><time>2026-04-04T06:40:09.929Z</time></trkpt><trkpt lat="44.6873211" lon="11.6941538"><ele>5.0</ele><time>2026-04-04T06:40:10.929Z</time></trkpt><trkpt lat="44.6871072" lon="11.6942992"><ele>5.0</ele><time>2026-04-04T06:40:11.93Z</time></trkpt><trkpt lat="44.6868918" lon="11.6944403"><ele>4.0</ele><time>2026-04-04T06:40:12.93Z</time></trkpt><trkpt lat="44.6866784" lon="11.6945853"><ele>3.0</ele><time>2026-04-04T06:40:13.929Z</time></trkpt><trkpt lat="44.6864695" lon="11.6947372"><ele>3.0</ele><time>2026-04-04T06:40:14.929Z</time></trkpt><trkpt lat="44.6862649" lon="11.6948997"><ele>3.0</ele><time>2026-04-04T06:40:15.929Z</time></trkpt><trkpt lat="44.6860646" lon="11.6950736"><ele>3.5</ele><time>2026-04-04T06:40:16.929Z</time></trkpt><trkpt lat="44.6858704" lon="11.6952578"><ele>4.0</ele><time>2026-04-04T06:40:17.93Z</time></trkpt><trkpt lat="44.6856833" lon="11.6954541"><ele>4.0</ele><time>2026-04-04T06:40:18.928Z</time></trkpt><trkpt lat="44.6854998" lon="11.6956592"><ele>4.0</ele><time>2026-04-04T06:40:19.929Z</time></trkpt><trkpt lat="44.6853206" lon="11.6958765"><ele>5.0</ele><time>2026-04-04T06:40:20.929Z</time></trkpt><trkpt lat="44.6851587" lon="11.6961147"><ele>6.0</ele><time>2026-04-04T06:40:21.929Z</time></trkpt><trkpt lat="44.6850164" lon="11.6963774"><ele>6.0</ele><time>2026-04-04T06:40:22.93Z</time></trkpt><trkpt lat="44.6848973" lon="11.6966629"><ele>6.0</ele><time>2026-04-04T06:40:23.93Z</time></trkpt><trkpt lat="44.6847902" lon="11.6969633"><ele>4.0</ele><time>2026-04-04T06:40:24.93Z</time></trkpt><trkpt lat="44.6846822" lon="11.6972601"><ele>2.0</ele><time>2026-04-04T06:40:25.93Z</time></trkpt><trkpt lat="44.6845673" lon="11.697549"><ele>2.0</ele><time>2026-04-04T06:40:26.93Z</time></trkpt><trkpt lat="44.684438" lon="11.6978231"><ele>2.0</ele><time>2026-04-04T06:40:27.93Z</time></trkpt><trkpt lat="44.6842907" lon="11.6980738"><ele>3.0</ele><time>2026-04-04T06:40:28.93Z</time></trkpt><trkpt lat="44.6841272" lon="11.6983005"><ele>4.0</ele><time>2026-04-04T06:40:29.929Z</time></trkpt><trkpt lat="44.6839475" lon="11.6984991"><ele>3.5</ele><time>2026-04-04T06:40:30.93Z</time></trkpt><trkpt lat="44.6837496" lon="11.6986735"><ele>3.0</ele><time>2026-04-04T06:40:31.93Z</time></trkpt><trkpt lat="44.6835392" lon="11.6988257"><ele>4.0</ele><time>2026-04-04T06:40:32.93Z</time></trkpt><trkpt lat="44.6833217" lon="11.6989571"><ele>5.0</ele><time>2026-04-04T06:40:33.929Z</time></trkpt><trkpt lat="44.6831011" lon="11.6990739"><ele>5.0</ele><time>2026-04-04T06:40:34.929Z</time></trkpt><trkpt lat="44.6828785" lon="11.6991786"><ele>5.0</ele><time>2026-04-04T06:40:35.93Z</time></trkpt><trkpt lat="44.6826566" lon="11.6992737"><ele>3.5</ele><time>2026-04-04T06:40:36.93Z</time></trkpt><trkpt lat="44.682433" lon="11.6993518"><ele>2.0</ele><time>2026-04-04T06:40:37.928Z</time></trkpt><trkpt lat="44.682209" lon="11.6994198"><ele>2.0</ele><time>2026-04-04T06:40:38.929Z</time></trkpt><trkpt lat="44.6819844" lon="11.6994777"><ele>2.0</ele><time>2026-04-04T06:40:39.93Z</time></trkpt><trkpt lat="44.6817611" lon="11.6995267"><ele>2.5</ele><time>2026-04-04T06:40:40.93Z</time></trkpt><trkpt lat="44.6815381" lon="11.6995705"><ele>3.0</ele><time>2026-04-04T06:40:41.93Z</time></trkpt><trkpt lat="44.6813148" lon="11.6996028"><ele>2.6666666666666665</ele><time>2026-04-04T06:40:42.93Z</time></trkpt><trkpt lat="44.6810925" lon="11.6996249"><ele>2.333333333333333</ele><time>2026-04-04T06:40:43.93Z</time></trkpt><trkpt lat="44.6808698" lon="11.6996427"><ele>2.0</ele><time>2026-04-04T06:40:44.928Z</time></trkpt><trkpt lat="44.6806499" lon="11.6996578"><ele>2.0</ele><time>2026-04-04T06:40:45.929Z</time></trkpt><trkpt lat="44.6804297" lon="11.699663"><ele>2.0</ele><time>2026-04-04T06:40:46.93Z</time></trkpt><trkpt lat="44.6802092" lon="11.6996582"><ele>2.0</ele><time>2026-04-04T06:40:47.93Z</time></trkpt><trkpt lat="44.6799901" lon="11.699645"><ele>1.6666666666666665</ele><time>2026-04-04T06:40:48.929Z</time></trkpt><trkpt lat="44.6797712" lon="11.6996273"><ele>1.3333333333333333</ele><time>2026-04-04T06:40:49.93Z</time></trkpt><trkpt lat="44.6795546" lon="11.6996099"><ele>1.0</ele><time>2026-04-04T06:40:50.93Z</time></trkpt><trkpt lat="44.6793417" lon="11.6995894"><ele>1.6666666666666665</ele><time>2026-04-04T06:40:51.929Z</time></trkpt><trkpt lat="44.6791379" lon="11.6995682"><ele>2.3333333333333335</ele><time>2026-04-04T06:40:52.929Z</time></trkpt><trkpt lat="44.6789492" lon="11.6995465"><ele>3.0</ele><time>2026-04-04T06:40:53.93Z</time></trkpt><trkpt lat="44.6787708" lon="11.6995208"><ele>3.0</ele><time>2026-04-04T06:40:54.929Z</time></trkpt><trkpt lat="44.6786044" lon="11.6994954"><ele>3.0</ele><time>2026-04-04T06:40:55.929Z</time></trkpt><trkpt lat="44.6784439" lon="11.6994696"><ele>3.0</ele><time>2026-04-04T06:40:56.929Z</time></trkpt><trkpt lat="44.6782869" lon="11.6994441"><ele>3.0</ele><time>2026-04-04T06:40:57.93Z</time></trkpt><trkpt lat="44.6781364" lon="11.6994189"><ele>3.0</ele><time>2026-04-04T06:40:58.93Z</time></trkpt><trkpt lat="44.6779895" lon="11.6993933"><ele>3.0</ele><time>2026-04-04T06:40:59.929Z</time></trkpt><trkpt lat="44.6778477" lon="11.6993669"><ele>3.0</ele><time>2026-04-04T06:41:00.93Z</time></trkpt><trkpt lat="44.6777086" lon="11.6993433"><ele>3.25</ele><time>2026-04-04T06:41:01.93Z</time></trkpt><trkpt lat="44.6775726" lon="11.6993231"><ele>3.5</ele><time>2026-04-04T06:41:02.928Z</time></trkpt><trkpt lat="44.6774418" lon="11.6993033"><ele>3.75</ele><time>2026-04-04T06:41:03.929Z</time></trkpt><trkpt lat="44.677317" lon="11.6992846"><ele>4.0</ele><time>2026-04-04T06:41:04.929Z</time></trkpt><trkpt lat="44.6771972" lon="11.6992646"><ele>4.0</ele><time>2026-04-04T06:41:05.929Z</time></trkpt><trkpt lat="44.6771048" lon="11.6992411"><ele>4.0</ele><time>2026-04-04T06:41:06.928Z</time></trkpt><trkpt lat="44.6770146" lon="11.699205"><ele>4.0</ele><time>2026-04-04T06:41:08.929Z</time></trkpt><trkpt lat="44.6769302" lon="11.6992042"><ele>4.0</ele><time>2026-04-04T06:41:17.93Z</time></trkpt><trkpt lat="44.6768187" lon="11.6991851"><ele>4.0</ele><time>2026-04-04T06:41:19.93Z</time></trkpt><trkpt lat="44.6767335" lon="11.6991594"><ele>4.2</ele><time>2026-04-04T06:41:20.93Z</time></trkpt><trkpt lat="44.6766429" lon="11.6991292"><ele>4.4</ele><time>2026-04-04T06:41:21.93Z</time></trkpt><trkpt lat="44.6765416" lon="11.6990943"><ele>4.6</ele><time>2026-04-04T06:41:22.929Z</time></trkpt><trkpt lat="44.6764221" lon="11.6990596"><ele>4.8</ele><time>2026-04-04T06:41:23.929Z</time></trkpt><trkpt lat="44.6763096" lon="11.6990239"><ele>5.0</ele><time>2026-04-04T06:41:24.929Z</time></trkpt><trkpt lat="44.6762092" lon="11.6989921"><ele>5.0</ele><time>2026-04-04T06:41:25.929Z</time></trkpt><trkpt lat="44.6761214" lon="11.6989613"><ele>5.0</ele><time>2026-04-04T06:41:26.929Z</time></trkpt><trkpt lat="44.6760466" lon="11.6989349"><ele>5.0</ele><time>2026-04-04T06:41:27.929Z</time></trkpt><trkpt lat="44.6759855" lon="11.6989073"><ele>5.0</ele><time>2026-04-04T06:41:28.93Z</time></trkpt><trkpt lat="44.6759138" lon="11.6988668"><ele>5.0</ele><time>2026-04-04T06:41:30.93Z</time></trkpt><trkpt lat="44.6757592" lon="11.6988404"><ele>4.6</ele><time>2026-04-04T06:43:39.93Z</time></trkpt><trkpt lat="44.6756815" lon="11.6988071"><ele>4.2</ele><time>2026-04-04T06:43:40.929Z</time></trkpt><trkpt lat="44.6756079" lon="11.6987765"><ele>3.8</ele><time>2026-04-04T06:43:41.928Z</time></trkpt><trkpt lat="44.6755239" lon="11.6987323"><ele>3.4</ele><time>2026-04-04T06:43:42.928Z</time></trkpt><trkpt lat="44.6754261" lon="11.698682"><ele>3.0</ele><time>2026-04-04T06:43:43.929Z</time></trkpt><trkpt lat="44.6753236" lon="11.6986243"><ele>3.25</ele><time>2026-04-04T06:43:44.928Z</time></trkpt><trkpt lat="44.6752195" lon="11.6985592"><ele>3.5</ele><time>2026-04-04T06:43:45.929Z</time></trkpt><trkpt lat="44.6751034" lon="11.6984864"><ele>3.75</ele><time>2026-04-04T06:43:46.929Z</time></trkpt><trkpt lat="44.674974" lon="11.6984043"><ele>4.0</ele><time>2026-04-04T06:43:47.929Z</time></trkpt><trkpt lat="44.6748313" lon="11.6983114"><ele>4.0</ele><time>2026-04-04T06:43:48.93Z</time></trkpt><trkpt lat="44.6746831" lon="11.6982104"><ele>4.0</ele><time>2026-04-04T06:43:49.93Z</time></trkpt><trkpt lat="44.6745212" lon="11.6980998"><ele>4.0</ele><time>2026-04-04T06:43:50.93Z</time></trkpt><trkpt lat="44.6743482" lon="11.6979811"><ele>4.0</ele><time>2026-04-04T06:43:51.93Z</time></trkpt><trkpt lat="44.6741726" lon="11.6978588"><ele>4.0</ele><time>2026-04-04T06:43:52.93Z</time></trkpt><trkpt lat="44.6739921" lon="11.6977344"><ele>4.0</ele><time>2026-04-04T06:43:53.929Z</time></trkpt><trkpt lat="44.6738115" lon="11.6976071"><ele>4.0</ele><time>2026-04-04T06:43:54.93Z</time></trkpt><trkpt lat="44.6736308" lon="11.697484"><ele>4.0</ele><time>2026-04-04T06:43:55.929Z</time></trkpt><trkpt lat="44.6734495" lon="11.6973695"><ele>4.0</ele><time>2026-04-04T06:43:56.929Z</time></trkpt><trkpt lat="44.6732671" lon="11.6972646"><ele>4.0</ele><time>2026-04-04T06:43:57.93Z</time></trkpt><trkpt lat="44.6730836" lon="11.6971839"><ele>4.0</ele><time>2026-04-04T06:43:58.93Z</time></trkpt><trkpt lat="44.6728979" lon="11.6971391"><ele>4.0</ele><time>2026-04-04T06:43:59.929Z</time></trkpt><trkpt lat="44.672706" lon="11.6971381"><ele>4.333333333333333</ele><time>2026-04-04T06:44:00.93Z</time></trkpt><trkpt lat="44.6725085" lon="11.6971623"><ele>4.666666666666667</ele><time>2026-04-04T06:44:01.929Z</time></trkpt><trkpt lat="44.6723085" lon="11.6972101"><ele>5.0</ele><time>2026-04-04T06:44:02.929Z</time></trkpt><trkpt lat="44.6721011" lon="11.6972631"><ele>5.333333333333334</ele><time>2026-04-04T06:44:03.928Z</time></trkpt><trkpt lat="44.6718934" lon="11.6973125"><ele>5.666666666666667</ele><time>2026-04-04T06:44:04.93Z</time></trkpt><trkpt lat="44.6717005" lon="11.6973605"><ele>6.0</ele><time>2026-04-04T06:44:05.929Z</time></trkpt><trkpt lat="44.6715219" lon="11.6974023"><ele>6.0</ele><time>2026-04-04T06:44:06.93Z</time></trkpt><trkpt lat="44.6713548" lon="11.6974403"><ele>6.0</ele><time>2026-04-04T06:44:07.929Z</time></trkpt><trkpt lat="44.6711987" lon="11.6974799"><ele>6.0</ele><time>2026-04-04T06:44:08.928Z</time></trkpt><trkpt lat="44.6710535" lon="11.6975208"><ele>5.666666666666667</ele><time>2026-04-04T06:44:09.929Z</time></trkpt><trkpt lat="44.6709114" lon="11.6975675"><ele>5.333333333333334</ele><time>2026-04-04T06:44:10.929Z</time></trkpt><trkpt lat="44.6707644" lon="11.6976323"><ele>5.0</ele><time>2026-04-04T06:44:11.929Z</time></trkpt><trkpt lat="44.6706162" lon="11.6977034"><ele>5.0</ele><time>2026-04-04T06:44:12.929Z</time></trkpt><trkpt lat="44.6704739" lon="11.6977702"><ele>5.0</ele><time>2026-04-04T06:44:13.929Z</time></trkpt><trkpt lat="44.6703375" lon="11.6978322"><ele>5.0</ele><time>2026-04-04T06:44:14.928Z</time></trkpt><trkpt lat="44.6702084" lon="11.6978891"><ele>5.0</ele><time>2026-04-04T06:44:15.929Z</time></trkpt><trkpt lat="44.6700874" lon="11.6979444"><ele>5.0</ele><time>2026-04-04T06:44:16.93Z</time></trkpt><trkpt lat="44.6699676" lon="11.6980012"><ele>5.0</ele><time>2026-04-04T06:44:17.929Z</time></trkpt><trkpt lat="44.6698474" lon="11.6980576"><ele>5.0</ele><time>2026-04-04T06:44:18.928Z</time></trkpt><trkpt lat="44.6697302" lon="11.6981112"><ele>5.0</ele><time>2026-04-04T06:44:19.93Z</time></trkpt><trkpt lat="44.6696132" lon="11.6981645"><ele>5.0</ele><time>2026-04-04T06:44:20.93Z</time></trkpt><trkpt lat="44.6694962" lon="11.6982133"><ele>5.0</ele><time>2026-04-04T06:44:21.93Z</time></trkpt><trkpt lat="44.6693828" lon="11.6982603"><ele>5.0</ele><time>2026-04-04T06:44:22.929Z</time></trkpt><trkpt lat="44.6692757" lon="11.6983071"><ele>5.0</ele><time>2026-04-04T06:44:23.929Z</time></trkpt><trkpt lat="44.6691669" lon="11.6983525"><ele>5.0</ele><time>2026-04-04T06:44:24.93Z</time></trkpt><trkpt lat="44.6690538" lon="11.6983955"><ele>5.0</ele><time>2026-04-04T06:44:25.931Z</time></trkpt><trkpt lat="44.6689309" lon="11.6984431"><ele>5.0</ele><time>2026-04-04T06:44:26.93Z</time></trkpt><trkpt lat="44.668798" lon="11.6984934"><ele>5.0</ele><time>2026-04-04T06:44:27.928Z</time></trkpt><trkpt lat="44.6686547" lon="11.698563"><ele>5.666666666666667</ele><time>2026-04-04T06:44:28.93Z</time></trkpt><trkpt lat="44.668508" lon="11.6986518"><ele>6.333333333333334</ele><time>2026-04-04T06:44:29.929Z</time></trkpt><trkpt lat="44.6683683" lon="11.6987579"><ele>7.0</ele><time>2026-04-04T06:44:30.93Z</time></trkpt><trkpt lat="44.66824" lon="11.6988735"><ele>7.0</ele><time>2026-04-04T06:44:31.929Z</time></trkpt><trkpt lat="44.6681211" lon="11.6989838"><ele>7.0</ele><time>2026-04-04T06:44:32.93Z</time></trkpt><trkpt lat="44.6680027" lon="11.6990949"><ele>7.0</ele><time>2026-04-04T06:44:33.93Z</time></trkpt><trkpt lat="44.6678816" lon="11.6992176"><ele>7.0</ele><time>2026-04-04T06:44:34.929Z</time></trkpt><trkpt lat="44.6677593" lon="11.6993471"><ele>6.666666666666667</ele><time>2026-04-04T06:44:35.928Z</time></trkpt><trkpt lat="44.6676313" lon="11.6994716"><ele>6.333333333333334</ele><time>2026-04-04T06:44:36.929Z</time></trkpt><trkpt lat="44.6674946" lon="11.6995929"><ele>6.0</ele><time>2026-04-04T06:44:37.93Z</time></trkpt><trkpt lat="44.6673515" lon="11.6997123"><ele>6.0</ele><time>2026-04-04T06:44:38.93Z</time></trkpt><trkpt lat="44.6671996" lon="11.699831"><ele>6.0</ele><time>2026-04-04T06:44:39.928Z</time></trkpt><trkpt lat="44.667045" lon="11.6999399"><ele>6.0</ele><time>2026-04-04T06:44:40.93Z</time></trkpt><trkpt lat="44.6668792" lon="11.7000447"><ele>6.333333333333334</ele><time>2026-04-04T06:44:41.93Z</time></trkpt><trkpt lat="44.6667045" lon="11.7001417"><ele>6.666666666666667</ele><time>2026-04-04T06:44:42.93Z</time></trkpt><trkpt lat="44.6665222" lon="11.7002429"><ele>7.0</ele><time>2026-04-04T06:44:43.93Z</time></trkpt><trkpt lat="44.6663302" lon="11.7003506"><ele>7.0</ele><time>2026-04-04T06:44:44.93Z</time></trkpt><trkpt lat="44.6661327" lon="11.7004595"><ele>7.0</ele><time>2026-04-04T06:44:45.929Z</time></trkpt><trkpt lat="44.6659387" lon="11.700562"><ele>7.0</ele><time>2026-04-04T06:44:46.93Z</time></trkpt><trkpt lat="44.6657488" lon="11.7006629"><ele>7.0</ele><time>2026-04-04T06:44:47.929Z</time></trkpt><trkpt lat="44.6655575" lon="11.7007557"><ele>7.0</ele><time>2026-04-04T06:44:48.93Z</time></trkpt><trkpt lat="44.6653629" lon="11.7008389"><ele>7.0</ele><time>2026-04-04T06:44:49.93Z</time></trkpt><trkpt lat="44.6651661" lon="11.7009114"><ele>6.666666666666667</ele><time>2026-04-04T06:44:50.93Z</time></trkpt><trkpt lat="44.6649682" lon="11.7009768"><ele>6.333333333333334</ele><time>2026-04-04T06:44:51.929Z</time></trkpt><trkpt lat="44.6647701" lon="11.7010256"><ele>6.0</ele><time>2026-04-04T06:44:52.929Z</time></trkpt><trkpt lat="44.664572" lon="11.7010463"><ele>6.333333333333334</ele><time>2026-04-04T06:44:53.929Z</time></trkpt><trkpt lat="44.664379" lon="11.7010383"><ele>6.666666666666667</ele><time>2026-04-04T06:44:54.93Z</time></trkpt><trkpt lat="44.6641868" lon="11.7010269"><ele>7.0</ele><time>2026-04-04T06:44:55.929Z</time></trkpt><trkpt lat="44.6639971" lon="11.7010476"><ele>6.666666666666667</ele><time>2026-04-04T06:44:56.929Z</time></trkpt><trkpt lat="44.6638107" lon="11.7011074"><ele>6.333333333333334</ele><time>2026-04-04T06:44:57.928Z</time></trkpt><trkpt lat="44.6636244" lon="11.7011931"><ele>6.0</ele><time>2026-04-04T06:44:58.93Z</time></trkpt><trkpt lat="44.6634339" lon="11.7012772"><ele>6.0</ele><time>2026-04-04T06:44:59.93Z</time></trkpt><trkpt lat="44.6632374" lon="11.7013497"><ele>6.0</ele><time>2026-04-04T06:45:00.929Z</time></trkpt><trkpt lat="44.6630385" lon="11.7014068"><ele>6.0</ele><time>2026-04-04T06:45:01.93Z</time></trkpt><trkpt lat="44.6628485" lon="11.7014627"><ele>6.666666666666666</ele><time>2026-04-04T06:45:02.93Z</time></trkpt><trkpt lat="44.6626704" lon="11.7015336"><ele>7.333333333333333</ele><time>2026-04-04T06:45:03.93Z</time></trkpt><trkpt lat="44.6624965" lon="11.7016391"><ele>8.0</ele><time>2026-04-04T06:45:04.929Z</time></trkpt><trkpt lat="44.6623277" lon="11.7017736"><ele>7.0</ele><time>2026-04-04T06:45:05.929Z</time></trkpt><trkpt lat="44.6621595" lon="11.7019206"><ele>6.0</ele><time>2026-04-04T06:45:06.93Z</time></trkpt><trkpt lat="44.6619903" lon="11.7020695"><ele>5.0</ele><time>2026-04-04T06:45:07.93Z</time></trkpt><trkpt lat="44.6618248" lon="11.702215"><ele>4.666666666666667</ele><time>2026-04-04T06:45:08.93Z</time></trkpt><trkpt lat="44.6616537" lon="11.7023475"><ele>4.333333333333333</ele><time>2026-04-04T06:45:09.93Z</time></trkpt><trkpt lat="44.6614796" lon="11.7024492"><ele>4.0</ele><time>2026-04-04T06:45:10.93Z</time></trkpt><trkpt lat="44.661298" lon="11.7025191"><ele>3.6666666666666665</ele><time>2026-04-04T06:45:11.929Z</time></trkpt><trkpt lat="44.6611137" lon="11.7025449"><ele>3.333333333333333</ele><time>2026-04-04T06:45:12.929Z</time></trkpt><trkpt lat="44.6609262" lon="11.7025387"><ele>3.0</ele><time>2026-04-04T06:45:13.929Z</time></trkpt><trkpt lat="44.6607425" lon="11.7025002"><ele>3.0</ele><time>2026-04-04T06:45:14.929Z</time></trkpt><trkpt lat="44.6605645" lon="11.7024105"><ele>3.0</ele><time>2026-04-04T06:45:15.929Z</time></trkpt><trkpt lat="44.6603872" lon="11.7022974"><ele>3.0</ele><time>2026-04-04T06:45:16.929Z</time></trkpt><trkpt lat="44.6602039" lon="11.7021824"><ele>3.0</ele><time>2026-04-04T06:45:17.929Z</time></trkpt><trkpt lat="44.6600099" lon="11.7020607"><ele>3.0</ele><time>2026-04-04T06:45:18.929Z</time></trkpt><trkpt lat="44.6598113" lon="11.7019347"><ele>3.0</ele><time>2026-04-04T06:45:19.93Z</time></trkpt><trkpt lat="44.659609" lon="11.701809"><ele>3.333333333333333</ele><time>2026-04-04T06:45:20.929Z</time></trkpt><trkpt lat="44.6594026" lon="11.7016781"><ele>3.6666666666666665</ele><time>2026-04-04T06:45:21.929Z</time></trkpt><trkpt lat="44.6592047" lon="11.7015465"><ele>4.0</ele><time>2026-04-04T06:45:22.93Z</time></trkpt><trkpt lat="44.6590145" lon="11.7014068"><ele>4.0</ele><time>2026-04-04T06:45:23.93Z</time></trkpt><trkpt lat="44.6588267" lon="11.7012471"><ele>4.0</ele><time>2026-04-04T06:45:24.93Z</time></trkpt><trkpt lat="44.6586443" lon="11.7010723"><ele>4.0</ele><time>2026-04-04T06:45:25.93Z</time></trkpt><trkpt lat="44.658464" lon="11.7008816"><ele>4.5</ele><time>2026-04-04T06:45:26.93Z</time></trkpt><trkpt lat="44.6582833" lon="11.70068"><ele>5.0</ele><time>2026-04-04T06:45:27.93Z</time></trkpt><trkpt lat="44.6581023" lon="11.70047"><ele>5.0</ele><time>2026-04-04T06:45:28.929Z</time></trkpt><trkpt lat="44.657922" lon="11.700258"><ele>5.0</ele><time>2026-04-04T06:45:29.928Z</time></trkpt><trkpt lat="44.6577382" lon="11.7000477"><ele>4.0</ele><time>2026-04-04T06:45:30.929Z</time></trkpt><trkpt lat="44.6575553" lon="11.6998377"><ele>3.0</ele><time>2026-04-04T06:45:31.93Z</time></trkpt><trkpt lat="44.6573713" lon="11.6996263"><ele>3.0</ele><time>2026-04-04T06:45:32.929Z</time></trkpt><trkpt lat="44.6571886" lon="11.699412"><ele>3.0</ele><time>2026-04-04T06:45:33.93Z</time></trkpt><trkpt lat="44.6570055" lon="11.6991976"><ele>3.0</ele><time>2026-04-04T06:45:34.929Z</time></trkpt><trkpt lat="44.6568248" lon="11.6989834"><ele>3.0</ele><time>2026-04-04T06:45:35.929Z</time></trkpt><trkpt lat="44.6566394" lon="11.6987719"><ele>3.5</ele><time>2026-04-04T06:45:36.929Z</time></trkpt><trkpt lat="44.6564541" lon="11.6985609"><ele>4.0</ele><time>2026-04-04T06:45:37.928Z</time></trkpt><trkpt lat="44.6562741" lon="11.6983556"><ele>3.6666666666666665</ele><time>2026-04-04T06:45:38.929Z</time></trkpt><trkpt lat="44.656111" lon="11.6981638"><ele>3.333333333333333</ele><time>2026-04-04T06:45:39.93Z</time></trkpt><trkpt lat="44.6559574" lon="11.6979861"><ele>3.0</ele><time>2026-04-04T06:45:40.93Z</time></trkpt><trkpt lat="44.6558145" lon="11.6978201"><ele>3.333333333333333</ele><time>2026-04-04T06:45:41.929Z</time></trkpt><trkpt lat="44.655675" lon="11.6976754"><ele>3.6666666666666665</ele><time>2026-04-04T06:45:42.93Z</time></trkpt><trkpt lat="44.6555259" lon="11.6975595"><ele>4.0</ele><time>2026-04-04T06:45:43.929Z</time></trkpt><trkpt lat="44.6553612" lon="11.6974761"><ele>4.666666666666666</ele><time>2026-04-04T06:45:44.929Z</time></trkpt><trkpt lat="44.6551859" lon="11.6974196"><ele>5.333333333333333</ele><time>2026-04-04T06:45:45.929Z</time></trkpt><trkpt lat="44.6549992" lon="11.6973649"><ele>6.0</ele><time>2026-04-04T06:45:46.93Z</time></trkpt><trkpt lat="44.6548029" lon="11.6973093"><ele>6.0</ele><time>2026-04-04T06:45:47.93Z</time></trkpt><trkpt lat="44.6546038" lon="11.6972333"><ele>6.0</ele><time>2026-04-04T06:45:48.93Z</time></trkpt><trkpt lat="44.654405" lon="11.6971349"><ele>6.0</ele><time>2026-04-04T06:45:49.93Z</time></trkpt><trkpt lat="44.6542085" lon="11.6970274"><ele>5.666666666666667</ele><time>2026-04-04T06:45:50.93Z</time></trkpt><trkpt lat="44.6540098" lon="11.6969233"><ele>5.333333333333334</ele><time>2026-04-04T06:45:51.93Z</time></trkpt><trkpt lat="44.6538047" lon="11.6968417"><ele>5.0</ele><time>2026-04-04T06:45:52.93Z</time></trkpt><trkpt lat="44.6535974" lon="11.6967789"><ele>5.0</ele><time>2026-04-04T06:45:53.93Z</time></trkpt><trkpt lat="44.653386" lon="11.6967394"><ele>5.0</ele><time>2026-04-04T06:45:54.93Z</time></trkpt><trkpt lat="44.6531725" lon="11.6967048"><ele>5.0</ele><time>2026-04-04T06:45:55.929Z</time></trkpt><trkpt lat="44.652961" lon="11.696668"><ele>4.666666666666667</ele><time>2026-04-04T06:45:56.929Z</time></trkpt><trkpt lat="44.6527519" lon="11.6966214"><ele>4.333333333333333</ele><time>2026-04-04T06:45:57.929Z</time></trkpt><trkpt lat="44.6525499" lon="11.6965519"><ele>4.0</ele><time>2026-04-04T06:45:58.929Z</time></trkpt><trkpt lat="44.6523555" lon="11.6964482"><ele>4.0</ele><time>2026-04-04T06:45:59.929Z</time></trkpt><trkpt lat="44.6521684" lon="11.6963025"><ele>4.0</ele><time>2026-04-04T06:46:00.929Z</time></trkpt><trkpt lat="44.6519909" lon="11.6961274"><ele>4.0</ele><time>2026-04-04T06:46:01.93Z</time></trkpt><trkpt lat="44.6518053" lon="11.6959574"><ele>4.333333333333333</ele><time>2026-04-04T06:46:02.93Z</time></trkpt><trkpt lat="44.6516108" lon="11.695803"><ele>4.666666666666667</ele><time>2026-04-04T06:46:03.929Z</time></trkpt><trkpt lat="44.6514122" lon="11.6956591"><ele>5.0</ele><time>2026-04-04T06:46:04.93Z</time></trkpt><trkpt lat="44.6512105" lon="11.6955177"><ele>4.666666666666667</ele><time>2026-04-04T06:46:05.93Z</time></trkpt><trkpt lat="44.6510098" lon="11.6953775"><ele>4.333333333333333</ele><time>2026-04-04T06:46:06.93Z</time></trkpt><trkpt lat="44.6508118" lon="11.6952357"><ele>4.0</ele><time>2026-04-04T06:46:07.93Z</time></trkpt><trkpt lat="44.6506144" lon="11.6950973"><ele>4.333333333333333</ele><time>2026-04-04T06:46:08.929Z</time></trkpt><trkpt lat="44.6504169" lon="11.6949639"><ele>4.666666666666667</ele><time>2026-04-04T06:46:09.929Z</time></trkpt><trkpt lat="44.6502169" lon="11.6948363"><ele>5.0</ele><time>2026-04-04T06:46:10.929Z</time></trkpt><trkpt lat="44.6500174" lon="11.694717"><ele>5.0</ele><time>2026-04-04T06:46:11.929Z</time></trkpt><trkpt lat="44.6498165" lon="11.6946028"><ele>5.0</ele><time>2026-04-04T06:46:12.929Z</time></trkpt><trkpt lat="44.6496191" lon="11.6944903"><ele>5.0</ele><time>2026-04-04T06:46:13.93Z</time></trkpt><trkpt lat="44.6494256" lon="11.6943675"><ele>5.0</ele><time>2026-04-04T06:46:14.93Z</time></trkpt><trkpt lat="44.6492393" lon="11.6942277"><ele>5.0</ele><time>2026-04-04T06:46:15.93Z</time></trkpt><trkpt lat="44.6490555" lon="11.6940708"><ele>5.0</ele><time>2026-04-04T06:46:16.93Z</time></trkpt><trkpt lat="44.6488738" lon="11.693899"><ele>5.0</ele><time>2026-04-04T06:46:17.929Z</time></trkpt><trkpt lat="44.6486988" lon="11.6937184"><ele>5.0</ele><time>2026-04-04T06:46:18.93Z</time></trkpt><trkpt lat="44.6485272" lon="11.693533"><ele>5.0</ele><time>2026-04-04T06:46:19.928Z</time></trkpt><trkpt lat="44.6483539" lon="11.6933488"><ele>4.0</ele><time>2026-04-04T06:46:20.929Z</time></trkpt><trkpt lat="44.64818" lon="11.6931644"><ele>3.0</ele><time>2026-04-04T06:46:21.928Z</time></trkpt><trkpt lat="44.648007" lon="11.6929796"><ele>2.0</ele><time>2026-04-04T06:46:22.929Z</time></trkpt><trkpt lat="44.6478358" lon="11.6927951"><ele>2.6666666666666665</ele><time>2026-04-04T06:46:23.929Z</time></trkpt><trkpt lat="44.6476634" lon="11.6926114"><ele>3.333333333333333</ele><time>2026-04-04T06:46:24.93Z</time></trkpt><trkpt lat="44.6474907" lon="11.6924251"><ele>4.0</ele><time>2026-04-04T06:46:25.93Z</time></trkpt><trkpt lat="44.6473172" lon="11.6922425"><ele>4.0</ele><time>2026-04-04T06:46:26.93Z</time></trkpt><trkpt lat="44.6471353" lon="11.6920763"><ele>4.0</ele><time>2026-04-04T06:46:27.93Z</time></trkpt><trkpt lat="44.6469438" lon="11.6919324"><ele>4.0</ele><time>2026-04-04T06:46:28.93Z</time></trkpt><trkpt lat="44.6467431" lon="11.6918168"><ele>4.0</ele><time>2026-04-04T06:46:29.93Z</time></trkpt><trkpt lat="44.646538" lon="11.6917198"><ele>4.0</ele><time>2026-04-04T06:46:30.93Z</time></trkpt><trkpt lat="44.6463317" lon="11.6916396"><ele>4.0</ele><time>2026-04-04T06:46:31.929Z</time></trkpt><trkpt lat="44.6461212" lon="11.691575"><ele>3.6666666666666665</ele><time>2026-04-04T06:46:32.928Z</time></trkpt><trkpt lat="44.6459091" lon="11.691531"><ele>3.333333333333333</ele><time>2026-04-04T06:46:33.928Z</time></trkpt><trkpt lat="44.6456944" lon="11.6914937"><ele>3.0</ele><time>2026-04-04T06:46:34.929Z</time></trkpt><trkpt lat="44.6454817" lon="11.6914514"><ele>2.6666666666666665</ele><time>2026-04-04T06:46:35.929Z</time></trkpt><trkpt lat="44.6452707" lon="11.6913925"><ele>2.333333333333333</ele><time>2026-04-04T06:46:36.93Z</time></trkpt><trkpt lat="44.6450641" lon="11.6913162"><ele>2.0</ele><time>2026-04-04T06:46:37.929Z</time></trkpt><trkpt lat="44.6448571" lon="11.6912298"><ele>2.0</ele><time>2026-04-04T06:46:38.929Z</time></trkpt><trkpt lat="44.6446514" lon="11.6911442"><ele>2.0</ele><time>2026-04-04T06:46:39.928Z</time></trkpt><trkpt lat="44.6444442" lon="11.6910611"><ele>2.0</ele><time>2026-04-04T06:46:40.929Z</time></trkpt><trkpt lat="44.6442322" lon="11.6909854"><ele>2.333333333333333</ele><time>2026-04-04T06:46:41.928Z</time></trkpt><trkpt lat="44.6440192" lon="11.6909222"><ele>2.6666666666666665</ele><time>2026-04-04T06:46:42.929Z</time></trkpt><trkpt lat="44.6438048" lon="11.6908684"><ele>3.0</ele><time>2026-04-04T06:46:43.929Z</time></trkpt><trkpt lat="44.6435886" lon="11.690819"><ele>3.0</ele><time>2026-04-04T06:46:44.929Z</time></trkpt><trkpt lat="44.6433709" lon="11.6907701"><ele>3.0</ele><time>2026-04-04T06:46:45.928Z</time></trkpt><trkpt lat="44.6431533" lon="11.6907233"><ele>3.0</ele><time>2026-04-04T06:46:46.929Z</time></trkpt><trkpt lat="44.6429346" lon="11.6906804"><ele>3.666666666666667</ele><time>2026-04-04T06:46:47.929Z</time></trkpt><trkpt lat="44.6427147" lon="11.6906437"><ele>4.333333333333334</ele><time>2026-04-04T06:46:48.929Z</time></trkpt><trkpt lat="44.6424929" lon="11.6906257"><ele>5.0</ele><time>2026-04-04T06:46:49.928Z</time></trkpt><trkpt lat="44.6422712" lon="11.6906161"><ele>5.0</ele><time>2026-04-04T06:46:50.929Z</time></trkpt><trkpt lat="44.6420516" lon="11.6905845"><ele>5.0</ele><time>2026-04-04T06:46:51.928Z</time></trkpt><trkpt lat="44.6418335" lon="11.6905251"><ele>5.0</ele><time>2026-04-04T06:46:52.93Z</time></trkpt><trkpt lat="44.641618" lon="11.6904564"><ele>4.0</ele><time>2026-04-04T06:46:53.929Z</time></trkpt><trkpt lat="44.6413997" lon="11.6904064"><ele>3.0</ele><time>2026-04-04T06:46:54.93Z</time></trkpt><trkpt lat="44.641179" lon="11.6903777"><ele>2.0</ele><time>2026-04-04T06:46:55.928Z</time></trkpt><trkpt lat="44.6409575" lon="11.6903554"><ele>2.0</ele><time>2026-04-04T06:46:56.93Z</time></trkpt><trkpt lat="44.6407348" lon="11.6903372"><ele>2.0</ele><time>2026-04-04T06:46:57.928Z</time></trkpt><trkpt lat="44.6405135" lon="11.6903382"><ele>2.0</ele><time>2026-04-04T06:46:58.93Z</time></trkpt><trkpt lat="44.6402919" lon="11.6903678"><ele>2.333333333333333</ele><time>2026-04-04T06:46:59.929Z</time></trkpt><trkpt lat="44.6400752" lon="11.6904206"><ele>2.6666666666666665</ele><time>2026-04-04T06:47:00.929Z</time></trkpt><trkpt lat="44.639866" lon="11.6904937"><ele>3.0</ele><time>2026-04-04T06:47:01.928Z</time></trkpt><trkpt lat="44.6396625" lon="11.6905783"><ele>3.0</ele><time>2026-04-04T06:47:02.93Z</time></trkpt><trkpt lat="44.6394717" lon="11.6906559"><ele>3.0</ele><time>2026-04-04T06:47:03.93Z</time></trkpt><trkpt lat="44.6392966" lon="11.6907355"><ele>3.0</ele><time>2026-04-04T06:47:04.93Z</time></trkpt><trkpt lat="44.6391427" lon="11.690806"><ele>3.25</ele><time>2026-04-04T06:47:05.929Z</time></trkpt><trkpt lat="44.6389964" lon="11.6908637"><ele>3.5</ele><time>2026-04-04T06:47:06.928Z</time></trkpt><trkpt lat="44.6388564" lon="11.6908686"><ele>3.75</ele><time>2026-04-04T06:47:07.928Z</time></trkpt><trkpt lat="44.6387309" lon="11.6908258"><ele>4.0</ele><time>2026-04-04T06:47:08.93Z</time></trkpt><trkpt lat="44.6386183" lon="11.6907304"><ele>4.666666666666666</ele><time>2026-04-04T06:47:09.929Z</time></trkpt><trkpt lat="44.6385243" lon="11.6905892"><ele>5.333333333333333</ele><time>2026-04-04T06:47:10.93Z</time></trkpt><trkpt lat="44.638427" lon="11.6904201"><ele>6.0</ele><time>2026-04-04T06:47:11.929Z</time></trkpt><trkpt lat="44.6383229" lon="11.6902403"><ele>6.0</ele><time>2026-04-04T06:47:12.928Z</time></trkpt><trkpt lat="44.6382219" lon="11.6900699"><ele>6.0</ele><time>2026-04-04T06:47:13.93Z</time></trkpt><trkpt lat="44.6381299" lon="11.6899112"><ele>6.0</ele><time>2026-04-04T06:47:14.929Z</time></trkpt><trkpt lat="44.6380623" lon="11.6897413"><ele>6.0</ele><time>2026-04-04T06:47:15.93Z</time></trkpt><trkpt lat="44.6380217" lon="11.6895482"><ele>6.333333333333334</ele><time>2026-04-04T06:47:16.929Z</time></trkpt><trkpt lat="44.6380146" lon="11.6893334"><ele>6.666666666666667</ele><time>2026-04-04T06:47:17.928Z</time></trkpt><trkpt lat="44.6380384" lon="11.6891052"><ele>7.0</ele><time>2026-04-04T06:47:18.929Z</time></trkpt><trkpt lat="44.6380899" lon="11.6888674"><ele>7.0</ele><time>2026-04-04T06:47:19.929Z</time></trkpt><trkpt lat="44.6381484" lon="11.6886133"><ele>7.0</ele><time>2026-04-04T06:47:20.929Z</time></trkpt><trkpt lat="44.6382087" lon="11.688349"><ele>7.0</ele><time>2026-04-04T06:47:21.93Z</time></trkpt><trkpt lat="44.6382734" lon="11.6880694"><ele>7.0</ele><time>2026-04-04T06:47:22.93Z</time></trkpt><trkpt lat="44.6383424" lon="11.6877706"><ele>7.0</ele><time>2026-04-04T06:47:23.93Z</time></trkpt><trkpt lat="44.6384155" lon="11.6874572"><ele>7.0</ele><time>2026-04-04T06:47:24.928Z</time></trkpt><trkpt lat="44.6384867" lon="11.6871429"><ele>7.0</ele><time>2026-04-04T06:47:25.928Z</time></trkpt><trkpt lat="44.6385611" lon="11.6868196"><ele>7.0</ele><time>2026-04-04T06:47:26.93Z</time></trkpt><trkpt lat="44.6386337" lon="11.6865045"><ele>7.0</ele><time>2026-04-04T06:47:27.929Z</time></trkpt><trkpt lat="44.6387058" lon="11.6862213"><ele>6.333333333333334</ele><time>2026-04-04T06:47:28.929Z</time></trkpt><trkpt lat="44.6387727" lon="11.6859727"><ele>5.666666666666667</ele><time>2026-04-04T06:47:29.93Z</time></trkpt><trkpt lat="44.6388369" lon="11.6857624"><ele>5.0</ele><time>2026-04-04T06:47:30.929Z</time></trkpt><trkpt lat="44.6388979" lon="11.6855822"><ele>5.0</ele><time>2026-04-04T06:47:31.929Z</time></trkpt><trkpt lat="44.6389427" lon="11.6854325"><ele>5.0</ele><time>2026-04-04T06:47:32.93Z</time></trkpt><trkpt lat="44.6389451" lon="11.6853138"><ele>5.0</ele><time>2026-04-04T06:47:33.93Z</time></trkpt><trkpt lat="44.6389133" lon="11.68521"><ele>5.0</ele><time>2026-04-04T06:47:34.929Z</time></trkpt><trkpt lat="44.6388477" lon="11.6851081"><ele>5.0</ele><time>2026-04-04T06:47:35.93Z</time></trkpt><trkpt lat="44.6387641" lon="11.6849899"><ele>5.0</ele><time>2026-04-04T06:47:36.93Z</time></trkpt><trkpt lat="44.6386675" lon="11.6848394"><ele>5.0</ele><time>2026-04-04T06:47:37.93Z</time></trkpt><trkpt lat="44.6385532" lon="11.6846672"><ele>5.0</ele><time>2026-04-04T06:47:38.929Z</time></trkpt><trkpt lat="44.6384291" lon="11.6844852"><ele>6.0</ele><time>2026-04-04T06:47:39.929Z</time></trkpt><trkpt lat="44.6382954" lon="11.6842906"><ele>7.0</ele><time>2026-04-04T06:47:40.93Z</time></trkpt><trkpt lat="44.638151" lon="11.6840782"><ele>8.0</ele><time>2026-04-04T06:47:41.929Z</time></trkpt><trkpt lat="44.6379924" lon="11.6838527"><ele>8.0</ele><time>2026-04-04T06:47:42.93Z</time></trkpt><trkpt lat="44.6378294" lon="11.6836193"><ele>8.0</ele><time>2026-04-04T06:47:43.93Z</time></trkpt><trkpt lat="44.6376568" lon="11.6833706"><ele>9.5</ele><time>2026-04-04T06:47:44.93Z</time></trkpt><trkpt lat="44.637476" lon="11.6831122"><ele>11.0</ele><time>2026-04-04T06:47:45.93Z</time></trkpt><trkpt lat="44.6372868" lon="11.6828452"><ele>11.0</ele><time>2026-04-04T06:47:46.93Z</time></trkpt><trkpt lat="44.6370941" lon="11.6825704"><ele>11.0</ele><time>2026-04-04T06:47:47.929Z</time></trkpt><trkpt lat="44.6369092" lon="11.6823076"><ele>11.0</ele><time>2026-04-04T06:47:48.929Z</time></trkpt><trkpt lat="44.636732" lon="11.6820468"><ele>11.0</ele><time>2026-04-04T06:47:49.93Z</time></trkpt><trkpt lat="44.636563" lon="11.6817921"><ele>10.5</ele><time>2026-04-04T06:47:50.929Z</time></trkpt><trkpt lat="44.6364022" lon="11.6815377"><ele>10.0</ele><time>2026-04-04T06:47:51.929Z</time></trkpt><trkpt lat="44.6362483" lon="11.6812834"><ele>8.0</ele><time>2026-04-04T06:47:52.93Z</time></trkpt><trkpt lat="44.6360986" lon="11.6810328"><ele>6.0</ele><time>2026-04-04T06:47:53.928Z</time></trkpt><trkpt lat="44.6359555" lon="11.6807729"><ele>6.0</ele><time>2026-04-04T06:47:54.93Z</time></trkpt><trkpt lat="44.6358093" lon="11.6805133"><ele>6.0</ele><time>2026-04-04T06:47:55.93Z</time></trkpt><trkpt lat="44.6356594" lon="11.6802487"><ele>5.5</ele><time>2026-04-04T06:47:56.929Z</time></trkpt><trkpt lat="44.635507" lon="11.6799752"><ele>5.0</ele><time>2026-04-04T06:47:57.929Z</time></trkpt><trkpt lat="44.6353509" lon="11.6796944"><ele>4.5</ele><time>2026-04-04T06:47:58.93Z</time></trkpt><trkpt lat="44.6351948" lon="11.6794097"><ele>4.0</ele><time>2026-04-04T06:47:59.929Z</time></trkpt><trkpt lat="44.6350354" lon="11.6791255"><ele>4.0</ele><time>2026-04-04T06:48:00.928Z</time></trkpt><trkpt lat="44.6348772" lon="11.6788407"><ele>4.0</ele><time>2026-04-04T06:48:01.929Z</time></trkpt><trkpt lat="44.6347183" lon="11.678557"><ele>4.0</ele><time>2026-04-04T06:48:02.929Z</time></trkpt><trkpt lat="44.6345592" lon="11.6782748"><ele>4.0</ele><time>2026-04-04T06:48:03.929Z</time></trkpt><trkpt lat="44.6344006" lon="11.6779929"><ele>4.5</ele><time>2026-04-04T06:48:04.928Z</time></trkpt><trkpt lat="44.6342446" lon="11.6777105"><ele>5.0</ele><time>2026-04-04T06:48:05.929Z</time></trkpt><trkpt lat="44.6340892" lon="11.6774289"><ele>5.0</ele><time>2026-04-04T06:48:06.929Z</time></trkpt><trkpt lat="44.633936" lon="11.6771493"><ele>5.0</ele><time>2026-04-04T06:48:07.93Z</time></trkpt><trkpt lat="44.6337819" lon="11.6768733"><ele>5.0</ele><time>2026-04-04T06:48:08.93Z</time></trkpt><trkpt lat="44.6336285" lon="11.6765989"><ele>5.0</ele><time>2026-04-04T06:48:09.929Z</time></trkpt><trkpt lat="44.6334762" lon="11.6763285"><ele>5.0</ele><time>2026-04-04T06:48:10.927Z</time></trkpt><trkpt lat="44.6333239" lon="11.6760592"><ele>5.0</ele><time>2026-04-04T06:48:11.928Z</time></trkpt><trkpt lat="44.6331735" lon="11.6757907"><ele>5.0</ele><time>2026-04-04T06:48:12.929Z</time></trkpt><trkpt lat="44.6330249" lon="11.6755278"><ele>5.0</ele><time>2026-04-04T06:48:13.929Z</time></trkpt><trkpt lat="44.6328895" lon="11.6752848"><ele>6.333333333333334</ele><time>2026-04-04T06:48:14.929Z</time></trkpt><trkpt lat="44.6327598" lon="11.6750608"><ele>7.666666666666667</ele><time>2026-04-04T06:48:15.928Z</time></trkpt><trkpt lat="44.6326433" lon="11.6748508"><ele>9.0</ele><time>2026-04-04T06:48:16.928Z</time></trkpt><trkpt lat="44.6325452" lon="11.6746595"><ele>9.0</ele><time>2026-04-04T06:48:17.928Z</time></trkpt><trkpt lat="44.6324737" lon="11.6744953"><ele>9.0</ele><time>2026-04-04T06:48:18.928Z</time></trkpt><trkpt lat="44.6324303" lon="11.6743682"><ele>9.0</ele><time>2026-04-04T06:48:19.928Z</time></trkpt><trkpt lat="44.6324048" lon="11.6742681"><ele>9.0</ele><time>2026-04-04T06:48:20.928Z</time></trkpt><trkpt lat="44.6323889" lon="11.6741301"><ele>9.0</ele><time>2026-04-04T06:48:22.928Z</time></trkpt><trkpt lat="44.6323631" lon="11.6740028"><ele>9.2</ele><time>2026-04-04T06:48:24.929Z</time></trkpt><trkpt lat="44.6322905" lon="11.6740109"><ele>9.4</ele><time>2026-04-04T06:48:25.928Z</time></trkpt><trkpt lat="44.6322229" lon="11.6740548"><ele>9.6</ele><time>2026-04-04T06:48:26.927Z</time></trkpt><trkpt lat="44.6321562" lon="11.6741283"><ele>9.8</ele><time>2026-04-04T06:48:27.929Z</time></trkpt><trkpt lat="44.6320698" lon="11.674225"><ele>10.0</ele><time>2026-04-04T06:48:28.929Z</time></trkpt><trkpt lat="44.6319745" lon="11.6743478"><ele>10.333333333333334</ele><time>2026-04-04T06:48:29.929Z</time></trkpt><trkpt lat="44.631877" lon="11.6744799"><ele>10.666666666666666</ele><time>2026-04-04T06:48:30.929Z</time></trkpt><trkpt lat="44.6317528" lon="11.6746121"><ele>11.0</ele><time>2026-04-04T06:48:31.927Z</time></trkpt><trkpt lat="44.6316061" lon="11.6747891"><ele>11.0</ele><time>2026-04-04T06:48:32.928Z</time></trkpt><trkpt lat="44.6314732" lon="11.67495"><ele>11.0</ele><time>2026-04-04T06:48:33.929Z</time></trkpt><trkpt lat="44.6313126" lon="11.6751508"><ele>11.0</ele><time>2026-04-04T06:48:34.928Z</time></trkpt><trkpt lat="44.6311547" lon="11.6753442"><ele>10.666666666666666</ele><time>2026-04-04T06:48:35.929Z</time></trkpt><trkpt lat="44.6309828" lon="11.675541"><ele>10.333333333333334</ele><time>2026-04-04T06:48:36.928Z</time></trkpt><trkpt lat="44.6308166" lon="11.6757266"><ele>10.0</ele><time>2026-04-04T06:48:37.929Z</time></trkpt><trkpt lat="44.6306477" lon="11.6759083"><ele>10.0</ele><time>2026-04-04T06:48:38.929Z</time></trkpt><trkpt lat="44.6304764" lon="11.6760809"><ele>10.0</ele><time>2026-04-04T06:48:39.928Z</time></trkpt><trkpt lat="44.6303038" lon="11.6762419"><ele>10.0</ele><time>2026-04-04T06:48:40.929Z</time></trkpt><trkpt lat="44.6301402" lon="11.6763966"><ele>10.0</ele><time>2026-04-04T06:48:41.928Z</time></trkpt><trkpt lat="44.6299825" lon="11.6765553"><ele>10.0</ele><time>2026-04-04T06:48:42.928Z</time></trkpt><trkpt lat="44.6298359" lon="11.6767184"><ele>10.0</ele><time>2026-04-04T06:48:43.928Z</time></trkpt><trkpt lat="44.6297027" lon="11.6768986"><ele>9.666666666666668</ele><time>2026-04-04T06:48:44.929Z</time></trkpt><trkpt lat="44.6295801" lon="11.677083"><ele>9.333333333333334</ele><time>2026-04-04T06:48:45.929Z</time></trkpt><trkpt lat="44.6294684" lon="11.6772864"><ele>9.0</ele><time>2026-04-04T06:48:46.929Z</time></trkpt><trkpt lat="44.6293649" lon="11.6775179"><ele>8.333333333333334</ele><time>2026-04-04T06:48:47.928Z</time></trkpt><trkpt lat="44.6292689" lon="11.6777743"><ele>7.666666666666667</ele><time>2026-04-04T06:48:48.928Z</time></trkpt><trkpt lat="44.6291784" lon="11.6780534"><ele>7.0</ele><time>2026-04-04T06:48:49.929Z</time></trkpt><trkpt lat="44.6290942" lon="11.678341"><ele>6.666666666666667</ele><time>2026-04-04T06:48:50.927Z</time></trkpt><trkpt lat="44.6290073" lon="11.6786065"><ele>6.333333333333334</ele><time>2026-04-04T06:48:51.928Z</time></trkpt><trkpt lat="44.6289048" lon="11.6788712"><ele>6.0</ele><time>2026-04-04T06:48:52.928Z</time></trkpt><trkpt lat="44.6287822" lon="11.679128"><ele>5.5</ele><time>2026-04-04T06:48:53.929Z</time></trkpt><trkpt lat="44.6286421" lon="11.6793863"><ele>5.0</ele><time>2026-04-04T06:48:54.927Z</time></trkpt><trkpt lat="44.6284955" lon="11.6796492"><ele>6.0</ele><time>2026-04-04T06:48:55.928Z</time></trkpt><trkpt lat="44.6283403" lon="11.6799232"><ele>7.0</ele><time>2026-04-04T06:48:56.929Z</time></trkpt><trkpt lat="44.6281826" lon="11.6802053"><ele>6.5</ele><time>2026-04-04T06:48:57.929Z</time></trkpt><trkpt lat="44.6280205" lon="11.6804941"><ele>6.0</ele><time>2026-04-04T06:48:58.929Z</time></trkpt><trkpt lat="44.6278577" lon="11.6807876"><ele>6.0</ele><time>2026-04-04T06:48:59.929Z</time></trkpt><trkpt lat="44.6276979" lon="11.6810879"><ele>6.0</ele><time>2026-04-04T06:49:00.929Z</time></trkpt><trkpt lat="44.6275475" lon="11.6813909"><ele>6.0</ele><time>2026-04-04T06:49:01.929Z</time></trkpt><trkpt lat="44.6274035" lon="11.6817082"><ele>6.0</ele><time>2026-04-04T06:49:02.928Z</time></trkpt><trkpt lat="44.6272632" lon="11.6820313"><ele>6.0</ele><time>2026-04-04T06:49:03.928Z</time></trkpt><trkpt lat="44.627126" lon="11.6823552"><ele>6.0</ele><time>2026-04-04T06:49:04.929Z</time></trkpt><trkpt lat="44.6269839" lon="11.6826773"><ele>6.5</ele><time>2026-04-04T06:49:05.929Z</time></trkpt><trkpt lat="44.6268453" lon="11.6829966"><ele>7.0</ele><time>2026-04-04T06:49:06.928Z</time></trkpt><trkpt lat="44.6267054" lon="11.6833117"><ele>6.5</ele><time>2026-04-04T06:49:07.928Z</time></trkpt><trkpt lat="44.6265621" lon="11.6836199"><ele>6.0</ele><time>2026-04-04T06:49:08.928Z</time></trkpt><trkpt lat="44.6264121" lon="11.6839176"><ele>6.0</ele><time>2026-04-04T06:49:09.928Z</time></trkpt><trkpt lat="44.6262654" lon="11.6842067"><ele>6.0</ele><time>2026-04-04T06:49:10.928Z</time></trkpt><trkpt lat="44.626123" lon="11.6844966"><ele>5.0</ele><time>2026-04-04T06:49:11.928Z</time></trkpt><trkpt lat="44.6259861" lon="11.6847847"><ele>4.0</ele><time>2026-04-04T06:49:12.928Z</time></trkpt><trkpt lat="44.6258577" lon="11.6850757"><ele>5.0</ele><time>2026-04-04T06:49:13.929Z</time></trkpt><trkpt lat="44.6257384" lon="11.6853697"><ele>6.0</ele><time>2026-04-04T06:49:14.929Z</time></trkpt><trkpt lat="44.6256252" lon="11.6856626"><ele>6.0</ele><time>2026-04-04T06:49:15.928Z</time></trkpt><trkpt lat="44.6255071" lon="11.685948"><ele>6.0</ele><time>2026-04-04T06:49:16.929Z</time></trkpt><trkpt lat="44.6253822" lon="11.6862275"><ele>6.0</ele><time>2026-04-04T06:49:17.929Z</time></trkpt><trkpt lat="44.6252553" lon="11.686496"><ele>6.0</ele><time>2026-04-04T06:49:18.927Z</time></trkpt><trkpt lat="44.6251268" lon="11.6867526"><ele>5.666666666666667</ele><time>2026-04-04T06:49:19.928Z</time></trkpt><trkpt lat="44.6250062" lon="11.6869798"><ele>5.333333333333334</ele><time>2026-04-04T06:49:20.928Z</time></trkpt><trkpt lat="44.6249001" lon="11.6871692"><ele>5.0</ele><time>2026-04-04T06:49:21.928Z</time></trkpt><trkpt lat="44.6248079" lon="11.6873235"><ele>5.0</ele><time>2026-04-04T06:49:22.928Z</time></trkpt><trkpt lat="44.624728" lon="11.6874332"><ele>5.0</ele><time>2026-04-04T06:49:23.929Z</time></trkpt><trkpt lat="44.6246422" lon="11.6874809"><ele>5.0</ele><time>2026-04-04T06:49:24.928Z</time></trkpt><trkpt lat="44.6245543" lon="11.6874779"><ele>5.0</ele><time>2026-04-04T06:49:25.929Z</time></trkpt><trkpt lat="44.6244594" lon="11.687412"><ele>5.0</ele><time>2026-04-04T06:49:26.929Z</time></trkpt><trkpt lat="44.6243513" lon="11.6873184"><ele>4.666666666666667</ele><time>2026-04-04T06:49:27.929Z</time></trkpt><trkpt lat="44.6242142" lon="11.6872272"><ele>4.333333333333333</ele><time>2026-04-04T06:49:28.928Z</time></trkpt><trkpt lat="44.6240478" lon="11.6871355"><ele>4.0</ele><time>2026-04-04T06:49:29.927Z</time></trkpt><trkpt lat="44.623872" lon="11.6870365"><ele>4.0</ele><time>2026-04-04T06:49:30.928Z</time></trkpt><trkpt lat="44.6236934" lon="11.6869363"><ele>4.0</ele><time>2026-04-04T06:49:31.927Z</time></trkpt><trkpt lat="44.6235408" lon="11.6868505"><ele>4.0</ele><time>2026-04-04T06:49:32.927Z</time></trkpt><trkpt lat="44.6234294" lon="11.6867867"><ele>3.9999999999999996</ele><time>2026-04-04T06:49:33.929Z</time></trkpt><trkpt lat="44.6233547" lon="11.6867366"><ele>4.0</ele><time>2026-04-04T06:49:34.929Z</time></trkpt><trkpt lat="44.6233055" lon="11.6866756"><ele>4.0</ele><time>2026-04-04T06:49:36.928Z</time></trkpt><trkpt lat="44.6232233" lon="11.6866601"><ele>4.0</ele><time>2026-04-04T06:54:06.929Z</time></trkpt><trkpt lat="44.6231559" lon="11.6866292"><ele>3.9999999999999996</ele><time>2026-04-04T06:54:07.928Z</time></trkpt><trkpt lat="44.6230787" lon="11.686585"><ele>4.0</ele><time>2026-04-04T06:54:08.928Z</time></trkpt><trkpt lat="44.6229889" lon="11.6865291"><ele>4.0</ele><time>2026-04-04T06:54:09.929Z</time></trkpt><trkpt lat="44.622885" lon="11.6864717"><ele>4.0</ele><time>2026-04-04T06:54:10.928Z</time></trkpt><trkpt lat="44.622773" lon="11.6864108"><ele>4.0</ele><time>2026-04-04T06:54:11.927Z</time></trkpt><trkpt lat="44.6226485" lon="11.6863457"><ele>4.0</ele><time>2026-04-04T06:54:12.928Z</time></trkpt><trkpt lat="44.6225102" lon="11.6862701"><ele>4.333333333333333</ele><time>2026-04-04T06:54:13.929Z</time></trkpt><trkpt lat="44.6223643" lon="11.6861907"><ele>4.666666666666667</ele><time>2026-04-04T06:54:14.929Z</time></trkpt><trkpt lat="44.6222085" lon="11.6861055"><ele>5.0</ele><time>2026-04-04T06:54:15.928Z</time></trkpt><trkpt lat="44.6220467" lon="11.6860111"><ele>4.333333333333334</ele><time>2026-04-04T06:54:16.928Z</time></trkpt><trkpt lat="44.6218724" lon="11.6859174"><ele>3.666666666666667</ele><time>2026-04-04T06:54:17.928Z</time></trkpt><trkpt lat="44.6216911" lon="11.6858178"><ele>3.0</ele><time>2026-04-04T06:54:18.928Z</time></trkpt><trkpt lat="44.6215034" lon="11.6857149"><ele>3.0</ele><time>2026-04-04T06:54:19.928Z</time></trkpt><trkpt lat="44.6213117" lon="11.6856041"><ele>3.0</ele><time>2026-04-04T06:54:20.929Z</time></trkpt><trkpt lat="44.6211138" lon="11.6854957"><ele>3.0</ele><time>2026-04-04T06:54:21.929Z</time></trkpt><trkpt lat="44.6209146" lon="11.6853841"><ele>3.0</ele><time>2026-04-04T06:54:22.928Z</time></trkpt><trkpt lat="44.6207098" lon="11.6852757"><ele>3.0</ele><time>2026-04-04T06:54:23.928Z</time></trkpt><trkpt lat="44.6204992" lon="11.6851643"><ele>3.0</ele><time>2026-04-04T06:54:24.928Z</time></trkpt><trkpt lat="44.6202875" lon="11.6850481"><ele>3.0</ele><time>2026-04-04T06:54:25.929Z</time></trkpt><trkpt lat="44.620073" lon="11.6849278"><ele>3.0</ele><time>2026-04-04T06:54:26.929Z</time></trkpt><trkpt lat="44.6198554" lon="11.6848099"><ele>3.0</ele><time>2026-04-04T06:54:27.929Z</time></trkpt><trkpt lat="44.6196387" lon="11.684691"><ele>3.0</ele><time>2026-04-04T06:54:28.929Z</time></trkpt><trkpt lat="44.6194251" lon="11.684574"><ele>3.0</ele><time>2026-04-04T06:54:29.929Z</time></trkpt><trkpt lat="44.6192175" lon="11.6844573"><ele>3.0</ele><time>2026-04-04T06:54:30.928Z</time></trkpt><trkpt lat="44.619015" lon="11.6843484"><ele>3.0</ele><time>2026-04-04T06:54:31.928Z</time></trkpt><trkpt lat="44.6188173" lon="11.6842468"><ele>4.333333333333334</ele><time>2026-04-04T06:54:32.928Z</time></trkpt><trkpt lat="44.6186308" lon="11.6841487"><ele>5.666666666666667</ele><time>2026-04-04T06:54:33.927Z</time></trkpt><trkpt lat="44.6184513" lon="11.6840491"><ele>7.0</ele><time>2026-04-04T06:54:34.928Z</time></trkpt><trkpt lat="44.6182825" lon="11.6839516"><ele>7.0</ele><time>2026-04-04T06:54:35.928Z</time></trkpt><trkpt lat="44.6181171" lon="11.6838595"><ele>7.0</ele><time>2026-04-04T06:54:36.927Z</time></trkpt><trkpt lat="44.6179602" lon="11.6837744"><ele>7.0</ele><time>2026-04-04T06:54:37.928Z</time></trkpt><trkpt lat="44.617813" lon="11.6836879"><ele>6.5</ele><time>2026-04-04T06:54:38.929Z</time></trkpt><trkpt lat="44.6176801" lon="11.6836051"><ele>6.0</ele><time>2026-04-04T06:54:39.929Z</time></trkpt><trkpt lat="44.6175626" lon="11.6835223"><ele>5.5</ele><time>2026-04-04T06:54:40.929Z</time></trkpt><trkpt lat="44.6174547" lon="11.683439"><ele>5.0</ele><time>2026-04-04T06:54:41.929Z</time></trkpt><trkpt lat="44.6173574" lon="11.6833507"><ele>5.0</ele><time>2026-04-04T06:54:42.929Z</time></trkpt><trkpt lat="44.6172771" lon="11.6832631"><ele>5.0</ele><time>2026-04-04T06:54:43.929Z</time></trkpt><trkpt lat="44.6172092" lon="11.6831916"><ele>5.0</ele><time>2026-04-04T06:54:44.928Z</time></trkpt><trkpt lat="44.6171429" lon="11.6831699"><ele>5.0</ele><time>2026-04-04T06:54:45.928Z</time></trkpt><trkpt lat="44.6170612" lon="11.6832586"><ele>5.0</ele><time>2026-04-04T06:54:47.927Z</time></trkpt><trkpt lat="44.6170402" lon="11.6833507"><ele>5.0</ele><time>2026-04-04T06:54:48.928Z</time></trkpt><trkpt lat="44.6170119" lon="11.6834665"><ele>5.5</ele><time>2026-04-04T06:54:49.928Z</time></trkpt><trkpt lat="44.6169725" lon="11.6836062"><ele>6.0</ele><time>2026-04-04T06:54:50.927Z</time></trkpt><trkpt lat="44.6169292" lon="11.6837805"><ele>6.5</ele><time>2026-04-04T06:54:51.928Z</time></trkpt><trkpt lat="44.616877" lon="11.6839779"><ele>7.0</ele><time>2026-04-04T06:54:52.927Z</time></trkpt><trkpt lat="44.6168168" lon="11.6842065"><ele>6.333333333333334</ele><time>2026-04-04T06:54:53.928Z</time></trkpt><trkpt lat="44.6167508" lon="11.6844626"><ele>5.666666666666667</ele><time>2026-04-04T06:54:54.929Z</time></trkpt><trkpt lat="44.6166806" lon="11.6847287"><ele>5.0</ele><time>2026-04-04T06:54:55.929Z</time></trkpt><trkpt lat="44.616605" lon="11.6850174"><ele>4.0</ele><time>2026-04-04T06:54:56.929Z</time></trkpt><trkpt lat="44.6165229" lon="11.6853219"><ele>3.0</ele><time>2026-04-04T06:54:57.929Z</time></trkpt><trkpt lat="44.6164378" lon="11.6856472"><ele>3.0</ele><time>2026-04-04T06:54:58.929Z</time></trkpt><trkpt lat="44.6163521" lon="11.6859793"><ele>3.0</ele><time>2026-04-04T06:54:59.929Z</time></trkpt><trkpt lat="44.6162665" lon="11.6863138"><ele>3.0</ele><time>2026-04-04T06:55:00.928Z</time></trkpt><trkpt lat="44.6161781" lon="11.6866574"><ele>3.0</ele><time>2026-04-04T06:55:01.928Z</time></trkpt><trkpt lat="44.6160871" lon="11.6870045"><ele>2.0</ele><time>2026-04-04T06:55:02.928Z</time></trkpt><trkpt lat="44.615994" lon="11.6873569"><ele>1.0</ele><time>2026-04-04T06:55:03.928Z</time></trkpt><trkpt lat="44.6158992" lon="11.687711"><ele>2.0</ele><time>2026-04-04T06:55:04.928Z</time></trkpt><trkpt lat="44.6158037" lon="11.6880694"><ele>3.0</ele><time>2026-04-04T06:55:05.928Z</time></trkpt><trkpt lat="44.6157081" lon="11.6884295"><ele>4.0</ele><time>2026-04-04T06:55:06.929Z</time></trkpt><trkpt lat="44.6156133" lon="11.6887914"><ele>5.0</ele><time>2026-04-04T06:55:07.929Z</time></trkpt><trkpt lat="44.6155147" lon="11.689155"><ele>4.0</ele><time>2026-04-04T06:55:08.929Z</time></trkpt><trkpt lat="44.6154148" lon="11.6895187"><ele>3.0</ele><time>2026-04-04T06:55:09.928Z</time></trkpt><trkpt lat="44.6153149" lon="11.6898844"><ele>3.0</ele><time>2026-04-04T06:55:10.928Z</time></trkpt><trkpt lat="44.6152154" lon="11.6902477"><ele>3.0</ele><time>2026-04-04T06:55:11.928Z</time></trkpt><trkpt lat="44.6151165" lon="11.690606"><ele>3.0</ele><time>2026-04-04T06:55:12.928Z</time></trkpt><trkpt lat="44.6150198" lon="11.6909597"><ele>3.0</ele><time>2026-04-04T06:55:13.928Z</time></trkpt><trkpt lat="44.614923" lon="11.6913083"><ele>3.0</ele><time>2026-04-04T06:55:14.927Z</time></trkpt><trkpt lat="44.614828" lon="11.6916522"><ele>3.0</ele><time>2026-04-04T06:55:15.929Z</time></trkpt><trkpt lat="44.6147354" lon="11.6919927"><ele>3.0</ele><time>2026-04-04T06:55:16.928Z</time></trkpt><trkpt lat="44.6146438" lon="11.6923253"><ele>3.0</ele><time>2026-04-04T06:55:17.929Z</time></trkpt><trkpt lat="44.6145507" lon="11.6926559"><ele>2.5</ele><time>2026-04-04T06:55:18.929Z</time></trkpt><trkpt lat="44.6144576" lon="11.6929822"><ele>2.0</ele><time>2026-04-04T06:55:19.929Z</time></trkpt><trkpt lat="44.6143674" lon="11.6933044"><ele>3.0</ele><time>2026-04-04T06:55:20.929Z</time></trkpt><trkpt lat="44.6142801" lon="11.6936072"><ele>4.0</ele><time>2026-04-04T06:55:21.928Z</time></trkpt><trkpt lat="44.6142008" lon="11.6938917"><ele>4.0</ele><time>2026-04-04T06:55:22.929Z</time></trkpt><trkpt lat="44.6141264" lon="11.6941514"><ele>4.0</ele><time>2026-04-04T06:55:23.928Z</time></trkpt><trkpt lat="44.6140477" lon="11.6943821"><ele>4.0</ele><time>2026-04-04T06:55:24.928Z</time></trkpt><trkpt lat="44.6139532" lon="11.694568"><ele>4.0</ele><time>2026-04-04T06:55:25.928Z</time></trkpt><trkpt lat="44.613857" lon="11.6946953"><ele>4.0</ele><time>2026-04-04T06:55:26.928Z</time></trkpt><trkpt lat="44.613751" lon="11.6947672"><ele>4.0</ele><time>2026-04-04T06:55:27.928Z</time></trkpt><trkpt lat="44.6136352" lon="11.6947925"><ele>4.0</ele><time>2026-04-04T06:55:28.928Z</time></trkpt><trkpt lat="44.6135071" lon="11.6947679"><ele>4.0</ele><time>2026-04-04T06:55:29.928Z</time></trkpt><trkpt lat="44.6133665" lon="11.6947178"><ele>4.0</ele><time>2026-04-04T06:55:30.929Z</time></trkpt><trkpt lat="44.6132067" lon="11.6946591"><ele>4.0</ele><time>2026-04-04T06:55:31.929Z</time></trkpt><trkpt lat="44.6130283" lon="11.6945934"><ele>4.0</ele><time>2026-04-04T06:55:32.928Z</time></trkpt><trkpt lat="44.6128403" lon="11.6945221"><ele>4.0</ele><time>2026-04-04T06:55:33.928Z</time></trkpt><trkpt lat="44.6126425" lon="11.6944491"><ele>4.0</ele><time>2026-04-04T06:55:34.928Z</time></trkpt><trkpt lat="44.6124483" lon="11.6943759"><ele>4.333333333333333</ele><time>2026-04-04T06:55:35.928Z</time></trkpt><trkpt lat="44.6122594" lon="11.6943051"><ele>4.666666666666667</ele><time>2026-04-04T06:55:36.928Z</time></trkpt><trkpt lat="44.6120853" lon="11.6942448"><ele>5.0</ele><time>2026-04-04T06:55:37.928Z</time></trkpt><trkpt lat="44.6119239" lon="11.6941912"><ele>5.0</ele><time>2026-04-04T06:55:38.927Z</time></trkpt><trkpt lat="44.611773" lon="11.6941599"><ele>5.0</ele><time>2026-04-04T06:55:39.928Z</time></trkpt><trkpt lat="44.6116186" lon="11.6941667"><ele>5.0</ele><time>2026-04-04T06:55:40.927Z</time></trkpt><trkpt lat="44.6114609" lon="11.6942244"><ele>5.0</ele><time>2026-04-04T06:55:41.929Z</time></trkpt><trkpt lat="44.6112999" lon="11.6943353"><ele>5.0</ele><time>2026-04-04T06:55:42.929Z</time></trkpt><trkpt lat="44.6111402" lon="11.6944915"><ele>5.0</ele><time>2026-04-04T06:55:43.929Z</time></trkpt><trkpt lat="44.6109732" lon="11.6946725"><ele>4.666666666666667</ele><time>2026-04-04T06:55:44.928Z</time></trkpt><trkpt lat="44.6107955" lon="11.6948558"><ele>4.333333333333333</ele><time>2026-04-04T06:55:45.927Z</time></trkpt><trkpt lat="44.6106158" lon="11.6950541"><ele>4.0</ele><time>2026-04-04T06:55:46.929Z</time></trkpt><trkpt lat="44.6104339" lon="11.6952652"><ele>3.0</ele><time>2026-04-04T06:55:47.929Z</time></trkpt><trkpt lat="44.6102477" lon="11.6954771"><ele>2.0</ele><time>2026-04-04T06:55:48.929Z</time></trkpt><trkpt lat="44.6100527" lon="11.6956935"><ele>2.0</ele><time>2026-04-04T06:55:49.929Z</time></trkpt><trkpt lat="44.6098529" lon="11.695917"><ele>2.0</ele><time>2026-04-04T06:55:50.929Z</time></trkpt><trkpt lat="44.609648" lon="11.696145"><ele>4.0</ele><time>2026-04-04T06:55:51.928Z</time></trkpt><trkpt lat="44.6094384" lon="11.6963796"><ele>6.0</ele><time>2026-04-04T06:55:52.927Z</time></trkpt><trkpt lat="44.609227" lon="11.6966207"><ele>6.0</ele><time>2026-04-04T06:55:53.928Z</time></trkpt><trkpt lat="44.6090138" lon="11.6968601"><ele>6.0</ele><time>2026-04-04T06:55:54.929Z</time></trkpt><trkpt lat="44.6088007" lon="11.6970957"><ele>5.0</ele><time>2026-04-04T06:55:55.929Z</time></trkpt><trkpt lat="44.6085888" lon="11.6973316"><ele>4.0</ele><time>2026-04-04T06:55:56.929Z</time></trkpt><trkpt lat="44.6083772" lon="11.697566"><ele>3.0</ele><time>2026-04-04T06:55:57.927Z</time></trkpt><trkpt lat="44.6081686" lon="11.6977974"><ele>2.0</ele><time>2026-04-04T06:55:58.927Z</time></trkpt><trkpt lat="44.6079621" lon="11.6980286"><ele>4.5</ele><time>2026-04-04T06:55:59.928Z</time></trkpt><trkpt lat="44.6077567" lon="11.6982581"><ele>7.0</ele><time>2026-04-04T06:56:00.929Z</time></trkpt><trkpt lat="44.6075515" lon="11.6984859"><ele>7.0</ele><time>2026-04-04T06:56:01.929Z</time></trkpt><trkpt lat="44.6073487" lon="11.6987131"><ele>7.0</ele><time>2026-04-04T06:56:02.929Z</time></trkpt><trkpt lat="44.6071473" lon="11.6989387"><ele>7.0</ele><time>2026-04-04T06:56:03.928Z</time></trkpt><trkpt lat="44.6069456" lon="11.6991637"><ele>7.0</ele><time>2026-04-04T06:56:04.929Z</time></trkpt><trkpt lat="44.6067451" lon="11.6993884"><ele>6.5</ele><time>2026-04-04T06:56:05.929Z</time></trkpt><trkpt lat="44.6065454" lon="11.6996124"><ele>6.0</ele><time>2026-04-04T06:56:06.929Z</time></trkpt><trkpt lat="44.6063473" lon="11.6998384"><ele>6.0</ele><time>2026-04-04T06:56:07.928Z</time></trkpt><trkpt lat="44.6061503" lon="11.7000645"><ele>6.0</ele><time>2026-04-04T06:56:08.928Z</time></trkpt><trkpt lat="44.6059522" lon="11.7002905"><ele>5.5</ele><time>2026-04-04T06:56:09.928Z</time></trkpt><trkpt lat="44.6057543" lon="11.7005159"><ele>5.0</ele><time>2026-04-04T06:56:10.927Z</time></trkpt><trkpt lat="44.6055566" lon="11.700742"><ele>5.0</ele><time>2026-04-04T06:56:11.928Z</time></trkpt><trkpt lat="44.6053577" lon="11.7009658"><ele>5.0</ele><time>2026-04-04T06:56:12.929Z</time></trkpt><trkpt lat="44.6051577" lon="11.7011887"><ele>5.0</ele><time>2026-04-04T06:56:13.929Z</time></trkpt><trkpt lat="44.6049594" lon="11.701411"><ele>5.0</ele><time>2026-04-04T06:56:14.929Z</time></trkpt><trkpt lat="44.6047613" lon="11.7016339"><ele>5.0</ele><time>2026-04-04T06:56:15.928Z</time></trkpt><trkpt lat="44.6045619" lon="11.7018555"><ele>5.0</ele><time>2026-04-04T06:56:16.928Z</time></trkpt><trkpt lat="44.6043641" lon="11.7020796"><ele>4.5</ele><time>2026-04-04T06:56:17.927Z</time></trkpt><trkpt lat="44.6041671" lon="11.7023049"><ele>4.0</ele><time>2026-04-04T06:56:18.928Z</time></trkpt><trkpt lat="44.6039699" lon="11.7025275"><ele>4.0</ele><time>2026-04-04T06:56:19.928Z</time></trkpt><trkpt lat="44.6037669" lon="11.7027406"><ele>4.0</ele><time>2026-04-04T06:56:20.928Z</time></trkpt><trkpt lat="44.6035582" lon="11.7029362"><ele>3.5</ele><time>2026-04-04T06:56:21.929Z</time></trkpt><trkpt lat="44.6033405" lon="11.7031134"><ele>3.0</ele><time>2026-04-04T06:56:22.928Z</time></trkpt><trkpt lat="44.6031234" lon="11.7032873"><ele>3.0</ele><time>2026-04-04T06:56:23.928Z</time></trkpt><trkpt lat="44.6029082" lon="11.7034642"><ele>3.0</ele><time>2026-04-04T06:56:24.928Z</time></trkpt><trkpt lat="44.6026929" lon="11.703641"><ele>3.0</ele><time>2026-04-04T06:56:25.928Z</time></trkpt><trkpt lat="44.6024789" lon="11.7038193"><ele>3.0</ele><time>2026-04-04T06:56:26.928Z</time></trkpt><trkpt lat="44.6022652" lon="11.7040012"><ele>3.0</ele><time>2026-04-04T06:56:27.928Z</time></trkpt><trkpt lat="44.6020579" lon="11.7041879"><ele>3.0</ele><time>2026-04-04T06:56:28.929Z</time></trkpt><trkpt lat="44.601863" lon="11.7043921"><ele>3.5</ele><time>2026-04-04T06:56:29.929Z</time></trkpt><trkpt lat="44.6016803" lon="11.7046228"><ele>4.0</ele><time>2026-04-04T06:56:30.929Z</time></trkpt><trkpt lat="44.6015029" lon="11.704873"><ele>4.0</ele><time>2026-04-04T06:56:31.928Z</time></trkpt><trkpt lat="44.6013306" lon="11.7051215"><ele>4.0</ele><time>2026-04-04T06:56:32.928Z</time></trkpt><trkpt lat="44.6011589" lon="11.7053686"><ele>4.0</ele><time>2026-04-04T06:56:33.928Z</time></trkpt><trkpt lat="44.6009869" lon="11.7056148"><ele>4.0</ele><time>2026-04-04T06:56:34.927Z</time></trkpt><trkpt lat="44.600818" lon="11.7058549"><ele>4.5</ele><time>2026-04-04T06:56:35.928Z</time></trkpt><trkpt lat="44.600664" lon="11.7061026"><ele>5.0</ele><time>2026-04-04T06:56:36.927Z</time></trkpt><trkpt lat="44.6005358" lon="11.7063682"><ele>5.0</ele><time>2026-04-04T06:56:37.928Z</time></trkpt><trkpt lat="44.6004298" lon="11.706656"><ele>5.0</ele><time>2026-04-04T06:56:38.928Z</time></trkpt><trkpt lat="44.6003378" lon="11.7069621"><ele>4.5</ele><time>2026-04-04T06:56:39.928Z</time></trkpt><trkpt lat="44.6002507" lon="11.7072842"><ele>4.0</ele><time>2026-04-04T06:56:40.928Z</time></trkpt><trkpt lat="44.6001619" lon="11.707611"><ele>4.0</ele><time>2026-04-04T06:56:41.928Z</time></trkpt><trkpt lat="44.600071" lon="11.7079386"><ele>4.0</ele><time>2026-04-04T06:56:42.928Z</time></trkpt><trkpt lat="44.599983" lon="11.7082668"><ele>4.0</ele><time>2026-04-04T06:56:43.927Z</time></trkpt><trkpt lat="44.5998958" lon="11.7085931"><ele>4.0</ele><time>2026-04-04T06:56:44.928Z</time></trkpt><trkpt lat="44.5998105" lon="11.7089169"><ele>4.0</ele><time>2026-04-04T06:56:45.928Z</time></trkpt><trkpt lat="44.5997274" lon="11.7092361"><ele>4.0</ele><time>2026-04-04T06:56:46.928Z</time></trkpt><trkpt lat="44.5996471" lon="11.709552"><ele>4.0</ele><time>2026-04-04T06:56:47.928Z</time></trkpt><trkpt lat="44.5995666" lon="11.7098607"><ele>4.0</ele><time>2026-04-04T06:56:48.927Z</time></trkpt><trkpt lat="44.5994883" lon="11.7101602"><ele>4.5</ele><time>2026-04-04T06:56:49.927Z</time></trkpt><trkpt lat="44.5994111" lon="11.7104553"><ele>5.0</ele><time>2026-04-04T06:56:50.927Z</time></trkpt><trkpt lat="44.5993321" lon="11.7107533"><ele>5.0</ele><time>2026-04-04T06:56:51.927Z</time></trkpt><trkpt lat="44.5992512" lon="11.7110554"><ele>5.0</ele><time>2026-04-04T06:56:52.927Z</time></trkpt><trkpt lat="44.5991672" lon="11.7113569"><ele>5.5</ele><time>2026-04-04T06:56:53.926Z</time></trkpt><trkpt lat="44.5990856" lon="11.7116598"><ele>6.0</ele><time>2026-04-04T06:56:54.926Z</time></trkpt><trkpt lat="44.5990094" lon="11.7119696"><ele>6.0</ele><time>2026-04-04T06:56:55.927Z</time></trkpt><trkpt lat="44.598941" lon="11.7122818"><ele>6.0</ele><time>2026-04-04T06:56:56.928Z</time></trkpt><trkpt lat="44.5988868" lon="11.712587"><ele>5.666666666666667</ele><time>2026-04-04T06:56:57.927Z</time></trkpt><trkpt lat="44.5988335" lon="11.7128739"><ele>5.333333333333334</ele><time>2026-04-04T06:56:58.928Z</time></trkpt><trkpt lat="44.5987651" lon="11.7131414"><ele>5.0</ele><time>2026-04-04T06:56:59.927Z</time></trkpt><trkpt lat="44.5986763" lon="11.7133923"><ele>4.666666666666667</ele><time>2026-04-04T06:57:00.927Z</time></trkpt><trkpt lat="44.5985766" lon="11.7136206"><ele>4.333333333333333</ele><time>2026-04-04T06:57:01.928Z</time></trkpt><trkpt lat="44.5984803" lon="11.7138092"><ele>4.0</ele><time>2026-04-04T06:57:02.927Z</time></trkpt><trkpt lat="44.598389" lon="11.71397"><ele>4.0</ele><time>2026-04-04T06:57:03.926Z</time></trkpt><trkpt lat="44.5983125" lon="11.7141001"><ele>4.0</ele><time>2026-04-04T06:57:04.928Z</time></trkpt><trkpt lat="44.5982428" lon="11.7141869"><ele>4.0</ele><time>2026-04-04T06:57:05.928Z</time></trkpt><trkpt lat="44.5981634" lon="11.7142147"><ele>4.0</ele><time>2026-04-04T06:57:06.928Z</time></trkpt><trkpt lat="44.5980865" lon="11.7141849"><ele>4.0</ele><time>2026-04-04T06:57:07.927Z</time></trkpt><trkpt lat="44.598002" lon="11.714127"><ele>4.0</ele><time>2026-04-04T06:57:08.927Z</time></trkpt><trkpt lat="44.5978955" lon="11.714056"><ele>4.0</ele><time>2026-04-04T06:57:09.928Z</time></trkpt><trkpt lat="44.5977656" lon="11.7139835"><ele>4.0</ele><time>2026-04-04T06:57:10.928Z</time></trkpt><trkpt lat="44.597616" lon="11.7138938"><ele>4.0</ele><time>2026-04-04T06:57:11.928Z</time></trkpt><trkpt lat="44.5974461" lon="11.7137938"><ele>4.666666666666666</ele><time>2026-04-04T06:57:12.927Z</time></trkpt><trkpt lat="44.5972685" lon="11.7136882"><ele>5.333333333333333</ele><time>2026-04-04T06:57:13.927Z</time></trkpt><trkpt lat="44.5970812" lon="11.7135794"><ele>6.0</ele><time>2026-04-04T06:57:14.928Z</time></trkpt><trkpt lat="44.5968797" lon="11.7134599"><ele>6.0</ele><time>2026-04-04T06:57:15.927Z</time></trkpt><trkpt lat="44.5966667" lon="11.713333"><ele>6.0</ele><time>2026-04-04T06:57:16.926Z</time></trkpt><trkpt lat="44.5964404" lon="11.7132049"><ele>6.0</ele><time>2026-04-04T06:57:17.928Z</time></trkpt><trkpt lat="44.5962111" lon="11.7130718"><ele>6.0</ele><time>2026-04-04T06:57:18.928Z</time></trkpt><trkpt lat="44.5959802" lon="11.7129373"><ele>6.0</ele><time>2026-04-04T06:57:19.928Z</time></trkpt><trkpt lat="44.5957432" lon="11.7127969"><ele>6.0</ele><time>2026-04-04T06:57:20.927Z</time></trkpt><trkpt lat="44.5955023" lon="11.7126554"><ele>5.0</ele><time>2026-04-04T06:57:21.928Z</time></trkpt><trkpt lat="44.5952555" lon="11.7125127"><ele>4.0</ele><time>2026-04-04T06:57:22.926Z</time></trkpt><trkpt lat="44.5950052" lon="11.7123669"><ele>4.0</ele><time>2026-04-04T06:57:23.926Z</time></trkpt><trkpt lat="44.5947713" lon="11.7122308"><ele>4.0</ele><time>2026-04-04T06:57:24.927Z</time></trkpt><trkpt lat="44.5945537" lon="11.712099"><ele>4.5</ele><time>2026-04-04T06:57:25.928Z</time></trkpt><trkpt lat="44.5943455" lon="11.711955"><ele>5.0</ele><time>2026-04-04T06:57:26.927Z</time></trkpt><trkpt lat="44.5941517" lon="11.7117867"><ele>5.0</ele><time>2026-04-04T06:57:27.928Z</time></trkpt><trkpt lat="44.5939662" lon="11.7115991"><ele>5.0</ele><time>2026-04-04T06:57:28.927Z</time></trkpt><trkpt lat="44.5937668" lon="11.7114258"><ele>5.0</ele><time>2026-04-04T06:57:29.928Z</time></trkpt><trkpt lat="44.5935498" lon="11.7112805"><ele>5.0</ele><time>2026-04-04T06:57:30.928Z</time></trkpt><trkpt lat="44.5933241" lon="11.7111426"><ele>5.0</ele><time>2026-04-04T06:57:31.927Z</time></trkpt><trkpt lat="44.5930918" lon="11.7110033"><ele>5.0</ele><time>2026-04-04T06:57:32.927Z</time></trkpt><trkpt lat="44.5928579" lon="11.7108615"><ele>5.5</ele><time>2026-04-04T06:57:33.926Z</time></trkpt><trkpt lat="44.5926184" lon="11.7107157"><ele>6.0</ele><time>2026-04-04T06:57:34.927Z</time></trkpt><trkpt lat="44.5923782" lon="11.7105741"><ele>6.0</ele><time>2026-04-04T06:57:35.926Z</time></trkpt><trkpt lat="44.5921338" lon="11.7104301"><ele>6.0</ele><time>2026-04-04T06:57:36.926Z</time></trkpt><trkpt lat="44.591889" lon="11.7102843"><ele>6.0</ele><time>2026-04-04T06:57:37.928Z</time></trkpt><trkpt lat="44.591646" lon="11.7101389"><ele>6.0</ele><time>2026-04-04T06:57:38.928Z</time></trkpt><trkpt lat="44.591403" lon="11.7099962"><ele>6.0</ele><time>2026-04-04T06:57:39.928Z</time></trkpt><trkpt lat="44.5911608" lon="11.7098534"><ele>6.0</ele><time>2026-04-04T06:57:40.928Z</time></trkpt><trkpt lat="44.5909185" lon="11.7097083"><ele>6.0</ele><time>2026-04-04T06:57:41.927Z</time></trkpt><trkpt lat="44.5906753" lon="11.7095647"><ele>6.0</ele><time>2026-04-04T06:57:42.928Z</time></trkpt><trkpt lat="44.5904322" lon="11.7094217"><ele>6.5</ele><time>2026-04-04T06:57:43.928Z</time></trkpt><trkpt lat="44.5901897" lon="11.7092809"><ele>7.0</ele><time>2026-04-04T06:57:44.927Z</time></trkpt><trkpt lat="44.5899516" lon="11.7091359"><ele>7.0</ele><time>2026-04-04T06:57:45.927Z</time></trkpt><trkpt lat="44.5897143" lon="11.7089931"><ele>7.0</ele><time>2026-04-04T06:57:46.927Z</time></trkpt><trkpt lat="44.5894775" lon="11.7088504"><ele>6.5</ele><time>2026-04-04T06:57:47.928Z</time></trkpt><trkpt lat="44.5892401" lon="11.7087103"><ele>6.0</ele><time>2026-04-04T06:57:48.928Z</time></trkpt><trkpt lat="44.5890036" lon="11.7085735"><ele>6.0</ele><time>2026-04-04T06:57:49.928Z</time></trkpt><trkpt lat="44.5887689" lon="11.7084343"><ele>6.0</ele><time>2026-04-04T06:57:50.927Z</time></trkpt><trkpt lat="44.5885351" lon="11.7082948"><ele>5.5</ele><time>2026-04-04T06:57:51.927Z</time></trkpt><trkpt lat="44.5883005" lon="11.7081566"><ele>5.0</ele><time>2026-04-04T06:57:52.927Z</time></trkpt><trkpt lat="44.588066" lon="11.7080183"><ele>5.5</ele><time>2026-04-04T06:57:53.927Z</time></trkpt><trkpt lat="44.5878323" lon="11.7078808"><ele>6.0</ele><time>2026-04-04T06:57:54.928Z</time></trkpt><trkpt lat="44.5875982" lon="11.7077439"><ele>5.5</ele><time>2026-04-04T06:57:55.926Z</time></trkpt><trkpt lat="44.5873663" lon="11.7076054"><ele>5.0</ele><time>2026-04-04T06:57:56.927Z</time></trkpt><trkpt lat="44.5871351" lon="11.7074709"><ele>5.5</ele><time>2026-04-04T06:57:57.927Z</time></trkpt><trkpt lat="44.5869042" lon="11.7073376"><ele>6.0</ele><time>2026-04-04T06:57:58.927Z</time></trkpt><trkpt lat="44.5866752" lon="11.707204"><ele>6.0</ele><time>2026-04-04T06:57:59.927Z</time></trkpt><trkpt lat="44.5864448" lon="11.707069"><ele>6.0</ele><time>2026-04-04T06:58:00.928Z</time></trkpt><trkpt lat="44.5862153" lon="11.7069349"><ele>6.0</ele><time>2026-04-04T06:58:01.928Z</time></trkpt><trkpt lat="44.5859871" lon="11.7067991"><ele>6.0</ele><time>2026-04-04T06:58:02.927Z</time></trkpt><trkpt lat="44.5857594" lon="11.7066642"><ele>6.0</ele><time>2026-04-04T06:58:03.927Z</time></trkpt><trkpt lat="44.5855324" lon="11.7065286"><ele>6.0</ele><time>2026-04-04T06:58:04.927Z</time></trkpt><trkpt lat="44.5853061" lon="11.706398"><ele>6.5</ele><time>2026-04-04T06:58:05.928Z</time></trkpt><trkpt lat="44.5850831" lon="11.7062683"><ele>7.0</ele><time>2026-04-04T06:58:06.928Z</time></trkpt><trkpt lat="44.5848604" lon="11.7061342"><ele>7.0</ele><time>2026-04-04T06:58:07.928Z</time></trkpt><trkpt lat="44.5846388" lon="11.7060007"><ele>7.0</ele><time>2026-04-04T06:58:08.927Z</time></trkpt><trkpt lat="44.5844216" lon="11.7058708"><ele>7.0</ele><time>2026-04-04T06:58:09.926Z</time></trkpt><trkpt lat="44.5842077" lon="11.7057429"><ele>7.0</ele><time>2026-04-04T06:58:10.927Z</time></trkpt><trkpt lat="44.5839957" lon="11.7056171"><ele>7.0</ele><time>2026-04-04T06:58:11.926Z</time></trkpt><trkpt lat="44.5837856" lon="11.7054934"><ele>7.0</ele><time>2026-04-04T06:58:12.927Z</time></trkpt><trkpt lat="44.5835788" lon="11.705374"><ele>7.0</ele><time>2026-04-04T06:58:13.927Z</time></trkpt><trkpt lat="44.5833729" lon="11.7052615"><ele>7.0</ele><time>2026-04-04T06:58:14.928Z</time></trkpt><trkpt lat="44.5831659" lon="11.7051574"><ele>7.0</ele><time>2026-04-04T06:58:15.928Z</time></trkpt><trkpt lat="44.5829571" lon="11.7050645"><ele>7.333333333333334</ele><time>2026-04-04T06:58:16.927Z</time></trkpt><trkpt lat="44.5827483" lon="11.7049806"><ele>7.666666666666666</ele><time>2026-04-04T06:58:17.928Z</time></trkpt><trkpt lat="44.5825374" lon="11.7049105"><ele>8.0</ele><time>2026-04-04T06:58:18.928Z</time></trkpt><trkpt lat="44.5823177" lon="11.7048539"><ele>8.0</ele><time>2026-04-04T06:58:19.928Z</time></trkpt><trkpt lat="44.5820882" lon="11.7048095"><ele>8.0</ele><time>2026-04-04T06:58:20.928Z</time></trkpt><trkpt lat="44.581852" lon="11.7047575"><ele>7.5</ele><time>2026-04-04T06:58:21.927Z</time></trkpt><trkpt lat="44.5816109" lon="11.7046998"><ele>7.0</ele><time>2026-04-04T06:58:22.926Z</time></trkpt><trkpt lat="44.5813648" lon="11.7046351"><ele>7.0</ele><time>2026-04-04T06:58:23.927Z</time></trkpt><trkpt lat="44.5811175" lon="11.7045759"><ele>7.0</ele><time>2026-04-04T06:58:24.927Z</time></trkpt><trkpt lat="44.5808693" lon="11.7045237"><ele>7.0</ele><time>2026-04-04T06:58:25.927Z</time></trkpt><trkpt lat="44.5806228" lon="11.704472"><ele>7.0</ele><time>2026-04-04T06:58:26.927Z</time></trkpt><trkpt lat="44.5803757" lon="11.7044222"><ele>7.0</ele><time>2026-04-04T06:58:27.927Z</time></trkpt><trkpt lat="44.5801309" lon="11.7043733"><ele>7.0</ele><time>2026-04-04T06:58:28.927Z</time></trkpt><trkpt lat="44.5798855" lon="11.704323"><ele>7.0</ele><time>2026-04-04T06:58:29.926Z</time></trkpt><trkpt lat="44.5796429" lon="11.7042718"><ele>7.0</ele><time>2026-04-04T06:58:30.927Z</time></trkpt><trkpt lat="44.5794016" lon="11.704219"><ele>7.5</ele><time>2026-04-04T06:58:31.927Z</time></trkpt><trkpt lat="44.5791628" lon="11.7041644"><ele>8.0</ele><time>2026-04-04T06:58:32.927Z</time></trkpt><trkpt lat="44.5789239" lon="11.7041123"><ele>8.0</ele><time>2026-04-04T06:58:33.928Z</time></trkpt><trkpt lat="44.5786845" lon="11.7040613"><ele>8.0</ele><time>2026-04-04T06:58:34.927Z</time></trkpt><trkpt lat="44.5784455" lon="11.7040088"><ele>8.0</ele><time>2026-04-04T06:58:35.927Z</time></trkpt><trkpt lat="44.5782075" lon="11.7039586"><ele>8.0</ele><time>2026-04-04T06:58:36.928Z</time></trkpt><trkpt lat="44.5779705" lon="11.7039083"><ele>7.0</ele><time>2026-04-04T06:58:37.928Z</time></trkpt><trkpt lat="44.5777333" lon="11.7038569"><ele>6.0</ele><time>2026-04-04T06:58:38.928Z</time></trkpt><trkpt lat="44.5774952" lon="11.7038044"><ele>6.0</ele><time>2026-04-04T06:58:39.927Z</time></trkpt><trkpt lat="44.5772578" lon="11.703755"><ele>6.0</ele><time>2026-04-04T06:58:40.927Z</time></trkpt><trkpt lat="44.5770213" lon="11.7037015"><ele>6.5</ele><time>2026-04-04T06:58:41.928Z</time></trkpt><trkpt lat="44.5767852" lon="11.7036525"><ele>7.0</ele><time>2026-04-04T06:58:42.927Z</time></trkpt><trkpt lat="44.5765508" lon="11.703606"><ele>7.0</ele><time>2026-04-04T06:58:43.927Z</time></trkpt><trkpt lat="44.5763193" lon="11.7035684"><ele>7.0</ele><time>2026-04-04T06:58:44.927Z</time></trkpt><trkpt lat="44.5760922" lon="11.703552"><ele>7.0</ele><time>2026-04-04T06:58:45.928Z</time></trkpt><trkpt lat="44.5758777" lon="11.703571"><ele>7.0</ele><time>2026-04-04T06:58:46.926Z</time></trkpt><trkpt lat="44.575679" lon="11.7036143"><ele>7.0</ele><time>2026-04-04T06:58:47.927Z</time></trkpt><trkpt lat="44.5754936" lon="11.7036632"><ele>7.0</ele><time>2026-04-04T06:58:48.927Z</time></trkpt><trkpt lat="44.5753257" lon="11.7037092"><ele>7.0</ele><time>2026-04-04T06:58:49.928Z</time></trkpt><trkpt lat="44.5751783" lon="11.7037499"><ele>7.0</ele><time>2026-04-04T06:58:50.928Z</time></trkpt><trkpt lat="44.5750562" lon="11.7037935"><ele>7.0</ele><time>2026-04-04T06:58:51.927Z</time></trkpt><trkpt lat="44.5749628" lon="11.703866"><ele>7.0</ele><time>2026-04-04T06:58:52.926Z</time></trkpt><trkpt lat="44.5749039" lon="11.703973"><ele>7.0</ele><time>2026-04-04T06:58:53.928Z</time></trkpt><trkpt lat="44.5748769" lon="11.7041206"><ele>7.0</ele><time>2026-04-04T06:58:54.927Z</time></trkpt><trkpt lat="44.5748789" lon="11.7043044"><ele>7.0</ele><time>2026-04-04T06:58:55.927Z</time></trkpt><trkpt lat="44.5748967" lon="11.7045187"><ele>7.666666666666667</ele><time>2026-04-04T06:58:56.928Z</time></trkpt><trkpt lat="44.5749212" lon="11.7047665"><ele>8.333333333333334</ele><time>2026-04-04T06:58:57.928Z</time></trkpt><trkpt lat="44.5749514" lon="11.7050221"><ele>9.0</ele><time>2026-04-04T06:58:58.927Z</time></trkpt><trkpt lat="44.5749792" lon="11.7052484"><ele>9.5</ele><time>2026-04-04T06:58:59.927Z</time></trkpt><trkpt lat="44.5750068" lon="11.7054531"><ele>10.0</ele><time>2026-04-04T06:59:00.928Z</time></trkpt><trkpt lat="44.5750271" lon="11.7056113"><ele>10.5</ele><time>2026-04-04T06:59:01.928Z</time></trkpt><trkpt lat="44.5750427" lon="11.7057202"><ele>11.0</ele><time>2026-04-04T06:59:02.927Z</time></trkpt><trkpt lat="44.575044" lon="11.7058784"><ele>11.0</ele><time>2026-04-04T06:59:04.928Z</time></trkpt><trkpt lat="44.5749723" lon="11.7059781"><ele>11.0</ele><time>2026-04-04T06:59:06.928Z</time></trkpt><trkpt lat="44.5748654" lon="11.7060223"><ele>11.0</ele><time>2026-04-04T06:59:08.928Z</time></trkpt><trkpt lat="44.5747893" lon="11.7060613"><ele>11.0</ele><time>2026-04-04T06:59:09.927Z</time></trkpt><trkpt lat="44.5746871" lon="11.706092"><ele>11.0</ele><time>2026-04-04T06:59:10.927Z</time></trkpt><trkpt lat="44.5745674" lon="11.7061146"><ele>10.8</ele><time>2026-04-04T06:59:11.927Z</time></trkpt><trkpt lat="44.5744523" lon="11.706133"><ele>10.600000000000001</ele><time>2026-04-04T06:59:12.928Z</time></trkpt><trkpt lat="44.5743534" lon="11.7061567"><ele>10.4</ele><time>2026-04-04T06:59:13.928Z</time></trkpt><trkpt lat="44.5742688" lon="11.7061953"><ele>10.2</ele><time>2026-04-04T06:59:14.928Z</time></trkpt><trkpt lat="44.5742053" lon="11.7062638"><ele>10.0</ele><time>2026-04-04T06:59:15.927Z</time></trkpt><trkpt lat="44.5741709" lon="11.7063762"><ele>10.0</ele><time>2026-04-04T06:59:16.927Z</time></trkpt><trkpt lat="44.574173" lon="11.7065241"><ele>10.0</ele><time>2026-04-04T06:59:17.927Z</time></trkpt><trkpt lat="44.574203" lon="11.7067047"><ele>10.0</ele><time>2026-04-04T06:59:18.928Z</time></trkpt><trkpt lat="44.5742323" lon="11.7069071"><ele>10.0</ele><time>2026-04-04T06:59:19.926Z</time></trkpt><trkpt lat="44.5742507" lon="11.7071077"><ele>10.333333333333334</ele><time>2026-04-04T06:59:20.927Z</time></trkpt><trkpt lat="44.5742758" lon="11.7073212"><ele>10.666666666666666</ele><time>2026-04-04T06:59:21.927Z</time></trkpt><trkpt lat="44.5743075" lon="11.7075306"><ele>11.0</ele><time>2026-04-04T06:59:22.928Z</time></trkpt><trkpt lat="44.5743392" lon="11.7077323"><ele>11.0</ele><time>2026-04-04T06:59:23.928Z</time></trkpt><trkpt lat="44.5743679" lon="11.7079189"><ele>11.0</ele><time>2026-04-04T06:59:24.927Z</time></trkpt><trkpt lat="44.5743824" lon="11.7080948"><ele>11.0</ele><time>2026-04-04T06:59:25.928Z</time></trkpt><trkpt lat="44.574374" lon="11.7082638"><ele>11.0</ele><time>2026-04-04T06:59:26.928Z</time></trkpt><trkpt lat="44.5743297" lon="11.7084343"><ele>10.0</ele><time>2026-04-04T06:59:27.928Z</time></trkpt><trkpt lat="44.5742467" lon="11.708593"><ele>9.0</ele><time>2026-04-04T06:59:28.928Z</time></trkpt><trkpt lat="44.5741248" lon="11.7087394"><ele>8.0</ele><time>2026-04-04T06:59:29.928Z</time></trkpt><trkpt lat="44.5739742" lon="11.7088817"><ele>8.0</ele><time>2026-04-04T06:59:30.928Z</time></trkpt><trkpt lat="44.5738086" lon="11.7090387"><ele>8.0</ele><time>2026-04-04T06:59:31.927Z</time></trkpt><trkpt lat="44.5736273" lon="11.7092111"><ele>8.0</ele><time>2026-04-04T06:59:32.928Z</time></trkpt><trkpt lat="44.5734385" lon="11.7093844"><ele>7.5</ele><time>2026-04-04T06:59:33.928Z</time></trkpt><trkpt lat="44.5732387" lon="11.7095706"><ele>7.0</ele><time>2026-04-04T06:59:34.927Z</time></trkpt><trkpt lat="44.573032" lon="11.7097616"><ele>6.5</ele><time>2026-04-04T06:59:35.927Z</time></trkpt><trkpt lat="44.5728112" lon="11.7099653"><ele>6.0</ele><time>2026-04-04T06:59:36.928Z</time></trkpt><trkpt lat="44.5725821" lon="11.7101785"><ele>6.5</ele><time>2026-04-04T06:59:37.928Z</time></trkpt><trkpt lat="44.572349" lon="11.7104005"><ele>7.0</ele><time>2026-04-04T06:59:38.927Z</time></trkpt><trkpt lat="44.5721113" lon="11.7106186"><ele>7.5</ele><time>2026-04-04T06:59:39.927Z</time></trkpt><trkpt lat="44.5718704" lon="11.7108421"><ele>8.0</ele><time>2026-04-04T06:59:40.927Z</time></trkpt><trkpt lat="44.57163" lon="11.7110709"><ele>8.0</ele><time>2026-04-04T06:59:41.927Z</time></trkpt><trkpt lat="44.5713822" lon="11.7113005"><ele>8.0</ele><time>2026-04-04T06:59:42.928Z</time></trkpt><trkpt lat="44.5711318" lon="11.7115269"><ele>8.5</ele><time>2026-04-04T06:59:43.927Z</time></trkpt><trkpt lat="44.570879" lon="11.7117604"><ele>9.0</ele><time>2026-04-04T06:59:44.926Z</time></trkpt><trkpt lat="44.5706263" lon="11.7119958"><ele>9.0</ele><time>2026-04-04T06:59:45.927Z</time></trkpt><trkpt lat="44.5703801" lon="11.7122253"><ele>9.0</ele><time>2026-04-04T06:59:46.926Z</time></trkpt><trkpt lat="44.5701359" lon="11.7124523"><ele>9.0</ele><time>2026-04-04T06:59:47.927Z</time></trkpt><trkpt lat="44.5698941" lon="11.7126794"><ele>9.0</ele><time>2026-04-04T06:59:48.926Z</time></trkpt><trkpt lat="44.5696577" lon="11.712898"><ele>8.5</ele><time>2026-04-04T06:59:49.928Z</time></trkpt><trkpt lat="44.5694247" lon="11.7131144"><ele>8.0</ele><time>2026-04-04T06:59:50.927Z</time></trkpt><trkpt lat="44.569195" lon="11.7133291"><ele>8.0</ele><time>2026-04-04T06:59:51.928Z</time></trkpt><trkpt lat="44.5689641" lon="11.7135421"><ele>8.0</ele><time>2026-04-04T06:59:52.928Z</time></trkpt><trkpt lat="44.5687346" lon="11.713752"><ele>8.0</ele><time>2026-04-04T06:59:53.927Z</time></trkpt><trkpt lat="44.5685063" lon="11.7139634"><ele>8.0</ele><time>2026-04-04T06:59:54.928Z</time></trkpt><trkpt lat="44.5682761" lon="11.714182"><ele>8.0</ele><time>2026-04-04T06:59:55.927Z</time></trkpt><trkpt lat="44.5680486" lon="11.714397"><ele>8.0</ele><time>2026-04-04T06:59:56.927Z</time></trkpt><trkpt lat="44.5678209" lon="11.7146082"><ele>7.5</ele><time>2026-04-04T06:59:57.927Z</time></trkpt><trkpt lat="44.5675959" lon="11.7148176"><ele>7.0</ele><time>2026-04-04T06:59:58.927Z</time></trkpt><trkpt lat="44.5673677" lon="11.7150274"><ele>7.0</ele><time>2026-04-04T06:59:59.928Z</time></trkpt><trkpt lat="44.5671422" lon="11.715238"><ele>7.0</ele><time>2026-04-04T07:00:00.928Z</time></trkpt><trkpt lat="44.5669162" lon="11.7154439"><ele>7.0</ele><time>2026-04-04T07:00:01.928Z</time></trkpt><trkpt lat="44.5666929" lon="11.7156496"><ele>7.0</ele><time>2026-04-04T07:00:02.927Z</time></trkpt><trkpt lat="44.5664694" lon="11.7158451"><ele>7.0</ele><time>2026-04-04T07:00:03.927Z</time></trkpt><trkpt lat="44.5662495" lon="11.7160165"><ele>7.0</ele><time>2026-04-04T07:00:04.928Z</time></trkpt><trkpt lat="44.5660335" lon="11.7161782"><ele>6.0</ele><time>2026-04-04T07:00:05.927Z</time></trkpt><trkpt lat="44.5658245" lon="11.7163311"><ele>5.0</ele><time>2026-04-04T07:00:06.928Z</time></trkpt><trkpt lat="44.5656228" lon="11.7164836"><ele>5.0</ele><time>2026-04-04T07:00:07.928Z</time></trkpt><trkpt lat="44.5654186" lon="11.7166443"><ele>5.0</ele><time>2026-04-04T07:00:08.927Z</time></trkpt><trkpt lat="44.5652135" lon="11.7168236"><ele>5.5</ele><time>2026-04-04T07:00:09.928Z</time></trkpt><trkpt lat="44.5650014" lon="11.7170196"><ele>6.0</ele><time>2026-04-04T07:00:10.927Z</time></trkpt><trkpt lat="44.564781" lon="11.7172205"><ele>6.0</ele><time>2026-04-04T07:00:11.928Z</time></trkpt><trkpt lat="44.5645561" lon="11.7174242"><ele>6.0</ele><time>2026-04-04T07:00:12.927Z</time></trkpt><trkpt lat="44.5643413" lon="11.7176171"><ele>5.5</ele><time>2026-04-04T07:00:13.928Z</time></trkpt><trkpt lat="44.5641386" lon="11.7177972"><ele>5.0</ele><time>2026-04-04T07:00:14.928Z</time></trkpt><trkpt lat="44.5639536" lon="11.7179645"><ele>5.0</ele><time>2026-04-04T07:00:15.928Z</time></trkpt><trkpt lat="44.5637889" lon="11.7181221"><ele>5.0</ele><time>2026-04-04T07:00:16.927Z</time></trkpt><trkpt lat="44.5636334" lon="11.7182615"><ele>5.0</ele><time>2026-04-04T07:00:17.927Z</time></trkpt><trkpt lat="44.5634929" lon="11.7183881"><ele>5.0</ele><time>2026-04-04T07:00:18.927Z</time></trkpt><trkpt lat="44.5633607" lon="11.7185069"><ele>5.0</ele><time>2026-04-04T07:00:19.927Z</time></trkpt><trkpt lat="44.5632372" lon="11.7186201"><ele>5.0</ele><time>2026-04-04T07:00:20.928Z</time></trkpt><trkpt lat="44.5631177" lon="11.7187262"><ele>5.0</ele><time>2026-04-04T07:00:21.927Z</time></trkpt><trkpt lat="44.5630029" lon="11.7188307"><ele>5.0</ele><time>2026-04-04T07:00:22.926Z</time></trkpt><trkpt lat="44.5628938" lon="11.7189316"><ele>5.0</ele><time>2026-04-04T07:00:23.928Z</time></trkpt><trkpt lat="44.5627865" lon="11.7190277"><ele>5.0</ele><time>2026-04-04T07:00:24.928Z</time></trkpt><trkpt lat="44.5626818" lon="11.7191266"><ele>5.0</ele><time>2026-04-04T07:00:25.927Z</time></trkpt><trkpt lat="44.5625794" lon="11.7192208"><ele>5.0</ele><time>2026-04-04T07:00:26.928Z</time></trkpt><trkpt lat="44.5624847" lon="11.7193071"><ele>5.0</ele><time>2026-04-04T07:00:27.928Z</time></trkpt><trkpt lat="44.5624032" lon="11.7193811"><ele>5.0</ele><time>2026-04-04T07:00:28.927Z</time></trkpt><trkpt lat="44.5623203" lon="11.7194546"><ele>5.0</ele><time>2026-04-04T07:00:29.927Z</time></trkpt><trkpt lat="44.5622413" lon="11.7195332"><ele>5.0</ele><time>2026-04-04T07:00:30.927Z</time></trkpt><trkpt lat="44.5621604" lon="11.7196081"><ele>5.0</ele><time>2026-04-04T07:00:31.927Z</time></trkpt><trkpt lat="44.5620673" lon="11.7196933"><ele>5.0</ele><time>2026-04-04T07:00:32.927Z</time></trkpt><trkpt lat="44.5619608" lon="11.7197898"><ele>5.0</ele><time>2026-04-04T07:00:33.928Z</time></trkpt><trkpt lat="44.5618346" lon="11.719903"><ele>5.0</ele><time>2026-04-04T07:00:34.927Z</time></trkpt><trkpt lat="44.561692" lon="11.7200308"><ele>5.333333333333334</ele><time>2026-04-04T07:00:35.928Z</time></trkpt><trkpt lat="44.561548" lon="11.7201622"><ele>5.666666666666667</ele><time>2026-04-04T07:00:36.928Z</time></trkpt><trkpt lat="44.5613997" lon="11.720294"><ele>6.0</ele><time>2026-04-04T07:00:37.927Z</time></trkpt><trkpt lat="44.5612673" lon="11.7204209"><ele>6.75</ele><time>2026-04-04T07:00:38.927Z</time></trkpt><trkpt lat="44.5611421" lon="11.720537"><ele>7.5</ele><time>2026-04-04T07:00:39.928Z</time></trkpt><trkpt lat="44.5610258" lon="11.7206441"><ele>8.25</ele><time>2026-04-04T07:00:40.927Z</time></trkpt><trkpt lat="44.5609188" lon="11.7207425"><ele>9.0</ele><time>2026-04-04T07:00:41.927Z</time></trkpt><trkpt lat="44.5608272" lon="11.7208244"><ele>9.0</ele><time>2026-04-04T07:00:42.928Z</time></trkpt><trkpt lat="44.5607504" lon="11.7208891"><ele>9.0</ele><time>2026-04-04T07:00:43.928Z</time></trkpt><trkpt lat="44.5606899" lon="11.7209355"><ele>9.0</ele><time>2026-04-04T07:00:44.926Z</time></trkpt><trkpt lat="44.5606032" lon="11.7209512"><ele>9.0</ele><time>2026-04-04T07:00:46.928Z</time></trkpt><trkpt lat="44.5605439" lon="11.7208291"><ele>9.0</ele><time>2026-04-04T07:00:48.928Z</time></trkpt><trkpt lat="44.5605063" lon="11.7207127"><ele>9.0</ele><time>2026-04-04T07:00:49.928Z</time></trkpt><trkpt lat="44.5604618" lon="11.7205787"><ele>9.0</ele><time>2026-04-04T07:00:50.926Z</time></trkpt><trkpt lat="44.5604067" lon="11.7204148"><ele>9.0</ele><time>2026-04-04T07:00:51.927Z</time></trkpt><trkpt lat="44.5603501" lon="11.7202309"><ele>9.0</ele><time>2026-04-04T07:00:52.927Z</time></trkpt><trkpt lat="44.5602859" lon="11.7200197"><ele>9.0</ele><time>2026-04-04T07:00:53.928Z</time></trkpt><trkpt lat="44.5602123" lon="11.7197932"><ele>9.0</ele><time>2026-04-04T07:00:54.927Z</time></trkpt><trkpt lat="44.5601327" lon="11.7195529"><ele>9.0</ele><time>2026-04-04T07:00:55.927Z</time></trkpt><trkpt lat="44.5600441" lon="11.7192913"><ele>9.0</ele><time>2026-04-04T07:00:56.927Z</time></trkpt><trkpt lat="44.5599524" lon="11.7190157"><ele>9.0</ele><time>2026-04-04T07:00:57.927Z</time></trkpt><trkpt lat="44.5598555" lon="11.7187287"><ele>9.0</ele><time>2026-04-04T07:00:58.927Z</time></trkpt><trkpt lat="44.5597548" lon="11.7184255"><ele>9.0</ele><time>2026-04-04T07:00:59.928Z</time></trkpt><trkpt lat="44.5596473" lon="11.7181092"><ele>9.0</ele><time>2026-04-04T07:01:00.928Z</time></trkpt><trkpt lat="44.5595303" lon="11.7177774"><ele>9.5</ele><time>2026-04-04T07:01:01.928Z</time></trkpt><trkpt lat="44.5594122" lon="11.7174339"><ele>10.0</ele><time>2026-04-04T07:01:02.928Z</time></trkpt><trkpt lat="44.5592902" lon="11.7170853"><ele>8.5</ele><time>2026-04-04T07:01:03.928Z</time></trkpt><trkpt lat="44.5591661" lon="11.7167311"><ele>7.0</ele><time>2026-04-04T07:01:04.927Z</time></trkpt><trkpt lat="44.5590411" lon="11.7163756"><ele>6.5</ele><time>2026-04-04T07:01:05.928Z</time></trkpt><trkpt lat="44.5589199" lon="11.7160248"><ele>6.0</ele><time>2026-04-04T07:01:06.926Z</time></trkpt><trkpt lat="44.5588007" lon="11.7156791"><ele>8.0</ele><time>2026-04-04T07:01:07.928Z</time></trkpt><trkpt lat="44.5586818" lon="11.715338"><ele>10.0</ele><time>2026-04-04T07:01:08.927Z</time></trkpt><trkpt lat="44.5585692" lon="11.7150046"><ele>10.0</ele><time>2026-04-04T07:01:09.927Z</time></trkpt><trkpt lat="44.5584543" lon="11.714673"><ele>10.0</ele><time>2026-04-04T07:01:10.927Z</time></trkpt><trkpt lat="44.5583372" lon="11.7143488"><ele>8.5</ele><time>2026-04-04T07:01:11.927Z</time></trkpt><trkpt lat="44.5582183" lon="11.7140249"><ele>7.0</ele><time>2026-04-04T07:01:12.926Z</time></trkpt><trkpt lat="44.5580957" lon="11.7136995"><ele>7.0</ele><time>2026-04-04T07:01:13.928Z</time></trkpt><trkpt lat="44.5579776" lon="11.7133762"><ele>7.0</ele><time>2026-04-04T07:01:14.928Z</time></trkpt><trkpt lat="44.5578576" lon="11.7130506"><ele>6.5</ele><time>2026-04-04T07:01:15.927Z</time></trkpt><trkpt lat="44.557738" lon="11.7127257"><ele>6.0</ele><time>2026-04-04T07:01:16.927Z</time></trkpt><trkpt lat="44.5576196" lon="11.7123977"><ele>6.0</ele><time>2026-04-04T07:01:17.927Z</time></trkpt><trkpt lat="44.5575003" lon="11.7120697"><ele>6.0</ele><time>2026-04-04T07:01:18.926Z</time></trkpt><trkpt lat="44.557379" lon="11.7117448"><ele>6.0</ele><time>2026-04-04T07:01:19.927Z</time></trkpt><trkpt lat="44.5572599" lon="11.7114187"><ele>6.0</ele><time>2026-04-04T07:01:20.928Z</time></trkpt><trkpt lat="44.557138" lon="11.7110898"><ele>6.5</ele><time>2026-04-04T07:01:21.927Z</time></trkpt><trkpt lat="44.5570147" lon="11.7107615"><ele>7.0</ele><time>2026-04-04T07:01:22.928Z</time></trkpt><trkpt lat="44.5568939" lon="11.7104346"><ele>7.0</ele><time>2026-04-04T07:01:23.928Z</time></trkpt><trkpt lat="44.5567726" lon="11.7101068"><ele>7.0</ele><time>2026-04-04T07:01:24.927Z</time></trkpt><trkpt lat="44.5566501" lon="11.7097773"><ele>7.0</ele><time>2026-04-04T07:01:25.927Z</time></trkpt><trkpt lat="44.5565295" lon="11.7094532"><ele>7.0</ele><time>2026-04-04T07:01:26.927Z</time></trkpt><trkpt lat="44.5564074" lon="11.7091263"><ele>6.5</ele><time>2026-04-04T07:01:27.927Z</time></trkpt><trkpt lat="44.5562861" lon="11.7087959"><ele>6.0</ele><time>2026-04-04T07:01:28.928Z</time></trkpt><trkpt lat="44.5561644" lon="11.7084644"><ele>7.0</ele><time>2026-04-04T07:01:29.928Z</time></trkpt><trkpt lat="44.5560438" lon="11.7081355"><ele>8.0</ele><time>2026-04-04T07:01:30.928Z</time></trkpt><trkpt lat="44.5559202" lon="11.707806"><ele>8.0</ele><time>2026-04-04T07:01:31.927Z</time></trkpt><trkpt lat="44.5557972" lon="11.7074739"><ele>8.0</ele><time>2026-04-04T07:01:32.927Z</time></trkpt><trkpt lat="44.555674" lon="11.7071409"><ele>7.5</ele><time>2026-04-04T07:01:33.927Z</time></trkpt><trkpt lat="44.555551" lon="11.7068068"><ele>7.0</ele><time>2026-04-04T07:01:34.927Z</time></trkpt><trkpt lat="44.555429" lon="11.7064713"><ele>7.0</ele><time>2026-04-04T07:01:35.927Z</time></trkpt><trkpt lat="44.5553067" lon="11.706137"><ele>7.0</ele><time>2026-04-04T07:01:36.928Z</time></trkpt><trkpt lat="44.5551828" lon="11.7058035"><ele>7.0</ele><time>2026-04-04T07:01:37.928Z</time></trkpt><trkpt lat="44.5550571" lon="11.7054688"><ele>7.0</ele><time>2026-04-04T07:01:38.926Z</time></trkpt><trkpt lat="44.5549317" lon="11.7051356"><ele>6.5</ele><time>2026-04-04T07:01:39.927Z</time></trkpt><trkpt lat="44.5548061" lon="11.7048015"><ele>6.0</ele><time>2026-04-04T07:01:40.927Z</time></trkpt><trkpt lat="44.5546791" lon="11.7044699"><ele>6.0</ele><time>2026-04-04T07:01:41.927Z</time></trkpt><trkpt lat="44.5545549" lon="11.7041345"><ele>6.0</ele><time>2026-04-04T07:01:42.927Z</time></trkpt><trkpt lat="44.5544286" lon="11.7037971"><ele>6.5</ele><time>2026-04-04T07:01:43.927Z</time></trkpt><trkpt lat="44.5543026" lon="11.7034589"><ele>7.0</ele><time>2026-04-04T07:01:44.927Z</time></trkpt><trkpt lat="44.5541744" lon="11.7031162"><ele>7.0</ele><time>2026-04-04T07:01:45.927Z</time></trkpt><trkpt lat="44.5540463" lon="11.7027696"><ele>7.0</ele><time>2026-04-04T07:01:46.927Z</time></trkpt><trkpt lat="44.5539178" lon="11.7024162"><ele>6.5</ele><time>2026-04-04T07:01:47.927Z</time></trkpt><trkpt lat="44.5537852" lon="11.7020633"><ele>6.0</ele><time>2026-04-04T07:01:48.928Z</time></trkpt><trkpt lat="44.5536538" lon="11.7017091"><ele>7.5</ele><time>2026-04-04T07:01:49.928Z</time></trkpt><trkpt lat="44.5535222" lon="11.7013592"><ele>9.0</ele><time>2026-04-04T07:01:50.927Z</time></trkpt><trkpt lat="44.5533966" lon="11.7010124"><ele>9.0</ele><time>2026-04-04T07:01:51.928Z</time></trkpt><trkpt lat="44.5532689" lon="11.7006631"><ele>9.0</ele><time>2026-04-04T07:01:52.927Z</time></trkpt><trkpt lat="44.553142" lon="11.7003154"><ele>8.0</ele><time>2026-04-04T07:01:53.927Z</time></trkpt><trkpt lat="44.5530185" lon="11.6999686"><ele>7.0</ele><time>2026-04-04T07:01:54.926Z</time></trkpt><trkpt lat="44.5528915" lon="11.6996304"><ele>7.0</ele><time>2026-04-04T07:01:55.927Z</time></trkpt><trkpt lat="44.5527635" lon="11.6992886"><ele>7.0</ele><time>2026-04-04T07:01:56.927Z</time></trkpt><trkpt lat="44.552637" lon="11.6989473"><ele>7.0</ele><time>2026-04-04T07:01:57.927Z</time></trkpt><trkpt lat="44.5525091" lon="11.6986095"><ele>7.0</ele><time>2026-04-04T07:01:58.928Z</time></trkpt><trkpt lat="44.5523828" lon="11.6982725"><ele>7.0</ele><time>2026-04-04T07:01:59.928Z</time></trkpt><trkpt lat="44.5522589" lon="11.6979365"><ele>7.0</ele><time>2026-04-04T07:02:00.928Z</time></trkpt><trkpt lat="44.5521341" lon="11.6976033"><ele>6.5</ele><time>2026-04-04T07:02:01.928Z</time></trkpt><trkpt lat="44.5520086" lon="11.6972671"><ele>6.0</ele><time>2026-04-04T07:02:02.927Z</time></trkpt><trkpt lat="44.5518824" lon="11.6969294"><ele>7.0</ele><time>2026-04-04T07:02:03.928Z</time></trkpt><trkpt lat="44.5517596" lon="11.6965922"><ele>8.0</ele><time>2026-04-04T07:02:04.927Z</time></trkpt><trkpt lat="44.5516354" lon="11.6962534"><ele>9.5</ele><time>2026-04-04T07:02:05.928Z</time></trkpt><trkpt lat="44.5515093" lon="11.6959104"><ele>11.0</ele><time>2026-04-04T07:02:06.928Z</time></trkpt><trkpt lat="44.5513803" lon="11.6955712"><ele>9.5</ele><time>2026-04-04T07:02:07.928Z</time></trkpt><trkpt lat="44.5512534" lon="11.6952318"><ele>8.0</ele><time>2026-04-04T07:02:08.928Z</time></trkpt><trkpt lat="44.5511258" lon="11.6948898"><ele>8.0</ele><time>2026-04-04T07:02:09.928Z</time></trkpt><trkpt lat="44.5509978" lon="11.6945508"><ele>8.0</ele><time>2026-04-04T07:02:10.928Z</time></trkpt><trkpt lat="44.5508818" lon="11.6942278"><ele>8.0</ele><time>2026-04-04T07:02:11.927Z</time></trkpt><trkpt lat="44.5507707" lon="11.6939345"><ele>8.0</ele><time>2026-04-04T07:02:12.928Z</time></trkpt><trkpt lat="44.5506717" lon="11.6936647"><ele>7.666666666666666</ele><time>2026-04-04T07:02:13.926Z</time></trkpt><trkpt lat="44.5505863" lon="11.6934264"><ele>7.333333333333334</ele><time>2026-04-04T07:02:14.926Z</time></trkpt><trkpt lat="44.5505098" lon="11.6932223"><ele>7.0</ele><time>2026-04-04T07:02:15.928Z</time></trkpt><trkpt lat="44.5504465" lon="11.6930445"><ele>7.0</ele><time>2026-04-04T07:02:16.927Z</time></trkpt><trkpt lat="44.5503936" lon="11.6928947"><ele>6.999999999999999</ele><time>2026-04-04T07:02:17.928Z</time></trkpt><trkpt lat="44.5503374" lon="11.69279"><ele>6.999999999999999</ele><time>2026-04-04T07:02:18.928Z</time></trkpt><trkpt lat="44.5502645" lon="11.6927406"><ele>7.0</ele><time>2026-04-04T07:02:19.928Z</time></trkpt><trkpt lat="44.5501803" lon="11.692752"><ele>7.0</ele><time>2026-04-04T07:02:20.927Z</time></trkpt><trkpt lat="44.5500812" lon="11.6928151"><ele>6.666666666666667</ele><time>2026-04-04T07:02:21.927Z</time></trkpt><trkpt lat="44.5499683" lon="11.692916"><ele>6.333333333333334</ele><time>2026-04-04T07:02:22.928Z</time></trkpt><trkpt lat="44.5498329" lon="11.6930519"><ele>6.0</ele><time>2026-04-04T07:02:23.928Z</time></trkpt><trkpt lat="44.5496762" lon="11.6931871"><ele>6.0</ele><time>2026-04-04T07:02:24.928Z</time></trkpt><trkpt lat="44.5495063" lon="11.693336"><ele>6.0</ele><time>2026-04-04T07:02:25.927Z</time></trkpt><trkpt lat="44.5493263" lon="11.6934991"><ele>6.0</ele><time>2026-04-04T07:02:26.928Z</time></trkpt><trkpt lat="44.5491356" lon="11.693676"><ele>6.5</ele><time>2026-04-04T07:02:27.928Z</time></trkpt><trkpt lat="44.5489306" lon="11.6938635"><ele>7.0</ele><time>2026-04-04T07:02:28.927Z</time></trkpt><trkpt lat="44.5487175" lon="11.69406"><ele>6.5</ele><time>2026-04-04T07:02:29.928Z</time></trkpt><trkpt lat="44.548498" lon="11.6942614"><ele>6.0</ele><time>2026-04-04T07:02:30.927Z</time></trkpt><trkpt lat="44.5482713" lon="11.6944691"><ele>6.0</ele><time>2026-04-04T07:02:31.928Z</time></trkpt><trkpt lat="44.5480369" lon="11.694684"><ele>6.0</ele><time>2026-04-04T07:02:32.928Z</time></trkpt><trkpt lat="44.5477984" lon="11.6949025"><ele>6.0</ele><time>2026-04-04T07:02:33.928Z</time></trkpt><trkpt lat="44.5475619" lon="11.6951199"><ele>6.0</ele><time>2026-04-04T07:02:34.927Z</time></trkpt><trkpt lat="44.5473285" lon="11.695335"><ele>6.5</ele><time>2026-04-04T07:02:35.923Z</time></trkpt><trkpt lat="44.5470966" lon="11.6955496"><ele>7.0</ele><time>2026-04-04T07:02:36.927Z</time></trkpt><trkpt lat="44.5468659" lon="11.6957641"><ele>7.0</ele><time>2026-04-04T07:02:37.928Z</time></trkpt><trkpt lat="44.5466356" lon="11.6959752"><ele>7.0</ele><time>2026-04-04T07:02:38.927Z</time></trkpt><trkpt lat="44.5464038" lon="11.6961892"><ele>6.5</ele><time>2026-04-04T07:02:39.927Z</time></trkpt><trkpt lat="44.5461738" lon="11.6964018"><ele>6.0</ele><time>2026-04-04T07:02:40.927Z</time></trkpt><trkpt lat="44.545947" lon="11.6966119"><ele>6.0</ele><time>2026-04-04T07:02:41.928Z</time></trkpt><trkpt lat="44.5457204" lon="11.696821"><ele>6.0</ele><time>2026-04-04T07:02:42.927Z</time></trkpt><trkpt lat="44.5454947" lon="11.6970279"><ele>6.0</ele><time>2026-04-04T07:02:43.928Z</time></trkpt><trkpt lat="44.5452683" lon="11.6972355"><ele>6.0</ele><time>2026-04-04T07:02:44.928Z</time></trkpt><trkpt lat="44.5450423" lon="11.6974458"><ele>6.0</ele><time>2026-04-04T07:02:45.927Z</time></trkpt><trkpt lat="44.5448177" lon="11.6976558"><ele>6.0</ele><time>2026-04-04T07:02:46.928Z</time></trkpt><trkpt lat="44.5445939" lon="11.6978654"><ele>6.5</ele><time>2026-04-04T07:02:47.928Z</time></trkpt><trkpt lat="44.5443675" lon="11.698076"><ele>7.0</ele><time>2026-04-04T07:02:48.928Z</time></trkpt><trkpt lat="44.5441398" lon="11.6982889"><ele>7.0</ele><time>2026-04-04T07:02:49.928Z</time></trkpt><trkpt lat="44.5439104" lon="11.6985027"><ele>7.0</ele><time>2026-04-04T07:02:50.927Z</time></trkpt><trkpt lat="44.543678" lon="11.6987158"><ele>7.0</ele><time>2026-04-04T07:02:51.927Z</time></trkpt><trkpt lat="44.5434462" lon="11.6989289"><ele>7.0</ele><time>2026-04-04T07:02:52.927Z</time></trkpt><trkpt lat="44.5432165" lon="11.6991397"><ele>7.0</ele><time>2026-04-04T07:02:53.927Z</time></trkpt><trkpt lat="44.5429911" lon="11.6993482"><ele>7.0</ele><time>2026-04-04T07:02:54.927Z</time></trkpt><trkpt lat="44.5427707" lon="11.6995533"><ele>6.5</ele><time>2026-04-04T07:02:55.927Z</time></trkpt><trkpt lat="44.5425528" lon="11.6997536"><ele>6.0</ele><time>2026-04-04T07:02:56.927Z</time></trkpt><trkpt lat="44.5423394" lon="11.6999527"><ele>6.0</ele><time>2026-04-04T07:02:57.927Z</time></trkpt><trkpt lat="44.5421362" lon="11.7001384"><ele>6.0</ele><time>2026-04-04T07:02:58.927Z</time></trkpt><trkpt lat="44.5419484" lon="11.7003114"><ele>6.0</ele><time>2026-04-04T07:02:59.928Z</time></trkpt><trkpt lat="44.5417726" lon="11.7004742"><ele>6.0</ele><time>2026-04-04T07:03:00.928Z</time></trkpt><trkpt lat="44.5416115" lon="11.7006261"><ele>6.0</ele><time>2026-04-04T07:03:01.927Z</time></trkpt><trkpt lat="44.5414673" lon="11.7007643"><ele>6.0</ele><time>2026-04-04T07:03:02.928Z</time></trkpt><trkpt lat="44.5413383" lon="11.700881"><ele>6.0</ele><time>2026-04-04T07:03:03.927Z</time></trkpt><trkpt lat="44.5412269" lon="11.7009834"><ele>6.0</ele><time>2026-04-04T07:03:04.927Z</time></trkpt><trkpt lat="44.5411259" lon="11.7010717"><ele>6.0</ele><time>2026-04-04T07:03:05.927Z</time></trkpt><trkpt lat="44.5410285" lon="11.7011515"><ele>6.25</ele><time>2026-04-04T07:03:06.927Z</time></trkpt><trkpt lat="44.5409211" lon="11.7012138"><ele>6.5</ele><time>2026-04-04T07:03:07.927Z</time></trkpt><trkpt lat="44.5408034" lon="11.7012571"><ele>6.75</ele><time>2026-04-04T07:03:08.928Z</time></trkpt><trkpt lat="44.5406802" lon="11.7012774"><ele>7.0</ele><time>2026-04-04T07:03:09.927Z</time></trkpt><trkpt lat="44.5405448" lon="11.7012625"><ele>7.0</ele><time>2026-04-04T07:03:10.928Z</time></trkpt><trkpt lat="44.5403911" lon="11.7012178"><ele>7.0</ele><time>2026-04-04T07:03:11.928Z</time></trkpt><trkpt lat="44.5402296" lon="11.7011481"><ele>7.0</ele><time>2026-04-04T07:03:12.927Z</time></trkpt><trkpt lat="44.5400811" lon="11.7010479"><ele>7.0</ele><time>2026-04-04T07:03:13.926Z</time></trkpt><trkpt lat="44.5399496" lon="11.7009266"><ele>7.0</ele><time>2026-04-04T07:03:14.928Z</time></trkpt><trkpt lat="44.5398279" lon="11.7007756"><ele>7.0</ele><time>2026-04-04T07:03:15.928Z</time></trkpt><trkpt lat="44.5397081" lon="11.7005879"><ele>7.0</ele><time>2026-04-04T07:03:16.928Z</time></trkpt><trkpt lat="44.5395903" lon="11.7003608"><ele>7.0</ele><time>2026-04-04T07:03:17.928Z</time></trkpt><trkpt lat="44.5394694" lon="11.7001116"><ele>7.0</ele><time>2026-04-04T07:03:18.928Z</time></trkpt><trkpt lat="44.5393367" lon="11.699862"><ele>6.5</ele><time>2026-04-04T07:03:19.928Z</time></trkpt><trkpt lat="44.5391977" lon="11.6996097"><ele>6.0</ele><time>2026-04-04T07:03:20.928Z</time></trkpt><trkpt lat="44.5390479" lon="11.6993417"><ele>5.5</ele><time>2026-04-04T07:03:21.928Z</time></trkpt><trkpt lat="44.538892" lon="11.6990617"><ele>5.0</ele><time>2026-04-04T07:03:22.926Z</time></trkpt><trkpt lat="44.5387327" lon="11.6987816"><ele>5.5</ele><time>2026-04-04T07:03:23.927Z</time></trkpt><trkpt lat="44.5385833" lon="11.6985064"><ele>6.0</ele><time>2026-04-04T07:03:24.927Z</time></trkpt><trkpt lat="44.5384374" lon="11.6982422"><ele>6.0</ele><time>2026-04-04T07:03:25.927Z</time></trkpt><trkpt lat="44.5382963" lon="11.6979989"><ele>6.0</ele><time>2026-04-04T07:03:26.927Z</time></trkpt><trkpt lat="44.5381397" lon="11.6977745"><ele>6.0</ele><time>2026-04-04T07:03:27.928Z</time></trkpt><trkpt lat="44.5379675" lon="11.6975699"><ele>6.0</ele><time>2026-04-04T07:03:28.927Z</time></trkpt><trkpt lat="44.5377916" lon="11.697371"><ele>6.0</ele><time>2026-04-04T07:03:29.927Z</time></trkpt><trkpt lat="44.5376083" lon="11.6971642"><ele>6.0</ele><time>2026-04-04T07:03:30.928Z</time></trkpt><trkpt lat="44.5374192" lon="11.6969512"><ele>6.0</ele><time>2026-04-04T07:03:31.928Z</time></trkpt><trkpt lat="44.537232" lon="11.6967372"><ele>6.0</ele><time>2026-04-04T07:03:32.928Z</time></trkpt><trkpt lat="44.5370353" lon="11.6965256"><ele>6.0</ele><time>2026-04-04T07:03:33.927Z</time></trkpt><trkpt lat="44.5368326" lon="11.6963232"><ele>6.0</ele><time>2026-04-04T07:03:34.928Z</time></trkpt><trkpt lat="44.5366174" lon="11.6961371"><ele>6.0</ele><time>2026-04-04T07:03:35.927Z</time></trkpt><trkpt lat="44.5363995" lon="11.6959571"><ele>6.5</ele><time>2026-04-04T07:03:36.927Z</time></trkpt><trkpt lat="44.5361794" lon="11.6957791"><ele>7.0</ele><time>2026-04-04T07:03:37.928Z</time></trkpt><trkpt lat="44.5359564" lon="11.6956036"><ele>7.0</ele><time>2026-04-04T07:03:38.928Z</time></trkpt><trkpt lat="44.5357343" lon="11.6954272"><ele>7.0</ele><time>2026-04-04T07:03:39.927Z</time></trkpt><trkpt lat="44.5355093" lon="11.6952523"><ele>7.0</ele><time>2026-04-04T07:03:40.926Z</time></trkpt><trkpt lat="44.5352818" lon="11.6950762"><ele>7.0</ele><time>2026-04-04T07:03:41.927Z</time></trkpt><trkpt lat="44.5350533" lon="11.6949021"><ele>7.0</ele><time>2026-04-04T07:03:42.927Z</time></trkpt><trkpt lat="44.5348204" lon="11.6947312"><ele>7.0</ele><time>2026-04-04T07:03:43.926Z</time></trkpt><trkpt lat="44.5345856" lon="11.6945688"><ele>7.5</ele><time>2026-04-04T07:03:44.928Z</time></trkpt><trkpt lat="44.5343458" lon="11.6944132"><ele>8.0</ele><time>2026-04-04T07:03:45.928Z</time></trkpt><trkpt lat="44.534104" lon="11.6942584"><ele>8.0</ele><time>2026-04-04T07:03:46.928Z</time></trkpt><trkpt lat="44.5338637" lon="11.694096"><ele>8.0</ele><time>2026-04-04T07:03:47.928Z</time></trkpt><trkpt lat="44.5336247" lon="11.693925"><ele>7.0</ele><time>2026-04-04T07:03:48.927Z</time></trkpt><trkpt lat="44.5333862" lon="11.6937483"><ele>6.0</ele><time>2026-04-04T07:03:49.927Z</time></trkpt><trkpt lat="44.5331464" lon="11.6935705"><ele>6.0</ele><time>2026-04-04T07:03:50.927Z</time></trkpt><trkpt lat="44.5329062" lon="11.6933937"><ele>6.0</ele><time>2026-04-04T07:03:51.928Z</time></trkpt><trkpt lat="44.5326653" lon="11.6932146"><ele>6.0</ele><time>2026-04-04T07:03:52.927Z</time></trkpt><trkpt lat="44.5324247" lon="11.6930342"><ele>6.0</ele><time>2026-04-04T07:03:53.926Z</time></trkpt><trkpt lat="44.5321841" lon="11.6928507"><ele>6.5</ele><time>2026-04-04T07:03:54.927Z</time></trkpt><trkpt lat="44.5319471" lon="11.6926613"><ele>7.0</ele><time>2026-04-04T07:03:55.927Z</time></trkpt><trkpt lat="44.5317182" lon="11.6924701"><ele>7.0</ele><time>2026-04-04T07:03:56.927Z</time></trkpt><trkpt lat="44.5315012" lon="11.692283"><ele>7.0</ele><time>2026-04-04T07:03:57.928Z</time></trkpt><trkpt lat="44.5312862" lon="11.6920929"><ele>8.0</ele><time>2026-04-04T07:03:58.928Z</time></trkpt><trkpt lat="44.5310773" lon="11.6918876"><ele>9.0</ele><time>2026-04-04T07:03:59.927Z</time></trkpt><trkpt lat="44.5308776" lon="11.6916562"><ele>9.0</ele><time>2026-04-04T07:04:00.927Z</time></trkpt><trkpt lat="44.5306847" lon="11.6914029"><ele>9.0</ele><time>2026-04-04T07:04:01.926Z</time></trkpt><trkpt lat="44.5304936" lon="11.6911345"><ele>9.0</ele><time>2026-04-04T07:04:02.928Z</time></trkpt><trkpt lat="44.530307" lon="11.6908521"><ele>9.0</ele><time>2026-04-04T07:04:03.928Z</time></trkpt><trkpt lat="44.5301082" lon="11.6905715"><ele>9.0</ele><time>2026-04-04T07:04:04.927Z</time></trkpt><trkpt lat="44.5299029" lon="11.6902873"><ele>9.0</ele><time>2026-04-04T07:04:05.927Z</time></trkpt><trkpt lat="44.5296987" lon="11.689994"><ele>8.5</ele><time>2026-04-04T07:04:06.927Z</time></trkpt><trkpt lat="44.5294985" lon="11.6897084"><ele>8.0</ele><time>2026-04-04T07:04:07.927Z</time></trkpt><trkpt lat="44.5293109" lon="11.689436"><ele>8.0</ele><time>2026-04-04T07:04:08.928Z</time></trkpt><trkpt lat="44.5291377" lon="11.6891843"><ele>8.0</ele><time>2026-04-04T07:04:09.928Z</time></trkpt><trkpt lat="44.5289804" lon="11.6889549"><ele>8.0</ele><time>2026-04-04T07:04:10.928Z</time></trkpt><trkpt lat="44.5288462" lon="11.688755"><ele>8.0</ele><time>2026-04-04T07:04:11.928Z</time></trkpt><trkpt lat="44.5287356" lon="11.6885906"><ele>8.0</ele><time>2026-04-04T07:04:12.928Z</time></trkpt><trkpt lat="44.5286522" lon="11.6884484"><ele>8.0</ele><time>2026-04-04T07:04:13.928Z</time></trkpt><trkpt lat="44.5286036" lon="11.6882947"><ele>8.0</ele><time>2026-04-04T07:04:14.928Z</time></trkpt><trkpt lat="44.5285816" lon="11.6881193"><ele>8.0</ele><time>2026-04-04T07:04:15.927Z</time></trkpt><trkpt lat="44.5285466" lon="11.6879281"><ele>8.0</ele><time>2026-04-04T07:04:16.927Z</time></trkpt><trkpt lat="44.5284672" lon="11.6877311"><ele>7.666666666666666</ele><time>2026-04-04T07:04:17.928Z</time></trkpt><trkpt lat="44.5283506" lon="11.6875314"><ele>7.333333333333334</ele><time>2026-04-04T07:04:18.928Z</time></trkpt><trkpt lat="44.5282163" lon="11.6873241"><ele>7.0</ele><time>2026-04-04T07:04:19.928Z</time></trkpt><trkpt lat="44.528068" lon="11.6871083"><ele>7.0</ele><time>2026-04-04T07:04:20.928Z</time></trkpt><trkpt lat="44.5278992" lon="11.6868872"><ele>7.0</ele><time>2026-04-04T07:04:21.928Z</time></trkpt><trkpt lat="44.5277146" lon="11.6866603"><ele>7.0</ele><time>2026-04-04T07:04:22.928Z</time></trkpt><trkpt lat="44.5275134" lon="11.6864374"><ele>7.0</ele><time>2026-04-04T07:04:23.928Z</time></trkpt><trkpt lat="44.5273073" lon="11.6862147"><ele>7.0</ele><time>2026-04-04T07:04:24.927Z</time></trkpt><trkpt lat="44.5270915" lon="11.6859881"><ele>7.0</ele><time>2026-04-04T07:04:25.927Z</time></trkpt><trkpt lat="44.5268677" lon="11.6857611"><ele>7.0</ele><time>2026-04-04T07:04:26.928Z</time></trkpt><trkpt lat="44.5266398" lon="11.6855276"><ele>7.0</ele><time>2026-04-04T07:04:27.928Z</time></trkpt><trkpt lat="44.5264042" lon="11.6852899"><ele>8.5</ele><time>2026-04-04T07:04:28.928Z</time></trkpt><trkpt lat="44.526165" lon="11.6850488"><ele>10.0</ele><time>2026-04-04T07:04:29.927Z</time></trkpt><trkpt lat="44.525929" lon="11.6848086"><ele>10.0</ele><time>2026-04-04T07:04:30.927Z</time></trkpt><trkpt lat="44.5256956" lon="11.6845676"><ele>10.0</ele><time>2026-04-04T07:04:31.928Z</time></trkpt><trkpt lat="44.5254654" lon="11.6843254"><ele>9.0</ele><time>2026-04-04T07:04:32.928Z</time></trkpt><trkpt lat="44.5252383" lon="11.6840858"><ele>8.0</ele><time>2026-04-04T07:04:33.927Z</time></trkpt><trkpt lat="44.5250119" lon="11.6838485"><ele>8.0</ele><time>2026-04-04T07:04:34.926Z</time></trkpt><trkpt lat="44.5247878" lon="11.6836102"><ele>8.0</ele><time>2026-04-04T07:04:35.928Z</time></trkpt><trkpt lat="44.5245651" lon="11.6833735"><ele>7.5</ele><time>2026-04-04T07:04:36.928Z</time></trkpt><trkpt lat="44.5243452" lon="11.6831433"><ele>7.0</ele><time>2026-04-04T07:04:37.927Z</time></trkpt><trkpt lat="44.5241293" lon="11.6829165"><ele>7.0</ele><time>2026-04-04T07:04:38.927Z</time></trkpt><trkpt lat="44.523916" lon="11.6826949"><ele>7.0</ele><time>2026-04-04T07:04:39.928Z</time></trkpt><trkpt lat="44.5237091" lon="11.6824805"><ele>8.0</ele><time>2026-04-04T07:04:40.927Z</time></trkpt><trkpt lat="44.5235173" lon="11.6822785"><ele>9.0</ele><time>2026-04-04T07:04:41.928Z</time></trkpt><trkpt lat="44.5233399" lon="11.682093"><ele>8.666666666666666</ele><time>2026-04-04T07:04:42.927Z</time></trkpt><trkpt lat="44.5231748" lon="11.6819184"><ele>8.333333333333332</ele><time>2026-04-04T07:04:43.927Z</time></trkpt><trkpt lat="44.5230284" lon="11.6817692"><ele>8.0</ele><time>2026-04-04T07:04:44.927Z</time></trkpt><trkpt lat="44.5228944" lon="11.6816285"><ele>8.0</ele><time>2026-04-04T07:04:45.927Z</time></trkpt><trkpt lat="44.5227652" lon="11.6814774"><ele>8.0</ele><time>2026-04-04T07:04:46.927Z</time></trkpt><trkpt lat="44.5226288" lon="11.6813126"><ele>8.0</ele><time>2026-04-04T07:04:47.927Z</time></trkpt><trkpt lat="44.522491" lon="11.6811355"><ele>8.0</ele><time>2026-04-04T07:04:48.927Z</time></trkpt><trkpt lat="44.5223485" lon="11.6809522"><ele>8.0</ele><time>2026-04-04T07:04:49.928Z</time></trkpt><trkpt lat="44.5222051" lon="11.6807762"><ele>8.0</ele><time>2026-04-04T07:04:50.927Z</time></trkpt><trkpt lat="44.5220606" lon="11.6805913"><ele>8.0</ele><time>2026-04-04T07:04:51.927Z</time></trkpt><trkpt lat="44.5219284" lon="11.6803868"><ele>8.0</ele><time>2026-04-04T07:04:52.928Z</time></trkpt><trkpt lat="44.52182" lon="11.6801526"><ele>8.0</ele><time>2026-04-04T07:04:53.927Z</time></trkpt><trkpt lat="44.5217338" lon="11.6798881"><ele>8.0</ele><time>2026-04-04T07:04:54.927Z</time></trkpt><trkpt lat="44.5216516" lon="11.6796066"><ele>8.0</ele><time>2026-04-04T07:04:55.926Z</time></trkpt><trkpt lat="44.5215603" lon="11.6793188"><ele>8.0</ele><time>2026-04-04T07:04:56.927Z</time></trkpt><trkpt lat="44.521469" lon="11.6790268"><ele>7.5</ele><time>2026-04-04T07:04:57.928Z</time></trkpt><trkpt lat="44.5213779" lon="11.678734"><ele>7.0</ele><time>2026-04-04T07:04:58.928Z</time></trkpt><trkpt lat="44.5212838" lon="11.6784403"><ele>7.0</ele><time>2026-04-04T07:04:59.928Z</time></trkpt><trkpt lat="44.5211894" lon="11.6781481"><ele>7.0</ele><time>2026-04-04T07:05:00.927Z</time></trkpt><trkpt lat="44.5210945" lon="11.6778538"><ele>7.5</ele><time>2026-04-04T07:05:01.927Z</time></trkpt><trkpt lat="44.5210002" lon="11.6775614"><ele>8.0</ele><time>2026-04-04T07:05:02.927Z</time></trkpt><trkpt lat="44.5209034" lon="11.6772693"><ele>8.0</ele><time>2026-04-04T07:05:03.928Z</time></trkpt><trkpt lat="44.5208089" lon="11.6769804"><ele>8.0</ele><time>2026-04-04T07:05:04.928Z</time></trkpt><trkpt lat="44.5207116" lon="11.6766855"><ele>7.5</ele><time>2026-04-04T07:05:05.927Z</time></trkpt><trkpt lat="44.520615" lon="11.6763934"><ele>7.0</ele><time>2026-04-04T07:05:06.928Z</time></trkpt><trkpt lat="44.5205165" lon="11.6761016"><ele>7.0</ele><time>2026-04-04T07:05:07.928Z</time></trkpt><trkpt lat="44.5204183" lon="11.6758117"><ele>7.0</ele><time>2026-04-04T07:05:08.927Z</time></trkpt><trkpt lat="44.5203231" lon="11.6755184"><ele>7.5</ele><time>2026-04-04T07:05:09.927Z</time></trkpt><trkpt lat="44.5202271" lon="11.6752292"><ele>8.0</ele><time>2026-04-04T07:05:10.928Z</time></trkpt><trkpt lat="44.5201318" lon="11.6749378"><ele>8.0</ele><time>2026-04-04T07:05:11.928Z</time></trkpt><trkpt lat="44.5200358" lon="11.6746436"><ele>8.0</ele><time>2026-04-04T07:05:12.927Z</time></trkpt><trkpt lat="44.5199371" lon="11.6743498"><ele>8.5</ele><time>2026-04-04T07:05:13.928Z</time></trkpt><trkpt lat="44.5198382" lon="11.6740581"><ele>9.0</ele><time>2026-04-04T07:05:14.928Z</time></trkpt><trkpt lat="44.5197406" lon="11.6737695"><ele>8.5</ele><time>2026-04-04T07:05:15.928Z</time></trkpt><trkpt lat="44.519642" lon="11.6734802"><ele>8.0</ele><time>2026-04-04T07:05:16.927Z</time></trkpt><trkpt lat="44.5195428" lon="11.6731904"><ele>9.5</ele><time>2026-04-04T07:05:17.926Z</time></trkpt><trkpt lat="44.5194483" lon="11.6729028"><ele>11.0</ele><time>2026-04-04T07:05:18.927Z</time></trkpt><trkpt lat="44.5193529" lon="11.6726115"><ele>11.0</ele><time>2026-04-04T07:05:19.927Z</time></trkpt><trkpt lat="44.519259" lon="11.6723207"><ele>11.0</ele><time>2026-04-04T07:05:20.928Z</time></trkpt><trkpt lat="44.519164" lon="11.6720393"><ele>10.666666666666666</ele><time>2026-04-04T07:05:21.927Z</time></trkpt><trkpt lat="44.5190783" lon="11.6717817"><ele>10.333333333333334</ele><time>2026-04-04T07:05:22.928Z</time></trkpt><trkpt lat="44.5189968" lon="11.6715344"><ele>10.0</ele><time>2026-04-04T07:05:23.928Z</time></trkpt><trkpt lat="44.5189056" lon="11.671306"><ele>10.0</ele><time>2026-04-04T07:05:24.928Z</time></trkpt><trkpt lat="44.5187935" lon="11.6710984"><ele>10.0</ele><time>2026-04-04T07:05:25.928Z</time></trkpt><trkpt lat="44.5186516" lon="11.670914"><ele>10.0</ele><time>2026-04-04T07:05:26.928Z</time></trkpt><trkpt lat="44.5184829" lon="11.670747"><ele>10.0</ele><time>2026-04-04T07:05:27.928Z</time></trkpt><trkpt lat="44.5182978" lon="11.6705935"><ele>10.0</ele><time>2026-04-04T07:05:28.927Z</time></trkpt><trkpt lat="44.5181028" lon="11.6704477"><ele>10.0</ele><time>2026-04-04T07:05:29.928Z</time></trkpt><trkpt lat="44.5178966" lon="11.6703042"><ele>10.0</ele><time>2026-04-04T07:05:30.928Z</time></trkpt><trkpt lat="44.5176864" lon="11.6701647"><ele>10.0</ele><time>2026-04-04T07:05:31.928Z</time></trkpt><trkpt lat="44.5174744" lon="11.6700223"><ele>10.0</ele><time>2026-04-04T07:05:32.927Z</time></trkpt><trkpt lat="44.5172603" lon="11.6698863"><ele>10.0</ele><time>2026-04-04T07:05:33.928Z</time></trkpt><trkpt lat="44.5170439" lon="11.6697499"><ele>10.5</ele><time>2026-04-04T07:05:34.927Z</time></trkpt><trkpt lat="44.5168254" lon="11.6696196"><ele>11.0</ele><time>2026-04-04T07:05:35.927Z</time></trkpt><trkpt lat="44.5166073" lon="11.6694958"><ele>10.5</ele><time>2026-04-04T07:05:36.928Z</time></trkpt><trkpt lat="44.5163855" lon="11.6693894"><ele>10.0</ele><time>2026-04-04T07:05:37.928Z</time></trkpt><trkpt lat="44.5161642" lon="11.669303"><ele>10.0</ele><time>2026-04-04T07:05:38.928Z</time></trkpt><trkpt lat="44.5159382" lon="11.6692302"><ele>10.0</ele><time>2026-04-04T07:05:39.928Z</time></trkpt><trkpt lat="44.5157161" lon="11.6691428"><ele>10.0</ele><time>2026-04-04T07:05:40.928Z</time></trkpt><trkpt lat="44.5155022" lon="11.6690274"><ele>10.0</ele><time>2026-04-04T07:05:41.927Z</time></trkpt><trkpt lat="44.5152975" lon="11.6688913"><ele>10.0</ele><time>2026-04-04T07:05:42.928Z</time></trkpt><trkpt lat="44.515094" lon="11.6687441"><ele>10.0</ele><time>2026-04-04T07:05:43.928Z</time></trkpt><trkpt lat="44.5148926" lon="11.6685969"><ele>10.0</ele><time>2026-04-04T07:05:44.928Z</time></trkpt><trkpt lat="44.5146911" lon="11.6684503"><ele>10.0</ele><time>2026-04-04T07:05:45.928Z</time></trkpt><trkpt lat="44.5144874" lon="11.668309"><ele>11.0</ele><time>2026-04-04T07:05:46.927Z</time></trkpt><trkpt lat="44.5142835" lon="11.6681721"><ele>12.0</ele><time>2026-04-04T07:05:47.927Z</time></trkpt><trkpt lat="44.5140793" lon="11.6680377"><ele>12.0</ele><time>2026-04-04T07:05:48.927Z</time></trkpt><trkpt lat="44.5138715" lon="11.6679054"><ele>12.0</ele><time>2026-04-04T07:05:49.926Z</time></trkpt><trkpt lat="44.5136645" lon="11.6677755"><ele>12.0</ele><time>2026-04-04T07:05:50.928Z</time></trkpt><trkpt lat="44.5134585" lon="11.667646"><ele>12.0</ele><time>2026-04-04T07:05:51.927Z</time></trkpt><trkpt lat="44.513256" lon="11.6675093"><ele>12.0</ele><time>2026-04-04T07:05:52.927Z</time></trkpt><trkpt lat="44.5130562" lon="11.6673663"><ele>12.0</ele><time>2026-04-04T07:05:53.927Z</time></trkpt><trkpt lat="44.5128612" lon="11.6672131"><ele>12.0</ele><time>2026-04-04T07:05:54.927Z</time></trkpt><trkpt lat="44.5126789" lon="11.6670353"><ele>13.0</ele><time>2026-04-04T07:05:55.927Z</time></trkpt><trkpt lat="44.5125067" lon="11.6668389"><ele>14.0</ele><time>2026-04-04T07:05:56.925Z</time></trkpt><trkpt lat="44.5123405" lon="11.6666356"><ele>15.0</ele><time>2026-04-04T07:05:57.926Z</time></trkpt><trkpt lat="44.5121735" lon="11.6664338"><ele>14.0</ele><time>2026-04-04T07:05:58.926Z</time></trkpt><trkpt lat="44.5120029" lon="11.6662391"><ele>13.0</ele><time>2026-04-04T07:05:59.927Z</time></trkpt><trkpt lat="44.5118237" lon="11.6660643"><ele>12.0</ele><time>2026-04-04T07:06:00.927Z</time></trkpt><trkpt lat="44.5116347" lon="11.6659073"><ele>12.0</ele><time>2026-04-04T07:06:01.927Z</time></trkpt><trkpt lat="44.5114385" lon="11.6657672"><ele>12.0</ele><time>2026-04-04T07:06:02.927Z</time></trkpt><trkpt lat="44.5112373" lon="11.6656349"><ele>12.0</ele><time>2026-04-04T07:06:03.927Z</time></trkpt><trkpt lat="44.5110359" lon="11.6655017"><ele>11.666666666666666</ele><time>2026-04-04T07:06:04.927Z</time></trkpt><trkpt lat="44.5108388" lon="11.6653558"><ele>11.333333333333332</ele><time>2026-04-04T07:06:05.927Z</time></trkpt><trkpt lat="44.5106478" lon="11.6651965"><ele>11.0</ele><time>2026-04-04T07:06:06.926Z</time></trkpt><trkpt lat="44.5104602" lon="11.6650248"><ele>11.0</ele><time>2026-04-04T07:06:07.926Z</time></trkpt><trkpt lat="44.5102725" lon="11.6648484"><ele>11.0</ele><time>2026-04-04T07:06:08.926Z</time></trkpt><trkpt lat="44.510076" lon="11.6646832"><ele>11.0</ele><time>2026-04-04T07:06:09.927Z</time></trkpt><trkpt lat="44.5098667" lon="11.6645353"><ele>11.0</ele><time>2026-04-04T07:06:10.927Z</time></trkpt><trkpt lat="44.5096475" lon="11.6644018"><ele>11.5</ele><time>2026-04-04T07:06:11.927Z</time></trkpt><trkpt lat="44.5094217" lon="11.6642818"><ele>12.0</ele><time>2026-04-04T07:06:12.927Z</time></trkpt><trkpt lat="44.5091953" lon="11.6641617"><ele>12.0</ele><time>2026-04-04T07:06:13.926Z</time></trkpt><trkpt lat="44.5089726" lon="11.66405"><ele>12.0</ele><time>2026-04-04T07:06:14.926Z</time></trkpt><trkpt lat="44.50875" lon="11.6639356"><ele>11.333333333333334</ele><time>2026-04-04T07:06:15.927Z</time></trkpt><trkpt lat="44.5085355" lon="11.6638208"><ele>10.666666666666668</ele><time>2026-04-04T07:06:16.925Z</time></trkpt><trkpt lat="44.5083398" lon="11.6637177"><ele>10.0</ele><time>2026-04-04T07:06:17.927Z</time></trkpt><trkpt lat="44.5081582" lon="11.6636214"><ele>10.666666666666668</ele><time>2026-04-04T07:06:18.927Z</time></trkpt><trkpt lat="44.5079923" lon="11.6635309"><ele>11.333333333333334</ele><time>2026-04-04T07:06:19.927Z</time></trkpt><trkpt lat="44.5078268" lon="11.6634298"><ele>12.0</ele><time>2026-04-04T07:06:20.926Z</time></trkpt><trkpt lat="44.5076516" lon="11.6633161"><ele>12.0</ele><time>2026-04-04T07:06:21.927Z</time></trkpt><trkpt lat="44.5074699" lon="11.6631816"><ele>12.0</ele><time>2026-04-04T07:06:22.925Z</time></trkpt><trkpt lat="44.5072809" lon="11.6630316"><ele>12.0</ele><time>2026-04-04T07:06:23.927Z</time></trkpt><trkpt lat="44.5070839" lon="11.6628742"><ele>12.5</ele><time>2026-04-04T07:06:24.926Z</time></trkpt><trkpt lat="44.5068781" lon="11.6627265"><ele>13.0</ele><time>2026-04-04T07:06:25.926Z</time></trkpt><trkpt lat="44.5066554" lon="11.6625915"><ele>13.0</ele><time>2026-04-04T07:06:26.926Z</time></trkpt><trkpt lat="44.506425" lon="11.6624707"><ele>13.0</ele><time>2026-04-04T07:06:27.927Z</time></trkpt><trkpt lat="44.5061867" lon="11.6623646"><ele>13.0</ele><time>2026-04-04T07:06:28.926Z</time></trkpt><trkpt lat="44.5059493" lon="11.6622769"><ele>13.0</ele><time>2026-04-04T07:06:29.926Z</time></trkpt><trkpt lat="44.5057133" lon="11.6621913"><ele>13.0</ele><time>2026-04-04T07:06:30.926Z</time></trkpt><trkpt lat="44.5054841" lon="11.6620806"><ele>13.0</ele><time>2026-04-04T07:06:31.925Z</time></trkpt><trkpt lat="44.5052712" lon="11.6619499"><ele>12.333333333333332</ele><time>2026-04-04T07:06:32.927Z</time></trkpt><trkpt lat="44.505078" lon="11.6618089"><ele>11.666666666666666</ele><time>2026-04-04T07:06:33.927Z</time></trkpt><trkpt lat="44.5048976" lon="11.6616296"><ele>11.0</ele><time>2026-04-04T07:06:34.927Z</time></trkpt><trkpt lat="44.504718" lon="11.6614265"><ele>11.5</ele><time>2026-04-04T07:06:35.926Z</time></trkpt><trkpt lat="44.50454" lon="11.6612092"><ele>12.0</ele><time>2026-04-04T07:06:36.927Z</time></trkpt><trkpt lat="44.5043635" lon="11.6609834"><ele>12.0</ele><time>2026-04-04T07:06:37.927Z</time></trkpt><trkpt lat="44.5041865" lon="11.6607565"><ele>12.0</ele><time>2026-04-04T07:06:38.926Z</time></trkpt><trkpt lat="44.504006" lon="11.6605286"><ele>12.0</ele><time>2026-04-04T07:06:39.925Z</time></trkpt><trkpt lat="44.503815" lon="11.6603117"><ele>12.0</ele><time>2026-04-04T07:06:40.926Z</time></trkpt><trkpt lat="44.5036099" lon="11.6601231"><ele>12.5</ele><time>2026-04-04T07:06:41.925Z</time></trkpt><trkpt lat="44.5033921" lon="11.6599555"><ele>13.0</ele><time>2026-04-04T07:06:42.926Z</time></trkpt><trkpt lat="44.5031738" lon="11.6597879"><ele>13.0</ele><time>2026-04-04T07:06:43.926Z</time></trkpt><trkpt lat="44.5029559" lon="11.6596193"><ele>13.0</ele><time>2026-04-04T07:06:44.926Z</time></trkpt><trkpt lat="44.5027384" lon="11.6594535"><ele>14.0</ele><time>2026-04-04T07:06:45.925Z</time></trkpt><trkpt lat="44.5025195" lon="11.6592935"><ele>15.0</ele><time>2026-04-04T07:06:46.926Z</time></trkpt><trkpt lat="44.5023008" lon="11.6591357"><ele>15.0</ele><time>2026-04-04T07:06:47.926Z</time></trkpt><trkpt lat="44.5020827" lon="11.6589782"><ele>15.0</ele><time>2026-04-04T07:06:48.926Z</time></trkpt><trkpt lat="44.5018674" lon="11.6588191"><ele>14.5</ele><time>2026-04-04T07:06:49.927Z</time></trkpt><trkpt lat="44.5016545" lon="11.6586576"><ele>14.0</ele><time>2026-04-04T07:06:50.927Z</time></trkpt><trkpt lat="44.5014402" lon="11.6584965"><ele>15.0</ele><time>2026-04-04T07:06:51.926Z</time></trkpt><trkpt lat="44.5012252" lon="11.6583373"><ele>16.0</ele><time>2026-04-04T07:06:52.926Z</time></trkpt><trkpt lat="44.5010106" lon="11.6581771"><ele>16.0</ele><time>2026-04-04T07:06:53.926Z</time></trkpt><trkpt lat="44.5007969" lon="11.6580165"><ele>16.0</ele><time>2026-04-04T07:06:54.926Z</time></trkpt><trkpt lat="44.5005827" lon="11.6578618"><ele>14.0</ele><time>2026-04-04T07:06:55.926Z</time></trkpt><trkpt lat="44.5003662" lon="11.6577092"><ele>12.0</ele><time>2026-04-04T07:06:56.926Z</time></trkpt><trkpt lat="44.5001517" lon="11.6575536"><ele>12.0</ele><time>2026-04-04T07:06:57.927Z</time></trkpt><trkpt lat="44.4999375" lon="11.6573988"><ele>12.0</ele><time>2026-04-04T07:06:58.927Z</time></trkpt><trkpt lat="44.4997258" lon="11.6572395"><ele>12.0</ele><time>2026-04-04T07:06:59.926Z</time></trkpt><trkpt lat="44.4995162" lon="11.6570761"><ele>12.0</ele><time>2026-04-04T07:07:00.926Z</time></trkpt><trkpt lat="44.4993032" lon="11.656914"><ele>13.0</ele><time>2026-04-04T07:07:01.926Z</time></trkpt><trkpt lat="44.4990909" lon="11.6567493"><ele>14.0</ele><time>2026-04-04T07:07:02.926Z</time></trkpt><trkpt lat="44.4988808" lon="11.6565803"><ele>14.0</ele><time>2026-04-04T07:07:03.926Z</time></trkpt><trkpt lat="44.4986731" lon="11.6564101"><ele>14.0</ele><time>2026-04-04T07:07:04.926Z</time></trkpt><trkpt lat="44.4984636" lon="11.6562409"><ele>14.5</ele><time>2026-04-04T07:07:05.926Z</time></trkpt><trkpt lat="44.4982523" lon="11.6560754"><ele>15.0</ele><time>2026-04-04T07:07:06.926Z</time></trkpt><trkpt lat="44.4980407" lon="11.6559114"><ele>15.0</ele><time>2026-04-04T07:07:07.926Z</time></trkpt><trkpt lat="44.4978295" lon="11.655747"><ele>15.0</ele><time>2026-04-04T07:07:08.927Z</time></trkpt><trkpt lat="44.4976196" lon="11.6555806"><ele>15.0</ele><time>2026-04-04T07:07:09.927Z</time></trkpt><trkpt lat="44.4974097" lon="11.6554133"><ele>15.0</ele><time>2026-04-04T07:07:10.927Z</time></trkpt><trkpt lat="44.4971994" lon="11.6552462"><ele>16.0</ele><time>2026-04-04T07:07:11.927Z</time></trkpt><trkpt lat="44.4969889" lon="11.6550805"><ele>17.0</ele><time>2026-04-04T07:07:12.926Z</time></trkpt><trkpt lat="44.4967794" lon="11.6549123"><ele>17.0</ele><time>2026-04-04T07:07:13.925Z</time></trkpt><trkpt lat="44.496568" lon="11.6547486"><ele>17.0</ele><time>2026-04-04T07:07:14.925Z</time></trkpt><trkpt lat="44.4963564" lon="11.6545892"><ele>16.5</ele><time>2026-04-04T07:07:15.927Z</time></trkpt><trkpt lat="44.4961473" lon="11.6544279"><ele>16.0</ele><time>2026-04-04T07:07:16.927Z</time></trkpt><trkpt lat="44.4959378" lon="11.6542671"><ele>16.0</ele><time>2026-04-04T07:07:17.927Z</time></trkpt><trkpt lat="44.4957286" lon="11.6541085"><ele>16.0</ele><time>2026-04-04T07:07:18.926Z</time></trkpt><trkpt lat="44.4955194" lon="11.653954"><ele>16.5</ele><time>2026-04-04T07:07:19.927Z</time></trkpt><trkpt lat="44.4953112" lon="11.6537993"><ele>17.0</ele><time>2026-04-04T07:07:20.927Z</time></trkpt><trkpt lat="44.4951034" lon="11.6536436"><ele>17.5</ele><time>2026-04-04T07:07:21.926Z</time></trkpt><trkpt lat="44.4948951" lon="11.6534894"><ele>18.0</ele><time>2026-04-04T07:07:22.925Z</time></trkpt><trkpt lat="44.4946886" lon="11.653335"><ele>16.5</ele><time>2026-04-04T07:07:23.927Z</time></trkpt><trkpt lat="44.4944816" lon="11.6531818"><ele>15.0</ele><time>2026-04-04T07:07:24.926Z</time></trkpt><trkpt lat="44.4942756" lon="11.6530289"><ele>15.0</ele><time>2026-04-04T07:07:25.927Z</time></trkpt><trkpt lat="44.4940709" lon="11.6528769"><ele>15.0</ele><time>2026-04-04T07:07:26.926Z</time></trkpt><trkpt lat="44.4938661" lon="11.6527272"><ele>15.5</ele><time>2026-04-04T07:07:27.926Z</time></trkpt><trkpt lat="44.493663" lon="11.6525758"><ele>16.0</ele><time>2026-04-04T07:07:28.927Z</time></trkpt><trkpt lat="44.4934629" lon="11.652421"><ele>16.0</ele><time>2026-04-04T07:07:29.926Z</time></trkpt><trkpt lat="44.4932659" lon="11.6522633"><ele>16.0</ele><time>2026-04-04T07:07:30.926Z</time></trkpt><trkpt lat="44.4930699" lon="11.6521038"><ele>16.0</ele><time>2026-04-04T07:07:31.926Z</time></trkpt><trkpt lat="44.4928791" lon="11.6519379"><ele>16.0</ele><time>2026-04-04T07:07:32.926Z</time></trkpt><trkpt lat="44.4926913" lon="11.6517638"><ele>16.0</ele><time>2026-04-04T07:07:33.926Z</time></trkpt><trkpt lat="44.4925079" lon="11.6515841"><ele>16.0</ele><time>2026-04-04T07:07:34.927Z</time></trkpt><trkpt lat="44.4923265" lon="11.6514031"><ele>16.0</ele><time>2026-04-04T07:07:35.927Z</time></trkpt><trkpt lat="44.4921479" lon="11.6512175"><ele>16.666666666666664</ele><time>2026-04-04T07:07:36.927Z</time></trkpt><trkpt lat="44.4919777" lon="11.6510254"><ele>17.333333333333332</ele><time>2026-04-04T07:07:37.926Z</time></trkpt><trkpt lat="44.491828" lon="11.6508384"><ele>18.0</ele><time>2026-04-04T07:07:38.926Z</time></trkpt><trkpt lat="44.4916894" lon="11.650658"><ele>18.0</ele><time>2026-04-04T07:07:39.926Z</time></trkpt><trkpt lat="44.4915466" lon="11.6504951"><ele>18.0</ele><time>2026-04-04T07:07:40.927Z</time></trkpt><trkpt lat="44.4913992" lon="11.6503561"><ele>18.0</ele><time>2026-04-04T07:07:41.926Z</time></trkpt><trkpt lat="44.4912432" lon="11.6502319"><ele>17.666666666666668</ele><time>2026-04-04T07:07:42.926Z</time></trkpt><trkpt lat="44.4910805" lon="11.6501129"><ele>17.333333333333336</ele><time>2026-04-04T07:07:43.927Z</time></trkpt><trkpt lat="44.4909102" lon="11.6500048"><ele>17.0</ele><time>2026-04-04T07:07:44.927Z</time></trkpt><trkpt lat="44.4907278" lon="11.6499025"><ele>17.0</ele><time>2026-04-04T07:07:45.927Z</time></trkpt><trkpt lat="44.4905364" lon="11.6497993"><ele>17.0</ele><time>2026-04-04T07:07:46.927Z</time></trkpt><trkpt lat="44.490338" lon="11.6496922"><ele>17.0</ele><time>2026-04-04T07:07:47.927Z</time></trkpt><trkpt lat="44.4901353" lon="11.6495735"><ele>17.0</ele><time>2026-04-04T07:07:48.927Z</time></trkpt><trkpt lat="44.4899321" lon="11.6494503"><ele>17.0</ele><time>2026-04-04T07:07:49.927Z</time></trkpt><trkpt lat="44.489725" lon="11.6493216"><ele>17.0</ele><time>2026-04-04T07:07:50.927Z</time></trkpt><trkpt lat="44.4895193" lon="11.6491825"><ele>17.0</ele><time>2026-04-04T07:07:51.927Z</time></trkpt><trkpt lat="44.4893127" lon="11.6490352"><ele>17.0</ele><time>2026-04-04T07:07:52.927Z</time></trkpt><trkpt lat="44.4891044" lon="11.6488862"><ele>17.0</ele><time>2026-04-04T07:07:53.927Z</time></trkpt><trkpt lat="44.4888951" lon="11.6487376"><ele>17.0</ele><time>2026-04-04T07:07:54.927Z</time></trkpt><trkpt lat="44.4886863" lon="11.6485916"><ele>18.5</ele><time>2026-04-04T07:07:55.925Z</time></trkpt><trkpt lat="44.4884815" lon="11.648444"><ele>20.0</ele><time>2026-04-04T07:07:56.927Z</time></trkpt><trkpt lat="44.4882816" lon="11.6483001"><ele>20.0</ele><time>2026-04-04T07:07:57.926Z</time></trkpt><trkpt lat="44.4880934" lon="11.6481694"><ele>20.0</ele><time>2026-04-04T07:07:58.926Z</time></trkpt><trkpt lat="44.4879169" lon="11.6480489"><ele>20.0</ele><time>2026-04-04T07:07:59.926Z</time></trkpt><trkpt lat="44.4877546" lon="11.6479339"><ele>19.666666666666668</ele><time>2026-04-04T07:08:00.926Z</time></trkpt><trkpt lat="44.4876012" lon="11.647827"><ele>19.333333333333332</ele><time>2026-04-04T07:08:01.927Z</time></trkpt><trkpt lat="44.487455" lon="11.6477211"><ele>19.0</ele><time>2026-04-04T07:08:02.926Z</time></trkpt><trkpt lat="44.4873196" lon="11.6476188"><ele>19.0</ele><time>2026-04-04T07:08:03.926Z</time></trkpt><trkpt lat="44.4871985" lon="11.6475304"><ele>19.0</ele><time>2026-04-04T07:08:04.926Z</time></trkpt><trkpt lat="44.4870902" lon="11.6474506"><ele>19.0</ele><time>2026-04-04T07:08:05.927Z</time></trkpt><trkpt lat="44.4869971" lon="11.6473719"><ele>19.0</ele><time>2026-04-04T07:08:06.927Z</time></trkpt><trkpt lat="44.4869211" lon="11.6472928"><ele>19.0</ele><time>2026-04-04T07:08:07.926Z</time></trkpt><trkpt lat="44.4868703" lon="11.6472036"><ele>19.0</ele><time>2026-04-04T07:08:08.926Z</time></trkpt><trkpt lat="44.4868417" lon="11.6471096"><ele>19.0</ele><time>2026-04-04T07:08:09.926Z</time></trkpt><trkpt lat="44.4868248" lon="11.6470159"><ele>19.0</ele><time>2026-04-04T07:08:10.926Z</time></trkpt><trkpt lat="44.4868234" lon="11.6469182"><ele>19.0</ele><time>2026-04-04T07:08:11.925Z</time></trkpt><trkpt lat="44.4868348" lon="11.6468083"><ele>19.0</ele><time>2026-04-04T07:08:12.926Z</time></trkpt><trkpt lat="44.4868643" lon="11.6466789"><ele>19.25</ele><time>2026-04-04T07:08:13.927Z</time></trkpt><trkpt lat="44.4869106" lon="11.6465208"><ele>19.5</ele><time>2026-04-04T07:08:14.926Z</time></trkpt><trkpt lat="44.486969" lon="11.6463379"><ele>19.75</ele><time>2026-04-04T07:08:15.927Z</time></trkpt><trkpt lat="44.4870327" lon="11.6461472"><ele>20.0</ele><time>2026-04-04T07:08:16.927Z</time></trkpt><trkpt lat="44.4871019" lon="11.6459416"><ele>20.0</ele><time>2026-04-04T07:08:17.927Z</time></trkpt><trkpt lat="44.4871813" lon="11.6457201"><ele>20.0</ele><time>2026-04-04T07:08:18.927Z</time></trkpt><trkpt lat="44.4872706" lon="11.645476"><ele>20.0</ele><time>2026-04-04T07:08:19.927Z</time></trkpt><trkpt lat="44.48737" lon="11.6452131"><ele>19.666666666666668</ele><time>2026-04-04T07:08:20.926Z</time></trkpt><trkpt lat="44.487476" lon="11.6449501"><ele>19.333333333333332</ele><time>2026-04-04T07:08:21.926Z</time></trkpt><trkpt lat="44.4875881" lon="11.6446748"><ele>19.0</ele><time>2026-04-04T07:08:22.927Z</time></trkpt><trkpt lat="44.4877065" lon="11.6443919"><ele>19.0</ele><time>2026-04-04T07:08:23.926Z</time></trkpt><trkpt lat="44.4878278" lon="11.6441017"><ele>19.0</ele><time>2026-04-04T07:08:24.927Z</time></trkpt><trkpt lat="44.4879491" lon="11.6438056"><ele>18.5</ele><time>2026-04-04T07:08:25.927Z</time></trkpt><trkpt lat="44.4880642" lon="11.6435195"><ele>18.0</ele><time>2026-04-04T07:08:26.927Z</time></trkpt><trkpt lat="44.4881787" lon="11.6432336"><ele>18.0</ele><time>2026-04-04T07:08:27.927Z</time></trkpt><trkpt lat="44.488291" lon="11.6429518"><ele>18.0</ele><time>2026-04-04T07:08:28.927Z</time></trkpt><trkpt lat="44.4884004" lon="11.6426784"><ele>17.666666666666668</ele><time>2026-04-04T07:08:29.927Z</time></trkpt><trkpt lat="44.4885091" lon="11.6424087"><ele>17.333333333333336</ele><time>2026-04-04T07:08:30.927Z</time></trkpt><trkpt lat="44.4886143" lon="11.6421467"><ele>17.0</ele><time>2026-04-04T07:08:31.927Z</time></trkpt><trkpt lat="44.4887185" lon="11.6418861"><ele>17.666666666666668</ele><time>2026-04-04T07:08:32.927Z</time></trkpt><trkpt lat="44.4888196" lon="11.6416312"><ele>18.333333333333332</ele><time>2026-04-04T07:08:33.927Z</time></trkpt><trkpt lat="44.4889182" lon="11.641382"><ele>19.0</ele><time>2026-04-04T07:08:34.927Z</time></trkpt><trkpt lat="44.4890138" lon="11.6411352"><ele>18.333333333333332</ele><time>2026-04-04T07:08:35.927Z</time></trkpt><trkpt lat="44.4891093" lon="11.6408908"><ele>17.666666666666668</ele><time>2026-04-04T07:08:36.927Z</time></trkpt><trkpt lat="44.4892021" lon="11.6406453"><ele>17.0</ele><time>2026-04-04T07:08:37.927Z</time></trkpt><trkpt lat="44.4892958" lon="11.6404046"><ele>17.333333333333336</ele><time>2026-04-04T07:08:38.926Z</time></trkpt><trkpt lat="44.4893868" lon="11.6401583"><ele>17.666666666666668</ele><time>2026-04-04T07:08:39.927Z</time></trkpt><trkpt lat="44.4894796" lon="11.6399043"><ele>18.0</ele><time>2026-04-04T07:08:40.926Z</time></trkpt><trkpt lat="44.4895729" lon="11.6396479"><ele>18.0</ele><time>2026-04-04T07:08:41.927Z</time></trkpt><trkpt lat="44.4896665" lon="11.6393945"><ele>18.0</ele><time>2026-04-04T07:08:42.927Z</time></trkpt><trkpt lat="44.4897576" lon="11.6391376"><ele>18.0</ele><time>2026-04-04T07:08:43.926Z</time></trkpt><trkpt lat="44.4898481" lon="11.6388729"><ele>17.666666666666668</ele><time>2026-04-04T07:08:44.925Z</time></trkpt><trkpt lat="44.4899417" lon="11.6386107"><ele>17.333333333333336</ele><time>2026-04-04T07:08:45.926Z</time></trkpt><trkpt lat="44.490035" lon="11.638348"><ele>17.0</ele><time>2026-04-04T07:08:46.927Z</time></trkpt><trkpt lat="44.4901246" lon="11.638086"><ele>17.0</ele><time>2026-04-04T07:08:47.927Z</time></trkpt><trkpt lat="44.4902171" lon="11.6378309"><ele>17.0</ele><time>2026-04-04T07:08:48.927Z</time></trkpt><trkpt lat="44.4903062" lon="11.6375774"><ele>17.0</ele><time>2026-04-04T07:08:49.927Z</time></trkpt><trkpt lat="44.4903948" lon="11.6373297"><ele>16.666666666666668</ele><time>2026-04-04T07:08:50.927Z</time></trkpt><trkpt lat="44.4904846" lon="11.6370824"><ele>16.333333333333332</ele><time>2026-04-04T07:08:51.925Z</time></trkpt><trkpt lat="44.4905702" lon="11.6368421"><ele>16.0</ele><time>2026-04-04T07:08:52.927Z</time></trkpt><trkpt lat="44.4906582" lon="11.6366046"><ele>16.0</ele><time>2026-04-04T07:08:53.927Z</time></trkpt><trkpt lat="44.4907425" lon="11.6363681"><ele>16.0</ele><time>2026-04-04T07:08:54.927Z</time></trkpt><trkpt lat="44.490828" lon="11.6361327"><ele>16.0</ele><time>2026-04-04T07:08:55.925Z</time></trkpt><trkpt lat="44.4909125" lon="11.6358982"><ele>16.333333333333332</ele><time>2026-04-04T07:08:56.926Z</time></trkpt><trkpt lat="44.4909952" lon="11.6356609"><ele>16.666666666666668</ele><time>2026-04-04T07:08:57.926Z</time></trkpt><trkpt lat="44.4910804" lon="11.63542"><ele>17.0</ele><time>2026-04-04T07:08:58.926Z</time></trkpt><trkpt lat="44.4911744" lon="11.6351718"><ele>16.333333333333336</ele><time>2026-04-04T07:08:59.926Z</time></trkpt><trkpt lat="44.4912705" lon="11.6349115"><ele>15.666666666666668</ele><time>2026-04-04T07:09:00.926Z</time></trkpt><trkpt lat="44.4913693" lon="11.6346398"><ele>15.0</ele><time>2026-04-04T07:09:01.926Z</time></trkpt><trkpt lat="44.4914719" lon="11.6343543"><ele>14.5</ele><time>2026-04-04T07:09:02.926Z</time></trkpt><trkpt lat="44.4915786" lon="11.6340604"><ele>14.0</ele><time>2026-04-04T07:09:03.926Z</time></trkpt><trkpt lat="44.4916882" lon="11.633762"><ele>15.0</ele><time>2026-04-04T07:09:04.926Z</time></trkpt><trkpt lat="44.4917969" lon="11.6334607"><ele>16.0</ele><time>2026-04-04T07:09:05.925Z</time></trkpt><trkpt lat="44.4919066" lon="11.6331547"><ele>16.0</ele><time>2026-04-04T07:09:06.925Z</time></trkpt><trkpt lat="44.4920196" lon="11.6328499"><ele>16.0</ele><time>2026-04-04T07:09:07.925Z</time></trkpt><trkpt lat="44.4921286" lon="11.6325509"><ele>16.0</ele><time>2026-04-04T07:09:08.925Z</time></trkpt><trkpt lat="44.4922325" lon="11.6322618"><ele>16.0</ele><time>2026-04-04T07:09:09.925Z</time></trkpt><trkpt lat="44.4923357" lon="11.6319907"><ele>16.333333333333332</ele><time>2026-04-04T07:09:10.926Z</time></trkpt><trkpt lat="44.4924348" lon="11.6317272"><ele>16.666666666666668</ele><time>2026-04-04T07:09:11.927Z</time></trkpt><trkpt lat="44.492526" lon="11.631478"><ele>17.0</ele><time>2026-04-04T07:09:12.926Z</time></trkpt><trkpt lat="44.4926125" lon="11.6312443"><ele>17.0</ele><time>2026-04-04T07:09:13.926Z</time></trkpt><trkpt lat="44.4926921" lon="11.6310305"><ele>17.0</ele><time>2026-04-04T07:09:14.927Z</time></trkpt><trkpt lat="44.4927745" lon="11.6308343"><ele>17.0</ele><time>2026-04-04T07:09:15.927Z</time></trkpt><trkpt lat="44.4928623" lon="11.6306611"><ele>17.0</ele><time>2026-04-04T07:09:16.927Z</time></trkpt><trkpt lat="44.4929716" lon="11.6305092"><ele>17.0</ele><time>2026-04-04T07:09:17.927Z</time></trkpt><trkpt lat="44.4931088" lon="11.6303807"><ele>17.0</ele><time>2026-04-04T07:09:18.927Z</time></trkpt><trkpt lat="44.4932742" lon="11.6302783"><ele>17.0</ele><time>2026-04-04T07:09:19.926Z</time></trkpt><trkpt lat="44.4934568" lon="11.6301898"><ele>17.0</ele><time>2026-04-04T07:09:20.927Z</time></trkpt><trkpt lat="44.4936427" lon="11.6301008"><ele>17.0</ele><time>2026-04-04T07:09:21.927Z</time></trkpt><trkpt lat="44.493819" lon="11.6300149"><ele>16.666666666666668</ele><time>2026-04-04T07:09:22.926Z</time></trkpt><trkpt lat="44.4939806" lon="11.6299336"><ele>16.333333333333332</ele><time>2026-04-04T07:09:23.926Z</time></trkpt><trkpt lat="44.4941292" lon="11.6298603"><ele>16.0</ele><time>2026-04-04T07:09:24.927Z</time></trkpt><trkpt lat="44.4942646" lon="11.6297899"><ele>16.0</ele><time>2026-04-04T07:09:25.927Z</time></trkpt><trkpt lat="44.4943902" lon="11.6297029"><ele>16.0</ele><time>2026-04-04T07:09:26.927Z</time></trkpt><trkpt lat="44.4944996" lon="11.6295816"><ele>16.0</ele><time>2026-04-04T07:09:27.927Z</time></trkpt><trkpt lat="44.4945904" lon="11.6294281"><ele>16.0</ele><time>2026-04-04T07:09:28.926Z</time></trkpt><trkpt lat="44.494658" lon="11.6292462"><ele>16.0</ele><time>2026-04-04T07:09:29.926Z</time></trkpt><trkpt lat="44.4946917" lon="11.6290436"><ele>16.0</ele><time>2026-04-04T07:09:30.926Z</time></trkpt><trkpt lat="44.4946885" lon="11.6288258"><ele>16.0</ele><time>2026-04-04T07:09:31.926Z</time></trkpt><trkpt lat="44.4946446" lon="11.6286141"><ele>15.333333333333332</ele><time>2026-04-04T07:09:32.926Z</time></trkpt><trkpt lat="44.4945621" lon="11.6284218"><ele>14.666666666666668</ele><time>2026-04-04T07:09:33.926Z</time></trkpt><trkpt lat="44.4944471" lon="11.6282627"><ele>14.0</ele><time>2026-04-04T07:09:34.926Z</time></trkpt><trkpt lat="44.4943005" lon="11.628143"><ele>14.0</ele><time>2026-04-04T07:09:35.925Z</time></trkpt><trkpt lat="44.4941301" lon="11.6280453"><ele>14.0</ele><time>2026-04-04T07:09:36.927Z</time></trkpt><trkpt lat="44.4939503" lon="11.6279431"><ele>14.0</ele><time>2026-04-04T07:09:37.926Z</time></trkpt><trkpt lat="44.4937668" lon="11.6278329"><ele>14.666666666666668</ele><time>2026-04-04T07:09:38.927Z</time></trkpt><trkpt lat="44.4935737" lon="11.6277141"><ele>15.333333333333332</ele><time>2026-04-04T07:09:39.926Z</time></trkpt><trkpt lat="44.4933731" lon="11.627589"><ele>16.0</ele><time>2026-04-04T07:09:40.926Z</time></trkpt><trkpt lat="44.4931657" lon="11.6274596"><ele>16.0</ele><time>2026-04-04T07:09:41.926Z</time></trkpt><trkpt lat="44.4929564" lon="11.6273331"><ele>16.0</ele><time>2026-04-04T07:09:42.927Z</time></trkpt><trkpt lat="44.4927414" lon="11.6272064"><ele>16.0</ele><time>2026-04-04T07:09:43.927Z</time></trkpt><trkpt lat="44.4925237" lon="11.627079"><ele>16.0</ele><time>2026-04-04T07:09:44.926Z</time></trkpt><trkpt lat="44.4923077" lon="11.6269523"><ele>16.0</ele><time>2026-04-04T07:09:45.927Z</time></trkpt><trkpt lat="44.4920962" lon="11.6268236"><ele>16.0</ele><time>2026-04-04T07:09:46.926Z</time></trkpt><trkpt lat="44.4918849" lon="11.6266936"><ele>17.0</ele><time>2026-04-04T07:09:47.927Z</time></trkpt><trkpt lat="44.4916748" lon="11.6265585"><ele>18.0</ele><time>2026-04-04T07:09:48.926Z</time></trkpt><trkpt lat="44.4914661" lon="11.6264203"><ele>18.5</ele><time>2026-04-04T07:09:49.925Z</time></trkpt><trkpt lat="44.4912557" lon="11.6262839"><ele>19.0</ele><time>2026-04-04T07:09:50.926Z</time></trkpt><trkpt lat="44.4910446" lon="11.6261505"><ele>19.5</ele><time>2026-04-04T07:09:51.926Z</time></trkpt><trkpt lat="44.4908359" lon="11.6260133"><ele>20.0</ele><time>2026-04-04T07:09:52.926Z</time></trkpt><trkpt lat="44.4906288" lon="11.6258767"><ele>18.5</ele><time>2026-04-04T07:09:53.926Z</time></trkpt><trkpt lat="44.4904233" lon="11.6257365"><ele>17.0</ele><time>2026-04-04T07:09:54.927Z</time></trkpt><trkpt lat="44.4902189" lon="11.6255979"><ele>17.0</ele><time>2026-04-04T07:09:55.927Z</time></trkpt><trkpt lat="44.4900175" lon="11.6254599"><ele>17.0</ele><time>2026-04-04T07:09:56.927Z</time></trkpt><trkpt lat="44.4898153" lon="11.6253235"><ele>17.0</ele><time>2026-04-04T07:09:57.927Z</time></trkpt><trkpt lat="44.4896144" lon="11.6251882"><ele>17.666666666666668</ele><time>2026-04-04T07:09:58.926Z</time></trkpt><trkpt lat="44.4894145" lon="11.6250543"><ele>18.333333333333332</ele><time>2026-04-04T07:09:59.927Z</time></trkpt><trkpt lat="44.4892146" lon="11.6249192"><ele>19.0</ele><time>2026-04-04T07:10:00.927Z</time></trkpt><trkpt lat="44.4890126" lon="11.6247836"><ele>19.0</ele><time>2026-04-04T07:10:01.927Z</time></trkpt><trkpt lat="44.488813" lon="11.6246466"><ele>19.0</ele><time>2026-04-04T07:10:02.927Z</time></trkpt><trkpt lat="44.4886139" lon="11.6245085"><ele>19.0</ele><time>2026-04-04T07:10:03.927Z</time></trkpt><trkpt lat="44.4884122" lon="11.6243687"><ele>19.5</ele><time>2026-04-04T07:10:04.927Z</time></trkpt><trkpt lat="44.4882088" lon="11.6242307"><ele>20.0</ele><time>2026-04-04T07:10:05.927Z</time></trkpt><trkpt lat="44.4880062" lon="11.6240926"><ele>20.5</ele><time>2026-04-04T07:10:06.925Z</time></trkpt><trkpt lat="44.4878035" lon="11.6239563"><ele>21.0</ele><time>2026-04-04T07:10:07.927Z</time></trkpt><trkpt lat="44.4875998" lon="11.6238184"><ele>21.0</ele><time>2026-04-04T07:10:08.927Z</time></trkpt><trkpt lat="44.4873951" lon="11.6236796"><ele>21.0</ele><time>2026-04-04T07:10:09.926Z</time></trkpt><trkpt lat="44.4871875" lon="11.6235389"><ele>23.0</ele><time>2026-04-04T07:10:10.926Z</time></trkpt><trkpt lat="44.4869791" lon="11.6233969"><ele>25.0</ele><time>2026-04-04T07:10:11.927Z</time></trkpt><trkpt lat="44.4867673" lon="11.6232548"><ele>25.0</ele><time>2026-04-04T07:10:12.926Z</time></trkpt><trkpt lat="44.4865501" lon="11.6231164"><ele>25.0</ele><time>2026-04-04T07:10:13.927Z</time></trkpt><trkpt lat="44.4863291" lon="11.6229797"><ele>23.0</ele><time>2026-04-04T07:10:14.927Z</time></trkpt><trkpt lat="44.4861072" lon="11.6228433"><ele>21.0</ele><time>2026-04-04T07:10:15.927Z</time></trkpt><trkpt lat="44.4858855" lon="11.6227026"><ele>20.5</ele><time>2026-04-04T07:10:16.927Z</time></trkpt><trkpt lat="44.4856637" lon="11.6225609"><ele>20.0</ele><time>2026-04-04T07:10:17.927Z</time></trkpt><trkpt lat="44.4854416" lon="11.6224196"><ele>20.0</ele><time>2026-04-04T07:10:18.927Z</time></trkpt><trkpt lat="44.4852216" lon="11.6222788"><ele>20.0</ele><time>2026-04-04T07:10:19.927Z</time></trkpt><trkpt lat="44.4850043" lon="11.6221391"><ele>20.0</ele><time>2026-04-04T07:10:20.927Z</time></trkpt><trkpt lat="44.484788" lon="11.6220019"><ele>20.0</ele><time>2026-04-04T07:10:21.926Z</time></trkpt><trkpt lat="44.4845735" lon="11.6218676"><ele>21.5</ele><time>2026-04-04T07:10:22.926Z</time></trkpt><trkpt lat="44.4843612" lon="11.6217331"><ele>23.0</ele><time>2026-04-04T07:10:23.927Z</time></trkpt><trkpt lat="44.4841496" lon="11.6215984"><ele>23.0</ele><time>2026-04-04T07:10:24.927Z</time></trkpt><trkpt lat="44.4839382" lon="11.6214634"><ele>23.0</ele><time>2026-04-04T07:10:25.927Z</time></trkpt><trkpt lat="44.4837254" lon="11.6213296"><ele>23.0</ele><time>2026-04-04T07:10:26.927Z</time></trkpt><trkpt lat="44.4835118" lon="11.6211951"><ele>23.0</ele><time>2026-04-04T07:10:27.926Z</time></trkpt><trkpt lat="44.4832987" lon="11.6210546"><ele>23.0</ele><time>2026-04-04T07:10:28.926Z</time></trkpt><trkpt lat="44.4830852" lon="11.6209054"><ele>23.0</ele><time>2026-04-04T07:10:29.926Z</time></trkpt><trkpt lat="44.4828719" lon="11.6207481"><ele>22.5</ele><time>2026-04-04T07:10:30.927Z</time></trkpt><trkpt lat="44.4826553" lon="11.6205869"><ele>22.0</ele><time>2026-04-04T07:10:31.927Z</time></trkpt><trkpt lat="44.4824419" lon="11.6204235"><ele>22.5</ele><time>2026-04-04T07:10:32.926Z</time></trkpt><trkpt lat="44.4822285" lon="11.6202625"><ele>23.0</ele><time>2026-04-04T07:10:33.925Z</time></trkpt><trkpt lat="44.4820162" lon="11.6201004"><ele>21.5</ele><time>2026-04-04T07:10:34.926Z</time></trkpt><trkpt lat="44.4818041" lon="11.6199416"><ele>20.0</ele><time>2026-04-04T07:10:35.926Z</time></trkpt><trkpt lat="44.4815934" lon="11.6197844"><ele>20.0</ele><time>2026-04-04T07:10:36.926Z</time></trkpt><trkpt lat="44.4813847" lon="11.6196257"><ele>20.0</ele><time>2026-04-04T07:10:37.926Z</time></trkpt><trkpt lat="44.4811784" lon="11.6194691"><ele>22.0</ele><time>2026-04-04T07:10:38.927Z</time></trkpt><trkpt lat="44.4809751" lon="11.6193127"><ele>24.0</ele><time>2026-04-04T07:10:39.927Z</time></trkpt><trkpt lat="44.4807718" lon="11.6191598"><ele>24.0</ele><time>2026-04-04T07:10:40.927Z</time></trkpt><trkpt lat="44.4805709" lon="11.6190084"><ele>24.0</ele><time>2026-04-04T07:10:41.927Z</time></trkpt><trkpt lat="44.4803712" lon="11.6188581"><ele>24.333333333333336</ele><time>2026-04-04T07:10:42.927Z</time></trkpt><trkpt lat="44.4801731" lon="11.618707"><ele>24.666666666666668</ele><time>2026-04-04T07:10:43.927Z</time></trkpt><trkpt lat="44.4799772" lon="11.6185568"><ele>25.0</ele><time>2026-04-04T07:10:44.927Z</time></trkpt><trkpt lat="44.4797845" lon="11.6184077"><ele>24.666666666666668</ele><time>2026-04-04T07:10:45.927Z</time></trkpt><trkpt lat="44.4795953" lon="11.6182633"><ele>24.333333333333336</ele><time>2026-04-04T07:10:46.926Z</time></trkpt><trkpt lat="44.4794056" lon="11.6181229"><ele>24.0</ele><time>2026-04-04T07:10:47.927Z</time></trkpt><trkpt lat="44.4792183" lon="11.6179842"><ele>24.0</ele><time>2026-04-04T07:10:48.926Z</time></trkpt><trkpt lat="44.4790327" lon="11.6178458"><ele>24.0</ele><time>2026-04-04T07:10:49.926Z</time></trkpt><trkpt lat="44.4788471" lon="11.6177072"><ele>24.0</ele><time>2026-04-04T07:10:50.927Z</time></trkpt><trkpt lat="44.478661" lon="11.6175676"><ele>24.666666666666664</ele><time>2026-04-04T07:10:51.927Z</time></trkpt><trkpt lat="44.4784741" lon="11.6174286"><ele>25.333333333333332</ele><time>2026-04-04T07:10:52.926Z</time></trkpt><trkpt lat="44.4782868" lon="11.6172888"><ele>26.0</ele><time>2026-04-04T07:10:53.927Z</time></trkpt><trkpt lat="44.4780959" lon="11.6171461"><ele>25.0</ele><time>2026-04-04T07:10:54.927Z</time></trkpt><trkpt lat="44.4779005" lon="11.6170021"><ele>24.0</ele><time>2026-04-04T07:10:55.926Z</time></trkpt><trkpt lat="44.4777037" lon="11.6168546"><ele>23.0</ele><time>2026-04-04T07:10:56.927Z</time></trkpt><trkpt lat="44.4775046" lon="11.6167091"><ele>23.0</ele><time>2026-04-04T07:10:57.927Z</time></trkpt><trkpt lat="44.477301" lon="11.6165668"><ele>23.0</ele><time>2026-04-04T07:10:58.927Z</time></trkpt><trkpt lat="44.477092" lon="11.6164344"><ele>23.0</ele><time>2026-04-04T07:10:59.927Z</time></trkpt><trkpt lat="44.4768793" lon="11.616315"><ele>23.0</ele><time>2026-04-04T07:11:00.927Z</time></trkpt><trkpt lat="44.476659" lon="11.6162123"><ele>23.5</ele><time>2026-04-04T07:11:01.926Z</time></trkpt><trkpt lat="44.4764341" lon="11.6161207"><ele>24.0</ele><time>2026-04-04T07:11:02.926Z</time></trkpt><trkpt lat="44.4762083" lon="11.6160417"><ele>24.0</ele><time>2026-04-04T07:11:03.927Z</time></trkpt><trkpt lat="44.475978" lon="11.615974"><ele>24.0</ele><time>2026-04-04T07:11:04.926Z</time></trkpt><trkpt lat="44.4757457" lon="11.6159141"><ele>24.0</ele><time>2026-04-04T07:11:05.926Z</time></trkpt><trkpt lat="44.4755117" lon="11.6158574"><ele>24.0</ele><time>2026-04-04T07:11:06.926Z</time></trkpt><trkpt lat="44.475276" lon="11.6157989"><ele>24.0</ele><time>2026-04-04T07:11:07.925Z</time></trkpt><trkpt lat="44.4750397" lon="11.6157438"><ele>24.0</ele><time>2026-04-04T07:11:08.926Z</time></trkpt><trkpt lat="44.4748024" lon="11.6156882"><ele>24.5</ele><time>2026-04-04T07:11:09.926Z</time></trkpt><trkpt lat="44.4745669" lon="11.6156328"><ele>25.0</ele><time>2026-04-04T07:11:10.926Z</time></trkpt><trkpt lat="44.4743304" lon="11.6155779"><ele>25.0</ele><time>2026-04-04T07:11:11.926Z</time></trkpt><trkpt lat="44.4740935" lon="11.6155236"><ele>25.0</ele><time>2026-04-04T07:11:12.926Z</time></trkpt><trkpt lat="44.4738565" lon="11.6154686"><ele>26.0</ele><time>2026-04-04T07:11:13.926Z</time></trkpt><trkpt lat="44.4736204" lon="11.6154154"><ele>27.0</ele><time>2026-04-04T07:11:14.926Z</time></trkpt><trkpt lat="44.4733826" lon="11.6153682"><ele>27.0</ele><time>2026-04-04T07:11:15.926Z</time></trkpt><trkpt lat="44.4731409" lon="11.6153298"><ele>27.0</ele><time>2026-04-04T07:11:16.926Z</time></trkpt><trkpt lat="44.4728987" lon="11.6153042"><ele>26.5</ele><time>2026-04-04T07:11:17.926Z</time></trkpt><trkpt lat="44.4726564" lon="11.6152944"><ele>26.0</ele><time>2026-04-04T07:11:18.925Z</time></trkpt><trkpt lat="44.4724134" lon="11.6153024"><ele>26.0</ele><time>2026-04-04T07:11:19.926Z</time></trkpt><trkpt lat="44.4721715" lon="11.6153292"><ele>26.0</ele><time>2026-04-04T07:11:20.926Z</time></trkpt><trkpt lat="44.4719305" lon="11.6153714"><ele>26.0</ele><time>2026-04-04T07:11:21.926Z</time></trkpt><trkpt lat="44.4716899" lon="11.615417"><ele>26.0</ele><time>2026-04-04T07:11:22.927Z</time></trkpt><trkpt lat="44.4714476" lon="11.6154618"><ele>26.0</ele><time>2026-04-04T07:11:23.927Z</time></trkpt><trkpt lat="44.4712033" lon="11.6155078"><ele>26.0</ele><time>2026-04-04T07:11:24.927Z</time></trkpt><trkpt lat="44.4709573" lon="11.6155533"><ele>26.0</ele><time>2026-04-04T07:11:25.926Z</time></trkpt><trkpt lat="44.4707092" lon="11.6155974"><ele>26.0</ele><time>2026-04-04T07:11:26.926Z</time></trkpt><trkpt lat="44.4704595" lon="11.6156436"><ele>26.5</ele><time>2026-04-04T07:11:27.926Z</time></trkpt><trkpt lat="44.4702081" lon="11.6156918"><ele>27.0</ele><time>2026-04-04T07:11:28.926Z</time></trkpt><trkpt lat="44.4699569" lon="11.6157408"><ele>27.0</ele><time>2026-04-04T07:11:29.927Z</time></trkpt><trkpt lat="44.4697062" lon="11.6157896"><ele>27.0</ele><time>2026-04-04T07:11:30.926Z</time></trkpt><trkpt lat="44.4694572" lon="11.6158386"><ele>27.5</ele><time>2026-04-04T07:11:31.926Z</time></trkpt><trkpt lat="44.4692082" lon="11.6158851"><ele>28.0</ele><time>2026-04-04T07:11:32.926Z</time></trkpt><trkpt lat="44.4689618" lon="11.6159325"><ele>28.0</ele><time>2026-04-04T07:11:33.926Z</time></trkpt><trkpt lat="44.4687152" lon="11.6159794"><ele>28.0</ele><time>2026-04-04T07:11:34.925Z</time></trkpt><trkpt lat="44.4684698" lon="11.6160269"><ele>28.0</ele><time>2026-04-04T07:11:35.926Z</time></trkpt><trkpt lat="44.468229" lon="11.6160737"><ele>28.0</ele><time>2026-04-04T07:11:36.926Z</time></trkpt><trkpt lat="44.4679873" lon="11.6161215"><ele>28.0</ele><time>2026-04-04T07:11:37.925Z</time></trkpt><trkpt lat="44.4677474" lon="11.6161691"><ele>28.0</ele><time>2026-04-04T07:11:38.926Z</time></trkpt><trkpt lat="44.4675101" lon="11.6162145"><ele>28.0</ele><time>2026-04-04T07:11:39.925Z</time></trkpt><trkpt lat="44.4672746" lon="11.6162485"><ele>28.0</ele><time>2026-04-04T07:11:40.926Z</time></trkpt><trkpt lat="44.4670388" lon="11.6162608"><ele>29.0</ele><time>2026-04-04T07:11:41.925Z</time></trkpt><trkpt lat="44.4668032" lon="11.6162495"><ele>30.0</ele><time>2026-04-04T07:11:42.927Z</time></trkpt><trkpt lat="44.4665675" lon="11.6162169"><ele>30.0</ele><time>2026-04-04T07:11:43.927Z</time></trkpt><trkpt lat="44.4663357" lon="11.6161586"><ele>30.0</ele><time>2026-04-04T07:11:44.927Z</time></trkpt><trkpt lat="44.4661059" lon="11.6160749"><ele>29.5</ele><time>2026-04-04T07:11:45.928Z</time></trkpt><trkpt lat="44.4658778" lon="11.6159719"><ele>29.0</ele><time>2026-04-04T07:11:46.927Z</time></trkpt><trkpt lat="44.4656501" lon="11.6158447"><ele>29.0</ele><time>2026-04-04T07:11:47.927Z</time></trkpt><trkpt lat="44.4654265" lon="11.6156952"><ele>29.0</ele><time>2026-04-04T07:11:48.926Z</time></trkpt><trkpt lat="44.465203" lon="11.6155227"><ele>29.0</ele><time>2026-04-04T07:11:49.926Z</time></trkpt><trkpt lat="44.4649858" lon="11.6153392"><ele>29.0</ele><time>2026-04-04T07:11:50.926Z</time></trkpt><trkpt lat="44.4647712" lon="11.6151563"><ele>30.0</ele><time>2026-04-04T07:11:51.925Z</time></trkpt><trkpt lat="44.4645624" lon="11.6149791"><ele>31.0</ele><time>2026-04-04T07:11:52.926Z</time></trkpt><trkpt lat="44.4643603" lon="11.6148042"><ele>31.0</ele><time>2026-04-04T07:11:53.926Z</time></trkpt><trkpt lat="44.4641594" lon="11.6146296"><ele>31.0</ele><time>2026-04-04T07:11:54.925Z</time></trkpt><trkpt lat="44.4639578" lon="11.6144495"><ele>31.0</ele><time>2026-04-04T07:11:55.926Z</time></trkpt><trkpt lat="44.4637571" lon="11.6142675"><ele>31.0</ele><time>2026-04-04T07:11:56.925Z</time></trkpt><trkpt lat="44.4635541" lon="11.6140878"><ele>31.0</ele><time>2026-04-04T07:11:57.927Z</time></trkpt><trkpt lat="44.4633521" lon="11.613909"><ele>31.0</ele><time>2026-04-04T07:11:58.926Z</time></trkpt><trkpt lat="44.4631496" lon="11.6137323"><ele>30.5</ele><time>2026-04-04T07:11:59.926Z</time></trkpt><trkpt lat="44.4629469" lon="11.6135555"><ele>30.0</ele><time>2026-04-04T07:12:00.927Z</time></trkpt><trkpt lat="44.462744" lon="11.6133795"><ele>30.0</ele><time>2026-04-04T07:12:01.926Z</time></trkpt><trkpt lat="44.4625407" lon="11.6132078"><ele>30.0</ele><time>2026-04-04T07:12:02.926Z</time></trkpt><trkpt lat="44.4623369" lon="11.6130346"><ele>30.0</ele><time>2026-04-04T07:12:03.927Z</time></trkpt><trkpt lat="44.4621317" lon="11.6128589"><ele>30.0</ele><time>2026-04-04T07:12:04.927Z</time></trkpt><trkpt lat="44.4619286" lon="11.6126836"><ele>31.5</ele><time>2026-04-04T07:12:05.926Z</time></trkpt><trkpt lat="44.461725" lon="11.612509"><ele>33.0</ele><time>2026-04-04T07:12:06.926Z</time></trkpt><trkpt lat="44.4615209" lon="11.6123298"><ele>33.0</ele><time>2026-04-04T07:12:07.926Z</time></trkpt><trkpt lat="44.461312" lon="11.6121458"><ele>33.0</ele><time>2026-04-04T07:12:08.926Z</time></trkpt><trkpt lat="44.461091" lon="11.6119591"><ele>32.0</ele><time>2026-04-04T07:12:09.926Z</time></trkpt><trkpt lat="44.460867" lon="11.611768"><ele>31.0</ele><time>2026-04-04T07:12:10.926Z</time></trkpt><trkpt lat="44.4606412" lon="11.6115742"><ele>32.0</ele><time>2026-04-04T07:12:11.927Z</time></trkpt><trkpt lat="44.4604158" lon="11.6113789"><ele>33.0</ele><time>2026-04-04T07:12:12.927Z</time></trkpt><trkpt lat="44.4601902" lon="11.611185"><ele>33.0</ele><time>2026-04-04T07:12:13.927Z</time></trkpt><trkpt lat="44.4599689" lon="11.6109946"><ele>33.0</ele><time>2026-04-04T07:12:14.926Z</time></trkpt><trkpt lat="44.4597482" lon="11.6108075"><ele>33.0</ele><time>2026-04-04T07:12:15.927Z</time></trkpt><trkpt lat="44.459524" lon="11.6106282"><ele>33.0</ele><time>2026-04-04T07:12:16.926Z</time></trkpt><trkpt lat="44.4593" lon="11.6104574"><ele>32.5</ele><time>2026-04-04T07:12:17.926Z</time></trkpt><trkpt lat="44.4590776" lon="11.6102875"><ele>32.0</ele><time>2026-04-04T07:12:18.926Z</time></trkpt><trkpt lat="44.4588563" lon="11.6101218"><ele>32.5</ele><time>2026-04-04T07:12:19.926Z</time></trkpt><trkpt lat="44.4586371" lon="11.6099591"><ele>33.0</ele><time>2026-04-04T07:12:20.927Z</time></trkpt><trkpt lat="44.45842" lon="11.6097958"><ele>33.0</ele><time>2026-04-04T07:12:21.927Z</time></trkpt><trkpt lat="44.4582019" lon="11.6096314"><ele>33.0</ele><time>2026-04-04T07:12:22.927Z</time></trkpt><trkpt lat="44.4579848" lon="11.609465"><ele>33.5</ele><time>2026-04-04T07:12:23.927Z</time></trkpt><trkpt lat="44.457765" lon="11.6093013"><ele>34.0</ele><time>2026-04-04T07:12:24.927Z</time></trkpt><trkpt lat="44.4575449" lon="11.6091388"><ele>34.0</ele><time>2026-04-04T07:12:25.926Z</time></trkpt><trkpt lat="44.4573239" lon="11.6089749"><ele>34.0</ele><time>2026-04-04T07:12:26.925Z</time></trkpt><trkpt lat="44.4571051" lon="11.6088131"><ele>34.0</ele><time>2026-04-04T07:12:27.927Z</time></trkpt><trkpt lat="44.4568885" lon="11.6086523"><ele>34.0</ele><time>2026-04-04T07:12:28.927Z</time></trkpt><trkpt lat="44.4566735" lon="11.608492"><ele>34.0</ele><time>2026-04-04T07:12:29.927Z</time></trkpt><trkpt lat="44.4564595" lon="11.6083326"><ele>34.0</ele><time>2026-04-04T07:12:30.926Z</time></trkpt><trkpt lat="44.4562477" lon="11.6081715"><ele>34.0</ele><time>2026-04-04T07:12:31.927Z</time></trkpt><trkpt lat="44.4560353" lon="11.608013"><ele>34.0</ele><time>2026-04-04T07:12:32.927Z</time></trkpt><trkpt lat="44.4558241" lon="11.6078547"><ele>34.0</ele><time>2026-04-04T07:12:33.927Z</time></trkpt><trkpt lat="44.4556131" lon="11.6076968"><ele>34.0</ele><time>2026-04-04T07:12:34.927Z</time></trkpt><trkpt lat="44.4554019" lon="11.6075402"><ele>34.5</ele><time>2026-04-04T07:12:35.925Z</time></trkpt><trkpt lat="44.4551909" lon="11.607382"><ele>35.0</ele><time>2026-04-04T07:12:36.926Z</time></trkpt><trkpt lat="44.4549817" lon="11.6072221"><ele>35.0</ele><time>2026-04-04T07:12:37.926Z</time></trkpt><trkpt lat="44.4547744" lon="11.6070631"><ele>35.0</ele><time>2026-04-04T07:12:38.925Z</time></trkpt><trkpt lat="44.4545641" lon="11.6069088"><ele>36.0</ele><time>2026-04-04T07:12:39.926Z</time></trkpt><trkpt lat="44.4543493" lon="11.6067629"><ele>37.0</ele><time>2026-04-04T07:12:40.926Z</time></trkpt><trkpt lat="44.4541348" lon="11.6066227"><ele>37.0</ele><time>2026-04-04T07:12:41.926Z</time></trkpt><trkpt lat="44.4539165" lon="11.6064916"><ele>37.0</ele><time>2026-04-04T07:12:42.927Z</time></trkpt><trkpt lat="44.4536939" lon="11.6063695"><ele>37.0</ele><time>2026-04-04T07:12:43.927Z</time></trkpt><trkpt lat="44.4534648" lon="11.6062645"><ele>37.0</ele><time>2026-04-04T07:12:44.926Z</time></trkpt><trkpt lat="44.4532313" lon="11.6061743"><ele>36.0</ele><time>2026-04-04T07:12:45.926Z</time></trkpt><trkpt lat="44.4529943" lon="11.6060994"><ele>35.0</ele><time>2026-04-04T07:12:46.926Z</time></trkpt><trkpt lat="44.4527562" lon="11.6060385"><ele>35.0</ele><time>2026-04-04T07:12:47.926Z</time></trkpt><trkpt lat="44.4525169" lon="11.60599"><ele>35.0</ele><time>2026-04-04T07:12:48.926Z</time></trkpt><trkpt lat="44.4522776" lon="11.6059564"><ele>35.0</ele><time>2026-04-04T07:12:49.926Z</time></trkpt><trkpt lat="44.4520392" lon="11.6059425"><ele>35.0</ele><time>2026-04-04T07:12:50.926Z</time></trkpt><trkpt lat="44.4518011" lon="11.6059415"><ele>35.0</ele><time>2026-04-04T07:12:51.926Z</time></trkpt><trkpt lat="44.4515626" lon="11.6059522"><ele>35.0</ele><time>2026-04-04T07:12:52.926Z</time></trkpt><trkpt lat="44.4513243" lon="11.6059789"><ele>35.0</ele><time>2026-04-04T07:12:53.925Z</time></trkpt><trkpt lat="44.4510861" lon="11.6060163"><ele>35.0</ele><time>2026-04-04T07:12:54.926Z</time></trkpt><trkpt lat="44.4508459" lon="11.6060591"><ele>35.0</ele><time>2026-04-04T07:12:55.927Z</time></trkpt><trkpt lat="44.4506039" lon="11.606104"><ele>35.0</ele><time>2026-04-04T07:12:56.927Z</time></trkpt><trkpt lat="44.4503591" lon="11.6061511"><ele>36.5</ele><time>2026-04-04T07:12:57.926Z</time></trkpt><trkpt lat="44.4501129" lon="11.6061978"><ele>38.0</ele><time>2026-04-04T07:12:58.925Z</time></trkpt><trkpt lat="44.4498674" lon="11.6062465"><ele>38.5</ele><time>2026-04-04T07:12:59.926Z</time></trkpt><trkpt lat="44.4496226" lon="11.6062981"><ele>39.0</ele><time>2026-04-04T07:13:00.926Z</time></trkpt><trkpt lat="44.449377" lon="11.606348"><ele>39.0</ele><time>2026-04-04T07:13:01.926Z</time></trkpt><trkpt lat="44.4491337" lon="11.606399"><ele>39.0</ele><time>2026-04-04T07:13:02.926Z</time></trkpt><trkpt lat="44.4488921" lon="11.6064512"><ele>38.5</ele><time>2026-04-04T07:13:03.926Z</time></trkpt><trkpt lat="44.4486528" lon="11.6065049"><ele>38.0</ele><time>2026-04-04T07:13:04.926Z</time></trkpt><trkpt lat="44.4484145" lon="11.60656"><ele>38.0</ele><time>2026-04-04T07:13:05.925Z</time></trkpt><trkpt lat="44.4481769" lon="11.606613"><ele>38.0</ele><time>2026-04-04T07:13:06.927Z</time></trkpt><trkpt lat="44.4479417" lon="11.6066646"><ele>38.5</ele><time>2026-04-04T07:13:07.927Z</time></trkpt><trkpt lat="44.4477105" lon="11.6067151"><ele>39.0</ele><time>2026-04-04T07:13:08.926Z</time></trkpt><trkpt lat="44.4474843" lon="11.6067633"><ele>39.0</ele><time>2026-04-04T07:13:09.926Z</time></trkpt><trkpt lat="44.4472609" lon="11.6068097"><ele>39.0</ele><time>2026-04-04T07:13:10.925Z</time></trkpt><trkpt lat="44.4470395" lon="11.6068541"><ele>39.0</ele><time>2026-04-04T07:13:11.926Z</time></trkpt><trkpt lat="44.4468189" lon="11.6068988"><ele>39.0</ele><time>2026-04-04T07:13:12.925Z</time></trkpt><trkpt lat="44.4465986" lon="11.6069461"><ele>39.0</ele><time>2026-04-04T07:13:13.926Z</time></trkpt><trkpt lat="44.4463774" lon="11.606993"><ele>39.0</ele><time>2026-04-04T07:13:14.926Z</time></trkpt><trkpt lat="44.4461514" lon="11.6070409"><ele>39.0</ele><time>2026-04-04T07:13:15.927Z</time></trkpt><trkpt lat="44.4459203" lon="11.6070894"><ele>39.0</ele><time>2026-04-04T07:13:16.927Z</time></trkpt><trkpt lat="44.445686" lon="11.6071421"><ele>40.0</ele><time>2026-04-04T07:13:17.926Z</time></trkpt><trkpt lat="44.4454458" lon="11.6071933"><ele>41.0</ele><time>2026-04-04T07:13:18.926Z</time></trkpt><trkpt lat="44.4451998" lon="11.6072438"><ele>41.0</ele><time>2026-04-04T07:13:19.926Z</time></trkpt><trkpt lat="44.4449566" lon="11.6072958"><ele>41.0</ele><time>2026-04-04T07:13:20.926Z</time></trkpt><trkpt lat="44.44472" lon="11.6073486"><ele>40.5</ele><time>2026-04-04T07:13:21.926Z</time></trkpt><trkpt lat="44.4444853" lon="11.6074003"><ele>40.0</ele><time>2026-04-04T07:13:22.927Z</time></trkpt><trkpt lat="44.4442541" lon="11.6074493"><ele>40.0</ele><time>2026-04-04T07:13:23.926Z</time></trkpt><trkpt lat="44.4440248" lon="11.6074987"><ele>40.0</ele><time>2026-04-04T07:13:24.926Z</time></trkpt><trkpt lat="44.4438023" lon="11.607554"><ele>40.333333333333336</ele><time>2026-04-04T07:13:25.927Z</time></trkpt><trkpt lat="44.4435821" lon="11.6076014"><ele>40.666666666666664</ele><time>2026-04-04T07:13:26.927Z</time></trkpt><trkpt lat="44.4433634" lon="11.607626"><ele>41.0</ele><time>2026-04-04T07:13:27.926Z</time></trkpt><trkpt lat="44.4431426" lon="11.6076339"><ele>41.0</ele><time>2026-04-04T07:13:28.926Z</time></trkpt><trkpt lat="44.4429183" lon="11.6076187"><ele>41.0</ele><time>2026-04-04T07:13:29.927Z</time></trkpt><trkpt lat="44.4426903" lon="11.6075834"><ele>41.0</ele><time>2026-04-04T07:13:30.926Z</time></trkpt><trkpt lat="44.4424615" lon="11.6075179"><ele>41.0</ele><time>2026-04-04T07:13:31.926Z</time></trkpt><trkpt lat="44.4422356" lon="11.6074217"><ele>41.0</ele><time>2026-04-04T07:13:32.926Z</time></trkpt><trkpt lat="44.4420075" lon="11.6073021"><ele>41.0</ele><time>2026-04-04T07:13:33.925Z</time></trkpt><trkpt lat="44.4417786" lon="11.6071674"><ele>41.0</ele><time>2026-04-04T07:13:34.925Z</time></trkpt><trkpt lat="44.4415507" lon="11.607031"><ele>41.0</ele><time>2026-04-04T07:13:35.926Z</time></trkpt><trkpt lat="44.4413312" lon="11.6068923"><ele>41.0</ele><time>2026-04-04T07:13:36.927Z</time></trkpt><trkpt lat="44.4411301" lon="11.6067633"><ele>41.0</ele><time>2026-04-04T07:13:37.926Z</time></trkpt><trkpt lat="44.4409422" lon="11.606646"><ele>41.0</ele><time>2026-04-04T07:13:38.927Z</time></trkpt><trkpt lat="44.4407615" lon="11.6065414"><ele>41.0</ele><time>2026-04-04T07:13:39.925Z</time></trkpt><trkpt lat="44.4405772" lon="11.6064457"><ele>41.0</ele><time>2026-04-04T07:13:40.926Z</time></trkpt><trkpt lat="44.4403822" lon="11.6063754"><ele>41.0</ele><time>2026-04-04T07:13:41.925Z</time></trkpt><trkpt lat="44.4401776" lon="11.6063314"><ele>41.33333333333333</ele><time>2026-04-04T07:13:42.926Z</time></trkpt><trkpt lat="44.4399637" lon="11.6063043"><ele>41.666666666666664</ele><time>2026-04-04T07:13:43.926Z</time></trkpt><trkpt lat="44.4397379" lon="11.6063002"><ele>42.0</ele><time>2026-04-04T07:13:44.927Z</time></trkpt><trkpt lat="44.4395038" lon="11.6063111"><ele>42.0</ele><time>2026-04-04T07:13:45.926Z</time></trkpt><trkpt lat="44.4392621" lon="11.6063336"><ele>42.0</ele><time>2026-04-04T07:13:46.926Z</time></trkpt><trkpt lat="44.4390171" lon="11.6063608"><ele>43.0</ele><time>2026-04-04T07:13:47.925Z</time></trkpt><trkpt lat="44.4387656" lon="11.6063886"><ele>44.0</ele><time>2026-04-04T07:13:48.926Z</time></trkpt><trkpt lat="44.4385232" lon="11.6064177"><ele>44.0</ele><time>2026-04-04T07:13:49.925Z</time></trkpt><trkpt lat="44.4382878" lon="11.6064416"><ele>44.0</ele><time>2026-04-04T07:13:50.926Z</time></trkpt><trkpt lat="44.4380663" lon="11.606463"><ele>44.0</ele><time>2026-04-04T07:13:51.927Z</time></trkpt><trkpt lat="44.4378569" lon="11.6064799"><ele>44.0</ele><time>2026-04-04T07:13:52.927Z</time></trkpt><trkpt lat="44.4376599" lon="11.6064957"><ele>44.0</ele><time>2026-04-04T07:13:53.927Z</time></trkpt><trkpt lat="44.4374623" lon="11.6065073"><ele>44.0</ele><time>2026-04-04T07:13:54.927Z</time></trkpt><trkpt lat="44.4372684" lon="11.606525"><ele>44.0</ele><time>2026-04-04T07:13:55.927Z</time></trkpt><trkpt lat="44.4370759" lon="11.6065481"><ele>44.0</ele><time>2026-04-04T07:13:56.925Z</time></trkpt><trkpt lat="44.4368831" lon="11.606566"><ele>44.33333333333333</ele><time>2026-04-04T07:13:57.926Z</time></trkpt><trkpt lat="44.4366913" lon="11.6065799"><ele>44.666666666666664</ele><time>2026-04-04T07:13:58.925Z</time></trkpt><trkpt lat="44.4365008" lon="11.6065845"><ele>45.0</ele><time>2026-04-04T07:13:59.926Z</time></trkpt><trkpt lat="44.4363092" lon="11.6065678"><ele>45.0</ele><time>2026-04-04T07:14:00.926Z</time></trkpt><trkpt lat="44.4361155" lon="11.6065286"><ele>45.0</ele><time>2026-04-04T07:14:01.925Z</time></trkpt><trkpt lat="44.4359203" lon="11.6064703"><ele>45.0</ele><time>2026-04-04T07:14:02.926Z</time></trkpt><trkpt lat="44.4357226" lon="11.6063936"><ele>45.0</ele><time>2026-04-04T07:14:03.927Z</time></trkpt><trkpt lat="44.4355255" lon="11.6062989"><ele>45.0</ele><time>2026-04-04T07:14:04.927Z</time></trkpt><trkpt lat="44.4353306" lon="11.6061937"><ele>45.0</ele><time>2026-04-04T07:14:05.927Z</time></trkpt><trkpt lat="44.4351357" lon="11.6060766"><ele>45.333333333333336</ele><time>2026-04-04T07:14:06.926Z</time></trkpt><trkpt lat="44.4349422" lon="11.6059579"><ele>45.66666666666667</ele><time>2026-04-04T07:14:07.926Z</time></trkpt><trkpt lat="44.4347484" lon="11.6058407"><ele>46.0</ele><time>2026-04-04T07:14:08.926Z</time></trkpt><trkpt lat="44.434557" lon="11.6057236"><ele>46.0</ele><time>2026-04-04T07:14:09.926Z</time></trkpt><trkpt lat="44.4343702" lon="11.6056131"><ele>46.0</ele><time>2026-04-04T07:14:10.927Z</time></trkpt><trkpt lat="44.434196" lon="11.6055156"><ele>46.0</ele><time>2026-04-04T07:14:11.927Z</time></trkpt><trkpt lat="44.4340274" lon="11.6054307"><ele>46.0</ele><time>2026-04-04T07:14:12.926Z</time></trkpt><trkpt lat="44.4338563" lon="11.6053584"><ele>46.0</ele><time>2026-04-04T07:14:13.927Z</time></trkpt><trkpt lat="44.4336909" lon="11.6053053"><ele>46.0</ele><time>2026-04-04T07:14:14.926Z</time></trkpt><trkpt lat="44.4335206" lon="11.6052658"><ele>46.66666666666667</ele><time>2026-04-04T07:14:15.927Z</time></trkpt><trkpt lat="44.4333481" lon="11.6052369"><ele>47.333333333333336</ele><time>2026-04-04T07:14:16.925Z</time></trkpt><trkpt lat="44.4331736" lon="11.605208"><ele>48.0</ele><time>2026-04-04T07:14:17.926Z</time></trkpt><trkpt lat="44.4329984" lon="11.6051772"><ele>47.0</ele><time>2026-04-04T07:14:18.927Z</time></trkpt><trkpt lat="44.4328255" lon="11.6051458"><ele>46.0</ele><time>2026-04-04T07:14:19.927Z</time></trkpt><trkpt lat="44.4326531" lon="11.6051132"><ele>45.0</ele><time>2026-04-04T07:14:20.925Z</time></trkpt><trkpt lat="44.4324833" lon="11.6050812"><ele>45.0</ele><time>2026-04-04T07:14:21.927Z</time></trkpt><trkpt lat="44.432315" lon="11.60505"><ele>45.0</ele><time>2026-04-04T07:14:22.926Z</time></trkpt><trkpt lat="44.4321422" lon="11.6050203"><ele>45.0</ele><time>2026-04-04T07:14:23.925Z</time></trkpt><trkpt lat="44.4319672" lon="11.6049899"><ele>44.666666666666664</ele><time>2026-04-04T07:14:24.927Z</time></trkpt><trkpt lat="44.4317917" lon="11.6049586"><ele>44.33333333333333</ele><time>2026-04-04T07:14:25.927Z</time></trkpt><trkpt lat="44.4316151" lon="11.6049267"><ele>44.0</ele><time>2026-04-04T07:14:26.925Z</time></trkpt><trkpt lat="44.4314378" lon="11.6048955"><ele>44.666666666666664</ele><time>2026-04-04T07:14:27.926Z</time></trkpt><trkpt lat="44.4312596" lon="11.6048649"><ele>45.333333333333336</ele><time>2026-04-04T07:14:28.926Z</time></trkpt><trkpt lat="44.4310793" lon="11.6048334"><ele>46.0</ele><time>2026-04-04T07:14:29.926Z</time></trkpt><trkpt lat="44.4308918" lon="11.6048014"><ele>46.0</ele><time>2026-04-04T07:14:30.926Z</time></trkpt><trkpt lat="44.4306944" lon="11.6047677"><ele>46.0</ele><time>2026-04-04T07:14:31.926Z</time></trkpt><trkpt lat="44.4304965" lon="11.6047348"><ele>46.0</ele><time>2026-04-04T07:14:32.927Z</time></trkpt><trkpt lat="44.4302973" lon="11.6047011"><ele>47.0</ele><time>2026-04-04T07:14:33.927Z</time></trkpt><trkpt lat="44.4301053" lon="11.6046678"><ele>48.0</ele><time>2026-04-04T07:14:34.927Z</time></trkpt><trkpt lat="44.4299147" lon="11.6046343"><ele>49.0</ele><time>2026-04-04T07:14:35.926Z</time></trkpt><trkpt lat="44.4297234" lon="11.6046049"><ele>48.33333333333333</ele><time>2026-04-04T07:14:36.927Z</time></trkpt><trkpt lat="44.4295337" lon="11.6045745"><ele>47.666666666666664</ele><time>2026-04-04T07:14:37.927Z</time></trkpt><trkpt lat="44.4293493" lon="11.6045458"><ele>47.0</ele><time>2026-04-04T07:14:38.927Z</time></trkpt><trkpt lat="44.4291732" lon="11.6045191"><ele>46.666666666666664</ele><time>2026-04-04T07:14:39.927Z</time></trkpt><trkpt lat="44.4290014" lon="11.6044895"><ele>46.333333333333336</ele><time>2026-04-04T07:14:40.927Z</time></trkpt><trkpt lat="44.4288282" lon="11.6044542"><ele>46.0</ele><time>2026-04-04T07:14:41.927Z</time></trkpt><trkpt lat="44.4286537" lon="11.6044136"><ele>47.0</ele><time>2026-04-04T07:14:42.927Z</time></trkpt><trkpt lat="44.4284806" lon="11.6043718"><ele>48.0</ele><time>2026-04-04T07:14:43.927Z</time></trkpt><trkpt lat="44.4283078" lon="11.6043324"><ele>49.0</ele><time>2026-04-04T07:14:44.926Z</time></trkpt><trkpt lat="44.4281339" lon="11.6042934"><ele>50.33333333333333</ele><time>2026-04-04T07:14:45.925Z</time></trkpt><trkpt lat="44.4279601" lon="11.6042499"><ele>51.66666666666667</ele><time>2026-04-04T07:14:46.926Z</time></trkpt><trkpt lat="44.4277868" lon="11.6041973"><ele>53.0</ele><time>2026-04-04T07:14:47.927Z</time></trkpt><trkpt lat="44.4276173" lon="11.6041288"><ele>53.0</ele><time>2026-04-04T07:14:48.927Z</time></trkpt><trkpt lat="44.4274607" lon="11.6040553"><ele>53.0</ele><time>2026-04-04T07:14:49.927Z</time></trkpt><trkpt lat="44.4273158" lon="11.6039847"><ele>53.0</ele><time>2026-04-04T07:14:50.927Z</time></trkpt><trkpt lat="44.4271839" lon="11.6039175"><ele>53.0</ele><time>2026-04-04T07:14:51.927Z</time></trkpt><trkpt lat="44.4270554" lon="11.6038474"><ele>53.0</ele><time>2026-04-04T07:14:52.926Z</time></trkpt><trkpt lat="44.4269207" lon="11.6037737"><ele>53.0</ele><time>2026-04-04T07:14:53.926Z</time></trkpt><trkpt lat="44.4267799" lon="11.6036983"><ele>53.0</ele><time>2026-04-04T07:14:54.925Z</time></trkpt><trkpt lat="44.4266355" lon="11.6036199"><ele>53.0</ele><time>2026-04-04T07:14:55.926Z</time></trkpt><trkpt lat="44.4264854" lon="11.6035358"><ele>53.0</ele><time>2026-04-04T07:14:56.926Z</time></trkpt><trkpt lat="44.4263316" lon="11.6034491"><ele>53.0</ele><time>2026-04-04T07:14:57.926Z</time></trkpt><trkpt lat="44.4261693" lon="11.6033631"><ele>52.333333333333336</ele><time>2026-04-04T07:14:58.926Z</time></trkpt><trkpt lat="44.4260059" lon="11.6032731"><ele>51.66666666666667</ele><time>2026-04-04T07:14:59.925Z</time></trkpt><trkpt lat="44.425852" lon="11.6031896"><ele>51.0</ele><time>2026-04-04T07:15:00.927Z</time></trkpt><trkpt lat="44.4256988" lon="11.6031048"><ele>51.0</ele><time>2026-04-04T07:15:01.927Z</time></trkpt><trkpt lat="44.4255414" lon="11.6030164"><ele>51.0</ele><time>2026-04-04T07:15:02.926Z</time></trkpt><trkpt lat="44.425393" lon="11.6029332"><ele>51.0</ele><time>2026-04-04T07:15:03.927Z</time></trkpt><trkpt lat="44.4252537" lon="11.6028499"><ele>51.66666666666667</ele><time>2026-04-04T07:15:04.927Z</time></trkpt><trkpt lat="44.4251076" lon="11.6027527"><ele>52.333333333333336</ele><time>2026-04-04T07:15:05.927Z</time></trkpt><trkpt lat="44.4249472" lon="11.6026468"><ele>53.0</ele><time>2026-04-04T07:15:06.927Z</time></trkpt><trkpt lat="44.4247707" lon="11.6025401"><ele>53.333333333333336</ele><time>2026-04-04T07:15:07.926Z</time></trkpt><trkpt lat="44.424582" lon="11.6024301"><ele>53.66666666666667</ele><time>2026-04-04T07:15:08.927Z</time></trkpt><trkpt lat="44.4243793" lon="11.6023109"><ele>54.0</ele><time>2026-04-04T07:15:09.926Z</time></trkpt><trkpt lat="44.424173" lon="11.6021933"><ele>54.0</ele><time>2026-04-04T07:15:10.926Z</time></trkpt><trkpt lat="44.4239578" lon="11.6020739"><ele>54.0</ele><time>2026-04-04T07:15:11.927Z</time></trkpt><trkpt lat="44.4237409" lon="11.6019567"><ele>52.5</ele><time>2026-04-04T07:15:12.927Z</time></trkpt><trkpt lat="44.423528" lon="11.6018413"><ele>51.0</ele><time>2026-04-04T07:15:13.926Z</time></trkpt><trkpt lat="44.4233184" lon="11.6017291"><ele>51.0</ele><time>2026-04-04T07:15:14.926Z</time></trkpt><trkpt lat="44.4231121" lon="11.6016227"><ele>51.0</ele><time>2026-04-04T07:15:15.925Z</time></trkpt><trkpt lat="44.4229111" lon="11.601524"><ele>51.0</ele><time>2026-04-04T07:15:16.926Z</time></trkpt><trkpt lat="44.4227166" lon="11.6014322"><ele>51.33333333333333</ele><time>2026-04-04T07:15:17.926Z</time></trkpt><trkpt lat="44.4225313" lon="11.6013462"><ele>51.666666666666664</ele><time>2026-04-04T07:15:18.927Z</time></trkpt><trkpt lat="44.4223583" lon="11.6012618"><ele>52.0</ele><time>2026-04-04T07:15:19.927Z</time></trkpt><trkpt lat="44.4221852" lon="11.6011798"><ele>52.0</ele><time>2026-04-04T07:15:20.927Z</time></trkpt><trkpt lat="44.4220207" lon="11.6011085"><ele>52.0</ele><time>2026-04-04T07:15:21.927Z</time></trkpt><trkpt lat="44.4218659" lon="11.6010418"><ele>52.0</ele><time>2026-04-04T07:15:22.927Z</time></trkpt><trkpt lat="44.4217213" lon="11.6009793"><ele>52.0</ele><time>2026-04-04T07:15:23.925Z</time></trkpt><trkpt lat="44.4215841" lon="11.6009204"><ele>52.0</ele><time>2026-04-04T07:15:24.925Z</time></trkpt><trkpt lat="44.421459" lon="11.6008639"><ele>52.0</ele><time>2026-04-04T07:15:25.925Z</time></trkpt><trkpt lat="44.4213442" lon="11.6008075"><ele>52.0</ele><time>2026-04-04T07:15:26.927Z</time></trkpt><trkpt lat="44.4212382" lon="11.6007552"><ele>52.33333333333333</ele><time>2026-04-04T07:15:27.927Z</time></trkpt><trkpt lat="44.421143" lon="11.6007043"><ele>52.666666666666664</ele><time>2026-04-04T07:15:28.927Z</time></trkpt><trkpt lat="44.4210567" lon="11.6006585"><ele>53.0</ele><time>2026-04-04T07:15:29.927Z</time></trkpt><trkpt lat="44.4209832" lon="11.6006137"><ele>53.33333333333333</ele><time>2026-04-04T07:15:30.926Z</time></trkpt><trkpt lat="44.4209267" lon="11.6005671"><ele>53.666666666666664</ele><time>2026-04-04T07:15:31.927Z</time></trkpt><trkpt lat="44.4208787" lon="11.600447"><ele>54.0</ele><time>2026-04-04T07:15:33.927Z</time></trkpt><trkpt lat="44.4208851" lon="11.6003219"><ele>54.0</ele><time>2026-04-04T07:15:35.927Z</time></trkpt><trkpt lat="44.4208846" lon="11.6002151"><ele>54.0</ele><time>2026-04-04T07:15:37.926Z</time></trkpt><trkpt lat="44.4208197" lon="11.6001403"><ele>54.0</ele><time>2026-04-04T07:15:40.927Z</time></trkpt><trkpt lat="44.4207571" lon="11.6001077"><ele>54.0</ele><time>2026-04-04T07:15:44.926Z</time></trkpt><trkpt lat="44.4206989" lon="11.6000587"><ele>54.0</ele><time>2026-04-04T07:21:27.926Z</time></trkpt><trkpt lat="44.4206065" lon="11.6000908"><ele>54.0</ele><time>2026-04-04T07:21:29.926Z</time></trkpt><trkpt lat="44.420521" lon="11.600189"><ele>53.800000000000004</ele><time>2026-04-04T07:21:31.924Z</time></trkpt><trkpt lat="44.4204458" lon="11.6002288"><ele>53.60000000000001</ele><time>2026-04-04T07:21:33.925Z</time></trkpt><trkpt lat="44.420322" lon="11.6001714"><ele>53.4</ele><time>2026-04-04T07:21:35.926Z</time></trkpt><trkpt lat="44.4202352" lon="11.6001122"><ele>53.2</ele><time>2026-04-04T07:21:36.926Z</time></trkpt><trkpt lat="44.4201413" lon="11.6000408"><ele>53.0</ele><time>2026-04-04T07:21:37.925Z</time></trkpt><trkpt lat="44.4200444" lon="11.5999657"><ele>53.0</ele><time>2026-04-04T07:21:38.926Z</time></trkpt><trkpt lat="44.4199525" lon="11.599891"><ele>53.0</ele><time>2026-04-04T07:21:39.926Z</time></trkpt><trkpt lat="44.4198599" lon="11.5998199"><ele>53.0</ele><time>2026-04-04T07:21:40.925Z</time></trkpt><trkpt lat="44.4197601" lon="11.5997484"><ele>53.0</ele><time>2026-04-04T07:21:41.926Z</time></trkpt><trkpt lat="44.4196515" lon="11.5996737"><ele>53.0</ele><time>2026-04-04T07:21:42.926Z</time></trkpt><trkpt lat="44.4195317" lon="11.5995939"><ele>53.0</ele><time>2026-04-04T07:21:43.926Z</time></trkpt><trkpt lat="44.4194025" lon="11.5995109"><ele>53.0</ele><time>2026-04-04T07:21:44.925Z</time></trkpt><trkpt lat="44.4192659" lon="11.5994266"><ele>53.0</ele><time>2026-04-04T07:21:45.925Z</time></trkpt><trkpt lat="44.4191213" lon="11.5993488"><ele>53.0</ele><time>2026-04-04T07:21:46.925Z</time></trkpt><trkpt lat="44.4189688" lon="11.599276"><ele>53.66666666666667</ele><time>2026-04-04T07:21:47.925Z</time></trkpt><trkpt lat="44.4188103" lon="11.5992052"><ele>54.33333333333333</ele><time>2026-04-04T07:21:48.925Z</time></trkpt><trkpt lat="44.4186394" lon="11.5991412"><ele>55.0</ele><time>2026-04-04T07:21:49.926Z</time></trkpt><trkpt lat="44.4184624" lon="11.5990826"><ele>55.0</ele><time>2026-04-04T07:21:50.925Z</time></trkpt><trkpt lat="44.4182795" lon="11.599026"><ele>55.0</ele><time>2026-04-04T07:21:51.924Z</time></trkpt><trkpt lat="44.4180904" lon="11.5989693"><ele>55.0</ele><time>2026-04-04T07:21:52.925Z</time></trkpt><trkpt lat="44.4178985" lon="11.5989057"><ele>55.666666666666664</ele><time>2026-04-04T07:21:53.925Z</time></trkpt><trkpt lat="44.4177034" lon="11.5988446"><ele>56.33333333333333</ele><time>2026-04-04T07:21:54.925Z</time></trkpt><trkpt lat="44.4175078" lon="11.5987782"><ele>57.0</ele><time>2026-04-04T07:21:55.924Z</time></trkpt><trkpt lat="44.417313" lon="11.5987024"><ele>57.0</ele><time>2026-04-04T07:21:56.926Z</time></trkpt><trkpt lat="44.4171234" lon="11.5986108"><ele>57.0</ele><time>2026-04-04T07:21:57.926Z</time></trkpt><trkpt lat="44.4169356" lon="11.5985021"><ele>57.0</ele><time>2026-04-04T07:21:58.926Z</time></trkpt><trkpt lat="44.4167569" lon="11.5983666"><ele>57.0</ele><time>2026-04-04T07:21:59.925Z</time></trkpt><trkpt lat="44.4165877" lon="11.598204"><ele>57.0</ele><time>2026-04-04T07:22:00.926Z</time></trkpt><trkpt lat="44.4164256" lon="11.598026"><ele>57.0</ele><time>2026-04-04T07:22:01.926Z</time></trkpt><trkpt lat="44.416274" lon="11.5978316"><ele>56.0</ele><time>2026-04-04T07:22:02.926Z</time></trkpt><trkpt lat="44.4161381" lon="11.5976176"><ele>55.0</ele><time>2026-04-04T07:22:03.925Z</time></trkpt><trkpt lat="44.4160151" lon="11.5973841"><ele>54.0</ele><time>2026-04-04T07:22:04.925Z</time></trkpt><trkpt lat="44.4159007" lon="11.5971334"><ele>54.66666666666667</ele><time>2026-04-04T07:22:05.925Z</time></trkpt><trkpt lat="44.4157834" lon="11.5968768"><ele>55.333333333333336</ele><time>2026-04-04T07:22:06.926Z</time></trkpt><trkpt lat="44.4156611" lon="11.5966182"><ele>56.0</ele><time>2026-04-04T07:22:07.925Z</time></trkpt><trkpt lat="44.4155385" lon="11.5963657"><ele>55.66666666666667</ele><time>2026-04-04T07:22:08.925Z</time></trkpt><trkpt lat="44.4154137" lon="11.5961142"><ele>55.33333333333333</ele><time>2026-04-04T07:22:09.924Z</time></trkpt><trkpt lat="44.4152875" lon="11.5958685"><ele>55.0</ele><time>2026-04-04T07:22:10.925Z</time></trkpt><trkpt lat="44.4151582" lon="11.595624"><ele>55.0</ele><time>2026-04-04T07:22:11.925Z</time></trkpt><trkpt lat="44.4150243" lon="11.5953862"><ele>55.0</ele><time>2026-04-04T07:22:12.924Z</time></trkpt><trkpt lat="44.4148841" lon="11.5951586"><ele>55.0</ele><time>2026-04-04T07:22:13.925Z</time></trkpt><trkpt lat="44.4147418" lon="11.594948"><ele>56.0</ele><time>2026-04-04T07:22:14.925Z</time></trkpt><trkpt lat="44.4145962" lon="11.5947407"><ele>57.0</ele><time>2026-04-04T07:22:15.925Z</time></trkpt><trkpt lat="44.4144515" lon="11.5945382"><ele>58.0</ele><time>2026-04-04T07:22:16.926Z</time></trkpt><trkpt lat="44.4143078" lon="11.5943398"><ele>58.0</ele><time>2026-04-04T07:22:17.925Z</time></trkpt><trkpt lat="44.4141668" lon="11.5941426"><ele>58.0</ele><time>2026-04-04T07:22:18.926Z</time></trkpt><trkpt lat="44.4140267" lon="11.5939506"><ele>58.0</ele><time>2026-04-04T07:22:19.925Z</time></trkpt><trkpt lat="44.4138814" lon="11.5937561"><ele>57.33333333333333</ele><time>2026-04-04T07:22:20.926Z</time></trkpt><trkpt lat="44.4137317" lon="11.5935525"><ele>56.66666666666667</ele><time>2026-04-04T07:22:21.926Z</time></trkpt><trkpt lat="44.4135769" lon="11.5933389"><ele>56.0</ele><time>2026-04-04T07:22:22.926Z</time></trkpt><trkpt lat="44.4134213" lon="11.5931183"><ele>56.0</ele><time>2026-04-04T07:22:23.925Z</time></trkpt><trkpt lat="44.4132621" lon="11.5928907"><ele>56.0</ele><time>2026-04-04T07:22:24.925Z</time></trkpt><trkpt lat="44.4130981" lon="11.5926573"><ele>56.0</ele><time>2026-04-04T07:22:25.926Z</time></trkpt><trkpt lat="44.4129345" lon="11.5924212"><ele>56.0</ele><time>2026-04-04T07:22:26.926Z</time></trkpt><trkpt lat="44.4127727" lon="11.5921882"><ele>57.0</ele><time>2026-04-04T07:22:27.925Z</time></trkpt><trkpt lat="44.4126119" lon="11.5919534"><ele>58.0</ele><time>2026-04-04T07:22:28.925Z</time></trkpt><trkpt lat="44.4124528" lon="11.5917173"><ele>58.0</ele><time>2026-04-04T07:22:29.924Z</time></trkpt><trkpt lat="44.4122936" lon="11.5914843"><ele>58.0</ele><time>2026-04-04T07:22:30.925Z</time></trkpt><trkpt lat="44.4121331" lon="11.5912614"><ele>58.5</ele><time>2026-04-04T07:22:31.924Z</time></trkpt><trkpt lat="44.4119711" lon="11.5910417"><ele>59.0</ele><time>2026-04-04T07:22:32.926Z</time></trkpt><trkpt lat="44.4118049" lon="11.5908298"><ele>59.0</ele><time>2026-04-04T07:22:33.925Z</time></trkpt><trkpt lat="44.4116288" lon="11.5906377"><ele>59.0</ele><time>2026-04-04T07:22:34.925Z</time></trkpt><trkpt lat="44.4114446" lon="11.5904707"><ele>59.0</ele><time>2026-04-04T07:22:35.925Z</time></trkpt><trkpt lat="44.4112533" lon="11.590327"><ele>58.66666666666667</ele><time>2026-04-04T07:22:36.926Z</time></trkpt><trkpt lat="44.4110622" lon="11.590184"><ele>58.33333333333333</ele><time>2026-04-04T07:22:37.926Z</time></trkpt><trkpt lat="44.410879" lon="11.5900471"><ele>58.0</ele><time>2026-04-04T07:22:38.924Z</time></trkpt><trkpt lat="44.4107051" lon="11.5899193"><ele>58.0</ele><time>2026-04-04T07:22:39.925Z</time></trkpt><trkpt lat="44.4105379" lon="11.589798"><ele>58.0</ele><time>2026-04-04T07:22:40.926Z</time></trkpt><trkpt lat="44.4103737" lon="11.5896787"><ele>58.0</ele><time>2026-04-04T07:22:41.926Z</time></trkpt><trkpt lat="44.4102158" lon="11.5895646"><ele>58.0</ele><time>2026-04-04T07:22:42.926Z</time></trkpt><trkpt lat="44.4100532" lon="11.5894468"><ele>58.0</ele><time>2026-04-04T07:22:43.926Z</time></trkpt><trkpt lat="44.4098778" lon="11.5893193"><ele>58.0</ele><time>2026-04-04T07:22:44.925Z</time></trkpt><trkpt lat="44.4096974" lon="11.5891852"><ele>57.666666666666664</ele><time>2026-04-04T07:22:45.925Z</time></trkpt><trkpt lat="44.4095063" lon="11.5890585"><ele>57.33333333333333</ele><time>2026-04-04T07:22:46.925Z</time></trkpt><trkpt lat="44.4093052" lon="11.5889459"><ele>57.0</ele><time>2026-04-04T07:22:47.925Z</time></trkpt><trkpt lat="44.4090994" lon="11.5888486"><ele>57.0</ele><time>2026-04-04T07:22:48.926Z</time></trkpt><trkpt lat="44.4089035" lon="11.5887656"><ele>57.0</ele><time>2026-04-04T07:22:49.925Z</time></trkpt><trkpt lat="44.408711" lon="11.5886869"><ele>57.0</ele><time>2026-04-04T07:22:50.926Z</time></trkpt><trkpt lat="44.4085218" lon="11.5886178"><ele>57.66666666666667</ele><time>2026-04-04T07:22:51.925Z</time></trkpt><trkpt lat="44.4083371" lon="11.5885567"><ele>58.333333333333336</ele><time>2026-04-04T07:22:52.925Z</time></trkpt><trkpt lat="44.4081553" lon="11.5884945"><ele>59.0</ele><time>2026-04-04T07:22:53.925Z</time></trkpt><trkpt lat="44.407975" lon="11.5884414"><ele>59.0</ele><time>2026-04-04T07:22:54.926Z</time></trkpt><trkpt lat="44.4077993" lon="11.5883941"><ele>59.0</ele><time>2026-04-04T07:22:55.925Z</time></trkpt><trkpt lat="44.4076581" lon="11.5883535"><ele>59.0</ele><time>2026-04-04T07:22:56.926Z</time></trkpt><trkpt lat="44.4075542" lon="11.5883103"><ele>59.0</ele><time>2026-04-04T07:22:57.925Z</time></trkpt><trkpt lat="44.4074903" lon="11.5882482"><ele>59.00000000000001</ele><time>2026-04-04T07:22:58.925Z</time></trkpt><trkpt lat="44.4074564" lon="11.5881737"><ele>59.0</ele><time>2026-04-04T07:22:59.925Z</time></trkpt><trkpt lat="44.4074385" lon="11.5880854"><ele>59.0</ele><time>2026-04-04T07:23:00.926Z</time></trkpt><trkpt lat="44.4074392" lon="11.5879781"><ele>59.0</ele><time>2026-04-04T07:23:01.925Z</time></trkpt><trkpt lat="44.4074528" lon="11.5878612"><ele>59.00000000000001</ele><time>2026-04-04T07:23:02.926Z</time></trkpt><trkpt lat="44.4074708" lon="11.5877469"><ele>59.0</ele><time>2026-04-04T07:23:03.925Z</time></trkpt><trkpt lat="44.4074952" lon="11.5876348"><ele>59.00000000000001</ele><time>2026-04-04T07:23:04.926Z</time></trkpt><trkpt lat="44.4075284" lon="11.5875109"><ele>59.0</ele><time>2026-04-04T07:23:05.925Z</time></trkpt><trkpt lat="44.4075696" lon="11.5873975"><ele>59.0</ele><time>2026-04-04T07:23:06.926Z</time></trkpt><trkpt lat="44.4076101" lon="11.5873208"><ele>59.0</ele><time>2026-04-04T07:23:07.925Z</time></trkpt><trkpt lat="44.4076426" lon="11.5872146"><ele>59.00000000000001</ele><time>2026-04-04T07:23:09.924Z</time></trkpt><trkpt lat="44.4075745" lon="11.5871644"><ele>59.0</ele><time>2026-04-04T07:23:12.926Z</time></trkpt><trkpt lat="44.4075365" lon="11.5872717"><ele>59.0</ele><time>2026-04-04T07:23:14.925Z</time></trkpt><trkpt lat="44.407512" lon="11.5874663"><ele>59.00000000000001</ele><time>2026-04-04T07:23:16.926Z</time></trkpt><trkpt lat="44.4074899" lon="11.5875893"><ele>59.00000000000001</ele><time>2026-04-04T07:23:17.925Z</time></trkpt><trkpt lat="44.4074585" lon="11.587726"><ele>59.0</ele><time>2026-04-04T07:23:18.926Z</time></trkpt><trkpt lat="44.4074262" lon="11.5878607"><ele>59.0</ele><time>2026-04-04T07:23:19.925Z</time></trkpt><trkpt lat="44.4073998" lon="11.5879827"><ele>59.0</ele><time>2026-04-04T07:23:20.926Z</time></trkpt><trkpt lat="44.407365" lon="11.5880764"><ele>59.00000000000001</ele><time>2026-04-04T07:23:21.925Z</time></trkpt><trkpt lat="44.4073213" lon="11.5881461"><ele>59.00000000000001</ele><time>2026-04-04T07:23:22.926Z</time></trkpt><trkpt lat="44.4072123" lon="11.5882035"><ele>59.0</ele><time>2026-04-04T07:23:24.925Z</time></trkpt><trkpt lat="44.4071227" lon="11.5881871"><ele>59.0</ele><time>2026-04-04T07:23:25.925Z</time></trkpt><trkpt lat="44.4070169" lon="11.5881683"><ele>59.0</ele><time>2026-04-04T07:23:26.926Z</time></trkpt><trkpt lat="44.4068928" lon="11.5881441"><ele>59.0</ele><time>2026-04-04T07:23:27.925Z</time></trkpt><trkpt lat="44.4067602" lon="11.5881166"><ele>59.0</ele><time>2026-04-04T07:23:28.926Z</time></trkpt><trkpt lat="44.4066131" lon="11.5880905"><ele>59.0</ele><time>2026-04-04T07:23:29.925Z</time></trkpt><trkpt lat="44.4064548" lon="11.5880502"><ele>59.333333333333336</ele><time>2026-04-04T07:23:30.926Z</time></trkpt><trkpt lat="44.4062885" lon="11.5880005"><ele>59.66666666666667</ele><time>2026-04-04T07:23:31.925Z</time></trkpt><trkpt lat="44.4061236" lon="11.5879557"><ele>60.0</ele><time>2026-04-04T07:23:32.926Z</time></trkpt><trkpt lat="44.4059651" lon="11.5879114"><ele>60.0</ele><time>2026-04-04T07:23:33.925Z</time></trkpt><trkpt lat="44.4058171" lon="11.587869"><ele>60.0</ele><time>2026-04-04T07:23:34.926Z</time></trkpt><trkpt lat="44.4056731" lon="11.5878251"><ele>60.0</ele><time>2026-04-04T07:23:35.925Z</time></trkpt><trkpt lat="44.4055294" lon="11.5877811"><ele>60.0</ele><time>2026-04-04T07:23:36.926Z</time></trkpt><trkpt lat="44.4053895" lon="11.5877348"><ele>60.5</ele><time>2026-04-04T07:23:37.924Z</time></trkpt><trkpt lat="44.4052526" lon="11.587687"><ele>61.0</ele><time>2026-04-04T07:23:38.923Z</time></trkpt><trkpt lat="44.4051153" lon="11.5876355"><ele>61.5</ele><time>2026-04-04T07:23:39.924Z</time></trkpt><trkpt lat="44.4049758" lon="11.5875818"><ele>62.0</ele><time>2026-04-04T07:23:40.924Z</time></trkpt><trkpt lat="44.4048317" lon="11.5875282"><ele>62.0</ele><time>2026-04-04T07:23:41.924Z</time></trkpt><trkpt lat="44.404687" lon="11.5874736"><ele>62.0</ele><time>2026-04-04T07:23:42.924Z</time></trkpt><trkpt lat="44.4045431" lon="11.5874156"><ele>62.0</ele><time>2026-04-04T07:23:43.924Z</time></trkpt><trkpt lat="44.4044024" lon="11.5873652"><ele>62.0</ele><time>2026-04-04T07:23:44.925Z</time></trkpt><trkpt lat="44.4042749" lon="11.5873158"><ele>62.25</ele><time>2026-04-04T07:23:45.925Z</time></trkpt><trkpt lat="44.4041535" lon="11.5872782"><ele>62.5</ele><time>2026-04-04T07:23:46.924Z</time></trkpt><trkpt lat="44.4040169" lon="11.5872453"><ele>62.75</ele><time>2026-04-04T07:23:47.925Z</time></trkpt><trkpt lat="44.4038724" lon="11.5872077"><ele>63.0</ele><time>2026-04-04T07:23:48.925Z</time></trkpt><trkpt lat="44.4037337" lon="11.5871628"><ele>63.599999999999994</ele><time>2026-04-04T07:23:49.925Z</time></trkpt><trkpt lat="44.4036097" lon="11.5871173"><ele>64.19999999999999</ele><time>2026-04-04T07:23:50.923Z</time></trkpt><trkpt lat="44.4035025" lon="11.5870717"><ele>64.8</ele><time>2026-04-04T07:23:51.924Z</time></trkpt><trkpt lat="44.4034143" lon="11.5870199"><ele>65.39999999999999</ele><time>2026-04-04T07:23:52.924Z</time></trkpt><trkpt lat="44.4033359" lon="11.5869594"><ele>66.0</ele><time>2026-04-04T07:23:53.924Z</time></trkpt><trkpt lat="44.4032633" lon="11.5868742"><ele>66.2</ele><time>2026-04-04T07:23:54.924Z</time></trkpt><trkpt lat="44.4031956" lon="11.5867759"><ele>66.39999999999999</ele><time>2026-04-04T07:23:55.924Z</time></trkpt><trkpt lat="44.4031162" lon="11.586698"><ele>66.6</ele><time>2026-04-04T07:23:56.924Z</time></trkpt><trkpt lat="44.4030215" lon="11.5866566"><ele>66.8</ele><time>2026-04-04T07:23:57.924Z</time></trkpt><trkpt lat="44.4029221" lon="11.5866562"><ele>67.0</ele><time>2026-04-04T07:23:58.924Z</time></trkpt><trkpt lat="44.4028246" lon="11.5866938"><ele>67.75</ele><time>2026-04-04T07:23:59.924Z</time></trkpt><trkpt lat="44.4027231" lon="11.586767"><ele>68.5</ele><time>2026-04-04T07:24:00.923Z</time></trkpt><trkpt lat="44.4026102" lon="11.5868408"><ele>69.25</ele><time>2026-04-04T07:24:01.923Z</time></trkpt><trkpt lat="44.4024863" lon="11.5868942"><ele>70.0</ele><time>2026-04-04T07:24:02.924Z</time></trkpt><trkpt lat="44.4023566" lon="11.586941"><ele>70.0</ele><time>2026-04-04T07:24:03.924Z</time></trkpt><trkpt lat="44.4022319" lon="11.5869968"><ele>70.0</ele><time>2026-04-04T07:24:04.924Z</time></trkpt><trkpt lat="44.4021206" lon="11.5870531"><ele>70.0</ele><time>2026-04-04T07:24:05.924Z</time></trkpt><trkpt lat="44.4020133" lon="11.5871039"><ele>70.0</ele><time>2026-04-04T07:24:06.925Z</time></trkpt><trkpt lat="44.4019116" lon="11.5871544"><ele>70.6</ele><time>2026-04-04T07:24:07.925Z</time></trkpt><trkpt lat="44.401819" lon="11.587202"><ele>71.2</ele><time>2026-04-04T07:24:08.923Z</time></trkpt><trkpt lat="44.401731" lon="11.5872471"><ele>71.8</ele><time>2026-04-04T07:24:09.924Z</time></trkpt><trkpt lat="44.4016418" lon="11.5872933"><ele>72.4</ele><time>2026-04-04T07:24:10.923Z</time></trkpt><trkpt lat="44.4015532" lon="11.5873383"><ele>73.0</ele><time>2026-04-04T07:24:11.924Z</time></trkpt><trkpt lat="44.4014628" lon="11.587383"><ele>73.0</ele><time>2026-04-04T07:24:12.924Z</time></trkpt><trkpt lat="44.4013737" lon="11.58743"><ele>73.0</ele><time>2026-04-04T07:24:13.924Z</time></trkpt><trkpt lat="44.4012848" lon="11.5874756"><ele>73.0</ele><time>2026-04-04T07:24:14.924Z</time></trkpt><trkpt lat="44.4011959" lon="11.5875228"><ele>73.0</ele><time>2026-04-04T07:24:15.924Z</time></trkpt><trkpt lat="44.4011059" lon="11.5875674"><ele>73.0</ele><time>2026-04-04T07:24:16.925Z</time></trkpt><trkpt lat="44.4010149" lon="11.5876112"><ele>73.16666666666666</ele><time>2026-04-04T07:24:17.925Z</time></trkpt><trkpt lat="44.4009277" lon="11.5876571"><ele>73.33333333333333</ele><time>2026-04-04T07:24:18.924Z</time></trkpt><trkpt lat="44.4008428" lon="11.5876956"><ele>73.5</ele><time>2026-04-04T07:24:19.924Z</time></trkpt><trkpt lat="44.4007665" lon="11.5877316"><ele>73.66666666666667</ele><time>2026-04-04T07:24:20.924Z</time></trkpt><trkpt lat="44.4006904" lon="11.5877658"><ele>73.83333333333334</ele><time>2026-04-04T07:24:21.924Z</time></trkpt><trkpt lat="44.4006151" lon="11.5878062"><ele>74.0</ele><time>2026-04-04T07:24:22.924Z</time></trkpt><trkpt lat="44.4005365" lon="11.5878535"><ele>74.4</ele><time>2026-04-04T07:24:23.924Z</time></trkpt><trkpt lat="44.400455" lon="11.5879035"><ele>74.80000000000001</ele><time>2026-04-04T07:24:24.923Z</time></trkpt><trkpt lat="44.4003713" lon="11.5879708"><ele>75.19999999999999</ele><time>2026-04-04T07:24:25.925Z</time></trkpt><trkpt lat="44.400284" lon="11.5880453"><ele>75.6</ele><time>2026-04-04T07:24:26.925Z</time></trkpt><trkpt lat="44.4002095" lon="11.5881218"><ele>76.0</ele><time>2026-04-04T07:24:27.925Z</time></trkpt><trkpt lat="44.4001394" lon="11.5881953"><ele>76.0</ele><time>2026-04-04T07:24:28.923Z</time></trkpt><trkpt lat="44.4000751" lon="11.5882733"><ele>76.0</ele><time>2026-04-04T07:24:29.924Z</time></trkpt><trkpt lat="44.4000134" lon="11.5883606"><ele>76.0</ele><time>2026-04-04T07:24:30.923Z</time></trkpt><trkpt lat="44.3999536" lon="11.5884593"><ele>76.0</ele><time>2026-04-04T07:24:31.924Z</time></trkpt><trkpt lat="44.3998915" lon="11.588566"><ele>76.0</ele><time>2026-04-04T07:24:32.925Z</time></trkpt><trkpt lat="44.3998338" lon="11.5886694"><ele>76.16666666666666</ele><time>2026-04-04T07:24:33.925Z</time></trkpt><trkpt lat="44.3997822" lon="11.5887729"><ele>76.33333333333333</ele><time>2026-04-04T07:24:34.924Z</time></trkpt><trkpt lat="44.3997366" lon="11.5888715"><ele>76.5</ele><time>2026-04-04T07:24:35.925Z</time></trkpt><trkpt lat="44.3996922" lon="11.5889641"><ele>76.66666666666667</ele><time>2026-04-04T07:24:36.925Z</time></trkpt><trkpt lat="44.3996497" lon="11.5890411"><ele>76.83333333333334</ele><time>2026-04-04T07:24:37.925Z</time></trkpt><trkpt lat="44.399552" lon="11.5891283"><ele>77.0</ele><time>2026-04-04T07:24:39.924Z</time></trkpt><trkpt lat="44.3994619" lon="11.5891133"><ele>77.0</ele><time>2026-04-04T07:24:41.925Z</time></trkpt><trkpt lat="44.3993495" lon="11.5890649"><ele>77.0</ele><time>2026-04-04T07:24:43.925Z</time></trkpt><trkpt lat="44.3992376" lon="11.5890039"><ele>77.0</ele><time>2026-04-04T07:24:45.925Z</time></trkpt><trkpt lat="44.3991789" lon="11.5889649"><ele>77.0</ele><time>2026-04-04T07:24:46.925Z</time></trkpt><trkpt lat="44.3990771" lon="11.5888833"><ele>77.0</ele><time>2026-04-04T07:24:48.925Z</time></trkpt><trkpt lat="44.3990253" lon="11.5888293"><ele>77.0</ele><time>2026-04-04T07:24:49.925Z</time></trkpt><trkpt lat="44.398961" lon="11.5887761"><ele>77.0</ele><time>2026-04-04T07:24:50.924Z</time></trkpt><trkpt lat="44.3988898" lon="11.5887347"><ele>77.0</ele><time>2026-04-04T07:24:51.924Z</time></trkpt><trkpt lat="44.3988236" lon="11.5886974"><ele>77.0</ele><time>2026-04-04T07:24:52.924Z</time></trkpt><trkpt lat="44.3987675" lon="11.5886531"><ele>77.0</ele><time>2026-04-04T07:24:53.925Z</time></trkpt><trkpt lat="44.3987102" lon="11.588609"><ele>77.0</ele><time>2026-04-04T07:24:54.923Z</time></trkpt><trkpt lat="44.3986445" lon="11.5885665"><ele>77.0</ele><time>2026-04-04T07:24:55.924Z</time></trkpt><trkpt lat="44.3985744" lon="11.5885294"><ele>77.16666666666667</ele><time>2026-04-04T07:24:56.925Z</time></trkpt><trkpt lat="44.3984989" lon="11.5884811"><ele>77.33333333333334</ele><time>2026-04-04T07:24:57.925Z</time></trkpt><trkpt lat="44.3984341" lon="11.5884429"><ele>77.5</ele><time>2026-04-04T07:24:58.925Z</time></trkpt><trkpt lat="44.3983717" lon="11.5884101"><ele>77.66666666666667</ele><time>2026-04-04T07:24:59.925Z</time></trkpt><trkpt lat="44.3982841" lon="11.5883597"><ele>77.83333333333333</ele><time>2026-04-04T07:25:01.923Z</time></trkpt><trkpt lat="44.3981928" lon="11.5883029"><ele>78.0</ele><time>2026-04-04T07:25:02.924Z</time></trkpt><trkpt lat="44.3981001" lon="11.5882292"><ele>79.33333333333333</ele><time>2026-04-04T07:25:03.924Z</time></trkpt><trkpt lat="44.3979734" lon="11.5881523"><ele>80.66666666666666</ele><time>2026-04-04T07:25:04.924Z</time></trkpt><trkpt lat="44.3978295" lon="11.5880687"><ele>82.0</ele><time>2026-04-04T07:25:05.924Z</time></trkpt><trkpt lat="44.3976815" lon="11.5879714"><ele>82.0</ele><time>2026-04-04T07:25:06.924Z</time></trkpt><trkpt lat="44.3975305" lon="11.5878765"><ele>82.0</ele><time>2026-04-04T07:25:07.923Z</time></trkpt><trkpt lat="44.3973837" lon="11.587784"><ele>82.0</ele><time>2026-04-04T07:25:08.924Z</time></trkpt><trkpt lat="44.3972417" lon="11.5876981"><ele>82.75</ele><time>2026-04-04T07:25:09.925Z</time></trkpt><trkpt lat="44.3971034" lon="11.5876277"><ele>83.5</ele><time>2026-04-04T07:25:10.924Z</time></trkpt><trkpt lat="44.396977" lon="11.5875752"><ele>84.25</ele><time>2026-04-04T07:25:11.925Z</time></trkpt><trkpt lat="44.3968556" lon="11.5875445"><ele>85.0</ele><time>2026-04-04T07:25:12.924Z</time></trkpt><trkpt lat="44.3967439" lon="11.587552"><ele>85.0</ele><time>2026-04-04T07:25:13.924Z</time></trkpt><trkpt lat="44.3966423" lon="11.5875898"><ele>85.0</ele><time>2026-04-04T07:25:14.924Z</time></trkpt><trkpt lat="44.3965514" lon="11.58766"><ele>85.0</ele><time>2026-04-04T07:25:15.925Z</time></trkpt><trkpt lat="44.3964777" lon="11.5877435"><ele>85.0</ele><time>2026-04-04T07:25:16.925Z</time></trkpt><trkpt lat="44.396419" lon="11.5878177"><ele>85.0</ele><time>2026-04-04T07:25:17.925Z</time></trkpt><trkpt lat="44.3963132" lon="11.5878955"><ele>84.75</ele><time>2026-04-04T07:25:19.924Z</time></trkpt><trkpt lat="44.396186" lon="11.5878767"><ele>84.5</ele><time>2026-04-04T07:25:21.925Z</time></trkpt><trkpt lat="44.3960998" lon="11.5878407"><ele>84.25</ele><time>2026-04-04T07:25:22.925Z</time></trkpt><trkpt lat="44.3959938" lon="11.5877987"><ele>84.0</ele><time>2026-04-04T07:25:23.925Z</time></trkpt><trkpt lat="44.3958729" lon="11.5877424"><ele>84.0</ele><time>2026-04-04T07:25:24.924Z</time></trkpt><trkpt lat="44.3957448" lon="11.5876706"><ele>84.0</ele><time>2026-04-04T07:25:25.924Z</time></trkpt><trkpt lat="44.3956129" lon="11.5875931"><ele>84.0</ele><time>2026-04-04T07:25:26.923Z</time></trkpt><trkpt lat="44.3954846" lon="11.5875213"><ele>84.0</ele><time>2026-04-04T07:25:27.923Z</time></trkpt><trkpt lat="44.3953678" lon="11.5874552"><ele>84.25</ele><time>2026-04-04T07:25:28.924Z</time></trkpt><trkpt lat="44.3952597" lon="11.5873911"><ele>84.5</ele><time>2026-04-04T07:25:29.924Z</time></trkpt><trkpt lat="44.3951593" lon="11.5873297"><ele>84.75</ele><time>2026-04-04T07:25:30.925Z</time></trkpt><trkpt lat="44.3950582" lon="11.5872693"><ele>85.0</ele><time>2026-04-04T07:25:31.924Z</time></trkpt><trkpt lat="44.3949479" lon="11.5872096"><ele>85.0</ele><time>2026-04-04T07:25:32.925Z</time></trkpt><trkpt lat="44.394832" lon="11.5871488"><ele>85.0</ele><time>2026-04-04T07:25:33.925Z</time></trkpt><trkpt lat="44.3947103" lon="11.5870841"><ele>85.0</ele><time>2026-04-04T07:25:34.925Z</time></trkpt><trkpt lat="44.3945836" lon="11.587011"><ele>85.0</ele><time>2026-04-04T07:25:35.923Z</time></trkpt><trkpt lat="44.394451" lon="11.5869286"><ele>85.66666666666666</ele><time>2026-04-04T07:25:36.923Z</time></trkpt><trkpt lat="44.3943153" lon="11.5868333"><ele>86.33333333333333</ele><time>2026-04-04T07:25:37.924Z</time></trkpt><trkpt lat="44.3941731" lon="11.5867216"><ele>87.0</ele><time>2026-04-04T07:25:38.925Z</time></trkpt><trkpt lat="44.3940228" lon="11.5865951"><ele>87.0</ele><time>2026-04-04T07:25:39.925Z</time></trkpt><trkpt lat="44.393876" lon="11.5864697"><ele>87.0</ele><time>2026-04-04T07:25:40.925Z</time></trkpt><trkpt lat="44.3937377" lon="11.5863532"><ele>87.0</ele><time>2026-04-04T07:25:41.925Z</time></trkpt><trkpt lat="44.3936054" lon="11.5862383"><ele>86.66666666666667</ele><time>2026-04-04T07:25:42.925Z</time></trkpt><trkpt lat="44.3934729" lon="11.5861297"><ele>86.33333333333334</ele><time>2026-04-04T07:25:43.925Z</time></trkpt><trkpt lat="44.3933442" lon="11.5860215"><ele>86.0</ele><time>2026-04-04T07:25:44.924Z</time></trkpt><trkpt lat="44.3932174" lon="11.5859194"><ele>86.0</ele><time>2026-04-04T07:25:45.924Z</time></trkpt><trkpt lat="44.3930872" lon="11.5858203"><ele>86.0</ele><time>2026-04-04T07:25:46.925Z</time></trkpt><trkpt lat="44.3929492" lon="11.5857239"><ele>86.0</ele><time>2026-04-04T07:25:47.925Z</time></trkpt><trkpt lat="44.3927988" lon="11.5856325"><ele>87.0</ele><time>2026-04-04T07:25:48.924Z</time></trkpt><trkpt lat="44.3926458" lon="11.5855437"><ele>88.0</ele><time>2026-04-04T07:25:49.925Z</time></trkpt><trkpt lat="44.3925044" lon="11.5854605"><ele>89.0</ele><time>2026-04-04T07:25:50.925Z</time></trkpt><trkpt lat="44.3923739" lon="11.5853851"><ele>89.2</ele><time>2026-04-04T07:25:51.924Z</time></trkpt><trkpt lat="44.3922551" lon="11.5853182"><ele>89.4</ele><time>2026-04-04T07:25:52.923Z</time></trkpt><trkpt lat="44.3921528" lon="11.5852608"><ele>89.6</ele><time>2026-04-04T07:25:53.924Z</time></trkpt><trkpt lat="44.3920687" lon="11.5852044"><ele>89.8</ele><time>2026-04-04T07:25:54.924Z</time></trkpt><trkpt lat="44.3920046" lon="11.5851397"><ele>90.0</ele><time>2026-04-04T07:25:55.924Z</time></trkpt><trkpt lat="44.3919633" lon="11.5850572"><ele>90.16666666666667</ele><time>2026-04-04T07:25:56.924Z</time></trkpt><trkpt lat="44.3919365" lon="11.5849619"><ele>90.33333333333333</ele><time>2026-04-04T07:25:57.923Z</time></trkpt><trkpt lat="44.3919053" lon="11.5848576"><ele>90.5</ele><time>2026-04-04T07:25:58.924Z</time></trkpt><trkpt lat="44.3918384" lon="11.584773"><ele>90.66666666666666</ele><time>2026-04-04T07:25:59.924Z</time></trkpt><trkpt lat="44.391746" lon="11.584731"><ele>90.83333333333333</ele><time>2026-04-04T07:26:00.925Z</time></trkpt><trkpt lat="44.3916382" lon="11.5847351"><ele>91.0</ele><time>2026-04-04T07:26:01.924Z</time></trkpt><trkpt lat="44.3915218" lon="11.5847861"><ele>91.0</ele><time>2026-04-04T07:26:02.925Z</time></trkpt><trkpt lat="44.3913961" lon="11.5848472"><ele>91.0</ele><time>2026-04-04T07:26:03.924Z</time></trkpt><trkpt lat="44.3912625" lon="11.5848788"><ele>91.0</ele><time>2026-04-04T07:26:04.924Z</time></trkpt><trkpt lat="44.3911246" lon="11.5848707"><ele>91.0</ele><time>2026-04-04T07:26:05.925Z</time></trkpt><trkpt lat="44.3909897" lon="11.5848303"><ele>91.5</ele><time>2026-04-04T07:26:06.925Z</time></trkpt><trkpt lat="44.3908589" lon="11.5847526"><ele>92.0</ele><time>2026-04-04T07:26:07.924Z</time></trkpt><trkpt lat="44.3907346" lon="11.5846545"><ele>92.5</ele><time>2026-04-04T07:26:08.924Z</time></trkpt><trkpt lat="44.3906104" lon="11.5845487"><ele>93.0</ele><time>2026-04-04T07:26:09.924Z</time></trkpt><trkpt lat="44.3904839" lon="11.5844384"><ele>93.66666666666667</ele><time>2026-04-04T07:26:10.924Z</time></trkpt><trkpt lat="44.3903537" lon="11.5843218"><ele>94.33333333333334</ele><time>2026-04-04T07:26:11.924Z</time></trkpt><trkpt lat="44.3902212" lon="11.5841978"><ele>95.0</ele><time>2026-04-04T07:26:12.925Z</time></trkpt><trkpt lat="44.3900903" lon="11.5840668"><ele>95.0</ele><time>2026-04-04T07:26:13.925Z</time></trkpt><trkpt lat="44.3899697" lon="11.5839354"><ele>95.0</ele><time>2026-04-04T07:26:14.925Z</time></trkpt><trkpt lat="44.3898551" lon="11.5838195"><ele>95.0</ele><time>2026-04-04T07:26:15.925Z</time></trkpt><trkpt lat="44.3897363" lon="11.583711"><ele>95.0</ele><time>2026-04-04T07:26:16.924Z</time></trkpt><trkpt lat="44.3896157" lon="11.583608"><ele>95.33333333333334</ele><time>2026-04-04T07:26:17.924Z</time></trkpt><trkpt lat="44.3894854" lon="11.5835081"><ele>95.66666666666667</ele><time>2026-04-04T07:26:18.924Z</time></trkpt><trkpt lat="44.3893339" lon="11.5833997"><ele>96.0</ele><time>2026-04-04T07:26:19.925Z</time></trkpt><trkpt lat="44.3891742" lon="11.5832712"><ele>96.0</ele><time>2026-04-04T07:26:20.925Z</time></trkpt><trkpt lat="44.3890017" lon="11.5831413"><ele>96.0</ele><time>2026-04-04T07:26:21.925Z</time></trkpt><trkpt lat="44.3888194" lon="11.5830191"><ele>96.0</ele><time>2026-04-04T07:26:22.925Z</time></trkpt><trkpt lat="44.3886338" lon="11.5828892"><ele>96.66666666666666</ele><time>2026-04-04T07:26:23.924Z</time></trkpt><trkpt lat="44.3884411" lon="11.5827516"><ele>97.33333333333333</ele><time>2026-04-04T07:26:24.923Z</time></trkpt><trkpt lat="44.3882431" lon="11.5826088"><ele>98.0</ele><time>2026-04-04T07:26:25.925Z</time></trkpt><trkpt lat="44.388039" lon="11.5824631"><ele>98.33333333333333</ele><time>2026-04-04T07:26:26.925Z</time></trkpt><trkpt lat="44.3878397" lon="11.5823191"><ele>98.66666666666666</ele><time>2026-04-04T07:26:27.924Z</time></trkpt><trkpt lat="44.3876478" lon="11.582177"><ele>99.0</ele><time>2026-04-04T07:26:28.924Z</time></trkpt><trkpt lat="44.3874669" lon="11.5820429"><ele>100.0</ele><time>2026-04-04T07:26:29.924Z</time></trkpt><trkpt lat="44.3872931" lon="11.5819183"><ele>101.0</ele><time>2026-04-04T07:26:30.924Z</time></trkpt><trkpt lat="44.3871249" lon="11.5818"><ele>102.0</ele><time>2026-04-04T07:26:31.925Z</time></trkpt><trkpt lat="44.3869552" lon="11.5816765"><ele>102.33333333333334</ele><time>2026-04-04T07:26:32.924Z</time></trkpt><trkpt lat="44.38679" lon="11.581556"><ele>102.66666666666667</ele><time>2026-04-04T07:26:33.925Z</time></trkpt><trkpt lat="44.3866272" lon="11.581436"><ele>103.0</ele><time>2026-04-04T07:26:34.924Z</time></trkpt><trkpt lat="44.386466" lon="11.5813196"><ele>103.0</ele><time>2026-04-04T07:26:35.924Z</time></trkpt><trkpt lat="44.3863066" lon="11.5812055"><ele>103.0</ele><time>2026-04-04T07:26:36.925Z</time></trkpt><trkpt lat="44.3861509" lon="11.5811163"><ele>103.0</ele><time>2026-04-04T07:26:37.925Z</time></trkpt><trkpt lat="44.3859903" lon="11.5810529"><ele>103.0</ele><time>2026-04-04T07:26:38.924Z</time></trkpt><trkpt lat="44.3858187" lon="11.5810121"><ele>103.0</ele><time>2026-04-04T07:26:39.925Z</time></trkpt><trkpt lat="44.3856402" lon="11.5810014"><ele>103.0</ele><time>2026-04-04T07:26:40.925Z</time></trkpt><trkpt lat="44.3854644" lon="11.581012"><ele>101.66666666666667</ele><time>2026-04-04T07:26:41.925Z</time></trkpt><trkpt lat="44.3852902" lon="11.581028"><ele>100.33333333333334</ele><time>2026-04-04T07:26:42.924Z</time></trkpt><trkpt lat="44.3851182" lon="11.5810403"><ele>99.0</ele><time>2026-04-04T07:26:43.924Z</time></trkpt><trkpt lat="44.3849522" lon="11.5810409"><ele>99.0</ele><time>2026-04-04T07:26:44.924Z</time></trkpt><trkpt lat="44.3847872" lon="11.5810193"><ele>99.0</ele><time>2026-04-04T07:26:45.924Z</time></trkpt><trkpt lat="44.3846208" lon="11.5809637"><ele>99.0</ele><time>2026-04-04T07:26:46.925Z</time></trkpt><trkpt lat="44.3844494" lon="11.5808887"><ele>95.66666666666667</ele><time>2026-04-04T07:26:47.925Z</time></trkpt><trkpt lat="44.3842703" lon="11.5808225"><ele>92.33333333333334</ele><time>2026-04-04T07:26:48.924Z</time></trkpt><trkpt lat="44.38408" lon="11.5807824"><ele>89.0</ele><time>2026-04-04T07:26:49.925Z</time></trkpt><trkpt lat="44.3838832" lon="11.5807806"><ele>87.33333333333334</ele><time>2026-04-04T07:26:50.926Z</time></trkpt><trkpt lat="44.383694" lon="11.5807941"><ele>85.66666666666667</ele><time>2026-04-04T07:26:51.925Z</time></trkpt><trkpt lat="44.3835123" lon="11.5808049"><ele>84.0</ele><time>2026-04-04T07:26:52.925Z</time></trkpt><trkpt lat="44.3833397" lon="11.5808176"><ele>84.0</ele><time>2026-04-04T07:26:53.924Z</time></trkpt><trkpt lat="44.3831747" lon="11.5808285"><ele>84.0</ele><time>2026-04-04T07:26:54.924Z</time></trkpt><trkpt lat="44.3830172" lon="11.5808345"><ele>84.0</ele><time>2026-04-04T07:26:55.923Z</time></trkpt><trkpt lat="44.3828632" lon="11.5808227"><ele>84.33333333333333</ele><time>2026-04-04T07:26:56.924Z</time></trkpt><trkpt lat="44.3827006" lon="11.580791"><ele>84.66666666666666</ele><time>2026-04-04T07:26:57.924Z</time></trkpt><trkpt lat="44.3825321" lon="11.5807456"><ele>85.0</ele><time>2026-04-04T07:26:58.924Z</time></trkpt><trkpt lat="44.382357" lon="11.5806876"><ele>85.33333333333333</ele><time>2026-04-04T07:26:59.923Z</time></trkpt><trkpt lat="44.3821776" lon="11.5806208"><ele>85.66666666666667</ele><time>2026-04-04T07:27:00.923Z</time></trkpt><trkpt lat="44.3819953" lon="11.5805506"><ele>86.0</ele><time>2026-04-04T07:27:01.924Z</time></trkpt><trkpt lat="44.3818036" lon="11.5804771"><ele>86.0</ele><time>2026-04-04T07:27:02.924Z</time></trkpt><trkpt lat="44.3816102" lon="11.580401"><ele>86.0</ele><time>2026-04-04T07:27:03.925Z</time></trkpt><trkpt lat="44.3814091" lon="11.5803241"><ele>86.0</ele><time>2026-04-04T07:27:04.923Z</time></trkpt><trkpt lat="44.3812021" lon="11.5802502"><ele>86.33333333333334</ele><time>2026-04-04T07:27:05.923Z</time></trkpt><trkpt lat="44.3809895" lon="11.5801777"><ele>86.66666666666667</ele><time>2026-04-04T07:27:06.924Z</time></trkpt><trkpt lat="44.380782" lon="11.5801118"><ele>87.0</ele><time>2026-04-04T07:27:07.924Z</time></trkpt><trkpt lat="44.380574" lon="11.5800497"><ele>87.0</ele><time>2026-04-04T07:27:08.924Z</time></trkpt><trkpt lat="44.3803643" lon="11.5799885"><ele>87.0</ele><time>2026-04-04T07:27:09.924Z</time></trkpt><trkpt lat="44.3801544" lon="11.5799213"><ele>87.0</ele><time>2026-04-04T07:27:10.925Z</time></trkpt><trkpt lat="44.3799442" lon="11.5798536"><ele>87.0</ele><time>2026-04-04T07:27:11.925Z</time></trkpt><trkpt lat="44.3797353" lon="11.5797899"><ele>87.0</ele><time>2026-04-04T07:27:12.924Z</time></trkpt><trkpt lat="44.3795303" lon="11.5797243"><ele>87.0</ele><time>2026-04-04T07:27:13.924Z</time></trkpt><trkpt lat="44.379327" lon="11.5796576"><ele>87.33333333333333</ele><time>2026-04-04T07:27:14.925Z</time></trkpt><trkpt lat="44.3791242" lon="11.579593"><ele>87.66666666666666</ele><time>2026-04-04T07:27:15.924Z</time></trkpt><trkpt lat="44.3789215" lon="11.5795281"><ele>88.0</ele><time>2026-04-04T07:27:16.925Z</time></trkpt><trkpt lat="44.3787164" lon="11.5794541"><ele>88.33333333333333</ele><time>2026-04-04T07:27:17.923Z</time></trkpt><trkpt lat="44.3785099" lon="11.5793714"><ele>88.66666666666667</ele><time>2026-04-04T07:27:18.926Z</time></trkpt><trkpt lat="44.3783024" lon="11.5792909"><ele>89.0</ele><time>2026-04-04T07:27:19.924Z</time></trkpt><trkpt lat="44.378092" lon="11.5792158"><ele>89.0</ele><time>2026-04-04T07:27:20.924Z</time></trkpt><trkpt lat="44.3778788" lon="11.5791428"><ele>89.0</ele><time>2026-04-04T07:27:21.924Z</time></trkpt><trkpt lat="44.3776652" lon="11.5790708"><ele>89.0</ele><time>2026-04-04T07:27:22.924Z</time></trkpt><trkpt lat="44.3774508" lon="11.5790004"><ele>89.0</ele><time>2026-04-04T07:27:23.925Z</time></trkpt><trkpt lat="44.3772347" lon="11.5789318"><ele>89.0</ele><time>2026-04-04T07:27:24.926Z</time></trkpt><trkpt lat="44.3770185" lon="11.5788623"><ele>89.0</ele><time>2026-04-04T07:27:25.925Z</time></trkpt><trkpt lat="44.3768026" lon="11.5787921"><ele>89.33333333333334</ele><time>2026-04-04T07:27:26.925Z</time></trkpt><trkpt lat="44.3765878" lon="11.5787215"><ele>89.66666666666667</ele><time>2026-04-04T07:27:27.925Z</time></trkpt><trkpt lat="44.3763718" lon="11.5786515"><ele>90.0</ele><time>2026-04-04T07:27:28.925Z</time></trkpt><trkpt lat="44.3761581" lon="11.5785821"><ele>91.66666666666667</ele><time>2026-04-04T07:27:29.924Z</time></trkpt><trkpt lat="44.3759489" lon="11.5785134"><ele>93.33333333333334</ele><time>2026-04-04T07:27:30.926Z</time></trkpt><trkpt lat="44.3757475" lon="11.5784433"><ele>95.0</ele><time>2026-04-04T07:27:31.925Z</time></trkpt><trkpt lat="44.3755504" lon="11.5783601"><ele>95.33333333333334</ele><time>2026-04-04T07:27:32.925Z</time></trkpt><trkpt lat="44.3753573" lon="11.5782539"><ele>95.66666666666667</ele><time>2026-04-04T07:27:33.925Z</time></trkpt><trkpt lat="44.3751622" lon="11.5781419"><ele>96.0</ele><time>2026-04-04T07:27:34.926Z</time></trkpt><trkpt lat="44.374965" lon="11.5780316"><ele>96.0</ele><time>2026-04-04T07:27:35.924Z</time></trkpt><trkpt lat="44.3747662" lon="11.57792"><ele>96.0</ele><time>2026-04-04T07:27:36.926Z</time></trkpt><trkpt lat="44.374565" lon="11.5778092"><ele>96.0</ele><time>2026-04-04T07:27:37.925Z</time></trkpt><trkpt lat="44.3743631" lon="11.5777014"><ele>96.0</ele><time>2026-04-04T07:27:38.926Z</time></trkpt><trkpt lat="44.3741608" lon="11.5775907"><ele>96.0</ele><time>2026-04-04T07:27:39.925Z</time></trkpt><trkpt lat="44.3739593" lon="11.5774814"><ele>96.0</ele><time>2026-04-04T07:27:40.926Z</time></trkpt><trkpt lat="44.373759" lon="11.5773652"><ele>96.66666666666666</ele><time>2026-04-04T07:27:41.925Z</time></trkpt><trkpt lat="44.373557" lon="11.5772462"><ele>97.33333333333333</ele><time>2026-04-04T07:27:42.925Z</time></trkpt><trkpt lat="44.3733556" lon="11.5771229"><ele>98.0</ele><time>2026-04-04T07:27:43.925Z</time></trkpt><trkpt lat="44.3731577" lon="11.5769969"><ele>97.66666666666666</ele><time>2026-04-04T07:27:44.926Z</time></trkpt><trkpt lat="44.3729611" lon="11.5768821"><ele>97.33333333333334</ele><time>2026-04-04T07:27:45.924Z</time></trkpt><trkpt lat="44.3727582" lon="11.5768003"><ele>97.0</ele><time>2026-04-04T07:27:46.926Z</time></trkpt><trkpt lat="44.3725422" lon="11.5767518"><ele>97.0</ele><time>2026-04-04T07:27:47.924Z</time></trkpt><trkpt lat="44.372319" lon="11.5767207"><ele>97.0</ele><time>2026-04-04T07:27:48.925Z</time></trkpt><trkpt lat="44.3720964" lon="11.5766826"><ele>97.0</ele><time>2026-04-04T07:27:49.924Z</time></trkpt><trkpt lat="44.3718747" lon="11.5766412"><ele>97.0</ele><time>2026-04-04T07:27:50.926Z</time></trkpt><trkpt lat="44.3716543" lon="11.5765962"><ele>97.0</ele><time>2026-04-04T07:27:51.923Z</time></trkpt><trkpt lat="44.3714349" lon="11.5765447"><ele>97.0</ele><time>2026-04-04T07:27:52.923Z</time></trkpt><trkpt lat="44.3712146" lon="11.5764951"><ele>97.33333333333334</ele><time>2026-04-04T07:27:53.924Z</time></trkpt><trkpt lat="44.3709964" lon="11.5764553"><ele>97.66666666666666</ele><time>2026-04-04T07:27:54.925Z</time></trkpt><trkpt lat="44.3707773" lon="11.5764244"><ele>98.0</ele><time>2026-04-04T07:27:55.924Z</time></trkpt><trkpt lat="44.3705675" lon="11.5764028"><ele>97.33333333333333</ele><time>2026-04-04T07:27:56.923Z</time></trkpt><trkpt lat="44.3703702" lon="11.5763973"><ele>96.66666666666666</ele><time>2026-04-04T07:27:57.924Z</time></trkpt><trkpt lat="44.3701812" lon="11.5764043"><ele>96.0</ele><time>2026-04-04T07:27:58.924Z</time></trkpt><trkpt lat="44.3699998" lon="11.5764116"><ele>96.0</ele><time>2026-04-04T07:27:59.924Z</time></trkpt><trkpt lat="44.3698169" lon="11.5763812"><ele>96.0</ele><time>2026-04-04T07:28:00.926Z</time></trkpt><trkpt lat="44.369629" lon="11.576311"><ele>96.0</ele><time>2026-04-04T07:28:01.923Z</time></trkpt><trkpt lat="44.3694417" lon="11.5761963"><ele>94.66666666666667</ele><time>2026-04-04T07:28:02.923Z</time></trkpt><trkpt lat="44.3692541" lon="11.5760538"><ele>93.33333333333334</ele><time>2026-04-04T07:28:03.924Z</time></trkpt><trkpt lat="44.3690654" lon="11.5759105"><ele>92.0</ele><time>2026-04-04T07:28:04.925Z</time></trkpt><trkpt lat="44.3688777" lon="11.575766"><ele>93.66666666666667</ele><time>2026-04-04T07:28:05.924Z</time></trkpt><trkpt lat="44.3686913" lon="11.57562"><ele>95.33333333333334</ele><time>2026-04-04T07:28:06.923Z</time></trkpt><trkpt lat="44.3685075" lon="11.575478"><ele>97.0</ele><time>2026-04-04T07:28:07.924Z</time></trkpt><trkpt lat="44.3683305" lon="11.5753478"><ele>97.33333333333334</ele><time>2026-04-04T07:28:08.924Z</time></trkpt><trkpt lat="44.3681638" lon="11.5752314"><ele>97.66666666666666</ele><time>2026-04-04T07:28:09.924Z</time></trkpt><trkpt lat="44.3680035" lon="11.575141"><ele>98.0</ele><time>2026-04-04T07:28:10.924Z</time></trkpt><trkpt lat="44.3678518" lon="11.5750824"><ele>98.0</ele><time>2026-04-04T07:28:11.925Z</time></trkpt><trkpt lat="44.3677093" lon="11.5750444"><ele>98.0</ele><time>2026-04-04T07:28:12.924Z</time></trkpt><trkpt lat="44.3675639" lon="11.5750099"><ele>98.0</ele><time>2026-04-04T07:28:13.923Z</time></trkpt><trkpt lat="44.367425" lon="11.5749589"><ele>98.0</ele><time>2026-04-04T07:28:14.924Z</time></trkpt><trkpt lat="44.3673095" lon="11.5748858"><ele>98.0</ele><time>2026-04-04T07:28:15.924Z</time></trkpt><trkpt lat="44.3672084" lon="11.5748028"><ele>98.0</ele><time>2026-04-04T07:28:16.924Z</time></trkpt><trkpt lat="44.3671221" lon="11.5747183"><ele>98.0</ele><time>2026-04-04T07:28:17.923Z</time></trkpt><trkpt lat="44.3670332" lon="11.5746292"><ele>98.0</ele><time>2026-04-04T07:28:18.924Z</time></trkpt><trkpt lat="44.3669454" lon="11.5745309"><ele>98.0</ele><time>2026-04-04T07:28:19.924Z</time></trkpt><trkpt lat="44.3668641" lon="11.5744387"><ele>98.60000000000001</ele><time>2026-04-04T07:28:20.925Z</time></trkpt><trkpt lat="44.3667938" lon="11.574365"><ele>99.2</ele><time>2026-04-04T07:28:21.925Z</time></trkpt><trkpt lat="44.3667313" lon="11.5743025"><ele>99.8</ele><time>2026-04-04T07:28:22.924Z</time></trkpt><trkpt lat="44.36666" lon="11.5742439"><ele>100.4</ele><time>2026-04-04T07:28:23.924Z</time></trkpt><trkpt lat="44.3665626" lon="11.5741539"><ele>101.0</ele><time>2026-04-04T07:28:24.924Z</time></trkpt><trkpt lat="44.366452" lon="11.5740188"><ele>101.33333333333333</ele><time>2026-04-04T07:28:25.925Z</time></trkpt><trkpt lat="44.3663275" lon="11.5738655"><ele>101.66666666666666</ele><time>2026-04-04T07:28:26.924Z</time></trkpt><trkpt lat="44.366172" lon="11.5737248"><ele>102.0</ele><time>2026-04-04T07:28:27.924Z</time></trkpt><trkpt lat="44.3659945" lon="11.5736125"><ele>103.0</ele><time>2026-04-04T07:28:28.925Z</time></trkpt><trkpt lat="44.365792" lon="11.573534"><ele>104.0</ele><time>2026-04-04T07:28:29.924Z</time></trkpt><trkpt lat="44.3655779" lon="11.5734969"><ele>105.0</ele><time>2026-04-04T07:28:30.925Z</time></trkpt><trkpt lat="44.3653603" lon="11.573471"><ele>105.66666666666666</ele><time>2026-04-04T07:28:31.925Z</time></trkpt><trkpt lat="44.3651396" lon="11.5734439"><ele>106.33333333333333</ele><time>2026-04-04T07:28:32.923Z</time></trkpt><trkpt lat="44.3649182" lon="11.5734089"><ele>107.0</ele><time>2026-04-04T07:28:33.924Z</time></trkpt><trkpt lat="44.3646986" lon="11.5733693"><ele>107.33333333333333</ele><time>2026-04-04T07:28:34.925Z</time></trkpt><trkpt lat="44.3644861" lon="11.5733273"><ele>107.66666666666666</ele><time>2026-04-04T07:28:35.925Z</time></trkpt><trkpt lat="44.3642853" lon="11.5732952"><ele>108.0</ele><time>2026-04-04T07:28:36.925Z</time></trkpt><trkpt lat="44.3641003" lon="11.5732817"><ele>108.0</ele><time>2026-04-04T07:28:37.925Z</time></trkpt><trkpt lat="44.3639288" lon="11.5732873"><ele>108.0</ele><time>2026-04-04T07:28:38.925Z</time></trkpt><trkpt lat="44.3637705" lon="11.5732893"><ele>108.0</ele><time>2026-04-04T07:28:39.925Z</time></trkpt><trkpt lat="44.3636158" lon="11.573249"><ele>107.66666666666666</ele><time>2026-04-04T07:28:40.925Z</time></trkpt><trkpt lat="44.363472" lon="11.5731554"><ele>107.33333333333333</ele><time>2026-04-04T07:28:41.925Z</time></trkpt><trkpt lat="44.3633534" lon="11.5730107"><ele>107.0</ele><time>2026-04-04T07:28:42.925Z</time></trkpt><trkpt lat="44.3632646" lon="11.5728217"><ele>107.0</ele><time>2026-04-04T07:28:43.925Z</time></trkpt><trkpt lat="44.3631924" lon="11.5726012"><ele>107.0</ele><time>2026-04-04T07:28:44.924Z</time></trkpt><trkpt lat="44.3631164" lon="11.5723654"><ele>107.0</ele><time>2026-04-04T07:28:45.925Z</time></trkpt><trkpt lat="44.3630344" lon="11.5721191"><ele>104.33333333333333</ele><time>2026-04-04T07:28:46.925Z</time></trkpt><trkpt lat="44.3629546" lon="11.5718716"><ele>101.66666666666666</ele><time>2026-04-04T07:28:47.924Z</time></trkpt><trkpt lat="44.3628737" lon="11.5716173"><ele>99.0</ele><time>2026-04-04T07:28:48.924Z</time></trkpt><trkpt lat="44.3627945" lon="11.5713659"><ele>101.66666666666666</ele><time>2026-04-04T07:28:49.925Z</time></trkpt><trkpt lat="44.3627191" lon="11.5711217"><ele>104.33333333333333</ele><time>2026-04-04T07:28:50.924Z</time></trkpt><trkpt lat="44.3626449" lon="11.5709018"><ele>107.0</ele><time>2026-04-04T07:28:51.925Z</time></trkpt><trkpt lat="44.3625594" lon="11.5707039"><ele>107.0</ele><time>2026-04-04T07:28:52.925Z</time></trkpt><trkpt lat="44.3624494" lon="11.5705307"><ele>107.0</ele><time>2026-04-04T07:28:53.925Z</time></trkpt><trkpt lat="44.3623184" lon="11.5703777"><ele>107.0</ele><time>2026-04-04T07:28:54.924Z</time></trkpt><trkpt lat="44.3621728" lon="11.5702457"><ele>106.33333333333333</ele><time>2026-04-04T07:28:55.924Z</time></trkpt><trkpt lat="44.3620299" lon="11.5701321"><ele>105.66666666666666</ele><time>2026-04-04T07:28:56.924Z</time></trkpt><trkpt lat="44.361892" lon="11.5700325"><ele>105.0</ele><time>2026-04-04T07:28:57.924Z</time></trkpt><trkpt lat="44.3617642" lon="11.5699371"><ele>105.0</ele><time>2026-04-04T07:28:58.924Z</time></trkpt><trkpt lat="44.3616628" lon="11.5698176"><ele>105.0</ele><time>2026-04-04T07:28:59.925Z</time></trkpt><trkpt lat="44.3615829" lon="11.5696679"><ele>105.0</ele><time>2026-04-04T07:29:00.924Z</time></trkpt><trkpt lat="44.3614985" lon="11.5695101"><ele>105.0</ele><time>2026-04-04T07:29:01.925Z</time></trkpt><trkpt lat="44.3614607" lon="11.5692879"><ele>104.0</ele><time>2026-04-04T07:29:02.924Z</time></trkpt><trkpt lat="44.3613998" lon="11.569091"><ele>103.0</ele><time>2026-04-04T07:29:03.924Z</time></trkpt><trkpt lat="44.3613367" lon="11.5688804"><ele>102.0</ele><time>2026-04-04T07:29:04.924Z</time></trkpt><trkpt lat="44.3612579" lon="11.568671"><ele>102.0</ele><time>2026-04-04T07:29:05.924Z</time></trkpt><trkpt lat="44.3611578" lon="11.5684731"><ele>102.0</ele><time>2026-04-04T07:29:06.925Z</time></trkpt><trkpt lat="44.3610427" lon="11.5682869"><ele>102.0</ele><time>2026-04-04T07:29:07.925Z</time></trkpt><trkpt lat="44.360923" lon="11.5681004"><ele>102.0</ele><time>2026-04-04T07:29:08.924Z</time></trkpt><trkpt lat="44.3608099" lon="11.5679191"><ele>102.0</ele><time>2026-04-04T07:29:09.924Z</time></trkpt><trkpt lat="44.3607005" lon="11.5677456"><ele>102.0</ele><time>2026-04-04T07:29:10.925Z</time></trkpt><trkpt lat="44.3605862" lon="11.5675848"><ele>100.33333333333334</ele><time>2026-04-04T07:29:11.925Z</time></trkpt><trkpt lat="44.3604639" lon="11.5674376"><ele>98.66666666666667</ele><time>2026-04-04T07:29:12.925Z</time></trkpt><trkpt lat="44.3603204" lon="11.5673145"><ele>97.0</ele><time>2026-04-04T07:29:13.924Z</time></trkpt><trkpt lat="44.3601563" lon="11.5672242"><ele>97.0</ele><time>2026-04-04T07:29:14.924Z</time></trkpt><trkpt lat="44.3599791" lon="11.5671531"><ele>97.0</ele><time>2026-04-04T07:29:15.925Z</time></trkpt><trkpt lat="44.3597962" lon="11.5670889"><ele>97.0</ele><time>2026-04-04T07:29:16.925Z</time></trkpt><trkpt lat="44.3596132" lon="11.5670244"><ele>97.66666666666667</ele><time>2026-04-04T07:29:17.925Z</time></trkpt><trkpt lat="44.3594282" lon="11.5669628"><ele>98.33333333333334</ele><time>2026-04-04T07:29:18.924Z</time></trkpt><trkpt lat="44.3592425" lon="11.5669096"><ele>99.0</ele><time>2026-04-04T07:29:19.924Z</time></trkpt><trkpt lat="44.359054" lon="11.5668737"><ele>98.0</ele><time>2026-04-04T07:29:20.924Z</time></trkpt><trkpt lat="44.3588601" lon="11.56687"><ele>97.0</ele><time>2026-04-04T07:29:21.924Z</time></trkpt><trkpt lat="44.3586657" lon="11.5668788"><ele>96.0</ele><time>2026-04-04T07:29:22.924Z</time></trkpt><trkpt lat="44.3584835" lon="11.5668799"><ele>96.0</ele><time>2026-04-04T07:29:23.923Z</time></trkpt><trkpt lat="44.3583127" lon="11.5668813"><ele>96.0</ele><time>2026-04-04T07:29:24.925Z</time></trkpt><trkpt lat="44.3581479" lon="11.5668781"><ele>96.0</ele><time>2026-04-04T07:29:25.925Z</time></trkpt><trkpt lat="44.3579843" lon="11.5668431"><ele>96.33333333333334</ele><time>2026-04-04T07:29:26.923Z</time></trkpt><trkpt lat="44.3578213" lon="11.5667701"><ele>96.66666666666667</ele><time>2026-04-04T07:29:27.924Z</time></trkpt><trkpt lat="44.3576715" lon="11.5666572"><ele>97.0</ele><time>2026-04-04T07:29:28.925Z</time></trkpt><trkpt lat="44.3575311" lon="11.5665042"><ele>97.0</ele><time>2026-04-04T07:29:29.925Z</time></trkpt><trkpt lat="44.3573912" lon="11.5663372"><ele>97.0</ele><time>2026-04-04T07:29:30.925Z</time></trkpt><trkpt lat="44.3572409" lon="11.5661749"><ele>97.0</ele><time>2026-04-04T07:29:31.925Z</time></trkpt><trkpt lat="44.3570916" lon="11.5660062"><ele>96.33333333333334</ele><time>2026-04-04T07:29:32.924Z</time></trkpt><trkpt lat="44.3569436" lon="11.5658366"><ele>95.66666666666667</ele><time>2026-04-04T07:29:33.923Z</time></trkpt><trkpt lat="44.3567991" lon="11.5656716"><ele>95.0</ele><time>2026-04-04T07:29:34.924Z</time></trkpt><trkpt lat="44.356658" lon="11.5655131"><ele>95.33333333333334</ele><time>2026-04-04T07:29:35.924Z</time></trkpt><trkpt lat="44.3565207" lon="11.5653555"><ele>95.66666666666667</ele><time>2026-04-04T07:29:36.925Z</time></trkpt><trkpt lat="44.3563871" lon="11.5652013"><ele>96.0</ele><time>2026-04-04T07:29:37.924Z</time></trkpt><trkpt lat="44.3562583" lon="11.5650483"><ele>96.0</ele><time>2026-04-04T07:29:38.925Z</time></trkpt><trkpt lat="44.3561351" lon="11.5648873"><ele>96.0</ele><time>2026-04-04T07:29:39.925Z</time></trkpt><trkpt lat="44.3560192" lon="11.5647175"><ele>96.0</ele><time>2026-04-04T07:29:40.924Z</time></trkpt><trkpt lat="44.3559093" lon="11.5645432"><ele>97.33333333333334</ele><time>2026-04-04T07:29:41.923Z</time></trkpt><trkpt lat="44.3557988" lon="11.5643742"><ele>98.66666666666667</ele><time>2026-04-04T07:29:42.924Z</time></trkpt><trkpt lat="44.3556891" lon="11.5642197"><ele>100.0</ele><time>2026-04-04T07:29:43.925Z</time></trkpt><trkpt lat="44.3555832" lon="11.5640823"><ele>99.25</ele><time>2026-04-04T07:29:44.924Z</time></trkpt><trkpt lat="44.3554767" lon="11.5639736"><ele>98.5</ele><time>2026-04-04T07:29:45.925Z</time></trkpt><trkpt lat="44.3553658" lon="11.5638884"><ele>97.75</ele><time>2026-04-04T07:29:46.924Z</time></trkpt><trkpt lat="44.3552473" lon="11.5638284"><ele>97.0</ele><time>2026-04-04T07:29:47.924Z</time></trkpt><trkpt lat="44.3551256" lon="11.5637878"><ele>97.0</ele><time>2026-04-04T07:29:48.924Z</time></trkpt><trkpt lat="44.3550088" lon="11.5637697"><ele>97.0</ele><time>2026-04-04T07:29:49.924Z</time></trkpt><trkpt lat="44.3549007" lon="11.5637602"><ele>97.0</ele><time>2026-04-04T07:29:50.924Z</time></trkpt><trkpt lat="44.3547977" lon="11.5637505"><ele>97.0</ele><time>2026-04-04T07:29:51.924Z</time></trkpt><trkpt lat="44.3546907" lon="11.5637318"><ele>97.0</ele><time>2026-04-04T07:29:52.924Z</time></trkpt><trkpt lat="44.3545678" lon="11.5637093"><ele>97.25</ele><time>2026-04-04T07:29:53.924Z</time></trkpt><trkpt lat="44.3544325" lon="11.5636803"><ele>97.5</ele><time>2026-04-04T07:29:54.925Z</time></trkpt><trkpt lat="44.3543016" lon="11.563647"><ele>97.75</ele><time>2026-04-04T07:29:55.924Z</time></trkpt><trkpt lat="44.354178" lon="11.5636199"><ele>98.0</ele><time>2026-04-04T07:29:56.925Z</time></trkpt><trkpt lat="44.3540626" lon="11.5635981"><ele>98.0</ele><time>2026-04-04T07:29:57.925Z</time></trkpt><trkpt lat="44.3539548" lon="11.5635722"><ele>98.0</ele><time>2026-04-04T07:29:58.925Z</time></trkpt><trkpt lat="44.353856" lon="11.5635288"><ele>98.0</ele><time>2026-04-04T07:29:59.925Z</time></trkpt><trkpt lat="44.3537629" lon="11.5634635"><ele>98.0</ele><time>2026-04-04T07:30:00.925Z</time></trkpt><trkpt lat="44.3536753" lon="11.5633745"><ele>98.0</ele><time>2026-04-04T07:30:01.925Z</time></trkpt><trkpt lat="44.3536013" lon="11.5632606"><ele>98.80000000000001</ele><time>2026-04-04T07:30:02.924Z</time></trkpt><trkpt lat="44.353529" lon="11.5631536"><ele>99.6</ele><time>2026-04-04T07:30:03.924Z</time></trkpt><trkpt lat="44.3534601" lon="11.5630508"><ele>100.4</ele><time>2026-04-04T07:30:04.924Z</time></trkpt><trkpt lat="44.3533946" lon="11.5629393"><ele>101.19999999999999</ele><time>2026-04-04T07:30:05.924Z</time></trkpt><trkpt lat="44.353328" lon="11.5628277"><ele>102.0</ele><time>2026-04-04T07:30:06.924Z</time></trkpt><trkpt lat="44.3532616" lon="11.5627116"><ele>101.6</ele><time>2026-04-04T07:30:07.924Z</time></trkpt><trkpt lat="44.3531991" lon="11.5625971"><ele>101.19999999999999</ele><time>2026-04-04T07:30:08.924Z</time></trkpt><trkpt lat="44.3531358" lon="11.562485"><ele>100.8</ele><time>2026-04-04T07:30:09.924Z</time></trkpt><trkpt lat="44.3530716" lon="11.5623708"><ele>100.4</ele><time>2026-04-04T07:30:10.924Z</time></trkpt><trkpt lat="44.3530073" lon="11.5622535"><ele>100.0</ele><time>2026-04-04T07:30:11.923Z</time></trkpt><trkpt lat="44.3529424" lon="11.562128"><ele>101.0</ele><time>2026-04-04T07:30:12.924Z</time></trkpt><trkpt lat="44.3528756" lon="11.5619991"><ele>102.0</ele><time>2026-04-04T07:30:13.924Z</time></trkpt><trkpt lat="44.3528072" lon="11.5618699"><ele>103.0</ele><time>2026-04-04T07:30:14.923Z</time></trkpt><trkpt lat="44.3527408" lon="11.5617391"><ele>104.0</ele><time>2026-04-04T07:30:15.923Z</time></trkpt><trkpt lat="44.352672" lon="11.5616047"><ele>104.0</ele><time>2026-04-04T07:30:16.923Z</time></trkpt><trkpt lat="44.352602" lon="11.5614714"><ele>104.0</ele><time>2026-04-04T07:30:17.924Z</time></trkpt><trkpt lat="44.352532" lon="11.5613392"><ele>104.0</ele><time>2026-04-04T07:30:18.924Z</time></trkpt><trkpt lat="44.3524609" lon="11.5612103"><ele>104.0</ele><time>2026-04-04T07:30:19.923Z</time></trkpt><trkpt lat="44.3523901" lon="11.5610816"><ele>104.0</ele><time>2026-04-04T07:30:20.924Z</time></trkpt><trkpt lat="44.352323" lon="11.5609554"><ele>104.0</ele><time>2026-04-04T07:30:21.923Z</time></trkpt><trkpt lat="44.3522567" lon="11.5608331"><ele>104.0</ele><time>2026-04-04T07:30:22.924Z</time></trkpt><trkpt lat="44.3521853" lon="11.5607086"><ele>104.0</ele><time>2026-04-04T07:30:23.925Z</time></trkpt><trkpt lat="44.3521086" lon="11.5605716"><ele>103.5</ele><time>2026-04-04T07:30:24.924Z</time></trkpt><trkpt lat="44.3520237" lon="11.5604307"><ele>103.0</ele><time>2026-04-04T07:30:25.924Z</time></trkpt><trkpt lat="44.3519204" lon="11.5603004"><ele>102.5</ele><time>2026-04-04T07:30:26.923Z</time></trkpt><trkpt lat="44.3517975" lon="11.5601794"><ele>102.0</ele><time>2026-04-04T07:30:27.925Z</time></trkpt><trkpt lat="44.3516583" lon="11.5600607"><ele>102.0</ele><time>2026-04-04T07:30:28.924Z</time></trkpt><trkpt lat="44.3515122" lon="11.5599436"><ele>102.0</ele><time>2026-04-04T07:30:29.923Z</time></trkpt><trkpt lat="44.351361" lon="11.5598212"><ele>102.0</ele><time>2026-04-04T07:30:30.924Z</time></trkpt><trkpt lat="44.351202" lon="11.5596987"><ele>101.33333333333334</ele><time>2026-04-04T07:30:31.924Z</time></trkpt><trkpt lat="44.3510433" lon="11.5595767"><ele>100.66666666666667</ele><time>2026-04-04T07:30:32.923Z</time></trkpt><trkpt lat="44.3508845" lon="11.559448"><ele>100.0</ele><time>2026-04-04T07:30:33.923Z</time></trkpt><trkpt lat="44.350721" lon="11.5593139"><ele>100.0</ele><time>2026-04-04T07:30:34.923Z</time></trkpt><trkpt lat="44.3505534" lon="11.5591808"><ele>100.0</ele><time>2026-04-04T07:30:35.923Z</time></trkpt><trkpt lat="44.3503825" lon="11.5590432"><ele>100.0</ele><time>2026-04-04T07:30:36.923Z</time></trkpt><trkpt lat="44.3502091" lon="11.5589077"><ele>100.0</ele><time>2026-04-04T07:30:37.922Z</time></trkpt><trkpt lat="44.3500349" lon="11.5587706"><ele>100.0</ele><time>2026-04-04T07:30:38.923Z</time></trkpt><trkpt lat="44.3498591" lon="11.5586318"><ele>100.0</ele><time>2026-04-04T07:30:39.923Z</time></trkpt><trkpt lat="44.3496812" lon="11.5584914"><ele>100.33333333333334</ele><time>2026-04-04T07:30:40.923Z</time></trkpt><trkpt lat="44.3495024" lon="11.5583516"><ele>100.66666666666666</ele><time>2026-04-04T07:30:41.923Z</time></trkpt><trkpt lat="44.3493233" lon="11.55821"><ele>101.0</ele><time>2026-04-04T07:30:42.922Z</time></trkpt><trkpt lat="44.3491431" lon="11.558067"><ele>101.0</ele><time>2026-04-04T07:30:43.924Z</time></trkpt><trkpt lat="44.3489624" lon="11.557925"><ele>101.0</ele><time>2026-04-04T07:30:44.923Z</time></trkpt><trkpt lat="44.3487833" lon="11.5577804"><ele>101.0</ele><time>2026-04-04T07:30:45.924Z</time></trkpt><trkpt lat="44.3486053" lon="11.5576381"><ele>101.33333333333333</ele><time>2026-04-04T07:30:46.924Z</time></trkpt><trkpt lat="44.3484286" lon="11.5574979"><ele>101.66666666666666</ele><time>2026-04-04T07:30:47.924Z</time></trkpt><trkpt lat="44.3482537" lon="11.5573681"><ele>102.0</ele><time>2026-04-04T07:30:48.923Z</time></trkpt><trkpt lat="44.3480707" lon="11.5572568"><ele>102.33333333333334</ele><time>2026-04-04T07:30:49.924Z</time></trkpt><trkpt lat="44.3478816" lon="11.5571693"><ele>102.66666666666667</ele><time>2026-04-04T07:30:50.922Z</time></trkpt><trkpt lat="44.3476898" lon="11.5571026"><ele>103.0</ele><time>2026-04-04T07:30:51.924Z</time></trkpt><trkpt lat="44.3474989" lon="11.5570356"><ele>103.33333333333334</ele><time>2026-04-04T07:30:52.922Z</time></trkpt><trkpt lat="44.3473185" lon="11.5569748"><ele>103.66666666666666</ele><time>2026-04-04T07:30:53.924Z</time></trkpt><trkpt lat="44.3471512" lon="11.5569142"><ele>104.0</ele><time>2026-04-04T07:30:54.923Z</time></trkpt><trkpt lat="44.34699" lon="11.5568352"><ele>104.0</ele><time>2026-04-04T07:30:55.923Z</time></trkpt><trkpt lat="44.34684" lon="11.5566989"><ele>104.0</ele><time>2026-04-04T07:30:56.924Z</time></trkpt><trkpt lat="44.3466972" lon="11.5565249"><ele>104.0</ele><time>2026-04-04T07:30:57.922Z</time></trkpt><trkpt lat="44.3465542" lon="11.5563333"><ele>104.0</ele><time>2026-04-04T07:30:58.923Z</time></trkpt><trkpt lat="44.346407" lon="11.5561343"><ele>104.0</ele><time>2026-04-04T07:30:59.923Z</time></trkpt><trkpt lat="44.3462544" lon="11.5559251"><ele>104.0</ele><time>2026-04-04T07:31:00.922Z</time></trkpt><trkpt lat="44.3460968" lon="11.555708"><ele>104.0</ele><time>2026-04-04T07:31:01.923Z</time></trkpt><trkpt lat="44.3459349" lon="11.5554842"><ele>104.0</ele><time>2026-04-04T07:31:02.924Z</time></trkpt><trkpt lat="44.3457735" lon="11.555265"><ele>104.0</ele><time>2026-04-04T07:31:03.924Z</time></trkpt><trkpt lat="44.3456076" lon="11.5550471"><ele>104.0</ele><time>2026-04-04T07:31:04.924Z</time></trkpt><trkpt lat="44.3454434" lon="11.5548323"><ele>104.0</ele><time>2026-04-04T07:31:05.924Z</time></trkpt><trkpt lat="44.3452798" lon="11.5546163"><ele>104.0</ele><time>2026-04-04T07:31:06.923Z</time></trkpt><trkpt lat="44.3451194" lon="11.5544008"><ele>104.0</ele><time>2026-04-04T07:31:07.923Z</time></trkpt><trkpt lat="44.3449605" lon="11.5541849"><ele>104.66666666666666</ele><time>2026-04-04T07:31:08.923Z</time></trkpt><trkpt lat="44.3448012" lon="11.5539711"><ele>105.33333333333334</ele><time>2026-04-04T07:31:09.923Z</time></trkpt><trkpt lat="44.344643" lon="11.5537577"><ele>106.0</ele><time>2026-04-04T07:31:10.924Z</time></trkpt><trkpt lat="44.3444876" lon="11.553542"><ele>106.66666666666667</ele><time>2026-04-04T07:31:11.923Z</time></trkpt><trkpt lat="44.3443356" lon="11.5533263"><ele>107.33333333333334</ele><time>2026-04-04T07:31:12.923Z</time></trkpt><trkpt lat="44.3441886" lon="11.5531181"><ele>108.0</ele><time>2026-04-04T07:31:13.923Z</time></trkpt><trkpt lat="44.3440539" lon="11.5529269"><ele>108.33333333333334</ele><time>2026-04-04T07:31:14.924Z</time></trkpt><trkpt lat="44.3439335" lon="11.5527418"><ele>108.66666666666667</ele><time>2026-04-04T07:31:15.923Z</time></trkpt><trkpt lat="44.3438409" lon="11.5525373"><ele>109.0</ele><time>2026-04-04T07:31:16.923Z</time></trkpt><trkpt lat="44.3437761" lon="11.5522994"><ele>109.0</ele><time>2026-04-04T07:31:17.923Z</time></trkpt><trkpt lat="44.3437367" lon="11.5520402"><ele>109.0</ele><time>2026-04-04T07:31:18.923Z</time></trkpt><trkpt lat="44.3437124" lon="11.5517641"><ele>109.0</ele><time>2026-04-04T07:31:19.924Z</time></trkpt><trkpt lat="44.3436948" lon="11.5514765"><ele>109.66666666666667</ele><time>2026-04-04T07:31:20.923Z</time></trkpt><trkpt lat="44.3436838" lon="11.5511883"><ele>110.33333333333334</ele><time>2026-04-04T07:31:21.923Z</time></trkpt><trkpt lat="44.3436808" lon="11.5508996"><ele>111.0</ele><time>2026-04-04T07:31:22.922Z</time></trkpt><trkpt lat="44.3436894" lon="11.5506118"><ele>112.0</ele><time>2026-04-04T07:31:23.923Z</time></trkpt><trkpt lat="44.3437111" lon="11.5503274"><ele>113.0</ele><time>2026-04-04T07:31:24.924Z</time></trkpt><trkpt lat="44.3437402" lon="11.5500464"><ele>114.0</ele><time>2026-04-04T07:31:25.923Z</time></trkpt><trkpt lat="44.343776" lon="11.5497715"><ele>114.0</ele><time>2026-04-04T07:31:26.924Z</time></trkpt><trkpt lat="44.3438176" lon="11.549503"><ele>114.0</ele><time>2026-04-04T07:31:27.924Z</time></trkpt><trkpt lat="44.3438626" lon="11.5492395"><ele>114.0</ele><time>2026-04-04T07:31:28.924Z</time></trkpt><trkpt lat="44.3439065" lon="11.5489782"><ele>115.66666666666666</ele><time>2026-04-04T07:31:29.923Z</time></trkpt><trkpt lat="44.3439419" lon="11.5487109"><ele>117.33333333333333</ele><time>2026-04-04T07:31:30.923Z</time></trkpt><trkpt lat="44.3439599" lon="11.5484384"><ele>119.0</ele><time>2026-04-04T07:31:31.923Z</time></trkpt><trkpt lat="44.3439565" lon="11.5481635"><ele>119.0</ele><time>2026-04-04T07:31:32.924Z</time></trkpt><trkpt lat="44.3439401" lon="11.547889"><ele>119.0</ele><time>2026-04-04T07:31:33.923Z</time></trkpt><trkpt lat="44.3439257" lon="11.5476134"><ele>119.0</ele><time>2026-04-04T07:31:34.924Z</time></trkpt><trkpt lat="44.3439165" lon="11.5473406"><ele>119.0</ele><time>2026-04-04T07:31:35.923Z</time></trkpt><trkpt lat="44.3439155" lon="11.5470732"><ele>119.0</ele><time>2026-04-04T07:31:36.924Z</time></trkpt><trkpt lat="44.3439466" lon="11.546826"><ele>119.0</ele><time>2026-04-04T07:31:37.924Z</time></trkpt><trkpt lat="44.3440089" lon="11.546598"><ele>121.66666666666666</ele><time>2026-04-04T07:31:38.922Z</time></trkpt><trkpt lat="44.3440937" lon="11.5463871"><ele>124.33333333333334</ele><time>2026-04-04T07:31:39.922Z</time></trkpt><trkpt lat="44.3441718" lon="11.5461947"><ele>127.0</ele><time>2026-04-04T07:31:40.923Z</time></trkpt><trkpt lat="44.3442102" lon="11.5459946"><ele>127.0</ele><time>2026-04-04T07:31:41.924Z</time></trkpt><trkpt lat="44.3442099" lon="11.5457774"><ele>127.0</ele><time>2026-04-04T07:31:42.924Z</time></trkpt><trkpt lat="44.3441623" lon="11.5455805"><ele>127.0</ele><time>2026-04-04T07:31:43.923Z</time></trkpt><trkpt lat="44.3440759" lon="11.5454304"><ele>127.0</ele><time>2026-04-04T07:31:44.923Z</time></trkpt><trkpt lat="44.3439515" lon="11.5453119"><ele>126.33333333333334</ele><time>2026-04-04T07:31:45.924Z</time></trkpt><trkpt lat="44.3437998" lon="11.5452226"><ele>125.66666666666666</ele><time>2026-04-04T07:31:46.924Z</time></trkpt><trkpt lat="44.3436313" lon="11.5451277"><ele>125.0</ele><time>2026-04-04T07:31:47.924Z</time></trkpt><trkpt lat="44.3434646" lon="11.5450134"><ele>125.0</ele><time>2026-04-04T07:31:48.923Z</time></trkpt><trkpt lat="44.3432964" lon="11.5448822"><ele>125.0</ele><time>2026-04-04T07:31:49.923Z</time></trkpt><trkpt lat="44.3431337" lon="11.5447201"><ele>125.0</ele><time>2026-04-04T07:31:50.922Z</time></trkpt><trkpt lat="44.3429741" lon="11.544529"><ele>128.33333333333331</ele><time>2026-04-04T07:31:51.924Z</time></trkpt><trkpt lat="44.3428097" lon="11.5443316"><ele>131.66666666666666</ele><time>2026-04-04T07:31:52.923Z</time></trkpt><trkpt lat="44.3426511" lon="11.5441349"><ele>135.0</ele><time>2026-04-04T07:31:53.924Z</time></trkpt><trkpt lat="44.3424909" lon="11.5439432"><ele>135.0</ele><time>2026-04-04T07:31:54.923Z</time></trkpt><trkpt lat="44.3423492" lon="11.543777"><ele>135.0</ele><time>2026-04-04T07:31:55.924Z</time></trkpt><trkpt lat="44.3422315" lon="11.5436367"><ele>135.0</ele><time>2026-04-04T07:31:56.924Z</time></trkpt><trkpt lat="44.3421196" lon="11.5435028"><ele>135.0</ele><time>2026-04-04T07:31:57.923Z</time></trkpt><trkpt lat="44.3420112" lon="11.5433692"><ele>135.0</ele><time>2026-04-04T07:31:58.923Z</time></trkpt><trkpt lat="44.3419019" lon="11.5432368"><ele>135.0</ele><time>2026-04-04T07:31:59.923Z</time></trkpt><trkpt lat="44.3417906" lon="11.5430992"><ele>135.0</ele><time>2026-04-04T07:32:00.924Z</time></trkpt><trkpt lat="44.3416773" lon="11.5429596"><ele>134.66666666666666</ele><time>2026-04-04T07:32:01.924Z</time></trkpt><trkpt lat="44.3415571" lon="11.5428151"><ele>134.33333333333331</ele><time>2026-04-04T07:32:02.923Z</time></trkpt><trkpt lat="44.3414323" lon="11.5426655"><ele>134.0</ele><time>2026-04-04T07:32:03.924Z</time></trkpt><trkpt lat="44.3412981" lon="11.5425109"><ele>134.0</ele><time>2026-04-04T07:32:04.924Z</time></trkpt><trkpt lat="44.341159" lon="11.5423523"><ele>134.0</ele><time>2026-04-04T07:32:05.924Z</time></trkpt><trkpt lat="44.3410159" lon="11.5421889"><ele>134.0</ele><time>2026-04-04T07:32:06.923Z</time></trkpt><trkpt lat="44.3408692" lon="11.5420255"><ele>135.66666666666666</ele><time>2026-04-04T07:32:07.923Z</time></trkpt><trkpt lat="44.3407194" lon="11.5418716"><ele>137.33333333333334</ele><time>2026-04-04T07:32:08.924Z</time></trkpt><trkpt lat="44.3405673" lon="11.5417243"><ele>139.0</ele><time>2026-04-04T07:32:09.924Z</time></trkpt><trkpt lat="44.3404137" lon="11.5415788"><ele>139.0</ele><time>2026-04-04T07:32:10.924Z</time></trkpt><trkpt lat="44.3402576" lon="11.5414303"><ele>139.0</ele><time>2026-04-04T07:32:11.923Z</time></trkpt><trkpt lat="44.3401055" lon="11.5412839"><ele>139.0</ele><time>2026-04-04T07:32:12.923Z</time></trkpt><trkpt lat="44.3399624" lon="11.5411454"><ele>140.66666666666669</ele><time>2026-04-04T07:32:13.923Z</time></trkpt><trkpt lat="44.3398215" lon="11.5410111"><ele>142.33333333333334</ele><time>2026-04-04T07:32:14.924Z</time></trkpt><trkpt lat="44.3396872" lon="11.540882"><ele>144.0</ele><time>2026-04-04T07:32:15.924Z</time></trkpt><trkpt lat="44.33956" lon="11.5407673"><ele>144.0</ele><time>2026-04-04T07:32:16.924Z</time></trkpt><trkpt lat="44.3394355" lon="11.5406738"><ele>144.0</ele><time>2026-04-04T07:32:17.924Z</time></trkpt><trkpt lat="44.3393069" lon="11.5406161"><ele>144.0</ele><time>2026-04-04T07:32:18.923Z</time></trkpt><trkpt lat="44.3391693" lon="11.5405986"><ele>144.0</ele><time>2026-04-04T07:32:19.923Z</time></trkpt><trkpt lat="44.339026" lon="11.5406185"><ele>144.0</ele><time>2026-04-04T07:32:20.922Z</time></trkpt><trkpt lat="44.3388785" lon="11.5406588"><ele>144.0</ele><time>2026-04-04T07:32:21.923Z</time></trkpt><trkpt lat="44.3387267" lon="11.5406933"><ele>144.0</ele><time>2026-04-04T07:32:22.923Z</time></trkpt><trkpt lat="44.3385817" lon="11.540715"><ele>144.0</ele><time>2026-04-04T07:32:23.923Z</time></trkpt><trkpt lat="44.3384386" lon="11.5407089"><ele>144.0</ele><time>2026-04-04T07:32:24.924Z</time></trkpt><trkpt lat="44.3382928" lon="11.5406734"><ele>144.0</ele><time>2026-04-04T07:32:25.924Z</time></trkpt><trkpt lat="44.3381487" lon="11.5406093"><ele>144.0</ele><time>2026-04-04T07:32:26.923Z</time></trkpt><trkpt lat="44.3380059" lon="11.5405288"><ele>144.33333333333334</ele><time>2026-04-04T07:32:27.923Z</time></trkpt><trkpt lat="44.3378625" lon="11.5404488"><ele>144.66666666666669</ele><time>2026-04-04T07:32:28.923Z</time></trkpt><trkpt lat="44.3377204" lon="11.5403717"><ele>145.0</ele><time>2026-04-04T07:32:29.923Z</time></trkpt><trkpt lat="44.3375806" lon="11.5402926"><ele>145.0</ele><time>2026-04-04T07:32:30.923Z</time></trkpt><trkpt lat="44.3374447" lon="11.5402088"><ele>145.0</ele><time>2026-04-04T07:32:31.923Z</time></trkpt><trkpt lat="44.3373156" lon="11.5401162"><ele>145.0</ele><time>2026-04-04T07:32:32.924Z</time></trkpt><trkpt lat="44.3371937" lon="11.5400154"><ele>145.0</ele><time>2026-04-04T07:32:33.923Z</time></trkpt><trkpt lat="44.3370778" lon="11.5399154"><ele>142.75</ele><time>2026-04-04T07:32:34.924Z</time></trkpt><trkpt lat="44.3369613" lon="11.5398217"><ele>140.5</ele><time>2026-04-04T07:32:35.924Z</time></trkpt><trkpt lat="44.3368469" lon="11.539729"><ele>138.25</ele><time>2026-04-04T07:32:36.924Z</time></trkpt><trkpt lat="44.3367357" lon="11.5396274"><ele>136.0</ele><time>2026-04-04T07:32:37.924Z</time></trkpt><trkpt lat="44.3366353" lon="11.5394945"><ele>136.0</ele><time>2026-04-04T07:32:38.923Z</time></trkpt><trkpt lat="44.336551" lon="11.5393298"><ele>136.0</ele><time>2026-04-04T07:32:39.923Z</time></trkpt><trkpt lat="44.3364915" lon="11.5391308"><ele>136.0</ele><time>2026-04-04T07:32:40.923Z</time></trkpt><trkpt lat="44.3364588" lon="11.5389083"><ele>135.66666666666669</ele><time>2026-04-04T07:32:41.923Z</time></trkpt><trkpt lat="44.3364458" lon="11.5386659"><ele>135.33333333333334</ele><time>2026-04-04T07:32:42.923Z</time></trkpt><trkpt lat="44.3364461" lon="11.5384161"><ele>135.0</ele><time>2026-04-04T07:32:43.924Z</time></trkpt><trkpt lat="44.336449" lon="11.5381549"><ele>135.0</ele><time>2026-04-04T07:32:44.924Z</time></trkpt><trkpt lat="44.3364471" lon="11.5378868"><ele>135.0</ele><time>2026-04-04T07:32:45.924Z</time></trkpt><trkpt lat="44.3364494" lon="11.5376205"><ele>135.0</ele><time>2026-04-04T07:32:46.923Z</time></trkpt><trkpt lat="44.3364573" lon="11.5373489"><ele>134.66666666666666</ele><time>2026-04-04T07:32:47.924Z</time></trkpt><trkpt lat="44.3364686" lon="11.5370783"><ele>134.33333333333331</ele><time>2026-04-04T07:32:48.924Z</time></trkpt><trkpt lat="44.336475" lon="11.5368145"><ele>134.0</ele><time>2026-04-04T07:32:49.922Z</time></trkpt><trkpt lat="44.3364767" lon="11.5365703"><ele>134.66666666666666</ele><time>2026-04-04T07:32:50.923Z</time></trkpt><trkpt lat="44.3364604" lon="11.536342"><ele>135.33333333333334</ele><time>2026-04-04T07:32:51.923Z</time></trkpt><trkpt lat="44.336416" lon="11.5361176"><ele>136.0</ele><time>2026-04-04T07:32:52.924Z</time></trkpt><trkpt lat="44.3363448" lon="11.5359037"><ele>135.0</ele><time>2026-04-04T07:32:53.924Z</time></trkpt><trkpt lat="44.3362393" lon="11.5357019"><ele>134.0</ele><time>2026-04-04T07:32:54.924Z</time></trkpt><trkpt lat="44.3361079" lon="11.5355241"><ele>133.0</ele><time>2026-04-04T07:32:55.924Z</time></trkpt><trkpt lat="44.3359613" lon="11.5353522"><ele>133.0</ele><time>2026-04-04T07:32:56.923Z</time></trkpt><trkpt lat="44.3358054" lon="11.535175"><ele>133.0</ele><time>2026-04-04T07:32:57.923Z</time></trkpt><trkpt lat="44.3356457" lon="11.5349941"><ele>133.0</ele><time>2026-04-04T07:32:58.923Z</time></trkpt><trkpt lat="44.3354827" lon="11.5348163"><ele>132.33333333333334</ele><time>2026-04-04T07:32:59.924Z</time></trkpt><trkpt lat="44.3353178" lon="11.5346425"><ele>131.66666666666666</ele><time>2026-04-04T07:33:00.924Z</time></trkpt><trkpt lat="44.335157" lon="11.5344698"><ele>131.0</ele><time>2026-04-04T07:33:01.923Z</time></trkpt><trkpt lat="44.3349968" lon="11.5343025"><ele>131.0</ele><time>2026-04-04T07:33:02.922Z</time></trkpt><trkpt lat="44.3348371" lon="11.534143"><ele>131.0</ele><time>2026-04-04T07:33:03.923Z</time></trkpt><trkpt lat="44.3346771" lon="11.5339903"><ele>131.0</ele><time>2026-04-04T07:33:04.924Z</time></trkpt><trkpt lat="44.3345229" lon="11.5338366"><ele>131.66666666666666</ele><time>2026-04-04T07:33:05.924Z</time></trkpt><trkpt lat="44.3343738" lon="11.5336849"><ele>132.33333333333334</ele><time>2026-04-04T07:33:06.924Z</time></trkpt><trkpt lat="44.3342198" lon="11.5335477"><ele>133.0</ele><time>2026-04-04T07:33:07.924Z</time></trkpt><trkpt lat="44.3340581" lon="11.5334325"><ele>133.0</ele><time>2026-04-04T07:33:08.924Z</time></trkpt><trkpt lat="44.3338943" lon="11.5333375"><ele>133.0</ele><time>2026-04-04T07:33:09.923Z</time></trkpt><trkpt lat="44.3337253" lon="11.5332588"><ele>133.0</ele><time>2026-04-04T07:33:10.924Z</time></trkpt><trkpt lat="44.3335556" lon="11.533187"><ele>131.0</ele><time>2026-04-04T07:33:11.923Z</time></trkpt><trkpt lat="44.3333906" lon="11.53313"><ele>129.0</ele><time>2026-04-04T07:33:12.922Z</time></trkpt><trkpt lat="44.3332327" lon="11.5330996"><ele>127.0</ele><time>2026-04-04T07:33:13.923Z</time></trkpt><trkpt lat="44.3330746" lon="11.5331029"><ele>127.66666666666667</ele><time>2026-04-04T07:33:14.924Z</time></trkpt><trkpt lat="44.3329191" lon="11.5331342"><ele>128.33333333333334</ele><time>2026-04-04T07:33:15.924Z</time></trkpt><trkpt lat="44.3327644" lon="11.5331501"><ele>129.0</ele><time>2026-04-04T07:33:16.924Z</time></trkpt><trkpt lat="44.3326104" lon="11.5331051"><ele>129.0</ele><time>2026-04-04T07:33:17.924Z</time></trkpt><trkpt lat="44.3324545" lon="11.5330307"><ele>129.0</ele><time>2026-04-04T07:33:18.923Z</time></trkpt><trkpt lat="44.3323045" lon="11.5329273"><ele>129.0</ele><time>2026-04-04T07:33:19.924Z</time></trkpt><trkpt lat="44.3321644" lon="11.5327958"><ele>129.0</ele><time>2026-04-04T07:33:20.923Z</time></trkpt><trkpt lat="44.3320346" lon="11.5326563"><ele>129.0</ele><time>2026-04-04T07:33:21.923Z</time></trkpt><trkpt lat="44.3319143" lon="11.5325156"><ele>129.0</ele><time>2026-04-04T07:33:22.922Z</time></trkpt><trkpt lat="44.3318022" lon="11.5323819"><ele>129.0</ele><time>2026-04-04T07:33:23.923Z</time></trkpt><trkpt lat="44.3317049" lon="11.5322649"><ele>129.0</ele><time>2026-04-04T07:33:24.923Z</time></trkpt><trkpt lat="44.3316207" lon="11.5321476"><ele>129.0</ele><time>2026-04-04T07:33:25.922Z</time></trkpt><trkpt lat="44.3315655" lon="11.5320095"><ele>129.0</ele><time>2026-04-04T07:33:26.924Z</time></trkpt><trkpt lat="44.3315363" lon="11.5318471"><ele>129.5</ele><time>2026-04-04T07:33:27.924Z</time></trkpt><trkpt lat="44.3315292" lon="11.5316645"><ele>130.0</ele><time>2026-04-04T07:33:28.924Z</time></trkpt><trkpt lat="44.3315297" lon="11.5314633"><ele>130.5</ele><time>2026-04-04T07:33:29.923Z</time></trkpt><trkpt lat="44.3315282" lon="11.5312511"><ele>131.0</ele><time>2026-04-04T07:33:30.924Z</time></trkpt><trkpt lat="44.331526" lon="11.5310282"><ele>131.33333333333331</ele><time>2026-04-04T07:33:31.923Z</time></trkpt><trkpt lat="44.3315268" lon="11.5308002"><ele>131.66666666666666</ele><time>2026-04-04T07:33:32.923Z</time></trkpt><trkpt lat="44.3315293" lon="11.5305689"><ele>132.0</ele><time>2026-04-04T07:33:33.923Z</time></trkpt><trkpt lat="44.3315305" lon="11.5303269"><ele>132.0</ele><time>2026-04-04T07:33:34.923Z</time></trkpt><trkpt lat="44.3315321" lon="11.5300787"><ele>132.0</ele><time>2026-04-04T07:33:35.924Z</time></trkpt><trkpt lat="44.331535" lon="11.5298303"><ele>132.0</ele><time>2026-04-04T07:33:36.924Z</time></trkpt><trkpt lat="44.3315386" lon="11.5295818"><ele>132.33333333333334</ele><time>2026-04-04T07:33:37.923Z</time></trkpt><trkpt lat="44.3315378" lon="11.5293341"><ele>132.66666666666669</ele><time>2026-04-04T07:33:38.924Z</time></trkpt><trkpt lat="44.3315231" lon="11.5290888"><ele>133.0</ele><time>2026-04-04T07:33:39.924Z</time></trkpt><trkpt lat="44.3314864" lon="11.5288502"><ele>130.66666666666669</ele><time>2026-04-04T07:33:40.924Z</time></trkpt><trkpt lat="44.3314321" lon="11.528618"><ele>128.33333333333334</ele><time>2026-04-04T07:33:41.923Z</time></trkpt><trkpt lat="44.3313665" lon="11.5283908"><ele>126.0</ele><time>2026-04-04T07:33:42.924Z</time></trkpt><trkpt lat="44.3312924" lon="11.5281669"><ele>126.0</ele><time>2026-04-04T07:33:43.924Z</time></trkpt><trkpt lat="44.331203" lon="11.5279531"><ele>126.0</ele><time>2026-04-04T07:33:44.924Z</time></trkpt><trkpt lat="44.3311004" lon="11.5277522"><ele>126.0</ele><time>2026-04-04T07:33:45.923Z</time></trkpt><trkpt lat="44.3309851" lon="11.5275655"><ele>127.33333333333334</ele><time>2026-04-04T07:33:46.924Z</time></trkpt><trkpt lat="44.3308579" lon="11.5273948"><ele>128.66666666666669</ele><time>2026-04-04T07:33:47.924Z</time></trkpt><trkpt lat="44.3307234" lon="11.5272336"><ele>130.0</ele><time>2026-04-04T07:33:48.924Z</time></trkpt><trkpt lat="44.3305926" lon="11.5270682"><ele>130.0</ele><time>2026-04-04T07:33:49.924Z</time></trkpt><trkpt lat="44.3304589" lon="11.5268999"><ele>130.0</ele><time>2026-04-04T07:33:50.924Z</time></trkpt><trkpt lat="44.3303167" lon="11.5267338"><ele>130.0</ele><time>2026-04-04T07:33:51.923Z</time></trkpt><trkpt lat="44.3301714" lon="11.5265647"><ele>130.0</ele><time>2026-04-04T07:33:52.923Z</time></trkpt><trkpt lat="44.3300295" lon="11.5263831"><ele>130.0</ele><time>2026-04-04T07:33:53.923Z</time></trkpt><trkpt lat="44.3299024" lon="11.5261876"><ele>130.0</ele><time>2026-04-04T07:33:54.923Z</time></trkpt><trkpt lat="44.3297945" lon="11.5259749"><ele>131.0</ele><time>2026-04-04T07:33:55.923Z</time></trkpt><trkpt lat="44.329712" lon="11.5257576"><ele>132.0</ele><time>2026-04-04T07:33:56.923Z</time></trkpt><trkpt lat="44.3296479" lon="11.5255542"><ele>133.0</ele><time>2026-04-04T07:33:57.924Z</time></trkpt><trkpt lat="44.3295891" lon="11.5253678"><ele>133.5</ele><time>2026-04-04T07:33:58.923Z</time></trkpt><trkpt lat="44.329528" lon="11.5252036"><ele>134.0</ele><time>2026-04-04T07:33:59.923Z</time></trkpt><trkpt lat="44.3294492" lon="11.5250749"><ele>134.5</ele><time>2026-04-04T07:34:00.923Z</time></trkpt><trkpt lat="44.3293473" lon="11.5249793"><ele>135.0</ele><time>2026-04-04T07:34:01.922Z</time></trkpt><trkpt lat="44.3292242" lon="11.5249191"><ele>135.0</ele><time>2026-04-04T07:34:02.922Z</time></trkpt><trkpt lat="44.3290905" lon="11.5248641"><ele>135.0</ele><time>2026-04-04T07:34:03.923Z</time></trkpt><trkpt lat="44.3289646" lon="11.5248143"><ele>135.0</ele><time>2026-04-04T07:34:04.923Z</time></trkpt><trkpt lat="44.3288344" lon="11.524783"><ele>135.0</ele><time>2026-04-04T07:34:05.923Z</time></trkpt><trkpt lat="44.328699" lon="11.5247713"><ele>135.75</ele><time>2026-04-04T07:34:06.923Z</time></trkpt><trkpt lat="44.3285612" lon="11.5247684"><ele>136.5</ele><time>2026-04-04T07:34:07.923Z</time></trkpt><trkpt lat="44.3284226" lon="11.5247461"><ele>137.25</ele><time>2026-04-04T07:34:08.924Z</time></trkpt><trkpt lat="44.3282881" lon="11.5246871"><ele>138.0</ele><time>2026-04-04T07:34:09.923Z</time></trkpt><trkpt lat="44.3281592" lon="11.5246055"><ele>140.75</ele><time>2026-04-04T07:34:10.923Z</time></trkpt><trkpt lat="44.3280325" lon="11.5245213"><ele>143.5</ele><time>2026-04-04T07:34:11.923Z</time></trkpt><trkpt lat="44.3278973" lon="11.5244598"><ele>146.25</ele><time>2026-04-04T07:34:12.923Z</time></trkpt><trkpt lat="44.3277589" lon="11.5244233"><ele>149.0</ele><time>2026-04-04T07:34:13.924Z</time></trkpt><trkpt lat="44.3276154" lon="11.5244042"><ele>149.0</ele><time>2026-04-04T07:34:14.923Z</time></trkpt><trkpt lat="44.3274683" lon="11.5243862"><ele>149.0</ele><time>2026-04-04T07:34:15.923Z</time></trkpt><trkpt lat="44.3273243" lon="11.5243669"><ele>149.0</ele><time>2026-04-04T07:34:16.924Z</time></trkpt><trkpt lat="44.3271834" lon="11.5243509"><ele>149.0</ele><time>2026-04-04T07:34:17.924Z</time></trkpt><trkpt lat="44.3270434" lon="11.5243371"><ele>149.0</ele><time>2026-04-04T07:34:18.923Z</time></trkpt><trkpt lat="44.3269052" lon="11.5243267"><ele>149.0</ele><time>2026-04-04T07:34:19.924Z</time></trkpt><trkpt lat="44.3267668" lon="11.5243247"><ele>149.0</ele><time>2026-04-04T07:34:20.923Z</time></trkpt><trkpt lat="44.3266295" lon="11.5243348"><ele>149.0</ele><time>2026-04-04T07:34:21.924Z</time></trkpt><trkpt lat="44.3265001" lon="11.5243581"><ele>147.75</ele><time>2026-04-04T07:34:22.922Z</time></trkpt><trkpt lat="44.3263853" lon="11.5243831"><ele>146.5</ele><time>2026-04-04T07:34:23.924Z</time></trkpt><trkpt lat="44.3262703" lon="11.5244092"><ele>145.25</ele><time>2026-04-04T07:34:24.924Z</time></trkpt><trkpt lat="44.326154" lon="11.5244269"><ele>144.0</ele><time>2026-04-04T07:34:25.924Z</time></trkpt><trkpt lat="44.3260417" lon="11.5244336"><ele>144.0</ele><time>2026-04-04T07:34:26.924Z</time></trkpt><trkpt lat="44.3259382" lon="11.5244077"><ele>144.0</ele><time>2026-04-04T07:34:27.923Z</time></trkpt><trkpt lat="44.3258547" lon="11.5243431"><ele>144.0</ele><time>2026-04-04T07:34:28.924Z</time></trkpt><trkpt lat="44.3258079" lon="11.5242412"><ele>144.0</ele><time>2026-04-04T07:34:29.924Z</time></trkpt><trkpt lat="44.3258003" lon="11.5241126"><ele>144.0</ele><time>2026-04-04T07:34:30.923Z</time></trkpt><trkpt lat="44.3258367" lon="11.5239744"><ele>144.0</ele><time>2026-04-04T07:34:31.924Z</time></trkpt><trkpt lat="44.3259078" lon="11.5238338"><ele>144.0</ele><time>2026-04-04T07:34:32.924Z</time></trkpt><trkpt lat="44.325989" lon="11.5236867"><ele>144.0</ele><time>2026-04-04T07:34:33.924Z</time></trkpt><trkpt lat="44.3260722" lon="11.523546"><ele>144.0</ele><time>2026-04-04T07:34:34.923Z</time></trkpt><trkpt lat="44.3261571" lon="11.5234159"><ele>143.25</ele><time>2026-04-04T07:34:35.924Z</time></trkpt><trkpt lat="44.3262409" lon="11.5233042"><ele>142.5</ele><time>2026-04-04T07:34:36.923Z</time></trkpt><trkpt lat="44.3263258" lon="11.5232088"><ele>141.75</ele><time>2026-04-04T07:34:37.924Z</time></trkpt><trkpt lat="44.3264093" lon="11.5231051"><ele>141.0</ele><time>2026-04-04T07:34:38.924Z</time></trkpt><trkpt lat="44.3264809" lon="11.5229742"><ele>144.25</ele><time>2026-04-04T07:34:39.923Z</time></trkpt><trkpt lat="44.3265223" lon="11.5228156"><ele>147.5</ele><time>2026-04-04T07:34:40.922Z</time></trkpt><trkpt lat="44.3265257" lon="11.5226412"><ele>150.75</ele><time>2026-04-04T07:34:41.922Z</time></trkpt><trkpt lat="44.3264874" lon="11.5224722"><ele>154.0</ele><time>2026-04-04T07:34:42.923Z</time></trkpt><trkpt lat="44.3264335" lon="11.522308"><ele>151.75</ele><time>2026-04-04T07:34:43.923Z</time></trkpt><trkpt lat="44.326367" lon="11.5221549"><ele>149.5</ele><time>2026-04-04T07:34:44.924Z</time></trkpt><trkpt lat="44.3262696" lon="11.5220017"><ele>147.25</ele><time>2026-04-04T07:34:45.923Z</time></trkpt><trkpt lat="44.3261446" lon="11.5218377"><ele>145.0</ele><time>2026-04-04T07:34:46.923Z</time></trkpt><trkpt lat="44.3260073" lon="11.5216715"><ele>145.0</ele><time>2026-04-04T07:34:47.923Z</time></trkpt><trkpt lat="44.325874" lon="11.5214908"><ele>145.0</ele><time>2026-04-04T07:34:48.923Z</time></trkpt><trkpt lat="44.3257607" lon="11.521283"><ele>145.0</ele><time>2026-04-04T07:34:49.924Z</time></trkpt><trkpt lat="44.3256572" lon="11.521071"><ele>144.33333333333334</ele><time>2026-04-04T07:34:50.923Z</time></trkpt><trkpt lat="44.3255541" lon="11.520865"><ele>143.66666666666666</ele><time>2026-04-04T07:34:51.924Z</time></trkpt><trkpt lat="44.3254578" lon="11.520661"><ele>143.0</ele><time>2026-04-04T07:34:52.923Z</time></trkpt><trkpt lat="44.3253782" lon="11.5204472"><ele>144.0</ele><time>2026-04-04T07:34:53.923Z</time></trkpt><trkpt lat="44.3253254" lon="11.5202261"><ele>145.0</ele><time>2026-04-04T07:34:54.924Z</time></trkpt><trkpt lat="44.325286" lon="11.5200092"><ele>146.0</ele><time>2026-04-04T07:34:55.924Z</time></trkpt><trkpt lat="44.3252365" lon="11.5198017"><ele>146.0</ele><time>2026-04-04T07:34:56.923Z</time></trkpt><trkpt lat="44.3251638" lon="11.5196138"><ele>146.0</ele><time>2026-04-04T07:34:57.924Z</time></trkpt><trkpt lat="44.3250729" lon="11.5194474"><ele>146.0</ele><time>2026-04-04T07:34:58.923Z</time></trkpt><trkpt lat="44.3249707" lon="11.5192994"><ele>147.0</ele><time>2026-04-04T07:34:59.924Z</time></trkpt><trkpt lat="44.3248475" lon="11.5191717"><ele>148.0</ele><time>2026-04-04T07:35:00.924Z</time></trkpt><trkpt lat="44.3247057" lon="11.5190664"><ele>149.0</ele><time>2026-04-04T07:35:01.923Z</time></trkpt><trkpt lat="44.3245547" lon="11.5189519"><ele>149.0</ele><time>2026-04-04T07:35:02.923Z</time></trkpt><trkpt lat="44.3244049" lon="11.5188242"><ele>149.0</ele><time>2026-04-04T07:35:03.923Z</time></trkpt><trkpt lat="44.324249" lon="11.5187012"><ele>149.0</ele><time>2026-04-04T07:35:04.923Z</time></trkpt><trkpt lat="44.3240808" lon="11.5186058"><ele>151.0</ele><time>2026-04-04T07:35:05.923Z</time></trkpt><trkpt lat="44.3239043" lon="11.5185472"><ele>153.0</ele><time>2026-04-04T07:35:06.924Z</time></trkpt><trkpt lat="44.323726" lon="11.5185267"><ele>155.0</ele><time>2026-04-04T07:35:07.923Z</time></trkpt><trkpt lat="44.3235601" lon="11.5185481"><ele>156.33333333333331</ele><time>2026-04-04T07:35:08.924Z</time></trkpt><trkpt lat="44.3234096" lon="11.5185581"><ele>157.66666666666666</ele><time>2026-04-04T07:35:09.924Z</time></trkpt><trkpt lat="44.3232651" lon="11.5185122"><ele>159.0</ele><time>2026-04-04T07:35:10.924Z</time></trkpt><trkpt lat="44.3231214" lon="11.5184224"><ele>159.0</ele><time>2026-04-04T07:35:11.923Z</time></trkpt><trkpt lat="44.3229798" lon="11.518298"><ele>159.0</ele><time>2026-04-04T07:35:12.923Z</time></trkpt><trkpt lat="44.3228366" lon="11.5182233"><ele>159.0</ele><time>2026-04-04T07:35:13.924Z</time></trkpt><trkpt lat="44.3226867" lon="11.518203"><ele>159.0</ele><time>2026-04-04T07:35:14.924Z</time></trkpt><trkpt lat="44.3225313" lon="11.5182215"><ele>159.0</ele><time>2026-04-04T07:35:15.922Z</time></trkpt><trkpt lat="44.3223903" lon="11.5182308"><ele>159.0</ele><time>2026-04-04T07:35:16.923Z</time></trkpt><trkpt lat="44.3222672" lon="11.5181908"><ele>159.0</ele><time>2026-04-04T07:35:17.922Z</time></trkpt><trkpt lat="44.3221672" lon="11.5181097"><ele>158.75</ele><time>2026-04-04T07:35:18.923Z</time></trkpt><trkpt lat="44.3220867" lon="11.5179884"><ele>158.5</ele><time>2026-04-04T07:35:19.924Z</time></trkpt><trkpt lat="44.3220186" lon="11.5178343"><ele>158.25</ele><time>2026-04-04T07:35:20.924Z</time></trkpt><trkpt lat="44.3219463" lon="11.5176554"><ele>158.0</ele><time>2026-04-04T07:35:21.924Z</time></trkpt><trkpt lat="44.3218634" lon="11.5174618"><ele>158.0</ele><time>2026-04-04T07:35:22.923Z</time></trkpt><trkpt lat="44.3217758" lon="11.5172588"><ele>158.0</ele><time>2026-04-04T07:35:23.924Z</time></trkpt><trkpt lat="44.3216913" lon="11.5170564"><ele>158.0</ele><time>2026-04-04T07:35:24.924Z</time></trkpt><trkpt lat="44.3216169" lon="11.5168721"><ele>159.33333333333331</ele><time>2026-04-04T07:35:25.924Z</time></trkpt><trkpt lat="44.3215628" lon="11.5166624"><ele>160.66666666666666</ele><time>2026-04-04T07:35:26.923Z</time></trkpt><trkpt lat="44.3215277" lon="11.516444"><ele>162.0</ele><time>2026-04-04T07:35:27.923Z</time></trkpt><trkpt lat="44.3214991" lon="11.5162394"><ele>162.5</ele><time>2026-04-04T07:35:28.923Z</time></trkpt><trkpt lat="44.3214723" lon="11.5160391"><ele>163.0</ele><time>2026-04-04T07:35:29.924Z</time></trkpt><trkpt lat="44.3214574" lon="11.5158412"><ele>163.5</ele><time>2026-04-04T07:35:30.923Z</time></trkpt><trkpt lat="44.3214507" lon="11.5156319"><ele>164.0</ele><time>2026-04-04T07:35:31.924Z</time></trkpt><trkpt lat="44.3214486" lon="11.5154155"><ele>163.66666666666666</ele><time>2026-04-04T07:35:32.923Z</time></trkpt><trkpt lat="44.3214533" lon="11.515194"><ele>163.33333333333334</ele><time>2026-04-04T07:35:33.924Z</time></trkpt><trkpt lat="44.3214708" lon="11.5149693"><ele>163.0</ele><time>2026-04-04T07:35:34.924Z</time></trkpt><trkpt lat="44.3214923" lon="11.5147451"><ele>162.33333333333334</ele><time>2026-04-04T07:35:35.924Z</time></trkpt><trkpt lat="44.321511" lon="11.5145197"><ele>161.66666666666666</ele><time>2026-04-04T07:35:36.924Z</time></trkpt><trkpt lat="44.3215236" lon="11.5142909"><ele>161.0</ele><time>2026-04-04T07:35:37.924Z</time></trkpt><trkpt lat="44.3215341" lon="11.5140702"><ele>161.0</ele><time>2026-04-04T07:35:38.923Z</time></trkpt><trkpt lat="44.3215392" lon="11.5138607"><ele>161.0</ele><time>2026-04-04T07:35:39.923Z</time></trkpt><trkpt lat="44.3215378" lon="11.5136652"><ele>161.0</ele><time>2026-04-04T07:35:40.923Z</time></trkpt><trkpt lat="44.3215445" lon="11.5134792"><ele>161.0</ele><time>2026-04-04T07:35:41.923Z</time></trkpt><trkpt lat="44.3215754" lon="11.5133089"><ele>160.5</ele><time>2026-04-04T07:35:42.923Z</time></trkpt><trkpt lat="44.3216273" lon="11.5131457"><ele>160.0</ele><time>2026-04-04T07:35:43.924Z</time></trkpt><trkpt lat="44.3216837" lon="11.5129921"><ele>159.5</ele><time>2026-04-04T07:35:44.922Z</time></trkpt><trkpt lat="44.3217302" lon="11.5128271"><ele>159.0</ele><time>2026-04-04T07:35:45.923Z</time></trkpt><trkpt lat="44.3217685" lon="11.5126616"><ele>158.75</ele><time>2026-04-04T07:35:46.923Z</time></trkpt><trkpt lat="44.3217989" lon="11.5124922"><ele>158.5</ele><time>2026-04-04T07:35:47.924Z</time></trkpt><trkpt lat="44.3218166" lon="11.5123211"><ele>158.25</ele><time>2026-04-04T07:35:48.923Z</time></trkpt><trkpt lat="44.3218101" lon="11.5121467"><ele>158.0</ele><time>2026-04-04T07:35:49.923Z</time></trkpt><trkpt lat="44.3217702" lon="11.5119728"><ele>158.5</ele><time>2026-04-04T07:35:50.923Z</time></trkpt><trkpt lat="44.3216945" lon="11.5118116"><ele>159.0</ele><time>2026-04-04T07:35:51.923Z</time></trkpt><trkpt lat="44.3215951" lon="11.5116705"><ele>159.5</ele><time>2026-04-04T07:35:52.924Z</time></trkpt><trkpt lat="44.3214838" lon="11.5115352"><ele>160.0</ele><time>2026-04-04T07:35:53.924Z</time></trkpt><trkpt lat="44.3213705" lon="11.5113944"><ele>158.75</ele><time>2026-04-04T07:35:54.923Z</time></trkpt><trkpt lat="44.3212498" lon="11.511258"><ele>157.5</ele><time>2026-04-04T07:35:55.922Z</time></trkpt><trkpt lat="44.3211319" lon="11.5111372"><ele>156.25</ele><time>2026-04-04T07:35:56.923Z</time></trkpt><trkpt lat="44.3210104" lon="11.511021"><ele>155.0</ele><time>2026-04-04T07:35:57.924Z</time></trkpt><trkpt lat="44.3208863" lon="11.5109095"><ele>155.0</ele><time>2026-04-04T07:35:58.923Z</time></trkpt><trkpt lat="44.3207729" lon="11.5107841"><ele>155.0</ele><time>2026-04-04T07:35:59.923Z</time></trkpt><trkpt lat="44.3206688" lon="11.5106355"><ele>155.0</ele><time>2026-04-04T07:36:00.923Z</time></trkpt><trkpt lat="44.3205649" lon="11.5104798"><ele>155.0</ele><time>2026-04-04T07:36:01.922Z</time></trkpt><trkpt lat="44.320456" lon="11.5103337"><ele>154.0</ele><time>2026-04-04T07:36:02.923Z</time></trkpt><trkpt lat="44.3203423" lon="11.5102034"><ele>153.0</ele><time>2026-04-04T07:36:03.922Z</time></trkpt><trkpt lat="44.3202294" lon="11.5100855"><ele>152.0</ele><time>2026-04-04T07:36:04.924Z</time></trkpt><trkpt lat="44.3201329" lon="11.5099542"><ele>151.0</ele><time>2026-04-04T07:36:05.924Z</time></trkpt><trkpt lat="44.3200556" lon="11.5097976"><ele>151.0</ele><time>2026-04-04T07:36:06.924Z</time></trkpt><trkpt lat="44.3200085" lon="11.5096194"><ele>151.0</ele><time>2026-04-04T07:36:07.924Z</time></trkpt><trkpt lat="44.3199958" lon="11.5094272"><ele>151.0</ele><time>2026-04-04T07:36:08.924Z</time></trkpt><trkpt lat="44.3200245" lon="11.5092356"><ele>151.0</ele><time>2026-04-04T07:36:09.924Z</time></trkpt><trkpt lat="44.3200655" lon="11.5090552"><ele>151.5</ele><time>2026-04-04T07:36:10.924Z</time></trkpt><trkpt lat="44.3200793" lon="11.5088689"><ele>152.0</ele><time>2026-04-04T07:36:11.925Z</time></trkpt><trkpt lat="44.3200619" lon="11.5086684"><ele>152.5</ele><time>2026-04-04T07:36:12.924Z</time></trkpt><trkpt lat="44.320033" lon="11.5084634"><ele>153.0</ele><time>2026-04-04T07:36:13.925Z</time></trkpt><trkpt lat="44.3199986" lon="11.508238"><ele>153.0</ele><time>2026-04-04T07:36:14.924Z</time></trkpt><trkpt lat="44.3199561" lon="11.5079991"><ele>153.0</ele><time>2026-04-04T07:36:15.924Z</time></trkpt><trkpt lat="44.3199135" lon="11.507747"><ele>153.0</ele><time>2026-04-04T07:36:16.922Z</time></trkpt><trkpt lat="44.3198716" lon="11.5074881"><ele>154.33333333333334</ele><time>2026-04-04T07:36:17.923Z</time></trkpt><trkpt lat="44.3198257" lon="11.507217"><ele>155.66666666666669</ele><time>2026-04-04T07:36:18.923Z</time></trkpt><trkpt lat="44.3197794" lon="11.5069386"><ele>157.0</ele><time>2026-04-04T07:36:19.924Z</time></trkpt><trkpt lat="44.3197326" lon="11.5066578"><ele>154.66666666666669</ele><time>2026-04-04T07:36:20.923Z</time></trkpt><trkpt lat="44.3196862" lon="11.5063785"><ele>152.33333333333334</ele><time>2026-04-04T07:36:21.923Z</time></trkpt><trkpt lat="44.3196411" lon="11.5060995"><ele>150.0</ele><time>2026-04-04T07:36:22.923Z</time></trkpt><trkpt lat="44.3195952" lon="11.5058238"><ele>150.0</ele><time>2026-04-04T07:36:23.922Z</time></trkpt><trkpt lat="44.3195502" lon="11.5055509"><ele>150.0</ele><time>2026-04-04T07:36:24.923Z</time></trkpt><trkpt lat="44.3195053" lon="11.5052809"><ele>150.0</ele><time>2026-04-04T07:36:25.923Z</time></trkpt><trkpt lat="44.3194622" lon="11.5050125"><ele>150.33333333333334</ele><time>2026-04-04T07:36:26.923Z</time></trkpt><trkpt lat="44.3194231" lon="11.5047465"><ele>150.66666666666669</ele><time>2026-04-04T07:36:27.924Z</time></trkpt><trkpt lat="44.3193884" lon="11.5044814"><ele>151.0</ele><time>2026-04-04T07:36:28.923Z</time></trkpt><trkpt lat="44.3193575" lon="11.5042179"><ele>151.33333333333334</ele><time>2026-04-04T07:36:29.925Z</time></trkpt><trkpt lat="44.3193379" lon="11.5039537"><ele>151.66666666666666</ele><time>2026-04-04T07:36:30.923Z</time></trkpt><trkpt lat="44.3193378" lon="11.503684"><ele>152.0</ele><time>2026-04-04T07:36:31.923Z</time></trkpt><trkpt lat="44.3193659" lon="11.5034142"><ele>152.66666666666666</ele><time>2026-04-04T07:36:32.922Z</time></trkpt><trkpt lat="44.3194282" lon="11.5031559"><ele>153.33333333333334</ele><time>2026-04-04T07:36:33.923Z</time></trkpt><trkpt lat="44.3195144" lon="11.5029158"><ele>154.0</ele><time>2026-04-04T07:36:34.923Z</time></trkpt><trkpt lat="44.3195942" lon="11.5026974"><ele>154.0</ele><time>2026-04-04T07:36:35.923Z</time></trkpt><trkpt lat="44.3196673" lon="11.5024933"><ele>154.0</ele><time>2026-04-04T07:36:36.923Z</time></trkpt><trkpt lat="44.3197307" lon="11.5022888"><ele>154.0</ele><time>2026-04-04T07:36:37.923Z</time></trkpt><trkpt lat="44.3197693" lon="11.5020637"><ele>156.0</ele><time>2026-04-04T07:36:38.923Z</time></trkpt><trkpt lat="44.3197837" lon="11.5018197"><ele>158.0</ele><time>2026-04-04T07:36:39.924Z</time></trkpt><trkpt lat="44.3197781" lon="11.5015781"><ele>160.0</ele><time>2026-04-04T07:36:40.923Z</time></trkpt><trkpt lat="44.3197603" lon="11.5013454"><ele>161.33333333333334</ele><time>2026-04-04T07:36:41.925Z</time></trkpt><trkpt lat="44.3197614" lon="11.5011169"><ele>162.66666666666666</ele><time>2026-04-04T07:36:42.923Z</time></trkpt><trkpt lat="44.3197851" lon="11.5008974"><ele>164.0</ele><time>2026-04-04T07:36:43.924Z</time></trkpt><trkpt lat="44.3197916" lon="11.5006762"><ele>164.0</ele><time>2026-04-04T07:36:44.923Z</time></trkpt><trkpt lat="44.3197663" lon="11.5004406"><ele>164.0</ele><time>2026-04-04T07:36:45.923Z</time></trkpt><trkpt lat="44.3197262" lon="11.5001967"><ele>164.0</ele><time>2026-04-04T07:36:46.923Z</time></trkpt><trkpt lat="44.3196971" lon="11.49994"><ele>162.0</ele><time>2026-04-04T07:36:47.923Z</time></trkpt><trkpt lat="44.3196692" lon="11.499682"><ele>160.0</ele><time>2026-04-04T07:36:48.924Z</time></trkpt><trkpt lat="44.3196242" lon="11.4994375"><ele>158.0</ele><time>2026-04-04T07:36:49.924Z</time></trkpt><trkpt lat="44.3195472" lon="11.4992136"><ele>158.0</ele><time>2026-04-04T07:36:50.923Z</time></trkpt><trkpt lat="44.3194465" lon="11.4990095"><ele>158.0</ele><time>2026-04-04T07:36:51.924Z</time></trkpt><trkpt lat="44.3193525" lon="11.498801"><ele>158.0</ele><time>2026-04-04T07:36:52.923Z</time></trkpt><trkpt lat="44.3192932" lon="11.4985792"><ele>158.33333333333331</ele><time>2026-04-04T07:36:53.923Z</time></trkpt><trkpt lat="44.3192606" lon="11.4983397"><ele>158.66666666666666</ele><time>2026-04-04T07:36:54.923Z</time></trkpt><trkpt lat="44.3192568" lon="11.4980899"><ele>159.0</ele><time>2026-04-04T07:36:55.924Z</time></trkpt><trkpt lat="44.3192771" lon="11.4978293"><ele>159.0</ele><time>2026-04-04T07:36:56.923Z</time></trkpt><trkpt lat="44.3193129" lon="11.4975631"><ele>159.0</ele><time>2026-04-04T07:36:57.924Z</time></trkpt><trkpt lat="44.3193623" lon="11.497299"><ele>159.0</ele><time>2026-04-04T07:36:58.923Z</time></trkpt><trkpt lat="44.3194209" lon="11.4970304"><ele>159.0</ele><time>2026-04-04T07:36:59.924Z</time></trkpt><trkpt lat="44.3194817" lon="11.4967653"><ele>159.0</ele><time>2026-04-04T07:37:00.922Z</time></trkpt><trkpt lat="44.3195258" lon="11.4964989"><ele>159.0</ele><time>2026-04-04T07:37:01.923Z</time></trkpt><trkpt lat="44.3195435" lon="11.4962348"><ele>159.33333333333334</ele><time>2026-04-04T07:37:02.923Z</time></trkpt><trkpt lat="44.3195398" lon="11.4959761"><ele>159.66666666666669</ele><time>2026-04-04T07:37:03.924Z</time></trkpt><trkpt lat="44.3195271" lon="11.4957256"><ele>160.0</ele><time>2026-04-04T07:37:04.922Z</time></trkpt><trkpt lat="44.3195211" lon="11.4954841"><ele>160.33333333333334</ele><time>2026-04-04T07:37:05.923Z</time></trkpt><trkpt lat="44.3195366" lon="11.4952512"><ele>160.66666666666666</ele><time>2026-04-04T07:37:06.923Z</time></trkpt><trkpt lat="44.319574" lon="11.4950175"><ele>161.0</ele><time>2026-04-04T07:37:07.924Z</time></trkpt><trkpt lat="44.3196334" lon="11.4947786"><ele>161.66666666666666</ele><time>2026-04-04T07:37:08.923Z</time></trkpt><trkpt lat="44.3197018" lon="11.4945331"><ele>162.33333333333334</ele><time>2026-04-04T07:37:09.924Z</time></trkpt><trkpt lat="44.3197688" lon="11.4942966"><ele>163.0</ele><time>2026-04-04T07:37:10.922Z</time></trkpt><trkpt lat="44.3198104" lon="11.494073"><ele>164.33333333333334</ele><time>2026-04-04T07:37:11.924Z</time></trkpt><trkpt lat="44.3198179" lon="11.4938405"><ele>165.66666666666666</ele><time>2026-04-04T07:37:12.923Z</time></trkpt><trkpt lat="44.3197854" lon="11.4936035"><ele>167.0</ele><time>2026-04-04T07:37:13.923Z</time></trkpt><trkpt lat="44.3197149" lon="11.4933749"><ele>167.0</ele><time>2026-04-04T07:37:14.922Z</time></trkpt><trkpt lat="44.3196234" lon="11.4931646"><ele>167.0</ele><time>2026-04-04T07:37:15.923Z</time></trkpt><trkpt lat="44.319539" lon="11.4929482"><ele>167.0</ele><time>2026-04-04T07:37:16.923Z</time></trkpt><trkpt lat="44.3194811" lon="11.4927231"><ele>168.0</ele><time>2026-04-04T07:37:17.922Z</time></trkpt><trkpt lat="44.3194398" lon="11.4925142"><ele>169.0</ele><time>2026-04-04T07:37:18.922Z</time></trkpt><trkpt lat="44.319401" lon="11.492319"><ele>170.0</ele><time>2026-04-04T07:37:19.923Z</time></trkpt><trkpt lat="44.3193737" lon="11.4921343"><ele>171.0</ele><time>2026-04-04T07:37:20.922Z</time></trkpt><trkpt lat="44.3193597" lon="11.4919414"><ele>171.0</ele><time>2026-04-04T07:37:21.924Z</time></trkpt><trkpt lat="44.3193583" lon="11.4917466"><ele>171.0</ele><time>2026-04-04T07:37:22.923Z</time></trkpt><trkpt lat="44.3193584" lon="11.4915489"><ele>171.0</ele><time>2026-04-04T07:37:23.923Z</time></trkpt><trkpt lat="44.3193693" lon="11.491348"><ele>171.0</ele><time>2026-04-04T07:37:24.923Z</time></trkpt><trkpt lat="44.3193994" lon="11.4911497"><ele>169.33333333333334</ele><time>2026-04-04T07:37:25.924Z</time></trkpt><trkpt lat="44.3194342" lon="11.4909466"><ele>167.66666666666669</ele><time>2026-04-04T07:37:26.922Z</time></trkpt><trkpt lat="44.3194685" lon="11.4907327"><ele>166.0</ele><time>2026-04-04T07:37:27.923Z</time></trkpt><trkpt lat="44.3194941" lon="11.4905055"><ele>166.0</ele><time>2026-04-04T07:37:28.923Z</time></trkpt><trkpt lat="44.3195046" lon="11.4902711"><ele>166.0</ele><time>2026-04-04T07:37:29.924Z</time></trkpt><trkpt lat="44.3195054" lon="11.4900299"><ele>166.0</ele><time>2026-04-04T07:37:30.923Z</time></trkpt><trkpt lat="44.3195014" lon="11.4897782"><ele>166.66666666666669</ele><time>2026-04-04T07:37:31.924Z</time></trkpt><trkpt lat="44.3195002" lon="11.4895196"><ele>167.33333333333334</ele><time>2026-04-04T07:37:32.923Z</time></trkpt><trkpt lat="44.319525" lon="11.4892663"><ele>168.0</ele><time>2026-04-04T07:37:33.923Z</time></trkpt><trkpt lat="44.3195831" lon="11.4890223"><ele>168.0</ele><time>2026-04-04T07:37:34.923Z</time></trkpt><trkpt lat="44.3196569" lon="11.4887756"><ele>168.0</ele><time>2026-04-04T07:37:35.922Z</time></trkpt><trkpt lat="44.3197195" lon="11.4885103"><ele>168.0</ele><time>2026-04-04T07:37:36.921Z</time></trkpt><trkpt lat="44.3197469" lon="11.4882332"><ele>167.33333333333334</ele><time>2026-04-04T07:37:37.923Z</time></trkpt><trkpt lat="44.3197453" lon="11.4879778"><ele>166.66666666666669</ele><time>2026-04-04T07:37:38.921Z</time></trkpt><trkpt lat="44.3197353" lon="11.4877247"><ele>166.0</ele><time>2026-04-04T07:37:39.923Z</time></trkpt><trkpt lat="44.3197314" lon="11.4874864"><ele>166.0</ele><time>2026-04-04T07:37:40.923Z</time></trkpt><trkpt lat="44.3197311" lon="11.4872661"><ele>166.0</ele><time>2026-04-04T07:37:41.923Z</time></trkpt><trkpt lat="44.3197494" lon="11.4870679"><ele>166.0</ele><time>2026-04-04T07:37:42.923Z</time></trkpt><trkpt lat="44.3197968" lon="11.4868875"><ele>166.0</ele><time>2026-04-04T07:37:43.922Z</time></trkpt><trkpt lat="44.3198736" lon="11.4867165"><ele>168.0</ele><time>2026-04-04T07:37:44.922Z</time></trkpt><trkpt lat="44.3199674" lon="11.4865742"><ele>170.0</ele><time>2026-04-04T07:37:45.922Z</time></trkpt><trkpt lat="44.3200599" lon="11.4864375"><ele>172.0</ele><time>2026-04-04T07:37:46.922Z</time></trkpt><trkpt lat="44.3201371" lon="11.486287"><ele>174.0</ele><time>2026-04-04T07:37:47.922Z</time></trkpt><trkpt lat="44.3201881" lon="11.4861166"><ele>174.0</ele><time>2026-04-04T07:37:48.921Z</time></trkpt><trkpt lat="44.3202159" lon="11.4859354"><ele>174.0</ele><time>2026-04-04T07:37:49.922Z</time></trkpt><trkpt lat="44.3202284" lon="11.4857559"><ele>174.0</ele><time>2026-04-04T07:37:50.922Z</time></trkpt><trkpt lat="44.3202322" lon="11.4855912"><ele>174.0</ele><time>2026-04-04T07:37:51.923Z</time></trkpt><trkpt lat="44.3202323" lon="11.4854362"><ele>173.79999999999998</ele><time>2026-04-04T07:37:52.922Z</time></trkpt><trkpt lat="44.3202322" lon="11.4852894"><ele>173.6</ele><time>2026-04-04T07:37:53.922Z</time></trkpt><trkpt lat="44.3202317" lon="11.4851641"><ele>173.4</ele><time>2026-04-04T07:37:54.923Z</time></trkpt><trkpt lat="44.3202333" lon="11.4850701"><ele>173.2</ele><time>2026-04-04T07:37:55.922Z</time></trkpt><trkpt lat="44.3202436" lon="11.4849653"><ele>173.0</ele><time>2026-04-04T07:37:57.922Z</time></trkpt><trkpt lat="44.3202404" lon="11.484798"><ele>173.0</ele><time>2026-04-04T07:38:14.923Z</time></trkpt><trkpt lat="44.3202393" lon="11.4847036"><ele>173.0</ele><time>2026-04-04T07:38:15.923Z</time></trkpt><trkpt lat="44.32024" lon="11.4845881"><ele>173.0</ele><time>2026-04-04T07:38:16.922Z</time></trkpt><trkpt lat="44.3202399" lon="11.4844553"><ele>173.0</ele><time>2026-04-04T07:38:17.922Z</time></trkpt><trkpt lat="44.3202413" lon="11.4843036"><ele>173.0</ele><time>2026-04-04T07:38:18.921Z</time></trkpt><trkpt lat="44.3202382" lon="11.4841409"><ele>172.75</ele><time>2026-04-04T07:38:19.922Z</time></trkpt><trkpt lat="44.3202282" lon="11.4839696"><ele>172.5</ele><time>2026-04-04T07:38:20.922Z</time></trkpt><trkpt lat="44.3202067" lon="11.4837994"><ele>172.25</ele><time>2026-04-04T07:38:21.923Z</time></trkpt><trkpt lat="44.3201839" lon="11.4836444"><ele>172.0</ele><time>2026-04-04T07:38:22.923Z</time></trkpt><trkpt lat="44.3201534" lon="11.4834974"><ele>173.0</ele><time>2026-04-04T07:38:23.922Z</time></trkpt><trkpt lat="44.3201138" lon="11.4833451"><ele>174.0</ele><time>2026-04-04T07:38:24.923Z</time></trkpt><trkpt lat="44.3200658" lon="11.4831878"><ele>175.0</ele><time>2026-04-04T07:38:25.922Z</time></trkpt><trkpt lat="44.3200089" lon="11.4830228"><ele>176.0</ele><time>2026-04-04T07:38:26.923Z</time></trkpt><trkpt lat="44.3199399" lon="11.4828432"><ele>177.0</ele><time>2026-04-04T07:38:27.923Z</time></trkpt><trkpt lat="44.3198568" lon="11.4826498"><ele>178.0</ele><time>2026-04-04T07:38:28.923Z</time></trkpt><trkpt lat="44.319765" lon="11.4824527"><ele>179.0</ele><time>2026-04-04T07:38:29.923Z</time></trkpt><trkpt lat="44.3196724" lon="11.4822477"><ele>177.66666666666666</ele><time>2026-04-04T07:38:30.923Z</time></trkpt><trkpt lat="44.3195763" lon="11.4820394"><ele>176.33333333333334</ele><time>2026-04-04T07:38:31.923Z</time></trkpt><trkpt lat="44.3194771" lon="11.48183"><ele>175.0</ele><time>2026-04-04T07:38:32.922Z</time></trkpt><trkpt lat="44.3193785" lon="11.4816218"><ele>175.0</ele><time>2026-04-04T07:38:33.923Z</time></trkpt><trkpt lat="44.3192786" lon="11.4814179"><ele>175.0</ele><time>2026-04-04T07:38:34.923Z</time></trkpt><trkpt lat="44.3191825" lon="11.4812254"><ele>175.0</ele><time>2026-04-04T07:38:35.923Z</time></trkpt><trkpt lat="44.3190895" lon="11.4810508"><ele>175.33333333333334</ele><time>2026-04-04T07:38:36.923Z</time></trkpt><trkpt lat="44.3189939" lon="11.4808838"><ele>175.66666666666666</ele><time>2026-04-04T07:38:37.923Z</time></trkpt><trkpt lat="44.3188949" lon="11.4807175"><ele>176.0</ele><time>2026-04-04T07:38:38.922Z</time></trkpt><trkpt lat="44.3187864" lon="11.4805533"><ele>177.33333333333331</ele><time>2026-04-04T07:38:39.922Z</time></trkpt><trkpt lat="44.3186662" lon="11.4803988"><ele>178.66666666666666</ele><time>2026-04-04T07:38:40.923Z</time></trkpt><trkpt lat="44.3185332" lon="11.480259"><ele>180.0</ele><time>2026-04-04T07:38:41.923Z</time></trkpt><trkpt lat="44.318395" lon="11.4801378"><ele>180.0</ele><time>2026-04-04T07:38:42.923Z</time></trkpt><trkpt lat="44.3182591" lon="11.480032"><ele>180.0</ele><time>2026-04-04T07:38:43.923Z</time></trkpt><trkpt lat="44.3181376" lon="11.4799173"><ele>180.0</ele><time>2026-04-04T07:38:44.923Z</time></trkpt><trkpt lat="44.3180243" lon="11.4797761"><ele>178.33333333333334</ele><time>2026-04-04T07:38:45.922Z</time></trkpt><trkpt lat="44.3179274" lon="11.4796088"><ele>176.66666666666669</ele><time>2026-04-04T07:38:46.922Z</time></trkpt><trkpt lat="44.3178451" lon="11.4794243"><ele>175.0</ele><time>2026-04-04T07:38:47.922Z</time></trkpt><trkpt lat="44.3177501" lon="11.4792401"><ele>175.0</ele><time>2026-04-04T07:38:48.922Z</time></trkpt><trkpt lat="44.3176274" lon="11.479075"><ele>175.0</ele><time>2026-04-04T07:38:49.923Z</time></trkpt><trkpt lat="44.3174866" lon="11.478932"><ele>175.0</ele><time>2026-04-04T07:38:50.921Z</time></trkpt><trkpt lat="44.3173409" lon="11.4787906"><ele>175.33333333333334</ele><time>2026-04-04T07:38:51.921Z</time></trkpt><trkpt lat="44.3172016" lon="11.4786346"><ele>175.66666666666666</ele><time>2026-04-04T07:38:52.923Z</time></trkpt><trkpt lat="44.3170671" lon="11.4784609"><ele>176.0</ele><time>2026-04-04T07:38:53.922Z</time></trkpt><trkpt lat="44.3169489" lon="11.4782682"><ele>176.0</ele><time>2026-04-04T07:38:54.923Z</time></trkpt><trkpt lat="44.3168579" lon="11.4780575"><ele>176.0</ele><time>2026-04-04T07:38:55.922Z</time></trkpt><trkpt lat="44.3167794" lon="11.4778531"><ele>176.0</ele><time>2026-04-04T07:38:56.922Z</time></trkpt><trkpt lat="44.3166846" lon="11.4776635"><ele>175.66666666666666</ele><time>2026-04-04T07:38:57.922Z</time></trkpt><trkpt lat="44.3165609" lon="11.4774937"><ele>175.33333333333334</ele><time>2026-04-04T07:38:58.923Z</time></trkpt><trkpt lat="44.3164096" lon="11.4773498"><ele>175.0</ele><time>2026-04-04T07:38:59.923Z</time></trkpt><trkpt lat="44.3162606" lon="11.477224"><ele>176.66666666666669</ele><time>2026-04-04T07:39:00.922Z</time></trkpt><trkpt lat="44.3161269" lon="11.4770978"><ele>178.33333333333334</ele><time>2026-04-04T07:39:01.922Z</time></trkpt><trkpt lat="44.3160051" lon="11.4769471"><ele>180.0</ele><time>2026-04-04T07:39:02.923Z</time></trkpt><trkpt lat="44.3159062" lon="11.4767675"><ele>180.0</ele><time>2026-04-04T07:39:03.923Z</time></trkpt><trkpt lat="44.3158202" lon="11.4765622"><ele>180.0</ele><time>2026-04-04T07:39:04.922Z</time></trkpt><trkpt lat="44.3157341" lon="11.4763379"><ele>180.0</ele><time>2026-04-04T07:39:05.922Z</time></trkpt><trkpt lat="44.3156413" lon="11.4760982"><ele>179.0</ele><time>2026-04-04T07:39:06.921Z</time></trkpt><trkpt lat="44.3155449" lon="11.4758519"><ele>178.0</ele><time>2026-04-04T07:39:07.923Z</time></trkpt><trkpt lat="44.3154509" lon="11.4756075"><ele>177.0</ele><time>2026-04-04T07:39:08.923Z</time></trkpt><trkpt lat="44.3153634" lon="11.4753545"><ele>177.0</ele><time>2026-04-04T07:39:09.922Z</time></trkpt><trkpt lat="44.315291" lon="11.4750923"><ele>177.0</ele><time>2026-04-04T07:39:10.923Z</time></trkpt><trkpt lat="44.3152256" lon="11.4748248"><ele>177.0</ele><time>2026-04-04T07:39:11.923Z</time></trkpt><trkpt lat="44.3151624" lon="11.4745598"><ele>179.0</ele><time>2026-04-04T07:39:12.922Z</time></trkpt><trkpt lat="44.3151026" lon="11.4742976"><ele>181.0</ele><time>2026-04-04T07:39:13.922Z</time></trkpt><trkpt lat="44.3150548" lon="11.4740353"><ele>183.0</ele><time>2026-04-04T07:39:14.922Z</time></trkpt><trkpt lat="44.3150225" lon="11.4737714"><ele>184.33333333333334</ele><time>2026-04-04T07:39:15.923Z</time></trkpt><trkpt lat="44.3149965" lon="11.4735125"><ele>185.66666666666669</ele><time>2026-04-04T07:39:16.923Z</time></trkpt><trkpt lat="44.3149653" lon="11.4732576"><ele>187.0</ele><time>2026-04-04T07:39:17.923Z</time></trkpt><trkpt lat="44.3149226" lon="11.4730101"><ele>187.33333333333334</ele><time>2026-04-04T07:39:18.923Z</time></trkpt><trkpt lat="44.3148584" lon="11.4727897"><ele>187.66666666666666</ele><time>2026-04-04T07:39:19.923Z</time></trkpt><trkpt lat="44.3147816" lon="11.4725932"><ele>188.0</ele><time>2026-04-04T07:39:20.922Z</time></trkpt><trkpt lat="44.3147198" lon="11.472407"><ele>184.0</ele><time>2026-04-04T07:39:21.922Z</time></trkpt><trkpt lat="44.314687" lon="11.4722105"><ele>180.0</ele><time>2026-04-04T07:39:22.923Z</time></trkpt><trkpt lat="44.3146836" lon="11.4719971"><ele>176.0</ele><time>2026-04-04T07:39:23.923Z</time></trkpt><trkpt lat="44.3147122" lon="11.4717739"><ele>180.33333333333331</ele><time>2026-04-04T07:39:24.922Z</time></trkpt><trkpt lat="44.3147571" lon="11.4715428"><ele>184.66666666666666</ele><time>2026-04-04T07:39:25.923Z</time></trkpt><trkpt lat="44.314805" lon="11.4713104"><ele>189.0</ele><time>2026-04-04T07:39:26.922Z</time></trkpt><trkpt lat="44.3148609" lon="11.4710676"><ele>189.0</ele><time>2026-04-04T07:39:27.923Z</time></trkpt><trkpt lat="44.3149243" lon="11.470809"><ele>189.0</ele><time>2026-04-04T07:39:28.923Z</time></trkpt><trkpt lat="44.3149909" lon="11.4705388"><ele>189.0</ele><time>2026-04-04T07:39:29.923Z</time></trkpt><trkpt lat="44.3150549" lon="11.470262"><ele>188.0</ele><time>2026-04-04T07:39:30.922Z</time></trkpt><trkpt lat="44.315124" lon="11.4699765"><ele>187.0</ele><time>2026-04-04T07:39:31.922Z</time></trkpt><trkpt lat="44.3151963" lon="11.4696858"><ele>186.0</ele><time>2026-04-04T07:39:32.923Z</time></trkpt><trkpt lat="44.3152732" lon="11.4694024"><ele>185.0</ele><time>2026-04-04T07:39:33.923Z</time></trkpt><trkpt lat="44.3153541" lon="11.4691305"><ele>184.0</ele><time>2026-04-04T07:39:34.923Z</time></trkpt><trkpt lat="44.3154332" lon="11.4688725"><ele>183.0</ele><time>2026-04-04T07:39:35.923Z</time></trkpt><trkpt lat="44.3155061" lon="11.4686326"><ele>186.33333333333331</ele><time>2026-04-04T07:39:36.923Z</time></trkpt><trkpt lat="44.3155769" lon="11.4684071"><ele>189.66666666666666</ele><time>2026-04-04T07:39:37.923Z</time></trkpt><trkpt lat="44.3156386" lon="11.4681924"><ele>193.0</ele><time>2026-04-04T07:39:38.923Z</time></trkpt><trkpt lat="44.3156687" lon="11.4679906"><ele>191.25</ele><time>2026-04-04T07:39:39.922Z</time></trkpt><trkpt lat="44.3156584" lon="11.4677938"><ele>189.5</ele><time>2026-04-04T07:39:40.923Z</time></trkpt><trkpt lat="44.3156089" lon="11.467609"><ele>187.75</ele><time>2026-04-04T07:39:41.923Z</time></trkpt><trkpt lat="44.3155424" lon="11.4674236"><ele>186.0</ele><time>2026-04-04T07:39:42.923Z</time></trkpt><trkpt lat="44.3154877" lon="11.4672446"><ele>185.0</ele><time>2026-04-04T07:39:43.923Z</time></trkpt><trkpt lat="44.315466" lon="11.4670503"><ele>184.0</ele><time>2026-04-04T07:39:44.923Z</time></trkpt><trkpt lat="44.3154766" lon="11.466833"><ele>183.0</ele><time>2026-04-04T07:39:45.923Z</time></trkpt><trkpt lat="44.3154893" lon="11.4666088"><ele>183.0</ele><time>2026-04-04T07:39:46.922Z</time></trkpt><trkpt lat="44.3154887" lon="11.4663704"><ele>183.0</ele><time>2026-04-04T07:39:47.921Z</time></trkpt><trkpt lat="44.3154602" lon="11.4661356"><ele>183.0</ele><time>2026-04-04T07:39:48.923Z</time></trkpt><trkpt lat="44.3153918" lon="11.4659162"><ele>183.66666666666666</ele><time>2026-04-04T07:39:49.923Z</time></trkpt><trkpt lat="44.3152851" lon="11.4657207"><ele>184.33333333333331</ele><time>2026-04-04T07:39:50.923Z</time></trkpt><trkpt lat="44.315154" lon="11.4655279"><ele>185.0</ele><time>2026-04-04T07:39:51.923Z</time></trkpt><trkpt lat="44.3150156" lon="11.4653355"><ele>185.0</ele><time>2026-04-04T07:39:52.922Z</time></trkpt><trkpt lat="44.3148604" lon="11.4651538"><ele>185.0</ele><time>2026-04-04T07:39:53.923Z</time></trkpt><trkpt lat="44.314689" lon="11.4649805"><ele>185.0</ele><time>2026-04-04T07:39:54.923Z</time></trkpt><trkpt lat="44.3145074" lon="11.4648249"><ele>185.0</ele><time>2026-04-04T07:39:55.923Z</time></trkpt><trkpt lat="44.3143116" lon="11.4646718"><ele>185.0</ele><time>2026-04-04T07:39:56.922Z</time></trkpt><trkpt lat="44.3141118" lon="11.4645159"><ele>187.0</ele><time>2026-04-04T07:39:57.921Z</time></trkpt><trkpt lat="44.3139062" lon="11.4643515"><ele>189.0</ele><time>2026-04-04T07:39:58.921Z</time></trkpt><trkpt lat="44.3137023" lon="11.4641919"><ele>189.0</ele><time>2026-04-04T07:39:59.922Z</time></trkpt><trkpt lat="44.313499" lon="11.4640311"><ele>189.0</ele><time>2026-04-04T07:40:00.922Z</time></trkpt><trkpt lat="44.3132958" lon="11.463872"><ele>187.5</ele><time>2026-04-04T07:40:01.921Z</time></trkpt><trkpt lat="44.3130938" lon="11.4637235"><ele>186.0</ele><time>2026-04-04T07:40:02.922Z</time></trkpt><trkpt lat="44.3128944" lon="11.4635826"><ele>186.0</ele><time>2026-04-04T07:40:03.922Z</time></trkpt><trkpt lat="44.3126994" lon="11.4634419"><ele>186.0</ele><time>2026-04-04T07:40:04.922Z</time></trkpt><trkpt lat="44.3125104" lon="11.4632985"><ele>186.0</ele><time>2026-04-04T07:40:05.922Z</time></trkpt><trkpt lat="44.3123279" lon="11.4631507"><ele>185.66666666666666</ele><time>2026-04-04T07:40:06.922Z</time></trkpt><trkpt lat="44.3121526" lon="11.4629986"><ele>185.33333333333331</ele><time>2026-04-04T07:40:07.921Z</time></trkpt><trkpt lat="44.3119785" lon="11.462836"><ele>185.0</ele><time>2026-04-04T07:40:08.922Z</time></trkpt><trkpt lat="44.3118047" lon="11.4626714"><ele>185.0</ele><time>2026-04-04T07:40:09.922Z</time></trkpt><trkpt lat="44.3116305" lon="11.4625056"><ele>185.0</ele><time>2026-04-04T07:40:10.922Z</time></trkpt><trkpt lat="44.3114606" lon="11.4623348"><ele>185.0</ele><time>2026-04-04T07:40:11.922Z</time></trkpt><trkpt lat="44.3112959" lon="11.4621593"><ele>185.0</ele><time>2026-04-04T07:40:12.922Z</time></trkpt><trkpt lat="44.3111449" lon="11.4619918"><ele>185.0</ele><time>2026-04-04T07:40:13.922Z</time></trkpt><trkpt lat="44.3110147" lon="11.4618339"><ele>185.0</ele><time>2026-04-04T07:40:14.922Z</time></trkpt><trkpt lat="44.3109116" lon="11.4616614"><ele>185.0</ele><time>2026-04-04T07:40:15.922Z</time></trkpt><trkpt lat="44.31085" lon="11.4614725"><ele>185.0</ele><time>2026-04-04T07:40:16.922Z</time></trkpt><trkpt lat="44.3108227" lon="11.4612612"><ele>185.0</ele><time>2026-04-04T07:40:17.922Z</time></trkpt><trkpt lat="44.31082" lon="11.4610294"><ele>186.33333333333331</ele><time>2026-04-04T07:40:18.921Z</time></trkpt><trkpt lat="44.3108107" lon="11.4607838"><ele>187.66666666666666</ele><time>2026-04-04T07:40:19.921Z</time></trkpt><trkpt lat="44.3107992" lon="11.4605321"><ele>189.0</ele><time>2026-04-04T07:40:20.923Z</time></trkpt><trkpt lat="44.3107856" lon="11.4602838"><ele>190.33333333333331</ele><time>2026-04-04T07:40:21.923Z</time></trkpt><trkpt lat="44.3107718" lon="11.4600595"><ele>191.66666666666666</ele><time>2026-04-04T07:40:22.923Z</time></trkpt><trkpt lat="44.3107436" lon="11.4598553"><ele>193.0</ele><time>2026-04-04T07:40:23.922Z</time></trkpt><trkpt lat="44.3106973" lon="11.4596675"><ele>193.0</ele><time>2026-04-04T07:40:24.921Z</time></trkpt><trkpt lat="44.3106288" lon="11.4594887"><ele>193.0</ele><time>2026-04-04T07:40:25.922Z</time></trkpt><trkpt lat="44.3105417" lon="11.4593112"><ele>193.0</ele><time>2026-04-04T07:40:26.922Z</time></trkpt><trkpt lat="44.3104425" lon="11.4591255"><ele>192.66666666666666</ele><time>2026-04-04T07:40:27.922Z</time></trkpt><trkpt lat="44.3103354" lon="11.4589398"><ele>192.33333333333331</ele><time>2026-04-04T07:40:28.922Z</time></trkpt><trkpt lat="44.3102187" lon="11.4587466"><ele>192.0</ele><time>2026-04-04T07:40:29.922Z</time></trkpt><trkpt lat="44.3100939" lon="11.458559"><ele>192.0</ele><time>2026-04-04T07:40:30.923Z</time></trkpt><trkpt lat="44.3099612" lon="11.458386"><ele>192.0</ele><time>2026-04-04T07:40:31.922Z</time></trkpt><trkpt lat="44.3098154" lon="11.4582258"><ele>192.0</ele><time>2026-04-04T07:40:32.921Z</time></trkpt><trkpt lat="44.3096513" lon="11.4580792"><ele>192.33333333333331</ele><time>2026-04-04T07:40:33.922Z</time></trkpt><trkpt lat="44.3094713" lon="11.4579486"><ele>192.66666666666666</ele><time>2026-04-04T07:40:34.923Z</time></trkpt><trkpt lat="44.3092758" lon="11.4578295"><ele>193.0</ele><time>2026-04-04T07:40:35.923Z</time></trkpt><trkpt lat="44.3090746" lon="11.4577109"><ele>192.33333333333331</ele><time>2026-04-04T07:40:36.923Z</time></trkpt><trkpt lat="44.3088876" lon="11.4575966"><ele>191.66666666666666</ele><time>2026-04-04T07:40:37.922Z</time></trkpt><trkpt lat="44.3087221" lon="11.4574961"><ele>191.0</ele><time>2026-04-04T07:40:38.923Z</time></trkpt><trkpt lat="44.3085815" lon="11.4573906"><ele>191.0</ele><time>2026-04-04T07:40:39.922Z</time></trkpt><trkpt lat="44.3084645" lon="11.4572537"><ele>191.0</ele><time>2026-04-04T07:40:40.923Z</time></trkpt><trkpt lat="44.308367" lon="11.4570753"><ele>191.0</ele><time>2026-04-04T07:40:41.922Z</time></trkpt><trkpt lat="44.3082962" lon="11.4568569"><ele>192.0</ele><time>2026-04-04T07:40:42.922Z</time></trkpt><trkpt lat="44.3082327" lon="11.4566147"><ele>193.0</ele><time>2026-04-04T07:40:43.922Z</time></trkpt><trkpt lat="44.3081599" lon="11.4563535"><ele>194.0</ele><time>2026-04-04T07:40:44.922Z</time></trkpt><trkpt lat="44.308077" lon="11.4560816"><ele>193.66666666666669</ele><time>2026-04-04T07:40:45.921Z</time></trkpt><trkpt lat="44.3079855" lon="11.4558067"><ele>193.33333333333331</ele><time>2026-04-04T07:40:46.923Z</time></trkpt><trkpt lat="44.3078873" lon="11.4555192"><ele>193.0</ele><time>2026-04-04T07:40:47.922Z</time></trkpt><trkpt lat="44.3077828" lon="11.4552209"><ele>195.0</ele><time>2026-04-04T07:40:48.922Z</time></trkpt><trkpt lat="44.307673" lon="11.4549123"><ele>197.0</ele><time>2026-04-04T07:40:49.922Z</time></trkpt><trkpt lat="44.3075582" lon="11.454607"><ele>200.5</ele><time>2026-04-04T07:40:50.922Z</time></trkpt><trkpt lat="44.3074402" lon="11.4543119"><ele>204.0</ele><time>2026-04-04T07:40:51.922Z</time></trkpt><trkpt lat="44.3073238" lon="11.4540286"><ele>202.0</ele><time>2026-04-04T07:40:52.923Z</time></trkpt><trkpt lat="44.3072138" lon="11.4537657"><ele>200.0</ele><time>2026-04-04T07:40:53.923Z</time></trkpt><trkpt lat="44.3071134" lon="11.4535219"><ele>198.0</ele><time>2026-04-04T07:40:54.922Z</time></trkpt><trkpt lat="44.3070153" lon="11.4532949"><ele>198.0</ele><time>2026-04-04T07:40:55.923Z</time></trkpt><trkpt lat="44.3069089" lon="11.4531094"><ele>198.0</ele><time>2026-04-04T07:40:56.923Z</time></trkpt><trkpt lat="44.3067772" lon="11.4529595"><ele>198.0</ele><time>2026-04-04T07:40:57.923Z</time></trkpt><trkpt lat="44.3066236" lon="11.4528349"><ele>198.0</ele><time>2026-04-04T07:40:58.923Z</time></trkpt><trkpt lat="44.30647" lon="11.4527057"><ele>198.0</ele><time>2026-04-04T07:40:59.923Z</time></trkpt><trkpt lat="44.3063325" lon="11.452544"><ele>198.0</ele><time>2026-04-04T07:41:00.923Z</time></trkpt><trkpt lat="44.306217" lon="11.4523635"><ele>198.0</ele><time>2026-04-04T07:41:01.923Z</time></trkpt><trkpt lat="44.3061292" lon="11.4521574"><ele>198.0</ele><time>2026-04-04T07:41:02.923Z</time></trkpt><trkpt lat="44.3060705" lon="11.4519262"><ele>198.0</ele><time>2026-04-04T07:41:03.923Z</time></trkpt><trkpt lat="44.3060101" lon="11.4516926"><ele>199.66666666666669</ele><time>2026-04-04T07:41:04.922Z</time></trkpt><trkpt lat="44.3059154" lon="11.4514828"><ele>201.33333333333334</ele><time>2026-04-04T07:41:05.922Z</time></trkpt><trkpt lat="44.3058001" lon="11.4512928"><ele>203.0</ele><time>2026-04-04T07:41:06.923Z</time></trkpt><trkpt lat="44.3056688" lon="11.4511145"><ele>203.0</ele><time>2026-04-04T07:41:07.923Z</time></trkpt><trkpt lat="44.3055168" lon="11.4509619"><ele>203.0</ele><time>2026-04-04T07:41:08.922Z</time></trkpt><trkpt lat="44.3053521" lon="11.4508315"><ele>203.0</ele><time>2026-04-04T07:41:09.922Z</time></trkpt><trkpt lat="44.3051748" lon="11.4507273"><ele>203.0</ele><time>2026-04-04T07:41:10.922Z</time></trkpt><trkpt lat="44.3049979" lon="11.4506392"><ele>203.0</ele><time>2026-04-04T07:41:11.922Z</time></trkpt><trkpt lat="44.3048291" lon="11.4505211"><ele>203.0</ele><time>2026-04-04T07:41:12.923Z</time></trkpt><trkpt lat="44.3046691" lon="11.4503694"><ele>205.0</ele><time>2026-04-04T07:41:13.922Z</time></trkpt><trkpt lat="44.304506" lon="11.4502069"><ele>207.0</ele><time>2026-04-04T07:41:14.923Z</time></trkpt><trkpt lat="44.3043425" lon="11.45004"><ele>209.0</ele><time>2026-04-04T07:41:15.922Z</time></trkpt><trkpt lat="44.3041795" lon="11.4498788"><ele>209.0</ele><time>2026-04-04T07:41:16.922Z</time></trkpt><trkpt lat="44.3040236" lon="11.4497328"><ele>209.0</ele><time>2026-04-04T07:41:17.922Z</time></trkpt><trkpt lat="44.3038759" lon="11.4496013"><ele>209.0</ele><time>2026-04-04T07:41:18.923Z</time></trkpt><trkpt lat="44.303738" lon="11.4494825"><ele>209.33333333333334</ele><time>2026-04-04T07:41:19.923Z</time></trkpt><trkpt lat="44.3036048" lon="11.4493641"><ele>209.66666666666669</ele><time>2026-04-04T07:41:20.923Z</time></trkpt><trkpt lat="44.30348" lon="11.4492264"><ele>210.0</ele><time>2026-04-04T07:41:21.922Z</time></trkpt><trkpt lat="44.3033703" lon="11.4490613"><ele>210.0</ele><time>2026-04-04T07:41:22.922Z</time></trkpt><trkpt lat="44.3032634" lon="11.4488923"><ele>210.0</ele><time>2026-04-04T07:41:23.923Z</time></trkpt><trkpt lat="44.3031418" lon="11.4487436"><ele>210.0</ele><time>2026-04-04T07:41:24.923Z</time></trkpt><trkpt lat="44.3030168" lon="11.4486356"><ele>209.66666666666669</ele><time>2026-04-04T07:41:25.922Z</time></trkpt><trkpt lat="44.302879" lon="11.4485668"><ele>209.33333333333334</ele><time>2026-04-04T07:41:26.923Z</time></trkpt><trkpt lat="44.3027274" lon="11.4485364"><ele>209.0</ele><time>2026-04-04T07:41:27.921Z</time></trkpt><trkpt lat="44.3025726" lon="11.4485561"><ele>209.0</ele><time>2026-04-04T07:41:28.922Z</time></trkpt><trkpt lat="44.3024143" lon="11.4486256"><ele>209.0</ele><time>2026-04-04T07:41:29.922Z</time></trkpt><trkpt lat="44.3022622" lon="11.4487072"><ele>209.0</ele><time>2026-04-04T07:41:30.922Z</time></trkpt><trkpt lat="44.3021254" lon="11.4487753"><ele>209.39999999999998</ele><time>2026-04-04T07:41:31.922Z</time></trkpt><trkpt lat="44.3020127" lon="11.4488155"><ele>209.8</ele><time>2026-04-04T07:41:32.922Z</time></trkpt><trkpt lat="44.3019131" lon="11.4488014"><ele>210.2</ele><time>2026-04-04T07:41:33.922Z</time></trkpt><trkpt lat="44.301833" lon="11.4487415"><ele>210.60000000000002</ele><time>2026-04-04T07:41:34.922Z</time></trkpt><trkpt lat="44.3017565" lon="11.4486359"><ele>211.0</ele><time>2026-04-04T07:41:35.922Z</time></trkpt><trkpt lat="44.3016768" lon="11.4485042"><ele>211.0</ele><time>2026-04-04T07:41:36.922Z</time></trkpt><trkpt lat="44.3015781" lon="11.4483612"><ele>211.0</ele><time>2026-04-04T07:41:37.922Z</time></trkpt><trkpt lat="44.3014585" lon="11.4481986"><ele>211.0</ele><time>2026-04-04T07:41:38.922Z</time></trkpt><trkpt lat="44.3013258" lon="11.4480373"><ele>211.0</ele><time>2026-04-04T07:41:39.922Z</time></trkpt><trkpt lat="44.3011738" lon="11.447879"><ele>211.0</ele><time>2026-04-04T07:41:40.922Z</time></trkpt><trkpt lat="44.3010159" lon="11.4477284"><ele>211.0</ele><time>2026-04-04T07:41:41.923Z</time></trkpt><trkpt lat="44.3008527" lon="11.4475871"><ele>211.0</ele><time>2026-04-04T07:41:42.923Z</time></trkpt><trkpt lat="44.3006845" lon="11.4474571"><ele>211.0</ele><time>2026-04-04T07:41:43.923Z</time></trkpt><trkpt lat="44.3005029" lon="11.4473395"><ele>211.0</ele><time>2026-04-04T07:41:44.923Z</time></trkpt><trkpt lat="44.3003067" lon="11.4472416"><ele>211.0</ele><time>2026-04-04T07:41:45.922Z</time></trkpt><trkpt lat="44.3001245" lon="11.4471611"><ele>211.0</ele><time>2026-04-04T07:41:46.922Z</time></trkpt><trkpt lat="44.2999562" lon="11.4470763"><ele>211.0</ele><time>2026-04-04T07:41:47.922Z</time></trkpt><trkpt lat="44.2997889" lon="11.4469899"><ele>211.33333333333331</ele><time>2026-04-04T07:41:48.921Z</time></trkpt><trkpt lat="44.2996163" lon="11.4469389"><ele>211.66666666666669</ele><time>2026-04-04T07:41:49.923Z</time></trkpt><trkpt lat="44.2994397" lon="11.4469321"><ele>212.0</ele><time>2026-04-04T07:41:50.923Z</time></trkpt><trkpt lat="44.299262" lon="11.4468998"><ele>212.0</ele><time>2026-04-04T07:41:51.923Z</time></trkpt><trkpt lat="44.2990882" lon="11.4468174"><ele>212.0</ele><time>2026-04-04T07:41:52.923Z</time></trkpt><trkpt lat="44.2989218" lon="11.4467083"><ele>212.0</ele><time>2026-04-04T07:41:53.923Z</time></trkpt><trkpt lat="44.2987741" lon="11.4466055"><ele>212.33333333333334</ele><time>2026-04-04T07:41:54.922Z</time></trkpt><trkpt lat="44.2986148" lon="11.4465538"><ele>212.66666666666669</ele><time>2026-04-04T07:41:55.922Z</time></trkpt><trkpt lat="44.2984448" lon="11.4465624"><ele>213.0</ele><time>2026-04-04T07:41:56.922Z</time></trkpt><trkpt lat="44.2982731" lon="11.4466278"><ele>213.0</ele><time>2026-04-04T07:41:57.922Z</time></trkpt><trkpt lat="44.2980954" lon="11.4467221"><ele>213.0</ele><time>2026-04-04T07:41:58.922Z</time></trkpt><trkpt lat="44.2979115" lon="11.4468043"><ele>213.0</ele><time>2026-04-04T07:41:59.922Z</time></trkpt><trkpt lat="44.2977214" lon="11.4468577"><ele>212.66666666666669</ele><time>2026-04-04T07:42:00.922Z</time></trkpt><trkpt lat="44.2975404" lon="11.4468587"><ele>212.33333333333334</ele><time>2026-04-04T07:42:01.922Z</time></trkpt><trkpt lat="44.2973756" lon="11.4468285"><ele>212.0</ele><time>2026-04-04T07:42:02.923Z</time></trkpt><trkpt lat="44.297224" lon="11.4468396"><ele>212.5</ele><time>2026-04-04T07:42:03.923Z</time></trkpt><trkpt lat="44.2970998" lon="11.4469086"><ele>213.0</ele><time>2026-04-04T07:42:04.923Z</time></trkpt><trkpt lat="44.2969968" lon="11.4470305"><ele>213.5</ele><time>2026-04-04T07:42:05.923Z</time></trkpt><trkpt lat="44.2969036" lon="11.4471684"><ele>214.0</ele><time>2026-04-04T07:42:06.923Z</time></trkpt><trkpt lat="44.2967765" lon="11.4472603"><ele>218.0</ele><time>2026-04-04T07:42:07.922Z</time></trkpt><trkpt lat="44.2966309" lon="11.4473069"><ele>222.0</ele><time>2026-04-04T07:42:08.922Z</time></trkpt><trkpt lat="44.2964768" lon="11.4473062"><ele>226.0</ele><time>2026-04-04T07:42:09.922Z</time></trkpt><trkpt lat="44.2963161" lon="11.4472818"><ele>227.33333333333331</ele><time>2026-04-04T07:42:10.922Z</time></trkpt><trkpt lat="44.2961563" lon="11.4472069"><ele>228.66666666666669</ele><time>2026-04-04T07:42:11.923Z</time></trkpt><trkpt lat="44.2959988" lon="11.4470958"><ele>230.0</ele><time>2026-04-04T07:42:12.923Z</time></trkpt><trkpt lat="44.2958354" lon="11.4470011"><ele>226.33333333333334</ele><time>2026-04-04T07:42:13.922Z</time></trkpt><trkpt lat="44.2956797" lon="11.4469481"><ele>222.66666666666669</ele><time>2026-04-04T07:42:14.922Z</time></trkpt><trkpt lat="44.295534" lon="11.4469309"><ele>219.0</ele><time>2026-04-04T07:42:15.923Z</time></trkpt><trkpt lat="44.2953838" lon="11.44696"><ele>219.0</ele><time>2026-04-04T07:42:16.923Z</time></trkpt><trkpt lat="44.2952356" lon="11.4470429"><ele>219.0</ele><time>2026-04-04T07:42:17.923Z</time></trkpt><trkpt lat="44.295097" lon="11.4471733"><ele>219.0</ele><time>2026-04-04T07:42:18.923Z</time></trkpt><trkpt lat="44.2949597" lon="11.4473336"><ele>219.66666666666669</ele><time>2026-04-04T07:42:19.923Z</time></trkpt><trkpt lat="44.2948164" lon="11.4475014"><ele>220.33333333333334</ele><time>2026-04-04T07:42:20.923Z</time></trkpt><trkpt lat="44.2946747" lon="11.4476759"><ele>221.0</ele><time>2026-04-04T07:42:21.923Z</time></trkpt><trkpt lat="44.2945429" lon="11.4478453"><ele>224.0</ele><time>2026-04-04T07:42:22.923Z</time></trkpt><trkpt lat="44.2944012" lon="11.4479959"><ele>227.0</ele><time>2026-04-04T07:42:23.923Z</time></trkpt><trkpt lat="44.2942367" lon="11.4481103"><ele>230.0</ele><time>2026-04-04T07:42:24.923Z</time></trkpt><trkpt lat="44.2940597" lon="11.4481884"><ele>230.0</ele><time>2026-04-04T07:42:25.922Z</time></trkpt><trkpt lat="44.2939079" lon="11.4482253"><ele>230.0</ele><time>2026-04-04T07:42:26.923Z</time></trkpt><trkpt lat="44.2937683" lon="11.4482114"><ele>230.0</ele><time>2026-04-04T07:42:27.922Z</time></trkpt><trkpt lat="44.2936491" lon="11.4481463"><ele>230.0</ele><time>2026-04-04T07:42:28.923Z</time></trkpt><trkpt lat="44.2935465" lon="11.4480343"><ele>228.0</ele><time>2026-04-04T07:42:29.923Z</time></trkpt><trkpt lat="44.2934407" lon="11.4479151"><ele>226.0</ele><time>2026-04-04T07:42:30.923Z</time></trkpt><trkpt lat="44.2933312" lon="11.447854"><ele>224.0</ele><time>2026-04-04T07:42:31.923Z</time></trkpt><trkpt lat="44.293216" lon="11.447846"><ele>222.0</ele><time>2026-04-04T07:42:32.923Z</time></trkpt><trkpt lat="44.2931022" lon="11.4478932"><ele>223.5</ele><time>2026-04-04T07:42:33.922Z</time></trkpt><trkpt lat="44.292996" lon="11.4479987"><ele>225.0</ele><time>2026-04-04T07:42:34.923Z</time></trkpt><trkpt lat="44.292897" lon="11.4481452"><ele>226.5</ele><time>2026-04-04T07:42:35.923Z</time></trkpt><trkpt lat="44.2927945" lon="11.4483195"><ele>228.0</ele><time>2026-04-04T07:42:36.923Z</time></trkpt><trkpt lat="44.2927025" lon="11.4484742"><ele>228.0</ele><time>2026-04-04T07:42:37.922Z</time></trkpt><trkpt lat="44.2926021" lon="11.4485892"><ele>228.0</ele><time>2026-04-04T07:42:38.922Z</time></trkpt><trkpt lat="44.2924897" lon="11.4486353"><ele>228.0</ele><time>2026-04-04T07:42:39.921Z</time></trkpt><trkpt lat="44.2923706" lon="11.4486292"><ele>228.0</ele><time>2026-04-04T07:42:40.923Z</time></trkpt><trkpt lat="44.2922468" lon="11.4485771"><ele>229.25</ele><time>2026-04-04T07:42:41.922Z</time></trkpt><trkpt lat="44.2921162" lon="11.4485066"><ele>230.5</ele><time>2026-04-04T07:42:42.923Z</time></trkpt><trkpt lat="44.2919699" lon="11.4484398"><ele>231.75</ele><time>2026-04-04T07:42:43.923Z</time></trkpt><trkpt lat="44.2918218" lon="11.4483851"><ele>233.0</ele><time>2026-04-04T07:42:44.923Z</time></trkpt><trkpt lat="44.2916673" lon="11.4483586"><ele>233.0</ele><time>2026-04-04T07:42:45.923Z</time></trkpt><trkpt lat="44.2915031" lon="11.4483563"><ele>233.0</ele><time>2026-04-04T07:42:46.923Z</time></trkpt><trkpt lat="44.2913295" lon="11.4483664"><ele>233.0</ele><time>2026-04-04T07:42:47.922Z</time></trkpt><trkpt lat="44.2911507" lon="11.4483817"><ele>232.66666666666669</ele><time>2026-04-04T07:42:48.923Z</time></trkpt><trkpt lat="44.2909792" lon="11.4484053"><ele>232.33333333333331</ele><time>2026-04-04T07:42:49.922Z</time></trkpt><trkpt lat="44.2908242" lon="11.4484444"><ele>232.0</ele><time>2026-04-04T07:42:50.923Z</time></trkpt><trkpt lat="44.2906821" lon="11.4485022"><ele>232.0</ele><time>2026-04-04T07:42:51.922Z</time></trkpt><trkpt lat="44.2905544" lon="11.4485833"><ele>232.0</ele><time>2026-04-04T07:42:52.923Z</time></trkpt><trkpt lat="44.2904341" lon="11.4486906"><ele>232.0</ele><time>2026-04-04T07:42:53.922Z</time></trkpt><trkpt lat="44.2903137" lon="11.4488166"><ele>232.0</ele><time>2026-04-04T07:42:54.922Z</time></trkpt><trkpt lat="44.2901927" lon="11.4489468"><ele>233.66666666666666</ele><time>2026-04-04T07:42:55.922Z</time></trkpt><trkpt lat="44.2900668" lon="11.4490637"><ele>235.33333333333331</ele><time>2026-04-04T07:42:56.922Z</time></trkpt><trkpt lat="44.2899232" lon="11.4491551"><ele>237.0</ele><time>2026-04-04T07:42:57.922Z</time></trkpt><trkpt lat="44.289759" lon="11.4492162"><ele>236.33333333333331</ele><time>2026-04-04T07:42:58.922Z</time></trkpt><trkpt lat="44.289585" lon="11.4492567"><ele>235.66666666666666</ele><time>2026-04-04T07:42:59.922Z</time></trkpt><trkpt lat="44.2894051" lon="11.4492872"><ele>235.0</ele><time>2026-04-04T07:43:00.923Z</time></trkpt><trkpt lat="44.2892195" lon="11.4493077"><ele>235.0</ele><time>2026-04-04T07:43:01.922Z</time></trkpt><trkpt lat="44.2890292" lon="11.4493177"><ele>235.0</ele><time>2026-04-04T07:43:02.922Z</time></trkpt><trkpt lat="44.2888408" lon="11.4493348"><ele>235.0</ele><time>2026-04-04T07:43:03.922Z</time></trkpt><trkpt lat="44.2886714" lon="11.4493739"><ele>235.0</ele><time>2026-04-04T07:43:04.922Z</time></trkpt><trkpt lat="44.2885033" lon="11.449442"><ele>235.0</ele><time>2026-04-04T07:43:05.922Z</time></trkpt><trkpt lat="44.2883355" lon="11.4495322"><ele>235.0</ele><time>2026-04-04T07:43:06.922Z</time></trkpt><trkpt lat="44.2881678" lon="11.4496196"><ele>235.66666666666666</ele><time>2026-04-04T07:43:07.922Z</time></trkpt><trkpt lat="44.2880118" lon="11.4496955"><ele>236.33333333333331</ele><time>2026-04-04T07:43:08.923Z</time></trkpt><trkpt lat="44.2878556" lon="11.449773"><ele>237.0</ele><time>2026-04-04T07:43:09.923Z</time></trkpt><trkpt lat="44.2877259" lon="11.449849"><ele>237.0</ele><time>2026-04-04T07:43:10.923Z</time></trkpt><trkpt lat="44.2876135" lon="11.4499699"><ele>237.0</ele><time>2026-04-04T07:43:11.923Z</time></trkpt><trkpt lat="44.2875276" lon="11.4501355"><ele>237.0</ele><time>2026-04-04T07:43:12.923Z</time></trkpt><trkpt lat="44.2874528" lon="11.4503337"><ele>237.0</ele><time>2026-04-04T07:43:13.923Z</time></trkpt><trkpt lat="44.287375" lon="11.450538"><ele>237.33333333333331</ele><time>2026-04-04T07:43:14.923Z</time></trkpt><trkpt lat="44.2872896" lon="11.4507536"><ele>237.66666666666666</ele><time>2026-04-04T07:43:15.923Z</time></trkpt><trkpt lat="44.2872059" lon="11.4509514"><ele>238.0</ele><time>2026-04-04T07:43:16.922Z</time></trkpt><trkpt lat="44.2871175" lon="11.4511178"><ele>238.0</ele><time>2026-04-04T07:43:17.921Z</time></trkpt><trkpt lat="44.2870044" lon="11.4512562"><ele>238.0</ele><time>2026-04-04T07:43:18.922Z</time></trkpt><trkpt lat="44.2868685" lon="11.4513605"><ele>238.0</ele><time>2026-04-04T07:43:19.921Z</time></trkpt><trkpt lat="44.2867413" lon="11.4514114"><ele>238.0</ele><time>2026-04-04T07:43:20.922Z</time></trkpt><trkpt lat="44.2866319" lon="11.4514701"><ele>240.25</ele><time>2026-04-04T07:43:21.922Z</time></trkpt><trkpt lat="44.2865457" lon="11.4515828"><ele>242.5</ele><time>2026-04-04T07:43:22.922Z</time></trkpt><trkpt lat="44.2864959" lon="11.4517256"><ele>244.75</ele><time>2026-04-04T07:43:23.922Z</time></trkpt><trkpt lat="44.2864662" lon="11.4518841"><ele>247.0</ele><time>2026-04-04T07:43:24.922Z</time></trkpt><trkpt lat="44.2863925" lon="11.4520186"><ele>247.25</ele><time>2026-04-04T07:43:25.921Z</time></trkpt><trkpt lat="44.2862875" lon="11.4521204"><ele>247.5</ele><time>2026-04-04T07:43:26.922Z</time></trkpt><trkpt lat="44.2861614" lon="11.452169"><ele>247.75</ele><time>2026-04-04T07:43:27.923Z</time></trkpt><trkpt lat="44.2860368" lon="11.4521634"><ele>248.0</ele><time>2026-04-04T07:43:28.923Z</time></trkpt><trkpt lat="44.2859327" lon="11.4520941"><ele>248.0</ele><time>2026-04-04T07:43:29.923Z</time></trkpt><trkpt lat="44.2858529" lon="11.4519744"><ele>248.0</ele><time>2026-04-04T07:43:30.922Z</time></trkpt><trkpt lat="44.2857937" lon="11.4518193"><ele>248.0</ele><time>2026-04-04T07:43:31.922Z</time></trkpt><trkpt lat="44.2857227" lon="11.4516698"><ele>248.0</ele><time>2026-04-04T07:43:32.922Z</time></trkpt><trkpt lat="44.2856118" lon="11.4515596"><ele>249.75</ele><time>2026-04-04T07:43:33.922Z</time></trkpt><trkpt lat="44.2854812" lon="11.4514931"><ele>251.5</ele><time>2026-04-04T07:43:34.921Z</time></trkpt><trkpt lat="44.2853373" lon="11.4514567"><ele>253.25</ele><time>2026-04-04T07:43:35.922Z</time></trkpt><trkpt lat="44.2851842" lon="11.4514287"><ele>255.0</ele><time>2026-04-04T07:43:36.922Z</time></trkpt><trkpt lat="44.2850201" lon="11.4514084"><ele>255.0</ele><time>2026-04-04T07:43:37.923Z</time></trkpt><trkpt lat="44.2848574" lon="11.4513995"><ele>255.0</ele><time>2026-04-04T07:43:38.922Z</time></trkpt><trkpt lat="44.2846984" lon="11.4514067"><ele>255.0</ele><time>2026-04-04T07:43:39.922Z</time></trkpt><trkpt lat="44.2845472" lon="11.4514363"><ele>254.0</ele><time>2026-04-04T07:43:40.921Z</time></trkpt><trkpt lat="44.2844079" lon="11.4514951"><ele>253.0</ele><time>2026-04-04T07:43:41.922Z</time></trkpt><trkpt lat="44.284283" lon="11.4515822"><ele>252.0</ele><time>2026-04-04T07:43:42.922Z</time></trkpt><trkpt lat="44.2841816" lon="11.4516966"><ele>251.0</ele><time>2026-04-04T07:43:43.922Z</time></trkpt><trkpt lat="44.2841083" lon="11.4518355"><ele>251.0</ele><time>2026-04-04T07:43:44.923Z</time></trkpt><trkpt lat="44.2840667" lon="11.452006"><ele>251.0</ele><time>2026-04-04T07:43:45.923Z</time></trkpt><trkpt lat="44.2840608" lon="11.4521919"><ele>251.0</ele><time>2026-04-04T07:43:46.923Z</time></trkpt><trkpt lat="44.2840823" lon="11.4523607"><ele>251.0</ele><time>2026-04-04T07:43:47.923Z</time></trkpt><trkpt lat="44.2841018" lon="11.4525138"><ele>251.8</ele><time>2026-04-04T07:43:48.923Z</time></trkpt><trkpt lat="44.2840829" lon="11.4526563"><ele>252.60000000000002</ele><time>2026-04-04T07:43:49.923Z</time></trkpt><trkpt lat="44.2840327" lon="11.4527869"><ele>253.4</ele><time>2026-04-04T07:43:50.922Z</time></trkpt><trkpt lat="44.2839486" lon="11.452886"><ele>254.2</ele><time>2026-04-04T07:43:51.922Z</time></trkpt><trkpt lat="44.2838392" lon="11.4529584"><ele>255.0</ele><time>2026-04-04T07:43:52.922Z</time></trkpt><trkpt lat="44.2837167" lon="11.4530003"><ele>254.25</ele><time>2026-04-04T07:43:53.923Z</time></trkpt><trkpt lat="44.2835853" lon="11.4529926"><ele>253.5</ele><time>2026-04-04T07:43:54.923Z</time></trkpt><trkpt lat="44.2834602" lon="11.4529329"><ele>252.75</ele><time>2026-04-04T07:43:55.923Z</time></trkpt><trkpt lat="44.2833446" lon="11.4528462"><ele>252.0</ele><time>2026-04-04T07:43:56.922Z</time></trkpt><trkpt lat="44.2832166" lon="11.452789"><ele>251.5</ele><time>2026-04-04T07:43:57.923Z</time></trkpt><trkpt lat="44.2830798" lon="11.4527751"><ele>251.0</ele><time>2026-04-04T07:43:58.922Z</time></trkpt><trkpt lat="44.2829433" lon="11.4527742"><ele>250.5</ele><time>2026-04-04T07:43:59.921Z</time></trkpt><trkpt lat="44.2828043" lon="11.4527848"><ele>250.0</ele><time>2026-04-04T07:44:00.921Z</time></trkpt><trkpt lat="44.2826866" lon="11.452845"><ele>250.0</ele><time>2026-04-04T07:44:01.921Z</time></trkpt><trkpt lat="44.2825913" lon="11.4529477"><ele>250.0</ele><time>2026-04-04T07:44:02.922Z</time></trkpt><trkpt lat="44.2825208" lon="11.4530976"><ele>250.0</ele><time>2026-04-04T07:44:03.922Z</time></trkpt><trkpt lat="44.282472" lon="11.4532729"><ele>250.0</ele><time>2026-04-04T07:44:04.923Z</time></trkpt><trkpt lat="44.2824014" lon="11.4534321"><ele>250.25</ele><time>2026-04-04T07:44:05.923Z</time></trkpt><trkpt lat="44.28231" lon="11.4535377"><ele>250.5</ele><time>2026-04-04T07:44:06.923Z</time></trkpt><trkpt lat="44.2821961" lon="11.4536049"><ele>250.75</ele><time>2026-04-04T07:44:07.923Z</time></trkpt><trkpt lat="44.2820724" lon="11.4536353"><ele>251.0</ele><time>2026-04-04T07:44:08.923Z</time></trkpt><trkpt lat="44.2819418" lon="11.4536699"><ele>251.0</ele><time>2026-04-04T07:44:09.922Z</time></trkpt><trkpt lat="44.2818166" lon="11.4537252"><ele>251.0</ele><time>2026-04-04T07:44:10.923Z</time></trkpt><trkpt lat="44.2817096" lon="11.4538319"><ele>251.0</ele><time>2026-04-04T07:44:11.922Z</time></trkpt><trkpt lat="44.2816226" lon="11.4539774"><ele>251.0</ele><time>2026-04-04T07:44:12.923Z</time></trkpt><trkpt lat="44.2815515" lon="11.4541395"><ele>251.75</ele><time>2026-04-04T07:44:13.923Z</time></trkpt><trkpt lat="44.2814571" lon="11.4542854"><ele>252.5</ele><time>2026-04-04T07:44:14.922Z</time></trkpt><trkpt lat="44.2813415" lon="11.4544087"><ele>253.25</ele><time>2026-04-04T07:44:15.921Z</time></trkpt><trkpt lat="44.2812145" lon="11.4545242"><ele>254.0</ele><time>2026-04-04T07:44:16.923Z</time></trkpt><trkpt lat="44.2810806" lon="11.4546348"><ele>257.0</ele><time>2026-04-04T07:44:17.922Z</time></trkpt><trkpt lat="44.2809446" lon="11.4547455"><ele>260.0</ele><time>2026-04-04T07:44:18.923Z</time></trkpt><trkpt lat="44.280807" lon="11.4548724"><ele>263.0</ele><time>2026-04-04T07:44:19.922Z</time></trkpt><trkpt lat="44.2806763" lon="11.4550142"><ele>263.6666666666667</ele><time>2026-04-04T07:44:20.921Z</time></trkpt><trkpt lat="44.2805531" lon="11.455161"><ele>264.3333333333333</ele><time>2026-04-04T07:44:21.921Z</time></trkpt><trkpt lat="44.2804366" lon="11.4553106"><ele>265.0</ele><time>2026-04-04T07:44:22.921Z</time></trkpt><trkpt lat="44.2803299" lon="11.4554724"><ele>265.0</ele><time>2026-04-04T07:44:23.921Z</time></trkpt><trkpt lat="44.280235" lon="11.4556595"><ele>265.0</ele><time>2026-04-04T07:44:24.92Z</time></trkpt><trkpt lat="44.2801497" lon="11.455861"><ele>265.0</ele><time>2026-04-04T07:44:25.921Z</time></trkpt><trkpt lat="44.2800718" lon="11.4560714"><ele>265.0</ele><time>2026-04-04T07:44:26.92Z</time></trkpt><trkpt lat="44.2799922" lon="11.4562827"><ele>265.0</ele><time>2026-04-04T07:44:27.921Z</time></trkpt><trkpt lat="44.2799131" lon="11.4564928"><ele>265.0</ele><time>2026-04-04T07:44:28.922Z</time></trkpt><trkpt lat="44.2798354" lon="11.456701"><ele>267.0</ele><time>2026-04-04T07:44:29.922Z</time></trkpt><trkpt lat="44.2797711" lon="11.4569147"><ele>269.0</ele><time>2026-04-04T07:44:30.921Z</time></trkpt><trkpt lat="44.2797294" lon="11.4571368"><ele>271.0</ele><time>2026-04-04T07:44:31.921Z</time></trkpt><trkpt lat="44.2797105" lon="11.4573552"><ele>271.0</ele><time>2026-04-04T07:44:32.92Z</time></trkpt><trkpt lat="44.2797032" lon="11.4575457"><ele>271.0</ele><time>2026-04-04T07:44:33.922Z</time></trkpt><trkpt lat="44.2796888" lon="11.4577189"><ele>271.0</ele><time>2026-04-04T07:44:34.921Z</time></trkpt><trkpt lat="44.2796393" lon="11.4578562"><ele>271.0</ele><time>2026-04-04T07:44:35.922Z</time></trkpt><trkpt lat="44.2795655" lon="11.4579407"><ele>271.0</ele><time>2026-04-04T07:44:36.921Z</time></trkpt><trkpt lat="44.2794734" lon="11.4579664"><ele>271.0</ele><time>2026-04-04T07:44:37.921Z</time></trkpt><trkpt lat="44.2793664" lon="11.4579517"><ele>271.0</ele><time>2026-04-04T07:44:38.921Z</time></trkpt><trkpt lat="44.2792444" lon="11.4579302"><ele>271.0</ele><time>2026-04-04T07:44:39.921Z</time></trkpt><trkpt lat="44.2791099" lon="11.4579431"><ele>271.0</ele><time>2026-04-04T07:44:40.921Z</time></trkpt><trkpt lat="44.2789664" lon="11.4579906"><ele>271.0</ele><time>2026-04-04T07:44:41.921Z</time></trkpt><trkpt lat="44.2788219" lon="11.4580705"><ele>271.0</ele><time>2026-04-04T07:44:42.921Z</time></trkpt><trkpt lat="44.2786836" lon="11.4581794"><ele>271.0</ele><time>2026-04-04T07:44:43.921Z</time></trkpt><trkpt lat="44.2785567" lon="11.4583147"><ele>271.0</ele><time>2026-04-04T07:44:44.922Z</time></trkpt><trkpt lat="44.2784492" lon="11.4584593"><ele>271.0</ele><time>2026-04-04T07:44:45.922Z</time></trkpt><trkpt lat="44.2783559" lon="11.4586106"><ele>271.0</ele><time>2026-04-04T07:44:46.922Z</time></trkpt><trkpt lat="44.278266" lon="11.4587562"><ele>271.0</ele><time>2026-04-04T07:44:47.921Z</time></trkpt><trkpt lat="44.2781703" lon="11.4588753"><ele>271.0</ele><time>2026-04-04T07:44:48.922Z</time></trkpt><trkpt lat="44.2780594" lon="11.4589427"><ele>271.0</ele><time>2026-04-04T07:44:49.922Z</time></trkpt><trkpt lat="44.2779657" lon="11.4589428"><ele>271.16666666666663</ele><time>2026-04-04T07:44:50.921Z</time></trkpt><trkpt lat="44.2778983" lon="11.4589097"><ele>271.3333333333333</ele><time>2026-04-04T07:44:51.922Z</time></trkpt><trkpt lat="44.2778371" lon="11.4588508"><ele>271.5</ele><time>2026-04-04T07:44:52.922Z</time></trkpt><trkpt lat="44.2777774" lon="11.4588058"><ele>271.6666666666667</ele><time>2026-04-04T07:44:53.922Z</time></trkpt><trkpt lat="44.2776661" lon="11.4587394"><ele>271.83333333333337</ele><time>2026-04-04T07:44:55.921Z</time></trkpt><trkpt lat="44.2776032" lon="11.4586962"><ele>272.0</ele><time>2026-04-04T07:44:56.922Z</time></trkpt><trkpt lat="44.2775313" lon="11.4586451"><ele>272.0</ele><time>2026-04-04T07:44:57.922Z</time></trkpt><trkpt lat="44.2774482" lon="11.45859"><ele>272.0</ele><time>2026-04-04T07:44:58.922Z</time></trkpt><trkpt lat="44.2773568" lon="11.4585392"><ele>272.0</ele><time>2026-04-04T07:44:59.921Z</time></trkpt><trkpt lat="44.2772463" lon="11.4585077"><ele>272.0</ele><time>2026-04-04T07:45:00.92Z</time></trkpt><trkpt lat="44.2771298" lon="11.4585223"><ele>272.0</ele><time>2026-04-04T07:45:01.922Z</time></trkpt><trkpt lat="44.2770203" lon="11.4585963"><ele>271.5</ele><time>2026-04-04T07:45:02.922Z</time></trkpt><trkpt lat="44.2769181" lon="11.4587031"><ele>271.0</ele><time>2026-04-04T07:45:03.921Z</time></trkpt><trkpt lat="44.276803" lon="11.4587959"><ele>270.5</ele><time>2026-04-04T07:45:04.922Z</time></trkpt><trkpt lat="44.2766687" lon="11.458857"><ele>270.0</ele><time>2026-04-04T07:45:05.922Z</time></trkpt><trkpt lat="44.2765256" lon="11.4588708"><ele>271.3333333333333</ele><time>2026-04-04T07:45:06.922Z</time></trkpt><trkpt lat="44.2763754" lon="11.4588745"><ele>272.66666666666663</ele><time>2026-04-04T07:45:07.922Z</time></trkpt><trkpt lat="44.2762116" lon="11.4588596"><ele>274.0</ele><time>2026-04-04T07:45:08.921Z</time></trkpt><trkpt lat="44.2760484" lon="11.45883"><ele>274.0</ele><time>2026-04-04T07:45:09.922Z</time></trkpt><trkpt lat="44.2758732" lon="11.4587953"><ele>274.0</ele><time>2026-04-04T07:45:10.922Z</time></trkpt><trkpt lat="44.2757041" lon="11.4587586"><ele>274.0</ele><time>2026-04-04T07:45:11.922Z</time></trkpt><trkpt lat="44.27555" lon="11.4587183"><ele>275.3333333333333</ele><time>2026-04-04T07:45:12.92Z</time></trkpt><trkpt lat="44.2753952" lon="11.4586559"><ele>276.6666666666667</ele><time>2026-04-04T07:45:13.921Z</time></trkpt><trkpt lat="44.2752435" lon="11.458564"><ele>278.0</ele><time>2026-04-04T07:45:14.921Z</time></trkpt><trkpt lat="44.2750948" lon="11.4584491"><ele>278.0</ele><time>2026-04-04T07:45:15.922Z</time></trkpt><trkpt lat="44.2749531" lon="11.4583138"><ele>278.0</ele><time>2026-04-04T07:45:16.922Z</time></trkpt><trkpt lat="44.2748187" lon="11.4581717"><ele>278.0</ele><time>2026-04-04T07:45:17.922Z</time></trkpt><trkpt lat="44.2746892" lon="11.4580421"><ele>280.25</ele><time>2026-04-04T07:45:18.922Z</time></trkpt><trkpt lat="44.2745645" lon="11.4579282"><ele>282.5</ele><time>2026-04-04T07:45:19.921Z</time></trkpt><trkpt lat="44.2744362" lon="11.4578428"><ele>284.75</ele><time>2026-04-04T07:45:20.921Z</time></trkpt><trkpt lat="44.2743046" lon="11.4577818"><ele>287.0</ele><time>2026-04-04T07:45:21.921Z</time></trkpt><trkpt lat="44.2741706" lon="11.4577295"><ele>287.0</ele><time>2026-04-04T07:45:22.921Z</time></trkpt><trkpt lat="44.2740405" lon="11.4576878"><ele>287.0</ele><time>2026-04-04T07:45:23.921Z</time></trkpt><trkpt lat="44.2739133" lon="11.4576473"><ele>287.0</ele><time>2026-04-04T07:45:24.921Z</time></trkpt><trkpt lat="44.2737878" lon="11.4575987"><ele>287.0</ele><time>2026-04-04T07:45:25.92Z</time></trkpt><trkpt lat="44.2736625" lon="11.4575534"><ele>287.0</ele><time>2026-04-04T07:45:26.922Z</time></trkpt><trkpt lat="44.2735372" lon="11.4575022"><ele>287.0</ele><time>2026-04-04T07:45:27.92Z</time></trkpt><trkpt lat="44.2734135" lon="11.4574442"><ele>287.0</ele><time>2026-04-04T07:45:28.921Z</time></trkpt><trkpt lat="44.2732938" lon="11.4573888"><ele>287.0</ele><time>2026-04-04T07:45:29.921Z</time></trkpt><trkpt lat="44.2731771" lon="11.4573469"><ele>288.25</ele><time>2026-04-04T07:45:30.921Z</time></trkpt><trkpt lat="44.2730621" lon="11.457335"><ele>289.5</ele><time>2026-04-04T07:45:31.921Z</time></trkpt><trkpt lat="44.2729557" lon="11.4573782"><ele>290.75</ele><time>2026-04-04T07:45:32.921Z</time></trkpt><trkpt lat="44.272855" lon="11.4574735"><ele>292.0</ele><time>2026-04-04T07:45:33.921Z</time></trkpt><trkpt lat="44.2727704" lon="11.4575923"><ele>292.0</ele><time>2026-04-04T07:45:34.921Z</time></trkpt><trkpt lat="44.2726937" lon="11.4576973"><ele>292.0</ele><time>2026-04-04T07:45:35.921Z</time></trkpt><trkpt lat="44.2726283" lon="11.4577933"><ele>292.0</ele><time>2026-04-04T07:45:36.921Z</time></trkpt><trkpt lat="44.2725642" lon="11.457883"><ele>292.0</ele><time>2026-04-04T07:45:37.921Z</time></trkpt><trkpt lat="44.2724914" lon="11.4579643"><ele>292.0</ele><time>2026-04-04T07:45:38.921Z</time></trkpt><trkpt lat="44.2724153" lon="11.4580341"><ele>291.5</ele><time>2026-04-04T07:45:39.921Z</time></trkpt><trkpt lat="44.2723231" lon="11.4580936"><ele>291.0</ele><time>2026-04-04T07:45:40.922Z</time></trkpt><trkpt lat="44.2722217" lon="11.4581558"><ele>290.5</ele><time>2026-04-04T07:45:41.92Z</time></trkpt><trkpt lat="44.2721126" lon="11.4582243"><ele>290.0</ele><time>2026-04-04T07:45:42.921Z</time></trkpt><trkpt lat="44.2720029" lon="11.4583049"><ele>290.0</ele><time>2026-04-04T07:45:43.92Z</time></trkpt><trkpt lat="44.271903" lon="11.4584106"><ele>290.0</ele><time>2026-04-04T07:45:44.92Z</time></trkpt><trkpt lat="44.2718132" lon="11.4585362"><ele>290.0</ele><time>2026-04-04T07:45:45.92Z</time></trkpt><trkpt lat="44.2717419" lon="11.4586876"><ele>290.0</ele><time>2026-04-04T07:45:46.921Z</time></trkpt><trkpt lat="44.271678" lon="11.4588666"><ele>288.75</ele><time>2026-04-04T07:45:47.921Z</time></trkpt><trkpt lat="44.2716231" lon="11.4590578"><ele>287.5</ele><time>2026-04-04T07:45:48.921Z</time></trkpt><trkpt lat="44.2715749" lon="11.4592568"><ele>286.25</ele><time>2026-04-04T07:45:49.921Z</time></trkpt><trkpt lat="44.271525" lon="11.4594541"><ele>285.0</ele><time>2026-04-04T07:45:50.921Z</time></trkpt><trkpt lat="44.2714697" lon="11.4596365"><ele>288.25</ele><time>2026-04-04T07:45:51.921Z</time></trkpt><trkpt lat="44.2714086" lon="11.4598025"><ele>291.5</ele><time>2026-04-04T07:45:52.922Z</time></trkpt><trkpt lat="44.2713382" lon="11.4599567"><ele>294.75</ele><time>2026-04-04T07:45:53.921Z</time></trkpt><trkpt lat="44.2712648" lon="11.4600884"><ele>298.0</ele><time>2026-04-04T07:45:54.922Z</time></trkpt><trkpt lat="44.2711915" lon="11.4602064"><ele>298.0</ele><time>2026-04-04T07:45:55.922Z</time></trkpt><trkpt lat="44.2711219" lon="11.4603061"><ele>298.0</ele><time>2026-04-04T07:45:56.922Z</time></trkpt><trkpt lat="44.2710609" lon="11.4603931"><ele>298.0</ele><time>2026-04-04T07:45:57.921Z</time></trkpt><trkpt lat="44.2709909" lon="11.4604773"><ele>298.0</ele><time>2026-04-04T07:45:59.921Z</time></trkpt><trkpt lat="44.2709117" lon="11.4606235"><ele>298.0</ele><time>2026-04-04T07:48:38.922Z</time></trkpt><trkpt lat="44.270839" lon="11.4607831"><ele>298.25</ele><time>2026-04-04T07:48:40.922Z</time></trkpt><trkpt lat="44.2707843" lon="11.4608891"><ele>298.5</ele><time>2026-04-04T07:48:41.921Z</time></trkpt><trkpt lat="44.2707161" lon="11.4610112"><ele>298.75</ele><time>2026-04-04T07:48:42.921Z</time></trkpt><trkpt lat="44.2706341" lon="11.461148"><ele>299.0</ele><time>2026-04-04T07:48:43.921Z</time></trkpt><trkpt lat="44.2705436" lon="11.4612962"><ele>299.0</ele><time>2026-04-04T07:48:44.921Z</time></trkpt><trkpt lat="44.2704487" lon="11.4614525"><ele>299.0</ele><time>2026-04-04T07:48:45.92Z</time></trkpt><trkpt lat="44.2703542" lon="11.461605"><ele>299.0</ele><time>2026-04-04T07:48:46.921Z</time></trkpt><trkpt lat="44.2702697" lon="11.4617532"><ele>299.0</ele><time>2026-04-04T07:48:47.92Z</time></trkpt><trkpt lat="44.2701873" lon="11.4618984"><ele>299.0</ele><time>2026-04-04T07:48:48.921Z</time></trkpt><trkpt lat="44.2701129" lon="11.46205"><ele>299.0</ele><time>2026-04-04T07:48:49.922Z</time></trkpt><trkpt lat="44.2700508" lon="11.4622131"><ele>299.0</ele><time>2026-04-04T07:48:50.922Z</time></trkpt><trkpt lat="44.2700297" lon="11.4623908"><ele>299.0</ele><time>2026-04-04T07:48:51.921Z</time></trkpt><trkpt lat="44.2700422" lon="11.4625544"><ele>297.5</ele><time>2026-04-04T07:48:52.922Z</time></trkpt><trkpt lat="44.2700851" lon="11.4627026"><ele>296.0</ele><time>2026-04-04T07:48:53.922Z</time></trkpt><trkpt lat="44.2701279" lon="11.4628419"><ele>294.5</ele><time>2026-04-04T07:48:54.922Z</time></trkpt><trkpt lat="44.2701401" lon="11.462998"><ele>293.0</ele><time>2026-04-04T07:48:55.921Z</time></trkpt><trkpt lat="44.2701277" lon="11.4631729"><ele>292.0</ele><time>2026-04-04T07:48:56.922Z</time></trkpt><trkpt lat="44.2700937" lon="11.4633493"><ele>291.0</ele><time>2026-04-04T07:48:57.921Z</time></trkpt><trkpt lat="44.2700418" lon="11.4635302"><ele>290.0</ele><time>2026-04-04T07:48:58.922Z</time></trkpt><trkpt lat="44.2699778" lon="11.4637073"><ele>289.0</ele><time>2026-04-04T07:48:59.922Z</time></trkpt><trkpt lat="44.2699002" lon="11.4638567"><ele>288.25</ele><time>2026-04-04T07:49:00.922Z</time></trkpt><trkpt lat="44.269825" lon="11.4639995"><ele>287.5</ele><time>2026-04-04T07:49:01.921Z</time></trkpt><trkpt lat="44.2697753" lon="11.4641557"><ele>286.75</ele><time>2026-04-04T07:49:02.921Z</time></trkpt><trkpt lat="44.2697522" lon="11.4643333"><ele>286.0</ele><time>2026-04-04T07:49:03.921Z</time></trkpt><trkpt lat="44.2697576" lon="11.4645109"><ele>286.0</ele><time>2026-04-04T07:49:04.921Z</time></trkpt><trkpt lat="44.2697799" lon="11.4646943"><ele>286.0</ele><time>2026-04-04T07:49:05.922Z</time></trkpt><trkpt lat="44.2697813" lon="11.4648819"><ele>286.0</ele><time>2026-04-04T07:49:06.922Z</time></trkpt><trkpt lat="44.2697476" lon="11.4650716"><ele>286.0</ele><time>2026-04-04T07:49:07.922Z</time></trkpt><trkpt lat="44.2696823" lon="11.4652601"><ele>286.0</ele><time>2026-04-04T07:49:08.922Z</time></trkpt><trkpt lat="44.2695981" lon="11.4654539"><ele>286.0</ele><time>2026-04-04T07:49:09.922Z</time></trkpt><trkpt lat="44.2695089" lon="11.4656424"><ele>286.0</ele><time>2026-04-04T07:49:10.922Z</time></trkpt><trkpt lat="44.2694362" lon="11.4658209"><ele>286.0</ele><time>2026-04-04T07:49:11.921Z</time></trkpt><trkpt lat="44.2693629" lon="11.4659818"><ele>286.0</ele><time>2026-04-04T07:49:12.921Z</time></trkpt><trkpt lat="44.2692799" lon="11.4661328"><ele>286.0</ele><time>2026-04-04T07:49:13.922Z</time></trkpt><trkpt lat="44.2691938" lon="11.4662972"><ele>286.0</ele><time>2026-04-04T07:49:14.922Z</time></trkpt><trkpt lat="44.2691102" lon="11.4664744"><ele>285.5</ele><time>2026-04-04T07:49:15.922Z</time></trkpt><trkpt lat="44.2690165" lon="11.4666326"><ele>285.0</ele><time>2026-04-04T07:49:16.922Z</time></trkpt><trkpt lat="44.2689041" lon="11.4667583"><ele>284.5</ele><time>2026-04-04T07:49:17.921Z</time></trkpt><trkpt lat="44.2688065" lon="11.4668884"><ele>284.0</ele><time>2026-04-04T07:49:18.921Z</time></trkpt><trkpt lat="44.2687419" lon="11.4670465"><ele>284.75</ele><time>2026-04-04T07:49:19.922Z</time></trkpt><trkpt lat="44.2687075" lon="11.467232"><ele>285.5</ele><time>2026-04-04T07:49:20.92Z</time></trkpt><trkpt lat="44.2686987" lon="11.4674343"><ele>286.25</ele><time>2026-04-04T07:49:21.921Z</time></trkpt><trkpt lat="44.2686816" lon="11.4676454"><ele>287.0</ele><time>2026-04-04T07:49:22.921Z</time></trkpt><trkpt lat="44.2686421" lon="11.4678583"><ele>288.33333333333337</ele><time>2026-04-04T07:49:23.921Z</time></trkpt><trkpt lat="44.2685883" lon="11.4680699"><ele>289.6666666666667</ele><time>2026-04-04T07:49:24.922Z</time></trkpt><trkpt lat="44.2685208" lon="11.4682897"><ele>291.0</ele><time>2026-04-04T07:49:25.921Z</time></trkpt><trkpt lat="44.2684449" lon="11.4685084"><ele>291.0</ele><time>2026-04-04T07:49:26.921Z</time></trkpt><trkpt lat="44.268358" lon="11.4687313"><ele>291.0</ele><time>2026-04-04T07:49:27.921Z</time></trkpt><trkpt lat="44.2682647" lon="11.4689624"><ele>291.0</ele><time>2026-04-04T07:49:28.921Z</time></trkpt><trkpt lat="44.2681704" lon="11.4691986"><ele>290.0</ele><time>2026-04-04T07:49:29.921Z</time></trkpt><trkpt lat="44.2680775" lon="11.4694435"><ele>289.0</ele><time>2026-04-04T07:49:30.921Z</time></trkpt><trkpt lat="44.2679908" lon="11.4696869"><ele>288.0</ele><time>2026-04-04T07:49:31.921Z</time></trkpt><trkpt lat="44.2679159" lon="11.4699134"><ele>288.0</ele><time>2026-04-04T07:49:32.921Z</time></trkpt><trkpt lat="44.2678304" lon="11.4701228"><ele>288.0</ele><time>2026-04-04T07:49:33.921Z</time></trkpt><trkpt lat="44.2677291" lon="11.4703203"><ele>288.0</ele><time>2026-04-04T07:49:34.922Z</time></trkpt><trkpt lat="44.2676127" lon="11.4705146"><ele>288.0</ele><time>2026-04-04T07:49:35.922Z</time></trkpt><trkpt lat="44.2674882" lon="11.470706"><ele>288.0</ele><time>2026-04-04T07:49:36.921Z</time></trkpt><trkpt lat="44.2673557" lon="11.470904"><ele>288.0</ele><time>2026-04-04T07:49:37.921Z</time></trkpt><trkpt lat="44.2672154" lon="11.4711165"><ele>291.6666666666667</ele><time>2026-04-04T07:49:38.921Z</time></trkpt><trkpt lat="44.2670759" lon="11.4713202"><ele>295.33333333333337</ele><time>2026-04-04T07:49:39.921Z</time></trkpt><trkpt lat="44.2669414" lon="11.4715167"><ele>299.0</ele><time>2026-04-04T07:49:40.92Z</time></trkpt><trkpt lat="44.2668134" lon="11.471695"><ele>299.0</ele><time>2026-04-04T07:49:41.921Z</time></trkpt><trkpt lat="44.266681" lon="11.4718473"><ele>299.0</ele><time>2026-04-04T07:49:42.921Z</time></trkpt><trkpt lat="44.2665298" lon="11.4719689"><ele>299.0</ele><time>2026-04-04T07:49:43.921Z</time></trkpt><trkpt lat="44.2663636" lon="11.4720662"><ele>302.0</ele><time>2026-04-04T07:49:44.922Z</time></trkpt><trkpt lat="44.26619" lon="11.4721493"><ele>305.0</ele><time>2026-04-04T07:49:45.92Z</time></trkpt><trkpt lat="44.2660177" lon="11.4722303"><ele>308.0</ele><time>2026-04-04T07:49:46.921Z</time></trkpt><trkpt lat="44.2658502" lon="11.4723147"><ele>308.0</ele><time>2026-04-04T07:49:47.921Z</time></trkpt><trkpt lat="44.2656906" lon="11.4723954"><ele>308.0</ele><time>2026-04-04T07:49:48.921Z</time></trkpt><trkpt lat="44.2655316" lon="11.4724901"><ele>308.0</ele><time>2026-04-04T07:49:49.921Z</time></trkpt><trkpt lat="44.2653786" lon="11.4726015"><ele>309.0</ele><time>2026-04-04T07:49:50.92Z</time></trkpt><trkpt lat="44.2652332" lon="11.4727295"><ele>310.0</ele><time>2026-04-04T07:49:51.922Z</time></trkpt><trkpt lat="44.2650975" lon="11.4728623"><ele>311.0</ele><time>2026-04-04T07:49:52.921Z</time></trkpt><trkpt lat="44.2649789" lon="11.4729958"><ele>311.0</ele><time>2026-04-04T07:49:53.922Z</time></trkpt><trkpt lat="44.2648845" lon="11.4731392"><ele>311.0</ele><time>2026-04-04T07:49:54.921Z</time></trkpt><trkpt lat="44.264823" lon="11.4733047"><ele>311.0</ele><time>2026-04-04T07:49:55.92Z</time></trkpt><trkpt lat="44.2647934" lon="11.4734823"><ele>311.0</ele><time>2026-04-04T07:49:56.921Z</time></trkpt><trkpt lat="44.2648065" lon="11.4736608"><ele>311.33333333333337</ele><time>2026-04-04T07:49:57.922Z</time></trkpt><trkpt lat="44.2648589" lon="11.4738471"><ele>311.6666666666667</ele><time>2026-04-04T07:49:58.922Z</time></trkpt><trkpt lat="44.2649364" lon="11.4740446"><ele>312.0</ele><time>2026-04-04T07:49:59.92Z</time></trkpt><trkpt lat="44.2650222" lon="11.47425"><ele>312.0</ele><time>2026-04-04T07:50:00.921Z</time></trkpt><trkpt lat="44.2651231" lon="11.474451"><ele>312.0</ele><time>2026-04-04T07:50:01.921Z</time></trkpt><trkpt lat="44.2652276" lon="11.4746179"><ele>312.0</ele><time>2026-04-04T07:50:02.921Z</time></trkpt><trkpt lat="44.2653294" lon="11.4747666"><ele>310.5</ele><time>2026-04-04T07:50:03.921Z</time></trkpt><trkpt lat="44.265415" lon="11.4749084"><ele>309.0</ele><time>2026-04-04T07:50:04.921Z</time></trkpt><trkpt lat="44.265468" lon="11.4750577"><ele>307.5</ele><time>2026-04-04T07:50:05.921Z</time></trkpt><trkpt lat="44.2654845" lon="11.4752257"><ele>306.0</ele><time>2026-04-04T07:50:06.92Z</time></trkpt><trkpt lat="44.2654596" lon="11.4754067"><ele>308.0</ele><time>2026-04-04T07:50:07.921Z</time></trkpt><trkpt lat="44.2653965" lon="11.4755893"><ele>310.0</ele><time>2026-04-04T07:50:08.921Z</time></trkpt><trkpt lat="44.2653086" lon="11.4757702"><ele>312.0</ele><time>2026-04-04T07:50:09.921Z</time></trkpt><trkpt lat="44.2652257" lon="11.4759516"><ele>312.0</ele><time>2026-04-04T07:50:10.922Z</time></trkpt><trkpt lat="44.2651474" lon="11.4761228"><ele>312.0</ele><time>2026-04-04T07:50:11.922Z</time></trkpt><trkpt lat="44.2650732" lon="11.4762758"><ele>312.0</ele><time>2026-04-04T07:50:12.921Z</time></trkpt><trkpt lat="44.2649961" lon="11.4763963"><ele>312.0</ele><time>2026-04-04T07:50:13.922Z</time></trkpt><trkpt lat="44.2648925" lon="11.4764852"><ele>317.75</ele><time>2026-04-04T07:50:14.922Z</time></trkpt><trkpt lat="44.2647761" lon="11.4765206"><ele>323.5</ele><time>2026-04-04T07:50:15.922Z</time></trkpt><trkpt lat="44.2646602" lon="11.4764891"><ele>329.25</ele><time>2026-04-04T07:50:16.921Z</time></trkpt><trkpt lat="44.2645462" lon="11.4764262"><ele>335.0</ele><time>2026-04-04T07:50:17.922Z</time></trkpt><trkpt lat="44.2644394" lon="11.4763485"><ele>332.0</ele><time>2026-04-04T07:50:18.921Z</time></trkpt><trkpt lat="44.2643674" lon="11.4762472"><ele>329.0</ele><time>2026-04-04T07:50:19.922Z</time></trkpt><trkpt lat="44.2643074" lon="11.4761067"><ele>326.0</ele><time>2026-04-04T07:50:20.921Z</time></trkpt><trkpt lat="44.2642423" lon="11.4759506"><ele>323.0</ele><time>2026-04-04T07:50:21.922Z</time></trkpt><trkpt lat="44.2641634" lon="11.475797"><ele>323.0</ele><time>2026-04-04T07:50:22.922Z</time></trkpt><trkpt lat="44.2640661" lon="11.4756497"><ele>323.0</ele><time>2026-04-04T07:50:23.922Z</time></trkpt><trkpt lat="44.2639576" lon="11.4755096"><ele>323.0</ele><time>2026-04-04T07:50:24.921Z</time></trkpt><trkpt lat="44.2638491" lon="11.475372"><ele>323.0</ele><time>2026-04-04T07:50:25.921Z</time></trkpt><trkpt lat="44.2637323" lon="11.4752466"><ele>326.0</ele><time>2026-04-04T07:50:26.922Z</time></trkpt><trkpt lat="44.2635996" lon="11.4751392"><ele>329.0</ele><time>2026-04-04T07:50:27.921Z</time></trkpt><trkpt lat="44.2634551" lon="11.4750443"><ele>332.0</ele><time>2026-04-04T07:50:28.92Z</time></trkpt><trkpt lat="44.2633102" lon="11.474966"><ele>332.0</ele><time>2026-04-04T07:50:29.919Z</time></trkpt><trkpt lat="44.263166" lon="11.4749051"><ele>332.0</ele><time>2026-04-04T07:50:30.92Z</time></trkpt><trkpt lat="44.2630137" lon="11.4748762"><ele>332.0</ele><time>2026-04-04T07:50:31.921Z</time></trkpt><trkpt lat="44.2628556" lon="11.4748632"><ele>333.75</ele><time>2026-04-04T07:50:32.921Z</time></trkpt><trkpt lat="44.2626979" lon="11.4748579"><ele>335.5</ele><time>2026-04-04T07:50:33.921Z</time></trkpt><trkpt lat="44.2625638" lon="11.4748481"><ele>337.25</ele><time>2026-04-04T07:50:34.921Z</time></trkpt><trkpt lat="44.2624382" lon="11.4748177"><ele>339.0</ele><time>2026-04-04T07:50:35.92Z</time></trkpt><trkpt lat="44.2623337" lon="11.4747607"><ele>340.0</ele><time>2026-04-04T07:50:36.92Z</time></trkpt><trkpt lat="44.262223" lon="11.4747028"><ele>341.0</ele><time>2026-04-04T07:50:37.921Z</time></trkpt><trkpt lat="44.2621273" lon="11.4746079"><ele>342.0</ele><time>2026-04-04T07:50:38.919Z</time></trkpt><trkpt lat="44.2620155" lon="11.4745107"><ele>343.0</ele><time>2026-04-04T07:50:39.92Z</time></trkpt><trkpt lat="44.2618844" lon="11.4744865"><ele>343.0</ele><time>2026-04-04T07:50:40.921Z</time></trkpt><trkpt lat="44.2617621" lon="11.4744711"><ele>343.0</ele><time>2026-04-04T07:50:41.919Z</time></trkpt><trkpt lat="44.2616431" lon="11.4745221"><ele>343.0</ele><time>2026-04-04T07:50:42.92Z</time></trkpt><trkpt lat="44.2615274" lon="11.4746477"><ele>343.0</ele><time>2026-04-04T07:50:43.919Z</time></trkpt><trkpt lat="44.2614257" lon="11.4747835"><ele>342.25</ele><time>2026-04-04T07:50:44.92Z</time></trkpt><trkpt lat="44.2613363" lon="11.4749232"><ele>341.5</ele><time>2026-04-04T07:50:45.921Z</time></trkpt><trkpt lat="44.2612469" lon="11.4750387"><ele>340.75</ele><time>2026-04-04T07:50:46.92Z</time></trkpt><trkpt lat="44.2611196" lon="11.4751011"><ele>340.0</ele><time>2026-04-04T07:50:47.92Z</time></trkpt><trkpt lat="44.2609898" lon="11.4751411"><ele>340.0</ele><time>2026-04-04T07:50:48.921Z</time></trkpt><trkpt lat="44.2608415" lon="11.4751368"><ele>340.0</ele><time>2026-04-04T07:50:49.92Z</time></trkpt><trkpt lat="44.26068" lon="11.4751037"><ele>340.0</ele><time>2026-04-04T07:50:50.921Z</time></trkpt><trkpt lat="44.2604997" lon="11.4750696"><ele>341.0</ele><time>2026-04-04T07:50:51.921Z</time></trkpt><trkpt lat="44.2603343" lon="11.4750478"><ele>342.0</ele><time>2026-04-04T07:50:52.92Z</time></trkpt><trkpt lat="44.2601697" lon="11.4750418"><ele>343.0</ele><time>2026-04-04T07:50:53.919Z</time></trkpt><trkpt lat="44.2599986" lon="11.4750772"><ele>343.0</ele><time>2026-04-04T07:50:54.919Z</time></trkpt><trkpt lat="44.2598271" lon="11.475122"><ele>343.0</ele><time>2026-04-04T07:50:55.92Z</time></trkpt><trkpt lat="44.2596502" lon="11.4751334"><ele>343.0</ele><time>2026-04-04T07:50:56.919Z</time></trkpt><trkpt lat="44.2594714" lon="11.4751102"><ele>344.66666666666663</ele><time>2026-04-04T07:50:57.919Z</time></trkpt><trkpt lat="44.259298" lon="11.4750511"><ele>346.3333333333333</ele><time>2026-04-04T07:50:58.919Z</time></trkpt><trkpt lat="44.2591448" lon="11.4749922"><ele>348.0</ele><time>2026-04-04T07:50:59.92Z</time></trkpt><trkpt lat="44.2589991" lon="11.4749518"><ele>348.79999999999995</ele><time>2026-04-04T07:51:00.92Z</time></trkpt><trkpt lat="44.2588674" lon="11.4749532"><ele>349.6</ele><time>2026-04-04T07:51:01.92Z</time></trkpt><trkpt lat="44.258757" lon="11.4750027"><ele>350.4</ele><time>2026-04-04T07:51:02.919Z</time></trkpt><trkpt lat="44.2586803" lon="11.4750914"><ele>351.20000000000005</ele><time>2026-04-04T07:51:03.92Z</time></trkpt><trkpt lat="44.2586429" lon="11.475216"><ele>352.0</ele><time>2026-04-04T07:51:04.92Z</time></trkpt><trkpt lat="44.2586498" lon="11.4753525"><ele>353.6</ele><time>2026-04-04T07:51:05.92Z</time></trkpt><trkpt lat="44.2586969" lon="11.4754802"><ele>355.20000000000005</ele><time>2026-04-04T07:51:06.921Z</time></trkpt><trkpt lat="44.2587739" lon="11.4755773"><ele>356.8</ele><time>2026-04-04T07:51:07.919Z</time></trkpt><trkpt lat="44.2588772" lon="11.4756372"><ele>358.4</ele><time>2026-04-04T07:51:08.921Z</time></trkpt><trkpt lat="44.2590043" lon="11.4756597"><ele>360.0</ele><time>2026-04-04T07:51:09.921Z</time></trkpt><trkpt lat="44.2591456" lon="11.4756599"><ele>360.0</ele><time>2026-04-04T07:51:10.92Z</time></trkpt><trkpt lat="44.259289" lon="11.4756794"><ele>360.0</ele><time>2026-04-04T07:51:11.921Z</time></trkpt><trkpt lat="44.2594329" lon="11.4757377"><ele>360.0</ele><time>2026-04-04T07:51:12.921Z</time></trkpt><trkpt lat="44.2595718" lon="11.475826"><ele>360.0</ele><time>2026-04-04T07:51:13.921Z</time></trkpt><trkpt lat="44.2597033" lon="11.475948"><ele>358.3333333333333</ele><time>2026-04-04T07:51:14.92Z</time></trkpt><trkpt lat="44.2598227" lon="11.4761055"><ele>356.66666666666663</ele><time>2026-04-04T07:51:15.92Z</time></trkpt><trkpt lat="44.2599355" lon="11.4762909"><ele>355.0</ele><time>2026-04-04T07:51:16.92Z</time></trkpt><trkpt lat="44.2600357" lon="11.4764669"><ele>358.3333333333333</ele><time>2026-04-04T07:51:17.92Z</time></trkpt><trkpt lat="44.260141" lon="11.4766274"><ele>361.6666666666667</ele><time>2026-04-04T07:51:18.921Z</time></trkpt><trkpt lat="44.2602668" lon="11.4767676"><ele>365.0</ele><time>2026-04-04T07:51:19.92Z</time></trkpt><trkpt lat="44.2604128" lon="11.476887"><ele>365.0</ele><time>2026-04-04T07:51:20.92Z</time></trkpt><trkpt lat="44.2605722" lon="11.4769877"><ele>365.0</ele><time>2026-04-04T07:51:21.921Z</time></trkpt><trkpt lat="44.2607423" lon="11.477078"><ele>365.0</ele><time>2026-04-04T07:51:22.921Z</time></trkpt><trkpt lat="44.2609052" lon="11.477157"><ele>369.33333333333337</ele><time>2026-04-04T07:51:23.92Z</time></trkpt><trkpt lat="44.2610516" lon="11.4772477"><ele>373.6666666666667</ele><time>2026-04-04T07:51:24.919Z</time></trkpt><trkpt lat="44.2611864" lon="11.4773621"><ele>378.0</ele><time>2026-04-04T07:51:25.92Z</time></trkpt><trkpt lat="44.2613151" lon="11.4774883"><ele>378.0</ele><time>2026-04-04T07:51:26.921Z</time></trkpt><trkpt lat="44.2614275" lon="11.4775993"><ele>378.0</ele><time>2026-04-04T07:51:27.921Z</time></trkpt><trkpt lat="44.2615424" lon="11.4776869"><ele>378.0</ele><time>2026-04-04T07:51:28.921Z</time></trkpt><trkpt lat="44.2616655" lon="11.4777279"><ele>378.0</ele><time>2026-04-04T07:51:29.92Z</time></trkpt><trkpt lat="44.2617937" lon="11.4777132"><ele>378.5</ele><time>2026-04-04T07:51:30.92Z</time></trkpt><trkpt lat="44.2619259" lon="11.4776547"><ele>379.0</ele><time>2026-04-04T07:51:31.919Z</time></trkpt><trkpt lat="44.262054" lon="11.4775949"><ele>379.5</ele><time>2026-04-04T07:51:32.919Z</time></trkpt><trkpt lat="44.2621763" lon="11.4775684"><ele>380.0</ele><time>2026-04-04T07:51:33.92Z</time></trkpt><trkpt lat="44.2622983" lon="11.4775471"><ele>381.25</ele><time>2026-04-04T07:51:34.92Z</time></trkpt><trkpt lat="44.262436" lon="11.4776363"><ele>382.5</ele><time>2026-04-04T07:51:35.92Z</time></trkpt><trkpt lat="44.2625332" lon="11.4777177"><ele>383.75</ele><time>2026-04-04T07:51:36.92Z</time></trkpt><trkpt lat="44.2626408" lon="11.4778123"><ele>385.0</ele><time>2026-04-04T07:51:37.919Z</time></trkpt><trkpt lat="44.2626422" lon="11.4779416"><ele>385.0</ele><time>2026-04-04T07:51:38.92Z</time></trkpt><trkpt lat="44.2626525" lon="11.4780784"><ele>385.0</ele><time>2026-04-04T07:51:39.92Z</time></trkpt><trkpt lat="44.2626282" lon="11.4782374"><ele>385.0</ele><time>2026-04-04T07:51:40.92Z</time></trkpt><trkpt lat="44.2625904" lon="11.4784145"><ele>385.0</ele><time>2026-04-04T07:51:41.92Z</time></trkpt><trkpt lat="44.2625455" lon="11.4786167"><ele>386.6666666666667</ele><time>2026-04-04T07:51:42.921Z</time></trkpt><trkpt lat="44.2624897" lon="11.4788322"><ele>388.33333333333337</ele><time>2026-04-04T07:51:43.92Z</time></trkpt><trkpt lat="44.2624278" lon="11.4790544"><ele>390.0</ele><time>2026-04-04T07:51:44.92Z</time></trkpt><trkpt lat="44.2623664" lon="11.479276"><ele>390.0</ele><time>2026-04-04T07:51:45.92Z</time></trkpt><trkpt lat="44.2623135" lon="11.4794786"><ele>390.0</ele><time>2026-04-04T07:51:46.921Z</time></trkpt><trkpt lat="44.2622868" lon="11.479674"><ele>390.0</ele><time>2026-04-04T07:51:47.921Z</time></trkpt><trkpt lat="44.2622727" lon="11.479865"><ele>390.0</ele><time>2026-04-04T07:51:48.92Z</time></trkpt><trkpt lat="44.2622675" lon="11.4800603"><ele>389.75</ele><time>2026-04-04T07:51:49.92Z</time></trkpt><trkpt lat="44.262276" lon="11.48025"><ele>389.5</ele><time>2026-04-04T07:51:50.921Z</time></trkpt><trkpt lat="44.2622923" lon="11.4804136"><ele>389.25</ele><time>2026-04-04T07:51:51.921Z</time></trkpt><trkpt lat="44.2623176" lon="11.480563"><ele>389.0</ele><time>2026-04-04T07:51:52.919Z</time></trkpt><trkpt lat="44.2623582" lon="11.4806962"><ele>392.25</ele><time>2026-04-04T07:51:53.921Z</time></trkpt><trkpt lat="44.262411" lon="11.4808281"><ele>395.5</ele><time>2026-04-04T07:51:54.921Z</time></trkpt><trkpt lat="44.2624819" lon="11.4809551"><ele>398.75</ele><time>2026-04-04T07:51:55.919Z</time></trkpt><trkpt lat="44.2625702" lon="11.4810735"><ele>402.0</ele><time>2026-04-04T07:51:56.921Z</time></trkpt><trkpt lat="44.262674" lon="11.4811719"><ele>404.25</ele><time>2026-04-04T07:51:57.92Z</time></trkpt><trkpt lat="44.2627774" lon="11.4812743"><ele>406.5</ele><time>2026-04-04T07:51:58.92Z</time></trkpt><trkpt lat="44.2628931" lon="11.4813981"><ele>408.75</ele><time>2026-04-04T07:51:59.92Z</time></trkpt><trkpt lat="44.2629885" lon="11.4815038"><ele>411.0</ele><time>2026-04-04T07:52:00.919Z</time></trkpt><trkpt lat="44.263063" lon="11.4816292"><ele>411.0</ele><time>2026-04-04T07:52:01.921Z</time></trkpt><trkpt lat="44.2630174" lon="11.4818026"><ele>411.0</ele><time>2026-04-04T07:52:02.921Z</time></trkpt><trkpt lat="44.2630677" lon="11.4819323"><ele>411.0</ele><time>2026-04-04T07:52:03.92Z</time></trkpt><trkpt lat="44.2631378" lon="11.4820546"><ele>411.0</ele><time>2026-04-04T07:52:04.92Z</time></trkpt><trkpt lat="44.2632265" lon="11.4821743"><ele>409.0</ele><time>2026-04-04T07:52:05.919Z</time></trkpt><trkpt lat="44.2633153" lon="11.4823042"><ele>407.0</ele><time>2026-04-04T07:52:06.92Z</time></trkpt><trkpt lat="44.2633957" lon="11.4824358"><ele>405.0</ele><time>2026-04-04T07:52:07.92Z</time></trkpt><trkpt lat="44.2634743" lon="11.4825677"><ele>403.0</ele><time>2026-04-04T07:52:08.92Z</time></trkpt><trkpt lat="44.2635355" lon="11.4827082"><ele>403.0</ele><time>2026-04-04T07:52:09.92Z</time></trkpt><trkpt lat="44.2635887" lon="11.4828678"><ele>403.0</ele><time>2026-04-04T07:52:10.92Z</time></trkpt><trkpt lat="44.263632" lon="11.4830272"><ele>403.0</ele><time>2026-04-04T07:52:11.919Z</time></trkpt><trkpt lat="44.2636628" lon="11.4831679"><ele>403.0</ele><time>2026-04-04T07:52:12.92Z</time></trkpt><trkpt lat="44.2636941" lon="11.4833092"><ele>405.79999999999995</ele><time>2026-04-04T07:52:13.92Z</time></trkpt><trkpt lat="44.2637296" lon="11.4834493"><ele>408.6</ele><time>2026-04-04T07:52:14.92Z</time></trkpt><trkpt lat="44.2637641" lon="11.4835839"><ele>411.4</ele><time>2026-04-04T07:52:15.92Z</time></trkpt><trkpt lat="44.2637982" lon="11.4837182"><ele>414.20000000000005</ele><time>2026-04-04T07:52:16.921Z</time></trkpt><trkpt lat="44.2638326" lon="11.4838493"><ele>417.0</ele><time>2026-04-04T07:52:17.92Z</time></trkpt><trkpt lat="44.2638639" lon="11.48398"><ele>418.40000000000003</ele><time>2026-04-04T07:52:18.92Z</time></trkpt><trkpt lat="44.2638912" lon="11.4841105"><ele>419.8</ele><time>2026-04-04T07:52:19.92Z</time></trkpt><trkpt lat="44.2639162" lon="11.4842424"><ele>421.2</ele><time>2026-04-04T07:52:20.921Z</time></trkpt><trkpt lat="44.2639397" lon="11.4843815"><ele>422.6</ele><time>2026-04-04T07:52:21.921Z</time></trkpt><trkpt lat="44.2639585" lon="11.4845223"><ele>424.0</ele><time>2026-04-04T07:52:22.921Z</time></trkpt><trkpt lat="44.2639746" lon="11.4846607"><ele>420.79999999999995</ele><time>2026-04-04T07:52:23.921Z</time></trkpt><trkpt lat="44.2639944" lon="11.4848033"><ele>417.59999999999997</ele><time>2026-04-04T07:52:24.921Z</time></trkpt><trkpt lat="44.2640199" lon="11.4849493"><ele>414.4</ele><time>2026-04-04T07:52:25.92Z</time></trkpt><trkpt lat="44.2640421" lon="11.4850823"><ele>411.2</ele><time>2026-04-04T07:52:26.92Z</time></trkpt><trkpt lat="44.2640679" lon="11.4852135"><ele>408.0</ele><time>2026-04-04T07:52:27.92Z</time></trkpt><trkpt lat="44.2640917" lon="11.4853468"><ele>409.0</ele><time>2026-04-04T07:52:28.921Z</time></trkpt><trkpt lat="44.2641162" lon="11.4854771"><ele>410.0</ele><time>2026-04-04T07:52:29.92Z</time></trkpt><trkpt lat="44.2641432" lon="11.4856008"><ele>411.0</ele><time>2026-04-04T07:52:30.921Z</time></trkpt><trkpt lat="44.2641659" lon="11.4857139"><ele>412.0</ele><time>2026-04-04T07:52:31.919Z</time></trkpt><trkpt lat="44.2641805" lon="11.4858075"><ele>413.0</ele><time>2026-04-04T07:52:32.921Z</time></trkpt><trkpt lat="44.2641744" lon="11.4858957"><ele>414.0</ele><time>2026-04-04T07:52:33.921Z</time></trkpt><trkpt lat="44.2640996" lon="11.4860254"><ele>414.0</ele><time>2026-04-04T07:52:35.92Z</time></trkpt><trkpt lat="44.2640308" lon="11.4860467"><ele>414.0</ele><time>2026-04-04T07:52:36.921Z</time></trkpt><trkpt lat="44.2639654" lon="11.4860276"><ele>414.0</ele><time>2026-04-04T07:52:37.921Z</time></trkpt><trkpt lat="44.2639143" lon="11.4859725"><ele>414.0</ele><time>2026-04-04T07:52:38.92Z</time></trkpt><trkpt lat="44.2638761" lon="11.4858819"><ele>414.0</ele><time>2026-04-04T07:52:39.921Z</time></trkpt><trkpt lat="44.2638499" lon="11.4857621"><ele>414.0</ele><time>2026-04-04T07:52:40.919Z</time></trkpt><trkpt lat="44.2638243" lon="11.4856056"><ele>420.0</ele><time>2026-04-04T07:52:41.92Z</time></trkpt><trkpt lat="44.2638007" lon="11.4854023"><ele>426.0</ele><time>2026-04-04T07:52:42.919Z</time></trkpt><trkpt lat="44.2637864" lon="11.4851783"><ele>432.0</ele><time>2026-04-04T07:52:43.921Z</time></trkpt><trkpt lat="44.2637499" lon="11.4849269"><ele>432.0</ele><time>2026-04-04T07:52:44.919Z</time></trkpt><trkpt lat="44.2636962" lon="11.4847178"><ele>432.0</ele><time>2026-04-04T07:52:45.92Z</time></trkpt><trkpt lat="44.2636386" lon="11.4845356"><ele>432.0</ele><time>2026-04-04T07:52:46.921Z</time></trkpt><trkpt lat="44.263566" lon="11.4843873"><ele>432.0</ele><time>2026-04-04T07:52:47.921Z</time></trkpt><trkpt lat="44.2634741" lon="11.4842598"><ele>432.25</ele><time>2026-04-04T07:52:48.92Z</time></trkpt><trkpt lat="44.2633733" lon="11.4841668"><ele>432.5</ele><time>2026-04-04T07:52:49.92Z</time></trkpt><trkpt lat="44.2632588" lon="11.4840929"><ele>432.75</ele><time>2026-04-04T07:52:50.921Z</time></trkpt><trkpt lat="44.2631388" lon="11.4840518"><ele>433.0</ele><time>2026-04-04T07:52:51.92Z</time></trkpt><trkpt lat="44.2630149" lon="11.4840324"><ele>433.0</ele><time>2026-04-04T07:52:52.921Z</time></trkpt><trkpt lat="44.2628874" lon="11.4840162"><ele>433.0</ele><time>2026-04-04T07:52:53.92Z</time></trkpt><trkpt lat="44.2627551" lon="11.4839987"><ele>433.0</ele><time>2026-04-04T07:52:54.921Z</time></trkpt><trkpt lat="44.2626235" lon="11.4839639"><ele>433.0</ele><time>2026-04-04T07:52:55.92Z</time></trkpt><trkpt lat="44.2624919" lon="11.4839123"><ele>433.0</ele><time>2026-04-04T07:52:56.921Z</time></trkpt><trkpt lat="44.2623629" lon="11.4838487"><ele>433.0</ele><time>2026-04-04T07:52:57.919Z</time></trkpt><trkpt lat="44.2622413" lon="11.4837753"><ele>433.0</ele><time>2026-04-04T07:52:58.921Z</time></trkpt><trkpt lat="44.262122" lon="11.4837028"><ele>433.0</ele><time>2026-04-04T07:52:59.921Z</time></trkpt><trkpt lat="44.2620006" lon="11.4836284"><ele>432.75</ele><time>2026-04-04T07:53:00.921Z</time></trkpt><trkpt lat="44.2618764" lon="11.4835491"><ele>432.5</ele><time>2026-04-04T07:53:01.921Z</time></trkpt><trkpt lat="44.2617525" lon="11.4834669"><ele>432.25</ele><time>2026-04-04T07:53:02.92Z</time></trkpt><trkpt lat="44.261628" lon="11.483387"><ele>432.0</ele><time>2026-04-04T07:53:03.921Z</time></trkpt><trkpt lat="44.2615149" lon="11.4833145"><ele>433.0</ele><time>2026-04-04T07:53:04.921Z</time></trkpt><trkpt lat="44.2614443" lon="11.4832503"><ele>434.0</ele><time>2026-04-04T07:53:05.921Z</time></trkpt><trkpt lat="44.2613805" lon="11.4831604"><ele>435.0</ele><time>2026-04-04T07:53:07.921Z</time></trkpt><trkpt lat="44.2612898" lon="11.4831463"><ele>436.0</ele><time>2026-04-04T07:55:39.92Z</time></trkpt><trkpt lat="44.2612285" lon="11.4831185"><ele>437.0</ele><time>2026-04-04T07:55:40.92Z</time></trkpt><trkpt lat="44.2611511" lon="11.4830822"><ele>438.0</ele><time>2026-04-04T07:55:41.92Z</time></trkpt><trkpt lat="44.2610732" lon="11.4830387"><ele>438.0</ele><time>2026-04-04T07:55:42.921Z</time></trkpt><trkpt lat="44.2610164" lon="11.4830001"><ele>437.99999999999994</ele><time>2026-04-04T07:55:43.92Z</time></trkpt><trkpt lat="44.2609277" lon="11.4829357"><ele>437.99999999999994</ele><time>2026-04-04T07:55:45.919Z</time></trkpt><trkpt lat="44.2608508" lon="11.4828855"><ele>438.0</ele><time>2026-04-04T07:55:47.919Z</time></trkpt><trkpt lat="44.2607303" lon="11.4827924"><ele>438.0</ele><time>2026-04-04T07:55:49.918Z</time></trkpt><trkpt lat="44.2606702" lon="11.4827571"><ele>438.4</ele><time>2026-04-04T07:55:50.92Z</time></trkpt><trkpt lat="44.2606077" lon="11.4827404"><ele>438.79999999999995</ele><time>2026-04-04T07:55:51.919Z</time></trkpt><trkpt lat="44.2605291" lon="11.4827684"><ele>439.2</ele><time>2026-04-04T07:55:52.919Z</time></trkpt><trkpt lat="44.2604432" lon="11.4828353"><ele>439.6</ele><time>2026-04-04T07:55:53.918Z</time></trkpt><trkpt lat="44.2603467" lon="11.4829584"><ele>440.0</ele><time>2026-04-04T07:55:54.919Z</time></trkpt><trkpt lat="44.2602628" lon="11.4830843"><ele>440.0</ele><time>2026-04-04T07:55:55.92Z</time></trkpt><trkpt lat="44.26018" lon="11.4831954"><ele>440.0</ele><time>2026-04-04T07:55:56.92Z</time></trkpt><trkpt lat="44.2600825" lon="11.4833062"><ele>440.0</ele><time>2026-04-04T07:55:57.92Z</time></trkpt><trkpt lat="44.2598754" lon="11.4833559"><ele>443.75</ele><time>2026-04-04T07:55:58.92Z</time></trkpt><trkpt lat="44.2597482" lon="11.4834591"><ele>447.5</ele><time>2026-04-04T07:55:59.92Z</time></trkpt><trkpt lat="44.2596306" lon="11.4835501"><ele>451.25</ele><time>2026-04-04T07:56:00.92Z</time></trkpt><trkpt lat="44.2595184" lon="11.4836271"><ele>455.0</ele><time>2026-04-04T07:56:01.92Z</time></trkpt><trkpt lat="44.259404" lon="11.4836915"><ele>455.0</ele><time>2026-04-04T07:56:02.92Z</time></trkpt><trkpt lat="44.2592884" lon="11.4837338"><ele>455.0</ele><time>2026-04-04T07:56:03.92Z</time></trkpt><trkpt lat="44.2591673" lon="11.4837516"><ele>455.0</ele><time>2026-04-04T07:56:04.919Z</time></trkpt><trkpt lat="44.2590499" lon="11.4837386"><ele>455.0</ele><time>2026-04-04T07:56:05.918Z</time></trkpt><trkpt lat="44.2589252" lon="11.4837092"><ele>457.5</ele><time>2026-04-04T07:56:06.92Z</time></trkpt><trkpt lat="44.2587885" lon="11.483681"><ele>460.0</ele><time>2026-04-04T07:56:07.92Z</time></trkpt><trkpt lat="44.2586494" lon="11.483655"><ele>462.5</ele><time>2026-04-04T07:56:08.918Z</time></trkpt><trkpt lat="44.2585057" lon="11.4836562"><ele>465.0</ele><time>2026-04-04T07:56:09.919Z</time></trkpt><trkpt lat="44.2583554" lon="11.4836849"><ele>465.0</ele><time>2026-04-04T07:56:10.92Z</time></trkpt><trkpt lat="44.2582209" lon="11.4837229"><ele>465.0</ele><time>2026-04-04T07:56:11.92Z</time></trkpt><trkpt lat="44.2581042" lon="11.4837557"><ele>465.0</ele><time>2026-04-04T07:56:12.92Z</time></trkpt><trkpt lat="44.2579873" lon="11.4837525"><ele>465.0</ele><time>2026-04-04T07:56:13.92Z</time></trkpt><trkpt lat="44.2578672" lon="11.4837093"><ele>463.75</ele><time>2026-04-04T07:56:14.92Z</time></trkpt><trkpt lat="44.2577411" lon="11.4836586"><ele>462.5</ele><time>2026-04-04T07:56:15.918Z</time></trkpt><trkpt lat="44.2576179" lon="11.4835456"><ele>461.25</ele><time>2026-04-04T07:56:16.919Z</time></trkpt><trkpt lat="44.2574823" lon="11.4834299"><ele>460.0</ele><time>2026-04-04T07:56:17.919Z</time></trkpt><trkpt lat="44.2573484" lon="11.4832929"><ele>460.0</ele><time>2026-04-04T07:56:18.919Z</time></trkpt><trkpt lat="44.257218" lon="11.4831553"><ele>460.0</ele><time>2026-04-04T07:56:19.92Z</time></trkpt><trkpt lat="44.2571002" lon="11.4830286"><ele>460.0</ele><time>2026-04-04T07:56:20.92Z</time></trkpt><trkpt lat="44.2569821" lon="11.4829208"><ele>459.6666666666667</ele><time>2026-04-04T07:56:21.92Z</time></trkpt><trkpt lat="44.2568527" lon="11.4828305"><ele>459.33333333333337</ele><time>2026-04-04T07:56:22.919Z</time></trkpt><trkpt lat="44.2567096" lon="11.4827513"><ele>459.0</ele><time>2026-04-04T07:56:23.919Z</time></trkpt><trkpt lat="44.2565612" lon="11.4826696"><ele>461.33333333333337</ele><time>2026-04-04T07:56:24.919Z</time></trkpt><trkpt lat="44.2564045" lon="11.4825845"><ele>463.6666666666667</ele><time>2026-04-04T07:56:25.92Z</time></trkpt><trkpt lat="44.2562444" lon="11.4825016"><ele>466.0</ele><time>2026-04-04T07:56:26.92Z</time></trkpt><trkpt lat="44.2560891" lon="11.4824202"><ele>466.0</ele><time>2026-04-04T07:56:27.919Z</time></trkpt><trkpt lat="44.2559465" lon="11.4823459"><ele>466.0</ele><time>2026-04-04T07:56:28.92Z</time></trkpt><trkpt lat="44.2558167" lon="11.4822842"><ele>466.0</ele><time>2026-04-04T07:56:29.92Z</time></trkpt><trkpt lat="44.2557038" lon="11.4822562"><ele>466.0</ele><time>2026-04-04T07:56:30.92Z</time></trkpt><trkpt lat="44.2555986" lon="11.4822704"><ele>465.75</ele><time>2026-04-04T07:56:31.92Z</time></trkpt><trkpt lat="44.2554875" lon="11.4823177"><ele>465.5</ele><time>2026-04-04T07:56:32.919Z</time></trkpt><trkpt lat="44.2553668" lon="11.4823862"><ele>465.25</ele><time>2026-04-04T07:56:33.92Z</time></trkpt><trkpt lat="44.2552346" lon="11.4824608"><ele>465.0</ele><time>2026-04-04T07:56:34.919Z</time></trkpt><trkpt lat="44.255082" lon="11.4825394"><ele>465.0</ele><time>2026-04-04T07:56:35.92Z</time></trkpt><trkpt lat="44.2549131" lon="11.4826132"><ele>465.0</ele><time>2026-04-04T07:56:36.92Z</time></trkpt><trkpt lat="44.2547273" lon="11.4826697"><ele>465.0</ele><time>2026-04-04T07:56:37.919Z</time></trkpt><trkpt lat="44.2545281" lon="11.4826941"><ele>463.33333333333337</ele><time>2026-04-04T07:56:38.918Z</time></trkpt><trkpt lat="44.2543149" lon="11.4827176"><ele>461.6666666666667</ele><time>2026-04-04T07:56:39.92Z</time></trkpt><trkpt lat="44.2540961" lon="11.4827346"><ele>460.0</ele><time>2026-04-04T07:56:40.92Z</time></trkpt><trkpt lat="44.253886" lon="11.4827343"><ele>460.0</ele><time>2026-04-04T07:56:41.919Z</time></trkpt><trkpt lat="44.253691" lon="11.4827261"><ele>460.0</ele><time>2026-04-04T07:56:42.92Z</time></trkpt><trkpt lat="44.2535075" lon="11.4827016"><ele>460.0</ele><time>2026-04-04T07:56:43.92Z</time></trkpt><trkpt lat="44.2533327" lon="11.4826419"><ele>460.0</ele><time>2026-04-04T07:56:44.92Z</time></trkpt><trkpt lat="44.2531607" lon="11.4825339"><ele>460.0</ele><time>2026-04-04T07:56:45.92Z</time></trkpt><trkpt lat="44.2529952" lon="11.4824106"><ele>460.0</ele><time>2026-04-04T07:56:46.92Z</time></trkpt><trkpt lat="44.252835" lon="11.4823007"><ele>460.0</ele><time>2026-04-04T07:56:47.919Z</time></trkpt><trkpt lat="44.2526852" lon="11.4822077"><ele>460.0</ele><time>2026-04-04T07:56:48.92Z</time></trkpt><trkpt lat="44.2525706" lon="11.4821348"><ele>460.0</ele><time>2026-04-04T07:56:49.92Z</time></trkpt><trkpt lat="44.2524941" lon="11.4820805"><ele>460.0</ele><time>2026-04-04T07:56:50.92Z</time></trkpt><trkpt lat="44.2524074" lon="11.4820187"><ele>449.0</ele><time>2026-04-04T07:56:52.919Z</time></trkpt></trkseg><trkseg><trkpt lat="44.2522315" lon="11.4820478"><ele>449.0</ele><time>2026-04-04T08:13:06.917Z</time></trkpt><trkpt lat="44.2521204" lon="11.482068"><ele>449.0</ele><time>2026-04-04T08:13:07.917Z</time></trkpt><trkpt lat="44.2520063" lon="11.4820885"><ele>449.0</ele><time>2026-04-04T08:13:08.916Z</time></trkpt><trkpt lat="44.251879" lon="11.4821203"><ele>449.0</ele><time>2026-04-04T08:13:09.916Z</time></trkpt><trkpt lat="44.2517464" lon="11.4821506"><ele>449.5</ele><time>2026-04-04T08:13:10.917Z</time></trkpt><trkpt lat="44.2516015" lon="11.482183"><ele>450.0</ele><time>2026-04-04T08:13:11.916Z</time></trkpt><trkpt lat="44.251453" lon="11.4822163"><ele>450.5</ele><time>2026-04-04T08:13:12.916Z</time></trkpt><trkpt lat="44.2513147" lon="11.4822463"><ele>451.0</ele><time>2026-04-04T08:13:13.915Z</time></trkpt><trkpt lat="44.2511829" lon="11.4822742"><ele>451.0</ele><time>2026-04-04T08:13:14.916Z</time></trkpt><trkpt lat="44.2510579" lon="11.4822977"><ele>451.0</ele><time>2026-04-04T08:13:15.917Z</time></trkpt><trkpt lat="44.2509346" lon="11.4823129"><ele>451.0</ele><time>2026-04-04T08:13:16.917Z</time></trkpt><trkpt lat="44.2508068" lon="11.4823041"><ele>451.0</ele><time>2026-04-04T08:13:17.916Z</time></trkpt><trkpt lat="44.250675" lon="11.482262"><ele>452.0</ele><time>2026-04-04T08:13:18.915Z</time></trkpt><trkpt lat="44.2505398" lon="11.482182"><ele>453.0</ele><time>2026-04-04T08:13:19.916Z</time></trkpt><trkpt lat="44.2504019" lon="11.4820704"><ele>454.0</ele><time>2026-04-04T08:13:20.916Z</time></trkpt><trkpt lat="44.2502597" lon="11.4819598"><ele>454.0</ele><time>2026-04-04T08:13:21.915Z</time></trkpt><trkpt lat="44.2501153" lon="11.4818451"><ele>454.0</ele><time>2026-04-04T08:13:22.916Z</time></trkpt><trkpt lat="44.2499721" lon="11.4817468"><ele>454.0</ele><time>2026-04-04T08:13:23.915Z</time></trkpt><trkpt lat="44.249818" lon="11.481671"><ele>455.0</ele><time>2026-04-04T08:13:24.915Z</time></trkpt><trkpt lat="44.249657" lon="11.4816339"><ele>456.0</ele><time>2026-04-04T08:13:25.916Z</time></trkpt><trkpt lat="44.2494888" lon="11.4816392"><ele>457.0</ele><time>2026-04-04T08:13:26.915Z</time></trkpt><trkpt lat="44.249315" lon="11.4816594"><ele>457.0</ele><time>2026-04-04T08:13:27.915Z</time></trkpt><trkpt lat="44.2491373" lon="11.4816867"><ele>457.0</ele><time>2026-04-04T08:13:28.915Z</time></trkpt><trkpt lat="44.2489575" lon="11.4817201"><ele>457.0</ele><time>2026-04-04T08:13:29.915Z</time></trkpt><trkpt lat="44.2487755" lon="11.4817527"><ele>460.0</ele><time>2026-04-04T08:13:30.915Z</time></trkpt><trkpt lat="44.2485946" lon="11.481782"><ele>463.0</ele><time>2026-04-04T08:13:31.914Z</time></trkpt><trkpt lat="44.2484186" lon="11.4818013"><ele>466.0</ele><time>2026-04-04T08:13:32.915Z</time></trkpt><trkpt lat="44.2482487" lon="11.4818163"><ele>466.5</ele><time>2026-04-04T08:13:33.915Z</time></trkpt><trkpt lat="44.24809" lon="11.4818246"><ele>467.0</ele><time>2026-04-04T08:13:34.916Z</time></trkpt><trkpt lat="44.2479472" lon="11.4818173"><ele>467.5</ele><time>2026-04-04T08:13:35.916Z</time></trkpt><trkpt lat="44.2478125" lon="11.4817844"><ele>468.0</ele><time>2026-04-04T08:13:36.915Z</time></trkpt><trkpt lat="44.247675" lon="11.4817113"><ele>468.0</ele><time>2026-04-04T08:13:37.915Z</time></trkpt><trkpt lat="44.247533" lon="11.4816119"><ele>468.0</ele><time>2026-04-04T08:13:38.916Z</time></trkpt><trkpt lat="44.2473878" lon="11.4815177"><ele>468.0</ele><time>2026-04-04T08:13:39.915Z</time></trkpt><trkpt lat="44.2472257" lon="11.4814588"><ele>469.0</ele><time>2026-04-04T08:13:40.916Z</time></trkpt><trkpt lat="44.2470568" lon="11.4814251"><ele>470.0</ele><time>2026-04-04T08:13:41.915Z</time></trkpt><trkpt lat="44.246884" lon="11.4814079"><ele>471.0</ele><time>2026-04-04T08:13:42.916Z</time></trkpt><trkpt lat="44.2467017" lon="11.481407"><ele>471.0</ele><time>2026-04-04T08:13:43.915Z</time></trkpt><trkpt lat="44.2465208" lon="11.4814296"><ele>471.0</ele><time>2026-04-04T08:13:44.915Z</time></trkpt><trkpt lat="44.2463419" lon="11.4814813"><ele>471.0</ele><time>2026-04-04T08:13:45.916Z</time></trkpt><trkpt lat="44.2461605" lon="11.4815566"><ele>472.0</ele><time>2026-04-04T08:13:46.916Z</time></trkpt><trkpt lat="44.2459896" lon="11.4816548"><ele>473.0</ele><time>2026-04-04T08:13:47.915Z</time></trkpt><trkpt lat="44.2458264" lon="11.4817662"><ele>474.0</ele><time>2026-04-04T08:13:48.916Z</time></trkpt><trkpt lat="44.2456715" lon="11.481888"><ele>472.33333333333337</ele><time>2026-04-04T08:13:49.914Z</time></trkpt><trkpt lat="44.2455232" lon="11.4820059"><ele>470.6666666666667</ele><time>2026-04-04T08:13:50.915Z</time></trkpt><trkpt lat="44.2453837" lon="11.482091"><ele>469.0</ele><time>2026-04-04T08:13:51.916Z</time></trkpt><trkpt lat="44.2452468" lon="11.4821649"><ele>474.0</ele><time>2026-04-04T08:13:52.915Z</time></trkpt><trkpt lat="44.2451237" lon="11.4822139"><ele>479.0</ele><time>2026-04-04T08:13:53.916Z</time></trkpt><trkpt lat="44.2450028" lon="11.4822454"><ele>484.0</ele><time>2026-04-04T08:13:54.916Z</time></trkpt><trkpt lat="44.2448689" lon="11.482251"><ele>489.0</ele><time>2026-04-04T08:13:55.916Z</time></trkpt><trkpt lat="44.2447224" lon="11.4822387"><ele>489.66666666666663</ele><time>2026-04-04T08:13:56.915Z</time></trkpt><trkpt lat="44.2445694" lon="11.4822571"><ele>490.3333333333333</ele><time>2026-04-04T08:13:57.916Z</time></trkpt><trkpt lat="44.2444096" lon="11.4822976"><ele>491.0</ele><time>2026-04-04T08:13:58.916Z</time></trkpt><trkpt lat="44.2442577" lon="11.4823435"><ele>491.0</ele><time>2026-04-04T08:13:59.915Z</time></trkpt><trkpt lat="44.2441027" lon="11.4823683"><ele>491.0</ele><time>2026-04-04T08:14:00.915Z</time></trkpt><trkpt lat="44.2439367" lon="11.482318"><ele>491.0</ele><time>2026-04-04T08:14:01.915Z</time></trkpt><trkpt lat="44.2437799" lon="11.4822471"><ele>492.3333333333333</ele><time>2026-04-04T08:14:02.916Z</time></trkpt><trkpt lat="44.2436307" lon="11.4821329"><ele>493.66666666666663</ele><time>2026-04-04T08:14:03.915Z</time></trkpt><trkpt lat="44.2434913" lon="11.4820284"><ele>495.0</ele><time>2026-04-04T08:14:04.915Z</time></trkpt><trkpt lat="44.2433538" lon="11.4819646"><ele>490.0</ele><time>2026-04-04T08:14:05.916Z</time></trkpt><trkpt lat="44.2432014" lon="11.4819435"><ele>485.0</ele><time>2026-04-04T08:14:06.916Z</time></trkpt><trkpt lat="44.2430445" lon="11.4819706"><ele>480.0</ele><time>2026-04-04T08:14:07.916Z</time></trkpt><trkpt lat="44.2428804" lon="11.4820058"><ele>480.0</ele><time>2026-04-04T08:14:08.916Z</time></trkpt><trkpt lat="44.2427097" lon="11.4820161"><ele>480.0</ele><time>2026-04-04T08:14:09.916Z</time></trkpt><trkpt lat="44.2425417" lon="11.4820297"><ele>480.0</ele><time>2026-04-04T08:14:10.916Z</time></trkpt><trkpt lat="44.2423878" lon="11.481945"><ele>482.33333333333337</ele><time>2026-04-04T08:14:11.915Z</time></trkpt><trkpt lat="44.2422377" lon="11.4818232"><ele>484.6666666666667</ele><time>2026-04-04T08:14:12.915Z</time></trkpt><trkpt lat="44.2420848" lon="11.4817084"><ele>487.0</ele><time>2026-04-04T08:14:13.915Z</time></trkpt><trkpt lat="44.2419318" lon="11.4815864"><ele>487.0</ele><time>2026-04-04T08:14:14.915Z</time></trkpt><trkpt lat="44.2417942" lon="11.4814728"><ele>487.0</ele><time>2026-04-04T08:14:15.915Z</time></trkpt><trkpt lat="44.2416636" lon="11.4813786"><ele>487.0</ele><time>2026-04-04T08:14:16.915Z</time></trkpt><trkpt lat="44.2415434" lon="11.4813177"><ele>487.0</ele><time>2026-04-04T08:14:17.916Z</time></trkpt><trkpt lat="44.241426" lon="11.481295"><ele>486.6666666666667</ele><time>2026-04-04T08:14:18.916Z</time></trkpt><trkpt lat="44.2413152" lon="11.4812991"><ele>486.33333333333337</ele><time>2026-04-04T08:14:19.916Z</time></trkpt><trkpt lat="44.2412176" lon="11.4813328"><ele>486.0</ele><time>2026-04-04T08:14:20.916Z</time></trkpt><trkpt lat="44.2411434" lon="11.4813852"><ele>485.66666666666663</ele><time>2026-04-04T08:14:21.916Z</time></trkpt><trkpt lat="44.2410858" lon="11.4814323"><ele>485.3333333333333</ele><time>2026-04-04T08:14:22.916Z</time></trkpt><trkpt lat="44.2410379" lon="11.4815137"><ele>485.0</ele><time>2026-04-04T08:14:25.916Z</time></trkpt><trkpt lat="44.2410906" lon="11.481647"><ele>485.0</ele><time>2026-04-04T08:15:35.915Z</time></trkpt><trkpt lat="44.2411267" lon="11.4817342"><ele>485.0</ele><time>2026-04-04T08:15:36.915Z</time></trkpt><trkpt lat="44.2411776" lon="11.4818293"><ele>485.0</ele><time>2026-04-04T08:15:37.914Z</time></trkpt><trkpt lat="44.241247" lon="11.4819175"><ele>485.0</ele><time>2026-04-04T08:15:38.916Z</time></trkpt><trkpt lat="44.2413308" lon="11.4819979"><ele>485.0</ele><time>2026-04-04T08:15:39.915Z</time></trkpt><trkpt lat="44.2414272" lon="11.4820677"><ele>482.8</ele><time>2026-04-04T08:15:40.916Z</time></trkpt><trkpt lat="44.2415276" lon="11.4821268"><ele>480.6</ele><time>2026-04-04T08:15:41.914Z</time></trkpt><trkpt lat="44.2416228" lon="11.4821738"><ele>478.4</ele><time>2026-04-04T08:15:42.916Z</time></trkpt><trkpt lat="44.2417094" lon="11.4822221"><ele>476.2</ele><time>2026-04-04T08:15:43.915Z</time></trkpt><trkpt lat="44.2417852" lon="11.4822748"><ele>474.0</ele><time>2026-04-04T08:15:44.915Z</time></trkpt><trkpt lat="44.2418485" lon="11.4823416"><ele>474.0</ele><time>2026-04-04T08:15:45.916Z</time></trkpt><trkpt lat="44.2419044" lon="11.4824243"><ele>474.0</ele><time>2026-04-04T08:15:46.915Z</time></trkpt><trkpt lat="44.2419557" lon="11.482538"><ele>474.0</ele><time>2026-04-04T08:15:47.914Z</time></trkpt><trkpt lat="44.2420143" lon="11.4826693"><ele>474.0</ele><time>2026-04-04T08:15:48.916Z</time></trkpt><trkpt lat="44.2420839" lon="11.4828113"><ele>474.0</ele><time>2026-04-04T08:15:49.916Z</time></trkpt><trkpt lat="44.2421592" lon="11.4829448"><ele>476.6</ele><time>2026-04-04T08:15:50.916Z</time></trkpt><trkpt lat="44.2422291" lon="11.4830825"><ele>479.2</ele><time>2026-04-04T08:15:51.916Z</time></trkpt><trkpt lat="44.2422869" lon="11.4832157"><ele>481.80000000000007</ele><time>2026-04-04T08:15:52.915Z</time></trkpt><trkpt lat="44.2423345" lon="11.4833554"><ele>484.40000000000003</ele><time>2026-04-04T08:15:53.916Z</time></trkpt><trkpt lat="44.242341" lon="11.4834984"><ele>487.0</ele><time>2026-04-04T08:15:54.916Z</time></trkpt><trkpt lat="44.2423529" lon="11.4836597"><ele>486.5</ele><time>2026-04-04T08:15:55.916Z</time></trkpt><trkpt lat="44.2423077" lon="11.4838223"><ele>486.0</ele><time>2026-04-04T08:15:56.914Z</time></trkpt><trkpt lat="44.2422657" lon="11.4839872"><ele>485.5</ele><time>2026-04-04T08:15:57.915Z</time></trkpt><trkpt lat="44.2422195" lon="11.4841412"><ele>485.0</ele><time>2026-04-04T08:15:58.915Z</time></trkpt><trkpt lat="44.2421689" lon="11.4842778"><ele>478.2</ele><time>2026-04-04T08:15:59.915Z</time></trkpt><trkpt lat="44.2421453" lon="11.484421"><ele>471.4</ele><time>2026-04-04T08:16:00.916Z</time></trkpt><trkpt lat="44.2421586" lon="11.4845585"><ele>464.6</ele><time>2026-04-04T08:16:01.915Z</time></trkpt><trkpt lat="44.2421902" lon="11.4846797"><ele>457.8</ele><time>2026-04-04T08:16:02.914Z</time></trkpt><trkpt lat="44.2422131" lon="11.4848078"><ele>451.0</ele><time>2026-04-04T08:16:03.915Z</time></trkpt><trkpt lat="44.2422015" lon="11.4849576"><ele>451.0</ele><time>2026-04-04T08:16:04.915Z</time></trkpt><trkpt lat="44.2421569" lon="11.4851058"><ele>451.0</ele><time>2026-04-04T08:16:05.914Z</time></trkpt><trkpt lat="44.2420966" lon="11.485256"><ele>451.0</ele><time>2026-04-04T08:16:06.915Z</time></trkpt><trkpt lat="44.2420409" lon="11.485409"><ele>451.0</ele><time>2026-04-04T08:16:07.915Z</time></trkpt><trkpt lat="44.2419992" lon="11.485569"><ele>451.0</ele><time>2026-04-04T08:16:08.915Z</time></trkpt><trkpt lat="44.241977" lon="11.4857314"><ele>451.0</ele><time>2026-04-04T08:16:09.916Z</time></trkpt><trkpt lat="44.2419663" lon="11.4858877"><ele>451.0</ele><time>2026-04-04T08:16:10.914Z</time></trkpt><trkpt lat="44.2419532" lon="11.4860406"><ele>451.0</ele><time>2026-04-04T08:16:11.916Z</time></trkpt><trkpt lat="44.2419365" lon="11.4861968"><ele>450.5</ele><time>2026-04-04T08:16:12.916Z</time></trkpt><trkpt lat="44.2419191" lon="11.4863579"><ele>450.0</ele><time>2026-04-04T08:16:13.916Z</time></trkpt><trkpt lat="44.2419192" lon="11.4865243"><ele>449.5</ele><time>2026-04-04T08:16:14.915Z</time></trkpt><trkpt lat="44.241941" lon="11.4866963"><ele>449.0</ele><time>2026-04-04T08:16:15.916Z</time></trkpt><trkpt lat="44.2419699" lon="11.4868679"><ele>449.0</ele><time>2026-04-04T08:16:16.914Z</time></trkpt><trkpt lat="44.2419957" lon="11.487038"><ele>449.0</ele><time>2026-04-04T08:16:17.915Z</time></trkpt><trkpt lat="44.2420176" lon="11.4871963"><ele>449.0</ele><time>2026-04-04T08:16:18.916Z</time></trkpt><trkpt lat="44.242032" lon="11.4873509"><ele>449.0</ele><time>2026-04-04T08:16:19.915Z</time></trkpt><trkpt lat="44.2420342" lon="11.4874979"><ele>449.0</ele><time>2026-04-04T08:16:20.916Z</time></trkpt><trkpt lat="44.2420081" lon="11.4876421"><ele>449.0</ele><time>2026-04-04T08:16:21.915Z</time></trkpt><trkpt lat="44.241962" lon="11.4877875"><ele>449.0</ele><time>2026-04-04T08:16:22.915Z</time></trkpt><trkpt lat="44.2419083" lon="11.4879235"><ele>449.0</ele><time>2026-04-04T08:16:23.916Z</time></trkpt><trkpt lat="44.2418413" lon="11.4880439"><ele>449.0</ele><time>2026-04-04T08:16:24.914Z</time></trkpt><trkpt lat="44.241755" lon="11.4881532"><ele>447.75</ele><time>2026-04-04T08:16:25.916Z</time></trkpt><trkpt lat="44.241641" lon="11.4882317"><ele>446.5</ele><time>2026-04-04T08:16:26.915Z</time></trkpt><trkpt lat="44.2415097" lon="11.4882885"><ele>445.25</ele><time>2026-04-04T08:16:27.915Z</time></trkpt><trkpt lat="44.2413558" lon="11.4883428"><ele>444.0</ele><time>2026-04-04T08:16:28.915Z</time></trkpt><trkpt lat="44.2411949" lon="11.488389"><ele>444.0</ele><time>2026-04-04T08:16:29.914Z</time></trkpt><trkpt lat="44.2410333" lon="11.4884286"><ele>444.0</ele><time>2026-04-04T08:16:30.915Z</time></trkpt><trkpt lat="44.2408755" lon="11.4884563"><ele>444.0</ele><time>2026-04-04T08:16:31.914Z</time></trkpt><trkpt lat="44.240721" lon="11.4884596"><ele>443.0</ele><time>2026-04-04T08:16:32.915Z</time></trkpt><trkpt lat="44.2405662" lon="11.4884441"><ele>442.0</ele><time>2026-04-04T08:16:33.913Z</time></trkpt><trkpt lat="44.2404138" lon="11.4884284"><ele>441.0</ele><time>2026-04-04T08:16:34.915Z</time></trkpt><trkpt lat="44.2402658" lon="11.4884409"><ele>441.0</ele><time>2026-04-04T08:16:35.914Z</time></trkpt><trkpt lat="44.2401265" lon="11.4884775"><ele>441.0</ele><time>2026-04-04T08:16:36.913Z</time></trkpt><trkpt lat="44.2399926" lon="11.4884983"><ele>441.0</ele><time>2026-04-04T08:16:37.914Z</time></trkpt><trkpt lat="44.2398718" lon="11.4884512"><ele>441.0</ele><time>2026-04-04T08:16:38.914Z</time></trkpt><trkpt lat="44.2397616" lon="11.4883849"><ele>438.0</ele><time>2026-04-04T08:16:39.915Z</time></trkpt><trkpt lat="44.2396582" lon="11.4883239"><ele>435.0</ele><time>2026-04-04T08:16:40.914Z</time></trkpt><trkpt lat="44.2395448" lon="11.4882963"><ele>432.0</ele><time>2026-04-04T08:16:41.915Z</time></trkpt><trkpt lat="44.2394113" lon="11.4883369"><ele>429.0</ele><time>2026-04-04T08:16:42.915Z</time></trkpt><trkpt lat="44.2392789" lon="11.4883808"><ele>429.0</ele><time>2026-04-04T08:16:43.914Z</time></trkpt><trkpt lat="44.239144" lon="11.4884475"><ele>429.0</ele><time>2026-04-04T08:16:44.914Z</time></trkpt><trkpt lat="44.2390225" lon="11.4885137"><ele>429.0</ele><time>2026-04-04T08:16:45.914Z</time></trkpt><trkpt lat="44.2389235" lon="11.4885876"><ele>429.0</ele><time>2026-04-04T08:16:46.915Z</time></trkpt><trkpt lat="44.2388617" lon="11.4886842"><ele>431.0</ele><time>2026-04-04T08:16:47.914Z</time></trkpt><trkpt lat="44.2388376" lon="11.4887993"><ele>433.0</ele><time>2026-04-04T08:16:48.914Z</time></trkpt><trkpt lat="44.2388586" lon="11.4889053"><ele>435.0</ele><time>2026-04-04T08:16:49.914Z</time></trkpt><trkpt lat="44.2389119" lon="11.4890149"><ele>437.0</ele><time>2026-04-04T08:16:50.913Z</time></trkpt><trkpt lat="44.2389814" lon="11.4891396"><ele>439.0</ele><time>2026-04-04T08:16:51.913Z</time></trkpt><trkpt lat="44.2390519" lon="11.4892858"><ele>439.0</ele><time>2026-04-04T08:16:52.914Z</time></trkpt><trkpt lat="44.239099" lon="11.4894507"><ele>439.0</ele><time>2026-04-04T08:16:53.914Z</time></trkpt><trkpt lat="44.2391061" lon="11.4896181"><ele>439.0</ele><time>2026-04-04T08:16:54.914Z</time></trkpt><trkpt lat="44.2390784" lon="11.4897855"><ele>439.0</ele><time>2026-04-04T08:16:55.915Z</time></trkpt><trkpt lat="44.2390655" lon="11.4899394"><ele>436.79999999999995</ele><time>2026-04-04T08:16:56.915Z</time></trkpt><trkpt lat="44.2390892" lon="11.490053"><ele>434.59999999999997</ele><time>2026-04-04T08:16:57.915Z</time></trkpt><trkpt lat="44.2391313" lon="11.4901576"><ele>432.4</ele><time>2026-04-04T08:16:58.915Z</time></trkpt><trkpt lat="44.2392282" lon="11.4902094"><ele>430.2</ele><time>2026-04-04T08:16:59.915Z</time></trkpt><trkpt lat="44.2393178" lon="11.4902731"><ele>428.0</ele><time>2026-04-04T08:17:00.915Z</time></trkpt><trkpt lat="44.2394306" lon="11.4903216"><ele>424.25</ele><time>2026-04-04T08:17:01.915Z</time></trkpt><trkpt lat="44.2395149" lon="11.4904386"><ele>420.5</ele><time>2026-04-04T08:17:02.914Z</time></trkpt><trkpt lat="44.2395766" lon="11.4905807"><ele>416.75</ele><time>2026-04-04T08:17:03.914Z</time></trkpt><trkpt lat="44.2396196" lon="11.4907424"><ele>413.0</ele><time>2026-04-04T08:17:04.915Z</time></trkpt><trkpt lat="44.2396382" lon="11.490924"><ele>413.0</ele><time>2026-04-04T08:17:05.915Z</time></trkpt><trkpt lat="44.2396276" lon="11.4911142"><ele>413.0</ele><time>2026-04-04T08:17:06.915Z</time></trkpt><trkpt lat="44.2395815" lon="11.4913009"><ele>413.0</ele><time>2026-04-04T08:17:07.915Z</time></trkpt><trkpt lat="44.2394974" lon="11.4914674"><ele>413.0</ele><time>2026-04-04T08:17:08.913Z</time></trkpt><trkpt lat="44.2393811" lon="11.4916113"><ele>413.3333333333333</ele><time>2026-04-04T08:17:09.913Z</time></trkpt><trkpt lat="44.2392379" lon="11.49173"><ele>413.66666666666663</ele><time>2026-04-04T08:17:10.915Z</time></trkpt><trkpt lat="44.2390838" lon="11.4918368"><ele>414.0</ele><time>2026-04-04T08:17:11.915Z</time></trkpt><trkpt lat="44.2389194" lon="11.4919148"><ele>410.66666666666663</ele><time>2026-04-04T08:17:12.914Z</time></trkpt><trkpt lat="44.2387407" lon="11.4919546"><ele>407.3333333333333</ele><time>2026-04-04T08:17:13.915Z</time></trkpt><trkpt lat="44.2385682" lon="11.4919581"><ele>404.0</ele><time>2026-04-04T08:17:14.913Z</time></trkpt><trkpt lat="44.238404" lon="11.491953"><ele>404.0</ele><time>2026-04-04T08:17:15.915Z</time></trkpt><trkpt lat="44.2382424" lon="11.4919415"><ele>404.0</ele><time>2026-04-04T08:17:16.915Z</time></trkpt><trkpt lat="44.2380886" lon="11.4919236"><ele>404.0</ele><time>2026-04-04T08:17:17.915Z</time></trkpt><trkpt lat="44.2379513" lon="11.4919072"><ele>405.25</ele><time>2026-04-04T08:17:18.914Z</time></trkpt><trkpt lat="44.2378271" lon="11.4919172"><ele>406.5</ele><time>2026-04-04T08:17:19.914Z</time></trkpt><trkpt lat="44.2377126" lon="11.4919617"><ele>407.75</ele><time>2026-04-04T08:17:20.914Z</time></trkpt><trkpt lat="44.2375996" lon="11.4920292"><ele>409.0</ele><time>2026-04-04T08:17:21.914Z</time></trkpt><trkpt lat="44.2375086" lon="11.4921257"><ele>409.0</ele><time>2026-04-04T08:17:22.914Z</time></trkpt><trkpt lat="44.2374315" lon="11.4922317"><ele>409.0</ele><time>2026-04-04T08:17:23.914Z</time></trkpt><trkpt lat="44.2373602" lon="11.4923335"><ele>409.0</ele><time>2026-04-04T08:17:24.914Z</time></trkpt><trkpt lat="44.2373169" lon="11.4924405"><ele>409.0</ele><time>2026-04-04T08:17:25.915Z</time></trkpt><trkpt lat="44.2372398" lon="11.4924898"><ele>409.0</ele><time>2026-04-04T08:17:26.915Z</time></trkpt><trkpt lat="44.2371717" lon="11.4924899"><ele>410.4</ele><time>2026-04-04T08:17:27.915Z</time></trkpt><trkpt lat="44.2371062" lon="11.492426"><ele>411.79999999999995</ele><time>2026-04-04T08:17:28.915Z</time></trkpt><trkpt lat="44.2370266" lon="11.4923267"><ele>413.20000000000005</ele><time>2026-04-04T08:17:29.915Z</time></trkpt><trkpt lat="44.2369323" lon="11.4922101"><ele>414.6</ele><time>2026-04-04T08:17:30.915Z</time></trkpt><trkpt lat="44.2368305" lon="11.4920827"><ele>416.0</ele><time>2026-04-04T08:17:31.914Z</time></trkpt><trkpt lat="44.2367345" lon="11.4919654"><ele>410.0</ele><time>2026-04-04T08:17:32.914Z</time></trkpt><trkpt lat="44.2366383" lon="11.4918553"><ele>404.0</ele><time>2026-04-04T08:17:33.915Z</time></trkpt><trkpt lat="44.2365274" lon="11.4917617"><ele>398.0</ele><time>2026-04-04T08:17:34.915Z</time></trkpt><trkpt lat="44.2363983" lon="11.491696"><ele>392.0</ele><time>2026-04-04T08:17:35.914Z</time></trkpt><trkpt lat="44.2362635" lon="11.4916416"><ele>392.0</ele><time>2026-04-04T08:17:36.914Z</time></trkpt><trkpt lat="44.2361355" lon="11.4915865"><ele>392.0</ele><time>2026-04-04T08:17:37.913Z</time></trkpt><trkpt lat="44.2360136" lon="11.4915437"><ele>392.0</ele><time>2026-04-04T08:17:38.914Z</time></trkpt><trkpt lat="44.2358922" lon="11.4915392"><ele>392.0</ele><time>2026-04-04T08:17:39.915Z</time></trkpt><trkpt lat="44.2357696" lon="11.4915786"><ele>392.0</ele><time>2026-04-04T08:17:40.914Z</time></trkpt><trkpt lat="44.2356651" lon="11.4916558"><ele>392.0</ele><time>2026-04-04T08:17:41.915Z</time></trkpt><trkpt lat="44.2355841" lon="11.4917624"><ele>392.0</ele><time>2026-04-04T08:17:42.913Z</time></trkpt><trkpt lat="44.2355028" lon="11.491873"><ele>392.0</ele><time>2026-04-04T08:17:43.915Z</time></trkpt><trkpt lat="44.2354425" lon="11.4920148"><ele>387.75</ele><time>2026-04-04T08:17:44.913Z</time></trkpt><trkpt lat="44.2354194" lon="11.4921477"><ele>383.5</ele><time>2026-04-04T08:17:45.914Z</time></trkpt><trkpt lat="44.2355571" lon="11.4923619"><ele>379.25</ele><time>2026-04-04T08:17:46.914Z</time></trkpt><trkpt lat="44.2355472" lon="11.4925252"><ele>375.0</ele><time>2026-04-04T08:17:47.915Z</time></trkpt><trkpt lat="44.2355095" lon="11.4926669"><ele>375.0</ele><time>2026-04-04T08:17:48.915Z</time></trkpt><trkpt lat="44.235436" lon="11.4927752"><ele>375.0</ele><time>2026-04-04T08:17:49.915Z</time></trkpt><trkpt lat="44.2353313" lon="11.4928521"><ele>375.0</ele><time>2026-04-04T08:17:50.915Z</time></trkpt><trkpt lat="44.235223" lon="11.4929295"><ele>375.0</ele><time>2026-04-04T08:17:51.914Z</time></trkpt><trkpt lat="44.2351098" lon="11.4930097"><ele>378.0</ele><time>2026-04-04T08:17:52.914Z</time></trkpt><trkpt lat="44.2350244" lon="11.4931181"><ele>381.0</ele><time>2026-04-04T08:17:53.914Z</time></trkpt><trkpt lat="44.2349474" lon="11.4931918"><ele>384.0</ele><time>2026-04-04T08:17:54.914Z</time></trkpt><trkpt lat="44.234854" lon="11.4932282"><ele>387.0</ele><time>2026-04-04T08:17:55.914Z</time></trkpt><trkpt lat="44.234754" lon="11.4932527"><ele>390.0</ele><time>2026-04-04T08:17:56.915Z</time></trkpt><trkpt lat="44.2346687" lon="11.4931518"><ele>390.2</ele><time>2026-04-04T08:17:57.913Z</time></trkpt><trkpt lat="44.234605" lon="11.4930602"><ele>390.4</ele><time>2026-04-04T08:17:58.914Z</time></trkpt><trkpt lat="44.2345819" lon="11.4929388"><ele>390.6</ele><time>2026-04-04T08:17:59.914Z</time></trkpt><trkpt lat="44.234582" lon="11.4927878"><ele>390.8</ele><time>2026-04-04T08:18:00.915Z</time></trkpt><trkpt lat="44.2345959" lon="11.4926082"><ele>391.0</ele><time>2026-04-04T08:18:01.915Z</time></trkpt><trkpt lat="44.2346095" lon="11.4924088"><ele>387.75</ele><time>2026-04-04T08:18:02.914Z</time></trkpt><trkpt lat="44.2346166" lon="11.4922039"><ele>384.5</ele><time>2026-04-04T08:18:03.915Z</time></trkpt><trkpt lat="44.2346187" lon="11.4920085"><ele>381.25</ele><time>2026-04-04T08:18:04.915Z</time></trkpt><trkpt lat="44.2346027" lon="11.4918292"><ele>378.0</ele><time>2026-04-04T08:18:05.914Z</time></trkpt><trkpt lat="44.2345695" lon="11.491699"><ele>375.59999999999997</ele><time>2026-04-04T08:18:06.915Z</time></trkpt><trkpt lat="44.2345228" lon="11.491578"><ele>373.2</ele><time>2026-04-04T08:18:07.914Z</time></trkpt><trkpt lat="44.2344308" lon="11.4915535"><ele>370.8</ele><time>2026-04-04T08:18:08.915Z</time></trkpt><trkpt lat="44.2343171" lon="11.4915776"><ele>368.4</ele><time>2026-04-04T08:18:09.914Z</time></trkpt><trkpt lat="44.2341964" lon="11.4916009"><ele>366.0</ele><time>2026-04-04T08:18:10.914Z</time></trkpt><trkpt lat="44.2340534" lon="11.4916292"><ele>364.3333333333333</ele><time>2026-04-04T08:18:11.914Z</time></trkpt><trkpt lat="44.2338936" lon="11.4916564"><ele>362.66666666666663</ele><time>2026-04-04T08:18:12.915Z</time></trkpt><trkpt lat="44.2337459" lon="11.4916801"><ele>361.0</ele><time>2026-04-04T08:18:13.915Z</time></trkpt><trkpt lat="44.2336041" lon="11.4917104"><ele>361.0</ele><time>2026-04-04T08:18:14.915Z</time></trkpt><trkpt lat="44.2334691" lon="11.4917503"><ele>361.0</ele><time>2026-04-04T08:18:15.914Z</time></trkpt><trkpt lat="44.2333464" lon="11.491795"><ele>361.0</ele><time>2026-04-04T08:18:16.914Z</time></trkpt><trkpt lat="44.2332228" lon="11.4917967"><ele>361.0</ele><time>2026-04-04T08:18:17.914Z</time></trkpt><trkpt lat="44.2331308" lon="11.4917343"><ele>360.75</ele><time>2026-04-04T08:18:18.915Z</time></trkpt><trkpt lat="44.2330363" lon="11.491644"><ele>360.5</ele><time>2026-04-04T08:18:19.914Z</time></trkpt><trkpt lat="44.232954" lon="11.4915155"><ele>360.25</ele><time>2026-04-04T08:18:20.914Z</time></trkpt><trkpt lat="44.2328907" lon="11.4913708"><ele>360.0</ele><time>2026-04-04T08:18:21.914Z</time></trkpt><trkpt lat="44.2328249" lon="11.4912325"><ele>356.0</ele><time>2026-04-04T08:18:22.914Z</time></trkpt><trkpt lat="44.2327425" lon="11.4911088"><ele>352.0</ele><time>2026-04-04T08:18:23.915Z</time></trkpt><trkpt lat="44.2326431" lon="11.4910168"><ele>348.0</ele><time>2026-04-04T08:18:24.915Z</time></trkpt><trkpt lat="44.2325291" lon="11.4909652"><ele>344.0</ele><time>2026-04-04T08:18:25.915Z</time></trkpt><trkpt lat="44.2324158" lon="11.4909667"><ele>344.0</ele><time>2026-04-04T08:18:26.915Z</time></trkpt><trkpt lat="44.2323109" lon="11.4909721"><ele>344.0</ele><time>2026-04-04T08:18:27.915Z</time></trkpt><trkpt lat="44.2322175" lon="11.4911184"><ele>344.0</ele><time>2026-04-04T08:18:28.914Z</time></trkpt><trkpt lat="44.2321304" lon="11.4912068"><ele>344.0</ele><time>2026-04-04T08:18:29.914Z</time></trkpt><trkpt lat="44.2320356" lon="11.4912777"><ele>342.2</ele><time>2026-04-04T08:18:30.915Z</time></trkpt><trkpt lat="44.2319325" lon="11.4912795"><ele>340.4</ele><time>2026-04-04T08:18:31.915Z</time></trkpt><trkpt lat="44.2318486" lon="11.4912336"><ele>338.6</ele><time>2026-04-04T08:18:32.915Z</time></trkpt><trkpt lat="44.2317636" lon="11.4911562"><ele>336.8</ele><time>2026-04-04T08:18:33.914Z</time></trkpt><trkpt lat="44.2316581" lon="11.4911011"><ele>335.0</ele><time>2026-04-04T08:18:34.915Z</time></trkpt><trkpt lat="44.2315558" lon="11.4910496"><ele>333.6666666666667</ele><time>2026-04-04T08:18:35.914Z</time></trkpt><trkpt lat="44.2314048" lon="11.4910261"><ele>332.3333333333333</ele><time>2026-04-04T08:18:36.915Z</time></trkpt><trkpt lat="44.2312216" lon="11.4910918"><ele>331.0</ele><time>2026-04-04T08:18:37.915Z</time></trkpt><trkpt lat="44.23106" lon="11.4910858"><ele>331.0</ele><time>2026-04-04T08:18:38.915Z</time></trkpt><trkpt lat="44.2309093" lon="11.4910898"><ele>331.0</ele><time>2026-04-04T08:18:39.915Z</time></trkpt><trkpt lat="44.2307606" lon="11.4911135"><ele>331.0</ele><time>2026-04-04T08:18:40.914Z</time></trkpt><trkpt lat="44.2306232" lon="11.491159"><ele>331.0</ele><time>2026-04-04T08:18:41.914Z</time></trkpt><trkpt lat="44.2304899" lon="11.4911977"><ele>330.25</ele><time>2026-04-04T08:18:42.915Z</time></trkpt><trkpt lat="44.230354" lon="11.4911988"><ele>329.5</ele><time>2026-04-04T08:18:43.915Z</time></trkpt><trkpt lat="44.2302266" lon="11.4912093"><ele>328.75</ele><time>2026-04-04T08:18:44.914Z</time></trkpt><trkpt lat="44.2301139" lon="11.4912037"><ele>328.0</ele><time>2026-04-04T08:18:45.914Z</time></trkpt><trkpt lat="44.22999" lon="11.4912174"><ele>328.0</ele><time>2026-04-04T08:18:46.914Z</time></trkpt><trkpt lat="44.2298848" lon="11.4912344"><ele>328.0</ele><time>2026-04-04T08:18:47.913Z</time></trkpt><trkpt lat="44.2297964" lon="11.4911554"><ele>328.0</ele><time>2026-04-04T08:18:48.914Z</time></trkpt><trkpt lat="44.2297052" lon="11.491092"><ele>328.0</ele><time>2026-04-04T08:18:49.913Z</time></trkpt><trkpt lat="44.2296654" lon="11.4909366"><ele>328.0</ele><time>2026-04-04T08:18:50.914Z</time></trkpt><trkpt lat="44.2295892" lon="11.4908534"><ele>330.0</ele><time>2026-04-04T08:18:51.914Z</time></trkpt><trkpt lat="44.229453" lon="11.490852"><ele>332.0</ele><time>2026-04-04T08:18:52.914Z</time></trkpt><trkpt lat="44.2293213" lon="11.4908149"><ele>334.0</ele><time>2026-04-04T08:18:53.915Z</time></trkpt><trkpt lat="44.2291965" lon="11.490771"><ele>336.0</ele><time>2026-04-04T08:18:54.914Z</time></trkpt><trkpt lat="44.2290822" lon="11.4907376"><ele>335.5</ele><time>2026-04-04T08:18:55.915Z</time></trkpt><trkpt lat="44.228956" lon="11.4907376"><ele>335.0</ele><time>2026-04-04T08:18:56.915Z</time></trkpt><trkpt lat="44.228829" lon="11.4907588"><ele>334.5</ele><time>2026-04-04T08:18:57.914Z</time></trkpt><trkpt lat="44.2287012" lon="11.490774"><ele>334.0</ele><time>2026-04-04T08:18:58.915Z</time></trkpt><trkpt lat="44.228586" lon="11.4907445"><ele>334.0</ele><time>2026-04-04T08:18:59.915Z</time></trkpt><trkpt lat="44.2284609" lon="11.4907312"><ele>334.0</ele><time>2026-04-04T08:19:00.915Z</time></trkpt><trkpt lat="44.2283098" lon="11.4906603"><ele>334.0</ele><time>2026-04-04T08:19:01.914Z</time></trkpt><trkpt lat="44.2281607" lon="11.4905868"><ele>334.0</ele><time>2026-04-04T08:19:02.914Z</time></trkpt><trkpt lat="44.2280316" lon="11.4904641"><ele>328.25</ele><time>2026-04-04T08:19:03.914Z</time></trkpt><trkpt lat="44.2278982" lon="11.4903618"><ele>322.5</ele><time>2026-04-04T08:19:04.914Z</time></trkpt><trkpt lat="44.2277725" lon="11.4902634"><ele>316.75</ele><time>2026-04-04T08:19:05.914Z</time></trkpt><trkpt lat="44.2276511" lon="11.490178"><ele>311.0</ele><time>2026-04-04T08:19:06.915Z</time></trkpt><trkpt lat="44.2275255" lon="11.4901251"><ele>311.0</ele><time>2026-04-04T08:19:07.915Z</time></trkpt><trkpt lat="44.2273799" lon="11.4900884"><ele>311.0</ele><time>2026-04-04T08:19:08.914Z</time></trkpt><trkpt lat="44.2272259" lon="11.4900884"><ele>311.0</ele><time>2026-04-04T08:19:09.914Z</time></trkpt><trkpt lat="44.2270761" lon="11.490089"><ele>309.0</ele><time>2026-04-04T08:19:10.914Z</time></trkpt><trkpt lat="44.226936" lon="11.4900983"><ele>307.0</ele><time>2026-04-04T08:19:11.915Z</time></trkpt><trkpt lat="44.2267993" lon="11.4901156"><ele>305.0</ele><time>2026-04-04T08:19:12.915Z</time></trkpt><trkpt lat="44.2266704" lon="11.4901334"><ele>303.0</ele><time>2026-04-04T08:19:13.914Z</time></trkpt><trkpt lat="44.2265514" lon="11.4901556"><ele>304.0</ele><time>2026-04-04T08:19:14.914Z</time></trkpt><trkpt lat="44.2264512" lon="11.4901963"><ele>305.0</ele><time>2026-04-04T08:19:15.914Z</time></trkpt><trkpt lat="44.2263627" lon="11.4902733"><ele>306.0</ele><time>2026-04-04T08:19:16.914Z</time></trkpt><trkpt lat="44.2263314" lon="11.490406"><ele>307.0</ele><time>2026-04-04T08:19:17.915Z</time></trkpt><trkpt lat="44.2262945" lon="11.4905396"><ele>308.0</ele><time>2026-04-04T08:19:18.915Z</time></trkpt><trkpt lat="44.2262457" lon="11.4906684"><ele>308.0</ele><time>2026-04-04T08:19:19.914Z</time></trkpt><trkpt lat="44.2261873" lon="11.4907479"><ele>308.0</ele><time>2026-04-04T08:19:20.913Z</time></trkpt><trkpt lat="44.2261311" lon="11.4908162"><ele>308.0</ele><time>2026-04-04T08:19:54.914Z</time></trkpt><trkpt lat="44.2260741" lon="11.4908608"><ele>308.0</ele><time>2026-04-04T08:19:55.912Z</time></trkpt><trkpt lat="44.2259996" lon="11.4908827"><ele>308.0</ele><time>2026-04-04T08:19:56.912Z</time></trkpt><trkpt lat="44.2259043" lon="11.4908954"><ele>308.0</ele><time>2026-04-04T08:19:57.913Z</time></trkpt><trkpt lat="44.2257953" lon="11.4909228"><ele>308.0</ele><time>2026-04-04T08:19:58.914Z</time></trkpt><trkpt lat="44.2256793" lon="11.4909573"><ele>308.0</ele><time>2026-04-04T08:19:59.914Z</time></trkpt><trkpt lat="44.2255814" lon="11.4910107"><ele>308.0</ele><time>2026-04-04T08:20:00.913Z</time></trkpt><trkpt lat="44.2254886" lon="11.4910755"><ele>308.0</ele><time>2026-04-04T08:20:01.913Z</time></trkpt><trkpt lat="44.2254076" lon="11.4911499"><ele>308.0</ele><time>2026-04-04T08:20:02.913Z</time></trkpt><trkpt lat="44.2253316" lon="11.4912272"><ele>304.8</ele><time>2026-04-04T08:20:03.914Z</time></trkpt><trkpt lat="44.2252602" lon="11.4913011"><ele>301.6</ele><time>2026-04-04T08:20:04.914Z</time></trkpt><trkpt lat="44.225199" lon="11.4913901"><ele>298.4</ele><time>2026-04-04T08:20:05.914Z</time></trkpt><trkpt lat="44.2251671" lon="11.4915022"><ele>295.2</ele><time>2026-04-04T08:20:06.913Z</time></trkpt><trkpt lat="44.2251588" lon="11.491613"><ele>292.0</ele><time>2026-04-04T08:20:07.913Z</time></trkpt><trkpt lat="44.2252366" lon="11.4917197"><ele>292.0</ele><time>2026-04-04T08:20:08.914Z</time></trkpt><trkpt lat="44.2252836" lon="11.4918202"><ele>292.0</ele><time>2026-04-04T08:20:09.914Z</time></trkpt><trkpt lat="44.2254118" lon="11.4918565"><ele>292.0</ele><time>2026-04-04T08:20:10.913Z</time></trkpt><trkpt lat="44.2254965" lon="11.4919346"><ele>292.0</ele><time>2026-04-04T08:20:11.914Z</time></trkpt><trkpt lat="44.2255622" lon="11.4920315"><ele>292.0</ele><time>2026-04-04T08:20:12.914Z</time></trkpt><trkpt lat="44.2255973" lon="11.4921457"><ele>294.8333333333333</ele><time>2026-04-04T08:20:13.913Z</time></trkpt><trkpt lat="44.2255972" lon="11.4922517"><ele>297.66666666666663</ele><time>2026-04-04T08:20:14.913Z</time></trkpt><trkpt lat="44.2255563" lon="11.4923265"><ele>300.5</ele><time>2026-04-04T08:20:15.913Z</time></trkpt><trkpt lat="44.2254931" lon="11.4923706"><ele>303.3333333333333</ele><time>2026-04-04T08:20:16.912Z</time></trkpt><trkpt lat="44.2254218" lon="11.4924247"><ele>306.1666666666667</ele><time>2026-04-04T08:20:17.913Z</time></trkpt><trkpt lat="44.2253194" lon="11.4924656"><ele>309.0</ele><time>2026-04-04T08:20:18.914Z</time></trkpt><trkpt lat="44.2251771" lon="11.4924427"><ele>309.0</ele><time>2026-04-04T08:20:19.913Z</time></trkpt><trkpt lat="44.2250609" lon="11.4924424"><ele>309.0</ele><time>2026-04-04T08:20:20.913Z</time></trkpt><trkpt lat="44.2249528" lon="11.4924159"><ele>309.0</ele><time>2026-04-04T08:20:21.912Z</time></trkpt><trkpt lat="44.2248537" lon="11.4923778"><ele>309.0</ele><time>2026-04-04T08:20:22.913Z</time></trkpt><trkpt lat="44.224764" lon="11.4923291"><ele>309.0</ele><time>2026-04-04T08:20:23.914Z</time></trkpt><trkpt lat="44.2246843" lon="11.4922691"><ele>302.59999999999997</ele><time>2026-04-04T08:20:24.914Z</time></trkpt><trkpt lat="44.2246089" lon="11.4922147"><ele>296.2</ele><time>2026-04-04T08:20:25.914Z</time></trkpt><trkpt lat="44.2245275" lon="11.4921888"><ele>289.79999999999995</ele><time>2026-04-04T08:20:26.913Z</time></trkpt><trkpt lat="44.2244407" lon="11.4922404"><ele>283.4</ele><time>2026-04-04T08:20:27.914Z</time></trkpt><trkpt lat="44.2243698" lon="11.4923343"><ele>277.0</ele><time>2026-04-04T08:20:28.913Z</time></trkpt><trkpt lat="44.2243017" lon="11.4924655"><ele>277.0</ele><time>2026-04-04T08:20:29.913Z</time></trkpt><trkpt lat="44.2242265" lon="11.4925962"><ele>277.0</ele><time>2026-04-04T08:20:30.913Z</time></trkpt><trkpt lat="44.224141" lon="11.4927057"><ele>277.0</ele><time>2026-04-04T08:20:31.914Z</time></trkpt><trkpt lat="44.2240545" lon="11.4928163"><ele>277.0</ele><time>2026-04-04T08:20:32.913Z</time></trkpt><trkpt lat="44.2239853" lon="11.4929622"><ele>272.0</ele><time>2026-04-04T08:20:33.914Z</time></trkpt><trkpt lat="44.2239387" lon="11.4931169"><ele>267.0</ele><time>2026-04-04T08:20:34.914Z</time></trkpt><trkpt lat="44.223874" lon="11.4932628"><ele>262.0</ele><time>2026-04-04T08:20:35.913Z</time></trkpt><trkpt lat="44.2237819" lon="11.4933805"><ele>257.0</ele><time>2026-04-04T08:20:36.913Z</time></trkpt><trkpt lat="44.2237043" lon="11.493504"><ele>257.0</ele><time>2026-04-04T08:20:37.913Z</time></trkpt><trkpt lat="44.22363" lon="11.4936273"><ele>257.0</ele><time>2026-04-04T08:20:38.914Z</time></trkpt><trkpt lat="44.2236549" lon="11.4938215"><ele>257.0</ele><time>2026-04-04T08:20:39.914Z</time></trkpt><trkpt lat="44.2236792" lon="11.4939637"><ele>257.0</ele><time>2026-04-04T08:20:40.914Z</time></trkpt><trkpt lat="44.2237146" lon="11.4941066"><ele>257.75</ele><time>2026-04-04T08:20:41.913Z</time></trkpt><trkpt lat="44.2237657" lon="11.4942366"><ele>258.5</ele><time>2026-04-04T08:20:42.913Z</time></trkpt><trkpt lat="44.2239517" lon="11.4942479"><ele>259.25</ele><time>2026-04-04T08:20:43.914Z</time></trkpt><trkpt lat="44.2240539" lon="11.4943663"><ele>260.0</ele><time>2026-04-04T08:20:44.913Z</time></trkpt><trkpt lat="44.2241468" lon="11.4944984"><ele>263.25</ele><time>2026-04-04T08:20:45.913Z</time></trkpt><trkpt lat="44.2242376" lon="11.4946273"><ele>266.5</ele><time>2026-04-04T08:20:46.914Z</time></trkpt><trkpt lat="44.2243361" lon="11.4947511"><ele>269.75</ele><time>2026-04-04T08:20:47.913Z</time></trkpt><trkpt lat="44.2244422" lon="11.49486"><ele>273.0</ele><time>2026-04-04T08:20:48.913Z</time></trkpt><trkpt lat="44.2245786" lon="11.4949237"><ele>273.0</ele><time>2026-04-04T08:20:49.914Z</time></trkpt><trkpt lat="44.2247065" lon="11.4949862"><ele>273.0</ele><time>2026-04-04T08:20:50.913Z</time></trkpt><trkpt lat="44.2248344" lon="11.4950233"><ele>273.0</ele><time>2026-04-04T08:20:51.913Z</time></trkpt><trkpt lat="44.224959" lon="11.4950304"><ele>273.0</ele><time>2026-04-04T08:20:52.912Z</time></trkpt><trkpt lat="44.2250848" lon="11.495002"><ele>275.6</ele><time>2026-04-04T08:20:53.914Z</time></trkpt><trkpt lat="44.2252005" lon="11.4949531"><ele>278.20000000000005</ele><time>2026-04-04T08:20:54.914Z</time></trkpt><trkpt lat="44.2253075" lon="11.4949033"><ele>280.8</ele><time>2026-04-04T08:20:55.914Z</time></trkpt><trkpt lat="44.2254148" lon="11.4948517"><ele>283.40000000000003</ele><time>2026-04-04T08:20:56.913Z</time></trkpt><trkpt lat="44.2254877" lon="11.4948539"><ele>286.0</ele><time>2026-04-04T08:20:57.914Z</time></trkpt><trkpt lat="44.225532" lon="11.4949539"><ele>286.0</ele><time>2026-04-04T08:20:58.914Z</time></trkpt><trkpt lat="44.2255434" lon="11.4951265"><ele>286.0</ele><time>2026-04-04T08:21:00.914Z</time></trkpt><trkpt lat="44.225489" lon="11.4952206"><ele>286.0</ele><time>2026-04-04T08:21:01.913Z</time></trkpt><trkpt lat="44.2254002" lon="11.4952976"><ele>286.0</ele><time>2026-04-04T08:21:02.912Z</time></trkpt><trkpt lat="44.2252959" lon="11.4953778"><ele>286.0</ele><time>2026-04-04T08:21:03.913Z</time></trkpt><trkpt lat="44.2251903" lon="11.4954647"><ele>287.25</ele><time>2026-04-04T08:21:04.913Z</time></trkpt><trkpt lat="44.2250614" lon="11.4955459"><ele>288.5</ele><time>2026-04-04T08:21:05.914Z</time></trkpt><trkpt lat="44.2249239" lon="11.4956172"><ele>289.75</ele><time>2026-04-04T08:21:06.913Z</time></trkpt><trkpt lat="44.2247753" lon="11.4956644"><ele>291.0</ele><time>2026-04-04T08:21:07.913Z</time></trkpt><trkpt lat="44.2246138" lon="11.4956791"><ele>292.6666666666667</ele><time>2026-04-04T08:21:08.913Z</time></trkpt><trkpt lat="44.2244372" lon="11.4956701"><ele>294.33333333333337</ele><time>2026-04-04T08:21:09.914Z</time></trkpt><trkpt lat="44.2242517" lon="11.4956303"><ele>296.0</ele><time>2026-04-04T08:21:10.913Z</time></trkpt><trkpt lat="44.2240533" lon="11.4955567"><ele>295.0</ele><time>2026-04-04T08:21:11.914Z</time></trkpt><trkpt lat="44.2238599" lon="11.495486"><ele>294.0</ele><time>2026-04-04T08:21:12.913Z</time></trkpt><trkpt lat="44.223685" lon="11.4954148"><ele>293.0</ele><time>2026-04-04T08:21:13.914Z</time></trkpt><trkpt lat="44.2235391" lon="11.4953327"><ele>284.5</ele><time>2026-04-04T08:21:14.914Z</time></trkpt><trkpt lat="44.2234256" lon="11.4952719"><ele>276.0</ele><time>2026-04-04T08:21:15.913Z</time></trkpt><trkpt lat="44.2232987" lon="11.4952262"><ele>267.5</ele><time>2026-04-04T08:21:16.913Z</time></trkpt><trkpt lat="44.2232007" lon="11.4952516"><ele>259.0</ele><time>2026-04-04T08:21:17.912Z</time></trkpt><trkpt lat="44.2231033" lon="11.4954502"><ele>257.3333333333333</ele><time>2026-04-04T08:21:18.913Z</time></trkpt><trkpt lat="44.2230053" lon="11.4955841"><ele>255.66666666666669</ele><time>2026-04-04T08:21:19.914Z</time></trkpt><trkpt lat="44.2228957" lon="11.4957456"><ele>254.0</ele><time>2026-04-04T08:21:20.913Z</time></trkpt><trkpt lat="44.2227748" lon="11.4959294"><ele>254.0</ele><time>2026-04-04T08:21:21.913Z</time></trkpt><trkpt lat="44.2226452" lon="11.496129"><ele>254.0</ele><time>2026-04-04T08:21:22.913Z</time></trkpt><trkpt lat="44.2225286" lon="11.4963253"><ele>254.0</ele><time>2026-04-04T08:21:23.913Z</time></trkpt><trkpt lat="44.2224281" lon="11.4965445"><ele>252.0</ele><time>2026-04-04T08:21:24.914Z</time></trkpt><trkpt lat="44.2223475" lon="11.4967524"><ele>250.0</ele><time>2026-04-04T08:21:25.913Z</time></trkpt><trkpt lat="44.2222834" lon="11.4969249"><ele>248.0</ele><time>2026-04-04T08:21:26.913Z</time></trkpt><trkpt lat="44.2222443" lon="11.4970928"><ele>246.0</ele><time>2026-04-04T08:21:27.912Z</time></trkpt><trkpt lat="44.2222466" lon="11.4972552"><ele>246.0</ele><time>2026-04-04T08:21:28.914Z</time></trkpt><trkpt lat="44.2222596" lon="11.4973988"><ele>246.0</ele><time>2026-04-04T08:21:29.913Z</time></trkpt><trkpt lat="44.2222364" lon="11.4975213"><ele>246.0</ele><time>2026-04-04T08:21:30.914Z</time></trkpt><trkpt lat="44.2221858" lon="11.4976095"><ele>246.0</ele><time>2026-04-04T08:21:31.914Z</time></trkpt><trkpt lat="44.2221075" lon="11.4976537"><ele>246.0</ele><time>2026-04-04T08:21:32.913Z</time></trkpt><trkpt lat="44.2220296" lon="11.497703"><ele>246.0</ele><time>2026-04-04T08:21:33.913Z</time></trkpt><trkpt lat="44.221911" lon="11.4976986"><ele>246.0</ele><time>2026-04-04T08:21:34.913Z</time></trkpt><trkpt lat="44.2218114" lon="11.4977782"><ele>246.0</ele><time>2026-04-04T08:21:35.914Z</time></trkpt><trkpt lat="44.2217267" lon="11.4978975"><ele>246.0</ele><time>2026-04-04T08:21:36.913Z</time></trkpt><trkpt lat="44.2216503" lon="11.4980433"><ele>246.0</ele><time>2026-04-04T08:21:37.914Z</time></trkpt><trkpt lat="44.221583" lon="11.4981862"><ele>250.25</ele><time>2026-04-04T08:21:38.913Z</time></trkpt><trkpt lat="44.2215406" lon="11.4983385"><ele>254.5</ele><time>2026-04-04T08:21:39.913Z</time></trkpt><trkpt lat="44.2215312" lon="11.4985124"><ele>258.75</ele><time>2026-04-04T08:21:40.913Z</time></trkpt><trkpt lat="44.221552" lon="11.4986829"><ele>263.0</ele><time>2026-04-04T08:21:41.914Z</time></trkpt><trkpt lat="44.2215443" lon="11.4988568"><ele>266.75</ele><time>2026-04-04T08:21:42.914Z</time></trkpt><trkpt lat="44.2214896" lon="11.4990136"><ele>270.5</ele><time>2026-04-04T08:21:43.912Z</time></trkpt><trkpt lat="44.2214045" lon="11.4991365"><ele>274.25</ele><time>2026-04-04T08:21:44.912Z</time></trkpt><trkpt lat="44.2213069" lon="11.4992491"><ele>278.0</ele><time>2026-04-04T08:21:45.914Z</time></trkpt><trkpt lat="44.221223" lon="11.4993855"><ele>273.25</ele><time>2026-04-04T08:21:46.914Z</time></trkpt><trkpt lat="44.2211531" lon="11.4995192"><ele>268.5</ele><time>2026-04-04T08:21:47.914Z</time></trkpt><trkpt lat="44.2210773" lon="11.4996318"><ele>263.75</ele><time>2026-04-04T08:21:48.913Z</time></trkpt><trkpt lat="44.2209693" lon="11.4997149"><ele>259.0</ele><time>2026-04-04T08:21:49.914Z</time></trkpt><trkpt lat="44.220842" lon="11.4997682"><ele>259.0</ele><time>2026-04-04T08:21:50.914Z</time></trkpt><trkpt lat="44.2207142" lon="11.4998234"><ele>259.0</ele><time>2026-04-04T08:21:51.914Z</time></trkpt><trkpt lat="44.2205604" lon="11.4998678"><ele>259.0</ele><time>2026-04-04T08:21:52.914Z</time></trkpt><trkpt lat="44.2204321" lon="11.4999598"><ele>259.0</ele><time>2026-04-04T08:21:53.914Z</time></trkpt><trkpt lat="44.2203094" lon="11.5000727"><ele>255.0</ele><time>2026-04-04T08:21:54.913Z</time></trkpt><trkpt lat="44.220183" lon="11.5001616"><ele>251.0</ele><time>2026-04-04T08:21:55.914Z</time></trkpt><trkpt lat="44.2200406" lon="11.5002077"><ele>247.0</ele><time>2026-04-04T08:21:56.913Z</time></trkpt><trkpt lat="44.2198954" lon="11.5002041"><ele>243.0</ele><time>2026-04-04T08:21:57.914Z</time></trkpt><trkpt lat="44.2197569" lon="11.5001976"><ele>240.0</ele><time>2026-04-04T08:21:58.914Z</time></trkpt><trkpt lat="44.2196202" lon="11.5002166"><ele>237.0</ele><time>2026-04-04T08:21:59.913Z</time></trkpt><trkpt lat="44.21949" lon="11.5003061"><ele>234.0</ele><time>2026-04-04T08:22:00.913Z</time></trkpt><trkpt lat="44.2193534" lon="11.5003545"><ele>231.0</ele><time>2026-04-04T08:22:01.913Z</time></trkpt><trkpt lat="44.2192117" lon="11.5003468"><ele>231.0</ele><time>2026-04-04T08:22:02.914Z</time></trkpt><trkpt lat="44.2190713" lon="11.5003254"><ele>231.0</ele><time>2026-04-04T08:22:03.914Z</time></trkpt><trkpt lat="44.2189297" lon="11.5003436"><ele>231.0</ele><time>2026-04-04T08:22:04.914Z</time></trkpt><trkpt lat="44.218789" lon="11.5004091"><ele>231.0</ele><time>2026-04-04T08:22:05.912Z</time></trkpt><trkpt lat="44.2186508" lon="11.5005182"><ele>229.33333333333331</ele><time>2026-04-04T08:22:06.913Z</time></trkpt><trkpt lat="44.2185121" lon="11.5006653"><ele>227.66666666666666</ele><time>2026-04-04T08:22:07.913Z</time></trkpt><trkpt lat="44.2183808" lon="11.5008491"><ele>226.0</ele><time>2026-04-04T08:22:08.914Z</time></trkpt><trkpt lat="44.2182571" lon="11.5010694"><ele>219.66666666666666</ele><time>2026-04-04T08:22:09.913Z</time></trkpt><trkpt lat="44.2181412" lon="11.50131"><ele>213.33333333333331</ele><time>2026-04-04T08:22:10.914Z</time></trkpt><trkpt lat="44.2180499" lon="11.5015543"><ele>207.0</ele><time>2026-04-04T08:22:11.914Z</time></trkpt><trkpt lat="44.2179611" lon="11.5017895"><ele>207.0</ele><time>2026-04-04T08:22:12.913Z</time></trkpt><trkpt lat="44.217877" lon="11.5020127"><ele>207.0</ele><time>2026-04-04T08:22:13.913Z</time></trkpt><trkpt lat="44.2178121" lon="11.5022428"><ele>207.0</ele><time>2026-04-04T08:22:14.913Z</time></trkpt><trkpt lat="44.2177744" lon="11.5024928"><ele>206.5</ele><time>2026-04-04T08:22:15.913Z</time></trkpt><trkpt lat="44.2177408" lon="11.5027233"><ele>206.0</ele><time>2026-04-04T08:22:16.913Z</time></trkpt><trkpt lat="44.2177256" lon="11.5029201"><ele>205.5</ele><time>2026-04-04T08:22:17.912Z</time></trkpt><trkpt lat="44.2177299" lon="11.5030639"><ele>205.0</ele><time>2026-04-04T08:22:18.913Z</time></trkpt><trkpt lat="44.2177686" lon="11.5031838"><ele>205.0</ele><time>2026-04-04T08:22:19.913Z</time></trkpt><trkpt lat="44.2178275" lon="11.5032673"><ele>205.0</ele><time>2026-04-04T08:22:20.914Z</time></trkpt><trkpt lat="44.2178615" lon="11.5033518"><ele>205.0</ele><time>2026-04-04T08:22:21.913Z</time></trkpt><trkpt lat="44.2178051" lon="11.5034716"><ele>205.0</ele><time>2026-04-04T08:22:23.914Z</time></trkpt><trkpt lat="44.2176788" lon="11.5033839"><ele>205.0</ele><time>2026-04-04T08:22:25.914Z</time></trkpt><trkpt lat="44.2176226" lon="11.5032637"><ele>205.0</ele><time>2026-04-04T08:22:26.913Z</time></trkpt><trkpt lat="44.2175809" lon="11.5031008"><ele>205.0</ele><time>2026-04-04T08:22:27.913Z</time></trkpt><trkpt lat="44.2175609" lon="11.5029027"><ele>205.0</ele><time>2026-04-04T08:22:28.913Z</time></trkpt><trkpt lat="44.2175559" lon="11.5027012"><ele>205.0</ele><time>2026-04-04T08:22:29.913Z</time></trkpt><trkpt lat="44.2175521" lon="11.5025263"><ele>205.83333333333331</ele><time>2026-04-04T08:22:30.912Z</time></trkpt><trkpt lat="44.2175227" lon="11.5023939"><ele>206.66666666666666</ele><time>2026-04-04T08:22:31.913Z</time></trkpt><trkpt lat="44.2174732" lon="11.5023195"><ele>207.5</ele><time>2026-04-04T08:22:32.913Z</time></trkpt><trkpt lat="44.217369" lon="11.5023411"><ele>208.33333333333331</ele><time>2026-04-04T08:22:34.912Z</time></trkpt><trkpt lat="44.2173439" lon="11.5024295"><ele>209.16666666666666</ele><time>2026-04-04T08:22:35.913Z</time></trkpt><trkpt lat="44.217345" lon="11.5025592"><ele>210.0</ele><time>2026-04-04T08:22:36.913Z</time></trkpt><trkpt lat="44.2173526" lon="11.5027094"><ele>210.0</ele><time>2026-04-04T08:22:37.912Z</time></trkpt><trkpt lat="44.2173486" lon="11.5028558"><ele>210.0</ele><time>2026-04-04T08:22:38.913Z</time></trkpt><trkpt lat="44.2173384" lon="11.5029719"><ele>210.0</ele><time>2026-04-04T08:22:39.913Z</time></trkpt><trkpt lat="44.2173201" lon="11.5030572"><ele>210.0</ele><time>2026-04-04T08:22:40.913Z</time></trkpt><trkpt lat="44.2172612" lon="11.5031313"><ele>210.0</ele><time>2026-04-04T08:22:42.913Z</time></trkpt><trkpt lat="44.2171236" lon="11.5031154"><ele>208.2</ele><time>2026-04-04T08:22:44.914Z</time></trkpt><trkpt lat="44.2170339" lon="11.5030738"><ele>206.4</ele><time>2026-04-04T08:22:45.913Z</time></trkpt><trkpt lat="44.2169436" lon="11.5030344"><ele>204.60000000000002</ele><time>2026-04-04T08:22:46.913Z</time></trkpt><trkpt lat="44.21686" lon="11.5030475"><ele>202.8</ele><time>2026-04-04T08:22:47.913Z</time></trkpt><trkpt lat="44.2167805" lon="11.5031157"><ele>201.0</ele><time>2026-04-04T08:22:48.913Z</time></trkpt><trkpt lat="44.216709" lon="11.503221"><ele>201.0</ele><time>2026-04-04T08:22:49.912Z</time></trkpt><trkpt lat="44.2166577" lon="11.5033941"><ele>201.0</ele><time>2026-04-04T08:22:50.914Z</time></trkpt><trkpt lat="44.2166213" lon="11.5035781"><ele>201.0</ele><time>2026-04-04T08:22:51.913Z</time></trkpt><trkpt lat="44.216615" lon="11.5038009"><ele>201.0</ele><time>2026-04-04T08:22:52.913Z</time></trkpt><trkpt lat="44.2166332" lon="11.5040318"><ele>200.75</ele><time>2026-04-04T08:22:53.912Z</time></trkpt><trkpt lat="44.2166497" lon="11.5042372"><ele>200.5</ele><time>2026-04-04T08:22:54.913Z</time></trkpt><trkpt lat="44.2166602" lon="11.5044108"><ele>200.25</ele><time>2026-04-04T08:22:55.914Z</time></trkpt><trkpt lat="44.2166443" lon="11.5045537"><ele>200.0</ele><time>2026-04-04T08:22:56.913Z</time></trkpt><trkpt lat="44.2165946" lon="11.5046551"><ele>200.0</ele><time>2026-04-04T08:22:57.913Z</time></trkpt><trkpt lat="44.2165234" lon="11.5046954"><ele>200.0</ele><time>2026-04-04T08:22:58.914Z</time></trkpt><trkpt lat="44.2164269" lon="11.5046896"><ele>200.0</ele><time>2026-04-04T08:22:59.914Z</time></trkpt><trkpt lat="44.2163113" lon="11.5046315"><ele>200.0</ele><time>2026-04-04T08:23:00.914Z</time></trkpt><trkpt lat="44.2161768" lon="11.5045645"><ele>200.0</ele><time>2026-04-04T08:23:01.914Z</time></trkpt><trkpt lat="44.2160167" lon="11.5044901"><ele>204.0</ele><time>2026-04-04T08:23:02.914Z</time></trkpt><trkpt lat="44.2158513" lon="11.5044171"><ele>208.0</ele><time>2026-04-04T08:23:03.914Z</time></trkpt><trkpt lat="44.2156796" lon="11.5043473"><ele>212.0</ele><time>2026-04-04T08:23:04.914Z</time></trkpt><trkpt lat="44.2155146" lon="11.5043021"><ele>213.0</ele><time>2026-04-04T08:23:05.914Z</time></trkpt><trkpt lat="44.2153573" lon="11.5042954"><ele>214.0</ele><time>2026-04-04T08:23:06.913Z</time></trkpt><trkpt lat="44.215211" lon="11.504298"><ele>215.0</ele><time>2026-04-04T08:23:07.913Z</time></trkpt><trkpt lat="44.2150797" lon="11.5042983"><ele>216.0</ele><time>2026-04-04T08:23:08.913Z</time></trkpt><trkpt lat="44.2149564" lon="11.5042989"><ele>216.0</ele><time>2026-04-04T08:23:09.914Z</time></trkpt><trkpt lat="44.2148246" lon="11.5042997"><ele>216.0</ele><time>2026-04-04T08:23:10.914Z</time></trkpt><trkpt lat="44.2146823" lon="11.5042981"><ele>216.0</ele><time>2026-04-04T08:23:11.914Z</time></trkpt><trkpt lat="44.2145282" lon="11.504303"><ele>216.0</ele><time>2026-04-04T08:23:12.914Z</time></trkpt><trkpt lat="44.2143789" lon="11.5043339"><ele>216.0</ele><time>2026-04-04T08:23:13.913Z</time></trkpt><trkpt lat="44.2142452" lon="11.5043909"><ele>216.0</ele><time>2026-04-04T08:23:14.913Z</time></trkpt><trkpt lat="44.2141213" lon="11.5044486"><ele>216.0</ele><time>2026-04-04T08:23:15.914Z</time></trkpt><trkpt lat="44.2140022" lon="11.5045025"><ele>216.0</ele><time>2026-04-04T08:23:16.914Z</time></trkpt><trkpt lat="44.2138846" lon="11.5045556"><ele>215.25</ele><time>2026-04-04T08:23:17.914Z</time></trkpt><trkpt lat="44.2137671" lon="11.5046066"><ele>214.5</ele><time>2026-04-04T08:23:18.913Z</time></trkpt><trkpt lat="44.2136509" lon="11.5046522"><ele>213.75</ele><time>2026-04-04T08:23:19.912Z</time></trkpt><trkpt lat="44.2135351" lon="11.5046913"><ele>213.0</ele><time>2026-04-04T08:23:20.913Z</time></trkpt><trkpt lat="44.2134214" lon="11.5047092"><ele>213.0</ele><time>2026-04-04T08:23:21.913Z</time></trkpt><trkpt lat="44.2133085" lon="11.5047107"><ele>213.0</ele><time>2026-04-04T08:23:22.913Z</time></trkpt><trkpt lat="44.2131986" lon="11.5047092"><ele>213.0</ele><time>2026-04-04T08:23:23.914Z</time></trkpt><trkpt lat="44.2130974" lon="11.5047049"><ele>213.0</ele><time>2026-04-04T08:23:24.914Z</time></trkpt><trkpt lat="44.212999" lon="11.5047057"><ele>213.0</ele><time>2026-04-04T08:23:25.914Z</time></trkpt><trkpt lat="44.212901" lon="11.5047045"><ele>213.4</ele><time>2026-04-04T08:23:26.914Z</time></trkpt><trkpt lat="44.2128039" lon="11.5047021"><ele>213.8</ele><time>2026-04-04T08:23:27.913Z</time></trkpt><trkpt lat="44.212709" lon="11.5047029"><ele>214.2</ele><time>2026-04-04T08:23:28.913Z</time></trkpt><trkpt lat="44.2126143" lon="11.5047072"><ele>214.6</ele><time>2026-04-04T08:23:29.911Z</time></trkpt><trkpt lat="44.2125143" lon="11.5047169"><ele>215.0</ele><time>2026-04-04T08:23:30.911Z</time></trkpt><trkpt lat="44.2124129" lon="11.5047392"><ele>216.0</ele><time>2026-04-04T08:23:31.912Z</time></trkpt><trkpt lat="44.2123117" lon="11.5047718"><ele>217.0</ele><time>2026-04-04T08:23:32.913Z</time></trkpt><trkpt lat="44.2122077" lon="11.5048041"><ele>218.0</ele><time>2026-04-04T08:23:33.912Z</time></trkpt><trkpt lat="44.2120961" lon="11.504826"><ele>219.0</ele><time>2026-04-04T08:23:34.913Z</time></trkpt><trkpt lat="44.2119813" lon="11.5048293"><ele>220.0</ele><time>2026-04-04T08:23:35.913Z</time></trkpt><trkpt lat="44.2118636" lon="11.5048121"><ele>220.0</ele><time>2026-04-04T08:23:36.913Z</time></trkpt><trkpt lat="44.2117512" lon="11.5047926"><ele>220.0</ele><time>2026-04-04T08:23:37.912Z</time></trkpt><trkpt lat="44.2116401" lon="11.5047619"><ele>220.0</ele><time>2026-04-04T08:23:38.912Z</time></trkpt><trkpt lat="44.2115378" lon="11.5047243"><ele>220.0</ele><time>2026-04-04T08:23:39.913Z</time></trkpt><trkpt lat="44.2114428" lon="11.5046837"><ele>220.0</ele><time>2026-04-04T08:23:40.912Z</time></trkpt><trkpt lat="44.2113587" lon="11.5046528"><ele>221.0</ele><time>2026-04-04T08:23:41.912Z</time></trkpt><trkpt lat="44.211268" lon="11.5046307"><ele>222.0</ele><time>2026-04-04T08:23:42.913Z</time></trkpt><trkpt lat="44.2111721" lon="11.5045836"><ele>223.0</ele><time>2026-04-04T08:23:43.913Z</time></trkpt><trkpt lat="44.211047" lon="11.5045176"><ele>224.0</ele><time>2026-04-04T08:23:44.913Z</time></trkpt><trkpt lat="44.2108976" lon="11.5044558"><ele>224.33333333333334</ele><time>2026-04-04T08:23:45.913Z</time></trkpt><trkpt lat="44.2107273" lon="11.5043789"><ele>224.66666666666669</ele><time>2026-04-04T08:23:46.913Z</time></trkpt><trkpt lat="44.2105388" lon="11.5042946"><ele>225.0</ele><time>2026-04-04T08:23:47.913Z</time></trkpt><trkpt lat="44.2103387" lon="11.5042052"><ele>226.5</ele><time>2026-04-04T08:23:48.913Z</time></trkpt><trkpt lat="44.2101219" lon="11.5041101"><ele>228.0</ele><time>2026-04-04T08:23:49.913Z</time></trkpt><trkpt lat="44.2099099" lon="11.5040149"><ele>226.33333333333331</ele><time>2026-04-04T08:23:50.912Z</time></trkpt><trkpt lat="44.2097164" lon="11.5039268"><ele>224.66666666666666</ele><time>2026-04-04T08:23:51.913Z</time></trkpt><trkpt lat="44.2095258" lon="11.503841"><ele>223.0</ele><time>2026-04-04T08:23:52.913Z</time></trkpt><trkpt lat="44.2093502" lon="11.5037635"><ele>224.66666666666666</ele><time>2026-04-04T08:23:53.913Z</time></trkpt><trkpt lat="44.2091844" lon="11.5036872"><ele>226.33333333333331</ele><time>2026-04-04T08:23:54.913Z</time></trkpt><trkpt lat="44.209025" lon="11.5036108"><ele>228.0</ele><time>2026-04-04T08:23:55.913Z</time></trkpt><trkpt lat="44.2088696" lon="11.503534"><ele>230.5</ele><time>2026-04-04T08:23:56.913Z</time></trkpt><trkpt lat="44.2087363" lon="11.5034693"><ele>233.0</ele><time>2026-04-04T08:23:57.913Z</time></trkpt><trkpt lat="44.2086239" lon="11.5034301"><ele>235.5</ele><time>2026-04-04T08:23:58.913Z</time></trkpt><trkpt lat="44.208514" lon="11.5034471"><ele>238.0</ele><time>2026-04-04T08:23:59.913Z</time></trkpt><trkpt lat="44.2084143" lon="11.5035153"><ele>238.0</ele><time>2026-04-04T08:24:00.913Z</time></trkpt><trkpt lat="44.2083287" lon="11.5036225"><ele>238.0</ele><time>2026-04-04T08:24:01.912Z</time></trkpt><trkpt lat="44.2082264" lon="11.5036911"><ele>238.0</ele><time>2026-04-04T08:24:02.912Z</time></trkpt><trkpt lat="44.2081094" lon="11.5037159"><ele>238.0</ele><time>2026-04-04T08:24:03.913Z</time></trkpt><trkpt lat="44.2079812" lon="11.5036901"><ele>239.33333333333331</ele><time>2026-04-04T08:24:04.913Z</time></trkpt><trkpt lat="44.2078344" lon="11.5036326"><ele>240.66666666666669</ele><time>2026-04-04T08:24:05.913Z</time></trkpt><trkpt lat="44.2076663" lon="11.5035855"><ele>242.0</ele><time>2026-04-04T08:24:06.912Z</time></trkpt><trkpt lat="44.2074764" lon="11.5035558"><ele>242.33333333333334</ele><time>2026-04-04T08:24:07.912Z</time></trkpt><trkpt lat="44.2072652" lon="11.5035292"><ele>242.66666666666669</ele><time>2026-04-04T08:24:08.912Z</time></trkpt><trkpt lat="44.2070359" lon="11.5035025"><ele>243.0</ele><time>2026-04-04T08:24:09.912Z</time></trkpt><trkpt lat="44.2067912" lon="11.5034754"><ele>243.0</ele><time>2026-04-04T08:24:10.913Z</time></trkpt><trkpt lat="44.2065401" lon="11.5034426"><ele>243.0</ele><time>2026-04-04T08:24:11.913Z</time></trkpt><trkpt lat="44.2062806" lon="11.5034075"><ele>242.0</ele><time>2026-04-04T08:24:12.913Z</time></trkpt><trkpt lat="44.2060093" lon="11.5033749"><ele>241.0</ele><time>2026-04-04T08:24:13.912Z</time></trkpt><trkpt lat="44.2057315" lon="11.5033424"><ele>242.0</ele><time>2026-04-04T08:24:14.913Z</time></trkpt><trkpt lat="44.2054537" lon="11.5033092"><ele>243.0</ele><time>2026-04-04T08:24:15.913Z</time></trkpt><trkpt lat="44.2051789" lon="11.5032755"><ele>243.0</ele><time>2026-04-04T08:24:16.913Z</time></trkpt><trkpt lat="44.2049146" lon="11.5032328"><ele>243.0</ele><time>2026-04-04T08:24:17.912Z</time></trkpt><trkpt lat="44.204665" lon="11.5031808"><ele>244.0</ele><time>2026-04-04T08:24:18.912Z</time></trkpt><trkpt lat="44.2044253" lon="11.5031377"><ele>245.0</ele><time>2026-04-04T08:24:19.912Z</time></trkpt><trkpt lat="44.2041859" lon="11.5031209"><ele>244.33333333333334</ele><time>2026-04-04T08:24:20.912Z</time></trkpt><trkpt lat="44.2039543" lon="11.503131"><ele>243.66666666666669</ele><time>2026-04-04T08:24:21.912Z</time></trkpt><trkpt lat="44.2037436" lon="11.5031479"><ele>243.0</ele><time>2026-04-04T08:24:22.911Z</time></trkpt><trkpt lat="44.2035476" lon="11.5031607"><ele>243.0</ele><time>2026-04-04T08:24:23.912Z</time></trkpt><trkpt lat="44.2033646" lon="11.5031548"><ele>243.0</ele><time>2026-04-04T08:24:24.913Z</time></trkpt><trkpt lat="44.2031978" lon="11.5031123"><ele>243.0</ele><time>2026-04-04T08:24:25.913Z</time></trkpt><trkpt lat="44.2030541" lon="11.5030374"><ele>245.0</ele><time>2026-04-04T08:24:26.912Z</time></trkpt><trkpt lat="44.2029231" lon="11.5029941"><ele>247.0</ele><time>2026-04-04T08:24:27.912Z</time></trkpt><trkpt lat="44.2028027" lon="11.5030194"><ele>249.0</ele><time>2026-04-04T08:24:28.913Z</time></trkpt><trkpt lat="44.2026967" lon="11.5031039"><ele>251.0</ele><time>2026-04-04T08:24:29.913Z</time></trkpt><trkpt lat="44.2025809" lon="11.5032008"><ele>251.0</ele><time>2026-04-04T08:24:30.911Z</time></trkpt><trkpt lat="44.2024399" lon="11.5032729"><ele>251.0</ele><time>2026-04-04T08:24:31.912Z</time></trkpt><trkpt lat="44.2022794" lon="11.5032964"><ele>251.0</ele><time>2026-04-04T08:24:32.913Z</time></trkpt><trkpt lat="44.2021059" lon="11.5032777"><ele>251.66666666666669</ele><time>2026-04-04T08:24:33.913Z</time></trkpt><trkpt lat="44.2019195" lon="11.5032358"><ele>252.33333333333331</ele><time>2026-04-04T08:24:34.913Z</time></trkpt><trkpt lat="44.2017144" lon="11.5031969"><ele>253.0</ele><time>2026-04-04T08:24:35.913Z</time></trkpt><trkpt lat="44.2014944" lon="11.503173"><ele>253.33333333333331</ele><time>2026-04-04T08:24:36.912Z</time></trkpt><trkpt lat="44.2012649" lon="11.5031578"><ele>253.66666666666669</ele><time>2026-04-04T08:24:37.912Z</time></trkpt><trkpt lat="44.2010658" lon="11.5031366"><ele>254.0</ele><time>2026-04-04T08:24:38.913Z</time></trkpt><trkpt lat="44.2008864" lon="11.5031311"><ele>254.0</ele><time>2026-04-04T08:24:39.913Z</time></trkpt><trkpt lat="44.2007003" lon="11.5031211"><ele>254.0</ele><time>2026-04-04T08:24:40.912Z</time></trkpt><trkpt lat="44.2005116" lon="11.5030819"><ele>254.0</ele><time>2026-04-04T08:24:41.912Z</time></trkpt><trkpt lat="44.2003427" lon="11.5030522"><ele>252.75</ele><time>2026-04-04T08:24:42.913Z</time></trkpt><trkpt lat="44.2002034" lon="11.5030125"><ele>251.5</ele><time>2026-04-04T08:24:43.911Z</time></trkpt><trkpt lat="44.2000866" lon="11.5029228"><ele>250.25</ele><time>2026-04-04T08:24:44.913Z</time></trkpt><trkpt lat="44.1999869" lon="11.502788"><ele>249.0</ele><time>2026-04-04T08:24:45.912Z</time></trkpt><trkpt lat="44.1999114" lon="11.502643"><ele>253.25</ele><time>2026-04-04T08:24:46.913Z</time></trkpt><trkpt lat="44.1998142" lon="11.5025273"><ele>257.5</ele><time>2026-04-04T08:24:47.913Z</time></trkpt><trkpt lat="44.1996838" lon="11.5024575"><ele>261.75</ele><time>2026-04-04T08:24:48.913Z</time></trkpt><trkpt lat="44.199543" lon="11.5024456"><ele>266.0</ele><time>2026-04-04T08:24:49.912Z</time></trkpt><trkpt lat="44.1994159" lon="11.502483"><ele>266.0</ele><time>2026-04-04T08:24:50.912Z</time></trkpt><trkpt lat="44.199294" lon="11.5025782"><ele>266.0</ele><time>2026-04-04T08:24:51.913Z</time></trkpt><trkpt lat="44.1991622" lon="11.5026538"><ele>266.0</ele><time>2026-04-04T08:24:52.913Z</time></trkpt><trkpt lat="44.199018" lon="11.5026771"><ele>266.0</ele><time>2026-04-04T08:24:53.912Z</time></trkpt><trkpt lat="44.1988629" lon="11.5026564"><ele>261.0</ele><time>2026-04-04T08:24:54.912Z</time></trkpt><trkpt lat="44.1987042" lon="11.5026173"><ele>256.0</ele><time>2026-04-04T08:24:55.912Z</time></trkpt><trkpt lat="44.1985565" lon="11.5025767"><ele>251.0</ele><time>2026-04-04T08:24:56.912Z</time></trkpt><trkpt lat="44.1984173" lon="11.5025157"><ele>251.0</ele><time>2026-04-04T08:24:57.913Z</time></trkpt><trkpt lat="44.1982864" lon="11.5024033"><ele>251.0</ele><time>2026-04-04T08:24:58.912Z</time></trkpt><trkpt lat="44.1981554" lon="11.5022763"><ele>251.0</ele><time>2026-04-04T08:24:59.913Z</time></trkpt><trkpt lat="44.198013" lon="11.5021587"><ele>256.25</ele><time>2026-04-04T08:25:00.913Z</time></trkpt><trkpt lat="44.1978802" lon="11.5020576"><ele>261.5</ele><time>2026-04-04T08:25:01.913Z</time></trkpt><trkpt lat="44.1977555" lon="11.5019695"><ele>266.75</ele><time>2026-04-04T08:25:02.913Z</time></trkpt><trkpt lat="44.1976409" lon="11.501914"><ele>272.0</ele><time>2026-04-04T08:25:03.912Z</time></trkpt><trkpt lat="44.1975261" lon="11.5019238"><ele>272.0</ele><time>2026-04-04T08:25:04.912Z</time></trkpt><trkpt lat="44.1974121" lon="11.501995"><ele>272.0</ele><time>2026-04-04T08:25:05.911Z</time></trkpt><trkpt lat="44.1972981" lon="11.5021045"><ele>272.0</ele><time>2026-04-04T08:25:06.913Z</time></trkpt><trkpt lat="44.1971723" lon="11.5022127"><ele>272.0</ele><time>2026-04-04T08:25:07.911Z</time></trkpt><trkpt lat="44.1970379" lon="11.5023101"><ele>262.6666666666667</ele><time>2026-04-04T08:25:08.913Z</time></trkpt><trkpt lat="44.1968922" lon="11.5023731"><ele>253.33333333333331</ele><time>2026-04-04T08:25:09.912Z</time></trkpt><trkpt lat="44.1967384" lon="11.5023912"><ele>244.0</ele><time>2026-04-04T08:25:10.913Z</time></trkpt><trkpt lat="44.1965842" lon="11.5023604"><ele>235.66666666666666</ele><time>2026-04-04T08:25:11.912Z</time></trkpt><trkpt lat="44.1964294" lon="11.502289"><ele>227.33333333333331</ele><time>2026-04-04T08:25:12.913Z</time></trkpt><trkpt lat="44.1962867" lon="11.5022013"><ele>219.0</ele><time>2026-04-04T08:25:13.914Z</time></trkpt><trkpt lat="44.196157" lon="11.5021154"><ele>224.75</ele><time>2026-04-04T08:25:14.914Z</time></trkpt><trkpt lat="44.1960348" lon="11.5020362"><ele>230.5</ele><time>2026-04-04T08:25:15.913Z</time></trkpt><trkpt lat="44.1959276" lon="11.5019457"><ele>236.25</ele><time>2026-04-04T08:25:16.912Z</time></trkpt><trkpt lat="44.1958444" lon="11.5018271"><ele>242.0</ele><time>2026-04-04T08:25:17.913Z</time></trkpt><trkpt lat="44.1957844" lon="11.5016765"><ele>242.0</ele><time>2026-04-04T08:25:18.912Z</time></trkpt><trkpt lat="44.1957539" lon="11.5014861"><ele>242.0</ele><time>2026-04-04T08:25:19.911Z</time></trkpt><trkpt lat="44.195745" lon="11.501299"><ele>242.0</ele><time>2026-04-04T08:25:20.913Z</time></trkpt><trkpt lat="44.195736" lon="11.5011271"><ele>242.0</ele><time>2026-04-04T08:25:21.913Z</time></trkpt><trkpt lat="44.1957294" lon="11.5009644"><ele>243.39999999999998</ele><time>2026-04-04T08:25:22.913Z</time></trkpt><trkpt lat="44.1957173" lon="11.5008158"><ele>244.79999999999998</ele><time>2026-04-04T08:25:23.913Z</time></trkpt><trkpt lat="44.1957013" lon="11.5006766"><ele>246.2</ele><time>2026-04-04T08:25:24.913Z</time></trkpt><trkpt lat="44.1956733" lon="11.5005508"><ele>247.6</ele><time>2026-04-04T08:25:25.912Z</time></trkpt><trkpt lat="44.1956198" lon="11.5004378"><ele>249.0</ele><time>2026-04-04T08:25:26.913Z</time></trkpt><trkpt lat="44.1955499" lon="11.5003609"><ele>249.0</ele><time>2026-04-04T08:25:27.912Z</time></trkpt><trkpt lat="44.1954639" lon="11.5003431"><ele>248.99999999999997</ele><time>2026-04-04T08:25:28.911Z</time></trkpt><trkpt lat="44.1953763" lon="11.5003861"><ele>248.99999999999997</ele><time>2026-04-04T08:25:29.912Z</time></trkpt><trkpt lat="44.195286" lon="11.5004615"><ele>249.0</ele><time>2026-04-04T08:25:30.913Z</time></trkpt><trkpt lat="44.1951916" lon="11.5005174"><ele>249.0</ele><time>2026-04-04T08:25:31.913Z</time></trkpt><trkpt lat="44.1950815" lon="11.5005178"><ele>249.0</ele><time>2026-04-04T08:25:32.912Z</time></trkpt><trkpt lat="44.1949787" lon="11.5004539"><ele>249.0</ele><time>2026-04-04T08:25:33.912Z</time></trkpt><trkpt lat="44.1948939" lon="11.5003458"><ele>249.0</ele><time>2026-04-04T08:25:34.912Z</time></trkpt><trkpt lat="44.1948138" lon="11.5002257"><ele>249.0</ele><time>2026-04-04T08:25:35.911Z</time></trkpt><trkpt lat="44.1947117" lon="11.5001572"><ele>250.6</ele><time>2026-04-04T08:25:36.913Z</time></trkpt><trkpt lat="44.1946015" lon="11.5001345"><ele>252.2</ele><time>2026-04-04T08:25:37.912Z</time></trkpt><trkpt lat="44.1944887" lon="11.5001364"><ele>253.79999999999998</ele><time>2026-04-04T08:25:38.913Z</time></trkpt><trkpt lat="44.194383" lon="11.5001504"><ele>255.39999999999998</ele><time>2026-04-04T08:25:39.913Z</time></trkpt><trkpt lat="44.194288" lon="11.500177"><ele>257.0</ele><time>2026-04-04T08:25:40.913Z</time></trkpt><trkpt lat="44.1942015" lon="11.5002151"><ele>257.0</ele><time>2026-04-04T08:25:41.912Z</time></trkpt><trkpt lat="44.1941165" lon="11.5002563"><ele>257.0</ele><time>2026-04-04T08:25:42.913Z</time></trkpt><trkpt lat="44.1940215" lon="11.5002979"><ele>257.0</ele><time>2026-04-04T08:25:43.912Z</time></trkpt><trkpt lat="44.1939176" lon="11.5003404"><ele>257.0</ele><time>2026-04-04T08:25:44.911Z</time></trkpt><trkpt lat="44.1938049" lon="11.5003764"><ele>257.0</ele><time>2026-04-04T08:25:45.913Z</time></trkpt><trkpt lat="44.1936812" lon="11.5003931"><ele>257.75</ele><time>2026-04-04T08:25:46.913Z</time></trkpt><trkpt lat="44.1935522" lon="11.50039"><ele>258.5</ele><time>2026-04-04T08:25:47.911Z</time></trkpt><trkpt lat="44.1934287" lon="11.5003724"><ele>259.25</ele><time>2026-04-04T08:25:48.912Z</time></trkpt><trkpt lat="44.1933122" lon="11.5003569"><ele>260.0</ele><time>2026-04-04T08:25:49.913Z</time></trkpt><trkpt lat="44.1931993" lon="11.5003546"><ele>257.6</ele><time>2026-04-04T08:25:50.913Z</time></trkpt><trkpt lat="44.1930889" lon="11.500362"><ele>255.2</ele><time>2026-04-04T08:25:51.913Z</time></trkpt><trkpt lat="44.1929839" lon="11.500367"><ele>252.8</ele><time>2026-04-04T08:25:52.911Z</time></trkpt><trkpt lat="44.1928759" lon="11.5003619"><ele>250.4</ele><time>2026-04-04T08:25:53.913Z</time></trkpt><trkpt lat="44.1927737" lon="11.5003385"><ele>248.0</ele><time>2026-04-04T08:25:54.912Z</time></trkpt><trkpt lat="44.1926775" lon="11.5002965"><ele>248.0</ele><time>2026-04-04T08:25:55.913Z</time></trkpt><trkpt lat="44.192583" lon="11.5002381"><ele>248.0</ele><time>2026-04-04T08:25:56.913Z</time></trkpt><trkpt lat="44.1924926" lon="11.5001755"><ele>248.0</ele><time>2026-04-04T08:25:57.911Z</time></trkpt><trkpt lat="44.1924066" lon="11.5001195"><ele>248.0</ele><time>2026-04-04T08:25:58.913Z</time></trkpt><trkpt lat="44.1923304" lon="11.5000794"><ele>248.0</ele><time>2026-04-04T08:25:59.913Z</time></trkpt><trkpt lat="44.1922306" lon="11.5000459"><ele>248.66666666666669</ele><time>2026-04-04T08:26:01.912Z</time></trkpt><trkpt lat="44.1921502" lon="11.5000668"><ele>249.33333333333334</ele><time>2026-04-04T08:26:28.913Z</time></trkpt><trkpt lat="44.1921058" lon="11.500143"><ele>250.0</ele><time>2026-04-04T08:26:29.913Z</time></trkpt><trkpt lat="44.1920554" lon="11.5002309"><ele>250.66666666666669</ele><time>2026-04-04T08:26:30.912Z</time></trkpt><trkpt lat="44.1919871" lon="11.5003286"><ele>251.33333333333334</ele><time>2026-04-04T08:26:31.912Z</time></trkpt><trkpt lat="44.1918993" lon="11.5004186"><ele>252.0</ele><time>2026-04-04T08:26:32.912Z</time></trkpt><trkpt lat="44.1917937" lon="11.5004816"><ele>245.0</ele><time>2026-04-04T08:26:33.912Z</time></trkpt><trkpt lat="44.1916674" lon="11.5005129"><ele>238.0</ele><time>2026-04-04T08:26:34.912Z</time></trkpt><trkpt lat="44.1915329" lon="11.5005097"><ele>231.0</ele><time>2026-04-04T08:26:35.912Z</time></trkpt><trkpt lat="44.191387" lon="11.500466"><ele>224.0</ele><time>2026-04-04T08:26:36.913Z</time></trkpt><trkpt lat="44.1912404" lon="11.5003867"><ele>224.0</ele><time>2026-04-04T08:26:37.912Z</time></trkpt><trkpt lat="44.191097" lon="11.5002672"><ele>224.0</ele><time>2026-04-04T08:26:38.912Z</time></trkpt><trkpt lat="44.1909544" lon="11.5001361"><ele>224.0</ele><time>2026-04-04T08:26:39.913Z</time></trkpt><trkpt lat="44.1908143" lon="11.5000232"><ele>224.0</ele><time>2026-04-04T08:26:40.913Z</time></trkpt><trkpt lat="44.1906785" lon="11.4999144"><ele>224.0</ele><time>2026-04-04T08:26:41.912Z</time></trkpt><trkpt lat="44.1905364" lon="11.4998055"><ele>224.0</ele><time>2026-04-04T08:26:42.912Z</time></trkpt><trkpt lat="44.1903843" lon="11.4997047"><ele>220.33333333333334</ele><time>2026-04-04T08:26:43.912Z</time></trkpt><trkpt lat="44.1902316" lon="11.4996188"><ele>216.66666666666669</ele><time>2026-04-04T08:26:44.913Z</time></trkpt><trkpt lat="44.1900863" lon="11.4995467"><ele>213.0</ele><time>2026-04-04T08:26:45.913Z</time></trkpt><trkpt lat="44.1899453" lon="11.4994925"><ele>218.0</ele><time>2026-04-04T08:26:46.913Z</time></trkpt><trkpt lat="44.1897946" lon="11.4994945"><ele>223.0</ele><time>2026-04-04T08:26:47.913Z</time></trkpt><trkpt lat="44.1896404" lon="11.4995419"><ele>228.0</ele><time>2026-04-04T08:26:48.913Z</time></trkpt><trkpt lat="44.1894858" lon="11.4996278"><ele>228.0</ele><time>2026-04-04T08:26:49.913Z</time></trkpt><trkpt lat="44.1893345" lon="11.4997289"><ele>228.0</ele><time>2026-04-04T08:26:50.913Z</time></trkpt><trkpt lat="44.1891902" lon="11.499849"><ele>228.0</ele><time>2026-04-04T08:26:51.912Z</time></trkpt><trkpt lat="44.1890625" lon="11.5000032"><ele>225.0</ele><time>2026-04-04T08:26:52.912Z</time></trkpt><trkpt lat="44.1889419" lon="11.5001845"><ele>222.0</ele><time>2026-04-04T08:26:53.912Z</time></trkpt><trkpt lat="44.1888276" lon="11.5003876"><ele>219.0</ele><time>2026-04-04T08:26:54.913Z</time></trkpt><trkpt lat="44.1887242" lon="11.5006046"><ele>219.0</ele><time>2026-04-04T08:26:55.913Z</time></trkpt><trkpt lat="44.1886386" lon="11.5008156"><ele>219.0</ele><time>2026-04-04T08:26:56.913Z</time></trkpt><trkpt lat="44.1885629" lon="11.5010164"><ele>219.0</ele><time>2026-04-04T08:26:57.913Z</time></trkpt><trkpt lat="44.1884965" lon="11.5012004"><ele>216.0</ele><time>2026-04-04T08:26:58.911Z</time></trkpt><trkpt lat="44.1884367" lon="11.501358"><ele>213.0</ele><time>2026-04-04T08:26:59.912Z</time></trkpt><trkpt lat="44.1883576" lon="11.501472"><ele>210.0</ele><time>2026-04-04T08:27:00.912Z</time></trkpt><trkpt lat="44.1882641" lon="11.5015409"><ele>207.0</ele><time>2026-04-04T08:27:01.912Z</time></trkpt><trkpt lat="44.1881474" lon="11.5015665"><ele>205.66666666666669</ele><time>2026-04-04T08:27:02.913Z</time></trkpt><trkpt lat="44.1880065" lon="11.5015711"><ele>204.33333333333334</ele><time>2026-04-04T08:27:03.911Z</time></trkpt><trkpt lat="44.1878552" lon="11.5015697"><ele>203.0</ele><time>2026-04-04T08:27:04.913Z</time></trkpt><trkpt lat="44.1876953" lon="11.5015727"><ele>203.0</ele><time>2026-04-04T08:27:05.912Z</time></trkpt><trkpt lat="44.1875297" lon="11.5015747"><ele>203.0</ele><time>2026-04-04T08:27:06.913Z</time></trkpt><trkpt lat="44.1873661" lon="11.5015722"><ele>203.0</ele><time>2026-04-04T08:27:07.913Z</time></trkpt><trkpt lat="44.1872102" lon="11.5015729"><ele>210.75</ele><time>2026-04-04T08:27:08.913Z</time></trkpt><trkpt lat="44.1870653" lon="11.5015786"><ele>218.5</ele><time>2026-04-04T08:27:09.911Z</time></trkpt><trkpt lat="44.1869404" lon="11.5015828"><ele>226.25</ele><time>2026-04-04T08:27:10.912Z</time></trkpt><trkpt lat="44.1868426" lon="11.5015541"><ele>234.0</ele><time>2026-04-04T08:27:11.912Z</time></trkpt><trkpt lat="44.1867777" lon="11.5014414"><ele>234.0</ele><time>2026-04-04T08:27:13.911Z</time></trkpt><trkpt lat="44.1867776" lon="11.501351"><ele>234.0</ele><time>2026-04-04T08:27:14.912Z</time></trkpt><trkpt lat="44.1867917" lon="11.50125"><ele>234.0</ele><time>2026-04-04T08:27:15.913Z</time></trkpt><trkpt lat="44.1868052" lon="11.5010893"><ele>234.0</ele><time>2026-04-04T08:27:17.913Z</time></trkpt><trkpt lat="44.1868133" lon="11.5009881"><ele>234.0</ele><time>2026-04-04T08:27:19.911Z</time></trkpt><trkpt lat="44.1868293" lon="11.5008761"><ele>234.0</ele><time>2026-04-04T08:28:44.911Z</time></trkpt><trkpt lat="44.1868549" lon="11.5007832"><ele>233.66666666666666</ele><time>2026-04-04T08:28:45.912Z</time></trkpt><trkpt lat="44.1868959" lon="11.5006864"><ele>233.33333333333331</ele><time>2026-04-04T08:28:46.91Z</time></trkpt><trkpt lat="44.1869383" lon="11.5005712"><ele>233.0</ele><time>2026-04-04T08:28:47.912Z</time></trkpt><trkpt lat="44.1869752" lon="11.5004527"><ele>232.66666666666666</ele><time>2026-04-04T08:28:48.911Z</time></trkpt><trkpt lat="44.1869827" lon="11.5003318"><ele>232.33333333333331</ele><time>2026-04-04T08:28:49.912Z</time></trkpt><trkpt lat="44.1869515" lon="11.500217"><ele>232.0</ele><time>2026-04-04T08:28:50.911Z</time></trkpt><trkpt lat="44.1868793" lon="11.5001191"><ele>230.25</ele><time>2026-04-04T08:28:51.912Z</time></trkpt><trkpt lat="44.1867751" lon="11.5000517"><ele>228.5</ele><time>2026-04-04T08:28:52.912Z</time></trkpt><trkpt lat="44.1866491" lon="11.5000236"><ele>226.75</ele><time>2026-04-04T08:28:53.912Z</time></trkpt><trkpt lat="44.1865088" lon="11.5000215"><ele>225.0</ele><time>2026-04-04T08:28:54.912Z</time></trkpt><trkpt lat="44.1863762" lon="11.5000587"><ele>225.0</ele><time>2026-04-04T08:28:55.912Z</time></trkpt><trkpt lat="44.1862479" lon="11.500132"><ele>225.0</ele><time>2026-04-04T08:28:56.91Z</time></trkpt><trkpt lat="44.1861272" lon="11.5002302"><ele>225.0</ele><time>2026-04-04T08:28:57.912Z</time></trkpt><trkpt lat="44.1860205" lon="11.5003411"><ele>225.0</ele><time>2026-04-04T08:28:58.912Z</time></trkpt><trkpt lat="44.1859343" lon="11.5004644"><ele>228.5</ele><time>2026-04-04T08:28:59.911Z</time></trkpt><trkpt lat="44.185864" lon="11.5006241"><ele>232.0</ele><time>2026-04-04T08:29:00.912Z</time></trkpt><trkpt lat="44.1858156" lon="11.5008147"><ele>235.5</ele><time>2026-04-04T08:29:01.912Z</time></trkpt><trkpt lat="44.1857816" lon="11.5010307"><ele>239.0</ele><time>2026-04-04T08:29:02.912Z</time></trkpt><trkpt lat="44.1857396" lon="11.5012509"><ele>240.75</ele><time>2026-04-04T08:29:03.912Z</time></trkpt><trkpt lat="44.1856614" lon="11.5014394"><ele>242.5</ele><time>2026-04-04T08:29:04.911Z</time></trkpt><trkpt lat="44.1855727" lon="11.5016102"><ele>244.25</ele><time>2026-04-04T08:29:05.911Z</time></trkpt><trkpt lat="44.1854954" lon="11.5017753"><ele>246.0</ele><time>2026-04-04T08:29:06.911Z</time></trkpt><trkpt lat="44.185446" lon="11.5019648"><ele>247.66666666666669</ele><time>2026-04-04T08:29:07.911Z</time></trkpt><trkpt lat="44.1854156" lon="11.5021774"><ele>249.33333333333334</ele><time>2026-04-04T08:29:08.911Z</time></trkpt><trkpt lat="44.1853996" lon="11.5023968"><ele>251.0</ele><time>2026-04-04T08:29:09.91Z</time></trkpt><trkpt lat="44.1854" lon="11.5026031"><ele>251.0</ele><time>2026-04-04T08:29:10.911Z</time></trkpt><trkpt lat="44.1854269" lon="11.5027806"><ele>251.0</ele><time>2026-04-04T08:29:11.91Z</time></trkpt><trkpt lat="44.1854903" lon="11.5029314"><ele>251.0</ele><time>2026-04-04T08:29:12.912Z</time></trkpt><trkpt lat="44.1855647" lon="11.5030734"><ele>251.0</ele><time>2026-04-04T08:29:13.912Z</time></trkpt><trkpt lat="44.1855986" lon="11.5032458"><ele>254.4</ele><time>2026-04-04T08:29:14.911Z</time></trkpt><trkpt lat="44.1856076" lon="11.5034276"><ele>257.8</ele><time>2026-04-04T08:29:15.911Z</time></trkpt><trkpt lat="44.1856071" lon="11.503584"><ele>261.20000000000005</ele><time>2026-04-04T08:29:16.911Z</time></trkpt><trkpt lat="44.1855912" lon="11.5037034"><ele>264.6</ele><time>2026-04-04T08:29:17.91Z</time></trkpt><trkpt lat="44.1855468" lon="11.5037827"><ele>268.0</ele><time>2026-04-04T08:29:18.912Z</time></trkpt><trkpt lat="44.1854784" lon="11.5038163"><ele>268.0</ele><time>2026-04-04T08:29:19.911Z</time></trkpt><trkpt lat="44.1853926" lon="11.5038041"><ele>268.0</ele><time>2026-04-04T08:29:20.912Z</time></trkpt><trkpt lat="44.185309" lon="11.5037354"><ele>268.0</ele><time>2026-04-04T08:29:21.912Z</time></trkpt><trkpt lat="44.1852466" lon="11.5036283"><ele>268.0</ele><time>2026-04-04T08:29:22.911Z</time></trkpt><trkpt lat="44.1851876" lon="11.5035298"><ele>268.0</ele><time>2026-04-04T08:29:23.91Z</time></trkpt><trkpt lat="44.1851174" lon="11.5034396"><ele>268.0</ele><time>2026-04-04T08:29:24.912Z</time></trkpt><trkpt lat="44.1850373" lon="11.5033487"><ele>268.0</ele><time>2026-04-04T08:29:25.912Z</time></trkpt><trkpt lat="44.1849559" lon="11.5032759"><ele>268.0</ele><time>2026-04-04T08:29:26.912Z</time></trkpt><trkpt lat="44.1848538" lon="11.5032515"><ele>268.0</ele><time>2026-04-04T08:29:27.912Z</time></trkpt><trkpt lat="44.1847525" lon="11.5032492"><ele>268.0</ele><time>2026-04-04T08:29:28.912Z</time></trkpt><trkpt lat="44.184614" lon="11.5033272"><ele>269.3333333333333</ele><time>2026-04-04T08:29:29.912Z</time></trkpt><trkpt lat="44.1844558" lon="11.5033578"><ele>270.6666666666667</ele><time>2026-04-04T08:29:30.912Z</time></trkpt><trkpt lat="44.1842929" lon="11.5033669"><ele>272.0</ele><time>2026-04-04T08:29:31.912Z</time></trkpt><trkpt lat="44.1841429" lon="11.5033521"><ele>273.75</ele><time>2026-04-04T08:29:32.91Z</time></trkpt><trkpt lat="44.1840131" lon="11.5033611"><ele>275.5</ele><time>2026-04-04T08:29:33.911Z</time></trkpt><trkpt lat="44.1838896" lon="11.5033726"><ele>277.25</ele><time>2026-04-04T08:29:34.911Z</time></trkpt><trkpt lat="44.1837893" lon="11.5035095"><ele>279.0</ele><time>2026-04-04T08:29:35.911Z</time></trkpt><trkpt lat="44.1836818" lon="11.5036511"><ele>284.0</ele><time>2026-04-04T08:29:36.91Z</time></trkpt><trkpt lat="44.1835903" lon="11.5037903"><ele>289.0</ele><time>2026-04-04T08:29:37.911Z</time></trkpt><trkpt lat="44.1834986" lon="11.5039084"><ele>294.0</ele><time>2026-04-04T08:29:38.911Z</time></trkpt><trkpt lat="44.1833996" lon="11.5039556"><ele>299.0</ele><time>2026-04-04T08:29:39.912Z</time></trkpt><trkpt lat="44.1832823" lon="11.5040074"><ele>299.5</ele><time>2026-04-04T08:29:40.911Z</time></trkpt><trkpt lat="44.1831628" lon="11.5040627"><ele>300.0</ele><time>2026-04-04T08:29:41.912Z</time></trkpt><trkpt lat="44.1830009" lon="11.5039997"><ele>300.5</ele><time>2026-04-04T08:29:42.912Z</time></trkpt><trkpt lat="44.1828503" lon="11.5039685"><ele>301.0</ele><time>2026-04-04T08:29:43.912Z</time></trkpt><trkpt lat="44.1827059" lon="11.5039098"><ele>301.0</ele><time>2026-04-04T08:29:44.911Z</time></trkpt><trkpt lat="44.182589" lon="11.5037967"><ele>301.0</ele><time>2026-04-04T08:29:45.911Z</time></trkpt><trkpt lat="44.1825023" lon="11.5036475"><ele>301.0</ele><time>2026-04-04T08:29:46.911Z</time></trkpt><trkpt lat="44.1824437" lon="11.5034719"><ele>301.0</ele><time>2026-04-04T08:29:47.912Z</time></trkpt><trkpt lat="44.1824015" lon="11.5032781"><ele>301.0</ele><time>2026-04-04T08:29:48.911Z</time></trkpt><trkpt lat="44.1823601" lon="11.5030725"><ele>301.0</ele><time>2026-04-04T08:29:49.912Z</time></trkpt><trkpt lat="44.1823166" lon="11.5028575"><ele>301.0</ele><time>2026-04-04T08:29:50.912Z</time></trkpt><trkpt lat="44.1822672" lon="11.5026366"><ele>301.0</ele><time>2026-04-04T08:29:51.911Z</time></trkpt><trkpt lat="44.1822249" lon="11.5024365"><ele>301.0</ele><time>2026-04-04T08:29:52.912Z</time></trkpt><trkpt lat="44.1821884" lon="11.5022494"><ele>301.0</ele><time>2026-04-04T08:29:53.912Z</time></trkpt><trkpt lat="44.182156" lon="11.5020896"><ele>301.0</ele><time>2026-04-04T08:29:54.912Z</time></trkpt><trkpt lat="44.1821111" lon="11.5019733"><ele>300.0</ele><time>2026-04-04T08:29:55.912Z</time></trkpt><trkpt lat="44.1820493" lon="11.5018866"><ele>299.0</ele><time>2026-04-04T08:29:56.912Z</time></trkpt><trkpt lat="44.181963" lon="11.5018555"><ele>298.0</ele><time>2026-04-04T08:29:57.912Z</time></trkpt><trkpt lat="44.1818652" lon="11.5018712"><ele>297.0</ele><time>2026-04-04T08:29:58.912Z</time></trkpt><trkpt lat="44.18176" lon="11.5019014"><ele>296.0</ele><time>2026-04-04T08:29:59.912Z</time></trkpt><trkpt lat="44.1816449" lon="11.5019322"><ele>296.0</ele><time>2026-04-04T08:30:00.912Z</time></trkpt><trkpt lat="44.181523" lon="11.5019644"><ele>296.0</ele><time>2026-04-04T08:30:01.912Z</time></trkpt><trkpt lat="44.1813978" lon="11.5019976"><ele>296.0</ele><time>2026-04-04T08:30:02.912Z</time></trkpt><trkpt lat="44.1812652" lon="11.5020351"><ele>296.0</ele><time>2026-04-04T08:30:03.912Z</time></trkpt><trkpt lat="44.1811275" lon="11.5020791"><ele>299.25</ele><time>2026-04-04T08:30:04.912Z</time></trkpt><trkpt lat="44.1809852" lon="11.5021207"><ele>302.5</ele><time>2026-04-04T08:30:05.912Z</time></trkpt><trkpt lat="44.1808484" lon="11.5021578"><ele>305.75</ele><time>2026-04-04T08:30:06.911Z</time></trkpt><trkpt lat="44.180725" lon="11.5021813"><ele>309.0</ele><time>2026-04-04T08:30:07.911Z</time></trkpt><trkpt lat="44.1806155" lon="11.5021445"><ele>313.0</ele><time>2026-04-04T08:30:08.912Z</time></trkpt><trkpt lat="44.180518" lon="11.5020598"><ele>317.0</ele><time>2026-04-04T08:30:09.911Z</time></trkpt><trkpt lat="44.1804375" lon="11.5019281"><ele>321.0</ele><time>2026-04-04T08:30:10.91Z</time></trkpt><trkpt lat="44.1803622" lon="11.5017577"><ele>325.0</ele><time>2026-04-04T08:30:11.911Z</time></trkpt><trkpt lat="44.1802819" lon="11.5015627"><ele>325.0</ele><time>2026-04-04T08:30:12.911Z</time></trkpt><trkpt lat="44.1802018" lon="11.5013416"><ele>325.0</ele><time>2026-04-04T08:30:13.912Z</time></trkpt><trkpt lat="44.1801258" lon="11.5011236"><ele>325.0</ele><time>2026-04-04T08:30:14.912Z</time></trkpt><trkpt lat="44.1800856" lon="11.5009095"><ele>326.25</ele><time>2026-04-04T08:30:15.911Z</time></trkpt><trkpt lat="44.1800427" lon="11.5007192"><ele>327.5</ele><time>2026-04-04T08:30:16.912Z</time></trkpt><trkpt lat="44.1799669" lon="11.50056"><ele>328.75</ele><time>2026-04-04T08:30:17.911Z</time></trkpt><trkpt lat="44.17986" lon="11.5004164"><ele>330.0</ele><time>2026-04-04T08:30:18.912Z</time></trkpt><trkpt lat="44.1797371" lon="11.500275"><ele>330.0</ele><time>2026-04-04T08:30:19.911Z</time></trkpt><trkpt lat="44.1796126" lon="11.5000845"><ele>330.0</ele><time>2026-04-04T08:30:20.912Z</time></trkpt><trkpt lat="44.1794872" lon="11.4998767"><ele>330.0</ele><time>2026-04-04T08:30:21.911Z</time></trkpt><trkpt lat="44.1793326" lon="11.4996742"><ele>329.0</ele><time>2026-04-04T08:30:22.911Z</time></trkpt><trkpt lat="44.1791567" lon="11.4994673"><ele>328.0</ele><time>2026-04-04T08:30:23.912Z</time></trkpt><trkpt lat="44.1789857" lon="11.4992471"><ele>328.0</ele><time>2026-04-04T08:30:24.911Z</time></trkpt><trkpt lat="44.1788258" lon="11.4990561"><ele>328.0</ele><time>2026-04-04T08:30:25.912Z</time></trkpt><trkpt lat="44.1786874" lon="11.4988985"><ele>328.0</ele><time>2026-04-04T08:30:26.912Z</time></trkpt><trkpt lat="44.1785522" lon="11.4987702"><ele>323.3333333333333</ele><time>2026-04-04T08:30:27.911Z</time></trkpt><trkpt lat="44.1784031" lon="11.4986915"><ele>318.6666666666667</ele><time>2026-04-04T08:30:28.912Z</time></trkpt><trkpt lat="44.1782395" lon="11.4986465"><ele>314.0</ele><time>2026-04-04T08:30:29.912Z</time></trkpt><trkpt lat="44.1780836" lon="11.4986114"><ele>314.0</ele><time>2026-04-04T08:30:30.912Z</time></trkpt><trkpt lat="44.1779403" lon="11.4985727"><ele>314.0</ele><time>2026-04-04T08:30:31.912Z</time></trkpt><trkpt lat="44.1778084" lon="11.4985147"><ele>314.0</ele><time>2026-04-04T08:30:32.912Z</time></trkpt><trkpt lat="44.1776981" lon="11.4984256"><ele>314.0</ele><time>2026-04-04T08:30:33.911Z</time></trkpt><trkpt lat="44.1776297" lon="11.4983111"><ele>314.0</ele><time>2026-04-04T08:30:34.912Z</time></trkpt><trkpt lat="44.1776047" lon="11.4981861"><ele>314.0</ele><time>2026-04-04T08:30:35.912Z</time></trkpt><trkpt lat="44.17763" lon="11.498068"><ele>314.0</ele><time>2026-04-04T08:30:36.911Z</time></trkpt><trkpt lat="44.177699" lon="11.4979699"><ele>314.0</ele><time>2026-04-04T08:30:37.911Z</time></trkpt><trkpt lat="44.1778082" lon="11.4979012"><ele>314.0</ele><time>2026-04-04T08:30:38.912Z</time></trkpt><trkpt lat="44.1779479" lon="11.4978429"><ele>314.6666666666667</ele><time>2026-04-04T08:30:39.912Z</time></trkpt><trkpt lat="44.1781071" lon="11.4977713"><ele>315.3333333333333</ele><time>2026-04-04T08:30:40.912Z</time></trkpt><trkpt lat="44.1782673" lon="11.497693"><ele>316.0</ele><time>2026-04-04T08:30:41.912Z</time></trkpt><trkpt lat="44.1784171" lon="11.497609"><ele>311.0</ele><time>2026-04-04T08:30:42.911Z</time></trkpt><trkpt lat="44.1785549" lon="11.4974914"><ele>306.0</ele><time>2026-04-04T08:30:43.912Z</time></trkpt><trkpt lat="44.1786619" lon="11.4973398"><ele>301.0</ele><time>2026-04-04T08:30:44.912Z</time></trkpt><trkpt lat="44.1787323" lon="11.4971639"><ele>301.0</ele><time>2026-04-04T08:30:45.911Z</time></trkpt><trkpt lat="44.1787624" lon="11.4969726"><ele>301.0</ele><time>2026-04-04T08:30:46.912Z</time></trkpt><trkpt lat="44.1787515" lon="11.4967695"><ele>301.0</ele><time>2026-04-04T08:30:47.911Z</time></trkpt><trkpt lat="44.1787041" lon="11.4965472"><ele>301.0</ele><time>2026-04-04T08:30:48.91Z</time></trkpt><trkpt lat="44.1786408" lon="11.4963108"><ele>301.0</ele><time>2026-04-04T08:30:49.911Z</time></trkpt><trkpt lat="44.1785634" lon="11.4960513"><ele>301.0</ele><time>2026-04-04T08:30:50.911Z</time></trkpt><trkpt lat="44.1784785" lon="11.4958089"><ele>298.3333333333333</ele><time>2026-04-04T08:30:51.912Z</time></trkpt><trkpt lat="44.1783869" lon="11.4955885"><ele>295.6666666666667</ele><time>2026-04-04T08:30:52.912Z</time></trkpt><trkpt lat="44.1782939" lon="11.4954045"><ele>293.0</ele><time>2026-04-04T08:30:53.911Z</time></trkpt><trkpt lat="44.1781921" lon="11.4952618"><ele>290.25</ele><time>2026-04-04T08:30:54.911Z</time></trkpt><trkpt lat="44.1780679" lon="11.4951789"><ele>287.5</ele><time>2026-04-04T08:30:55.909Z</time></trkpt><trkpt lat="44.1779221" lon="11.4951407"><ele>284.75</ele><time>2026-04-04T08:30:56.911Z</time></trkpt><trkpt lat="44.1777812" lon="11.4951338"><ele>282.0</ele><time>2026-04-04T08:30:57.91Z</time></trkpt><trkpt lat="44.1776475" lon="11.4951697"><ele>282.0</ele><time>2026-04-04T08:30:58.91Z</time></trkpt><trkpt lat="44.177514" lon="11.4952616"><ele>282.0</ele><time>2026-04-04T08:30:59.91Z</time></trkpt><trkpt lat="44.1773867" lon="11.4954073"><ele>282.0</ele><time>2026-04-04T08:31:00.91Z</time></trkpt><trkpt lat="44.1772617" lon="11.4955809"><ele>285.6666666666667</ele><time>2026-04-04T08:31:01.911Z</time></trkpt><trkpt lat="44.1771444" lon="11.4957387"><ele>289.33333333333337</ele><time>2026-04-04T08:31:02.91Z</time></trkpt><trkpt lat="44.1770306" lon="11.4958822"><ele>293.0</ele><time>2026-04-04T08:31:03.911Z</time></trkpt><trkpt lat="44.17691" lon="11.4959855"><ele>293.0</ele><time>2026-04-04T08:31:04.911Z</time></trkpt><trkpt lat="44.1767822" lon="11.4960349"><ele>293.0</ele><time>2026-04-04T08:31:05.911Z</time></trkpt><trkpt lat="44.1766638" lon="11.4960237"><ele>293.0</ele><time>2026-04-04T08:31:06.911Z</time></trkpt><trkpt lat="44.1765758" lon="11.4959498"><ele>293.0</ele><time>2026-04-04T08:31:07.909Z</time></trkpt><trkpt lat="44.1765291" lon="11.4958415"><ele>293.0</ele><time>2026-04-04T08:31:08.91Z</time></trkpt><trkpt lat="44.1765258" lon="11.4957152"><ele>293.0</ele><time>2026-04-04T08:31:09.911Z</time></trkpt><trkpt lat="44.1765711" lon="11.4955851"><ele>293.0</ele><time>2026-04-04T08:31:10.911Z</time></trkpt><trkpt lat="44.1766561" lon="11.4954602"><ele>293.0</ele><time>2026-04-04T08:31:11.909Z</time></trkpt><trkpt lat="44.1767604" lon="11.495319"><ele>293.0</ele><time>2026-04-04T08:31:12.91Z</time></trkpt><trkpt lat="44.1768561" lon="11.4951769"><ele>293.0</ele><time>2026-04-04T08:31:13.91Z</time></trkpt><trkpt lat="44.1769393" lon="11.4950444"><ele>293.0</ele><time>2026-04-04T08:31:14.91Z</time></trkpt><trkpt lat="44.1769886" lon="11.4949028"><ele>293.0</ele><time>2026-04-04T08:31:15.91Z</time></trkpt><trkpt lat="44.1769934" lon="11.4947486"><ele>293.0</ele><time>2026-04-04T08:31:16.91Z</time></trkpt><trkpt lat="44.1769555" lon="11.4945817"><ele>290.6666666666667</ele><time>2026-04-04T08:31:17.911Z</time></trkpt><trkpt lat="44.1768796" lon="11.4944108"><ele>288.3333333333333</ele><time>2026-04-04T08:31:18.911Z</time></trkpt><trkpt lat="44.1767946" lon="11.4942255"><ele>286.0</ele><time>2026-04-04T08:31:19.911Z</time></trkpt><trkpt lat="44.1767237" lon="11.494021"><ele>286.0</ele><time>2026-04-04T08:31:20.911Z</time></trkpt><trkpt lat="44.1766888" lon="11.493808"><ele>286.0</ele><time>2026-04-04T08:31:21.91Z</time></trkpt><trkpt lat="44.1766885" lon="11.4936034"><ele>286.0</ele><time>2026-04-04T08:31:22.911Z</time></trkpt><trkpt lat="44.1766881" lon="11.4934119"><ele>286.0</ele><time>2026-04-04T08:31:23.91Z</time></trkpt><trkpt lat="44.1766731" lon="11.4932301"><ele>285.0</ele><time>2026-04-04T08:31:24.911Z</time></trkpt><trkpt lat="44.1766303" lon="11.4930548"><ele>284.0</ele><time>2026-04-04T08:31:25.911Z</time></trkpt><trkpt lat="44.1765635" lon="11.4928941"><ele>283.0</ele><time>2026-04-04T08:31:26.91Z</time></trkpt><trkpt lat="44.1765173" lon="11.4927249"><ele>282.0</ele><time>2026-04-04T08:31:27.911Z</time></trkpt><trkpt lat="44.17651" lon="11.4925443"><ele>282.0</ele><time>2026-04-04T08:31:28.911Z</time></trkpt><trkpt lat="44.1765403" lon="11.4923701"><ele>282.0</ele><time>2026-04-04T08:31:29.91Z</time></trkpt><trkpt lat="44.1766104" lon="11.4922235"><ele>282.0</ele><time>2026-04-04T08:31:30.911Z</time></trkpt><trkpt lat="44.1767134" lon="11.4921168"><ele>282.0</ele><time>2026-04-04T08:31:31.91Z</time></trkpt><trkpt lat="44.1768337" lon="11.4920398"><ele>284.6</ele><time>2026-04-04T08:31:32.91Z</time></trkpt><trkpt lat="44.1769318" lon="11.4919493"><ele>287.2</ele><time>2026-04-04T08:31:33.91Z</time></trkpt><trkpt lat="44.177022" lon="11.4918361"><ele>289.8</ele><time>2026-04-04T08:31:34.91Z</time></trkpt><trkpt lat="44.1770544" lon="11.4917055"><ele>292.4</ele><time>2026-04-04T08:31:35.91Z</time></trkpt><trkpt lat="44.1771046" lon="11.4915889"><ele>295.0</ele><time>2026-04-04T08:31:36.909Z</time></trkpt><trkpt lat="44.1771544" lon="11.491476"><ele>295.0</ele><time>2026-04-04T08:31:37.91Z</time></trkpt><trkpt lat="44.1772173" lon="11.4913816"><ele>295.0</ele><time>2026-04-04T08:31:38.911Z</time></trkpt><trkpt lat="44.1772854" lon="11.4913077"><ele>295.0</ele><time>2026-04-04T08:31:39.91Z</time></trkpt><trkpt lat="44.1773526" lon="11.4912463"><ele>295.0</ele><time>2026-04-04T08:31:40.911Z</time></trkpt><trkpt lat="44.1774271" lon="11.4911954"><ele>295.0</ele><time>2026-04-04T08:31:41.91Z</time></trkpt><trkpt lat="44.1774933" lon="11.491135"><ele>295.0</ele><time>2026-04-04T08:31:42.911Z</time></trkpt><trkpt lat="44.1775499" lon="11.491058"><ele>291.5</ele><time>2026-04-04T08:31:43.91Z</time></trkpt><trkpt lat="44.1776009" lon="11.490964"><ele>288.0</ele><time>2026-04-04T08:31:44.909Z</time></trkpt><trkpt lat="44.1776459" lon="11.4908481"><ele>284.5</ele><time>2026-04-04T08:31:45.911Z</time></trkpt><trkpt lat="44.1776839" lon="11.4906724"><ele>281.0</ele><time>2026-04-04T08:31:46.91Z</time></trkpt><trkpt lat="44.177724" lon="11.4904621"><ele>282.33333333333337</ele><time>2026-04-04T08:31:47.91Z</time></trkpt><trkpt lat="44.1777648" lon="11.490224"><ele>283.6666666666667</ele><time>2026-04-04T08:31:48.911Z</time></trkpt><trkpt lat="44.1778082" lon="11.4899683"><ele>285.0</ele><time>2026-04-04T08:31:49.911Z</time></trkpt><trkpt lat="44.1778471" lon="11.4897378"><ele>286.3333333333333</ele><time>2026-04-04T08:31:50.91Z</time></trkpt><trkpt lat="44.1778673" lon="11.4895218"><ele>287.66666666666663</ele><time>2026-04-04T08:31:51.911Z</time></trkpt><trkpt lat="44.1778587" lon="11.4893117"><ele>289.0</ele><time>2026-04-04T08:31:52.91Z</time></trkpt><trkpt lat="44.1778267" lon="11.4890904"><ele>289.0</ele><time>2026-04-04T08:31:53.91Z</time></trkpt><trkpt lat="44.1777804" lon="11.4888545"><ele>289.0</ele><time>2026-04-04T08:31:54.91Z</time></trkpt><trkpt lat="44.177735" lon="11.4885967"><ele>289.0</ele><time>2026-04-04T08:31:55.911Z</time></trkpt><trkpt lat="44.177693" lon="11.4883524"><ele>287.66666666666663</ele><time>2026-04-04T08:31:56.911Z</time></trkpt><trkpt lat="44.1776562" lon="11.4881353"><ele>286.3333333333333</ele><time>2026-04-04T08:31:57.911Z</time></trkpt><trkpt lat="44.1776023" lon="11.4879321"><ele>285.0</ele><time>2026-04-04T08:31:58.911Z</time></trkpt><trkpt lat="44.1775209" lon="11.4877389"><ele>283.0</ele><time>2026-04-04T08:31:59.911Z</time></trkpt><trkpt lat="44.1774134" lon="11.4875613"><ele>281.0</ele><time>2026-04-04T08:32:00.911Z</time></trkpt><trkpt lat="44.1772846" lon="11.4874054"><ele>279.0</ele><time>2026-04-04T08:32:01.911Z</time></trkpt><trkpt lat="44.1771342" lon="11.4872696"><ele>278.6666666666667</ele><time>2026-04-04T08:32:02.91Z</time></trkpt><trkpt lat="44.1769733" lon="11.4871533"><ele>278.33333333333337</ele><time>2026-04-04T08:32:03.911Z</time></trkpt><trkpt lat="44.1768111" lon="11.4870719"><ele>278.0</ele><time>2026-04-04T08:32:04.91Z</time></trkpt><trkpt lat="44.1766509" lon="11.4870072"><ele>279.75</ele><time>2026-04-04T08:32:05.911Z</time></trkpt><trkpt lat="44.1764977" lon="11.4869764"><ele>281.5</ele><time>2026-04-04T08:32:06.911Z</time></trkpt><trkpt lat="44.1763551" lon="11.4869903"><ele>283.25</ele><time>2026-04-04T08:32:07.911Z</time></trkpt><trkpt lat="44.1762262" lon="11.4870485"><ele>285.0</ele><time>2026-04-04T08:32:08.91Z</time></trkpt><trkpt lat="44.176103" lon="11.4871548"><ele>285.0</ele><time>2026-04-04T08:32:09.91Z</time></trkpt><trkpt lat="44.175986" lon="11.4873011"><ele>285.0</ele><time>2026-04-04T08:32:10.91Z</time></trkpt><trkpt lat="44.1758709" lon="11.4874271"><ele>285.0</ele><time>2026-04-04T08:32:11.91Z</time></trkpt><trkpt lat="44.175751" lon="11.487514"><ele>285.0</ele><time>2026-04-04T08:32:12.91Z</time></trkpt><trkpt lat="44.1756211" lon="11.4875492"><ele>284.0</ele><time>2026-04-04T08:32:13.911Z</time></trkpt><trkpt lat="44.1754979" lon="11.4875472"><ele>283.0</ele><time>2026-04-04T08:32:14.91Z</time></trkpt><trkpt lat="44.1753875" lon="11.4875049"><ele>282.0</ele><time>2026-04-04T08:32:15.911Z</time></trkpt><trkpt lat="44.1752926" lon="11.4874411"><ele>281.0</ele><time>2026-04-04T08:32:16.91Z</time></trkpt><trkpt lat="44.1752007" lon="11.4873614"><ele>281.0</ele><time>2026-04-04T08:32:17.91Z</time></trkpt><trkpt lat="44.1751091" lon="11.4872734"><ele>281.0</ele><time>2026-04-04T08:32:18.91Z</time></trkpt><trkpt lat="44.1750314" lon="11.4871557"><ele>281.0</ele><time>2026-04-04T08:32:19.91Z</time></trkpt><trkpt lat="44.1749672" lon="11.4869947"><ele>281.0</ele><time>2026-04-04T08:32:20.91Z</time></trkpt><trkpt lat="44.1749208" lon="11.4867991"><ele>280.25</ele><time>2026-04-04T08:32:21.911Z</time></trkpt><trkpt lat="44.1748832" lon="11.4866014"><ele>279.5</ele><time>2026-04-04T08:32:22.911Z</time></trkpt><trkpt lat="44.1748256" lon="11.4864198"><ele>278.75</ele><time>2026-04-04T08:32:23.911Z</time></trkpt><trkpt lat="44.1747341" lon="11.4862596"><ele>278.0</ele><time>2026-04-04T08:32:24.91Z</time></trkpt><trkpt lat="44.1746072" lon="11.486123"><ele>277.6666666666667</ele><time>2026-04-04T08:32:25.911Z</time></trkpt><trkpt lat="44.1744458" lon="11.4860077"><ele>277.3333333333333</ele><time>2026-04-04T08:32:26.91Z</time></trkpt><trkpt lat="44.1742621" lon="11.4859002"><ele>277.0</ele><time>2026-04-04T08:32:27.91Z</time></trkpt><trkpt lat="44.1740671" lon="11.4858006"><ele>282.66666666666663</ele><time>2026-04-04T08:32:28.909Z</time></trkpt><trkpt lat="44.1738644" lon="11.4857355"><ele>288.3333333333333</ele><time>2026-04-04T08:32:29.911Z</time></trkpt><trkpt lat="44.1736382" lon="11.4856975"><ele>294.0</ele><time>2026-04-04T08:32:30.911Z</time></trkpt><trkpt lat="44.1733993" lon="11.4856669"><ele>302.0</ele><time>2026-04-04T08:32:31.91Z</time></trkpt><trkpt lat="44.1731532" lon="11.4856364"><ele>310.0</ele><time>2026-04-04T08:32:32.91Z</time></trkpt><trkpt lat="44.1729087" lon="11.4856021"><ele>310.0</ele><time>2026-04-04T08:32:33.91Z</time></trkpt><trkpt lat="44.1726825" lon="11.4855466"><ele>310.0</ele><time>2026-04-04T08:32:34.91Z</time></trkpt><trkpt lat="44.1724693" lon="11.4854585"><ele>301.0</ele><time>2026-04-04T08:32:35.91Z</time></trkpt><trkpt lat="44.1722762" lon="11.4853664"><ele>292.0</ele><time>2026-04-04T08:32:36.91Z</time></trkpt><trkpt lat="44.1721073" lon="11.4852784"><ele>283.0</ele><time>2026-04-04T08:32:37.911Z</time></trkpt><trkpt lat="44.1719598" lon="11.4851895"><ele>283.0</ele><time>2026-04-04T08:32:38.91Z</time></trkpt><trkpt lat="44.1718272" lon="11.4851058"><ele>283.0</ele><time>2026-04-04T08:32:39.91Z</time></trkpt><trkpt lat="44.1717061" lon="11.4850298"><ele>283.0</ele><time>2026-04-04T08:32:40.91Z</time></trkpt><trkpt lat="44.1715917" lon="11.4849691"><ele>283.0</ele><time>2026-04-04T08:32:41.911Z</time></trkpt><trkpt lat="44.1714698" lon="11.4849174"><ele>289.0</ele><time>2026-04-04T08:32:42.911Z</time></trkpt><trkpt lat="44.1713391" lon="11.4848816"><ele>295.0</ele><time>2026-04-04T08:32:43.911Z</time></trkpt><trkpt lat="44.1712124" lon="11.4848727"><ele>301.0</ele><time>2026-04-04T08:32:44.91Z</time></trkpt><trkpt lat="44.1710936" lon="11.4848732"><ele>307.0</ele><time>2026-04-04T08:32:45.91Z</time></trkpt><trkpt lat="44.1709873" lon="11.484864"><ele>307.0</ele><time>2026-04-04T08:32:46.91Z</time></trkpt><trkpt lat="44.1708844" lon="11.484825"><ele>307.0</ele><time>2026-04-04T08:32:47.911Z</time></trkpt><trkpt lat="44.1707812" lon="11.4847488"><ele>307.0</ele><time>2026-04-04T08:32:48.911Z</time></trkpt><trkpt lat="44.1706999" lon="11.4846323"><ele>307.0</ele><time>2026-04-04T08:32:49.91Z</time></trkpt><trkpt lat="44.1706431" lon="11.4844754"><ele>311.3333333333333</ele><time>2026-04-04T08:32:50.91Z</time></trkpt><trkpt lat="44.1705965" lon="11.4842803"><ele>315.6666666666667</ele><time>2026-04-04T08:32:51.911Z</time></trkpt><trkpt lat="44.1705279" lon="11.4840588"><ele>320.0</ele><time>2026-04-04T08:32:52.911Z</time></trkpt><trkpt lat="44.1704333" lon="11.4838262"><ele>314.0</ele><time>2026-04-04T08:32:53.911Z</time></trkpt><trkpt lat="44.1703324" lon="11.4835781"><ele>308.0</ele><time>2026-04-04T08:32:54.911Z</time></trkpt><trkpt lat="44.1702302" lon="11.4833387"><ele>302.0</ele><time>2026-04-04T08:32:55.91Z</time></trkpt><trkpt lat="44.1701203" lon="11.4831161"><ele>306.6666666666667</ele><time>2026-04-04T08:32:56.91Z</time></trkpt><trkpt lat="44.1700055" lon="11.4829047"><ele>311.3333333333333</ele><time>2026-04-04T08:32:57.911Z</time></trkpt><trkpt lat="44.1698833" lon="11.4827083"><ele>316.0</ele><time>2026-04-04T08:32:58.911Z</time></trkpt><trkpt lat="44.1697443" lon="11.4825362"><ele>316.0</ele><time>2026-04-04T08:32:59.911Z</time></trkpt><trkpt lat="44.1695949" lon="11.4823839"><ele>316.0</ele><time>2026-04-04T08:33:00.91Z</time></trkpt><trkpt lat="44.169456" lon="11.4822198"><ele>316.0</ele><time>2026-04-04T08:33:01.91Z</time></trkpt><trkpt lat="44.1693342" lon="11.4820262"><ele>309.3333333333333</ele><time>2026-04-04T08:33:02.91Z</time></trkpt><trkpt lat="44.1692332" lon="11.4818228"><ele>302.6666666666667</ele><time>2026-04-04T08:33:03.911Z</time></trkpt><trkpt lat="44.1691594" lon="11.4816116"><ele>296.0</ele><time>2026-04-04T08:33:04.911Z</time></trkpt><trkpt lat="44.1691052" lon="11.4813739"><ele>292.33333333333337</ele><time>2026-04-04T08:33:05.911Z</time></trkpt><trkpt lat="44.1690808" lon="11.4811084"><ele>288.6666666666667</ele><time>2026-04-04T08:33:06.91Z</time></trkpt><trkpt lat="44.1690558" lon="11.4808525"><ele>285.0</ele><time>2026-04-04T08:33:07.911Z</time></trkpt><trkpt lat="44.1690039" lon="11.4805992"><ele>294.3333333333333</ele><time>2026-04-04T08:33:08.91Z</time></trkpt><trkpt lat="44.1689451" lon="11.4803348"><ele>303.66666666666663</ele><time>2026-04-04T08:33:09.911Z</time></trkpt><trkpt lat="44.1689009" lon="11.4800695"><ele>313.0</ele><time>2026-04-04T08:33:10.911Z</time></trkpt><trkpt lat="44.1688625" lon="11.4798148"><ele>308.3333333333333</ele><time>2026-04-04T08:33:11.911Z</time></trkpt><trkpt lat="44.168837" lon="11.4795636"><ele>303.6666666666667</ele><time>2026-04-04T08:33:12.909Z</time></trkpt><trkpt lat="44.1688397" lon="11.47931"><ele>299.0</ele><time>2026-04-04T08:33:13.91Z</time></trkpt><trkpt lat="44.1688646" lon="11.4790658"><ele>299.0</ele><time>2026-04-04T08:33:14.911Z</time></trkpt><trkpt lat="44.1688794" lon="11.4788262"><ele>299.0</ele><time>2026-04-04T08:33:15.911Z</time></trkpt><trkpt lat="44.168877" lon="11.4785961"><ele>299.0</ele><time>2026-04-04T08:33:16.911Z</time></trkpt><trkpt lat="44.168861" lon="11.4783953"><ele>297.4</ele><time>2026-04-04T08:33:17.911Z</time></trkpt><trkpt lat="44.1688329" lon="11.4782294"><ele>295.79999999999995</ele><time>2026-04-04T08:33:18.911Z</time></trkpt><trkpt lat="44.1687799" lon="11.4781039"><ele>294.20000000000005</ele><time>2026-04-04T08:33:19.911Z</time></trkpt><trkpt lat="44.1686976" lon="11.4780375"><ele>292.6</ele><time>2026-04-04T08:33:20.91Z</time></trkpt><trkpt lat="44.1685893" lon="11.4780302"><ele>291.0</ele><time>2026-04-04T08:33:21.91Z</time></trkpt><trkpt lat="44.1684627" lon="11.4780639"><ele>291.0</ele><time>2026-04-04T08:33:22.911Z</time></trkpt><trkpt lat="44.1683143" lon="11.4781385"><ele>291.0</ele><time>2026-04-04T08:33:23.91Z</time></trkpt><trkpt lat="44.1681707" lon="11.4781558"><ele>291.0</ele><time>2026-04-04T08:33:24.909Z</time></trkpt><trkpt lat="44.1680332" lon="11.4781166"><ele>291.0</ele><time>2026-04-04T08:33:25.91Z</time></trkpt><trkpt lat="44.1679117" lon="11.478023"><ele>291.6666666666667</ele><time>2026-04-04T08:33:26.911Z</time></trkpt><trkpt lat="44.1678176" lon="11.4778758"><ele>292.33333333333337</ele><time>2026-04-04T08:33:27.911Z</time></trkpt><trkpt lat="44.1677192" lon="11.4776807"><ele>293.0</ele><time>2026-04-04T08:33:28.909Z</time></trkpt><trkpt lat="44.1676089" lon="11.4774583"><ele>293.0</ele><time>2026-04-04T08:33:29.911Z</time></trkpt><trkpt lat="44.1674845" lon="11.4772157"><ele>293.0</ele><time>2026-04-04T08:33:30.91Z</time></trkpt><trkpt lat="44.167343" lon="11.4769536"><ele>293.0</ele><time>2026-04-04T08:33:31.911Z</time></trkpt><trkpt lat="44.1671979" lon="11.4766779"><ele>293.0</ele><time>2026-04-04T08:33:32.911Z</time></trkpt><trkpt lat="44.1670642" lon="11.4764203"><ele>293.0</ele><time>2026-04-04T08:33:33.911Z</time></trkpt><trkpt lat="44.16695" lon="11.4761915"><ele>293.0</ele><time>2026-04-04T08:33:34.911Z</time></trkpt><trkpt lat="44.1668637" lon="11.4759762"><ele>293.0</ele><time>2026-04-04T08:33:35.91Z</time></trkpt><trkpt lat="44.166821" lon="11.4757565"><ele>293.0</ele><time>2026-04-04T08:33:36.911Z</time></trkpt><trkpt lat="44.1668254" lon="11.4755319"><ele>293.0</ele><time>2026-04-04T08:33:37.909Z</time></trkpt><trkpt lat="44.166867" lon="11.4753101"><ele>290.75</ele><time>2026-04-04T08:33:38.911Z</time></trkpt><trkpt lat="44.1669169" lon="11.475111"><ele>288.5</ele><time>2026-04-04T08:33:39.911Z</time></trkpt><trkpt lat="44.1669296" lon="11.4749242"><ele>286.25</ele><time>2026-04-04T08:33:40.911Z</time></trkpt><trkpt lat="44.1668987" lon="11.4747503"><ele>284.0</ele><time>2026-04-04T08:33:41.911Z</time></trkpt><trkpt lat="44.1668265" lon="11.4746076"><ele>284.25</ele><time>2026-04-04T08:33:42.91Z</time></trkpt><trkpt lat="44.1667174" lon="11.4745173"><ele>284.5</ele><time>2026-04-04T08:33:43.911Z</time></trkpt><trkpt lat="44.1665942" lon="11.474498"><ele>284.75</ele><time>2026-04-04T08:33:44.91Z</time></trkpt><trkpt lat="44.1664632" lon="11.4745547"><ele>285.0</ele><time>2026-04-04T08:33:45.91Z</time></trkpt><trkpt lat="44.1663419" lon="11.4746699"><ele>285.0</ele><time>2026-04-04T08:33:46.91Z</time></trkpt><trkpt lat="44.1662227" lon="11.4747977"><ele>285.0</ele><time>2026-04-04T08:33:47.911Z</time></trkpt><trkpt lat="44.1660937" lon="11.4748489"><ele>285.0</ele><time>2026-04-04T08:33:48.911Z</time></trkpt><trkpt lat="44.1659595" lon="11.4748569"><ele>285.0</ele><time>2026-04-04T08:33:49.911Z</time></trkpt><trkpt lat="44.1658153" lon="11.4748611"><ele>282.6666666666667</ele><time>2026-04-04T08:33:50.909Z</time></trkpt><trkpt lat="44.1656623" lon="11.4749125"><ele>280.33333333333337</ele><time>2026-04-04T08:33:51.91Z</time></trkpt><trkpt lat="44.1655263" lon="11.4749971"><ele>278.0</ele><time>2026-04-04T08:33:52.91Z</time></trkpt><trkpt lat="44.1653927" lon="11.4750698"><ele>278.0</ele><time>2026-04-04T08:33:53.909Z</time></trkpt><trkpt lat="44.1652419" lon="11.4750807"><ele>278.0</ele><time>2026-04-04T08:33:54.91Z</time></trkpt><trkpt lat="44.1650865" lon="11.4750535"><ele>278.0</ele><time>2026-04-04T08:33:55.911Z</time></trkpt><trkpt lat="44.1649349" lon="11.4749845"><ele>278.6666666666667</ele><time>2026-04-04T08:33:56.911Z</time></trkpt><trkpt lat="44.1647883" lon="11.474848"><ele>279.3333333333333</ele><time>2026-04-04T08:33:57.91Z</time></trkpt><trkpt lat="44.1646333" lon="11.4746806"><ele>280.0</ele><time>2026-04-04T08:33:58.909Z</time></trkpt><trkpt lat="44.1644852" lon="11.4745002"><ele>280.0</ele><time>2026-04-04T08:33:59.91Z</time></trkpt><trkpt lat="44.1643672" lon="11.4743135"><ele>280.0</ele><time>2026-04-04T08:34:00.911Z</time></trkpt><trkpt lat="44.164276" lon="11.4741126"><ele>280.0</ele><time>2026-04-04T08:34:01.91Z</time></trkpt><trkpt lat="44.1642057" lon="11.4738732"><ele>280.0</ele><time>2026-04-04T08:34:02.91Z</time></trkpt><trkpt lat="44.1641569" lon="11.4736118"><ele>280.0</ele><time>2026-04-04T08:34:03.91Z</time></trkpt><trkpt lat="44.1641096" lon="11.4733305"><ele>280.0</ele><time>2026-04-04T08:34:04.91Z</time></trkpt><trkpt lat="44.1640826" lon="11.4730418"><ele>280.0</ele><time>2026-04-04T08:34:05.91Z</time></trkpt><trkpt lat="44.1640803" lon="11.4727613"><ele>280.0</ele><time>2026-04-04T08:34:06.911Z</time></trkpt><trkpt lat="44.164099" lon="11.4725045"><ele>280.0</ele><time>2026-04-04T08:34:07.91Z</time></trkpt><trkpt lat="44.164153" lon="11.4722548"><ele>280.3333333333333</ele><time>2026-04-04T08:34:08.91Z</time></trkpt><trkpt lat="44.1642298" lon="11.4719986"><ele>280.6666666666667</ele><time>2026-04-04T08:34:09.91Z</time></trkpt><trkpt lat="44.1642971" lon="11.4717577"><ele>281.0</ele><time>2026-04-04T08:34:10.91Z</time></trkpt><trkpt lat="44.1643597" lon="11.4715458"><ele>281.0</ele><time>2026-04-04T08:34:11.909Z</time></trkpt><trkpt lat="44.1644173" lon="11.4713599"><ele>281.0</ele><time>2026-04-04T08:34:12.91Z</time></trkpt><trkpt lat="44.1644672" lon="11.471209"><ele>281.0</ele><time>2026-04-04T08:34:13.911Z</time></trkpt><trkpt lat="44.1645104" lon="11.4710852"><ele>281.0</ele><time>2026-04-04T08:34:14.911Z</time></trkpt><trkpt lat="44.1645481" lon="11.4709778"><ele>281.0</ele><time>2026-04-04T08:34:15.911Z</time></trkpt><trkpt lat="44.1645766" lon="11.4708953"><ele>281.0</ele><time>2026-04-04T08:34:16.909Z</time></trkpt><trkpt lat="44.1646081" lon="11.470806"><ele>281.0</ele><time>2026-04-04T08:34:18.909Z</time></trkpt><trkpt lat="44.1646318" lon="11.4707041"><ele>281.0</ele><time>2026-04-04T08:34:25.91Z</time></trkpt><trkpt lat="44.1646556" lon="11.4706111"><ele>281.0</ele><time>2026-04-04T08:34:26.911Z</time></trkpt><trkpt lat="44.1646926" lon="11.4704691"><ele>281.0</ele><time>2026-04-04T08:34:27.91Z</time></trkpt><trkpt lat="44.1647448" lon="11.4702878"><ele>280.5</ele><time>2026-04-04T08:34:28.911Z</time></trkpt><trkpt lat="44.1647849" lon="11.4700876"><ele>280.0</ele><time>2026-04-04T08:34:29.91Z</time></trkpt><trkpt lat="44.1647993" lon="11.4699108"><ele>279.5</ele><time>2026-04-04T08:34:30.911Z</time></trkpt><trkpt lat="44.1648139" lon="11.4697414"><ele>279.0</ele><time>2026-04-04T08:34:31.909Z</time></trkpt><trkpt lat="44.1648345" lon="11.4695798"><ele>276.59999999999997</ele><time>2026-04-04T08:34:32.911Z</time></trkpt><trkpt lat="44.1648643" lon="11.4694344"><ele>274.2</ele><time>2026-04-04T08:34:33.911Z</time></trkpt><trkpt lat="44.1648984" lon="11.4693052"><ele>271.79999999999995</ele><time>2026-04-04T08:34:34.909Z</time></trkpt><trkpt lat="44.1649283" lon="11.4691893"><ele>269.4</ele><time>2026-04-04T08:34:35.91Z</time></trkpt><trkpt lat="44.1649569" lon="11.4690696"><ele>267.0</ele><time>2026-04-04T08:34:36.909Z</time></trkpt><trkpt lat="44.1649874" lon="11.4689559"><ele>267.0</ele><time>2026-04-04T08:34:37.91Z</time></trkpt><trkpt lat="44.165018" lon="11.4688462"><ele>267.0</ele><time>2026-04-04T08:34:38.911Z</time></trkpt><trkpt lat="44.1650473" lon="11.4687346"><ele>267.0</ele><time>2026-04-04T08:34:39.91Z</time></trkpt><trkpt lat="44.1650801" lon="11.4686133"><ele>267.0</ele><time>2026-04-04T08:34:40.91Z</time></trkpt><trkpt lat="44.1651052" lon="11.4684962"><ele>267.0</ele><time>2026-04-04T08:34:41.91Z</time></trkpt><trkpt lat="44.1650964" lon="11.4683684"><ele>267.0</ele><time>2026-04-04T08:34:42.911Z</time></trkpt><trkpt lat="44.1650411" lon="11.468248"><ele>266.6666666666667</ele><time>2026-04-04T08:34:43.91Z</time></trkpt><trkpt lat="44.1649449" lon="11.4681355"><ele>266.33333333333337</ele><time>2026-04-04T08:34:44.911Z</time></trkpt><trkpt lat="44.1648263" lon="11.4680163"><ele>266.0</ele><time>2026-04-04T08:34:45.91Z</time></trkpt><trkpt lat="44.1646757" lon="11.4678672"><ele>268.6666666666667</ele><time>2026-04-04T08:34:46.91Z</time></trkpt><trkpt lat="44.164503" lon="11.4676966"><ele>271.3333333333333</ele><time>2026-04-04T08:34:47.91Z</time></trkpt><trkpt lat="44.1643229" lon="11.4675106"><ele>274.0</ele><time>2026-04-04T08:34:48.91Z</time></trkpt><trkpt lat="44.1641401" lon="11.4672916"><ele>273.0</ele><time>2026-04-04T08:34:49.91Z</time></trkpt><trkpt lat="44.1639678" lon="11.4670403"><ele>272.0</ele><time>2026-04-04T08:34:50.91Z</time></trkpt><trkpt lat="44.1637966" lon="11.4667696"><ele>272.0</ele><time>2026-04-04T08:34:51.91Z</time></trkpt><trkpt lat="44.1636224" lon="11.4664863"><ele>272.0</ele><time>2026-04-04T08:34:52.909Z</time></trkpt><trkpt lat="44.1634481" lon="11.4662015"><ele>268.0</ele><time>2026-04-04T08:34:53.91Z</time></trkpt><trkpt lat="44.1632866" lon="11.4659432"><ele>264.0</ele><time>2026-04-04T08:34:54.91Z</time></trkpt><trkpt lat="44.1631368" lon="11.4657017"><ele>264.0</ele><time>2026-04-04T08:34:55.91Z</time></trkpt><trkpt lat="44.1630011" lon="11.465475"><ele>264.0</ele><time>2026-04-04T08:34:56.909Z</time></trkpt><trkpt lat="44.1628858" lon="11.4652551"><ele>264.0</ele><time>2026-04-04T08:34:57.909Z</time></trkpt><trkpt lat="44.1627957" lon="11.4650306"><ele>266.0</ele><time>2026-04-04T08:34:58.909Z</time></trkpt><trkpt lat="44.1627307" lon="11.4648111"><ele>268.0</ele><time>2026-04-04T08:34:59.909Z</time></trkpt><trkpt lat="44.1626942" lon="11.4646074"><ele>270.0</ele><time>2026-04-04T08:35:00.91Z</time></trkpt><trkpt lat="44.1626942" lon="11.464401"><ele>272.75</ele><time>2026-04-04T08:35:01.909Z</time></trkpt><trkpt lat="44.1627155" lon="11.4642027"><ele>275.5</ele><time>2026-04-04T08:35:02.91Z</time></trkpt><trkpt lat="44.1627167" lon="11.4639916"><ele>278.25</ele><time>2026-04-04T08:35:03.908Z</time></trkpt><trkpt lat="44.1626721" lon="11.4637877"><ele>281.0</ele><time>2026-04-04T08:35:04.909Z</time></trkpt><trkpt lat="44.1626077" lon="11.4636276"><ele>281.33333333333337</ele><time>2026-04-04T08:35:05.91Z</time></trkpt><trkpt lat="44.1625525" lon="11.4635241"><ele>281.6666666666667</ele><time>2026-04-04T08:35:06.91Z</time></trkpt><trkpt lat="44.1625014" lon="11.4634575"><ele>282.0</ele><time>2026-04-04T08:35:07.91Z</time></trkpt><trkpt lat="44.1624199" lon="11.463401"><ele>282.3333333333333</ele><time>2026-04-04T08:35:09.91Z</time></trkpt><trkpt lat="44.1623671" lon="11.4633442"><ele>282.66666666666663</ele><time>2026-04-04T08:36:39.909Z</time></trkpt><trkpt lat="44.1622651" lon="11.4632664"><ele>283.0</ele><time>2026-04-04T08:36:41.91Z</time></trkpt><trkpt lat="44.1621867" lon="11.4632026"><ele>282.5</ele><time>2026-04-04T08:36:42.909Z</time></trkpt><trkpt lat="44.1620958" lon="11.4631238"><ele>282.0</ele><time>2026-04-04T08:36:43.91Z</time></trkpt><trkpt lat="44.161988" lon="11.4630297"><ele>281.5</ele><time>2026-04-04T08:36:44.909Z</time></trkpt><trkpt lat="44.1618781" lon="11.4629382"><ele>281.0</ele><time>2026-04-04T08:36:45.909Z</time></trkpt><trkpt lat="44.1617617" lon="11.4628483"><ele>281.0</ele><time>2026-04-04T08:36:46.91Z</time></trkpt><trkpt lat="44.1616354" lon="11.4627638"><ele>281.0</ele><time>2026-04-04T08:36:47.91Z</time></trkpt><trkpt lat="44.1614986" lon="11.4626845"><ele>281.0</ele><time>2026-04-04T08:36:48.909Z</time></trkpt><trkpt lat="44.1613549" lon="11.4626119"><ele>281.0</ele><time>2026-04-04T08:36:49.91Z</time></trkpt><trkpt lat="44.1612108" lon="11.4625417"><ele>282.5</ele><time>2026-04-04T08:36:50.91Z</time></trkpt><trkpt lat="44.1610701" lon="11.4624784"><ele>284.0</ele><time>2026-04-04T08:36:51.91Z</time></trkpt><trkpt lat="44.1609291" lon="11.4624211"><ele>285.5</ele><time>2026-04-04T08:36:52.909Z</time></trkpt><trkpt lat="44.1607854" lon="11.4623709"><ele>287.0</ele><time>2026-04-04T08:36:53.909Z</time></trkpt><trkpt lat="44.1606449" lon="11.4623214"><ele>287.0</ele><time>2026-04-04T08:36:54.908Z</time></trkpt><trkpt lat="44.1605055" lon="11.4622789"><ele>287.0</ele><time>2026-04-04T08:36:55.91Z</time></trkpt><trkpt lat="44.1603733" lon="11.4622253"><ele>287.0</ele><time>2026-04-04T08:36:56.91Z</time></trkpt><trkpt lat="44.1602357" lon="11.4621644"><ele>287.0</ele><time>2026-04-04T08:36:57.908Z</time></trkpt><trkpt lat="44.1600916" lon="11.4620834"><ele>286.0</ele><time>2026-04-04T08:36:58.91Z</time></trkpt><trkpt lat="44.1599401" lon="11.4619855"><ele>285.0</ele><time>2026-04-04T08:36:59.91Z</time></trkpt><trkpt lat="44.1597793" lon="11.4618702"><ele>284.0</ele><time>2026-04-04T08:37:00.909Z</time></trkpt><trkpt lat="44.1596073" lon="11.4617438"><ele>284.0</ele><time>2026-04-04T08:37:01.909Z</time></trkpt><trkpt lat="44.1594284" lon="11.46161"><ele>284.0</ele><time>2026-04-04T08:37:02.909Z</time></trkpt><trkpt lat="44.1592493" lon="11.461477"><ele>284.0</ele><time>2026-04-04T08:37:03.91Z</time></trkpt><trkpt lat="44.1590793" lon="11.4613464"><ele>283.33333333333337</ele><time>2026-04-04T08:37:04.91Z</time></trkpt><trkpt lat="44.1589186" lon="11.4612219"><ele>282.6666666666667</ele><time>2026-04-04T08:37:05.909Z</time></trkpt><trkpt lat="44.1587712" lon="11.4611017"><ele>282.0</ele><time>2026-04-04T08:37:06.91Z</time></trkpt><trkpt lat="44.1586395" lon="11.4609654"><ele>282.0</ele><time>2026-04-04T08:37:07.909Z</time></trkpt><trkpt lat="44.158531" lon="11.4608138"><ele>282.0</ele><time>2026-04-04T08:37:08.909Z</time></trkpt><trkpt lat="44.15844" lon="11.460658"><ele>282.0</ele><time>2026-04-04T08:37:09.91Z</time></trkpt><trkpt lat="44.1583547" lon="11.4605106"><ele>282.0</ele><time>2026-04-04T08:37:10.91Z</time></trkpt><trkpt lat="44.1582473" lon="11.4604204"><ele>282.5</ele><time>2026-04-04T08:37:11.91Z</time></trkpt><trkpt lat="44.1581395" lon="11.4603931"><ele>283.0</ele><time>2026-04-04T08:37:12.909Z</time></trkpt><trkpt lat="44.158028" lon="11.460429"><ele>283.5</ele><time>2026-04-04T08:37:13.91Z</time></trkpt><trkpt lat="44.1579197" lon="11.4605039"><ele>284.0</ele><time>2026-04-04T08:37:14.91Z</time></trkpt><trkpt lat="44.157807" lon="11.4605444"><ele>284.0</ele><time>2026-04-04T08:37:15.91Z</time></trkpt><trkpt lat="44.1576993" lon="11.4605283"><ele>284.0</ele><time>2026-04-04T08:37:16.909Z</time></trkpt><trkpt lat="44.1576106" lon="11.4604582"><ele>284.0</ele><time>2026-04-04T08:37:17.91Z</time></trkpt><trkpt lat="44.1575251" lon="11.4603428"><ele>284.0</ele><time>2026-04-04T08:37:18.909Z</time></trkpt><trkpt lat="44.15744" lon="11.460196"><ele>284.0</ele><time>2026-04-04T08:37:19.909Z</time></trkpt><trkpt lat="44.1573753" lon="11.4600113"><ele>284.0</ele><time>2026-04-04T08:37:20.908Z</time></trkpt><trkpt lat="44.1573267" lon="11.459794"><ele>284.0</ele><time>2026-04-04T08:37:21.909Z</time></trkpt><trkpt lat="44.1572791" lon="11.4595699"><ele>289.6666666666667</ele><time>2026-04-04T08:37:22.908Z</time></trkpt><trkpt lat="44.1572152" lon="11.4593511"><ele>295.3333333333333</ele><time>2026-04-04T08:37:23.91Z</time></trkpt><trkpt lat="44.157147" lon="11.4591646"><ele>301.0</ele><time>2026-04-04T08:37:24.91Z</time></trkpt><trkpt lat="44.1570517" lon="11.4589887"><ele>301.0</ele><time>2026-04-04T08:37:25.909Z</time></trkpt><trkpt lat="44.1569157" lon="11.4588348"><ele>301.0</ele><time>2026-04-04T08:37:26.91Z</time></trkpt><trkpt lat="44.1567942" lon="11.4587074"><ele>301.0</ele><time>2026-04-04T08:37:27.909Z</time></trkpt><trkpt lat="44.1566732" lon="11.4586015"><ele>297.66666666666663</ele><time>2026-04-04T08:37:28.908Z</time></trkpt><trkpt lat="44.156544" lon="11.4585292"><ele>294.3333333333333</ele><time>2026-04-04T08:37:29.91Z</time></trkpt><trkpt lat="44.15639" lon="11.4584912"><ele>291.0</ele><time>2026-04-04T08:37:30.91Z</time></trkpt><trkpt lat="44.1562176" lon="11.4584694"><ele>291.0</ele><time>2026-04-04T08:37:31.908Z</time></trkpt><trkpt lat="44.1560233" lon="11.4584425"><ele>291.0</ele><time>2026-04-04T08:37:32.909Z</time></trkpt><trkpt lat="44.1558198" lon="11.4584085"><ele>291.0</ele><time>2026-04-04T08:37:33.909Z</time></trkpt><trkpt lat="44.1556193" lon="11.4583704"><ele>292.6666666666667</ele><time>2026-04-04T08:37:34.909Z</time></trkpt><trkpt lat="44.155428" lon="11.4583342"><ele>294.33333333333337</ele><time>2026-04-04T08:37:35.909Z</time></trkpt><trkpt lat="44.1552393" lon="11.4582978"><ele>296.0</ele><time>2026-04-04T08:37:36.908Z</time></trkpt><trkpt lat="44.1550568" lon="11.4582616"><ele>296.0</ele><time>2026-04-04T08:37:37.909Z</time></trkpt><trkpt lat="44.1548844" lon="11.4582244"><ele>296.0</ele><time>2026-04-04T08:37:38.909Z</time></trkpt><trkpt lat="44.1547245" lon="11.45819"><ele>296.0</ele><time>2026-04-04T08:37:39.908Z</time></trkpt><trkpt lat="44.1545731" lon="11.4581533"><ele>296.5</ele><time>2026-04-04T08:37:40.91Z</time></trkpt><trkpt lat="44.1544324" lon="11.4581155"><ele>297.0</ele><time>2026-04-04T08:37:41.91Z</time></trkpt><trkpt lat="44.1543071" lon="11.4580813"><ele>297.5</ele><time>2026-04-04T08:37:42.909Z</time></trkpt><trkpt lat="44.1541956" lon="11.4580488"><ele>298.0</ele><time>2026-04-04T08:37:43.91Z</time></trkpt><trkpt lat="44.1540959" lon="11.4580232"><ele>300.3333333333333</ele><time>2026-04-04T08:37:44.909Z</time></trkpt><trkpt lat="44.1540171" lon="11.4579974"><ele>302.66666666666663</ele><time>2026-04-04T08:37:45.91Z</time></trkpt><trkpt lat="44.1539495" lon="11.4579824"><ele>305.0</ele><time>2026-04-04T08:37:46.908Z</time></trkpt><trkpt lat="44.153877" lon="11.4579853"><ele>307.3333333333333</ele><time>2026-04-04T08:37:47.909Z</time></trkpt><trkpt lat="44.1538005" lon="11.4579785"><ele>309.6666666666667</ele><time>2026-04-04T08:37:48.909Z</time></trkpt><trkpt lat="44.1536978" lon="11.4579681"><ele>312.0</ele><time>2026-04-04T08:37:50.909Z</time></trkpt><trkpt lat="44.1536692" lon="11.4581094"><ele>312.0</ele><time>2026-04-04T08:37:53.909Z</time></trkpt><trkpt lat="44.1536954" lon="11.4582138"><ele>312.0</ele><time>2026-04-04T08:37:54.909Z</time></trkpt><trkpt lat="44.153723" lon="11.4583542"><ele>312.0</ele><time>2026-04-04T08:37:55.91Z</time></trkpt><trkpt lat="44.1537515" lon="11.4585277"><ele>312.0</ele><time>2026-04-04T08:37:56.909Z</time></trkpt><trkpt lat="44.1537857" lon="11.4587329"><ele>312.25</ele><time>2026-04-04T08:37:57.909Z</time></trkpt><trkpt lat="44.1538246" lon="11.4589409"><ele>312.5</ele><time>2026-04-04T08:37:58.911Z</time></trkpt><trkpt lat="44.1538798" lon="11.4591203"><ele>312.75</ele><time>2026-04-04T08:37:59.909Z</time></trkpt><trkpt lat="44.1539686" lon="11.4592422"><ele>313.0</ele><time>2026-04-04T08:38:00.908Z</time></trkpt><trkpt lat="44.154087" lon="11.459342"><ele>313.0</ele><time>2026-04-04T08:38:01.91Z</time></trkpt><trkpt lat="44.1542256" lon="11.4593999"><ele>313.0</ele><time>2026-04-04T08:38:02.91Z</time></trkpt><trkpt lat="44.1543801" lon="11.4593994"><ele>313.0</ele><time>2026-04-04T08:38:03.909Z</time></trkpt><trkpt lat="44.1545468" lon="11.4593539"><ele>313.0</ele><time>2026-04-04T08:38:04.909Z</time></trkpt><trkpt lat="44.1547197" lon="11.4593008"><ele>313.0</ele><time>2026-04-04T08:38:05.91Z</time></trkpt><trkpt lat="44.1548719" lon="11.4592615"><ele>313.0</ele><time>2026-04-04T08:38:06.91Z</time></trkpt><trkpt lat="44.1550131" lon="11.459234"><ele>312.66666666666663</ele><time>2026-04-04T08:38:07.908Z</time></trkpt><trkpt lat="44.1551621" lon="11.4592392"><ele>312.3333333333333</ele><time>2026-04-04T08:38:08.908Z</time></trkpt><trkpt lat="44.155324" lon="11.4592873"><ele>312.0</ele><time>2026-04-04T08:38:09.909Z</time></trkpt><trkpt lat="44.1554969" lon="11.4593546"><ele>312.0</ele><time>2026-04-04T08:38:10.91Z</time></trkpt><trkpt lat="44.1556873" lon="11.4594297"><ele>312.0</ele><time>2026-04-04T08:38:11.909Z</time></trkpt><trkpt lat="44.1558635" lon="11.4594923"><ele>312.0</ele><time>2026-04-04T08:38:12.91Z</time></trkpt><trkpt lat="44.1560207" lon="11.459554"><ele>317.5</ele><time>2026-04-04T08:38:13.91Z</time></trkpt><trkpt lat="44.1561486" lon="11.4596517"><ele>323.0</ele><time>2026-04-04T08:38:14.908Z</time></trkpt><trkpt lat="44.156264" lon="11.4597947"><ele>328.5</ele><time>2026-04-04T08:38:15.909Z</time></trkpt><trkpt lat="44.156364" lon="11.4599448"><ele>334.0</ele><time>2026-04-04T08:38:16.909Z</time></trkpt><trkpt lat="44.1564505" lon="11.4600846"><ele>334.0</ele><time>2026-04-04T08:38:17.909Z</time></trkpt><trkpt lat="44.1565206" lon="11.4602454"><ele>334.0</ele><time>2026-04-04T08:38:18.909Z</time></trkpt><trkpt lat="44.1565582" lon="11.4604345"><ele>334.0</ele><time>2026-04-04T08:38:19.91Z</time></trkpt><trkpt lat="44.1565853" lon="11.4606349"><ele>334.0</ele><time>2026-04-04T08:38:20.91Z</time></trkpt><trkpt lat="44.1565947" lon="11.4608193"><ele>333.0</ele><time>2026-04-04T08:38:21.91Z</time></trkpt><trkpt lat="44.1565645" lon="11.4609789"><ele>332.0</ele><time>2026-04-04T08:38:22.909Z</time></trkpt><trkpt lat="44.1565316" lon="11.4611163"><ele>331.0</ele><time>2026-04-04T08:38:23.91Z</time></trkpt><trkpt lat="44.1565421" lon="11.4612572"><ele>330.0</ele><time>2026-04-04T08:38:24.909Z</time></trkpt><trkpt lat="44.1565935" lon="11.4613943"><ele>329.0</ele><time>2026-04-04T08:38:25.909Z</time></trkpt><trkpt lat="44.1566826" lon="11.461502"><ele>333.5</ele><time>2026-04-04T08:38:26.91Z</time></trkpt><trkpt lat="44.1567941" lon="11.4615867"><ele>338.0</ele><time>2026-04-04T08:38:27.909Z</time></trkpt><trkpt lat="44.1569034" lon="11.461686"><ele>342.5</ele><time>2026-04-04T08:38:28.91Z</time></trkpt><trkpt lat="44.1569767" lon="11.4618072"><ele>347.0</ele><time>2026-04-04T08:38:29.91Z</time></trkpt><trkpt lat="44.1570163" lon="11.461952"><ele>348.75</ele><time>2026-04-04T08:38:30.909Z</time></trkpt><trkpt lat="44.1570263" lon="11.4621194"><ele>350.5</ele><time>2026-04-04T08:38:31.91Z</time></trkpt><trkpt lat="44.1570123" lon="11.4623011"><ele>352.25</ele><time>2026-04-04T08:38:32.91Z</time></trkpt><trkpt lat="44.1569957" lon="11.4625088"><ele>354.0</ele><time>2026-04-04T08:38:33.909Z</time></trkpt><trkpt lat="44.156979" lon="11.4627404"><ele>355.6666666666667</ele><time>2026-04-04T08:38:34.91Z</time></trkpt><trkpt lat="44.1569649" lon="11.4629964"><ele>357.33333333333337</ele><time>2026-04-04T08:38:35.91Z</time></trkpt><trkpt lat="44.156953" lon="11.463242"><ele>359.0</ele><time>2026-04-04T08:38:36.91Z</time></trkpt><trkpt lat="44.1569482" lon="11.4634448"><ele>359.0</ele><time>2026-04-04T08:38:37.91Z</time></trkpt><trkpt lat="44.1569708" lon="11.463614"><ele>359.0</ele><time>2026-04-04T08:38:38.91Z</time></trkpt><trkpt lat="44.1570223" lon="11.4637625"><ele>359.0</ele><time>2026-04-04T08:38:39.908Z</time></trkpt><trkpt lat="44.1571059" lon="11.4639018"><ele>359.0</ele><time>2026-04-04T08:38:40.909Z</time></trkpt><trkpt lat="44.157214" lon="11.464037"><ele>361.33333333333337</ele><time>2026-04-04T08:38:41.909Z</time></trkpt><trkpt lat="44.1573472" lon="11.4641738"><ele>363.6666666666667</ele><time>2026-04-04T08:38:42.907Z</time></trkpt><trkpt lat="44.1574966" lon="11.4643161"><ele>366.0</ele><time>2026-04-04T08:38:43.908Z</time></trkpt><trkpt lat="44.1576498" lon="11.4644704"><ele>366.3333333333333</ele><time>2026-04-04T08:38:44.909Z</time></trkpt><trkpt lat="44.1578097" lon="11.4646421"><ele>366.66666666666663</ele><time>2026-04-04T08:38:45.909Z</time></trkpt><trkpt lat="44.1579691" lon="11.4648232"><ele>367.0</ele><time>2026-04-04T08:38:46.909Z</time></trkpt><trkpt lat="44.1581254" lon="11.4650055"><ele>367.0</ele><time>2026-04-04T08:38:47.908Z</time></trkpt><trkpt lat="44.1582647" lon="11.4651612"><ele>367.0</ele><time>2026-04-04T08:38:48.909Z</time></trkpt><trkpt lat="44.1583924" lon="11.4653062"><ele>367.0</ele><time>2026-04-04T08:38:49.909Z</time></trkpt><trkpt lat="44.1584972" lon="11.4654497"><ele>367.0</ele><time>2026-04-04T08:38:50.909Z</time></trkpt><trkpt lat="44.1585773" lon="11.4656072"><ele>367.0</ele><time>2026-04-04T08:38:51.909Z</time></trkpt><trkpt lat="44.1586322" lon="11.4657853"><ele>367.0</ele><time>2026-04-04T08:38:52.908Z</time></trkpt><trkpt lat="44.1586532" lon="11.4659787"><ele>367.0</ele><time>2026-04-04T08:38:53.909Z</time></trkpt><trkpt lat="44.1586422" lon="11.4661772"><ele>368.0</ele><time>2026-04-04T08:38:54.909Z</time></trkpt><trkpt lat="44.1585994" lon="11.46634"><ele>369.0</ele><time>2026-04-04T08:38:55.908Z</time></trkpt><trkpt lat="44.1585313" lon="11.4664524"><ele>370.0</ele><time>2026-04-04T08:38:56.909Z</time></trkpt><trkpt lat="44.1584411" lon="11.4665105"><ele>371.0</ele><time>2026-04-04T08:38:57.909Z</time></trkpt><trkpt lat="44.158331" lon="11.4665074"><ele>372.0</ele><time>2026-04-04T08:38:58.909Z</time></trkpt><trkpt lat="44.1582084" lon="11.4664467"><ele>374.6666666666667</ele><time>2026-04-04T08:38:59.909Z</time></trkpt><trkpt lat="44.1580742" lon="11.4663582"><ele>377.33333333333337</ele><time>2026-04-04T08:39:00.909Z</time></trkpt><trkpt lat="44.1579418" lon="11.466233"><ele>380.0</ele><time>2026-04-04T08:39:01.908Z</time></trkpt><trkpt lat="44.1578268" lon="11.4660576"><ele>380.0</ele><time>2026-04-04T08:39:02.908Z</time></trkpt><trkpt lat="44.1577155" lon="11.4658701"><ele>380.0</ele><time>2026-04-04T08:39:03.909Z</time></trkpt><trkpt lat="44.157592" lon="11.4656959"><ele>380.0</ele><time>2026-04-04T08:39:04.909Z</time></trkpt><trkpt lat="44.1574506" lon="11.4655552"><ele>379.6666666666667</ele><time>2026-04-04T08:39:05.909Z</time></trkpt><trkpt lat="44.1572968" lon="11.4654461"><ele>379.3333333333333</ele><time>2026-04-04T08:39:06.909Z</time></trkpt><trkpt lat="44.1571572" lon="11.4653546"><ele>379.0</ele><time>2026-04-04T08:39:07.908Z</time></trkpt><trkpt lat="44.1570399" lon="11.4652849"><ele>379.0</ele><time>2026-04-04T08:39:08.908Z</time></trkpt><trkpt lat="44.1569327" lon="11.4652457"><ele>379.0</ele><time>2026-04-04T08:39:09.908Z</time></trkpt><trkpt lat="44.1568577" lon="11.4653031"><ele>379.0</ele><time>2026-04-04T08:39:10.909Z</time></trkpt><trkpt lat="44.1568169" lon="11.4653832"><ele>379.0</ele><time>2026-04-04T08:39:11.909Z</time></trkpt><trkpt lat="44.1568205" lon="11.4654933"><ele>379.0</ele><time>2026-04-04T08:39:12.907Z</time></trkpt><trkpt lat="44.156873" lon="11.4656074"><ele>379.0</ele><time>2026-04-04T08:39:13.908Z</time></trkpt><trkpt lat="44.1569622" lon="11.4657239"><ele>384.0</ele><time>2026-04-04T08:39:14.909Z</time></trkpt><trkpt lat="44.1570597" lon="11.4658561"><ele>389.0</ele><time>2026-04-04T08:39:15.908Z</time></trkpt><trkpt lat="44.1571491" lon="11.4660324"><ele>394.0</ele><time>2026-04-04T08:39:16.906Z</time></trkpt><trkpt lat="44.1572261" lon="11.46625"><ele>395.75</ele><time>2026-04-04T08:39:17.909Z</time></trkpt><trkpt lat="44.1572839" lon="11.4664602"><ele>397.5</ele><time>2026-04-04T08:39:18.909Z</time></trkpt><trkpt lat="44.15733" lon="11.4666473"><ele>399.25</ele><time>2026-04-04T08:39:19.908Z</time></trkpt><trkpt lat="44.1573641" lon="11.466811"><ele>401.0</ele><time>2026-04-04T08:39:20.908Z</time></trkpt><trkpt lat="44.1573609" lon="11.4669452"><ele>401.0</ele><time>2026-04-04T08:39:21.909Z</time></trkpt><trkpt lat="44.1573135" lon="11.4670415"><ele>401.0</ele><time>2026-04-04T08:39:22.908Z</time></trkpt><trkpt lat="44.157238" lon="11.4670949"><ele>401.0</ele><time>2026-04-04T08:39:23.909Z</time></trkpt><trkpt lat="44.1571442" lon="11.4670853"><ele>401.0</ele><time>2026-04-04T08:39:24.909Z</time></trkpt><trkpt lat="44.1570426" lon="11.4670074"><ele>401.0</ele><time>2026-04-04T08:39:25.909Z</time></trkpt><trkpt lat="44.1569441" lon="11.4668703"><ele>401.0</ele><time>2026-04-04T08:39:26.909Z</time></trkpt><trkpt lat="44.1568428" lon="11.4666872"><ele>401.0</ele><time>2026-04-04T08:39:27.908Z</time></trkpt><trkpt lat="44.1567347" lon="11.4664842"><ele>401.0</ele><time>2026-04-04T08:39:28.909Z</time></trkpt><trkpt lat="44.1566347" lon="11.4663213"><ele>402.5</ele><time>2026-04-04T08:39:29.909Z</time></trkpt><trkpt lat="44.1565338" lon="11.4662041"><ele>404.0</ele><time>2026-04-04T08:39:30.908Z</time></trkpt><trkpt lat="44.1564258" lon="11.4661461"><ele>405.5</ele><time>2026-04-04T08:39:31.908Z</time></trkpt><trkpt lat="44.1563113" lon="11.4661481"><ele>407.0</ele><time>2026-04-04T08:39:32.908Z</time></trkpt><trkpt lat="44.1561993" lon="11.4662131"><ele>409.0</ele><time>2026-04-04T08:39:33.909Z</time></trkpt><trkpt lat="44.1561119" lon="11.4663183"><ele>411.0</ele><time>2026-04-04T08:39:34.907Z</time></trkpt><trkpt lat="44.1560524" lon="11.4664405"><ele>413.0</ele><time>2026-04-04T08:39:35.909Z</time></trkpt><trkpt lat="44.1560282" lon="11.4665832"><ele>415.0</ele><time>2026-04-04T08:39:36.908Z</time></trkpt><trkpt lat="44.1560411" lon="11.4667352"><ele>417.0</ele><time>2026-04-04T08:39:37.908Z</time></trkpt><trkpt lat="44.1560969" lon="11.4669017"><ele>417.0</ele><time>2026-04-04T08:39:38.908Z</time></trkpt><trkpt lat="44.1561753" lon="11.4670806"><ele>417.0</ele><time>2026-04-04T08:39:39.909Z</time></trkpt><trkpt lat="44.1562655" lon="11.4672915"><ele>417.0</ele><time>2026-04-04T08:39:40.909Z</time></trkpt><trkpt lat="44.1563601" lon="11.4675332"><ele>420.33333333333337</ele><time>2026-04-04T08:39:41.908Z</time></trkpt><trkpt lat="44.1564599" lon="11.4677866"><ele>423.6666666666667</ele><time>2026-04-04T08:39:42.909Z</time></trkpt><trkpt lat="44.1565704" lon="11.468057"><ele>427.0</ele><time>2026-04-04T08:39:43.908Z</time></trkpt><trkpt lat="44.1566804" lon="11.4683085"><ele>427.33333333333337</ele><time>2026-04-04T08:39:44.909Z</time></trkpt><trkpt lat="44.1567767" lon="11.4685299"><ele>427.66666666666663</ele><time>2026-04-04T08:39:45.908Z</time></trkpt><trkpt lat="44.1568632" lon="11.4687305"><ele>428.0</ele><time>2026-04-04T08:39:46.909Z</time></trkpt><trkpt lat="44.1569373" lon="11.4689074"><ele>430.2</ele><time>2026-04-04T08:39:47.908Z</time></trkpt><trkpt lat="44.157003" lon="11.4690602"><ele>432.4</ele><time>2026-04-04T08:39:48.909Z</time></trkpt><trkpt lat="44.1570477" lon="11.4691961"><ele>434.59999999999997</ele><time>2026-04-04T08:39:49.909Z</time></trkpt><trkpt lat="44.1570514" lon="11.4693235"><ele>436.79999999999995</ele><time>2026-04-04T08:39:50.908Z</time></trkpt><trkpt lat="44.1570161" lon="11.4694306"><ele>439.0</ele><time>2026-04-04T08:39:51.909Z</time></trkpt><trkpt lat="44.1569534" lon="11.4694774"><ele>439.0</ele><time>2026-04-04T08:39:52.908Z</time></trkpt><trkpt lat="44.156879" lon="11.4694572"><ele>439.0</ele><time>2026-04-04T08:39:53.908Z</time></trkpt><trkpt lat="44.1568215" lon="11.46937"><ele>439.0</ele><time>2026-04-04T08:39:54.909Z</time></trkpt><trkpt lat="44.1567772" lon="11.4692368"><ele>439.0</ele><time>2026-04-04T08:39:55.909Z</time></trkpt><trkpt lat="44.1567334" lon="11.4690673"><ele>439.0</ele><time>2026-04-04T08:39:56.908Z</time></trkpt><trkpt lat="44.1566587" lon="11.4688914"><ele>439.6666666666667</ele><time>2026-04-04T08:39:57.908Z</time></trkpt><trkpt lat="44.1565638" lon="11.4687106"><ele>440.33333333333337</ele><time>2026-04-04T08:39:58.908Z</time></trkpt><trkpt lat="44.1564222" lon="11.4685756"><ele>441.0</ele><time>2026-04-04T08:39:59.909Z</time></trkpt><trkpt lat="44.1563136" lon="11.4684417"><ele>441.0</ele><time>2026-04-04T08:40:00.909Z</time></trkpt><trkpt lat="44.1561959" lon="11.468334"><ele>441.0</ele><time>2026-04-04T08:40:01.908Z</time></trkpt><trkpt lat="44.1560677" lon="11.4682638"><ele>441.0</ele><time>2026-04-04T08:40:02.908Z</time></trkpt><trkpt lat="44.1559341" lon="11.4682428"><ele>441.0</ele><time>2026-04-04T08:40:03.908Z</time></trkpt><trkpt lat="44.1557978" lon="11.4682719"><ele>443.0</ele><time>2026-04-04T08:40:04.909Z</time></trkpt><trkpt lat="44.1556706" lon="11.4683526"><ele>445.0</ele><time>2026-04-04T08:40:05.908Z</time></trkpt><trkpt lat="44.1555669" lon="11.468478"><ele>447.0</ele><time>2026-04-04T08:40:06.909Z</time></trkpt><trkpt lat="44.1554998" lon="11.4686309"><ele>449.0</ele><time>2026-04-04T08:40:07.909Z</time></trkpt><trkpt lat="44.1554744" lon="11.4688042"><ele>450.5</ele><time>2026-04-04T08:40:08.908Z</time></trkpt><trkpt lat="44.1555007" lon="11.4689771"><ele>452.0</ele><time>2026-04-04T08:40:09.909Z</time></trkpt><trkpt lat="44.155571" lon="11.4691552"><ele>453.5</ele><time>2026-04-04T08:40:10.909Z</time></trkpt><trkpt lat="44.1556757" lon="11.4693364"><ele>455.0</ele><time>2026-04-04T08:40:11.907Z</time></trkpt><trkpt lat="44.1557938" lon="11.4695431"><ele>460.66666666666663</ele><time>2026-04-04T08:40:12.909Z</time></trkpt><trkpt lat="44.1559083" lon="11.4697688"><ele>466.33333333333337</ele><time>2026-04-04T08:40:13.909Z</time></trkpt><trkpt lat="44.1560251" lon="11.4700109"><ele>472.0</ele><time>2026-04-04T08:40:14.909Z</time></trkpt><trkpt lat="44.1561643" lon="11.470245"><ele>485.0</ele><time>2026-04-04T08:40:15.909Z</time></trkpt><trkpt lat="44.1563325" lon="11.4704637"><ele>498.0</ele><time>2026-04-04T08:40:16.907Z</time></trkpt><trkpt lat="44.1565275" lon="11.4706536"><ele>484.5</ele><time>2026-04-04T08:40:17.909Z</time></trkpt><trkpt lat="44.1567309" lon="11.4708321"><ele>471.0</ele><time>2026-04-04T08:40:18.909Z</time></trkpt><trkpt lat="44.1569185" lon="11.4709905"><ele>471.0</ele><time>2026-04-04T08:40:19.907Z</time></trkpt><trkpt lat="44.1570864" lon="11.471131"><ele>471.0</ele><time>2026-04-04T08:40:20.909Z</time></trkpt><trkpt lat="44.1572247" lon="11.4712439"><ele>471.0</ele><time>2026-04-04T08:40:21.908Z</time></trkpt><trkpt lat="44.1573403" lon="11.4713509"><ele>471.75</ele><time>2026-04-04T08:40:22.909Z</time></trkpt><trkpt lat="44.1574267" lon="11.4714741"><ele>472.5</ele><time>2026-04-04T08:40:23.909Z</time></trkpt><trkpt lat="44.1574801" lon="11.4716213"><ele>473.25</ele><time>2026-04-04T08:40:24.909Z</time></trkpt><trkpt lat="44.1575006" lon="11.4717912"><ele>474.0</ele><time>2026-04-04T08:40:25.907Z</time></trkpt><trkpt lat="44.1575004" lon="11.4719795"><ele>475.25</ele><time>2026-04-04T08:40:26.909Z</time></trkpt><trkpt lat="44.1574907" lon="11.4721792"><ele>476.5</ele><time>2026-04-04T08:40:27.908Z</time></trkpt><trkpt lat="44.1574617" lon="11.4723707"><ele>477.75</ele><time>2026-04-04T08:40:28.909Z</time></trkpt><trkpt lat="44.1573984" lon="11.47256"><ele>479.0</ele><time>2026-04-04T08:40:29.908Z</time></trkpt><trkpt lat="44.1573055" lon="11.4727381"><ele>485.75</ele><time>2026-04-04T08:40:30.909Z</time></trkpt><trkpt lat="44.1572254" lon="11.472905"><ele>492.5</ele><time>2026-04-04T08:40:31.908Z</time></trkpt><trkpt lat="44.1571643" lon="11.4730541"><ele>499.25</ele><time>2026-04-04T08:40:32.908Z</time></trkpt><trkpt lat="44.1571266" lon="11.4731952"><ele>506.0</ele><time>2026-04-04T08:40:33.908Z</time></trkpt><trkpt lat="44.1571225" lon="11.4733516"><ele>506.75</ele><time>2026-04-04T08:40:34.908Z</time></trkpt><trkpt lat="44.1571566" lon="11.4735169"><ele>507.5</ele><time>2026-04-04T08:40:35.909Z</time></trkpt><trkpt lat="44.1572" lon="11.4736886"><ele>508.25</ele><time>2026-04-04T08:40:36.908Z</time></trkpt><trkpt lat="44.1572047" lon="11.4738931"><ele>509.0</ele><time>2026-04-04T08:40:37.908Z</time></trkpt><trkpt lat="44.1571878" lon="11.4741193"><ele>509.66666666666663</ele><time>2026-04-04T08:40:38.909Z</time></trkpt><trkpt lat="44.1571733" lon="11.4743667"><ele>510.33333333333337</ele><time>2026-04-04T08:40:39.908Z</time></trkpt><trkpt lat="44.1571652" lon="11.4746259"><ele>511.0</ele><time>2026-04-04T08:40:40.908Z</time></trkpt><trkpt lat="44.1571677" lon="11.4748616"><ele>512.5</ele><time>2026-04-04T08:40:41.908Z</time></trkpt><trkpt lat="44.1571706" lon="11.4750719"><ele>514.0</ele><time>2026-04-04T08:40:42.909Z</time></trkpt><trkpt lat="44.157191" lon="11.4752593"><ele>515.5</ele><time>2026-04-04T08:40:43.908Z</time></trkpt><trkpt lat="44.1572481" lon="11.4754292"><ele>517.0</ele><time>2026-04-04T08:40:44.908Z</time></trkpt><trkpt lat="44.1573461" lon="11.475582"><ele>512.6666666666667</ele><time>2026-04-04T08:40:45.908Z</time></trkpt><trkpt lat="44.1574758" lon="11.4757165"><ele>508.33333333333337</ele><time>2026-04-04T08:40:46.908Z</time></trkpt><trkpt lat="44.1576272" lon="11.4758036"><ele>504.0</ele><time>2026-04-04T08:40:47.907Z</time></trkpt><trkpt lat="44.1577781" lon="11.4758575"><ele>504.0</ele><time>2026-04-04T08:40:48.909Z</time></trkpt><trkpt lat="44.1579074" lon="11.4759194"><ele>504.0</ele><time>2026-04-04T08:40:49.909Z</time></trkpt><trkpt lat="44.1580113" lon="11.4760128"><ele>504.0</ele><time>2026-04-04T08:40:50.909Z</time></trkpt><trkpt lat="44.1580811" lon="11.4761323"><ele>504.0</ele><time>2026-04-04T08:40:51.909Z</time></trkpt><trkpt lat="44.1581038" lon="11.4762616"><ele>506.79999999999995</ele><time>2026-04-04T08:40:52.908Z</time></trkpt><trkpt lat="44.1580713" lon="11.4763818"><ele>509.59999999999997</ele><time>2026-04-04T08:40:53.909Z</time></trkpt><trkpt lat="44.1579954" lon="11.4764584"><ele>512.4</ele><time>2026-04-04T08:40:54.908Z</time></trkpt><trkpt lat="44.157899" lon="11.4764671"><ele>515.1999999999999</ele><time>2026-04-04T08:40:55.908Z</time></trkpt><trkpt lat="44.1577828" lon="11.4764166"><ele>518.0</ele><time>2026-04-04T08:40:56.908Z</time></trkpt><trkpt lat="44.1576483" lon="11.4763242"><ele>521.3333333333333</ele><time>2026-04-04T08:40:57.908Z</time></trkpt><trkpt lat="44.1574957" lon="11.4762201"><ele>524.6666666666666</ele><time>2026-04-04T08:40:58.909Z</time></trkpt><trkpt lat="44.1573616" lon="11.4761424"><ele>528.0</ele><time>2026-04-04T08:40:59.908Z</time></trkpt><trkpt lat="44.1572466" lon="11.4760398"><ele>528.0</ele><time>2026-04-04T08:41:00.908Z</time></trkpt><trkpt lat="44.1571446" lon="11.4758813"><ele>528.0</ele><time>2026-04-04T08:41:01.908Z</time></trkpt><trkpt lat="44.1570435" lon="11.4756869"><ele>528.0</ele><time>2026-04-04T08:41:02.908Z</time></trkpt><trkpt lat="44.1569266" lon="11.475494"><ele>524.3333333333334</ele><time>2026-04-04T08:41:03.909Z</time></trkpt><trkpt lat="44.1567986" lon="11.4753441"><ele>520.6666666666667</ele><time>2026-04-04T08:41:04.909Z</time></trkpt><trkpt lat="44.1566829" lon="11.4752126"><ele>517.0</ele><time>2026-04-04T08:41:05.908Z</time></trkpt><trkpt lat="44.1566015" lon="11.4750388"><ele>524.6666666666667</ele><time>2026-04-04T08:41:06.909Z</time></trkpt><trkpt lat="44.1565343" lon="11.4748225"><ele>532.3333333333334</ele><time>2026-04-04T08:41:07.908Z</time></trkpt><trkpt lat="44.1564788" lon="11.4745979"><ele>540.0</ele><time>2026-04-04T08:41:08.909Z</time></trkpt><trkpt lat="44.1564372" lon="11.4743948"><ele>540.0</ele><time>2026-04-04T08:41:09.909Z</time></trkpt><trkpt lat="44.1564169" lon="11.4742194"><ele>540.0</ele><time>2026-04-04T08:41:10.908Z</time></trkpt><trkpt lat="44.1564021" lon="11.4740718"><ele>540.0</ele><time>2026-04-04T08:41:11.907Z</time></trkpt><trkpt lat="44.156385" lon="11.4739449"><ele>540.0</ele><time>2026-04-04T08:41:12.909Z</time></trkpt><trkpt lat="44.1563645" lon="11.4738362"><ele>540.0</ele><time>2026-04-04T08:41:13.907Z</time></trkpt><trkpt lat="44.1563514" lon="11.4737206"><ele>540.0</ele><time>2026-04-04T08:41:14.909Z</time></trkpt><trkpt lat="44.1563564" lon="11.4735889"><ele>540.0</ele><time>2026-04-04T08:41:15.909Z</time></trkpt><trkpt lat="44.1563835" lon="11.4734283"><ele>540.0</ele><time>2026-04-04T08:41:16.908Z</time></trkpt><trkpt lat="44.1564174" lon="11.4732397"><ele>540.0</ele><time>2026-04-04T08:41:17.908Z</time></trkpt><trkpt lat="44.1564362" lon="11.4730728"><ele>538.75</ele><time>2026-04-04T08:41:18.909Z</time></trkpt><trkpt lat="44.1564223" lon="11.4729145"><ele>537.5</ele><time>2026-04-04T08:41:19.907Z</time></trkpt><trkpt lat="44.1563725" lon="11.4727597"><ele>536.25</ele><time>2026-04-04T08:41:20.909Z</time></trkpt><trkpt lat="44.1562934" lon="11.4726309"><ele>535.0</ele><time>2026-04-04T08:41:21.909Z</time></trkpt><trkpt lat="44.1561682" lon="11.4725314"><ele>535.0</ele><time>2026-04-04T08:41:22.908Z</time></trkpt><trkpt lat="44.1560266" lon="11.4724448"><ele>535.0</ele><time>2026-04-04T08:41:23.909Z</time></trkpt><trkpt lat="44.1559019" lon="11.4723451"><ele>535.0</ele><time>2026-04-04T08:41:24.908Z</time></trkpt><trkpt lat="44.155799" lon="11.4722207"><ele>535.0</ele><time>2026-04-04T08:41:25.909Z</time></trkpt><trkpt lat="44.1557339" lon="11.4720605"><ele>533.6</ele><time>2026-04-04T08:41:26.909Z</time></trkpt><trkpt lat="44.1557031" lon="11.4718872"><ele>532.2</ele><time>2026-04-04T08:41:27.909Z</time></trkpt><trkpt lat="44.1556608" lon="11.4717333"><ele>530.8</ele><time>2026-04-04T08:41:28.908Z</time></trkpt><trkpt lat="44.1555849" lon="11.471631"><ele>529.4</ele><time>2026-04-04T08:41:29.908Z</time></trkpt><trkpt lat="44.1554939" lon="11.4715937"><ele>528.0</ele><time>2026-04-04T08:41:30.908Z</time></trkpt><trkpt lat="44.1553912" lon="11.4716246"><ele>528.0</ele><time>2026-04-04T08:41:31.907Z</time></trkpt><trkpt lat="44.1552797" lon="11.4717247"><ele>528.0</ele><time>2026-04-04T08:41:32.908Z</time></trkpt><trkpt lat="44.1551658" lon="11.4718693"><ele>528.0</ele><time>2026-04-04T08:41:33.909Z</time></trkpt><trkpt lat="44.1550449" lon="11.4720044"><ele>528.0</ele><time>2026-04-04T08:41:34.908Z</time></trkpt><trkpt lat="44.1549084" lon="11.4721098"><ele>534.6666666666666</ele><time>2026-04-04T08:41:35.908Z</time></trkpt><trkpt lat="44.1547533" lon="11.472171"><ele>541.3333333333333</ele><time>2026-04-04T08:41:36.907Z</time></trkpt><trkpt lat="44.1545757" lon="11.4721842"><ele>548.0</ele><time>2026-04-04T08:41:37.908Z</time></trkpt><trkpt lat="44.1544087" lon="11.4721803"><ele>548.0</ele><time>2026-04-04T08:41:38.908Z</time></trkpt><trkpt lat="44.1542549" lon="11.4721794"><ele>548.0</ele><time>2026-04-04T08:41:39.908Z</time></trkpt><trkpt lat="44.1541148" lon="11.47214"><ele>548.0</ele><time>2026-04-04T08:41:40.909Z</time></trkpt><trkpt lat="44.1539951" lon="11.4720363"><ele>548.0</ele><time>2026-04-04T08:41:41.909Z</time></trkpt><trkpt lat="44.153886" lon="11.4718977"><ele>546.0</ele><time>2026-04-04T08:41:42.909Z</time></trkpt><trkpt lat="44.1537517" lon="11.4717709"><ele>544.0</ele><time>2026-04-04T08:41:43.908Z</time></trkpt><trkpt lat="44.153587" lon="11.4716575"><ele>542.0</ele><time>2026-04-04T08:41:44.908Z</time></trkpt><trkpt lat="44.1534048" lon="11.4715317"><ele>542.0</ele><time>2026-04-04T08:41:45.909Z</time></trkpt><trkpt lat="44.1532285" lon="11.4714201"><ele>542.0</ele><time>2026-04-04T08:41:46.909Z</time></trkpt><trkpt lat="44.1530591" lon="11.4713421"><ele>542.0</ele><time>2026-04-04T08:41:47.909Z</time></trkpt><trkpt lat="44.152886" lon="11.4712878"><ele>541.3333333333333</ele><time>2026-04-04T08:41:48.908Z</time></trkpt><trkpt lat="44.1527174" lon="11.4712405"><ele>540.6666666666666</ele><time>2026-04-04T08:41:49.909Z</time></trkpt><trkpt lat="44.1525555" lon="11.4711826"><ele>540.0</ele><time>2026-04-04T08:41:50.908Z</time></trkpt><trkpt lat="44.1524063" lon="11.4710993"><ele>544.3333333333334</ele><time>2026-04-04T08:41:51.908Z</time></trkpt><trkpt lat="44.1522785" lon="11.4709754"><ele>548.6666666666667</ele><time>2026-04-04T08:41:52.908Z</time></trkpt><trkpt lat="44.1521732" lon="11.4708192"><ele>553.0</ele><time>2026-04-04T08:41:53.908Z</time></trkpt><trkpt lat="44.1521068" lon="11.4706273"><ele>550.75</ele><time>2026-04-04T08:41:54.907Z</time></trkpt><trkpt lat="44.1520715" lon="11.470421"><ele>548.5</ele><time>2026-04-04T08:41:55.909Z</time></trkpt><trkpt lat="44.1520425" lon="11.4702242"><ele>546.25</ele><time>2026-04-04T08:41:56.907Z</time></trkpt><trkpt lat="44.1519962" lon="11.4700578"><ele>544.0</ele><time>2026-04-04T08:41:57.909Z</time></trkpt><trkpt lat="44.1519196" lon="11.4699124"><ele>544.0</ele><time>2026-04-04T08:41:58.908Z</time></trkpt><trkpt lat="44.1518278" lon="11.4698161"><ele>544.0</ele><time>2026-04-04T08:41:59.908Z</time></trkpt><trkpt lat="44.1517232" lon="11.4697702"><ele>544.0</ele><time>2026-04-04T08:42:00.908Z</time></trkpt><trkpt lat="44.1516241" lon="11.4697936"><ele>544.0</ele><time>2026-04-04T08:42:01.908Z</time></trkpt><trkpt lat="44.1515308" lon="11.4698843"><ele>544.0</ele><time>2026-04-04T08:42:02.909Z</time></trkpt><trkpt lat="44.1514444" lon="11.4700314"><ele>543.0</ele><time>2026-04-04T08:42:03.909Z</time></trkpt><trkpt lat="44.1513453" lon="11.4702037"><ele>542.0</ele><time>2026-04-04T08:42:04.908Z</time></trkpt><trkpt lat="44.1512284" lon="11.4703953"><ele>541.0</ele><time>2026-04-04T08:42:05.909Z</time></trkpt><trkpt lat="44.1511004" lon="11.4706062"><ele>541.0</ele><time>2026-04-04T08:42:06.909Z</time></trkpt><trkpt lat="44.1509742" lon="11.4708048"><ele>541.0</ele><time>2026-04-04T08:42:07.908Z</time></trkpt><trkpt lat="44.1508613" lon="11.4709913"><ele>541.0</ele><time>2026-04-04T08:42:08.909Z</time></trkpt><trkpt lat="44.1507581" lon="11.4711724"><ele>536.0</ele><time>2026-04-04T08:42:09.908Z</time></trkpt><trkpt lat="44.1506799" lon="11.4713397"><ele>531.0</ele><time>2026-04-04T08:42:10.908Z</time></trkpt><trkpt lat="44.1506278" lon="11.4714982"><ele>526.0</ele><time>2026-04-04T08:42:11.909Z</time></trkpt><trkpt lat="44.1506138" lon="11.4716474"><ele>521.0</ele><time>2026-04-04T08:42:12.909Z</time></trkpt><trkpt lat="44.1506288" lon="11.4717968"><ele>521.0</ele><time>2026-04-04T08:42:13.908Z</time></trkpt><trkpt lat="44.1506474" lon="11.4719477"><ele>521.0</ele><time>2026-04-04T08:42:14.908Z</time></trkpt><trkpt lat="44.1507217" lon="11.4720754"><ele>521.0</ele><time>2026-04-04T08:42:15.908Z</time></trkpt><trkpt lat="44.1508218" lon="11.4721947"><ele>521.0</ele><time>2026-04-04T08:42:16.909Z</time></trkpt><trkpt lat="44.1509178" lon="11.4723272"><ele>524.5</ele><time>2026-04-04T08:42:17.909Z</time></trkpt><trkpt lat="44.1509926" lon="11.4724959"><ele>528.0</ele><time>2026-04-04T08:42:18.909Z</time></trkpt><trkpt lat="44.1510525" lon="11.4726869"><ele>531.5</ele><time>2026-04-04T08:42:19.909Z</time></trkpt><trkpt lat="44.1511068" lon="11.4728874"><ele>535.0</ele><time>2026-04-04T08:42:20.909Z</time></trkpt><trkpt lat="44.1511648" lon="11.4731121"><ele>535.0</ele><time>2026-04-04T08:42:21.909Z</time></trkpt><trkpt lat="44.1511964" lon="11.4733582"><ele>535.0</ele><time>2026-04-04T08:42:22.909Z</time></trkpt><trkpt lat="44.1512402" lon="11.4736236"><ele>535.0</ele><time>2026-04-04T08:42:23.909Z</time></trkpt><trkpt lat="44.1512873" lon="11.4738671"><ele>532.6666666666667</ele><time>2026-04-04T08:42:24.908Z</time></trkpt><trkpt lat="44.1513292" lon="11.4741001"><ele>530.3333333333334</ele><time>2026-04-04T08:42:25.909Z</time></trkpt><trkpt lat="44.1513781" lon="11.4743215"><ele>528.0</ele><time>2026-04-04T08:42:26.909Z</time></trkpt><trkpt lat="44.1514299" lon="11.4745368"><ele>528.0</ele><time>2026-04-04T08:42:27.907Z</time></trkpt><trkpt lat="44.1514593" lon="11.4747709"><ele>528.0</ele><time>2026-04-04T08:42:28.907Z</time></trkpt><trkpt lat="44.1514842" lon="11.475025"><ele>528.0</ele><time>2026-04-04T08:42:29.908Z</time></trkpt><trkpt lat="44.1515109" lon="11.4752918"><ele>530.3333333333334</ele><time>2026-04-04T08:42:30.909Z</time></trkpt><trkpt lat="44.151533" lon="11.4755729"><ele>532.6666666666667</ele><time>2026-04-04T08:42:31.909Z</time></trkpt><trkpt lat="44.1515521" lon="11.4758351"><ele>535.0</ele><time>2026-04-04T08:42:32.907Z</time></trkpt><trkpt lat="44.151568" lon="11.4760741"><ele>538.5</ele><time>2026-04-04T08:42:33.908Z</time></trkpt><trkpt lat="44.1515857" lon="11.4762858"><ele>542.0</ele><time>2026-04-04T08:42:34.907Z</time></trkpt><trkpt lat="44.1515913" lon="11.4764755"><ele>545.5</ele><time>2026-04-04T08:42:35.908Z</time></trkpt><trkpt lat="44.1515685" lon="11.4766532"><ele>549.0</ele><time>2026-04-04T08:42:36.908Z</time></trkpt><trkpt lat="44.1515041" lon="11.476829"><ele>549.0</ele><time>2026-04-04T08:42:37.909Z</time></trkpt><trkpt lat="44.1514041" lon="11.4769916"><ele>549.0</ele><time>2026-04-04T08:42:38.908Z</time></trkpt><trkpt lat="44.1512939" lon="11.4771315"><ele>549.0</ele><time>2026-04-04T08:42:39.909Z</time></trkpt><trkpt lat="44.1511894" lon="11.4772543"><ele>549.0</ele><time>2026-04-04T08:42:40.909Z</time></trkpt><trkpt lat="44.1510686" lon="11.4773626"><ele>553.6666666666666</ele><time>2026-04-04T08:42:41.908Z</time></trkpt><trkpt lat="44.1509188" lon="11.4774159"><ele>558.3333333333333</ele><time>2026-04-04T08:42:42.908Z</time></trkpt><trkpt lat="44.1507596" lon="11.4774557"><ele>563.0</ele><time>2026-04-04T08:42:43.909Z</time></trkpt><trkpt lat="44.1506162" lon="11.4774913"><ele>563.0</ele><time>2026-04-04T08:42:44.908Z</time></trkpt><trkpt lat="44.1504812" lon="11.4775599"><ele>563.0</ele><time>2026-04-04T08:42:45.908Z</time></trkpt><trkpt lat="44.1503502" lon="11.4776382"><ele>563.0</ele><time>2026-04-04T08:42:46.909Z</time></trkpt><trkpt lat="44.1501904" lon="11.4778219"><ele>564.3333333333333</ele><time>2026-04-04T08:42:47.908Z</time></trkpt><trkpt lat="44.1500396" lon="11.477975"><ele>565.6666666666666</ele><time>2026-04-04T08:42:48.908Z</time></trkpt><trkpt lat="44.1498993" lon="11.4781576"><ele>567.0</ele><time>2026-04-04T08:42:49.909Z</time></trkpt><trkpt lat="44.149766" lon="11.4783435"><ele>567.0</ele><time>2026-04-04T08:42:50.908Z</time></trkpt><trkpt lat="44.1496127" lon="11.4785166"><ele>567.0</ele><time>2026-04-04T08:42:51.909Z</time></trkpt><trkpt lat="44.1494593" lon="11.4786925"><ele>567.0</ele><time>2026-04-04T08:42:52.909Z</time></trkpt><trkpt lat="44.1493163" lon="11.4789027"><ele>568.6666666666666</ele><time>2026-04-04T08:42:53.909Z</time></trkpt><trkpt lat="44.149163" lon="11.4790997"><ele>570.3333333333333</ele><time>2026-04-04T08:42:54.908Z</time></trkpt><trkpt lat="44.1489979" lon="11.4792706"><ele>572.0</ele><time>2026-04-04T08:42:55.907Z</time></trkpt><trkpt lat="44.1488281" lon="11.4794286"><ele>572.0</ele><time>2026-04-04T08:42:56.908Z</time></trkpt><trkpt lat="44.14868" lon="11.4795707"><ele>572.0</ele><time>2026-04-04T08:42:57.909Z</time></trkpt><trkpt lat="44.1485487" lon="11.4796952"><ele>572.0</ele><time>2026-04-04T08:42:58.909Z</time></trkpt><trkpt lat="44.1484348" lon="11.4797937"><ele>574.6666666666666</ele><time>2026-04-04T08:42:59.908Z</time></trkpt><trkpt lat="44.1483475" lon="11.4798902"><ele>577.3333333333333</ele><time>2026-04-04T08:43:00.909Z</time></trkpt><trkpt lat="44.1483075" lon="11.4800016"><ele>580.0</ele><time>2026-04-04T08:43:01.909Z</time></trkpt><trkpt lat="44.148311" lon="11.480097"><ele>582.6666666666666</ele><time>2026-04-04T08:43:02.908Z</time></trkpt><trkpt lat="44.1483742" lon="11.4801803"><ele>585.3333333333334</ele><time>2026-04-04T08:43:03.909Z</time></trkpt><trkpt lat="44.1484621" lon="11.4801941"><ele>588.0</ele><time>2026-04-04T08:43:04.908Z</time></trkpt><trkpt lat="44.1485599" lon="11.4801445"><ele>588.0</ele><time>2026-04-04T08:43:05.909Z</time></trkpt><trkpt lat="44.1486674" lon="11.4800544"><ele>588.0</ele><time>2026-04-04T08:43:06.909Z</time></trkpt><trkpt lat="44.1488009" lon="11.4799672"><ele>588.0</ele><time>2026-04-04T08:43:07.907Z</time></trkpt><trkpt lat="44.1489569" lon="11.4798999"><ele>588.0</ele><time>2026-04-04T08:43:08.908Z</time></trkpt><trkpt lat="44.1491364" lon="11.4798442"><ele>593.3333333333334</ele><time>2026-04-04T08:43:09.908Z</time></trkpt><trkpt lat="44.1493118" lon="11.479787"><ele>598.6666666666667</ele><time>2026-04-04T08:43:10.907Z</time></trkpt><trkpt lat="44.1494669" lon="11.4797168"><ele>604.0</ele><time>2026-04-04T08:43:11.907Z</time></trkpt><trkpt lat="44.149625" lon="11.479628"><ele>603.3333333333334</ele><time>2026-04-04T08:43:12.908Z</time></trkpt><trkpt lat="44.1497884" lon="11.4795128"><ele>602.6666666666666</ele><time>2026-04-04T08:43:13.908Z</time></trkpt><trkpt lat="44.149953" lon="11.4793734"><ele>602.0</ele><time>2026-04-04T08:43:14.908Z</time></trkpt><trkpt lat="44.150106" lon="11.4792473"><ele>602.0</ele><time>2026-04-04T08:43:15.908Z</time></trkpt><trkpt lat="44.1502441" lon="11.4791217"><ele>602.0</ele><time>2026-04-04T08:43:16.908Z</time></trkpt><trkpt lat="44.1503775" lon="11.4790322"><ele>602.0</ele><time>2026-04-04T08:43:17.908Z</time></trkpt><trkpt lat="44.1505169" lon="11.4789794"><ele>602.0</ele><time>2026-04-04T08:43:18.907Z</time></trkpt><trkpt lat="44.1506627" lon="11.4789778"><ele>602.0</ele><time>2026-04-04T08:43:19.908Z</time></trkpt><trkpt lat="44.1508163" lon="11.4790017"><ele>602.0</ele><time>2026-04-04T08:43:20.908Z</time></trkpt><trkpt lat="44.1509818" lon="11.4790256"><ele>605.0</ele><time>2026-04-04T08:43:21.908Z</time></trkpt><trkpt lat="44.1511542" lon="11.4790625"><ele>608.0</ele><time>2026-04-04T08:43:22.907Z</time></trkpt><trkpt lat="44.1513148" lon="11.4791062"><ele>611.0</ele><time>2026-04-04T08:43:23.908Z</time></trkpt><trkpt lat="44.1514674" lon="11.4791524"><ele>612.25</ele><time>2026-04-04T08:43:24.908Z</time></trkpt><trkpt lat="44.151604" lon="11.4792195"><ele>613.5</ele><time>2026-04-04T08:43:25.906Z</time></trkpt><trkpt lat="44.1517209" lon="11.4793096"><ele>614.75</ele><time>2026-04-04T08:43:26.908Z</time></trkpt><trkpt lat="44.1518165" lon="11.479392"><ele>616.0</ele><time>2026-04-04T08:43:27.908Z</time></trkpt><trkpt lat="44.1519245" lon="11.4794385"><ele>616.0</ele><time>2026-04-04T08:43:28.907Z</time></trkpt><trkpt lat="44.1520525" lon="11.4794395"><ele>616.0</ele><time>2026-04-04T08:43:29.908Z</time></trkpt><trkpt lat="44.1521763" lon="11.479406"><ele>616.0</ele><time>2026-04-04T08:43:30.907Z</time></trkpt><trkpt lat="44.1522862" lon="11.4793497"><ele>616.0</ele><time>2026-04-04T08:43:31.908Z</time></trkpt><trkpt lat="44.1523773" lon="11.4792444"><ele>616.6666666666667</ele><time>2026-04-04T08:43:32.907Z</time></trkpt><trkpt lat="44.1524472" lon="11.4790767"><ele>617.3333333333334</ele><time>2026-04-04T08:43:33.908Z</time></trkpt><trkpt lat="44.1525031" lon="11.4788662"><ele>618.0</ele><time>2026-04-04T08:43:34.908Z</time></trkpt><trkpt lat="44.1525685" lon="11.4786256"><ele>618.0</ele><time>2026-04-04T08:43:35.907Z</time></trkpt><trkpt lat="44.1526458" lon="11.4783642"><ele>618.0</ele><time>2026-04-04T08:43:36.908Z</time></trkpt><trkpt lat="44.1527322" lon="11.4780805"><ele>618.0</ele><time>2026-04-04T08:43:37.908Z</time></trkpt><trkpt lat="44.1528131" lon="11.4778193"><ele>616.6666666666666</ele><time>2026-04-04T08:43:38.907Z</time></trkpt><trkpt lat="44.1528821" lon="11.4775903"><ele>615.3333333333333</ele><time>2026-04-04T08:43:39.908Z</time></trkpt><trkpt lat="44.1529169" lon="11.4773809"><ele>614.0</ele><time>2026-04-04T08:43:40.908Z</time></trkpt><trkpt lat="44.1529079" lon="11.4771746"><ele>615.3333333333333</ele><time>2026-04-04T08:43:41.908Z</time></trkpt><trkpt lat="44.1528567" lon="11.4769612"><ele>616.6666666666666</ele><time>2026-04-04T08:43:42.907Z</time></trkpt><trkpt lat="44.1527881" lon="11.476749"><ele>618.0</ele><time>2026-04-04T08:43:43.907Z</time></trkpt><trkpt lat="44.1527327" lon="11.4765676"><ele>618.0</ele><time>2026-04-04T08:43:44.906Z</time></trkpt><trkpt lat="44.1526891" lon="11.4763989"><ele>618.0</ele><time>2026-04-04T08:43:45.908Z</time></trkpt><trkpt lat="44.1526716" lon="11.4762312"><ele>618.0</ele><time>2026-04-04T08:43:46.907Z</time></trkpt><trkpt lat="44.1526817" lon="11.4760854"><ele>618.0</ele><time>2026-04-04T08:43:47.907Z</time></trkpt><trkpt lat="44.1527219" lon="11.4759619"><ele>618.5</ele><time>2026-04-04T08:43:48.908Z</time></trkpt><trkpt lat="44.1528031" lon="11.4758561"><ele>619.0</ele><time>2026-04-04T08:43:49.908Z</time></trkpt><trkpt lat="44.1529089" lon="11.4757704"><ele>619.5</ele><time>2026-04-04T08:43:50.908Z</time></trkpt><trkpt lat="44.1530178" lon="11.4757069"><ele>620.0</ele><time>2026-04-04T08:43:51.907Z</time></trkpt><trkpt lat="44.1531298" lon="11.4756913"><ele>623.2</ele><time>2026-04-04T08:43:52.908Z</time></trkpt><trkpt lat="44.1532315" lon="11.4757375"><ele>626.4</ele><time>2026-04-04T08:43:53.908Z</time></trkpt><trkpt lat="44.1533333" lon="11.4758265"><ele>629.6</ele><time>2026-04-04T08:43:54.907Z</time></trkpt><trkpt lat="44.1534125" lon="11.4759368"><ele>632.8</ele><time>2026-04-04T08:43:55.908Z</time></trkpt><trkpt lat="44.1534638" lon="11.4760726"><ele>636.0</ele><time>2026-04-04T08:43:56.907Z</time></trkpt><trkpt lat="44.1534772" lon="11.4762401"><ele>637.0</ele><time>2026-04-04T08:43:57.908Z</time></trkpt><trkpt lat="44.153475" lon="11.4764395"><ele>638.0</ele><time>2026-04-04T08:43:58.906Z</time></trkpt><trkpt lat="44.1534686" lon="11.4766759"><ele>639.0</ele><time>2026-04-04T08:43:59.907Z</time></trkpt><trkpt lat="44.1534592" lon="11.4769409"><ele>639.6666666666666</ele><time>2026-04-04T08:44:00.908Z</time></trkpt><trkpt lat="44.1534484" lon="11.4772213"><ele>640.3333333333333</ele><time>2026-04-04T08:44:01.908Z</time></trkpt><trkpt lat="44.1534372" lon="11.4775153"><ele>641.0</ele><time>2026-04-04T08:44:02.907Z</time></trkpt><trkpt lat="44.1534264" lon="11.4777686"><ele>642.6666666666666</ele><time>2026-04-04T08:44:03.907Z</time></trkpt><trkpt lat="44.1534167" lon="11.4779979"><ele>644.3333333333334</ele><time>2026-04-04T08:44:04.908Z</time></trkpt><trkpt lat="44.153404" lon="11.4782072"><ele>646.0</ele><time>2026-04-04T08:44:05.907Z</time></trkpt><trkpt lat="44.1533813" lon="11.4784019"><ele>646.0</ele><time>2026-04-04T08:44:06.907Z</time></trkpt><trkpt lat="44.1533471" lon="11.4785858"><ele>646.0</ele><time>2026-04-04T08:44:07.908Z</time></trkpt><trkpt lat="44.1533041" lon="11.4787601"><ele>646.0</ele><time>2026-04-04T08:44:08.908Z</time></trkpt><trkpt lat="44.1532865" lon="11.4789455"><ele>646.0</ele><time>2026-04-04T08:44:09.908Z</time></trkpt><trkpt lat="44.153291" lon="11.4791327"><ele>649.0</ele><time>2026-04-04T08:44:10.908Z</time></trkpt><trkpt lat="44.1533404" lon="11.4793293"><ele>652.0</ele><time>2026-04-04T08:44:11.907Z</time></trkpt><trkpt lat="44.153406" lon="11.4795369"><ele>655.0</ele><time>2026-04-04T08:44:12.907Z</time></trkpt><trkpt lat="44.153492" lon="11.4797671"><ele>659.0</ele><time>2026-04-04T08:44:13.907Z</time></trkpt><trkpt lat="44.153578" lon="11.4800241"><ele>663.0</ele><time>2026-04-04T08:44:14.908Z</time></trkpt><trkpt lat="44.1536697" lon="11.4802718"><ele>667.0</ele><time>2026-04-04T08:44:15.908Z</time></trkpt><trkpt lat="44.1537463" lon="11.4804851"><ele>669.5</ele><time>2026-04-04T08:44:16.906Z</time></trkpt><trkpt lat="44.1538045" lon="11.4806837"><ele>672.0</ele><time>2026-04-04T08:44:17.908Z</time></trkpt><trkpt lat="44.1538347" lon="11.4808697"><ele>674.5</ele><time>2026-04-04T08:44:18.908Z</time></trkpt><trkpt lat="44.1538647" lon="11.4810393"><ele>677.0</ele><time>2026-04-04T08:44:19.907Z</time></trkpt><trkpt lat="44.1539251" lon="11.4811946"><ele>676.0</ele><time>2026-04-04T08:44:20.908Z</time></trkpt><trkpt lat="44.1540157" lon="11.4813178"><ele>675.0</ele><time>2026-04-04T08:44:21.907Z</time></trkpt><trkpt lat="44.1541061" lon="11.4814287"><ele>674.0</ele><time>2026-04-04T08:44:22.907Z</time></trkpt><trkpt lat="44.1541593" lon="11.4815669"><ele>673.0</ele><time>2026-04-04T08:44:23.906Z</time></trkpt><trkpt lat="44.154174" lon="11.4817227"><ele>673.0</ele><time>2026-04-04T08:44:24.908Z</time></trkpt><trkpt lat="44.154142" lon="11.4818712"><ele>673.0</ele><time>2026-04-04T08:44:25.908Z</time></trkpt><trkpt lat="44.1540647" lon="11.4819909"><ele>673.0</ele><time>2026-04-04T08:44:26.908Z</time></trkpt><trkpt lat="44.153987" lon="11.4821042"><ele>673.0</ele><time>2026-04-04T08:44:27.908Z</time></trkpt><trkpt lat="44.1538618" lon="11.4821885"><ele>677.6666666666667</ele><time>2026-04-04T08:44:28.908Z</time></trkpt><trkpt lat="44.1537005" lon="11.4822999"><ele>682.3333333333334</ele><time>2026-04-04T08:44:29.908Z</time></trkpt><trkpt lat="44.1535646" lon="11.4824062"><ele>687.0</ele><time>2026-04-04T08:44:30.906Z</time></trkpt><trkpt lat="44.1534219" lon="11.4825153"><ele>687.0</ele><time>2026-04-04T08:44:31.907Z</time></trkpt><trkpt lat="44.1532622" lon="11.4825887"><ele>687.0</ele><time>2026-04-04T08:44:32.906Z</time></trkpt><trkpt lat="44.1530674" lon="11.4826203"><ele>687.0</ele><time>2026-04-04T08:44:33.906Z</time></trkpt><trkpt lat="44.152874" lon="11.4826879"><ele>686.3333333333334</ele><time>2026-04-04T08:44:34.906Z</time></trkpt><trkpt lat="44.152653" lon="11.4827566"><ele>685.6666666666667</ele><time>2026-04-04T08:44:35.908Z</time></trkpt><trkpt lat="44.1524384" lon="11.4828304"><ele>685.0</ele><time>2026-04-04T08:44:36.907Z</time></trkpt><trkpt lat="44.1522429" lon="11.482887"><ele>688.3333333333334</ele><time>2026-04-04T08:44:37.908Z</time></trkpt><trkpt lat="44.152053" lon="11.4829435"><ele>691.6666666666666</ele><time>2026-04-04T08:44:38.907Z</time></trkpt><trkpt lat="44.1518696" lon="11.4830035"><ele>695.0</ele><time>2026-04-04T08:44:39.908Z</time></trkpt><trkpt lat="44.1516919" lon="11.4830891"><ele>695.0</ele><time>2026-04-04T08:44:40.907Z</time></trkpt><trkpt lat="44.1515344" lon="11.4831902"><ele>695.0</ele><time>2026-04-04T08:44:41.906Z</time></trkpt><trkpt lat="44.1513988" lon="11.4833037"><ele>695.0</ele><time>2026-04-04T08:44:42.907Z</time></trkpt><trkpt lat="44.1512862" lon="11.4834106"><ele>695.0</ele><time>2026-04-04T08:44:43.906Z</time></trkpt><trkpt lat="44.1512077" lon="11.4835209"><ele>695.0</ele><time>2026-04-04T08:44:44.907Z</time></trkpt><trkpt lat="44.1511692" lon="11.483643"><ele>695.0</ele><time>2026-04-04T08:44:45.907Z</time></trkpt><trkpt lat="44.1511727" lon="11.4837743"><ele>695.0</ele><time>2026-04-04T08:44:46.907Z</time></trkpt><trkpt lat="44.1512251" lon="11.4838917"><ele>695.0</ele><time>2026-04-04T08:44:47.908Z</time></trkpt><trkpt lat="44.1513201" lon="11.4839718"><ele>697.5</ele><time>2026-04-04T08:44:48.908Z</time></trkpt><trkpt lat="44.1514426" lon="11.4840035"><ele>700.0</ele><time>2026-04-04T08:44:49.907Z</time></trkpt><trkpt lat="44.1515596" lon="11.4840279"><ele>702.5</ele><time>2026-04-04T08:44:50.907Z</time></trkpt><trkpt lat="44.15165" lon="11.4841033"><ele>705.0</ele><time>2026-04-04T08:44:51.907Z</time></trkpt><trkpt lat="44.1517212" lon="11.4842217"><ele>705.0</ele><time>2026-04-04T08:44:52.908Z</time></trkpt><trkpt lat="44.1517482" lon="11.4843668"><ele>705.0</ele><time>2026-04-04T08:44:53.907Z</time></trkpt><trkpt lat="44.1517271" lon="11.4845089"><ele>705.0</ele><time>2026-04-04T08:44:54.907Z</time></trkpt><trkpt lat="44.1516621" lon="11.4846249"><ele>705.0</ele><time>2026-04-04T08:44:55.907Z</time></trkpt><trkpt lat="44.1515615" lon="11.484687"><ele>705.0</ele><time>2026-04-04T08:44:56.907Z</time></trkpt><trkpt lat="44.1514486" lon="11.4846848"><ele>706.75</ele><time>2026-04-04T08:44:57.907Z</time></trkpt><trkpt lat="44.1513295" lon="11.4846272"><ele>708.5</ele><time>2026-04-04T08:44:58.908Z</time></trkpt><trkpt lat="44.1511963" lon="11.4845492"><ele>710.25</ele><time>2026-04-04T08:44:59.908Z</time></trkpt><trkpt lat="44.1510438" lon="11.4844658"><ele>712.0</ele><time>2026-04-04T08:45:00.908Z</time></trkpt><trkpt lat="44.1508905" lon="11.4843825"><ele>712.0</ele><time>2026-04-04T08:45:01.908Z</time></trkpt><trkpt lat="44.1507548" lon="11.4843147"><ele>712.0</ele><time>2026-04-04T08:45:02.908Z</time></trkpt><trkpt lat="44.15063" lon="11.4842633"><ele>712.0</ele><time>2026-04-04T08:45:03.908Z</time></trkpt><trkpt lat="44.1505213" lon="11.4842638"><ele>712.0</ele><time>2026-04-04T08:45:04.908Z</time></trkpt><trkpt lat="44.1504099" lon="11.484322"><ele>713.5</ele><time>2026-04-04T08:45:05.907Z</time></trkpt><trkpt lat="44.1503017" lon="11.4844286"><ele>715.0</ele><time>2026-04-04T08:45:06.907Z</time></trkpt><trkpt lat="44.1501972" lon="11.4845541"><ele>716.5</ele><time>2026-04-04T08:45:07.907Z</time></trkpt><trkpt lat="44.1500965" lon="11.4846755"><ele>718.0</ele><time>2026-04-04T08:45:08.908Z</time></trkpt><trkpt lat="44.1500219" lon="11.4847947"><ele>718.0</ele><time>2026-04-04T08:45:09.907Z</time></trkpt><trkpt lat="44.1499805" lon="11.4849406"><ele>718.0</ele><time>2026-04-04T08:45:10.906Z</time></trkpt><trkpt lat="44.1499797" lon="11.4850814"><ele>718.0</ele><time>2026-04-04T08:45:11.907Z</time></trkpt><trkpt lat="44.150009" lon="11.4851799"><ele>718.0</ele><time>2026-04-04T08:45:12.907Z</time></trkpt><trkpt lat="44.1500733" lon="11.485233"><ele>718.0</ele><time>2026-04-04T08:45:13.906Z</time></trkpt><trkpt lat="44.1501641" lon="11.4852292"><ele>718.0</ele><time>2026-04-04T08:45:14.908Z</time></trkpt><trkpt lat="44.1502593" lon="11.4851817"><ele>718.0</ele><time>2026-04-04T08:45:15.907Z</time></trkpt><trkpt lat="44.1503647" lon="11.4851577"><ele>718.0</ele><time>2026-04-04T08:45:16.907Z</time></trkpt><trkpt lat="44.1504785" lon="11.4851896"><ele>718.0</ele><time>2026-04-04T08:45:17.907Z</time></trkpt><trkpt lat="44.1505916" lon="11.485276"><ele>718.0</ele><time>2026-04-04T08:45:18.907Z</time></trkpt><trkpt lat="44.1506909" lon="11.4854179"><ele>718.0</ele><time>2026-04-04T08:45:19.907Z</time></trkpt><trkpt lat="44.1507781" lon="11.4855849"><ele>718.0</ele><time>2026-04-04T08:45:20.908Z</time></trkpt><trkpt lat="44.1508552" lon="11.4857298"><ele>718.0</ele><time>2026-04-04T08:45:21.907Z</time></trkpt><trkpt lat="44.1509067" lon="11.4858702"><ele>720.2</ele><time>2026-04-04T08:45:22.907Z</time></trkpt><trkpt lat="44.150914" lon="11.4860029"><ele>722.4</ele><time>2026-04-04T08:45:23.908Z</time></trkpt><trkpt lat="44.1508785" lon="11.4861175"><ele>724.6</ele><time>2026-04-04T08:45:24.906Z</time></trkpt><trkpt lat="44.1508064" lon="11.4862011"><ele>726.8000000000001</ele><time>2026-04-04T08:45:25.907Z</time></trkpt><trkpt lat="44.1507124" lon="11.4862239"><ele>729.0</ele><time>2026-04-04T08:45:26.907Z</time></trkpt><trkpt lat="44.1506211" lon="11.4861819"><ele>729.0</ele><time>2026-04-04T08:45:27.906Z</time></trkpt><trkpt lat="44.1505371" lon="11.48611"><ele>729.0</ele><time>2026-04-04T08:45:28.907Z</time></trkpt><trkpt lat="44.1504301" lon="11.4860755"><ele>729.0</ele><time>2026-04-04T08:45:29.907Z</time></trkpt><trkpt lat="44.1503084" lon="11.4860713"><ele>729.0</ele><time>2026-04-04T08:45:30.907Z</time></trkpt><trkpt lat="44.1502048" lon="11.4860962"><ele>729.0</ele><time>2026-04-04T08:45:31.907Z</time></trkpt><trkpt lat="44.1501115" lon="11.4861707"><ele>731.25</ele><time>2026-04-04T08:45:32.908Z</time></trkpt><trkpt lat="44.1500427" lon="11.4862929"><ele>733.5</ele><time>2026-04-04T08:45:33.908Z</time></trkpt><trkpt lat="44.1500123" lon="11.4864425"><ele>735.75</ele><time>2026-04-04T08:45:34.907Z</time></trkpt><trkpt lat="44.1500194" lon="11.4866123"><ele>738.0</ele><time>2026-04-04T08:45:35.907Z</time></trkpt><trkpt lat="44.1500698" lon="11.4867719"><ele>738.0</ele><time>2026-04-04T08:45:36.908Z</time></trkpt><trkpt lat="44.1501562" lon="11.4869088"><ele>738.0</ele><time>2026-04-04T08:45:37.907Z</time></trkpt><trkpt lat="44.1502651" lon="11.4870096"><ele>738.0</ele><time>2026-04-04T08:45:38.907Z</time></trkpt><trkpt lat="44.1503635" lon="11.4871155"><ele>738.0</ele><time>2026-04-04T08:45:39.907Z</time></trkpt><trkpt lat="44.1504296" lon="11.4872433"><ele>740.75</ele><time>2026-04-04T08:45:40.908Z</time></trkpt><trkpt lat="44.1504878" lon="11.4873796"><ele>743.5</ele><time>2026-04-04T08:45:41.907Z</time></trkpt><trkpt lat="44.1505198" lon="11.4875269"><ele>746.25</ele><time>2026-04-04T08:45:42.907Z</time></trkpt><trkpt lat="44.1505223" lon="11.4876891"><ele>749.0</ele><time>2026-04-04T08:45:43.908Z</time></trkpt><trkpt lat="44.1504988" lon="11.4878511"><ele>749.25</ele><time>2026-04-04T08:45:44.906Z</time></trkpt><trkpt lat="44.1504384" lon="11.4879835"><ele>749.5</ele><time>2026-04-04T08:45:45.908Z</time></trkpt><trkpt lat="44.1503477" lon="11.4880706"><ele>749.75</ele><time>2026-04-04T08:45:46.908Z</time></trkpt><trkpt lat="44.1502318" lon="11.4881221"><ele>750.0</ele><time>2026-04-04T08:45:47.907Z</time></trkpt><trkpt lat="44.1500939" lon="11.488174"><ele>750.0</ele><time>2026-04-04T08:45:48.908Z</time></trkpt><trkpt lat="44.149934" lon="11.4882376"><ele>750.0</ele><time>2026-04-04T08:45:49.907Z</time></trkpt><trkpt lat="44.1497766" lon="11.4883011"><ele>750.0</ele><time>2026-04-04T08:45:50.907Z</time></trkpt><trkpt lat="44.1496234" lon="11.4883368"><ele>755.6666666666666</ele><time>2026-04-04T08:45:51.907Z</time></trkpt><trkpt lat="44.149459" lon="11.4883226"><ele>761.3333333333333</ele><time>2026-04-04T08:45:52.908Z</time></trkpt><trkpt lat="44.1492845" lon="11.4882746"><ele>767.0</ele><time>2026-04-04T08:45:53.907Z</time></trkpt><trkpt lat="44.1491011" lon="11.4882252"><ele>771.5</ele><time>2026-04-04T08:45:54.907Z</time></trkpt><trkpt lat="44.148939" lon="11.4881848"><ele>776.0</ele><time>2026-04-04T08:45:55.907Z</time></trkpt><trkpt lat="44.1487967" lon="11.4881479"><ele>780.5</ele><time>2026-04-04T08:45:56.908Z</time></trkpt><trkpt lat="44.1486748" lon="11.4880791"><ele>785.0</ele><time>2026-04-04T08:45:57.908Z</time></trkpt><trkpt lat="44.1485728" lon="11.4879637"><ele>781.0</ele><time>2026-04-04T08:45:58.907Z</time></trkpt><trkpt lat="44.1484919" lon="11.4878095"><ele>777.0</ele><time>2026-04-04T08:45:59.907Z</time></trkpt><trkpt lat="44.1484234" lon="11.4876604"><ele>773.0</ele><time>2026-04-04T08:46:00.908Z</time></trkpt><trkpt lat="44.1483399" lon="11.4875497"><ele>769.0</ele><time>2026-04-04T08:46:01.908Z</time></trkpt><trkpt lat="44.1482358" lon="11.4874857"><ele>768.25</ele><time>2026-04-04T08:46:02.907Z</time></trkpt><trkpt lat="44.1481244" lon="11.4874803"><ele>767.5</ele><time>2026-04-04T08:46:03.908Z</time></trkpt><trkpt lat="44.148017" lon="11.4875354"><ele>766.75</ele><time>2026-04-04T08:46:04.908Z</time></trkpt><trkpt lat="44.1479048" lon="11.4876345"><ele>766.0</ele><time>2026-04-04T08:46:05.907Z</time></trkpt><trkpt lat="44.1477771" lon="11.4877297"><ele>766.0</ele><time>2026-04-04T08:46:06.908Z</time></trkpt><trkpt lat="44.1476228" lon="11.4877851"><ele>766.0</ele><time>2026-04-04T08:46:07.908Z</time></trkpt><trkpt lat="44.1474748" lon="11.4878009"><ele>766.0</ele><time>2026-04-04T08:46:08.908Z</time></trkpt><trkpt lat="44.1473425" lon="11.4878212"><ele>766.0</ele><time>2026-04-04T08:46:09.908Z</time></trkpt><trkpt lat="44.1472173" lon="11.4878735"><ele>767.1666666666667</ele><time>2026-04-04T08:46:10.907Z</time></trkpt><trkpt lat="44.1471219" lon="11.4879661"><ele>768.3333333333334</ele><time>2026-04-04T08:46:11.907Z</time></trkpt><trkpt lat="44.147076" lon="11.4880727"><ele>769.5</ele><time>2026-04-04T08:46:12.908Z</time></trkpt><trkpt lat="44.1470753" lon="11.4881622"><ele>770.6666666666667</ele><time>2026-04-04T08:46:13.907Z</time></trkpt><trkpt lat="44.147114" lon="11.4882431"><ele>771.8333333333334</ele><time>2026-04-04T08:46:14.908Z</time></trkpt><trkpt lat="44.1471899" lon="11.4882899"><ele>773.0</ele><time>2026-04-04T08:46:15.908Z</time></trkpt><trkpt lat="44.1472859" lon="11.4882798"><ele>776.0</ele><time>2026-04-04T08:46:16.908Z</time></trkpt><trkpt lat="44.1473939" lon="11.4882322"><ele>779.0</ele><time>2026-04-04T08:46:17.906Z</time></trkpt><trkpt lat="44.1475146" lon="11.4882086"><ele>782.0</ele><time>2026-04-04T08:46:18.908Z</time></trkpt><trkpt lat="44.1476454" lon="11.4882419"><ele>785.0</ele><time>2026-04-04T08:46:19.908Z</time></trkpt><trkpt lat="44.1477936" lon="11.4882979"><ele>785.0</ele><time>2026-04-04T08:46:20.908Z</time></trkpt><trkpt lat="44.1479295" lon="11.4883566"><ele>785.0</ele><time>2026-04-04T08:46:21.907Z</time></trkpt><trkpt lat="44.1480464" lon="11.4884052"><ele>785.0</ele><time>2026-04-04T08:46:22.907Z</time></trkpt><trkpt lat="44.1481523" lon="11.4884665"><ele>785.0</ele><time>2026-04-04T08:46:23.907Z</time></trkpt><trkpt lat="44.1482356" lon="11.4885647"><ele>785.0000000000001</ele><time>2026-04-04T08:46:24.906Z</time></trkpt><trkpt lat="44.14828" lon="11.4886832"><ele>785.0</ele><time>2026-04-04T08:46:25.908Z</time></trkpt><trkpt lat="44.1482822" lon="11.4888048"><ele>785.0</ele><time>2026-04-04T08:46:26.907Z</time></trkpt><trkpt lat="44.1482427" lon="11.4889033"><ele>785.0</ele><time>2026-04-04T08:46:27.908Z</time></trkpt><trkpt lat="44.1481713" lon="11.4889536"><ele>785.0000000000001</ele><time>2026-04-04T08:46:28.907Z</time></trkpt><trkpt lat="44.1480783" lon="11.4889492"><ele>785.0</ele><time>2026-04-04T08:46:29.908Z</time></trkpt><trkpt lat="44.1479719" lon="11.4888987"><ele>788.5</ele><time>2026-04-04T08:46:30.906Z</time></trkpt><trkpt lat="44.1478499" lon="11.4888349"><ele>792.0</ele><time>2026-04-04T08:46:31.908Z</time></trkpt><trkpt lat="44.1477327" lon="11.4887917"><ele>795.5</ele><time>2026-04-04T08:46:32.907Z</time></trkpt><trkpt lat="44.1476213" lon="11.4887812"><ele>799.0</ele><time>2026-04-04T08:46:33.906Z</time></trkpt><trkpt lat="44.1475238" lon="11.4888224"><ele>799.0</ele><time>2026-04-04T08:46:34.908Z</time></trkpt><trkpt lat="44.1474599" lon="11.4889136"><ele>799.0</ele><time>2026-04-04T08:46:35.907Z</time></trkpt><trkpt lat="44.1474372" lon="11.4890355"><ele>799.0</ele><time>2026-04-04T08:46:36.906Z</time></trkpt><trkpt lat="44.1474619" lon="11.4891582"><ele>799.0</ele><time>2026-04-04T08:46:37.908Z</time></trkpt><trkpt lat="44.1475284" lon="11.4892535"><ele>799.0</ele><time>2026-04-04T08:46:38.906Z</time></trkpt><trkpt lat="44.1476305" lon="11.4893152"><ele>799.0</ele><time>2026-04-04T08:46:39.908Z</time></trkpt><trkpt lat="44.1477608" lon="11.489369"><ele>799.0</ele><time>2026-04-04T08:46:40.907Z</time></trkpt><trkpt lat="44.1479061" lon="11.4894357"><ele>799.0</ele><time>2026-04-04T08:46:41.907Z</time></trkpt><trkpt lat="44.1480504" lon="11.4895112"><ele>799.0</ele><time>2026-04-04T08:46:42.909Z</time></trkpt><trkpt lat="44.1481852" lon="11.4896216"><ele>801.5</ele><time>2026-04-04T08:46:43.908Z</time></trkpt><trkpt lat="44.1483005" lon="11.489752"><ele>804.0</ele><time>2026-04-04T08:46:44.908Z</time></trkpt><trkpt lat="44.1483906" lon="11.489893"><ele>806.5</ele><time>2026-04-04T08:46:45.908Z</time></trkpt><trkpt lat="44.1484427" lon="11.4900467"><ele>809.0</ele><time>2026-04-04T08:46:46.908Z</time></trkpt><trkpt lat="44.1484611" lon="11.4902102"><ele>809.0</ele><time>2026-04-04T08:46:47.907Z</time></trkpt><trkpt lat="44.1484454" lon="11.4903815"><ele>809.0</ele><time>2026-04-04T08:46:48.908Z</time></trkpt><trkpt lat="44.1484083" lon="11.490566"><ele>809.0</ele><time>2026-04-04T08:46:49.907Z</time></trkpt><trkpt lat="44.1483646" lon="11.4907658"><ele>809.0</ele><time>2026-04-04T08:46:50.907Z</time></trkpt><trkpt lat="44.1483155" lon="11.4909908"><ele>810.3333333333334</ele><time>2026-04-04T08:46:51.908Z</time></trkpt><trkpt lat="44.1482683" lon="11.4912232"><ele>811.6666666666667</ele><time>2026-04-04T08:46:52.908Z</time></trkpt><trkpt lat="44.1482115" lon="11.4914409"><ele>813.0</ele><time>2026-04-04T08:46:53.906Z</time></trkpt><trkpt lat="44.1481414" lon="11.4916147"><ele>819.75</ele><time>2026-04-04T08:46:54.907Z</time></trkpt><trkpt lat="44.148071" lon="11.4917639"><ele>826.5</ele><time>2026-04-04T08:46:55.907Z</time></trkpt><trkpt lat="44.14802" lon="11.4919273"><ele>833.25</ele><time>2026-04-04T08:46:56.907Z</time></trkpt><trkpt lat="44.1479953" lon="11.4921221"><ele>840.0</ele><time>2026-04-04T08:46:57.906Z</time></trkpt><trkpt lat="44.1479827" lon="11.4923361"><ele>844.0</ele><time>2026-04-04T08:46:58.907Z</time></trkpt><trkpt lat="44.1479687" lon="11.4925644"><ele>848.0</ele><time>2026-04-04T08:46:59.907Z</time></trkpt><trkpt lat="44.1479491" lon="11.4928066"><ele>852.0</ele><time>2026-04-04T08:47:00.907Z</time></trkpt><trkpt lat="44.1479261" lon="11.4930443"><ele>855.0</ele><time>2026-04-04T08:47:01.908Z</time></trkpt><trkpt lat="44.1479045" lon="11.493271"><ele>858.0</ele><time>2026-04-04T08:47:02.907Z</time></trkpt><trkpt lat="44.147898" lon="11.4934986"><ele>861.0</ele><time>2026-04-04T08:47:03.908Z</time></trkpt><trkpt lat="44.1479249" lon="11.4937387"><ele>862.3333333333333</ele><time>2026-04-04T08:47:04.908Z</time></trkpt><trkpt lat="44.1479759" lon="11.4939954"><ele>863.6666666666666</ele><time>2026-04-04T08:47:05.908Z</time></trkpt><trkpt lat="44.1480293" lon="11.4942689"><ele>865.0</ele><time>2026-04-04T08:47:06.908Z</time></trkpt><trkpt lat="44.1480645" lon="11.4945687"><ele>866.0</ele><time>2026-04-04T08:47:07.907Z</time></trkpt><trkpt lat="44.1480844" lon="11.4948764"><ele>867.0</ele><time>2026-04-04T08:47:08.907Z</time></trkpt><trkpt lat="44.1481024" lon="11.4951741"><ele>868.0</ele><time>2026-04-04T08:47:09.908Z</time></trkpt><trkpt lat="44.1481219" lon="11.4954433"><ele>871.6666666666666</ele><time>2026-04-04T08:47:10.908Z</time></trkpt><trkpt lat="44.1481399" lon="11.4956922"><ele>875.3333333333333</ele><time>2026-04-04T08:47:11.907Z</time></trkpt><trkpt lat="44.1481657" lon="11.4959173"><ele>879.0</ele><time>2026-04-04T08:47:12.907Z</time></trkpt><trkpt lat="44.148218" lon="11.4961294"><ele>871.3333333333333</ele><time>2026-04-04T08:47:13.906Z</time></trkpt><trkpt lat="44.1483002" lon="11.49633"><ele>863.6666666666666</ele><time>2026-04-04T08:47:14.908Z</time></trkpt><trkpt lat="44.1484024" lon="11.4965232"><ele>856.0</ele><time>2026-04-04T08:47:15.906Z</time></trkpt><trkpt lat="44.1485204" lon="11.4967052"><ele>856.0</ele><time>2026-04-04T08:47:16.907Z</time></trkpt><trkpt lat="44.1486355" lon="11.4968902"><ele>856.0</ele><time>2026-04-04T08:47:17.907Z</time></trkpt><trkpt lat="44.1487387" lon="11.497086"><ele>856.0</ele><time>2026-04-04T08:47:18.906Z</time></trkpt><trkpt lat="44.1488337" lon="11.4972838"><ele>853.25</ele><time>2026-04-04T08:47:19.908Z</time></trkpt><trkpt lat="44.1489118" lon="11.4974631"><ele>850.5</ele><time>2026-04-04T08:47:20.907Z</time></trkpt><trkpt lat="44.1489836" lon="11.4976206"><ele>847.75</ele><time>2026-04-04T08:47:21.907Z</time></trkpt><trkpt lat="44.1490421" lon="11.4977646"><ele>845.0</ele><time>2026-04-04T08:47:22.908Z</time></trkpt><trkpt lat="44.149063" lon="11.4979016"><ele>849.2</ele><time>2026-04-04T08:47:23.908Z</time></trkpt><trkpt lat="44.1490419" lon="11.4980293"><ele>853.4</ele><time>2026-04-04T08:47:24.908Z</time></trkpt><trkpt lat="44.1489833" lon="11.4981344"><ele>857.5999999999999</ele><time>2026-04-04T08:47:25.907Z</time></trkpt><trkpt lat="44.1488919" lon="11.4981938"><ele>861.8</ele><time>2026-04-04T08:47:26.907Z</time></trkpt><trkpt lat="44.1487856" lon="11.4982294"><ele>866.0</ele><time>2026-04-04T08:47:27.906Z</time></trkpt><trkpt lat="44.1486797" lon="11.4983154"><ele>866.0</ele><time>2026-04-04T08:47:28.907Z</time></trkpt><trkpt lat="44.1485837" lon="11.4984269"><ele>866.0</ele><time>2026-04-04T08:47:29.907Z</time></trkpt><trkpt lat="44.14848" lon="11.4984973"><ele>866.0</ele><time>2026-04-04T08:47:30.908Z</time></trkpt><trkpt lat="44.1483712" lon="11.4985127"><ele>866.0</ele><time>2026-04-04T08:47:31.907Z</time></trkpt><trkpt lat="44.1482508" lon="11.4984763"><ele>865.25</ele><time>2026-04-04T08:47:32.908Z</time></trkpt><trkpt lat="44.1481252" lon="11.4984075"><ele>864.5</ele><time>2026-04-04T08:47:33.908Z</time></trkpt><trkpt lat="44.1479889" lon="11.4983849"><ele>863.75</ele><time>2026-04-04T08:47:34.908Z</time></trkpt><trkpt lat="44.1478693" lon="11.4983916"><ele>863.0</ele><time>2026-04-04T08:47:35.907Z</time></trkpt><trkpt lat="44.1477617" lon="11.4983546"><ele>863.0</ele><time>2026-04-04T08:47:36.908Z</time></trkpt><trkpt lat="44.1476811" lon="11.4982667"><ele>863.0</ele><time>2026-04-04T08:47:37.907Z</time></trkpt><trkpt lat="44.1476364" lon="11.4981386"><ele>863.0</ele><time>2026-04-04T08:47:38.907Z</time></trkpt><trkpt lat="44.1476354" lon="11.497991"><ele>863.0</ele><time>2026-04-04T08:47:39.907Z</time></trkpt><trkpt lat="44.1476618" lon="11.4978282"><ele>863.0</ele><time>2026-04-04T08:47:40.908Z</time></trkpt><trkpt lat="44.1476843" lon="11.497642"><ele>864.25</ele><time>2026-04-04T08:47:41.907Z</time></trkpt><trkpt lat="44.147695" lon="11.4974543"><ele>865.5</ele><time>2026-04-04T08:47:42.907Z</time></trkpt><trkpt lat="44.1476785" lon="11.4972696"><ele>866.75</ele><time>2026-04-04T08:47:43.908Z</time></trkpt><trkpt lat="44.1476253" lon="11.4971012"><ele>868.0</ele><time>2026-04-04T08:47:44.908Z</time></trkpt><trkpt lat="44.1475406" lon="11.4969563"><ele>870.25</ele><time>2026-04-04T08:47:45.907Z</time></trkpt><trkpt lat="44.1474286" lon="11.4968454"><ele>872.5</ele><time>2026-04-04T08:47:46.908Z</time></trkpt><trkpt lat="44.1472937" lon="11.4967722"><ele>874.75</ele><time>2026-04-04T08:47:47.908Z</time></trkpt><trkpt lat="44.1471488" lon="11.49674"><ele>877.0</ele><time>2026-04-04T08:47:48.908Z</time></trkpt><trkpt lat="44.1470109" lon="11.49669"><ele>877.0</ele><time>2026-04-04T08:47:49.907Z</time></trkpt><trkpt lat="44.1468944" lon="11.4965862"><ele>877.0</ele><time>2026-04-04T08:47:50.908Z</time></trkpt><trkpt lat="44.1467738" lon="11.4964966"><ele>877.0</ele><time>2026-04-04T08:47:51.907Z</time></trkpt><trkpt lat="44.1466363" lon="11.4964481"><ele>877.0</ele><time>2026-04-04T08:47:52.908Z</time></trkpt><trkpt lat="44.1464992" lon="11.4964279"><ele>880.0</ele><time>2026-04-04T08:47:53.908Z</time></trkpt><trkpt lat="44.1463665" lon="11.4964622"><ele>883.0</ele><time>2026-04-04T08:47:54.908Z</time></trkpt><trkpt lat="44.1462391" lon="11.4965614"><ele>886.0</ele><time>2026-04-04T08:47:55.907Z</time></trkpt><trkpt lat="44.146106" lon="11.4966507"><ele>889.0</ele><time>2026-04-04T08:47:56.908Z</time></trkpt><trkpt lat="44.1459522" lon="11.4966945"><ele>889.0</ele><time>2026-04-04T08:47:57.907Z</time></trkpt><trkpt lat="44.145786" lon="11.4967288"><ele>889.0</ele><time>2026-04-04T08:47:58.908Z</time></trkpt><trkpt lat="44.1456197" lon="11.4967967"><ele>889.0</ele><time>2026-04-04T08:47:59.908Z</time></trkpt><trkpt lat="44.1454621" lon="11.4969089"><ele>888.0</ele><time>2026-04-04T08:48:00.908Z</time></trkpt><trkpt lat="44.1453133" lon="11.4970673"><ele>887.0</ele><time>2026-04-04T08:48:01.908Z</time></trkpt><trkpt lat="44.1451675" lon="11.4972639"><ele>886.0</ele><time>2026-04-04T08:48:02.907Z</time></trkpt><trkpt lat="44.1450238" lon="11.4974683"><ele>886.0</ele><time>2026-04-04T08:48:03.906Z</time></trkpt><trkpt lat="44.1448986" lon="11.4976526"><ele>886.0</ele><time>2026-04-04T08:48:04.908Z</time></trkpt><trkpt lat="44.1447783" lon="11.4978154"><ele>886.0</ele><time>2026-04-04T08:48:05.908Z</time></trkpt><trkpt lat="44.1446503" lon="11.4979544"><ele>888.6666666666666</ele><time>2026-04-04T08:48:06.908Z</time></trkpt><trkpt lat="44.1445059" lon="11.498086"><ele>891.3333333333333</ele><time>2026-04-04T08:48:07.907Z</time></trkpt><trkpt lat="44.1443585" lon="11.4981957"><ele>894.0</ele><time>2026-04-04T08:48:08.908Z</time></trkpt><trkpt lat="44.1442255" lon="11.4983031"><ele>894.0</ele><time>2026-04-04T08:48:09.906Z</time></trkpt><trkpt lat="44.1441093" lon="11.4984152"><ele>894.0</ele><time>2026-04-04T08:48:10.907Z</time></trkpt><trkpt lat="44.1440126" lon="11.4985535"><ele>894.0</ele><time>2026-04-04T08:48:11.907Z</time></trkpt><trkpt lat="44.1439367" lon="11.4987299"><ele>894.0</ele><time>2026-04-04T08:48:12.906Z</time></trkpt><trkpt lat="44.1438758" lon="11.4989365"><ele>892.0</ele><time>2026-04-04T08:48:13.907Z</time></trkpt><trkpt lat="44.1438283" lon="11.4991584"><ele>890.0</ele><time>2026-04-04T08:48:14.906Z</time></trkpt><trkpt lat="44.1438086" lon="11.4994003"><ele>888.0</ele><time>2026-04-04T08:48:15.907Z</time></trkpt><trkpt lat="44.1437924" lon="11.4996395"><ele>888.0</ele><time>2026-04-04T08:48:16.907Z</time></trkpt><trkpt lat="44.1437725" lon="11.4998609"><ele>888.0</ele><time>2026-04-04T08:48:17.906Z</time></trkpt><trkpt lat="44.1437558" lon="11.5000659"><ele>888.0</ele><time>2026-04-04T08:48:18.906Z</time></trkpt><trkpt lat="44.1437532" lon="11.5002467"><ele>888.0</ele><time>2026-04-04T08:48:19.907Z</time></trkpt><trkpt lat="44.1437455" lon="11.500401"><ele>887.3333333333334</ele><time>2026-04-04T08:48:20.907Z</time></trkpt><trkpt lat="44.1437129" lon="11.5005193"><ele>886.6666666666667</ele><time>2026-04-04T08:48:21.907Z</time></trkpt><trkpt lat="44.1436586" lon="11.500611"><ele>886.0</ele><time>2026-04-04T08:48:22.907Z</time></trkpt><trkpt lat="44.1435952" lon="11.5006728"><ele>885.3333333333334</ele><time>2026-04-04T08:48:23.905Z</time></trkpt><trkpt lat="44.1435261" lon="11.5007113"><ele>884.6666666666667</ele><time>2026-04-04T08:48:24.906Z</time></trkpt><trkpt lat="44.1434475" lon="11.5007203"><ele>884.0</ele><time>2026-04-04T08:48:25.905Z</time></trkpt><trkpt lat="44.1433538" lon="11.5006906"><ele>884.0</ele><time>2026-04-04T08:48:26.907Z</time></trkpt><trkpt lat="44.1432671" lon="11.5006166"><ele>884.0000000000001</ele><time>2026-04-04T08:48:27.907Z</time></trkpt><trkpt lat="44.1431991" lon="11.50051"><ele>884.0000000000001</ele><time>2026-04-04T08:48:28.907Z</time></trkpt><trkpt lat="44.1431543" lon="11.5003728"><ele>884.0</ele><time>2026-04-04T08:48:29.907Z</time></trkpt><trkpt lat="44.1431385" lon="11.5002191"><ele>884.0</ele><time>2026-04-04T08:48:30.906Z</time></trkpt><trkpt lat="44.1431338" lon="11.5000561"><ele>881.5</ele><time>2026-04-04T08:48:31.906Z</time></trkpt><trkpt lat="44.1430991" lon="11.4999015"><ele>879.0</ele><time>2026-04-04T08:48:32.907Z</time></trkpt><trkpt lat="44.1430495" lon="11.4997538"><ele>876.5</ele><time>2026-04-04T08:48:33.906Z</time></trkpt><trkpt lat="44.14299" lon="11.4996203"><ele>874.0</ele><time>2026-04-04T08:48:34.907Z</time></trkpt><trkpt lat="44.1429311" lon="11.4994909"><ele>873.9999999999999</ele><time>2026-04-04T08:48:35.907Z</time></trkpt><trkpt lat="44.142873" lon="11.4993709"><ele>874.0</ele><time>2026-04-04T08:48:36.907Z</time></trkpt><trkpt lat="44.1428116" lon="11.4992761"><ele>874.0</ele><time>2026-04-04T08:48:37.906Z</time></trkpt><trkpt lat="44.1427453" lon="11.4992306"><ele>874.0</ele><time>2026-04-04T08:48:38.906Z</time></trkpt><trkpt lat="44.1427014" lon="11.4992986"><ele>873.9999999999999</ele><time>2026-04-04T08:48:47.906Z</time></trkpt><trkpt lat="44.1427629" lon="11.499245"><ele>874.0</ele><time>2026-04-04T08:48:54.905Z</time></trkpt><trkpt lat="44.1428692" lon="11.4993776"><ele>874.0</ele><time>2026-04-04T08:48:56.906Z</time></trkpt><trkpt lat="44.1429299" lon="11.4995023"><ele>874.0</ele><time>2026-04-04T08:48:57.907Z</time></trkpt><trkpt lat="44.1429967" lon="11.4996463"><ele>874.0</ele><time>2026-04-04T08:48:58.905Z</time></trkpt><trkpt lat="44.1430643" lon="11.4998195"><ele>874.0</ele><time>2026-04-04T08:48:59.907Z</time></trkpt><trkpt lat="44.1431127" lon="11.5000023"><ele>876.5</ele><time>2026-04-04T08:49:00.906Z</time></trkpt><trkpt lat="44.1431371" lon="11.5001986"><ele>879.0</ele><time>2026-04-04T08:49:01.905Z</time></trkpt><trkpt lat="44.143148" lon="11.5003586"><ele>881.5</ele><time>2026-04-04T08:49:02.907Z</time></trkpt><trkpt lat="44.1431885" lon="11.5004979"><ele>884.0</ele><time>2026-04-04T08:49:03.906Z</time></trkpt><trkpt lat="44.1432594" lon="11.5006247"><ele>884.0</ele><time>2026-04-04T08:49:04.907Z</time></trkpt><trkpt lat="44.1433609" lon="11.5007043"><ele>884.0000000000001</ele><time>2026-04-04T08:49:05.907Z</time></trkpt><trkpt lat="44.1434684" lon="11.5007413"><ele>884.0000000000001</ele><time>2026-04-04T08:49:06.905Z</time></trkpt><trkpt lat="44.14356" lon="11.5007219"><ele>884.0</ele><time>2026-04-04T08:49:07.906Z</time></trkpt><trkpt lat="44.1436289" lon="11.5006706"><ele>884.0</ele><time>2026-04-04T08:49:08.907Z</time></trkpt><trkpt lat="44.1436817" lon="11.5006061"><ele>884.0000000000001</ele><time>2026-04-04T08:49:09.907Z</time></trkpt><trkpt lat="44.1437588" lon="11.5004998"><ele>884.0</ele><time>2026-04-04T08:49:11.906Z</time></trkpt><trkpt lat="44.1438232" lon="11.5005059"><ele>884.0</ele><time>2026-04-04T08:49:15.907Z</time></trkpt><trkpt lat="44.1437568" lon="11.5005031"><ele>884.0</ele><time>2026-04-04T08:49:26.907Z</time></trkpt><trkpt lat="44.1436681" lon="11.5005928"><ele>884.0000000000001</ele><time>2026-04-04T08:49:29.907Z</time></trkpt><trkpt lat="44.1436138" lon="11.5006584"><ele>884.0</ele><time>2026-04-04T08:49:30.906Z</time></trkpt><trkpt lat="44.1435452" lon="11.5006988"><ele>884.0000000000001</ele><time>2026-04-04T08:49:31.905Z</time></trkpt><trkpt lat="44.1434666" lon="11.5007193"><ele>884.0</ele><time>2026-04-04T08:49:32.906Z</time></trkpt><trkpt lat="44.1433854" lon="11.5007092"><ele>884.0</ele><time>2026-04-04T08:49:33.906Z</time></trkpt><trkpt lat="44.1433049" lon="11.50066"><ele>884.0</ele><time>2026-04-04T08:49:34.907Z</time></trkpt><trkpt lat="44.1432298" lon="11.5005814"><ele>884.0000000000001</ele><time>2026-04-04T08:49:35.907Z</time></trkpt><trkpt lat="44.1431745" lon="11.5004738"><ele>884.0</ele><time>2026-04-04T08:49:36.907Z</time></trkpt><trkpt lat="44.1431443" lon="11.5003473"><ele>878.2</ele><time>2026-04-04T08:49:37.907Z</time></trkpt><trkpt lat="44.1431361" lon="11.5002084"><ele>872.4000000000001</ele><time>2026-04-04T08:49:38.906Z</time></trkpt><trkpt lat="44.1431247" lon="11.5000649"><ele>866.6</ele><time>2026-04-04T08:49:39.907Z</time></trkpt><trkpt lat="44.1430964" lon="11.4999237"><ele>860.8</ele><time>2026-04-04T08:49:40.907Z</time></trkpt><trkpt lat="44.1430514" lon="11.4997875"><ele>855.0</ele><time>2026-04-04T08:49:41.907Z</time></trkpt><trkpt lat="44.1430012" lon="11.4996556"><ele>858.1666666666666</ele><time>2026-04-04T08:49:42.906Z</time></trkpt><trkpt lat="44.1429476" lon="11.4995305"><ele>861.3333333333333</ele><time>2026-04-04T08:49:43.907Z</time></trkpt><trkpt lat="44.1428952" lon="11.4994127"><ele>864.5</ele><time>2026-04-04T08:49:44.906Z</time></trkpt><trkpt lat="44.1428412" lon="11.4993146"><ele>867.6666666666666</ele><time>2026-04-04T08:49:45.907Z</time></trkpt><trkpt lat="44.1427726" lon="11.499256"><ele>870.8333333333333</ele><time>2026-04-04T08:49:46.907Z</time></trkpt><trkpt lat="44.1427018" lon="11.4992649"><ele>874.0</ele><time>2026-04-04T08:49:47.906Z</time></trkpt><trkpt lat="44.1426401" lon="11.4993291"><ele>873.9999999999999</ele><time>2026-04-04T08:49:48.907Z</time></trkpt><trkpt lat="44.1426217" lon="11.4994331"><ele>874.0</ele><time>2026-04-04T08:49:49.905Z</time></trkpt><trkpt lat="44.1426409" lon="11.4995348"><ele>874.0</ele><time>2026-04-04T08:49:50.906Z</time></trkpt><trkpt lat="44.1426897" lon="11.4996184"><ele>874.0</ele><time>2026-04-04T08:49:51.907Z</time></trkpt><trkpt lat="44.1427488" lon="11.4996864"><ele>873.9999999999999</ele><time>2026-04-04T08:49:52.907Z</time></trkpt><trkpt lat="44.1427968" lon="11.4997663"><ele>874.0</ele><time>2026-04-04T08:49:53.906Z</time></trkpt><trkpt lat="44.1428259" lon="11.4998554"><ele>870.2</ele><time>2026-04-04T08:49:54.906Z</time></trkpt><trkpt lat="44.142843" lon="11.4999598"><ele>866.4000000000001</ele><time>2026-04-04T08:49:55.906Z</time></trkpt><trkpt lat="44.1428459" lon="11.5000781"><ele>862.6</ele><time>2026-04-04T08:49:56.906Z</time></trkpt><trkpt lat="44.1428293" lon="11.500207"><ele>858.8</ele><time>2026-04-04T08:49:57.906Z</time></trkpt><trkpt lat="44.142793" lon="11.5003374"><ele>855.0</ele><time>2026-04-04T08:49:58.906Z</time></trkpt><trkpt lat="44.1427565" lon="11.5004651"><ele>854.4</ele><time>2026-04-04T08:49:59.907Z</time></trkpt><trkpt lat="44.1427542" lon="11.5006019"><ele>853.8</ele><time>2026-04-04T08:50:00.907Z</time></trkpt><trkpt lat="44.1427774" lon="11.5007331"><ele>853.2</ele><time>2026-04-04T08:50:01.906Z</time></trkpt><trkpt lat="44.1427786" lon="11.5008627"><ele>852.6</ele><time>2026-04-04T08:50:02.905Z</time></trkpt><trkpt lat="44.1427381" lon="11.500977"><ele>852.0</ele><time>2026-04-04T08:50:03.906Z</time></trkpt><trkpt lat="44.1426731" lon="11.5010552"><ele>852.0</ele><time>2026-04-04T08:50:04.906Z</time></trkpt><trkpt lat="44.1425938" lon="11.5011166"><ele>852.0</ele><time>2026-04-04T08:50:05.905Z</time></trkpt><trkpt lat="44.1425108" lon="11.5011848"><ele>852.0</ele><time>2026-04-04T08:50:06.906Z</time></trkpt><trkpt lat="44.1424392" lon="11.5012747"><ele>852.0</ele><time>2026-04-04T08:50:07.907Z</time></trkpt><trkpt lat="44.1423965" lon="11.5013964"><ele>852.0</ele><time>2026-04-04T08:50:08.907Z</time></trkpt><trkpt lat="44.1423843" lon="11.5015245"><ele>852.0</ele><time>2026-04-04T08:50:09.906Z</time></trkpt><trkpt lat="44.1424192" lon="11.501651"><ele>852.0</ele><time>2026-04-04T08:50:10.907Z</time></trkpt><trkpt lat="44.1424772" lon="11.5017762"><ele>852.0</ele><time>2026-04-04T08:50:11.906Z</time></trkpt><trkpt lat="44.142535" lon="11.5019063"><ele>852.0</ele><time>2026-04-04T08:50:12.907Z</time></trkpt><trkpt lat="44.1425766" lon="11.5020432"><ele>852.0</ele><time>2026-04-04T08:50:13.906Z</time></trkpt><trkpt lat="44.1425897" lon="11.502188"><ele>851.2</ele><time>2026-04-04T08:50:14.907Z</time></trkpt><trkpt lat="44.1425624" lon="11.50233"><ele>850.4000000000001</ele><time>2026-04-04T08:50:15.906Z</time></trkpt><trkpt lat="44.1424977" lon="11.5024433"><ele>849.5999999999999</ele><time>2026-04-04T08:50:16.906Z</time></trkpt><trkpt lat="44.1424085" lon="11.5025302"><ele>848.8</ele><time>2026-04-04T08:50:17.906Z</time></trkpt><trkpt lat="44.1423179" lon="11.5026161"><ele>848.0</ele><time>2026-04-04T08:50:18.907Z</time></trkpt><trkpt lat="44.1422619" lon="11.502739"><ele>847.0</ele><time>2026-04-04T08:50:19.907Z</time></trkpt><trkpt lat="44.1422542" lon="11.5028617"><ele>846.0</ele><time>2026-04-04T08:50:20.906Z</time></trkpt><trkpt lat="44.1422864" lon="11.5029726"><ele>845.0</ele><time>2026-04-04T08:50:21.907Z</time></trkpt><trkpt lat="44.1423526" lon="11.5030599"><ele>844.0</ele><time>2026-04-04T08:50:22.906Z</time></trkpt><trkpt lat="44.1424309" lon="11.5031508"><ele>843.0</ele><time>2026-04-04T08:50:23.907Z</time></trkpt><trkpt lat="44.1424878" lon="11.5032776"><ele>843.0</ele><time>2026-04-04T08:50:24.907Z</time></trkpt><trkpt lat="44.1425141" lon="11.5034349"><ele>843.0</ele><time>2026-04-04T08:50:25.906Z</time></trkpt><trkpt lat="44.1425254" lon="11.5036092"><ele>843.0</ele><time>2026-04-04T08:50:26.907Z</time></trkpt><trkpt lat="44.1425461" lon="11.5037841"><ele>843.0</ele><time>2026-04-04T08:50:27.906Z</time></trkpt><trkpt lat="44.1425812" lon="11.5039431"><ele>841.8</ele><time>2026-04-04T08:50:28.905Z</time></trkpt><trkpt lat="44.1426016" lon="11.5041007"><ele>840.5999999999999</ele><time>2026-04-04T08:50:29.907Z</time></trkpt><trkpt lat="44.1425757" lon="11.5042314"><ele>839.4000000000001</ele><time>2026-04-04T08:50:30.906Z</time></trkpt><trkpt lat="44.1425208" lon="11.5043236"><ele>838.2</ele><time>2026-04-04T08:50:31.907Z</time></trkpt><trkpt lat="44.1424441" lon="11.5043604"><ele>837.0</ele><time>2026-04-04T08:50:32.907Z</time></trkpt><trkpt lat="44.14236" lon="11.5043428"><ele>831.6</ele><time>2026-04-04T08:50:33.907Z</time></trkpt><trkpt lat="44.1422807" lon="11.5043046"><ele>826.2</ele><time>2026-04-04T08:50:34.905Z</time></trkpt><trkpt lat="44.1421889" lon="11.5043011"><ele>820.8</ele><time>2026-04-04T08:50:35.906Z</time></trkpt><trkpt lat="44.1420915" lon="11.5043735"><ele>815.4</ele><time>2026-04-04T08:50:36.906Z</time></trkpt><trkpt lat="44.1420128" lon="11.5044753"><ele>810.0</ele><time>2026-04-04T08:50:37.906Z</time></trkpt><trkpt lat="44.1419566" lon="11.504594"><ele>810.0</ele><time>2026-04-04T08:50:38.907Z</time></trkpt><trkpt lat="44.1419363" lon="11.5047088"><ele>810.0</ele><time>2026-04-04T08:50:39.906Z</time></trkpt><trkpt lat="44.1419586" lon="11.5048168"><ele>810.0</ele><time>2026-04-04T08:50:40.907Z</time></trkpt><trkpt lat="44.1420168" lon="11.5048923"><ele>810.0</ele><time>2026-04-04T08:50:41.907Z</time></trkpt><trkpt lat="44.1420877" lon="11.504964"><ele>810.0</ele><time>2026-04-04T08:50:42.906Z</time></trkpt><trkpt lat="44.142135" lon="11.5050764"><ele>810.0</ele><time>2026-04-04T08:50:43.906Z</time></trkpt><trkpt lat="44.1421413" lon="11.5052123"><ele>810.0</ele><time>2026-04-04T08:50:44.905Z</time></trkpt><trkpt lat="44.1421047" lon="11.5053468"><ele>810.0</ele><time>2026-04-04T08:50:45.906Z</time></trkpt><trkpt lat="44.1420417" lon="11.5054756"><ele>810.0</ele><time>2026-04-04T08:50:46.907Z</time></trkpt><trkpt lat="44.141998" lon="11.5056208"><ele>810.0</ele><time>2026-04-04T08:50:47.907Z</time></trkpt><trkpt lat="44.1419867" lon="11.5057803"><ele>810.0</ele><time>2026-04-04T08:50:48.906Z</time></trkpt><trkpt lat="44.1419763" lon="11.5059293"><ele>810.0</ele><time>2026-04-04T08:50:49.905Z</time></trkpt><trkpt lat="44.1419328" lon="11.5060567"><ele>810.0</ele><time>2026-04-04T08:50:50.907Z</time></trkpt><trkpt lat="44.1418576" lon="11.5061407"><ele>810.0</ele><time>2026-04-04T08:50:51.906Z</time></trkpt><trkpt lat="44.1417734" lon="11.5061827"><ele>810.0</ele><time>2026-04-04T08:50:52.907Z</time></trkpt><trkpt lat="44.1416857" lon="11.506213"><ele>810.0</ele><time>2026-04-04T08:50:53.907Z</time></trkpt><trkpt lat="44.1415918" lon="11.5062573"><ele>805.8</ele><time>2026-04-04T08:50:54.906Z</time></trkpt><trkpt lat="44.1415005" lon="11.5063245"><ele>801.6</ele><time>2026-04-04T08:50:55.907Z</time></trkpt><trkpt lat="44.1414174" lon="11.5064147"><ele>797.4000000000001</ele><time>2026-04-04T08:50:56.906Z</time></trkpt><trkpt lat="44.1413446" lon="11.5065185"><ele>793.2</ele><time>2026-04-04T08:50:57.907Z</time></trkpt><trkpt lat="44.141291" lon="11.5066384"><ele>789.0</ele><time>2026-04-04T08:50:58.907Z</time></trkpt><trkpt lat="44.141262" lon="11.5067766"><ele>789.0</ele><time>2026-04-04T08:50:59.907Z</time></trkpt><trkpt lat="44.1412606" lon="11.5069439"><ele>789.0</ele><time>2026-04-04T08:51:00.906Z</time></trkpt><trkpt lat="44.141267" lon="11.507141"><ele>789.0</ele><time>2026-04-04T08:51:01.905Z</time></trkpt><trkpt lat="44.1412682" lon="11.5073343"><ele>789.0</ele><time>2026-04-04T08:51:02.906Z</time></trkpt><trkpt lat="44.1412881" lon="11.507521"><ele>787.25</ele><time>2026-04-04T08:51:03.906Z</time></trkpt><trkpt lat="44.1413289" lon="11.5076929"><ele>785.5</ele><time>2026-04-04T08:51:04.906Z</time></trkpt><trkpt lat="44.1413732" lon="11.5078602"><ele>783.75</ele><time>2026-04-04T08:51:05.906Z</time></trkpt><trkpt lat="44.1414163" lon="11.5080238"><ele>782.0</ele><time>2026-04-04T08:51:06.906Z</time></trkpt><trkpt lat="44.1414589" lon="11.5081791"><ele>781.0</ele><time>2026-04-04T08:51:07.906Z</time></trkpt><trkpt lat="44.1415053" lon="11.5083303"><ele>780.0</ele><time>2026-04-04T08:51:08.906Z</time></trkpt><trkpt lat="44.1415421" lon="11.5084734"><ele>779.0</ele><time>2026-04-04T08:51:09.906Z</time></trkpt><trkpt lat="44.1415566" lon="11.508605"><ele>778.0</ele><time>2026-04-04T08:51:10.907Z</time></trkpt><trkpt lat="44.1415294" lon="11.5087291"><ele>777.0</ele><time>2026-04-04T08:51:11.905Z</time></trkpt><trkpt lat="44.1414682" lon="11.5088127"><ele>781.25</ele><time>2026-04-04T08:51:12.906Z</time></trkpt><trkpt lat="44.1413837" lon="11.5088597"><ele>785.5</ele><time>2026-04-04T08:51:13.906Z</time></trkpt><trkpt lat="44.1412763" lon="11.508894"><ele>789.75</ele><time>2026-04-04T08:51:14.907Z</time></trkpt><trkpt lat="44.1411569" lon="11.5089492"><ele>794.0</ele><time>2026-04-04T08:51:15.906Z</time></trkpt><trkpt lat="44.141034" lon="11.5090352"><ele>794.0</ele><time>2026-04-04T08:51:16.906Z</time></trkpt><trkpt lat="44.1409032" lon="11.5091426"><ele>794.0</ele><time>2026-04-04T08:51:17.906Z</time></trkpt><trkpt lat="44.1407654" lon="11.5092534"><ele>794.0</ele><time>2026-04-04T08:51:18.906Z</time></trkpt><trkpt lat="44.1406331" lon="11.5093604"><ele>790.6</ele><time>2026-04-04T08:51:19.906Z</time></trkpt><trkpt lat="44.1405116" lon="11.5094567"><ele>787.2</ele><time>2026-04-04T08:51:20.906Z</time></trkpt><trkpt lat="44.1404036" lon="11.5095337"><ele>783.8000000000001</ele><time>2026-04-04T08:51:21.907Z</time></trkpt><trkpt lat="44.1403136" lon="11.5095577"><ele>780.4000000000001</ele><time>2026-04-04T08:51:22.907Z</time></trkpt><trkpt lat="44.1402376" lon="11.5095232"><ele>777.0</ele><time>2026-04-04T08:51:23.906Z</time></trkpt><trkpt lat="44.1401912" lon="11.5094403"><ele>777.0</ele><time>2026-04-04T08:51:24.906Z</time></trkpt><trkpt lat="44.1401875" lon="11.5093389"><ele>777.0</ele><time>2026-04-04T08:51:25.906Z</time></trkpt><trkpt lat="44.1402336" lon="11.509246"><ele>777.0</ele><time>2026-04-04T08:51:26.905Z</time></trkpt><trkpt lat="44.1403122" lon="11.5091943"><ele>777.0</ele><time>2026-04-04T08:51:27.906Z</time></trkpt><trkpt lat="44.1404157" lon="11.5091851"><ele>777.0</ele><time>2026-04-04T08:51:28.906Z</time></trkpt><trkpt lat="44.1405287" lon="11.5091736"><ele>777.0</ele><time>2026-04-04T08:51:29.906Z</time></trkpt><trkpt lat="44.1406214" lon="11.5091117"><ele>777.0</ele><time>2026-04-04T08:51:30.905Z</time></trkpt><trkpt lat="44.1407031" lon="11.5090599"><ele>777.0</ele><time>2026-04-04T08:51:31.906Z</time></trkpt><trkpt lat="44.1406666" lon="11.5088987"><ele>777.0</ele><time>2026-04-04T08:51:32.906Z</time></trkpt><trkpt lat="44.1406378" lon="11.5088001"><ele>777.0</ele><time>2026-04-04T08:51:33.906Z</time></trkpt><trkpt lat="44.1405511" lon="11.5087274"><ele>777.0</ele><time>2026-04-04T08:51:34.907Z</time></trkpt><trkpt lat="44.1404484" lon="11.5087188"><ele>777.0</ele><time>2026-04-04T08:51:35.906Z</time></trkpt><trkpt lat="44.1403454" lon="11.5087609"><ele>777.0</ele><time>2026-04-04T08:51:36.907Z</time></trkpt><trkpt lat="44.140236" lon="11.5088407"><ele>777.0</ele><time>2026-04-04T08:51:37.907Z</time></trkpt><trkpt lat="44.1401308" lon="11.508943"><ele>777.0</ele><time>2026-04-04T08:51:38.907Z</time></trkpt><trkpt lat="44.1400378" lon="11.5090625"><ele>777.0</ele><time>2026-04-04T08:51:39.907Z</time></trkpt><trkpt lat="44.139939" lon="11.5091557"><ele>777.0</ele><time>2026-04-04T08:51:40.907Z</time></trkpt><trkpt lat="44.1398228" lon="11.5092064"><ele>777.0</ele><time>2026-04-04T08:51:41.907Z</time></trkpt><trkpt lat="44.1396963" lon="11.5092328"><ele>771.0</ele><time>2026-04-04T08:51:42.907Z</time></trkpt><trkpt lat="44.1395668" lon="11.5092602"><ele>765.0</ele><time>2026-04-04T08:51:43.907Z</time></trkpt><trkpt lat="44.1394461" lon="11.5093187"><ele>759.0</ele><time>2026-04-04T08:51:44.907Z</time></trkpt><trkpt lat="44.139338" lon="11.5094145"><ele>753.0</ele><time>2026-04-04T08:51:45.907Z</time></trkpt><trkpt lat="44.1392522" lon="11.5095531"><ele>755.25</ele><time>2026-04-04T08:51:46.906Z</time></trkpt><trkpt lat="44.1391896" lon="11.5097285"><ele>757.5</ele><time>2026-04-04T08:51:47.907Z</time></trkpt><trkpt lat="44.1391228" lon="11.5099141"><ele>759.75</ele><time>2026-04-04T08:51:48.906Z</time></trkpt><trkpt lat="44.1390348" lon="11.5100828"><ele>762.0</ele><time>2026-04-04T08:51:49.906Z</time></trkpt><trkpt lat="44.1389449" lon="11.5102346"><ele>753.0</ele><time>2026-04-04T08:51:50.906Z</time></trkpt><trkpt lat="44.1388789" lon="11.5103816"><ele>744.0</ele><time>2026-04-04T08:51:51.906Z</time></trkpt><trkpt lat="44.1388506" lon="11.5105403"><ele>735.0</ele><time>2026-04-04T08:51:52.907Z</time></trkpt><trkpt lat="44.1388631" lon="11.5106996"><ele>726.0</ele><time>2026-04-04T08:51:53.907Z</time></trkpt><trkpt lat="44.1389031" lon="11.5108701"><ele>725.25</ele><time>2026-04-04T08:51:54.906Z</time></trkpt><trkpt lat="44.1389411" lon="11.5110495"><ele>724.5</ele><time>2026-04-04T08:51:55.906Z</time></trkpt><trkpt lat="44.1389662" lon="11.5112199"><ele>723.75</ele><time>2026-04-04T08:51:56.907Z</time></trkpt><trkpt lat="44.1390167" lon="11.5113539"><ele>723.0</ele><time>2026-04-04T08:51:57.907Z</time></trkpt><trkpt lat="44.1390984" lon="11.5114449"><ele>728.0</ele><time>2026-04-04T08:51:58.907Z</time></trkpt><trkpt lat="44.1392098" lon="11.5114992"><ele>733.0</ele><time>2026-04-04T08:51:59.907Z</time></trkpt><trkpt lat="44.1393465" lon="11.511519"><ele>738.0</ele><time>2026-04-04T08:52:00.906Z</time></trkpt><trkpt lat="44.1394887" lon="11.5115134"><ele>743.0</ele><time>2026-04-04T08:52:01.907Z</time></trkpt><trkpt lat="44.1396214" lon="11.5115237"><ele>743.0</ele><time>2026-04-04T08:52:02.907Z</time></trkpt><trkpt lat="44.1397452" lon="11.511562"><ele>743.0</ele><time>2026-04-04T08:52:03.907Z</time></trkpt><trkpt lat="44.1398554" lon="11.5116055"><ele>743.0</ele><time>2026-04-04T08:52:04.906Z</time></trkpt><trkpt lat="44.1399452" lon="11.5116443"><ele>743.0</ele><time>2026-04-04T08:52:05.906Z</time></trkpt><trkpt lat="44.1400142" lon="11.511722"><ele>743.0</ele><time>2026-04-04T08:52:06.906Z</time></trkpt><trkpt lat="44.1400404" lon="11.5118263"><ele>743.0</ele><time>2026-04-04T08:52:07.906Z</time></trkpt><trkpt lat="44.1400259" lon="11.5119241"><ele>743.0</ele><time>2026-04-04T08:52:08.907Z</time></trkpt><trkpt lat="44.1399753" lon="11.5119826"><ele>743.0</ele><time>2026-04-04T08:52:09.906Z</time></trkpt><trkpt lat="44.1399017" lon="11.512007"><ele>743.0</ele><time>2026-04-04T08:52:10.906Z</time></trkpt><trkpt lat="44.1398004" lon="11.5120071"><ele>743.0</ele><time>2026-04-04T08:52:11.906Z</time></trkpt><trkpt lat="44.1396997" lon="11.5120474"><ele>743.0</ele><time>2026-04-04T08:52:12.907Z</time></trkpt><trkpt lat="44.1395971" lon="11.5121482"><ele>740.0</ele><time>2026-04-04T08:52:13.906Z</time></trkpt><trkpt lat="44.1394974" lon="11.5122801"><ele>737.0</ele><time>2026-04-04T08:52:14.906Z</time></trkpt><trkpt lat="44.1393796" lon="11.5124111"><ele>734.0</ele><time>2026-04-04T08:52:15.906Z</time></trkpt><trkpt lat="44.1392597" lon="11.5125172"><ele>731.0</ele><time>2026-04-04T08:52:16.907Z</time></trkpt><trkpt lat="44.1391541" lon="11.5126286"><ele>731.0</ele><time>2026-04-04T08:52:17.906Z</time></trkpt><trkpt lat="44.1390865" lon="11.5127612"><ele>731.0</ele><time>2026-04-04T08:52:18.907Z</time></trkpt><trkpt lat="44.1390663" lon="11.5129343"><ele>731.0</ele><time>2026-04-04T08:52:19.906Z</time></trkpt><trkpt lat="44.1390669" lon="11.5131345"><ele>731.0</ele><time>2026-04-04T08:52:20.907Z</time></trkpt><trkpt lat="44.1390816" lon="11.5133647"><ele>731.0</ele><time>2026-04-04T08:52:21.905Z</time></trkpt><trkpt lat="44.1391098" lon="11.5135874"><ele>731.0</ele><time>2026-04-04T08:52:22.905Z</time></trkpt><trkpt lat="44.1391384" lon="11.5137996"><ele>731.0</ele><time>2026-04-04T08:52:23.907Z</time></trkpt><trkpt lat="44.1391494" lon="11.5139981"><ele>731.0</ele><time>2026-04-04T08:52:24.905Z</time></trkpt><trkpt lat="44.1391541" lon="11.5141782"><ele>731.0</ele><time>2026-04-04T08:52:25.906Z</time></trkpt><trkpt lat="44.1391257" lon="11.5143387"><ele>731.0</ele><time>2026-04-04T08:52:26.905Z</time></trkpt><trkpt lat="44.1390657" lon="11.5144691"><ele>731.0</ele><time>2026-04-04T08:52:27.906Z</time></trkpt><trkpt lat="44.1389894" lon="11.5145549"><ele>732.5</ele><time>2026-04-04T08:52:28.906Z</time></trkpt><trkpt lat="44.138896" lon="11.5145864"><ele>734.0</ele><time>2026-04-04T08:52:29.906Z</time></trkpt><trkpt lat="44.1387879" lon="11.5145704"><ele>735.5</ele><time>2026-04-04T08:52:30.906Z</time></trkpt><trkpt lat="44.1386756" lon="11.5145001"><ele>737.0</ele><time>2026-04-04T08:52:31.906Z</time></trkpt><trkpt lat="44.13857" lon="11.5143825"><ele>737.0</ele><time>2026-04-04T08:52:32.906Z</time></trkpt><trkpt lat="44.138476" lon="11.5142367"><ele>737.0</ele><time>2026-04-04T08:52:33.906Z</time></trkpt><trkpt lat="44.1384027" lon="11.5140653"><ele>737.0</ele><time>2026-04-04T08:52:34.907Z</time></trkpt><trkpt lat="44.1383626" lon="11.5138744"><ele>737.0</ele><time>2026-04-04T08:52:35.907Z</time></trkpt><trkpt lat="44.1383453" lon="11.5136838"><ele>737.5</ele><time>2026-04-04T08:52:36.907Z</time></trkpt><trkpt lat="44.1383161" lon="11.5135095"><ele>738.0</ele><time>2026-04-04T08:52:37.907Z</time></trkpt><trkpt lat="44.1382588" lon="11.5133574"><ele>738.5</ele><time>2026-04-04T08:52:38.905Z</time></trkpt><trkpt lat="44.1381866" lon="11.513211"><ele>739.0</ele><time>2026-04-04T08:52:39.906Z</time></trkpt><trkpt lat="44.1380464" lon="11.5131284"><ele>739.0</ele><time>2026-04-04T08:52:41.906Z</time></trkpt><trkpt lat="44.1379505" lon="11.5132041"><ele>739.0</ele><time>2026-04-04T08:52:42.906Z</time></trkpt><trkpt lat="44.1378747" lon="11.5131968"><ele>739.0</ele><time>2026-04-04T08:52:43.906Z</time></trkpt><trkpt lat="44.1378015" lon="11.5131855"><ele>739.0</ele><time>2026-04-04T08:52:44.906Z</time></trkpt><trkpt lat="44.137732" lon="11.5131595"><ele>739.0</ele><time>2026-04-04T08:52:45.906Z</time></trkpt><trkpt lat="44.1376555" lon="11.5130962"><ele>739.0</ele><time>2026-04-04T08:52:46.907Z</time></trkpt><trkpt lat="44.1375937" lon="11.5130074"><ele>740.2</ele><time>2026-04-04T08:52:47.906Z</time></trkpt><trkpt lat="44.1375466" lon="11.5128932"><ele>741.4000000000001</ele><time>2026-04-04T08:52:48.906Z</time></trkpt><trkpt lat="44.1375063" lon="11.5127743"><ele>742.6</ele><time>2026-04-04T08:52:49.907Z</time></trkpt><trkpt lat="44.1374653" lon="11.512655"><ele>743.8</ele><time>2026-04-04T08:52:50.907Z</time></trkpt><trkpt lat="44.1374204" lon="11.5125335"><ele>745.0</ele><time>2026-04-04T08:52:51.907Z</time></trkpt><trkpt lat="44.1373751" lon="11.5124148"><ele>745.0</ele><time>2026-04-04T08:52:52.907Z</time></trkpt><trkpt lat="44.1373296" lon="11.5122921"><ele>745.0</ele><time>2026-04-04T08:52:53.907Z</time></trkpt><trkpt lat="44.1372849" lon="11.5121606"><ele>745.0</ele><time>2026-04-04T08:52:54.906Z</time></trkpt><trkpt lat="44.137236" lon="11.5120107"><ele>745.0</ele><time>2026-04-04T08:52:55.906Z</time></trkpt><trkpt lat="44.137177" lon="11.5118533"><ele>745.0</ele><time>2026-04-04T08:52:56.906Z</time></trkpt><trkpt lat="44.137111" lon="11.5117044"><ele>740.0</ele><time>2026-04-04T08:52:57.907Z</time></trkpt><trkpt lat="44.1370406" lon="11.5115553"><ele>735.0</ele><time>2026-04-04T08:52:58.907Z</time></trkpt><trkpt lat="44.1369724" lon="11.5114107"><ele>730.0</ele><time>2026-04-04T08:52:59.907Z</time></trkpt><trkpt lat="44.1368964" lon="11.5112776"><ele>725.0</ele><time>2026-04-04T08:53:00.907Z</time></trkpt><trkpt lat="44.1368023" lon="11.5111502"><ele>723.75</ele><time>2026-04-04T08:53:01.906Z</time></trkpt><trkpt lat="44.1367015" lon="11.5110191"><ele>722.5</ele><time>2026-04-04T08:53:02.905Z</time></trkpt><trkpt lat="44.1365936" lon="11.5108871"><ele>721.25</ele><time>2026-04-04T08:53:03.906Z</time></trkpt><trkpt lat="44.1364869" lon="11.5107514"><ele>720.0</ele><time>2026-04-04T08:53:04.905Z</time></trkpt><trkpt lat="44.13638" lon="11.5106169"><ele>720.0</ele><time>2026-04-04T08:53:05.905Z</time></trkpt><trkpt lat="44.1362779" lon="11.5104846"><ele>720.0</ele><time>2026-04-04T08:53:06.906Z</time></trkpt><trkpt lat="44.1361849" lon="11.5103551"><ele>720.0</ele><time>2026-04-04T08:53:07.905Z</time></trkpt><trkpt lat="44.1361108" lon="11.5102117"><ele>720.0</ele><time>2026-04-04T08:53:08.906Z</time></trkpt><trkpt lat="44.1360495" lon="11.5100606"><ele>714.5</ele><time>2026-04-04T08:53:09.905Z</time></trkpt><trkpt lat="44.1359754" lon="11.5099335"><ele>709.0</ele><time>2026-04-04T08:53:10.905Z</time></trkpt><trkpt lat="44.1358747" lon="11.5098408"><ele>703.5</ele><time>2026-04-04T08:53:11.905Z</time></trkpt><trkpt lat="44.1357609" lon="11.5097605"><ele>698.0</ele><time>2026-04-04T08:53:12.905Z</time></trkpt><trkpt lat="44.1356587" lon="11.5096884"><ele>695.25</ele><time>2026-04-04T08:53:13.905Z</time></trkpt><trkpt lat="44.135555" lon="11.5096423"><ele>692.5</ele><time>2026-04-04T08:53:14.904Z</time></trkpt><trkpt lat="44.1354435" lon="11.5096515"><ele>689.75</ele><time>2026-04-04T08:53:15.906Z</time></trkpt><trkpt lat="44.1353255" lon="11.5097131"><ele>687.0</ele><time>2026-04-04T08:53:16.906Z</time></trkpt><trkpt lat="44.135202" lon="11.5098067"><ele>687.0</ele><time>2026-04-04T08:53:17.906Z</time></trkpt><trkpt lat="44.135072" lon="11.5098918"><ele>687.0</ele><time>2026-04-04T08:53:18.906Z</time></trkpt><trkpt lat="44.1349435" lon="11.5099665"><ele>687.0</ele><time>2026-04-04T08:53:19.905Z</time></trkpt><trkpt lat="44.1348192" lon="11.5100461"><ele>687.0</ele><time>2026-04-04T08:53:20.905Z</time></trkpt><trkpt lat="44.1347054" lon="11.5101655"><ele>687.0</ele><time>2026-04-04T08:53:21.905Z</time></trkpt><trkpt lat="44.1346076" lon="11.5103261"><ele>687.0</ele><time>2026-04-04T08:53:22.905Z</time></trkpt><trkpt lat="44.1345146" lon="11.5105048"><ele>687.0</ele><time>2026-04-04T08:53:23.905Z</time></trkpt><trkpt lat="44.1344154" lon="11.5106688"><ele>687.0</ele><time>2026-04-04T08:53:24.905Z</time></trkpt><trkpt lat="44.1343002" lon="11.5108137"><ele>687.0</ele><time>2026-04-04T08:53:25.906Z</time></trkpt><trkpt lat="44.1341914" lon="11.5109379"><ele>687.0</ele><time>2026-04-04T08:53:26.906Z</time></trkpt><trkpt lat="44.134086" lon="11.511039"><ele>687.0</ele><time>2026-04-04T08:53:27.906Z</time></trkpt><trkpt lat="44.1339749" lon="11.5110855"><ele>688.0</ele><time>2026-04-04T08:53:28.906Z</time></trkpt><trkpt lat="44.1338675" lon="11.5110637"><ele>689.0</ele><time>2026-04-04T08:53:29.905Z</time></trkpt><trkpt lat="44.133769" lon="11.5109917"><ele>690.0</ele><time>2026-04-04T08:53:30.905Z</time></trkpt><trkpt lat="44.1336709" lon="11.5108853"><ele>691.0</ele><time>2026-04-04T08:53:31.905Z</time></trkpt><trkpt lat="44.1335594" lon="11.5107869"><ele>691.0</ele><time>2026-04-04T08:53:32.906Z</time></trkpt><trkpt lat="44.1334436" lon="11.5106972"><ele>691.0</ele><time>2026-04-04T08:53:33.906Z</time></trkpt><trkpt lat="44.1333262" lon="11.5106352"><ele>691.0</ele><time>2026-04-04T08:53:34.906Z</time></trkpt><trkpt lat="44.1332056" lon="11.5105805"><ele>691.0</ele><time>2026-04-04T08:53:35.906Z</time></trkpt><trkpt lat="44.1331088" lon="11.5104722"><ele>686.75</ele><time>2026-04-04T08:53:36.905Z</time></trkpt><trkpt lat="44.1330274" lon="11.5103218"><ele>682.5</ele><time>2026-04-04T08:53:37.906Z</time></trkpt><trkpt lat="44.1329614" lon="11.5101751"><ele>678.25</ele><time>2026-04-04T08:53:38.906Z</time></trkpt><trkpt lat="44.1328692" lon="11.5100563"><ele>674.0</ele><time>2026-04-04T08:53:39.906Z</time></trkpt><trkpt lat="44.1327495" lon="11.5099579"><ele>674.0</ele><time>2026-04-04T08:53:40.905Z</time></trkpt><trkpt lat="44.1326352" lon="11.5098455"><ele>674.0</ele><time>2026-04-04T08:53:41.905Z</time></trkpt><trkpt lat="44.1325401" lon="11.5097229"><ele>674.0</ele><time>2026-04-04T08:53:42.905Z</time></trkpt><trkpt lat="44.1324344" lon="11.5096398"><ele>674.0</ele><time>2026-04-04T08:53:43.905Z</time></trkpt><trkpt lat="44.132343" lon="11.5095691"><ele>670.25</ele><time>2026-04-04T08:53:44.905Z</time></trkpt><trkpt lat="44.132186" lon="11.5095946"><ele>666.5</ele><time>2026-04-04T08:53:45.905Z</time></trkpt><trkpt lat="44.1320723" lon="11.5095993"><ele>662.75</ele><time>2026-04-04T08:53:46.905Z</time></trkpt><trkpt lat="44.1319729" lon="11.5096559"><ele>659.0</ele><time>2026-04-04T08:53:47.905Z</time></trkpt><trkpt lat="44.1318906" lon="11.5097675"><ele>659.0</ele><time>2026-04-04T08:53:48.905Z</time></trkpt><trkpt lat="44.1318168" lon="11.5099037"><ele>659.0</ele><time>2026-04-04T08:53:49.905Z</time></trkpt><trkpt lat="44.1317412" lon="11.5100207"><ele>659.0</ele><time>2026-04-04T08:53:50.905Z</time></trkpt><trkpt lat="44.1316436" lon="11.510116"><ele>659.0</ele><time>2026-04-04T08:53:51.905Z</time></trkpt><trkpt lat="44.1315412" lon="11.5102088"><ele>653.0</ele><time>2026-04-04T08:53:52.904Z</time></trkpt><trkpt lat="44.1314049" lon="11.5101984"><ele>647.0</ele><time>2026-04-04T08:53:53.905Z</time></trkpt><trkpt lat="44.1312885" lon="11.5101937"><ele>641.0</ele><time>2026-04-04T08:53:54.905Z</time></trkpt><trkpt lat="44.1311852" lon="11.5102029"><ele>635.0</ele><time>2026-04-04T08:53:55.905Z</time></trkpt><trkpt lat="44.1310973" lon="11.5102676"><ele>635.0</ele><time>2026-04-04T08:53:56.904Z</time></trkpt><trkpt lat="44.1310132" lon="11.5103826"><ele>635.0</ele><time>2026-04-04T08:53:57.905Z</time></trkpt><trkpt lat="44.1309208" lon="11.510526"><ele>635.0</ele><time>2026-04-04T08:53:58.905Z</time></trkpt><trkpt lat="44.1308153" lon="11.5107017"><ele>635.0</ele><time>2026-04-04T08:53:59.906Z</time></trkpt><trkpt lat="44.1307077" lon="11.5108975"><ele>634.3333333333333</ele><time>2026-04-04T08:54:00.904Z</time></trkpt><trkpt lat="44.130608" lon="11.5110961"><ele>633.6666666666666</ele><time>2026-04-04T08:54:01.905Z</time></trkpt><trkpt lat="44.1305254" lon="11.511295"><ele>633.0</ele><time>2026-04-04T08:54:02.905Z</time></trkpt><trkpt lat="44.130442" lon="11.5114826"><ele>633.0</ele><time>2026-04-04T08:54:03.905Z</time></trkpt><trkpt lat="44.1303245" lon="11.5116601"><ele>633.0</ele><time>2026-04-04T08:54:04.905Z</time></trkpt><trkpt lat="44.1301843" lon="11.5118351"><ele>633.0</ele><time>2026-04-04T08:54:05.905Z</time></trkpt><trkpt lat="44.1300379" lon="11.5120061"><ele>630.0</ele><time>2026-04-04T08:54:06.906Z</time></trkpt><trkpt lat="44.1298954" lon="11.5121615"><ele>627.0</ele><time>2026-04-04T08:54:07.905Z</time></trkpt><trkpt lat="44.1297532" lon="11.512294"><ele>624.0</ele><time>2026-04-04T08:54:08.906Z</time></trkpt><trkpt lat="44.129605" lon="11.5123829"><ele>624.0</ele><time>2026-04-04T08:54:09.906Z</time></trkpt><trkpt lat="44.1294546" lon="11.5124307"><ele>624.0</ele><time>2026-04-04T08:54:10.906Z</time></trkpt><trkpt lat="44.1293165" lon="11.5124716"><ele>624.0</ele><time>2026-04-04T08:54:11.905Z</time></trkpt><trkpt lat="44.1291879" lon="11.5125534"><ele>624.0</ele><time>2026-04-04T08:54:12.905Z</time></trkpt><trkpt lat="44.1290563" lon="11.5126665"><ele>618.5</ele><time>2026-04-04T08:54:13.905Z</time></trkpt><trkpt lat="44.1289352" lon="11.5128045"><ele>613.0</ele><time>2026-04-04T08:54:14.904Z</time></trkpt><trkpt lat="44.1288362" lon="11.5129647"><ele>607.5</ele><time>2026-04-04T08:54:15.906Z</time></trkpt><trkpt lat="44.1287635" lon="11.5131214"><ele>602.0</ele><time>2026-04-04T08:54:16.906Z</time></trkpt><trkpt lat="44.1287229" lon="11.5132502"><ele>602.0</ele><time>2026-04-04T08:54:17.906Z</time></trkpt><trkpt lat="44.1287186" lon="11.5133734"><ele>602.0</ele><time>2026-04-04T08:54:18.905Z</time></trkpt><trkpt lat="44.1287472" lon="11.5134811"><ele>602.0</ele><time>2026-04-04T08:54:19.906Z</time></trkpt><trkpt lat="44.1287989" lon="11.5135765"><ele>602.0</ele><time>2026-04-04T08:54:20.905Z</time></trkpt><trkpt lat="44.1288286" lon="11.5136953"><ele>602.0</ele><time>2026-04-04T08:54:21.905Z</time></trkpt><trkpt lat="44.1288162" lon="11.5138284"><ele>602.0</ele><time>2026-04-04T08:54:22.905Z</time></trkpt><trkpt lat="44.1287669" lon="11.5139367"><ele>601.4</ele><time>2026-04-04T08:54:23.904Z</time></trkpt><trkpt lat="44.1287415" lon="11.5140485"><ele>600.8000000000001</ele><time>2026-04-04T08:54:24.905Z</time></trkpt><trkpt lat="44.128764" lon="11.5141587"><ele>600.2</ele><time>2026-04-04T08:54:25.905Z</time></trkpt><trkpt lat="44.1288327" lon="11.5142506"><ele>599.6</ele><time>2026-04-04T08:54:26.905Z</time></trkpt><trkpt lat="44.1289361" lon="11.5143079"><ele>599.0</ele><time>2026-04-04T08:54:27.904Z</time></trkpt><trkpt lat="44.1290615" lon="11.5143494"><ele>601.5</ele><time>2026-04-04T08:54:28.905Z</time></trkpt><trkpt lat="44.129186" lon="11.5143922"><ele>604.0</ele><time>2026-04-04T08:54:29.905Z</time></trkpt><trkpt lat="44.1293058" lon="11.5144329"><ele>606.5</ele><time>2026-04-04T08:54:30.905Z</time></trkpt><trkpt lat="44.1294087" lon="11.5145116"><ele>609.0</ele><time>2026-04-04T08:54:31.905Z</time></trkpt><trkpt lat="44.1294722" lon="11.5146375"><ele>609.0</ele><time>2026-04-04T08:54:32.905Z</time></trkpt><trkpt lat="44.1294951" lon="11.5147922"><ele>609.0</ele><time>2026-04-04T08:54:33.906Z</time></trkpt><trkpt lat="44.1294771" lon="11.5149634"><ele>609.0</ele><time>2026-04-04T08:54:34.906Z</time></trkpt><trkpt lat="44.1294133" lon="11.5151348"><ele>609.0</ele><time>2026-04-04T08:54:35.906Z</time></trkpt><trkpt lat="44.1293273" lon="11.5153006"><ele>608.5</ele><time>2026-04-04T08:54:36.906Z</time></trkpt><trkpt lat="44.129248" lon="11.5154581"><ele>608.0</ele><time>2026-04-04T08:54:37.906Z</time></trkpt><trkpt lat="44.1291931" lon="11.5156211"><ele>607.5</ele><time>2026-04-04T08:54:38.905Z</time></trkpt><trkpt lat="44.1291723" lon="11.5157967"><ele>607.0</ele><time>2026-04-04T08:54:39.905Z</time></trkpt><trkpt lat="44.1291767" lon="11.5159925"><ele>607.0</ele><time>2026-04-04T08:54:40.904Z</time></trkpt><trkpt lat="44.1291837" lon="11.5162017"><ele>607.0</ele><time>2026-04-04T08:54:41.906Z</time></trkpt><trkpt lat="44.1291673" lon="11.5164141"><ele>607.0</ele><time>2026-04-04T08:54:42.905Z</time></trkpt><trkpt lat="44.1291128" lon="11.5166236"><ele>596.0</ele><time>2026-04-04T08:54:43.905Z</time></trkpt><trkpt lat="44.1290271" lon="11.5168111"><ele>585.0</ele><time>2026-04-04T08:54:44.905Z</time></trkpt><trkpt lat="44.1289355" lon="11.5169807"><ele>574.0</ele><time>2026-04-04T08:54:45.905Z</time></trkpt><trkpt lat="44.1288347" lon="11.5171336"><ele>574.0</ele><time>2026-04-04T08:54:46.906Z</time></trkpt><trkpt lat="44.1287404" lon="11.5172607"><ele>574.0</ele><time>2026-04-04T08:54:47.905Z</time></trkpt><trkpt lat="44.1286834" lon="11.5173773"><ele>574.0</ele><time>2026-04-04T08:54:48.905Z</time></trkpt><trkpt lat="44.1286729" lon="11.5174936"><ele>574.0</ele><time>2026-04-04T08:54:49.905Z</time></trkpt><trkpt lat="44.1287059" lon="11.5175923"><ele>574.0</ele><time>2026-04-04T08:54:50.905Z</time></trkpt><trkpt lat="44.1287782" lon="11.5176738"><ele>574.0</ele><time>2026-04-04T08:54:51.906Z</time></trkpt><trkpt lat="44.1288878" lon="11.517743"><ele>574.0</ele><time>2026-04-04T08:54:52.906Z</time></trkpt><trkpt lat="44.1290177" lon="11.5178152"><ele>574.0</ele><time>2026-04-04T08:54:53.905Z</time></trkpt><trkpt lat="44.1291568" lon="11.5178744"><ele>574.0</ele><time>2026-04-04T08:54:54.905Z</time></trkpt><trkpt lat="44.1292952" lon="11.5179262"><ele>576.75</ele><time>2026-04-04T08:54:55.906Z</time></trkpt><trkpt lat="44.1294276" lon="11.5179714"><ele>579.5</ele><time>2026-04-04T08:54:56.906Z</time></trkpt><trkpt lat="44.1295548" lon="11.518008"><ele>582.25</ele><time>2026-04-04T08:54:57.906Z</time></trkpt><trkpt lat="44.1296528" lon="11.5180435"><ele>585.0</ele><time>2026-04-04T08:54:58.905Z</time></trkpt><trkpt lat="44.1297179" lon="11.518118"><ele>585.0</ele><time>2026-04-04T08:54:59.905Z</time></trkpt><trkpt lat="44.1297432" lon="11.5182137"><ele>585.0</ele><time>2026-04-04T08:55:00.906Z</time></trkpt><trkpt lat="44.1297288" lon="11.5183136"><ele>585.0</ele><time>2026-04-04T08:55:01.906Z</time></trkpt><trkpt lat="44.1297013" lon="11.5184179"><ele>585.0</ele><time>2026-04-04T08:55:02.906Z</time></trkpt><trkpt lat="44.1296751" lon="11.518519"><ele>585.0</ele><time>2026-04-04T08:55:03.906Z</time></trkpt><trkpt lat="44.1296524" lon="11.5186286"><ele>585.0</ele><time>2026-04-04T08:55:04.906Z</time></trkpt><trkpt lat="44.1296361" lon="11.5187371"><ele>586.3333333333334</ele><time>2026-04-04T08:55:05.906Z</time></trkpt><trkpt lat="44.1295998" lon="11.518822"><ele>587.6666666666666</ele><time>2026-04-04T08:55:06.906Z</time></trkpt><trkpt lat="44.129539" lon="11.5188735"><ele>589.0</ele><time>2026-04-04T08:55:07.905Z</time></trkpt><trkpt lat="44.1294585" lon="11.5188873"><ele>590.3333333333333</ele><time>2026-04-04T08:55:08.906Z</time></trkpt><trkpt lat="44.1293623" lon="11.5188545"><ele>591.6666666666666</ele><time>2026-04-04T08:55:09.906Z</time></trkpt><trkpt lat="44.1292534" lon="11.5188183"><ele>593.0</ele><time>2026-04-04T08:55:10.906Z</time></trkpt><trkpt lat="44.1291435" lon="11.5188024"><ele>591.0</ele><time>2026-04-04T08:55:11.906Z</time></trkpt><trkpt lat="44.1290469" lon="11.5189"><ele>589.0</ele><time>2026-04-04T08:55:12.905Z</time></trkpt><trkpt lat="44.1289632" lon="11.5190008"><ele>587.0</ele><time>2026-04-04T08:55:13.906Z</time></trkpt><trkpt lat="44.128866" lon="11.5191004"><ele>585.0</ele><time>2026-04-04T08:55:14.905Z</time></trkpt><trkpt lat="44.1287505" lon="11.5191914"><ele>585.0</ele><time>2026-04-04T08:55:15.905Z</time></trkpt><trkpt lat="44.1286067" lon="11.5192329"><ele>585.0</ele><time>2026-04-04T08:55:16.904Z</time></trkpt><trkpt lat="44.1284781" lon="11.5192623"><ele>585.0</ele><time>2026-04-04T08:55:17.905Z</time></trkpt><trkpt lat="44.1283609" lon="11.5192795"><ele>585.0</ele><time>2026-04-04T08:55:18.905Z</time></trkpt><trkpt lat="44.1282424" lon="11.5192784"><ele>584.75</ele><time>2026-04-04T08:55:19.905Z</time></trkpt><trkpt lat="44.1281287" lon="11.5192393"><ele>584.5</ele><time>2026-04-04T08:55:20.906Z</time></trkpt><trkpt lat="44.1280279" lon="11.5191579"><ele>584.25</ele><time>2026-04-04T08:55:21.906Z</time></trkpt><trkpt lat="44.1279336" lon="11.5190651"><ele>584.0</ele><time>2026-04-04T08:55:22.905Z</time></trkpt><trkpt lat="44.1278186" lon="11.5190176"><ele>584.0</ele><time>2026-04-04T08:55:23.906Z</time></trkpt><trkpt lat="44.1276808" lon="11.5190133"><ele>584.0</ele><time>2026-04-04T08:55:24.906Z</time></trkpt><trkpt lat="44.1275281" lon="11.5190489"><ele>584.0</ele><time>2026-04-04T08:55:25.906Z</time></trkpt><trkpt lat="44.1273745" lon="11.5191176"><ele>581.0</ele><time>2026-04-04T08:55:26.906Z</time></trkpt><trkpt lat="44.1272287" lon="11.5191859"><ele>578.0</ele><time>2026-04-04T08:55:27.906Z</time></trkpt><trkpt lat="44.1270857" lon="11.5192111"><ele>575.0</ele><time>2026-04-04T08:55:28.905Z</time></trkpt><trkpt lat="44.1269508" lon="11.5192031"><ele>572.0</ele><time>2026-04-04T08:55:29.905Z</time></trkpt><trkpt lat="44.1268253" lon="11.5191958"><ele>572.0</ele><time>2026-04-04T08:55:30.905Z</time></trkpt><trkpt lat="44.1267085" lon="11.5192285"><ele>572.0</ele><time>2026-04-04T08:55:31.904Z</time></trkpt><trkpt lat="44.1266088" lon="11.5192926"><ele>572.0</ele><time>2026-04-04T08:55:32.906Z</time></trkpt><trkpt lat="44.1265174" lon="11.5194149"><ele>572.0</ele><time>2026-04-04T08:55:33.906Z</time></trkpt><trkpt lat="44.126418" lon="11.5195659"><ele>569.3333333333333</ele><time>2026-04-04T08:55:34.905Z</time></trkpt><trkpt lat="44.1263151" lon="11.5197311"><ele>566.6666666666666</ele><time>2026-04-04T08:55:35.906Z</time></trkpt><trkpt lat="44.1262166" lon="11.5199068"><ele>564.0</ele><time>2026-04-04T08:55:36.906Z</time></trkpt><trkpt lat="44.1261298" lon="11.5200891"><ele>564.0</ele><time>2026-04-04T08:55:37.906Z</time></trkpt><trkpt lat="44.126059" lon="11.5202738"><ele>564.0</ele><time>2026-04-04T08:55:38.906Z</time></trkpt><trkpt lat="44.1260207" lon="11.5204745"><ele>564.0</ele><time>2026-04-04T08:55:39.906Z</time></trkpt><trkpt lat="44.1260078" lon="11.5206733"><ele>564.0</ele><time>2026-04-04T08:55:40.906Z</time></trkpt><trkpt lat="44.1260017" lon="11.5208653"><ele>566.0</ele><time>2026-04-04T08:55:41.906Z</time></trkpt><trkpt lat="44.1259806" lon="11.5210629"><ele>568.0</ele><time>2026-04-04T08:55:42.906Z</time></trkpt><trkpt lat="44.1259281" lon="11.5212527"><ele>570.0</ele><time>2026-04-04T08:55:43.906Z</time></trkpt><trkpt lat="44.1258397" lon="11.5214303"><ele>572.0</ele><time>2026-04-04T08:55:44.906Z</time></trkpt><trkpt lat="44.1257202" lon="11.5215896"><ele>571.0</ele><time>2026-04-04T08:55:45.906Z</time></trkpt><trkpt lat="44.1255718" lon="11.5217215"><ele>570.0</ele><time>2026-04-04T08:55:46.906Z</time></trkpt><trkpt lat="44.1254297" lon="11.5218706"><ele>569.0</ele><time>2026-04-04T08:55:47.905Z</time></trkpt><trkpt lat="44.1252983" lon="11.5220738"><ele>569.0</ele><time>2026-04-04T08:55:48.905Z</time></trkpt><trkpt lat="44.1251698" lon="11.5223001"><ele>569.0</ele><time>2026-04-04T08:55:49.906Z</time></trkpt><trkpt lat="44.1250496" lon="11.522506"><ele>569.0</ele><time>2026-04-04T08:55:50.905Z</time></trkpt><trkpt lat="44.1249289" lon="11.5226955"><ele>561.0</ele><time>2026-04-04T08:55:51.905Z</time></trkpt><trkpt lat="44.1248028" lon="11.5228611"><ele>553.0</ele><time>2026-04-04T08:55:52.905Z</time></trkpt><trkpt lat="44.1246808" lon="11.5230022"><ele>545.0</ele><time>2026-04-04T08:55:53.906Z</time></trkpt><trkpt lat="44.1245922" lon="11.5231385"><ele>545.0</ele><time>2026-04-04T08:55:54.906Z</time></trkpt><trkpt lat="44.1245297" lon="11.5233089"><ele>545.0</ele><time>2026-04-04T08:55:55.905Z</time></trkpt><trkpt lat="44.1244953" lon="11.5235131"><ele>545.0</ele><time>2026-04-04T08:55:56.906Z</time></trkpt><trkpt lat="44.1244663" lon="11.5237217"><ele>545.0</ele><time>2026-04-04T08:55:57.906Z</time></trkpt><trkpt lat="44.1244231" lon="11.5239346"><ele>548.6666666666666</ele><time>2026-04-04T08:55:58.906Z</time></trkpt><trkpt lat="44.1243509" lon="11.5241389"><ele>552.3333333333334</ele><time>2026-04-04T08:55:59.906Z</time></trkpt><trkpt lat="44.1242575" lon="11.5243395"><ele>556.0</ele><time>2026-04-04T08:56:00.906Z</time></trkpt><trkpt lat="44.1241552" lon="11.5245244"><ele>557.0</ele><time>2026-04-04T08:56:01.904Z</time></trkpt><trkpt lat="44.1240938" lon="11.5246719"><ele>558.0</ele><time>2026-04-04T08:56:02.904Z</time></trkpt><trkpt lat="44.1240638" lon="11.5248083"><ele>559.0</ele><time>2026-04-04T08:56:03.905Z</time></trkpt><trkpt lat="44.1240667" lon="11.5249484"><ele>560.0</ele><time>2026-04-04T08:56:04.904Z</time></trkpt><trkpt lat="44.1240995" lon="11.5250698"><ele>561.0</ele><time>2026-04-04T08:56:05.906Z</time></trkpt><trkpt lat="44.1241446" lon="11.5251685"><ele>561.0</ele><time>2026-04-04T08:56:06.906Z</time></trkpt><trkpt lat="44.1241822" lon="11.5252708"><ele>561.0</ele><time>2026-04-04T08:56:07.906Z</time></trkpt><trkpt lat="44.1241942" lon="11.5253988"><ele>561.0</ele><time>2026-04-04T08:56:08.905Z</time></trkpt><trkpt lat="44.1241725" lon="11.525532"><ele>561.0</ele><time>2026-04-04T08:56:09.905Z</time></trkpt><trkpt lat="44.1241185" lon="11.5256601"><ele>561.0</ele><time>2026-04-04T08:56:10.905Z</time></trkpt><trkpt lat="44.124036" lon="11.5257589"><ele>557.25</ele><time>2026-04-04T08:56:11.906Z</time></trkpt><trkpt lat="44.123932" lon="11.5258244"><ele>553.5</ele><time>2026-04-04T08:56:12.906Z</time></trkpt><trkpt lat="44.1238042" lon="11.5258603"><ele>549.75</ele><time>2026-04-04T08:56:13.905Z</time></trkpt><trkpt lat="44.1236761" lon="11.5258944"><ele>546.0</ele><time>2026-04-04T08:56:14.905Z</time></trkpt><trkpt lat="44.1235604" lon="11.5259376"><ele>546.0</ele><time>2026-04-04T08:56:15.905Z</time></trkpt><trkpt lat="44.1234573" lon="11.5260081"><ele>546.0</ele><time>2026-04-04T08:56:16.904Z</time></trkpt><trkpt lat="44.1233738" lon="11.5261217"><ele>546.0</ele><time>2026-04-04T08:56:17.905Z</time></trkpt><trkpt lat="44.1233187" lon="11.5262777"><ele>546.0</ele><time>2026-04-04T08:56:18.905Z</time></trkpt><trkpt lat="44.1232872" lon="11.5264668"><ele>544.5</ele><time>2026-04-04T08:56:19.905Z</time></trkpt><trkpt lat="44.1232527" lon="11.5266583"><ele>543.0</ele><time>2026-04-04T08:56:20.905Z</time></trkpt><trkpt lat="44.1231853" lon="11.5268321"><ele>541.5</ele><time>2026-04-04T08:56:21.905Z</time></trkpt><trkpt lat="44.1230903" lon="11.5269981"><ele>540.0</ele><time>2026-04-04T08:56:22.906Z</time></trkpt><trkpt lat="44.1229685" lon="11.5271567"><ele>540.0</ele><time>2026-04-04T08:56:23.905Z</time></trkpt><trkpt lat="44.1228391" lon="11.5273127"><ele>540.0</ele><time>2026-04-04T08:56:24.906Z</time></trkpt><trkpt lat="44.1227149" lon="11.5274617"><ele>540.0</ele><time>2026-04-04T08:56:25.905Z</time></trkpt><trkpt lat="44.1226109" lon="11.5276242"><ele>540.0</ele><time>2026-04-04T08:56:26.905Z</time></trkpt><trkpt lat="44.122534" lon="11.5278034"><ele>540.0</ele><time>2026-04-04T08:56:27.904Z</time></trkpt><trkpt lat="44.122483" lon="11.5279837"><ele>540.0</ele><time>2026-04-04T08:56:28.905Z</time></trkpt><trkpt lat="44.1224669" lon="11.5281464"><ele>540.0</ele><time>2026-04-04T08:56:29.905Z</time></trkpt><trkpt lat="44.1224954" lon="11.5282895"><ele>540.5</ele><time>2026-04-04T08:56:30.905Z</time></trkpt><trkpt lat="44.1225589" lon="11.5284038"><ele>541.0</ele><time>2026-04-04T08:56:31.905Z</time></trkpt><trkpt lat="44.1226567" lon="11.5284869"><ele>541.5</ele><time>2026-04-04T08:56:32.906Z</time></trkpt><trkpt lat="44.122778" lon="11.5285423"><ele>542.0</ele><time>2026-04-04T08:56:33.906Z</time></trkpt><trkpt lat="44.1229002" lon="11.5286043"><ele>542.0</ele><time>2026-04-04T08:56:34.906Z</time></trkpt><trkpt lat="44.1229968" lon="11.5287028"><ele>542.0</ele><time>2026-04-04T08:56:35.906Z</time></trkpt><trkpt lat="44.1230638" lon="11.5288324"><ele>542.0</ele><time>2026-04-04T08:56:36.906Z</time></trkpt><trkpt lat="44.1230926" lon="11.5289854"><ele>542.0</ele><time>2026-04-04T08:56:37.906Z</time></trkpt><trkpt lat="44.1230921" lon="11.5291526"><ele>540.2</ele><time>2026-04-04T08:56:38.905Z</time></trkpt><trkpt lat="44.1230769" lon="11.5293117"><ele>538.4000000000001</ele><time>2026-04-04T08:56:39.905Z</time></trkpt><trkpt lat="44.123037" lon="11.5294702"><ele>536.5999999999999</ele><time>2026-04-04T08:56:40.904Z</time></trkpt><trkpt lat="44.1229831" lon="11.5296078"><ele>534.8</ele><time>2026-04-04T08:56:41.904Z</time></trkpt><trkpt lat="44.1229193" lon="11.5297087"><ele>533.0</ele><time>2026-04-04T08:56:42.905Z</time></trkpt><trkpt lat="44.1228388" lon="11.529753"><ele>536.0</ele><time>2026-04-04T08:56:43.905Z</time></trkpt><trkpt lat="44.1227397" lon="11.5297518"><ele>539.0</ele><time>2026-04-04T08:56:44.905Z</time></trkpt><trkpt lat="44.1226301" lon="11.5297047"><ele>542.0</ele><time>2026-04-04T08:56:45.905Z</time></trkpt><trkpt lat="44.1225032" lon="11.5296335"><ele>545.0</ele><time>2026-04-04T08:56:46.904Z</time></trkpt><trkpt lat="44.1223627" lon="11.5295441"><ele>545.0</ele><time>2026-04-04T08:56:47.905Z</time></trkpt><trkpt lat="44.1222065" lon="11.5294386"><ele>545.0</ele><time>2026-04-04T08:56:48.905Z</time></trkpt><trkpt lat="44.1220472" lon="11.5293213"><ele>545.0</ele><time>2026-04-04T08:56:49.906Z</time></trkpt><trkpt lat="44.1218954" lon="11.5292084"><ele>545.0</ele><time>2026-04-04T08:56:50.906Z</time></trkpt><trkpt lat="44.1217516" lon="11.5290922"><ele>545.0</ele><time>2026-04-04T08:56:51.906Z</time></trkpt><trkpt lat="44.1216298" lon="11.5289511"><ele>545.0</ele><time>2026-04-04T08:56:52.906Z</time></trkpt><trkpt lat="44.1215342" lon="11.52878"><ele>537.6666666666666</ele><time>2026-04-04T08:56:53.906Z</time></trkpt><trkpt lat="44.121452" lon="11.5285875"><ele>530.3333333333334</ele><time>2026-04-04T08:56:54.906Z</time></trkpt><trkpt lat="44.1213743" lon="11.5284108"><ele>523.0</ele><time>2026-04-04T08:56:55.904Z</time></trkpt><trkpt lat="44.1212909" lon="11.5282538"><ele>523.0</ele><time>2026-04-04T08:56:56.905Z</time></trkpt><trkpt lat="44.1211787" lon="11.5282132"><ele>523.0</ele><time>2026-04-04T08:56:57.904Z</time></trkpt><trkpt lat="44.1210679" lon="11.5281943"><ele>523.0</ele><time>2026-04-04T08:56:58.905Z</time></trkpt><trkpt lat="44.1209502" lon="11.5282355"><ele>523.0</ele><time>2026-04-04T08:56:59.905Z</time></trkpt><trkpt lat="44.1208281" lon="11.5283353"><ele>518.0</ele><time>2026-04-04T08:57:00.905Z</time></trkpt><trkpt lat="44.1207011" lon="11.5284557"><ele>513.0</ele><time>2026-04-04T08:57:01.906Z</time></trkpt><trkpt lat="44.1205762" lon="11.5285791"><ele>508.0</ele><time>2026-04-04T08:57:02.906Z</time></trkpt><trkpt lat="44.1204734" lon="11.528737"><ele>508.0</ele><time>2026-04-04T08:57:03.904Z</time></trkpt><trkpt lat="44.120387" lon="11.5289517"><ele>508.0</ele><time>2026-04-04T08:57:04.905Z</time></trkpt><trkpt lat="44.1203115" lon="11.5292074"><ele>508.0</ele><time>2026-04-04T08:57:05.905Z</time></trkpt><trkpt lat="44.1202257" lon="11.5294993"><ele>510.0</ele><time>2026-04-04T08:57:06.905Z</time></trkpt><trkpt lat="44.1201344" lon="11.5298052"><ele>512.0</ele><time>2026-04-04T08:57:07.906Z</time></trkpt><trkpt lat="44.1200362" lon="11.5300947"><ele>512.0</ele><time>2026-04-04T08:57:08.905Z</time></trkpt><trkpt lat="44.1199118" lon="11.5303657"><ele>512.0</ele><time>2026-04-04T08:57:09.905Z</time></trkpt><trkpt lat="44.1197513" lon="11.5306388"><ele>502.0</ele><time>2026-04-04T08:57:10.905Z</time></trkpt><trkpt lat="44.1195836" lon="11.5309143"><ele>492.0</ele><time>2026-04-04T08:57:11.905Z</time></trkpt><trkpt lat="44.1194325" lon="11.5311816"><ele>495.66666666666663</ele><time>2026-04-04T08:57:12.906Z</time></trkpt><trkpt lat="44.1193031" lon="11.5314418"><ele>499.3333333333333</ele><time>2026-04-04T08:57:13.905Z</time></trkpt><trkpt lat="44.1191936" lon="11.5316589"><ele>503.0</ele><time>2026-04-04T08:57:14.904Z</time></trkpt><trkpt lat="44.1190896" lon="11.5318222"><ele>501.66666666666663</ele><time>2026-04-04T08:57:15.906Z</time></trkpt><trkpt lat="44.1189587" lon="11.5319442"><ele>500.33333333333337</ele><time>2026-04-04T08:57:16.906Z</time></trkpt><trkpt lat="44.1188071" lon="11.5320513"><ele>499.0</ele><time>2026-04-04T08:57:17.906Z</time></trkpt><trkpt lat="44.1186415" lon="11.5321782"><ele>499.0</ele><time>2026-04-04T08:57:18.905Z</time></trkpt><trkpt lat="44.1184741" lon="11.5323385"><ele>499.0</ele><time>2026-04-04T08:57:19.905Z</time></trkpt><trkpt lat="44.118306" lon="11.5325209"><ele>499.0</ele><time>2026-04-04T08:57:20.906Z</time></trkpt><trkpt lat="44.1181314" lon="11.532704"><ele>495.0</ele><time>2026-04-04T08:57:21.906Z</time></trkpt><trkpt lat="44.117954" lon="11.5328775"><ele>491.0</ele><time>2026-04-04T08:57:22.904Z</time></trkpt><trkpt lat="44.1177828" lon="11.5330521"><ele>487.0</ele><time>2026-04-04T08:57:23.906Z</time></trkpt><trkpt lat="44.117623" lon="11.5332268"><ele>487.0</ele><time>2026-04-04T08:57:24.906Z</time></trkpt><trkpt lat="44.1174734" lon="11.5333984"><ele>487.0</ele><time>2026-04-04T08:57:25.905Z</time></trkpt><trkpt lat="44.1173327" lon="11.5335587"><ele>487.0</ele><time>2026-04-04T08:57:26.905Z</time></trkpt><trkpt lat="44.1172124" lon="11.5337024"><ele>484.25</ele><time>2026-04-04T08:57:27.906Z</time></trkpt><trkpt lat="44.1171129" lon="11.5338419"><ele>481.5</ele><time>2026-04-04T08:57:28.905Z</time></trkpt><trkpt lat="44.1170499" lon="11.5340102"><ele>478.75</ele><time>2026-04-04T08:57:29.905Z</time></trkpt><trkpt lat="44.1170268" lon="11.5342158"><ele>476.0</ele><time>2026-04-04T08:57:30.906Z</time></trkpt><trkpt lat="44.1170434" lon="11.534451"><ele>475.0</ele><time>2026-04-04T08:57:31.904Z</time></trkpt><trkpt lat="44.1170797" lon="11.5347079"><ele>474.0</ele><time>2026-04-04T08:57:32.905Z</time></trkpt><trkpt lat="44.1171147" lon="11.5350058"><ele>473.0</ele><time>2026-04-04T08:57:33.906Z</time></trkpt><trkpt lat="44.1171546" lon="11.5353318"><ele>471.0</ele><time>2026-04-04T08:57:34.906Z</time></trkpt><trkpt lat="44.1171941" lon="11.535646"><ele>469.0</ele><time>2026-04-04T08:57:35.904Z</time></trkpt><trkpt lat="44.1172322" lon="11.5359418"><ele>467.0</ele><time>2026-04-04T08:57:36.905Z</time></trkpt><trkpt lat="44.1172588" lon="11.5362275"><ele>465.66666666666663</ele><time>2026-04-04T08:57:37.906Z</time></trkpt><trkpt lat="44.1172608" lon="11.5364979"><ele>464.33333333333337</ele><time>2026-04-04T08:57:38.906Z</time></trkpt><trkpt lat="44.1172325" lon="11.536755"><ele>463.0</ele><time>2026-04-04T08:57:39.906Z</time></trkpt><trkpt lat="44.11719" lon="11.5370166"><ele>464.0</ele><time>2026-04-04T08:57:40.906Z</time></trkpt><trkpt lat="44.1171493" lon="11.5372811"><ele>465.0</ele><time>2026-04-04T08:57:41.906Z</time></trkpt><trkpt lat="44.1171054" lon="11.5375407"><ele>466.0</ele><time>2026-04-04T08:57:42.905Z</time></trkpt><trkpt lat="44.1170597" lon="11.5377886"><ele>464.0</ele><time>2026-04-04T08:57:43.905Z</time></trkpt><trkpt lat="44.117019" lon="11.5380263"><ele>462.0</ele><time>2026-04-04T08:57:44.904Z</time></trkpt><trkpt lat="44.1169805" lon="11.5382549"><ele>460.0</ele><time>2026-04-04T08:57:45.905Z</time></trkpt><trkpt lat="44.1169235" lon="11.5384737"><ele>460.0</ele><time>2026-04-04T08:57:46.905Z</time></trkpt><trkpt lat="44.1168331" lon="11.5386995"><ele>460.0</ele><time>2026-04-04T08:57:47.905Z</time></trkpt><trkpt lat="44.1167185" lon="11.5389268"><ele>460.0</ele><time>2026-04-04T08:57:48.906Z</time></trkpt><trkpt lat="44.1165953" lon="11.5391671"><ele>461.0</ele><time>2026-04-04T08:57:49.905Z</time></trkpt><trkpt lat="44.1164658" lon="11.5394209"><ele>462.0</ele><time>2026-04-04T08:57:50.905Z</time></trkpt><trkpt lat="44.1163351" lon="11.5396731"><ele>463.0</ele><time>2026-04-04T08:57:51.905Z</time></trkpt><trkpt lat="44.1162125" lon="11.5399048"><ele>462.33333333333337</ele><time>2026-04-04T08:57:52.905Z</time></trkpt><trkpt lat="44.1161007" lon="11.5401329"><ele>461.66666666666663</ele><time>2026-04-04T08:57:53.904Z</time></trkpt><trkpt lat="44.1160085" lon="11.5403748"><ele>461.0</ele><time>2026-04-04T08:57:54.905Z</time></trkpt><trkpt lat="44.1159477" lon="11.5406231"><ele>461.0</ele><time>2026-04-04T08:57:55.904Z</time></trkpt><trkpt lat="44.115896" lon="11.5408608"><ele>461.0</ele><time>2026-04-04T08:57:56.905Z</time></trkpt><trkpt lat="44.1158182" lon="11.5410714"><ele>461.0</ele><time>2026-04-04T08:57:57.904Z</time></trkpt><trkpt lat="44.1157058" lon="11.5412676"><ele>458.3333333333333</ele><time>2026-04-04T08:57:58.905Z</time></trkpt><trkpt lat="44.1155759" lon="11.541433"><ele>455.66666666666663</ele><time>2026-04-04T08:57:59.905Z</time></trkpt><trkpt lat="44.1154373" lon="11.5415678"><ele>453.0</ele><time>2026-04-04T08:58:00.904Z</time></trkpt><trkpt lat="44.1153183" lon="11.5417027"><ele>453.0</ele><time>2026-04-04T08:58:01.904Z</time></trkpt><trkpt lat="44.1152277" lon="11.5418736"><ele>453.0</ele><time>2026-04-04T08:58:02.904Z</time></trkpt><trkpt lat="44.1151562" lon="11.5420935"><ele>453.0</ele><time>2026-04-04T08:58:03.904Z</time></trkpt><trkpt lat="44.1151039" lon="11.5423467"><ele>452.0</ele><time>2026-04-04T08:58:04.903Z</time></trkpt><trkpt lat="44.1150559" lon="11.5426051"><ele>451.0</ele><time>2026-04-04T08:58:05.904Z</time></trkpt><trkpt lat="44.115005" lon="11.5428421"><ele>450.0</ele><time>2026-04-04T08:58:06.904Z</time></trkpt><trkpt lat="44.1149477" lon="11.5430733"><ele>453.0</ele><time>2026-04-04T08:58:07.904Z</time></trkpt><trkpt lat="44.1148783" lon="11.5432856"><ele>456.0</ele><time>2026-04-04T08:58:08.905Z</time></trkpt><trkpt lat="44.114792" lon="11.5434822"><ele>459.0</ele><time>2026-04-04T08:58:09.904Z</time></trkpt><trkpt lat="44.1147008" lon="11.543673"><ele>453.66666666666663</ele><time>2026-04-04T08:58:10.904Z</time></trkpt><trkpt lat="44.1146164" lon="11.54387"><ele>448.3333333333333</ele><time>2026-04-04T08:58:11.905Z</time></trkpt><trkpt lat="44.1145415" lon="11.5440653"><ele>443.0</ele><time>2026-04-04T08:58:12.905Z</time></trkpt><trkpt lat="44.1144866" lon="11.5442685"><ele>443.0</ele><time>2026-04-04T08:58:13.904Z</time></trkpt><trkpt lat="44.1144429" lon="11.5444778"><ele>443.0</ele><time>2026-04-04T08:58:14.904Z</time></trkpt><trkpt lat="44.1144105" lon="11.5446873"><ele>443.0</ele><time>2026-04-04T08:58:15.904Z</time></trkpt><trkpt lat="44.1143808" lon="11.5448956"><ele>442.25</ele><time>2026-04-04T08:58:16.904Z</time></trkpt><trkpt lat="44.1143509" lon="11.5450969"><ele>441.5</ele><time>2026-04-04T08:58:17.905Z</time></trkpt><trkpt lat="44.1143197" lon="11.54529"><ele>440.75</ele><time>2026-04-04T08:58:18.904Z</time></trkpt><trkpt lat="44.1142837" lon="11.5454784"><ele>440.0</ele><time>2026-04-04T08:58:19.905Z</time></trkpt><trkpt lat="44.1142523" lon="11.5456511"><ele>439.99999999999994</ele><time>2026-04-04T08:58:20.905Z</time></trkpt><trkpt lat="44.1142248" lon="11.5457974"><ele>440.0</ele><time>2026-04-04T08:58:21.905Z</time></trkpt><trkpt lat="44.1142084" lon="11.5459033"><ele>440.0</ele><time>2026-04-04T08:58:22.904Z</time></trkpt><trkpt lat="44.114184" lon="11.5460335"><ele>440.0</ele><time>2026-04-04T08:58:24.905Z</time></trkpt><trkpt lat="44.1141488" lon="11.546117"><ele>439.99999999999994</ele><time>2026-04-04T08:58:26.905Z</time></trkpt><trkpt lat="44.114069" lon="11.5460912"><ele>440.0</ele><time>2026-04-04T08:58:29.904Z</time></trkpt><trkpt lat="44.1140582" lon="11.5462098"><ele>438.49999999999994</ele><time>2026-04-04T08:58:37.904Z</time></trkpt><trkpt lat="44.1140361" lon="11.5462972"><ele>437.0</ele><time>2026-04-04T08:58:39.905Z</time></trkpt><trkpt lat="44.1139825" lon="11.5463689"><ele>435.5</ele><time>2026-04-04T08:58:41.904Z</time></trkpt><trkpt lat="44.1139298" lon="11.5464465"><ele>434.0</ele><time>2026-04-04T08:58:43.905Z</time></trkpt><trkpt lat="44.1138697" lon="11.5465225"><ele>432.49999999999994</ele><time>2026-04-04T08:58:45.905Z</time></trkpt><trkpt lat="44.113806" lon="11.5466052"><ele>431.0</ele><time>2026-04-04T08:58:47.905Z</time></trkpt><trkpt lat="44.1137345" lon="11.5466956"><ele>431.0</ele><time>2026-04-04T08:58:49.905Z</time></trkpt><trkpt lat="44.1136731" lon="11.5467844"><ele>431.0</ele><time>2026-04-04T08:58:51.904Z</time></trkpt><trkpt lat="44.1136039" lon="11.5468763"><ele>431.0</ele><time>2026-04-04T08:58:53.904Z</time></trkpt><trkpt lat="44.1135445" lon="11.5469727"><ele>431.0</ele><time>2026-04-04T08:58:55.905Z</time></trkpt><trkpt lat="44.1134962" lon="11.547073"><ele>431.0</ele><time>2026-04-04T08:58:57.905Z</time></trkpt><trkpt lat="44.113466" lon="11.5471988"><ele>428.0</ele><time>2026-04-04T08:58:59.905Z</time></trkpt><trkpt lat="44.113447" lon="11.5473401"><ele>428.0</ele><time>2026-04-04T08:59:01.905Z</time></trkpt><trkpt lat="44.1134392" lon="11.5474732"><ele>428.0</ele><time>2026-04-04T08:59:03.905Z</time></trkpt><trkpt lat="44.1134164" lon="11.547574"><ele>428.0</ele><time>2026-04-04T08:59:05.905Z</time></trkpt></trkseg><trkseg><trkpt lat="44.1133359" lon="11.5476382"><ele>428.0</ele><time>2026-04-04T09:27:34.898Z</time></trkpt><trkpt lat="44.1134351" lon="11.5474911"><ele>428.0</ele><time>2026-04-04T09:27:36.9Z</time></trkpt><trkpt lat="44.1134594" lon="11.5473048"><ele>428.0</ele><time>2026-04-04T09:27:37.899Z</time></trkpt><trkpt lat="44.1135058" lon="11.5471334"><ele>428.0</ele><time>2026-04-04T09:27:38.899Z</time></trkpt><trkpt lat="44.1135675" lon="11.546978"><ele>428.75</ele><time>2026-04-04T09:27:39.9Z</time></trkpt><trkpt lat="44.1136563" lon="11.5468371"><ele>429.5</ele><time>2026-04-04T09:27:40.899Z</time></trkpt><trkpt lat="44.1137607" lon="11.5467024"><ele>430.25</ele><time>2026-04-04T09:27:41.899Z</time></trkpt><trkpt lat="44.1138597" lon="11.5465787"><ele>431.0</ele><time>2026-04-04T09:27:42.898Z</time></trkpt><trkpt lat="44.1139422" lon="11.5464767"><ele>431.0</ele><time>2026-04-04T09:27:43.899Z</time></trkpt><trkpt lat="44.1140123" lon="11.5463845"><ele>431.0</ele><time>2026-04-04T09:27:44.9Z</time></trkpt><trkpt lat="44.1140651" lon="11.5463002"><ele>431.0</ele><time>2026-04-04T09:27:45.9Z</time></trkpt><trkpt lat="44.1140834" lon="11.5461384"><ele>431.0</ele><time>2026-04-04T09:27:47.9Z</time></trkpt><trkpt lat="44.1140405" lon="11.5460466"><ele>431.0</ele><time>2026-04-04T09:27:48.898Z</time></trkpt><trkpt lat="44.1139848" lon="11.5459452"><ele>431.5</ele><time>2026-04-04T09:27:49.898Z</time></trkpt><trkpt lat="44.1139184" lon="11.5458221"><ele>432.0</ele><time>2026-04-04T09:27:50.899Z</time></trkpt><trkpt lat="44.1138349" lon="11.5456739"><ele>432.5</ele><time>2026-04-04T09:27:51.899Z</time></trkpt><trkpt lat="44.1137446" lon="11.5455057"><ele>433.0</ele><time>2026-04-04T09:27:52.9Z</time></trkpt><trkpt lat="44.1136523" lon="11.5453268"><ele>433.33333333333337</ele><time>2026-04-04T09:27:53.899Z</time></trkpt><trkpt lat="44.1135533" lon="11.5451243"><ele>433.66666666666663</ele><time>2026-04-04T09:27:54.9Z</time></trkpt><trkpt lat="44.1134496" lon="11.5449208"><ele>434.0</ele><time>2026-04-04T09:27:55.899Z</time></trkpt><trkpt lat="44.1133457" lon="11.5447215"><ele>434.66666666666663</ele><time>2026-04-04T09:27:56.898Z</time></trkpt><trkpt lat="44.1132446" lon="11.544528"><ele>435.33333333333337</ele><time>2026-04-04T09:27:57.898Z</time></trkpt><trkpt lat="44.1131441" lon="11.5443383"><ele>436.0</ele><time>2026-04-04T09:27:58.898Z</time></trkpt><trkpt lat="44.1130444" lon="11.5441513"><ele>436.0</ele><time>2026-04-04T09:27:59.898Z</time></trkpt><trkpt lat="44.1129465" lon="11.5439687"><ele>436.0</ele><time>2026-04-04T09:28:00.899Z</time></trkpt><trkpt lat="44.1128522" lon="11.5437873"><ele>436.0</ele><time>2026-04-04T09:28:01.898Z</time></trkpt><trkpt lat="44.1127612" lon="11.5436114"><ele>436.6666666666667</ele><time>2026-04-04T09:28:02.898Z</time></trkpt><trkpt lat="44.1126715" lon="11.5434404"><ele>437.33333333333337</ele><time>2026-04-04T09:28:03.899Z</time></trkpt><trkpt lat="44.1125784" lon="11.5432664"><ele>438.0</ele><time>2026-04-04T09:28:04.898Z</time></trkpt><trkpt lat="44.1124809" lon="11.5430835"><ele>439.33333333333337</ele><time>2026-04-04T09:28:05.899Z</time></trkpt><trkpt lat="44.1123767" lon="11.5428916"><ele>440.6666666666667</ele><time>2026-04-04T09:28:06.898Z</time></trkpt><trkpt lat="44.1122679" lon="11.542689"><ele>442.0</ele><time>2026-04-04T09:28:07.897Z</time></trkpt><trkpt lat="44.112153" lon="11.5424776"><ele>442.0</ele><time>2026-04-04T09:28:08.899Z</time></trkpt><trkpt lat="44.1120307" lon="11.5422513"><ele>442.0</ele><time>2026-04-04T09:28:09.898Z</time></trkpt><trkpt lat="44.1119035" lon="11.5420125"><ele>442.0</ele><time>2026-04-04T09:28:10.899Z</time></trkpt><trkpt lat="44.1117716" lon="11.541763"><ele>441.5</ele><time>2026-04-04T09:28:11.898Z</time></trkpt><trkpt lat="44.1116304" lon="11.5415073"><ele>441.0</ele><time>2026-04-04T09:28:12.898Z</time></trkpt><trkpt lat="44.1114882" lon="11.5412335"><ele>441.0</ele><time>2026-04-04T09:28:13.898Z</time></trkpt><trkpt lat="44.1113433" lon="11.5409483"><ele>441.0</ele><time>2026-04-04T09:28:14.898Z</time></trkpt><trkpt lat="44.1111925" lon="11.540653"><ele>440.0</ele><time>2026-04-04T09:28:15.899Z</time></trkpt><trkpt lat="44.1110339" lon="11.5403505"><ele>439.0</ele><time>2026-04-04T09:28:16.899Z</time></trkpt><trkpt lat="44.1108686" lon="11.5400448"><ele>440.0</ele><time>2026-04-04T09:28:17.898Z</time></trkpt><trkpt lat="44.1107026" lon="11.5397404"><ele>441.0</ele><time>2026-04-04T09:28:18.899Z</time></trkpt><trkpt lat="44.1105325" lon="11.5394346"><ele>441.0</ele><time>2026-04-04T09:28:19.898Z</time></trkpt><trkpt lat="44.1103618" lon="11.5391333"><ele>441.0</ele><time>2026-04-04T09:28:20.898Z</time></trkpt><trkpt lat="44.1101991" lon="11.5388391"><ele>442.5</ele><time>2026-04-04T09:28:21.899Z</time></trkpt><trkpt lat="44.1100412" lon="11.5385583"><ele>444.0</ele><time>2026-04-04T09:28:22.899Z</time></trkpt><trkpt lat="44.1098951" lon="11.5382961"><ele>444.33333333333337</ele><time>2026-04-04T09:28:23.897Z</time></trkpt><trkpt lat="44.1097561" lon="11.5380491"><ele>444.6666666666667</ele><time>2026-04-04T09:28:24.899Z</time></trkpt><trkpt lat="44.109627" lon="11.5378054"><ele>445.0</ele><time>2026-04-04T09:28:25.898Z</time></trkpt><trkpt lat="44.1095072" lon="11.5375599"><ele>445.0</ele><time>2026-04-04T09:28:26.898Z</time></trkpt><trkpt lat="44.1093996" lon="11.5372973"><ele>445.0</ele><time>2026-04-04T09:28:27.899Z</time></trkpt><trkpt lat="44.1092961" lon="11.5370223"><ele>445.0</ele><time>2026-04-04T09:28:28.898Z</time></trkpt><trkpt lat="44.1091863" lon="11.5367436"><ele>446.0</ele><time>2026-04-04T09:28:29.898Z</time></trkpt><trkpt lat="44.1090675" lon="11.5364643"><ele>447.0</ele><time>2026-04-04T09:28:30.898Z</time></trkpt><trkpt lat="44.1089303" lon="11.5361939"><ele>447.0</ele><time>2026-04-04T09:28:31.899Z</time></trkpt><trkpt lat="44.1087715" lon="11.5359324"><ele>447.0</ele><time>2026-04-04T09:28:32.899Z</time></trkpt><trkpt lat="44.1086098" lon="11.5356622"><ele>447.0</ele><time>2026-04-04T09:28:33.899Z</time></trkpt><trkpt lat="44.1084499" lon="11.5353989"><ele>447.0</ele><time>2026-04-04T09:28:34.898Z</time></trkpt><trkpt lat="44.1082971" lon="11.5351516"><ele>448.33333333333337</ele><time>2026-04-04T09:28:35.899Z</time></trkpt><trkpt lat="44.1081507" lon="11.5349143"><ele>449.6666666666667</ele><time>2026-04-04T09:28:36.899Z</time></trkpt><trkpt lat="44.1080145" lon="11.5346908"><ele>451.0</ele><time>2026-04-04T09:28:37.898Z</time></trkpt><trkpt lat="44.1078864" lon="11.5344768"><ele>451.0</ele><time>2026-04-04T09:28:38.898Z</time></trkpt><trkpt lat="44.1077625" lon="11.5342731"><ele>451.0</ele><time>2026-04-04T09:28:39.899Z</time></trkpt><trkpt lat="44.1076421" lon="11.5340751"><ele>451.0</ele><time>2026-04-04T09:28:40.899Z</time></trkpt><trkpt lat="44.107512" lon="11.5338827"><ele>453.33333333333337</ele><time>2026-04-04T09:28:41.898Z</time></trkpt><trkpt lat="44.1073671" lon="11.5337026"><ele>455.66666666666663</ele><time>2026-04-04T09:28:42.898Z</time></trkpt><trkpt lat="44.1072185" lon="11.5335453"><ele>458.0</ele><time>2026-04-04T09:28:43.899Z</time></trkpt><trkpt lat="44.1070732" lon="11.5333956"><ele>458.0</ele><time>2026-04-04T09:28:44.898Z</time></trkpt><trkpt lat="44.1069308" lon="11.5332424"><ele>458.0</ele><time>2026-04-04T09:28:45.899Z</time></trkpt><trkpt lat="44.1067875" lon="11.5330902"><ele>458.0</ele><time>2026-04-04T09:28:46.898Z</time></trkpt><trkpt lat="44.1066531" lon="11.5329352"><ele>457.0</ele><time>2026-04-04T09:28:47.898Z</time></trkpt><trkpt lat="44.1065285" lon="11.5327685"><ele>456.0</ele><time>2026-04-04T09:28:48.899Z</time></trkpt><trkpt lat="44.1064112" lon="11.5325875"><ele>455.0</ele><time>2026-04-04T09:28:49.899Z</time></trkpt><trkpt lat="44.1063019" lon="11.5323957"><ele>455.0</ele><time>2026-04-04T09:28:50.898Z</time></trkpt><trkpt lat="44.1061991" lon="11.5322061"><ele>455.0</ele><time>2026-04-04T09:28:51.899Z</time></trkpt><trkpt lat="44.1061058" lon="11.5320282"><ele>455.0</ele><time>2026-04-04T09:28:52.898Z</time></trkpt><trkpt lat="44.1060053" lon="11.5318629"><ele>454.66666666666663</ele><time>2026-04-04T09:28:53.899Z</time></trkpt><trkpt lat="44.1058762" lon="11.5317168"><ele>454.33333333333337</ele><time>2026-04-04T09:28:54.899Z</time></trkpt><trkpt lat="44.1057315" lon="11.5315957"><ele>454.0</ele><time>2026-04-04T09:28:55.897Z</time></trkpt><trkpt lat="44.1055832" lon="11.53148"><ele>454.0</ele><time>2026-04-04T09:28:56.899Z</time></trkpt><trkpt lat="44.1054426" lon="11.5313757"><ele>454.0</ele><time>2026-04-04T09:28:57.898Z</time></trkpt><trkpt lat="44.1052929" lon="11.5313091"><ele>454.0</ele><time>2026-04-04T09:28:58.899Z</time></trkpt><trkpt lat="44.1051409" lon="11.5312758"><ele>454.0</ele><time>2026-04-04T09:28:59.899Z</time></trkpt><trkpt lat="44.1050035" lon="11.5312524"><ele>454.0</ele><time>2026-04-04T09:29:00.899Z</time></trkpt><trkpt lat="44.1048826" lon="11.5311996"><ele>454.0</ele><time>2026-04-04T09:29:01.899Z</time></trkpt><trkpt lat="44.1048052" lon="11.5311228"><ele>454.0</ele><time>2026-04-04T09:29:02.899Z</time></trkpt><trkpt lat="44.1047475" lon="11.5310412"><ele>454.0</ele><time>2026-04-04T09:29:03.899Z</time></trkpt><trkpt lat="44.1046941" lon="11.5309584"><ele>462.0</ele><time>2026-04-04T09:29:04.899Z</time></trkpt><trkpt lat="44.1046292" lon="11.5308531"><ele>470.0</ele><time>2026-04-04T09:29:05.897Z</time></trkpt><trkpt lat="44.1045554" lon="11.5307356"><ele>478.0</ele><time>2026-04-04T09:29:06.899Z</time></trkpt><trkpt lat="44.104473" lon="11.5305941"><ele>486.0</ele><time>2026-04-04T09:29:07.899Z</time></trkpt><trkpt lat="44.1043738" lon="11.5304369"><ele>481.0</ele><time>2026-04-04T09:29:08.897Z</time></trkpt><trkpt lat="44.1042645" lon="11.5302615"><ele>476.0</ele><time>2026-04-04T09:29:09.899Z</time></trkpt><trkpt lat="44.1041446" lon="11.5300671"><ele>471.0</ele><time>2026-04-04T09:29:10.898Z</time></trkpt><trkpt lat="44.1040231" lon="11.5298834"><ele>473.33333333333337</ele><time>2026-04-04T09:29:11.899Z</time></trkpt><trkpt lat="44.1038851" lon="11.5297128"><ele>475.6666666666667</ele><time>2026-04-04T09:29:12.898Z</time></trkpt><trkpt lat="44.1037263" lon="11.5295547"><ele>478.0</ele><time>2026-04-04T09:29:13.899Z</time></trkpt><trkpt lat="44.1035603" lon="11.5293958"><ele>478.0</ele><time>2026-04-04T09:29:14.898Z</time></trkpt><trkpt lat="44.1033988" lon="11.5292343"><ele>478.0</ele><time>2026-04-04T09:29:15.899Z</time></trkpt><trkpt lat="44.1032421" lon="11.5290842"><ele>478.0</ele><time>2026-04-04T09:29:16.899Z</time></trkpt><trkpt lat="44.1030876" lon="11.5289585"><ele>479.0</ele><time>2026-04-04T09:29:17.899Z</time></trkpt><trkpt lat="44.1029207" lon="11.5288775"><ele>480.0</ele><time>2026-04-04T09:29:18.899Z</time></trkpt><trkpt lat="44.1027464" lon="11.5287876"><ele>481.0</ele><time>2026-04-04T09:29:19.898Z</time></trkpt><trkpt lat="44.1025756" lon="11.5286591"><ele>491.0</ele><time>2026-04-04T09:29:20.899Z</time></trkpt><trkpt lat="44.1024052" lon="11.528505"><ele>501.0</ele><time>2026-04-04T09:29:21.899Z</time></trkpt><trkpt lat="44.1022282" lon="11.5283422"><ele>511.0</ele><time>2026-04-04T09:29:22.897Z</time></trkpt><trkpt lat="44.1020465" lon="11.5281692"><ele>511.0</ele><time>2026-04-04T09:29:23.898Z</time></trkpt><trkpt lat="44.1018512" lon="11.5280011"><ele>511.0</ele><time>2026-04-04T09:29:24.897Z</time></trkpt><trkpt lat="44.1016434" lon="11.5278503"><ele>514.5</ele><time>2026-04-04T09:29:25.899Z</time></trkpt><trkpt lat="44.1014254" lon="11.5276894"><ele>518.0</ele><time>2026-04-04T09:29:26.899Z</time></trkpt><trkpt lat="44.1012201" lon="11.5275181"><ele>518.0</ele><time>2026-04-04T09:29:27.899Z</time></trkpt><trkpt lat="44.1010274" lon="11.5273475"><ele>518.0</ele><time>2026-04-04T09:29:28.899Z</time></trkpt><trkpt lat="44.1008526" lon="11.5271861"><ele>518.0</ele><time>2026-04-04T09:29:29.898Z</time></trkpt><trkpt lat="44.1006903" lon="11.5270341"><ele>519.0</ele><time>2026-04-04T09:29:30.898Z</time></trkpt><trkpt lat="44.1005434" lon="11.5268922"><ele>520.0</ele><time>2026-04-04T09:29:31.898Z</time></trkpt><trkpt lat="44.100414" lon="11.5267651"><ele>521.0</ele><time>2026-04-04T09:29:32.899Z</time></trkpt><trkpt lat="44.1002951" lon="11.5266579"><ele>521.0</ele><time>2026-04-04T09:29:33.899Z</time></trkpt><trkpt lat="44.1001772" lon="11.5265823"><ele>521.0</ele><time>2026-04-04T09:29:34.899Z</time></trkpt><trkpt lat="44.1000567" lon="11.5265518"><ele>521.0</ele><time>2026-04-04T09:29:35.897Z</time></trkpt><trkpt lat="44.0999412" lon="11.5265392"><ele>521.0</ele><time>2026-04-04T09:29:36.898Z</time></trkpt><trkpt lat="44.0998265" lon="11.5264829"><ele>522.25</ele><time>2026-04-04T09:29:37.898Z</time></trkpt><trkpt lat="44.0997294" lon="11.5263843"><ele>523.5</ele><time>2026-04-04T09:29:38.898Z</time></trkpt><trkpt lat="44.0996568" lon="11.5262316"><ele>524.75</ele><time>2026-04-04T09:29:39.899Z</time></trkpt><trkpt lat="44.0995816" lon="11.5260746"><ele>526.0</ele><time>2026-04-04T09:29:40.899Z</time></trkpt><trkpt lat="44.099464" lon="11.5259461"><ele>526.0</ele><time>2026-04-04T09:29:41.898Z</time></trkpt><trkpt lat="44.0993388" lon="11.525836"><ele>526.0</ele><time>2026-04-04T09:29:42.899Z</time></trkpt><trkpt lat="44.0992219" lon="11.5257281"><ele>526.0</ele><time>2026-04-04T09:29:43.899Z</time></trkpt><trkpt lat="44.0991188" lon="11.5256479"><ele>526.0</ele><time>2026-04-04T09:29:44.899Z</time></trkpt><trkpt lat="44.0990097" lon="11.5256185"><ele>530.75</ele><time>2026-04-04T09:29:45.899Z</time></trkpt><trkpt lat="44.0988853" lon="11.5256374"><ele>535.5</ele><time>2026-04-04T09:29:46.898Z</time></trkpt><trkpt lat="44.09876" lon="11.5256679"><ele>540.25</ele><time>2026-04-04T09:29:47.898Z</time></trkpt><trkpt lat="44.0986234" lon="11.5256588"><ele>545.0</ele><time>2026-04-04T09:29:48.899Z</time></trkpt><trkpt lat="44.0985015" lon="11.5256395"><ele>545.0</ele><time>2026-04-04T09:29:49.898Z</time></trkpt><trkpt lat="44.0983989" lon="11.5255936"><ele>545.0</ele><time>2026-04-04T09:29:50.898Z</time></trkpt><trkpt lat="44.0983118" lon="11.52551"><ele>545.0</ele><time>2026-04-04T09:29:51.898Z</time></trkpt><trkpt lat="44.0982501" lon="11.5253952"><ele>545.0</ele><time>2026-04-04T09:29:52.899Z</time></trkpt><trkpt lat="44.0982277" lon="11.5252586"><ele>545.0</ele><time>2026-04-04T09:29:53.898Z</time></trkpt><trkpt lat="44.0982463" lon="11.5251267"><ele>542.8</ele><time>2026-04-04T09:29:54.898Z</time></trkpt><trkpt lat="44.0982993" lon="11.5250101"><ele>540.6</ele><time>2026-04-04T09:29:55.897Z</time></trkpt><trkpt lat="44.098339" lon="11.5248789"><ele>538.4</ele><time>2026-04-04T09:29:56.898Z</time></trkpt><trkpt lat="44.0983362" lon="11.5247452"><ele>536.2</ele><time>2026-04-04T09:29:57.898Z</time></trkpt><trkpt lat="44.0982898" lon="11.5246244"><ele>534.0</ele><time>2026-04-04T09:29:58.899Z</time></trkpt><trkpt lat="44.0982072" lon="11.524537"><ele>541.75</ele><time>2026-04-04T09:29:59.899Z</time></trkpt><trkpt lat="44.0980942" lon="11.5244691"><ele>549.5</ele><time>2026-04-04T09:30:00.899Z</time></trkpt><trkpt lat="44.0979797" lon="11.5243857"><ele>557.25</ele><time>2026-04-04T09:30:01.899Z</time></trkpt><trkpt lat="44.0978828" lon="11.5242635"><ele>565.0</ele><time>2026-04-04T09:30:02.898Z</time></trkpt><trkpt lat="44.0978132" lon="11.5241278"><ele>565.0</ele><time>2026-04-04T09:30:03.898Z</time></trkpt><trkpt lat="44.0977392" lon="11.5240282"><ele>565.0</ele><time>2026-04-04T09:30:04.899Z</time></trkpt><trkpt lat="44.0976415" lon="11.5239748"><ele>565.0</ele><time>2026-04-04T09:30:05.898Z</time></trkpt><trkpt lat="44.0975362" lon="11.5239462"><ele>565.0</ele><time>2026-04-04T09:30:06.898Z</time></trkpt><trkpt lat="44.0974435" lon="11.5238734"><ele>565.0</ele><time>2026-04-04T09:30:07.898Z</time></trkpt><trkpt lat="44.0973794" lon="11.5237673"><ele>567.4</ele><time>2026-04-04T09:30:08.899Z</time></trkpt><trkpt lat="44.0973463" lon="11.5236266"><ele>569.8</ele><time>2026-04-04T09:30:09.898Z</time></trkpt><trkpt lat="44.0973378" lon="11.5234659"><ele>572.2</ele><time>2026-04-04T09:30:10.897Z</time></trkpt><trkpt lat="44.0973164" lon="11.5233342"><ele>574.6</ele><time>2026-04-04T09:30:11.897Z</time></trkpt><trkpt lat="44.0972573" lon="11.5232305"><ele>577.0</ele><time>2026-04-04T09:30:12.898Z</time></trkpt><trkpt lat="44.0971692" lon="11.5231553"><ele>577.0</ele><time>2026-04-04T09:30:13.898Z</time></trkpt><trkpt lat="44.097059" lon="11.5231167"><ele>577.0</ele><time>2026-04-04T09:30:14.898Z</time></trkpt><trkpt lat="44.0969479" lon="11.5230744"><ele>577.0</ele><time>2026-04-04T09:30:15.898Z</time></trkpt><trkpt lat="44.0968511" lon="11.5229842"><ele>577.0</ele><time>2026-04-04T09:30:16.898Z</time></trkpt><trkpt lat="44.0967725" lon="11.5228537"><ele>573.75</ele><time>2026-04-04T09:30:17.898Z</time></trkpt><trkpt lat="44.0967144" lon="11.5226885"><ele>570.5</ele><time>2026-04-04T09:30:18.898Z</time></trkpt><trkpt lat="44.0966881" lon="11.5225044"><ele>567.25</ele><time>2026-04-04T09:30:19.898Z</time></trkpt><trkpt lat="44.0966759" lon="11.5223362"><ele>564.0</ele><time>2026-04-04T09:30:20.898Z</time></trkpt><trkpt lat="44.0966316" lon="11.5222043"><ele>570.5</ele><time>2026-04-04T09:30:21.898Z</time></trkpt><trkpt lat="44.0965515" lon="11.5221085"><ele>577.0</ele><time>2026-04-04T09:30:22.899Z</time></trkpt><trkpt lat="44.0964439" lon="11.5220534"><ele>583.5</ele><time>2026-04-04T09:30:23.899Z</time></trkpt><trkpt lat="44.0963154" lon="11.5220196"><ele>590.0</ele><time>2026-04-04T09:30:24.899Z</time></trkpt><trkpt lat="44.0961916" lon="11.5219755"><ele>590.0</ele><time>2026-04-04T09:30:25.899Z</time></trkpt><trkpt lat="44.0960829" lon="11.5218867"><ele>590.0</ele><time>2026-04-04T09:30:26.899Z</time></trkpt><trkpt lat="44.0959996" lon="11.5217566"><ele>590.0</ele><time>2026-04-04T09:30:27.898Z</time></trkpt><trkpt lat="44.095948" lon="11.5215968"><ele>590.0</ele><time>2026-04-04T09:30:28.899Z</time></trkpt><trkpt lat="44.0959392" lon="11.5214174"><ele>592.3333333333333</ele><time>2026-04-04T09:30:29.899Z</time></trkpt><trkpt lat="44.0959734" lon="11.5212295"><ele>594.6666666666666</ele><time>2026-04-04T09:30:30.898Z</time></trkpt><trkpt lat="44.0960428" lon="11.5210353"><ele>597.0</ele><time>2026-04-04T09:30:31.899Z</time></trkpt><trkpt lat="44.0961256" lon="11.5208183"><ele>597.0</ele><time>2026-04-04T09:30:32.899Z</time></trkpt><trkpt lat="44.0961997" lon="11.520577"><ele>597.0</ele><time>2026-04-04T09:30:33.898Z</time></trkpt><trkpt lat="44.0962645" lon="11.5203649"><ele>597.0</ele><time>2026-04-04T09:30:34.897Z</time></trkpt><trkpt lat="44.0963097" lon="11.5201951"><ele>597.0</ele><time>2026-04-04T09:30:35.898Z</time></trkpt><trkpt lat="44.0963245" lon="11.5200512"><ele>597.0</ele><time>2026-04-04T09:30:36.899Z</time></trkpt><trkpt lat="44.0962983" lon="11.5199312"><ele>597.0</ele><time>2026-04-04T09:30:37.899Z</time></trkpt><trkpt lat="44.0962364" lon="11.5198349"><ele>597.0</ele><time>2026-04-04T09:30:38.898Z</time></trkpt><trkpt lat="44.0961431" lon="11.5197493"><ele>597.0</ele><time>2026-04-04T09:30:39.899Z</time></trkpt><trkpt lat="44.0960401" lon="11.5196522"><ele>592.0</ele><time>2026-04-04T09:30:40.899Z</time></trkpt><trkpt lat="44.0959356" lon="11.5195275"><ele>587.0</ele><time>2026-04-04T09:30:41.898Z</time></trkpt><trkpt lat="44.0958454" lon="11.5193786"><ele>582.0</ele><time>2026-04-04T09:30:42.898Z</time></trkpt><trkpt lat="44.0957722" lon="11.5192157"><ele>577.0</ele><time>2026-04-04T09:30:43.898Z</time></trkpt><trkpt lat="44.0957045" lon="11.5190568"><ele>581.75</ele><time>2026-04-04T09:30:44.897Z</time></trkpt><trkpt lat="44.0956237" lon="11.5189215"><ele>586.5</ele><time>2026-04-04T09:30:45.899Z</time></trkpt><trkpt lat="44.0955142" lon="11.5188179"><ele>591.25</ele><time>2026-04-04T09:30:46.899Z</time></trkpt><trkpt lat="44.0953909" lon="11.5187493"><ele>596.0</ele><time>2026-04-04T09:30:47.899Z</time></trkpt><trkpt lat="44.095266" lon="11.5186957"><ele>596.0</ele><time>2026-04-04T09:30:48.899Z</time></trkpt><trkpt lat="44.0951552" lon="11.5186119"><ele>596.0</ele><time>2026-04-04T09:30:49.897Z</time></trkpt><trkpt lat="44.0950718" lon="11.5184854"><ele>596.0</ele><time>2026-04-04T09:30:50.898Z</time></trkpt><trkpt lat="44.0950129" lon="11.5183256"><ele>596.0</ele><time>2026-04-04T09:30:51.898Z</time></trkpt><trkpt lat="44.0949575" lon="11.5181633"><ele>596.75</ele><time>2026-04-04T09:30:52.898Z</time></trkpt><trkpt lat="44.0948935" lon="11.5180357"><ele>597.5</ele><time>2026-04-04T09:30:53.897Z</time></trkpt><trkpt lat="44.0947988" lon="11.5179483"><ele>598.25</ele><time>2026-04-04T09:30:54.898Z</time></trkpt><trkpt lat="44.0946773" lon="11.5178941"><ele>599.0</ele><time>2026-04-04T09:30:55.897Z</time></trkpt><trkpt lat="44.0945414" lon="11.5178577"><ele>599.0</ele><time>2026-04-04T09:30:56.898Z</time></trkpt><trkpt lat="44.0944045" lon="11.5178127"><ele>599.0</ele><time>2026-04-04T09:30:57.899Z</time></trkpt><trkpt lat="44.0942709" lon="11.5177376"><ele>599.0</ele><time>2026-04-04T09:30:58.899Z</time></trkpt><trkpt lat="44.0941421" lon="11.5176288"><ele>599.0</ele><time>2026-04-04T09:30:59.898Z</time></trkpt><trkpt lat="44.0940223" lon="11.5174988"><ele>601.25</ele><time>2026-04-04T09:31:00.898Z</time></trkpt><trkpt lat="44.0939085" lon="11.517373"><ele>603.5</ele><time>2026-04-04T09:31:01.899Z</time></trkpt><trkpt lat="44.0937992" lon="11.5172832"><ele>605.75</ele><time>2026-04-04T09:31:02.898Z</time></trkpt><trkpt lat="44.0936812" lon="11.5172431"><ele>608.0</ele><time>2026-04-04T09:31:03.898Z</time></trkpt><trkpt lat="44.0935522" lon="11.5172551"><ele>608.0</ele><time>2026-04-04T09:31:04.898Z</time></trkpt><trkpt lat="44.0934117" lon="11.5173114"><ele>608.0</ele><time>2026-04-04T09:31:05.899Z</time></trkpt><trkpt lat="44.0932618" lon="11.5173722"><ele>608.0</ele><time>2026-04-04T09:31:06.898Z</time></trkpt><trkpt lat="44.0931016" lon="11.5174208"><ele>610.0</ele><time>2026-04-04T09:31:07.898Z</time></trkpt><trkpt lat="44.0929402" lon="11.5174772"><ele>612.0</ele><time>2026-04-04T09:31:08.898Z</time></trkpt><trkpt lat="44.0928042" lon="11.5175312"><ele>614.0</ele><time>2026-04-04T09:31:09.897Z</time></trkpt><trkpt lat="44.0927118" lon="11.5175752"><ele>616.0</ele><time>2026-04-04T09:31:10.898Z</time></trkpt><trkpt lat="44.0926443" lon="11.5176396"><ele>616.0</ele><time>2026-04-04T09:31:11.899Z</time></trkpt><trkpt lat="44.0926132" lon="11.5177437"><ele>616.0</ele><time>2026-04-04T09:31:12.899Z</time></trkpt><trkpt lat="44.0926277" lon="11.5178542"><ele>616.0</ele><time>2026-04-04T09:31:13.898Z</time></trkpt><trkpt lat="44.092681" lon="11.5179473"><ele>616.0</ele><time>2026-04-04T09:31:14.899Z</time></trkpt><trkpt lat="44.0927664" lon="11.5179923"><ele>616.0</ele><time>2026-04-04T09:31:15.898Z</time></trkpt><trkpt lat="44.0928754" lon="11.5180009"><ele>616.0</ele><time>2026-04-04T09:31:16.899Z</time></trkpt><trkpt lat="44.0929987" lon="11.5180285"><ele>618.25</ele><time>2026-04-04T09:31:17.897Z</time></trkpt><trkpt lat="44.0931252" lon="11.5181003"><ele>620.5</ele><time>2026-04-04T09:31:18.898Z</time></trkpt><trkpt lat="44.0932575" lon="11.5181877"><ele>622.75</ele><time>2026-04-04T09:31:19.898Z</time></trkpt><trkpt lat="44.0933886" lon="11.5182555"><ele>625.0</ele><time>2026-04-04T09:31:20.899Z</time></trkpt><trkpt lat="44.0935155" lon="11.5182865"><ele>625.0</ele><time>2026-04-04T09:31:21.899Z</time></trkpt><trkpt lat="44.0936291" lon="11.5182685"><ele>625.0</ele><time>2026-04-04T09:31:22.898Z</time></trkpt><trkpt lat="44.093734" lon="11.5181993"><ele>625.0</ele><time>2026-04-04T09:31:23.899Z</time></trkpt><trkpt lat="44.0938261" lon="11.5181411"><ele>625.0</ele><time>2026-04-04T09:31:24.899Z</time></trkpt><trkpt lat="44.0939186" lon="11.518136"><ele>625.0</ele><time>2026-04-04T09:31:25.898Z</time></trkpt><trkpt lat="44.0939904" lon="11.5181874"><ele>625.0</ele><time>2026-04-04T09:31:26.897Z</time></trkpt><trkpt lat="44.0940285" lon="11.5182872"><ele>625.0</ele><time>2026-04-04T09:31:27.898Z</time></trkpt><trkpt lat="44.0940174" lon="11.5183978"><ele>625.0</ele><time>2026-04-04T09:31:28.899Z</time></trkpt><trkpt lat="44.0939624" lon="11.5184885"><ele>625.0</ele><time>2026-04-04T09:31:29.899Z</time></trkpt><trkpt lat="44.0938717" lon="11.5185442"><ele>625.0</ele><time>2026-04-04T09:31:30.899Z</time></trkpt><trkpt lat="44.0937559" lon="11.5185646"><ele>625.0</ele><time>2026-04-04T09:31:31.898Z</time></trkpt><trkpt lat="44.0936289" lon="11.5185565"><ele>625.0</ele><time>2026-04-04T09:31:32.898Z</time></trkpt><trkpt lat="44.0935159" lon="11.5185441"><ele>625.0</ele><time>2026-04-04T09:31:33.897Z</time></trkpt><trkpt lat="44.0934188" lon="11.5185574"><ele>625.0</ele><time>2026-04-04T09:31:34.898Z</time></trkpt><trkpt lat="44.0933246" lon="11.5185737"><ele>625.0</ele><time>2026-04-04T09:31:35.898Z</time></trkpt><trkpt lat="44.0932909" lon="11.5186603"><ele>629.2</ele><time>2026-04-04T09:31:36.898Z</time></trkpt><trkpt lat="44.09334" lon="11.51884"><ele>633.4</ele><time>2026-04-04T09:31:37.899Z</time></trkpt><trkpt lat="44.0933947" lon="11.5189308"><ele>637.5999999999999</ele><time>2026-04-04T09:31:38.898Z</time></trkpt><trkpt lat="44.0934717" lon="11.5189677"><ele>641.8</ele><time>2026-04-04T09:31:39.898Z</time></trkpt><trkpt lat="44.0935789" lon="11.5189509"><ele>646.0</ele><time>2026-04-04T09:31:40.898Z</time></trkpt><trkpt lat="44.0937011" lon="11.5189085"><ele>646.0</ele><time>2026-04-04T09:31:41.898Z</time></trkpt><trkpt lat="44.0938404" lon="11.5188644"><ele>646.0</ele><time>2026-04-04T09:31:42.898Z</time></trkpt><trkpt lat="44.0939927" lon="11.51882"><ele>646.0</ele><time>2026-04-04T09:31:43.897Z</time></trkpt><trkpt lat="44.0941214" lon="11.5187822"><ele>646.0</ele><time>2026-04-04T09:31:44.898Z</time></trkpt><trkpt lat="44.0942331" lon="11.5187617"><ele>644.8333333333334</ele><time>2026-04-04T09:31:45.898Z</time></trkpt><trkpt lat="44.0943256" lon="11.5187925"><ele>643.6666666666667</ele><time>2026-04-04T09:31:46.899Z</time></trkpt><trkpt lat="44.0943845" lon="11.5188687"><ele>642.5</ele><time>2026-04-04T09:31:47.899Z</time></trkpt><trkpt lat="44.0944075" lon="11.5189662"><ele>641.3333333333334</ele><time>2026-04-04T09:31:48.898Z</time></trkpt><trkpt lat="44.0943853" lon="11.5190742"><ele>640.1666666666666</ele><time>2026-04-04T09:31:49.898Z</time></trkpt><trkpt lat="44.0943238" lon="11.5191516"><ele>639.0</ele><time>2026-04-04T09:31:50.898Z</time></trkpt><trkpt lat="44.0942294" lon="11.5191939"><ele>639.0</ele><time>2026-04-04T09:31:51.898Z</time></trkpt><trkpt lat="44.0941112" lon="11.5192283"><ele>639.0</ele><time>2026-04-04T09:31:52.898Z</time></trkpt><trkpt lat="44.0939757" lon="11.5192724"><ele>639.0</ele><time>2026-04-04T09:31:53.898Z</time></trkpt><trkpt lat="44.0938225" lon="11.5193258"><ele>639.0</ele><time>2026-04-04T09:31:54.898Z</time></trkpt><trkpt lat="44.0936741" lon="11.519374"><ele>641.3333333333334</ele><time>2026-04-04T09:31:55.898Z</time></trkpt><trkpt lat="44.0935272" lon="11.5193826"><ele>643.6666666666667</ele><time>2026-04-04T09:31:56.898Z</time></trkpt><trkpt lat="44.0933769" lon="11.5193453"><ele>646.0</ele><time>2026-04-04T09:31:57.897Z</time></trkpt><trkpt lat="44.0932276" lon="11.5192713"><ele>648.75</ele><time>2026-04-04T09:31:58.899Z</time></trkpt><trkpt lat="44.0930871" lon="11.5191613"><ele>651.5</ele><time>2026-04-04T09:31:59.898Z</time></trkpt><trkpt lat="44.0929767" lon="11.5190434"><ele>654.25</ele><time>2026-04-04T09:32:00.897Z</time></trkpt><trkpt lat="44.0928845" lon="11.5189446"><ele>657.0</ele><time>2026-04-04T09:32:01.897Z</time></trkpt><trkpt lat="44.0927842" lon="11.5189038"><ele>657.0</ele><time>2026-04-04T09:32:02.896Z</time></trkpt><trkpt lat="44.0926754" lon="11.518909"><ele>657.0</ele><time>2026-04-04T09:32:03.897Z</time></trkpt><trkpt lat="44.0925533" lon="11.5189472"><ele>657.0</ele><time>2026-04-04T09:32:04.896Z</time></trkpt><trkpt lat="44.0924137" lon="11.5189861"><ele>657.0</ele><time>2026-04-04T09:32:05.896Z</time></trkpt><trkpt lat="44.0922552" lon="11.5190282"><ele>659.75</ele><time>2026-04-04T09:32:06.898Z</time></trkpt><trkpt lat="44.0920937" lon="11.5190702"><ele>662.5</ele><time>2026-04-04T09:32:07.897Z</time></trkpt><trkpt lat="44.0919531" lon="11.5191063"><ele>665.25</ele><time>2026-04-04T09:32:08.898Z</time></trkpt><trkpt lat="44.0918266" lon="11.5191321"><ele>668.0</ele><time>2026-04-04T09:32:09.898Z</time></trkpt><trkpt lat="44.0917037" lon="11.5191231"><ele>670.25</ele><time>2026-04-04T09:32:10.898Z</time></trkpt><trkpt lat="44.0915861" lon="11.5190611"><ele>672.5</ele><time>2026-04-04T09:32:11.897Z</time></trkpt><trkpt lat="44.0914784" lon="11.5189433"><ele>674.75</ele><time>2026-04-04T09:32:12.898Z</time></trkpt><trkpt lat="44.0913866" lon="11.5187908"><ele>677.0</ele><time>2026-04-04T09:32:13.898Z</time></trkpt><trkpt lat="44.0912954" lon="11.5186348"><ele>677.0</ele><time>2026-04-04T09:32:14.898Z</time></trkpt><trkpt lat="44.0911917" lon="11.5184926"><ele>677.0</ele><time>2026-04-04T09:32:15.897Z</time></trkpt><trkpt lat="44.0910562" lon="11.5183753"><ele>677.0</ele><time>2026-04-04T09:32:16.897Z</time></trkpt><trkpt lat="44.0908996" lon="11.5182809"><ele>689.6666666666666</ele><time>2026-04-04T09:32:17.898Z</time></trkpt><trkpt lat="44.0907435" lon="11.5181871"><ele>702.3333333333334</ele><time>2026-04-04T09:32:18.898Z</time></trkpt><trkpt lat="44.0905932" lon="11.5180937"><ele>715.0</ele><time>2026-04-04T09:32:19.896Z</time></trkpt><trkpt lat="44.0904536" lon="11.5179947"><ele>707.0</ele><time>2026-04-04T09:32:20.896Z</time></trkpt><trkpt lat="44.090325" lon="11.5178625"><ele>699.0</ele><time>2026-04-04T09:32:21.897Z</time></trkpt><trkpt lat="44.0902091" lon="11.5176917"><ele>691.0</ele><time>2026-04-04T09:32:22.897Z</time></trkpt><trkpt lat="44.0901001" lon="11.5174892"><ele>691.0</ele><time>2026-04-04T09:32:23.897Z</time></trkpt><trkpt lat="44.0900006" lon="11.517293"><ele>691.0</ele><time>2026-04-04T09:32:24.896Z</time></trkpt><trkpt lat="44.0899101" lon="11.5171199"><ele>691.0</ele><time>2026-04-04T09:32:25.897Z</time></trkpt><trkpt lat="44.0898128" lon="11.5169693"><ele>695.3333333333334</ele><time>2026-04-04T09:32:26.897Z</time></trkpt><trkpt lat="44.0896934" lon="11.5168422"><ele>699.6666666666666</ele><time>2026-04-04T09:32:27.898Z</time></trkpt><trkpt lat="44.0895678" lon="11.5167288"><ele>704.0</ele><time>2026-04-04T09:32:28.897Z</time></trkpt><trkpt lat="44.0894621" lon="11.5165802"><ele>704.0</ele><time>2026-04-04T09:32:29.897Z</time></trkpt><trkpt lat="44.0893691" lon="11.5164002"><ele>704.0</ele><time>2026-04-04T09:32:30.898Z</time></trkpt><trkpt lat="44.0892799" lon="11.5162239"><ele>704.0</ele><time>2026-04-04T09:32:31.898Z</time></trkpt><trkpt lat="44.0892088" lon="11.51605"><ele>703.0</ele><time>2026-04-04T09:32:32.898Z</time></trkpt><trkpt lat="44.0891782" lon="11.5158775"><ele>702.0</ele><time>2026-04-04T09:32:33.897Z</time></trkpt><trkpt lat="44.0891551" lon="11.5157236"><ele>701.0</ele><time>2026-04-04T09:32:34.896Z</time></trkpt><trkpt lat="44.0891024" lon="11.515597"><ele>700.0</ele><time>2026-04-04T09:32:35.898Z</time></trkpt><trkpt lat="44.089013" lon="11.5155117"><ele>700.0</ele><time>2026-04-04T09:32:36.898Z</time></trkpt><trkpt lat="44.088896" lon="11.5154799"><ele>700.0</ele><time>2026-04-04T09:32:37.897Z</time></trkpt><trkpt lat="44.0887563" lon="11.5154815"><ele>700.0</ele><time>2026-04-04T09:32:38.898Z</time></trkpt><trkpt lat="44.0886002" lon="11.5154833"><ele>700.0</ele><time>2026-04-04T09:32:39.897Z</time></trkpt><trkpt lat="44.088424" lon="11.5154809"><ele>702.6666666666667</ele><time>2026-04-04T09:32:40.898Z</time></trkpt><trkpt lat="44.0882335" lon="11.5154736"><ele>705.3333333333334</ele><time>2026-04-04T09:32:41.898Z</time></trkpt><trkpt lat="44.088051" lon="11.5154696"><ele>708.0</ele><time>2026-04-04T09:32:42.898Z</time></trkpt><trkpt lat="44.0878878" lon="11.5154747"><ele>708.0</ele><time>2026-04-04T09:32:43.898Z</time></trkpt><trkpt lat="44.0877297" lon="11.515532"><ele>708.0</ele><time>2026-04-04T09:32:44.898Z</time></trkpt><trkpt lat="44.0875761" lon="11.5156365"><ele>708.0</ele><time>2026-04-04T09:32:45.898Z</time></trkpt><trkpt lat="44.0874357" lon="11.5157693"><ele>708.25</ele><time>2026-04-04T09:32:46.897Z</time></trkpt><trkpt lat="44.087306" lon="11.5159008"><ele>708.5</ele><time>2026-04-04T09:32:47.897Z</time></trkpt><trkpt lat="44.0871852" lon="11.5160159"><ele>708.75</ele><time>2026-04-04T09:32:48.898Z</time></trkpt><trkpt lat="44.0870699" lon="11.5160866"><ele>709.0</ele><time>2026-04-04T09:32:49.897Z</time></trkpt><trkpt lat="44.0869603" lon="11.5161179"><ele>709.0</ele><time>2026-04-04T09:32:50.896Z</time></trkpt><trkpt lat="44.0868565" lon="11.5160931"><ele>709.0</ele><time>2026-04-04T09:32:51.898Z</time></trkpt><trkpt lat="44.0867474" lon="11.5160271"><ele>709.0</ele><time>2026-04-04T09:32:52.898Z</time></trkpt><trkpt lat="44.0866317" lon="11.5159614"><ele>709.0</ele><time>2026-04-04T09:32:53.897Z</time></trkpt><trkpt lat="44.086499" lon="11.5159526"><ele>713.5</ele><time>2026-04-04T09:32:54.897Z</time></trkpt><trkpt lat="44.0863543" lon="11.5160029"><ele>718.0</ele><time>2026-04-04T09:32:55.898Z</time></trkpt><trkpt lat="44.086212" lon="11.5160714"><ele>722.5</ele><time>2026-04-04T09:32:56.898Z</time></trkpt><trkpt lat="44.0860855" lon="11.5161131"><ele>727.0</ele><time>2026-04-04T09:32:57.898Z</time></trkpt><trkpt lat="44.0859685" lon="11.5161104"><ele>727.0</ele><time>2026-04-04T09:32:58.897Z</time></trkpt><trkpt lat="44.0858681" lon="11.5160604"><ele>727.0</ele><time>2026-04-04T09:32:59.898Z</time></trkpt><trkpt lat="44.0857966" lon="11.5159604"><ele>727.0</ele><time>2026-04-04T09:33:00.897Z</time></trkpt><trkpt lat="44.0857531" lon="11.5158318"><ele>727.0</ele><time>2026-04-04T09:33:01.897Z</time></trkpt><trkpt lat="44.0857544" lon="11.5156655"><ele>727.0</ele><time>2026-04-04T09:33:02.898Z</time></trkpt><trkpt lat="44.085745" lon="11.5155016"><ele>727.6</ele><time>2026-04-04T09:33:03.897Z</time></trkpt><trkpt lat="44.0857042" lon="11.5153708"><ele>728.2</ele><time>2026-04-04T09:33:04.897Z</time></trkpt><trkpt lat="44.0856343" lon="11.5152752"><ele>728.8</ele><time>2026-04-04T09:33:05.898Z</time></trkpt><trkpt lat="44.0855414" lon="11.5152263"><ele>729.4</ele><time>2026-04-04T09:33:06.897Z</time></trkpt><trkpt lat="44.0854295" lon="11.5152118"><ele>730.0</ele><time>2026-04-04T09:33:07.897Z</time></trkpt><trkpt lat="44.0852996" lon="11.5151962"><ele>730.0</ele><time>2026-04-04T09:33:08.897Z</time></trkpt><trkpt lat="44.0851541" lon="11.5151784"><ele>730.0</ele><time>2026-04-04T09:33:09.897Z</time></trkpt><trkpt lat="44.0849923" lon="11.5151651"><ele>730.0</ele><time>2026-04-04T09:33:10.898Z</time></trkpt><trkpt lat="44.0848245" lon="11.5151634"><ele>736.3333333333334</ele><time>2026-04-04T09:33:11.898Z</time></trkpt><trkpt lat="44.0846585" lon="11.5151742"><ele>742.6666666666666</ele><time>2026-04-04T09:33:12.898Z</time></trkpt><trkpt lat="44.0844939" lon="11.5151547"><ele>749.0</ele><time>2026-04-04T09:33:13.898Z</time></trkpt><trkpt lat="44.0843334" lon="11.5150831"><ele>749.0</ele><time>2026-04-04T09:33:14.898Z</time></trkpt><trkpt lat="44.0841855" lon="11.5149913"><ele>749.0</ele><time>2026-04-04T09:33:15.898Z</time></trkpt><trkpt lat="44.0840514" lon="11.5149104"><ele>749.0</ele><time>2026-04-04T09:33:16.897Z</time></trkpt><trkpt lat="44.0839446" lon="11.5148167"><ele>749.0</ele><time>2026-04-04T09:33:17.897Z</time></trkpt><trkpt lat="44.0838798" lon="11.5146907"><ele>746.0</ele><time>2026-04-04T09:33:18.898Z</time></trkpt><trkpt lat="44.0838435" lon="11.5145471"><ele>743.0</ele><time>2026-04-04T09:33:19.898Z</time></trkpt><trkpt lat="44.0837999" lon="11.514405"><ele>740.0</ele><time>2026-04-04T09:33:20.898Z</time></trkpt><trkpt lat="44.0837193" lon="11.514289"><ele>737.0</ele><time>2026-04-04T09:33:21.898Z</time></trkpt><trkpt lat="44.0836048" lon="11.514206"><ele>737.0</ele><time>2026-04-04T09:33:22.898Z</time></trkpt><trkpt lat="44.0834689" lon="11.5141534"><ele>737.0</ele><time>2026-04-04T09:33:23.898Z</time></trkpt><trkpt lat="44.0833273" lon="11.5140952"><ele>737.0</ele><time>2026-04-04T09:33:24.897Z</time></trkpt><trkpt lat="44.0831862" lon="11.5140449"><ele>737.0</ele><time>2026-04-04T09:33:25.898Z</time></trkpt><trkpt lat="44.0830447" lon="11.514012"><ele>736.0</ele><time>2026-04-04T09:33:26.898Z</time></trkpt><trkpt lat="44.0829169" lon="11.5139886"><ele>735.0</ele><time>2026-04-04T09:33:27.898Z</time></trkpt><trkpt lat="44.0828032" lon="11.5139456"><ele>734.0</ele><time>2026-04-04T09:33:28.898Z</time></trkpt><trkpt lat="44.0827035" lon="11.5138635"><ele>733.0</ele><time>2026-04-04T09:33:29.898Z</time></trkpt><trkpt lat="44.0826293" lon="11.5137434"><ele>735.75</ele><time>2026-04-04T09:33:30.898Z</time></trkpt><trkpt lat="44.0825744" lon="11.5135958"><ele>738.5</ele><time>2026-04-04T09:33:31.897Z</time></trkpt><trkpt lat="44.0825468" lon="11.5134303"><ele>741.25</ele><time>2026-04-04T09:33:32.898Z</time></trkpt><trkpt lat="44.0825593" lon="11.5132543"><ele>744.0</ele><time>2026-04-04T09:33:33.897Z</time></trkpt><trkpt lat="44.0825971" lon="11.5130786"><ele>744.0</ele><time>2026-04-04T09:33:34.896Z</time></trkpt><trkpt lat="44.0826177" lon="11.5128911"><ele>744.0</ele><time>2026-04-04T09:33:35.897Z</time></trkpt><trkpt lat="44.0825964" lon="11.5126993"><ele>744.0</ele><time>2026-04-04T09:33:36.898Z</time></trkpt><trkpt lat="44.0825384" lon="11.5125042"><ele>744.0</ele><time>2026-04-04T09:33:37.898Z</time></trkpt><trkpt lat="44.082463" lon="11.5123054"><ele>746.0</ele><time>2026-04-04T09:33:38.897Z</time></trkpt><trkpt lat="44.0823653" lon="11.5121101"><ele>748.0</ele><time>2026-04-04T09:33:39.897Z</time></trkpt><trkpt lat="44.0822542" lon="11.5119323"><ele>750.0</ele><time>2026-04-04T09:33:40.898Z</time></trkpt><trkpt lat="44.0821519" lon="11.5117852"><ele>750.0</ele><time>2026-04-04T09:33:41.897Z</time></trkpt><trkpt lat="44.0820435" lon="11.5116624"><ele>750.0</ele><time>2026-04-04T09:33:42.897Z</time></trkpt><trkpt lat="44.0819264" lon="11.5115744"><ele>750.0</ele><time>2026-04-04T09:33:43.898Z</time></trkpt><trkpt lat="44.0818181" lon="11.5115131"><ele>750.0</ele><time>2026-04-04T09:33:44.898Z</time></trkpt><trkpt lat="44.0817365" lon="11.5114208"><ele>750.0</ele><time>2026-04-04T09:33:45.898Z</time></trkpt><trkpt lat="44.0816809" lon="11.5113015"><ele>750.0</ele><time>2026-04-04T09:33:46.897Z</time></trkpt><trkpt lat="44.0816619" lon="11.5111764"><ele>750.0</ele><time>2026-04-04T09:33:47.898Z</time></trkpt><trkpt lat="44.0816804" lon="11.5110293"><ele>750.0</ele><time>2026-04-04T09:33:48.897Z</time></trkpt><trkpt lat="44.0817244" lon="11.5108698"><ele>750.0</ele><time>2026-04-04T09:33:49.897Z</time></trkpt><trkpt lat="44.0817688" lon="11.5106867"><ele>752.5</ele><time>2026-04-04T09:33:50.897Z</time></trkpt><trkpt lat="44.0818026" lon="11.5104986"><ele>755.0</ele><time>2026-04-04T09:33:51.898Z</time></trkpt><trkpt lat="44.0818275" lon="11.5103071"><ele>757.5</ele><time>2026-04-04T09:33:52.898Z</time></trkpt><trkpt lat="44.0818379" lon="11.5101372"><ele>760.0</ele><time>2026-04-04T09:33:53.898Z</time></trkpt><trkpt lat="44.0818312" lon="11.5099847"><ele>761.0</ele><time>2026-04-04T09:33:54.897Z</time></trkpt><trkpt lat="44.0817837" lon="11.5098422"><ele>762.0</ele><time>2026-04-04T09:33:55.897Z</time></trkpt><trkpt lat="44.0817066" lon="11.5097213"><ele>763.0</ele><time>2026-04-04T09:33:56.897Z</time></trkpt><trkpt lat="44.0816299" lon="11.5095976"><ele>764.0</ele><time>2026-04-04T09:33:57.897Z</time></trkpt><trkpt lat="44.0815875" lon="11.5094437"><ele>761.25</ele><time>2026-04-04T09:33:58.898Z</time></trkpt><trkpt lat="44.0815738" lon="11.5092658"><ele>758.5</ele><time>2026-04-04T09:33:59.898Z</time></trkpt><trkpt lat="44.0815758" lon="11.5090685"><ele>755.75</ele><time>2026-04-04T09:34:00.898Z</time></trkpt><trkpt lat="44.0815764" lon="11.5088548"><ele>753.0</ele><time>2026-04-04T09:34:01.898Z</time></trkpt><trkpt lat="44.081568" lon="11.5086471"><ele>753.0</ele><time>2026-04-04T09:34:02.897Z</time></trkpt><trkpt lat="44.0815444" lon="11.5084466"><ele>753.0</ele><time>2026-04-04T09:34:03.896Z</time></trkpt><trkpt lat="44.0814825" lon="11.5082453"><ele>753.0</ele><time>2026-04-04T09:34:04.896Z</time></trkpt><trkpt lat="44.0813955" lon="11.5080413"><ele>761.3333333333333</ele><time>2026-04-04T09:34:05.898Z</time></trkpt><trkpt lat="44.0812983" lon="11.5078225"><ele>769.6666666666666</ele><time>2026-04-04T09:34:06.897Z</time></trkpt><trkpt lat="44.0812101" lon="11.5076183"><ele>778.0</ele><time>2026-04-04T09:34:07.897Z</time></trkpt><trkpt lat="44.0811291" lon="11.5074391"><ele>778.0</ele><time>2026-04-04T09:34:08.896Z</time></trkpt><trkpt lat="44.0810478" lon="11.5072831"><ele>778.0</ele><time>2026-04-04T09:34:09.896Z</time></trkpt><trkpt lat="44.0809463" lon="11.5071648"><ele>778.0</ele><time>2026-04-04T09:34:10.897Z</time></trkpt><trkpt lat="44.0808161" lon="11.5070853"><ele>778.0</ele><time>2026-04-04T09:34:11.897Z</time></trkpt><trkpt lat="44.0806653" lon="11.5070453"><ele>786.6666666666666</ele><time>2026-04-04T09:34:12.898Z</time></trkpt><trkpt lat="44.0805027" lon="11.5070068"><ele>795.3333333333333</ele><time>2026-04-04T09:34:13.898Z</time></trkpt><trkpt lat="44.080338" lon="11.5069594"><ele>804.0</ele><time>2026-04-04T09:34:14.897Z</time></trkpt><trkpt lat="44.0801834" lon="11.5068963"><ele>804.0</ele><time>2026-04-04T09:34:15.897Z</time></trkpt><trkpt lat="44.080038" lon="11.5068404"><ele>804.0</ele><time>2026-04-04T09:34:16.898Z</time></trkpt><trkpt lat="44.0798994" lon="11.5068101"><ele>804.0</ele><time>2026-04-04T09:34:17.898Z</time></trkpt><trkpt lat="44.0797802" lon="11.5068215"><ele>804.0</ele><time>2026-04-04T09:34:18.898Z</time></trkpt><trkpt lat="44.0796809" lon="11.5068782"><ele>805.0</ele><time>2026-04-04T09:34:19.898Z</time></trkpt><trkpt lat="44.0796095" lon="11.5069851"><ele>806.0</ele><time>2026-04-04T09:34:20.898Z</time></trkpt><trkpt lat="44.0795593" lon="11.5071172"><ele>807.0</ele><time>2026-04-04T09:34:21.896Z</time></trkpt><trkpt lat="44.0794926" lon="11.507211"><ele>808.0</ele><time>2026-04-04T09:34:22.897Z</time></trkpt><trkpt lat="44.0794094" lon="11.5072516"><ele>809.0</ele><time>2026-04-04T09:34:23.897Z</time></trkpt><trkpt lat="44.0793205" lon="11.5072383"><ele>809.0</ele><time>2026-04-04T09:34:24.896Z</time></trkpt><trkpt lat="44.0792327" lon="11.5071628"><ele>809.0</ele><time>2026-04-04T09:34:25.897Z</time></trkpt><trkpt lat="44.0791497" lon="11.5070432"><ele>809.0</ele><time>2026-04-04T09:34:26.898Z</time></trkpt><trkpt lat="44.0790833" lon="11.5068908"><ele>809.0</ele><time>2026-04-04T09:34:27.898Z</time></trkpt><trkpt lat="44.0790441" lon="11.5067062"><ele>809.75</ele><time>2026-04-04T09:34:28.895Z</time></trkpt><trkpt lat="44.0790248" lon="11.506517"><ele>810.5</ele><time>2026-04-04T09:34:29.898Z</time></trkpt><trkpt lat="44.078996" lon="11.5063429"><ele>811.25</ele><time>2026-04-04T09:34:30.898Z</time></trkpt><trkpt lat="44.0789502" lon="11.5061894"><ele>812.0</ele><time>2026-04-04T09:34:31.898Z</time></trkpt><trkpt lat="44.0788695" lon="11.5060602"><ele>812.0</ele><time>2026-04-04T09:34:32.898Z</time></trkpt><trkpt lat="44.0787592" lon="11.505974"><ele>812.0</ele><time>2026-04-04T09:34:33.898Z</time></trkpt><trkpt lat="44.0786243" lon="11.5059327"><ele>812.0</ele><time>2026-04-04T09:34:34.898Z</time></trkpt><trkpt lat="44.0784834" lon="11.505924"><ele>812.0</ele><time>2026-04-04T09:34:35.898Z</time></trkpt><trkpt lat="44.0783635" lon="11.5058928"><ele>812.0</ele><time>2026-04-04T09:34:36.897Z</time></trkpt><trkpt lat="44.0782706" lon="11.5058173"><ele>812.0</ele><time>2026-04-04T09:34:37.897Z</time></trkpt><trkpt lat="44.0782197" lon="11.505709"><ele>812.0</ele><time>2026-04-04T09:34:38.898Z</time></trkpt><trkpt lat="44.0782131" lon="11.5055842"><ele>812.0</ele><time>2026-04-04T09:34:39.897Z</time></trkpt><trkpt lat="44.0782474" lon="11.5054483"><ele>812.0</ele><time>2026-04-04T09:34:40.898Z</time></trkpt><trkpt lat="44.0783121" lon="11.5053227"><ele>813.25</ele><time>2026-04-04T09:34:41.898Z</time></trkpt><trkpt lat="44.0783584" lon="11.505198"><ele>814.5</ele><time>2026-04-04T09:34:42.897Z</time></trkpt><trkpt lat="44.0783656" lon="11.5050533"><ele>815.75</ele><time>2026-04-04T09:34:43.898Z</time></trkpt><trkpt lat="44.078321" lon="11.5049091"><ele>817.0</ele><time>2026-04-04T09:34:44.897Z</time></trkpt><trkpt lat="44.0782379" lon="11.5047666"><ele>816.0</ele><time>2026-04-04T09:34:45.897Z</time></trkpt><trkpt lat="44.0781433" lon="11.5046103"><ele>815.0</ele><time>2026-04-04T09:34:46.897Z</time></trkpt><trkpt lat="44.078042" lon="11.5044406"><ele>814.0</ele><time>2026-04-04T09:34:47.896Z</time></trkpt><trkpt lat="44.0779469" lon="11.5042915"><ele>813.0</ele><time>2026-04-04T09:34:48.898Z</time></trkpt><trkpt lat="44.0778614" lon="11.5041585"><ele>813.0</ele><time>2026-04-04T09:34:49.897Z</time></trkpt><trkpt lat="44.0777949" lon="11.5040292"><ele>813.0</ele><time>2026-04-04T09:34:50.898Z</time></trkpt><trkpt lat="44.0777638" lon="11.503882"><ele>813.0</ele><time>2026-04-04T09:34:51.898Z</time></trkpt><trkpt lat="44.0777709" lon="11.5037169"><ele>813.0</ele><time>2026-04-04T09:34:52.897Z</time></trkpt><trkpt lat="44.0777945" lon="11.5035486"><ele>814.25</ele><time>2026-04-04T09:34:53.898Z</time></trkpt><trkpt lat="44.0777876" lon="11.503378"><ele>815.5</ele><time>2026-04-04T09:34:54.898Z</time></trkpt><trkpt lat="44.077741" lon="11.5032118"><ele>816.75</ele><time>2026-04-04T09:34:55.898Z</time></trkpt><trkpt lat="44.0776542" lon="11.5030436"><ele>818.0</ele><time>2026-04-04T09:34:56.897Z</time></trkpt><trkpt lat="44.0775502" lon="11.5028696"><ele>819.5</ele><time>2026-04-04T09:34:57.897Z</time></trkpt><trkpt lat="44.0774465" lon="11.5026987"><ele>821.0</ele><time>2026-04-04T09:34:58.898Z</time></trkpt><trkpt lat="44.077354" lon="11.5025479"><ele>822.5</ele><time>2026-04-04T09:34:59.898Z</time></trkpt><trkpt lat="44.0772643" lon="11.5024219"><ele>824.0</ele><time>2026-04-04T09:35:00.897Z</time></trkpt><trkpt lat="44.0771567" lon="11.5023429"><ele>824.0</ele><time>2026-04-04T09:35:01.896Z</time></trkpt><trkpt lat="44.0770258" lon="11.5023177"><ele>824.0</ele><time>2026-04-04T09:35:02.897Z</time></trkpt><trkpt lat="44.0768917" lon="11.5023122"><ele>824.0</ele><time>2026-04-04T09:35:03.898Z</time></trkpt><trkpt lat="44.0767787" lon="11.5022846"><ele>824.0</ele><time>2026-04-04T09:35:04.898Z</time></trkpt><trkpt lat="44.0766877" lon="11.5022153"><ele>824.0</ele><time>2026-04-04T09:35:05.898Z</time></trkpt><trkpt lat="44.0766216" lon="11.5020996"><ele>824.0</ele><time>2026-04-04T09:35:06.898Z</time></trkpt><trkpt lat="44.0765891" lon="11.5019479"><ele>824.0</ele><time>2026-04-04T09:35:07.897Z</time></trkpt><trkpt lat="44.0765432" lon="11.5018001"><ele>824.0</ele><time>2026-04-04T09:35:08.898Z</time></trkpt><trkpt lat="44.0764546" lon="11.5016614"><ele>822.0</ele><time>2026-04-04T09:35:09.897Z</time></trkpt><trkpt lat="44.0763441" lon="11.5015304"><ele>820.0</ele><time>2026-04-04T09:35:10.898Z</time></trkpt><trkpt lat="44.0762399" lon="11.5014022"><ele>818.0</ele><time>2026-04-04T09:35:11.896Z</time></trkpt><trkpt lat="44.0761567" lon="11.5012737"><ele>816.0</ele><time>2026-04-04T09:35:12.897Z</time></trkpt><trkpt lat="44.0761017" lon="11.5011247"><ele>821.8</ele><time>2026-04-04T09:35:13.898Z</time></trkpt><trkpt lat="44.0760829" lon="11.5009844"><ele>827.5999999999999</ele><time>2026-04-04T09:35:14.898Z</time></trkpt><trkpt lat="44.0760579" lon="11.5008623"><ele>833.4</ele><time>2026-04-04T09:35:15.898Z</time></trkpt><trkpt lat="44.0759927" lon="11.5007442"><ele>839.2</ele><time>2026-04-04T09:35:16.897Z</time></trkpt><trkpt lat="44.0758996" lon="11.5006412"><ele>845.0</ele><time>2026-04-04T09:35:17.898Z</time></trkpt><trkpt lat="44.0758003" lon="11.5005303"><ele>840.5</ele><time>2026-04-04T09:35:18.898Z</time></trkpt><trkpt lat="44.0757146" lon="11.5004012"><ele>836.0</ele><time>2026-04-04T09:35:19.898Z</time></trkpt><trkpt lat="44.0756599" lon="11.5002469"><ele>831.5</ele><time>2026-04-04T09:35:20.897Z</time></trkpt><trkpt lat="44.0756376" lon="11.5000744"><ele>827.0</ele><time>2026-04-04T09:35:21.898Z</time></trkpt><trkpt lat="44.0756433" lon="11.4999013"><ele>827.0</ele><time>2026-04-04T09:35:22.897Z</time></trkpt><trkpt lat="44.0756543" lon="11.499745"><ele>827.0</ele><time>2026-04-04T09:35:23.897Z</time></trkpt><trkpt lat="44.0756569" lon="11.4996034"><ele>827.0</ele><time>2026-04-04T09:35:24.896Z</time></trkpt><trkpt lat="44.075638" lon="11.4994658"><ele>827.0</ele><time>2026-04-04T09:35:25.897Z</time></trkpt><trkpt lat="44.0755799" lon="11.4993476"><ele>827.0</ele><time>2026-04-04T09:35:26.898Z</time></trkpt><trkpt lat="44.0754823" lon="11.4992721"><ele>834.0</ele><time>2026-04-04T09:35:27.897Z</time></trkpt><trkpt lat="44.0753555" lon="11.4992387"><ele>841.0</ele><time>2026-04-04T09:35:28.897Z</time></trkpt><trkpt lat="44.0752265" lon="11.4991977"><ele>848.0</ele><time>2026-04-04T09:35:29.897Z</time></trkpt><trkpt lat="44.0751055" lon="11.4991101"><ele>855.0</ele><time>2026-04-04T09:35:30.897Z</time></trkpt><trkpt lat="44.0749948" lon="11.4989839"><ele>853.3333333333333</ele><time>2026-04-04T09:35:31.898Z</time></trkpt><trkpt lat="44.0748759" lon="11.4988436"><ele>851.6666666666666</ele><time>2026-04-04T09:35:32.897Z</time></trkpt><trkpt lat="44.0747474" lon="11.4987001"><ele>850.0</ele><time>2026-04-04T09:35:33.897Z</time></trkpt><trkpt lat="44.074615" lon="11.4985566"><ele>857.25</ele><time>2026-04-04T09:35:34.897Z</time></trkpt><trkpt lat="44.0745021" lon="11.498429"><ele>864.5</ele><time>2026-04-04T09:35:35.897Z</time></trkpt><trkpt lat="44.0744006" lon="11.4983186"><ele>871.75</ele><time>2026-04-04T09:35:36.896Z</time></trkpt><trkpt lat="44.0743064" lon="11.4982344"><ele>879.0</ele><time>2026-04-04T09:35:37.897Z</time></trkpt><trkpt lat="44.0742029" lon="11.4982078"><ele>886.5</ele><time>2026-04-04T09:35:38.896Z</time></trkpt><trkpt lat="44.0741027" lon="11.4982443"><ele>894.0</ele><time>2026-04-04T09:35:39.898Z</time></trkpt><trkpt lat="44.0740132" lon="11.4983409"><ele>901.5</ele><time>2026-04-04T09:35:40.898Z</time></trkpt><trkpt lat="44.0739324" lon="11.498485"><ele>909.0</ele><time>2026-04-04T09:35:41.898Z</time></trkpt><trkpt lat="44.0738502" lon="11.4986513"><ele>901.25</ele><time>2026-04-04T09:35:42.898Z</time></trkpt><trkpt lat="44.0737635" lon="11.498781"><ele>893.5</ele><time>2026-04-04T09:35:43.897Z</time></trkpt><trkpt lat="44.0737065" lon="11.4989386"><ele>885.75</ele><time>2026-04-04T09:35:44.897Z</time></trkpt><trkpt lat="44.0736721" lon="11.4991362"><ele>878.0</ele><time>2026-04-04T09:35:45.898Z</time></trkpt><trkpt lat="44.0736541" lon="11.4993509"><ele>878.0</ele><time>2026-04-04T09:35:46.897Z</time></trkpt><trkpt lat="44.073642" lon="11.4995542"><ele>878.0</ele><time>2026-04-04T09:35:47.897Z</time></trkpt><trkpt lat="44.0736228" lon="11.4997262"><ele>878.0</ele><time>2026-04-04T09:35:48.897Z</time></trkpt><trkpt lat="44.0735879" lon="11.4998504"><ele>878.0</ele><time>2026-04-04T09:35:49.898Z</time></trkpt><trkpt lat="44.0735566" lon="11.499961"><ele>878.0</ele><time>2026-04-04T09:35:50.898Z</time></trkpt><trkpt lat="44.0734782" lon="11.4999247"><ele>878.0</ele><time>2026-04-04T09:35:51.897Z</time></trkpt><trkpt lat="44.0734013" lon="11.4997729"><ele>878.0</ele><time>2026-04-04T09:35:53.898Z</time></trkpt><trkpt lat="44.0734026" lon="11.4996314"><ele>878.0</ele><time>2026-04-04T09:35:54.898Z</time></trkpt><trkpt lat="44.0734232" lon="11.4994553"><ele>878.0</ele><time>2026-04-04T09:35:55.897Z</time></trkpt><trkpt lat="44.0734536" lon="11.4992492"><ele>878.0</ele><time>2026-04-04T09:35:56.896Z</time></trkpt><trkpt lat="44.0734812" lon="11.4990426"><ele>878.0</ele><time>2026-04-04T09:35:57.896Z</time></trkpt><trkpt lat="44.0735083" lon="11.4988634"><ele>878.0</ele><time>2026-04-04T09:35:58.897Z</time></trkpt><trkpt lat="44.0735559" lon="11.4986909"><ele>878.0</ele><time>2026-04-04T09:35:59.896Z</time></trkpt><trkpt lat="44.0736265" lon="11.4985523"><ele>885.75</ele><time>2026-04-04T09:36:00.895Z</time></trkpt><trkpt lat="44.0736833" lon="11.4984174"><ele>893.5</ele><time>2026-04-04T09:36:01.897Z</time></trkpt><trkpt lat="44.0737108" lon="11.4982565"><ele>901.25</ele><time>2026-04-04T09:36:02.897Z</time></trkpt><trkpt lat="44.0737452" lon="11.4981063"><ele>909.0</ele><time>2026-04-04T09:36:03.896Z</time></trkpt><trkpt lat="44.0738064" lon="11.4979788"><ele>910.75</ele><time>2026-04-04T09:36:04.896Z</time></trkpt><trkpt lat="44.0738999" lon="11.4978776"><ele>912.5</ele><time>2026-04-04T09:36:05.896Z</time></trkpt><trkpt lat="44.0740223" lon="11.4978107"><ele>914.25</ele><time>2026-04-04T09:36:06.897Z</time></trkpt><trkpt lat="44.0741646" lon="11.4977481"><ele>916.0</ele><time>2026-04-04T09:36:07.896Z</time></trkpt><trkpt lat="44.0742967" lon="11.4976919"><ele>916.0</ele><time>2026-04-04T09:36:08.896Z</time></trkpt><trkpt lat="44.0744284" lon="11.4976746"><ele>916.0</ele><time>2026-04-04T09:36:09.896Z</time></trkpt><trkpt lat="44.0745575" lon="11.497717"><ele>916.0</ele><time>2026-04-04T09:36:10.896Z</time></trkpt><trkpt lat="44.0746887" lon="11.4978128"><ele>916.0</ele><time>2026-04-04T09:36:11.896Z</time></trkpt><trkpt lat="44.074818" lon="11.4979307"><ele>909.5</ele><time>2026-04-04T09:36:12.897Z</time></trkpt><trkpt lat="44.0749393" lon="11.4980229"><ele>903.0</ele><time>2026-04-04T09:36:13.897Z</time></trkpt><trkpt lat="44.0750742" lon="11.498067"><ele>896.5</ele><time>2026-04-04T09:36:14.896Z</time></trkpt><trkpt lat="44.0752104" lon="11.4980809"><ele>890.0</ele><time>2026-04-04T09:36:15.896Z</time></trkpt><trkpt lat="44.0753414" lon="11.4981567"><ele>890.0</ele><time>2026-04-04T09:36:16.895Z</time></trkpt><trkpt lat="44.0754783" lon="11.4982574"><ele>890.0</ele><time>2026-04-04T09:36:17.896Z</time></trkpt><trkpt lat="44.0756273" lon="11.4983218"><ele>890.0</ele><time>2026-04-04T09:36:18.897Z</time></trkpt><trkpt lat="44.0757823" lon="11.4983354"><ele>892.25</ele><time>2026-04-04T09:36:19.897Z</time></trkpt><trkpt lat="44.0759265" lon="11.4983781"><ele>894.5</ele><time>2026-04-04T09:36:20.896Z</time></trkpt><trkpt lat="44.0760636" lon="11.4984651"><ele>896.75</ele><time>2026-04-04T09:36:21.896Z</time></trkpt><trkpt lat="44.0761845" lon="11.4985764"><ele>899.0</ele><time>2026-04-04T09:36:22.896Z</time></trkpt><trkpt lat="44.0762836" lon="11.498689"><ele>899.0</ele><time>2026-04-04T09:36:23.896Z</time></trkpt><trkpt lat="44.0763671" lon="11.4987828"><ele>899.0000000000001</ele><time>2026-04-04T09:36:24.895Z</time></trkpt><trkpt lat="44.0764359" lon="11.4988406"><ele>899.0000000000001</ele><time>2026-04-04T09:36:25.896Z</time></trkpt><trkpt lat="44.0765314" lon="11.4988149"><ele>899.0</ele><time>2026-04-04T09:36:27.896Z</time></trkpt><trkpt lat="44.0765789" lon="11.4987014"><ele>899.0</ele><time>2026-04-04T09:36:29.896Z</time></trkpt><trkpt lat="44.0765803" lon="11.4985999"><ele>899.0</ele><time>2026-04-04T09:36:30.897Z</time></trkpt><trkpt lat="44.0765537" lon="11.4984852"><ele>899.0000000000001</ele><time>2026-04-04T09:36:31.897Z</time></trkpt><trkpt lat="44.076501" lon="11.4983873"><ele>899.0000000000001</ele><time>2026-04-04T09:36:32.897Z</time></trkpt><trkpt lat="44.07642" lon="11.498323"><ele>899.0</ele><time>2026-04-04T09:36:33.897Z</time></trkpt><trkpt lat="44.0763107" lon="11.4982898"><ele>899.0</ele><time>2026-04-04T09:36:34.897Z</time></trkpt><trkpt lat="44.0761856" lon="11.49826"><ele>899.0</ele><time>2026-04-04T09:36:35.895Z</time></trkpt><trkpt lat="44.0760486" lon="11.4981912"><ele>899.0</ele><time>2026-04-04T09:36:36.895Z</time></trkpt><trkpt lat="44.0758996" lon="11.498083"><ele>899.0</ele><time>2026-04-04T09:36:37.896Z</time></trkpt><trkpt lat="44.0757532" lon="11.4979561"><ele>903.0</ele><time>2026-04-04T09:36:38.896Z</time></trkpt><trkpt lat="44.0756155" lon="11.4978419"><ele>907.0</ele><time>2026-04-04T09:36:39.897Z</time></trkpt><trkpt lat="44.0754912" lon="11.4977549"><ele>911.0</ele><time>2026-04-04T09:36:40.896Z</time></trkpt><trkpt lat="44.0754011" lon="11.4977212"><ele>915.0</ele><time>2026-04-04T09:36:41.897Z</time></trkpt><trkpt lat="44.0753169" lon="11.4977133"><ele>915.0</ele><time>2026-04-04T09:36:42.897Z</time></trkpt><trkpt lat="44.0752321" lon="11.4977154"><ele>915.0</ele><time>2026-04-04T09:36:43.896Z</time></trkpt><trkpt lat="44.0751487" lon="11.4977035"><ele>915.0</ele><time>2026-04-04T09:36:44.895Z</time></trkpt><trkpt lat="44.0750681" lon="11.4976584"><ele>915.0</ele><time>2026-04-04T09:36:45.896Z</time></trkpt><trkpt lat="44.0749864" lon="11.4975712"><ele>915.0</ele><time>2026-04-04T09:36:46.897Z</time></trkpt><trkpt lat="44.0749073" lon="11.4974586"><ele>915.25</ele><time>2026-04-04T09:36:47.897Z</time></trkpt><trkpt lat="44.0748215" lon="11.4973387"><ele>915.5</ele><time>2026-04-04T09:36:48.897Z</time></trkpt><trkpt lat="44.0747391" lon="11.4972336"><ele>915.75</ele><time>2026-04-04T09:36:49.897Z</time></trkpt><trkpt lat="44.0746468" lon="11.4971521"><ele>916.0</ele><time>2026-04-04T09:36:50.897Z</time></trkpt><trkpt lat="44.0745297" lon="11.4971162"><ele>916.0</ele><time>2026-04-04T09:36:51.897Z</time></trkpt><trkpt lat="44.0743983" lon="11.497115"><ele>916.0</ele><time>2026-04-04T09:36:52.896Z</time></trkpt><trkpt lat="44.0742589" lon="11.4971275"><ele>916.0</ele><time>2026-04-04T09:36:53.895Z</time></trkpt><trkpt lat="44.0741197" lon="11.49712"><ele>916.0</ele><time>2026-04-04T09:36:54.896Z</time></trkpt><trkpt lat="44.073985" lon="11.4971002"><ele>920.75</ele><time>2026-04-04T09:36:55.895Z</time></trkpt><trkpt lat="44.073858" lon="11.4970876"><ele>925.5</ele><time>2026-04-04T09:36:56.895Z</time></trkpt><trkpt lat="44.0737407" lon="11.4971107"><ele>930.25</ele><time>2026-04-04T09:36:57.896Z</time></trkpt><trkpt lat="44.0736286" lon="11.4971912"><ele>935.0</ele><time>2026-04-04T09:36:58.896Z</time></trkpt><trkpt lat="44.0735263" lon="11.4973155"><ele>935.0</ele><time>2026-04-04T09:36:59.897Z</time></trkpt><trkpt lat="44.0734349" lon="11.4974441"><ele>935.0</ele><time>2026-04-04T09:37:00.897Z</time></trkpt><trkpt lat="44.0733548" lon="11.4975445"><ele>935.0</ele><time>2026-04-04T09:37:01.896Z</time></trkpt><trkpt lat="44.0732766" lon="11.4976201"><ele>935.0</ele><time>2026-04-04T09:37:02.897Z</time></trkpt><trkpt lat="44.0731962" lon="11.4976558"><ele>935.0</ele><time>2026-04-04T09:37:03.895Z</time></trkpt><trkpt lat="44.0731133" lon="11.4976424"><ele>933.6</ele><time>2026-04-04T09:37:04.896Z</time></trkpt><trkpt lat="44.0730475" lon="11.4975762"><ele>932.2</ele><time>2026-04-04T09:37:05.897Z</time></trkpt><trkpt lat="44.0729929" lon="11.4974648"><ele>930.8</ele><time>2026-04-04T09:37:06.897Z</time></trkpt><trkpt lat="44.0729356" lon="11.49733"><ele>929.4</ele><time>2026-04-04T09:37:07.896Z</time></trkpt><trkpt lat="44.0728697" lon="11.4971881"><ele>928.0</ele><time>2026-04-04T09:37:08.897Z</time></trkpt><trkpt lat="44.072812" lon="11.49706"><ele>931.5</ele><time>2026-04-04T09:37:09.897Z</time></trkpt><trkpt lat="44.0727677" lon="11.4969264"><ele>935.0</ele><time>2026-04-04T09:37:10.896Z</time></trkpt><trkpt lat="44.0727581" lon="11.4967756"><ele>938.5</ele><time>2026-04-04T09:37:11.897Z</time></trkpt><trkpt lat="44.0727628" lon="11.4966109"><ele>942.0</ele><time>2026-04-04T09:37:12.897Z</time></trkpt><trkpt lat="44.0727538" lon="11.4964358"><ele>942.0</ele><time>2026-04-04T09:37:13.896Z</time></trkpt><trkpt lat="44.0727086" lon="11.4962537"><ele>942.0</ele><time>2026-04-04T09:37:14.896Z</time></trkpt><trkpt lat="44.0726323" lon="11.4960695"><ele>942.0</ele><time>2026-04-04T09:37:15.896Z</time></trkpt><trkpt lat="44.0725537" lon="11.4958811"><ele>942.0</ele><time>2026-04-04T09:37:16.897Z</time></trkpt><trkpt lat="44.0724682" lon="11.4956844"><ele>938.25</ele><time>2026-04-04T09:37:17.896Z</time></trkpt><trkpt lat="44.0723772" lon="11.4955062"><ele>934.5</ele><time>2026-04-04T09:37:18.897Z</time></trkpt><trkpt lat="44.072283" lon="11.4953492"><ele>930.75</ele><time>2026-04-04T09:37:19.897Z</time></trkpt><trkpt lat="44.0721977" lon="11.4952082"><ele>927.0</ele><time>2026-04-04T09:37:20.896Z</time></trkpt><trkpt lat="44.0721338" lon="11.4950672"><ele>935.0</ele><time>2026-04-04T09:37:21.897Z</time></trkpt><trkpt lat="44.0720821" lon="11.4949264"><ele>943.0</ele><time>2026-04-04T09:37:22.897Z</time></trkpt><trkpt lat="44.0720121" lon="11.494817"><ele>951.0</ele><time>2026-04-04T09:37:23.897Z</time></trkpt><trkpt lat="44.0719115" lon="11.4947491"><ele>959.0</ele><time>2026-04-04T09:37:24.896Z</time></trkpt><trkpt lat="44.0717945" lon="11.4947068"><ele>959.0</ele><time>2026-04-04T09:37:25.897Z</time></trkpt><trkpt lat="44.0716733" lon="11.4946608"><ele>959.0</ele><time>2026-04-04T09:37:26.897Z</time></trkpt><trkpt lat="44.0715608" lon="11.4945661"><ele>959.0</ele><time>2026-04-04T09:37:27.897Z</time></trkpt><trkpt lat="44.0714563" lon="11.4944277"><ele>959.0</ele><time>2026-04-04T09:37:28.896Z</time></trkpt><trkpt lat="44.071351" lon="11.4942859"><ele>964.0</ele><time>2026-04-04T09:37:29.897Z</time></trkpt><trkpt lat="44.0712402" lon="11.4941564"><ele>969.0</ele><time>2026-04-04T09:37:30.897Z</time></trkpt><trkpt lat="44.0711295" lon="11.4940508"><ele>974.0</ele><time>2026-04-04T09:37:31.897Z</time></trkpt><trkpt lat="44.0710222" lon="11.49397"><ele>979.0</ele><time>2026-04-04T09:37:32.897Z</time></trkpt><trkpt lat="44.070925" lon="11.4939029"><ele>979.0</ele><time>2026-04-04T09:37:33.896Z</time></trkpt><trkpt lat="44.0708327" lon="11.4938546"><ele>979.0000000000001</ele><time>2026-04-04T09:37:34.896Z</time></trkpt><trkpt lat="44.0707381" lon="11.493845"><ele>979.0000000000001</ele><time>2026-04-04T09:37:35.896Z</time></trkpt><trkpt lat="44.0706459" lon="11.4938976"><ele>979.0</ele><time>2026-04-04T09:37:36.897Z</time></trkpt><trkpt lat="44.0705588" lon="11.4940071"><ele>979.0</ele><time>2026-04-04T09:37:37.897Z</time></trkpt><trkpt lat="44.0704749" lon="11.4941581"><ele>982.0</ele><time>2026-04-04T09:37:38.895Z</time></trkpt><trkpt lat="44.0703898" lon="11.4943212"><ele>985.0</ele><time>2026-04-04T09:37:39.895Z</time></trkpt><trkpt lat="44.070316" lon="11.4944786"><ele>988.0</ele><time>2026-04-04T09:37:40.896Z</time></trkpt><trkpt lat="44.0702732" lon="11.4946482"><ele>991.0</ele><time>2026-04-04T09:37:41.896Z</time></trkpt><trkpt lat="44.070253" lon="11.4948336"><ele>991.0</ele><time>2026-04-04T09:37:42.896Z</time></trkpt><trkpt lat="44.0702248" lon="11.4950131"><ele>991.0</ele><time>2026-04-04T09:37:43.896Z</time></trkpt><trkpt lat="44.0701716" lon="11.4951719"><ele>991.0</ele><time>2026-04-04T09:37:44.897Z</time></trkpt><trkpt lat="44.0700982" lon="11.4953081"><ele>991.0</ele><time>2026-04-04T09:37:45.897Z</time></trkpt><trkpt lat="44.0700172" lon="11.4953926"><ele>987.5999999999999</ele><time>2026-04-04T09:37:46.896Z</time></trkpt><trkpt lat="44.0699321" lon="11.495429"><ele>984.1999999999999</ele><time>2026-04-04T09:37:47.896Z</time></trkpt><trkpt lat="44.0698319" lon="11.4954245"><ele>980.8000000000001</ele><time>2026-04-04T09:37:48.897Z</time></trkpt><trkpt lat="44.069727" lon="11.4953671"><ele>977.4000000000001</ele><time>2026-04-04T09:37:49.897Z</time></trkpt><trkpt lat="44.0696321" lon="11.4952924"><ele>974.0</ele><time>2026-04-04T09:37:50.897Z</time></trkpt><trkpt lat="44.0695478" lon="11.4952196"><ele>981.3333333333334</ele><time>2026-04-04T09:37:51.897Z</time></trkpt><trkpt lat="44.0694745" lon="11.4951602"><ele>988.6666666666667</ele><time>2026-04-04T09:37:52.897Z</time></trkpt><trkpt lat="44.0694159" lon="11.4951172"><ele>996.0</ele><time>2026-04-04T09:37:53.896Z</time></trkpt><trkpt lat="44.0693414" lon="11.4950432"><ele>1003.3333333333333</ele><time>2026-04-04T09:37:55.897Z</time></trkpt><trkpt lat="44.0692953" lon="11.4949459"><ele>1010.6666666666666</ele><time>2026-04-04T09:38:04.896Z</time></trkpt><trkpt lat="44.0692702" lon="11.4948221"><ele>1018.0</ele><time>2026-04-04T09:38:06.897Z</time></trkpt><trkpt lat="44.0693495" lon="11.4947315"><ele>1018.0</ele><time>2026-04-04T09:38:08.897Z</time></trkpt><trkpt lat="44.0694331" lon="11.4947458"><ele>1018.0</ele><time>2026-04-04T09:38:09.895Z</time></trkpt><trkpt lat="44.0695246" lon="11.494793"><ele>1018.0</ele><time>2026-04-04T09:38:10.896Z</time></trkpt><trkpt lat="44.0696147" lon="11.4948685"><ele>1018.0</ele><time>2026-04-04T09:38:11.895Z</time></trkpt><trkpt lat="44.069706" lon="11.4949399"><ele>1018.0</ele><time>2026-04-04T09:38:12.896Z</time></trkpt><trkpt lat="44.0697954" lon="11.4949719"><ele>1018.0</ele><time>2026-04-04T09:38:13.896Z</time></trkpt><trkpt lat="44.0698813" lon="11.4949572"><ele>1018.0</ele><time>2026-04-04T09:38:14.897Z</time></trkpt><trkpt lat="44.0699537" lon="11.4948877"><ele>1018.0</ele><time>2026-04-04T09:38:15.896Z</time></trkpt><trkpt lat="44.070014" lon="11.4947702"><ele>1018.0</ele><time>2026-04-04T09:38:16.897Z</time></trkpt><trkpt lat="44.0700499" lon="11.4946133"><ele>1018.0</ele><time>2026-04-04T09:38:17.897Z</time></trkpt><trkpt lat="44.0700759" lon="11.4944319"><ele>1020.75</ele><time>2026-04-04T09:38:18.897Z</time></trkpt><trkpt lat="44.0701035" lon="11.4942463"><ele>1023.5</ele><time>2026-04-04T09:38:19.896Z</time></trkpt><trkpt lat="44.0701377" lon="11.4940647"><ele>1026.25</ele><time>2026-04-04T09:38:20.895Z</time></trkpt><trkpt lat="44.0701964" lon="11.4938895"><ele>1029.0</ele><time>2026-04-04T09:38:21.896Z</time></trkpt><trkpt lat="44.0702816" lon="11.4937267"><ele>1037.5</ele><time>2026-04-04T09:38:22.895Z</time></trkpt><trkpt lat="44.0703648" lon="11.49357"><ele>1046.0</ele><time>2026-04-04T09:38:23.897Z</time></trkpt><trkpt lat="44.0704376" lon="11.4934137"><ele>1054.5</ele><time>2026-04-04T09:38:24.896Z</time></trkpt><trkpt lat="44.0705138" lon="11.4932556"><ele>1063.0</ele><time>2026-04-04T09:38:25.897Z</time></trkpt><trkpt lat="44.0705989" lon="11.4931378"><ele>1063.0</ele><time>2026-04-04T09:38:26.896Z</time></trkpt><trkpt lat="44.0706823" lon="11.4930317"><ele>1063.0</ele><time>2026-04-04T09:38:27.897Z</time></trkpt><trkpt lat="44.0707592" lon="11.4929351"><ele>1063.0</ele><time>2026-04-04T09:38:28.896Z</time></trkpt><trkpt lat="44.0708408" lon="11.492883"><ele>1063.0</ele><time>2026-04-04T09:38:29.897Z</time></trkpt><trkpt lat="44.07093" lon="11.4928787"><ele>1063.0</ele><time>2026-04-04T09:38:30.897Z</time></trkpt><trkpt lat="44.0710244" lon="11.4929183"><ele>1052.25</ele><time>2026-04-04T09:38:31.896Z</time></trkpt><trkpt lat="44.0711221" lon="11.4929992"><ele>1041.5</ele><time>2026-04-04T09:38:32.896Z</time></trkpt><trkpt lat="44.0712154" lon="11.493109"><ele>1030.75</ele><time>2026-04-04T09:38:33.896Z</time></trkpt><trkpt lat="44.0713084" lon="11.4932003"><ele>1020.0</ele><time>2026-04-04T09:38:34.896Z</time></trkpt><trkpt lat="44.0714044" lon="11.4932574"><ele>1020.0</ele><time>2026-04-04T09:38:35.896Z</time></trkpt><trkpt lat="44.0714919" lon="11.4933017"><ele>1020.0</ele><time>2026-04-04T09:38:36.897Z</time></trkpt><trkpt lat="44.0715737" lon="11.4933311"><ele>1020.0</ele><time>2026-04-04T09:38:37.896Z</time></trkpt><trkpt lat="44.0716433" lon="11.4933465"><ele>1016.0</ele><time>2026-04-04T09:38:38.897Z</time></trkpt><trkpt lat="44.0717545" lon="11.4933389"><ele>1016.0</ele><time>2026-04-04T09:38:40.895Z</time></trkpt><trkpt lat="44.0718242" lon="11.493318"><ele>1016.0</ele><time>2026-04-04T09:38:43.896Z</time></trkpt></trkseg><trkseg><trkpt lat="44.0723851" lon="11.4871292"><ele>1062.8333333333333</ele><time>2026-04-04T09:41:59.896Z</time></trkpt><trkpt lat="44.0724561" lon="11.4871167"><ele>1062.6666666666665</ele><time>2026-04-04T09:42:00.894Z</time></trkpt><trkpt lat="44.072535" lon="11.4870619"><ele>1062.5</ele><time>2026-04-04T09:42:02.894Z</time></trkpt><trkpt lat="44.0725548" lon="11.4869681"><ele>1062.3333333333333</ele><time>2026-04-04T09:42:23.895Z</time></trkpt><trkpt lat="44.0725697" lon="11.4868788"><ele>1062.1666666666667</ele><time>2026-04-04T09:42:27.896Z</time></trkpt><trkpt lat="44.0725274" lon="11.4867005"><ele>1062.0</ele><time>2026-04-04T09:42:29.895Z</time></trkpt><trkpt lat="44.0724957" lon="11.4865915"><ele>1062.0</ele><time>2026-04-04T09:42:30.894Z</time></trkpt><trkpt lat="44.0724696" lon="11.4864727"><ele>1062.0</ele><time>2026-04-04T09:42:31.894Z</time></trkpt><trkpt lat="44.0724539" lon="11.4863529"><ele>1062.0</ele><time>2026-04-04T09:42:32.895Z</time></trkpt><trkpt lat="44.0724591" lon="11.4862281"><ele>1062.0</ele><time>2026-04-04T09:42:33.896Z</time></trkpt><trkpt lat="44.0724851" lon="11.4861102"><ele>1062.0</ele><time>2026-04-04T09:42:34.895Z</time></trkpt><trkpt lat="44.0725023" lon="11.4859839"><ele>1062.0</ele><time>2026-04-04T09:42:35.896Z</time></trkpt><trkpt lat="44.0724998" lon="11.4858569"><ele>1064.0</ele><time>2026-04-04T09:42:36.895Z</time></trkpt><trkpt lat="44.0724708" lon="11.4857385"><ele>1066.0</ele><time>2026-04-04T09:42:37.895Z</time></trkpt><trkpt lat="44.0724207" lon="11.4856374"><ele>1068.0</ele><time>2026-04-04T09:42:38.896Z</time></trkpt><trkpt lat="44.0723515" lon="11.4855628"><ele>1070.0</ele><time>2026-04-04T09:42:39.895Z</time></trkpt><trkpt lat="44.0722723" lon="11.4855003"><ele>1072.0</ele><time>2026-04-04T09:42:40.896Z</time></trkpt><trkpt lat="44.0721835" lon="11.4854599"><ele>1073.4</ele><time>2026-04-04T09:42:41.895Z</time></trkpt><trkpt lat="44.072089" lon="11.4854414"><ele>1074.8000000000002</ele><time>2026-04-04T09:42:42.894Z</time></trkpt><trkpt lat="44.0719888" lon="11.4854392"><ele>1076.2</ele><time>2026-04-04T09:42:43.896Z</time></trkpt><trkpt lat="44.0718871" lon="11.485436"><ele>1077.6000000000001</ele><time>2026-04-04T09:42:44.896Z</time></trkpt><trkpt lat="44.07179" lon="11.4854318"><ele>1079.0</ele><time>2026-04-04T09:42:45.894Z</time></trkpt><trkpt lat="44.0716985" lon="11.4854249"><ele>1076.2</ele><time>2026-04-04T09:42:46.896Z</time></trkpt><trkpt lat="44.0716107" lon="11.4854033"><ele>1073.4</ele><time>2026-04-04T09:42:47.896Z</time></trkpt><trkpt lat="44.071531" lon="11.4853458"><ele>1070.6</ele><time>2026-04-04T09:42:48.896Z</time></trkpt><trkpt lat="44.0714745" lon="11.4852529"><ele>1067.8</ele><time>2026-04-04T09:42:49.895Z</time></trkpt><trkpt lat="44.0714347" lon="11.4851243"><ele>1065.0</ele><time>2026-04-04T09:42:50.894Z</time></trkpt><trkpt lat="44.0714095" lon="11.4849804"><ele>1065.0</ele><time>2026-04-04T09:42:51.895Z</time></trkpt><trkpt lat="44.0713785" lon="11.4848462"><ele>1065.0</ele><time>2026-04-04T09:42:52.895Z</time></trkpt><trkpt lat="44.0713118" lon="11.4847441"><ele>1065.0</ele><time>2026-04-04T09:42:53.895Z</time></trkpt><trkpt lat="44.0712174" lon="11.4846667"><ele>1065.0</ele><time>2026-04-04T09:42:54.896Z</time></trkpt><trkpt lat="44.0711078" lon="11.4846306"><ele>1065.0</ele><time>2026-04-04T09:42:55.895Z</time></trkpt><trkpt lat="44.0709919" lon="11.4846378"><ele>1065.0</ele><time>2026-04-04T09:42:56.894Z</time></trkpt><trkpt lat="44.0708744" lon="11.4846836"><ele>1065.0</ele><time>2026-04-04T09:42:57.894Z</time></trkpt><trkpt lat="44.0707536" lon="11.4847504"><ele>1065.0</ele><time>2026-04-04T09:42:58.893Z</time></trkpt><trkpt lat="44.0706306" lon="11.4848233"><ele>1065.0</ele><time>2026-04-04T09:42:59.895Z</time></trkpt><trkpt lat="44.0705099" lon="11.4848897"><ele>1067.6</ele><time>2026-04-04T09:43:00.895Z</time></trkpt><trkpt lat="44.0703931" lon="11.4849254"><ele>1070.2</ele><time>2026-04-04T09:43:01.895Z</time></trkpt><trkpt lat="44.070282" lon="11.4849364"><ele>1072.8</ele><time>2026-04-04T09:43:02.894Z</time></trkpt><trkpt lat="44.0701841" lon="11.4849267"><ele>1075.4</ele><time>2026-04-04T09:43:03.894Z</time></trkpt><trkpt lat="44.0700989" lon="11.4848904"><ele>1078.0</ele><time>2026-04-04T09:43:04.895Z</time></trkpt><trkpt lat="44.0700355" lon="11.484819"><ele>1078.0</ele><time>2026-04-04T09:43:05.895Z</time></trkpt><trkpt lat="44.0700098" lon="11.4847212"><ele>1078.0</ele><time>2026-04-04T09:43:06.895Z</time></trkpt><trkpt lat="44.070009" lon="11.4845997"><ele>1078.0</ele><time>2026-04-04T09:43:07.894Z</time></trkpt><trkpt lat="44.0700358" lon="11.4844617"><ele>1078.0</ele><time>2026-04-04T09:43:08.894Z</time></trkpt><trkpt lat="44.0700654" lon="11.4843147"><ele>1078.0</ele><time>2026-04-04T09:43:09.894Z</time></trkpt><trkpt lat="44.0700792" lon="11.4841734"><ele>1073.75</ele><time>2026-04-04T09:43:10.895Z</time></trkpt><trkpt lat="44.0700702" lon="11.4840373"><ele>1069.5</ele><time>2026-04-04T09:43:11.894Z</time></trkpt><trkpt lat="44.0700229" lon="11.4839069"><ele>1065.25</ele><time>2026-04-04T09:43:12.894Z</time></trkpt><trkpt lat="44.0699508" lon="11.4837792"><ele>1061.0</ele><time>2026-04-04T09:43:13.895Z</time></trkpt><trkpt lat="44.0698452" lon="11.4836717"><ele>1057.5</ele><time>2026-04-04T09:43:14.894Z</time></trkpt><trkpt lat="44.0697281" lon="11.4835868"><ele>1054.0</ele><time>2026-04-04T09:43:15.895Z</time></trkpt><trkpt lat="44.0696027" lon="11.4835395"><ele>1050.5</ele><time>2026-04-04T09:43:16.894Z</time></trkpt><trkpt lat="44.0694654" lon="11.4835363"><ele>1047.0</ele><time>2026-04-04T09:43:17.895Z</time></trkpt><trkpt lat="44.0693207" lon="11.4835515"><ele>1047.0</ele><time>2026-04-04T09:43:18.894Z</time></trkpt><trkpt lat="44.0691754" lon="11.4835719"><ele>1047.0</ele><time>2026-04-04T09:43:19.894Z</time></trkpt><trkpt lat="44.0690366" lon="11.4835953"><ele>1047.0</ele><time>2026-04-04T09:43:20.895Z</time></trkpt><trkpt lat="44.0689093" lon="11.4836309"><ele>1047.0</ele><time>2026-04-04T09:43:21.895Z</time></trkpt><trkpt lat="44.0688018" lon="11.4836992"><ele>1048.6</ele><time>2026-04-04T09:43:22.895Z</time></trkpt><trkpt lat="44.0687175" lon="11.4838044"><ele>1050.2</ele><time>2026-04-04T09:43:23.895Z</time></trkpt><trkpt lat="44.0686517" lon="11.4839309"><ele>1051.8</ele><time>2026-04-04T09:43:24.895Z</time></trkpt><trkpt lat="44.0686043" lon="11.4840599"><ele>1053.4</ele><time>2026-04-04T09:43:25.895Z</time></trkpt><trkpt lat="44.0685555" lon="11.4841807"><ele>1055.0</ele><time>2026-04-04T09:43:26.894Z</time></trkpt><trkpt lat="44.0684866" lon="11.4842615"><ele>1055.0</ele><time>2026-04-04T09:43:27.893Z</time></trkpt><trkpt lat="44.068409" lon="11.4842955"><ele>1055.0</ele><time>2026-04-04T09:43:28.894Z</time></trkpt><trkpt lat="44.0683347" lon="11.4842875"><ele>1055.0</ele><time>2026-04-04T09:43:29.894Z</time></trkpt><trkpt lat="44.0682643" lon="11.4842736"><ele>1055.0</ele><time>2026-04-04T09:43:30.895Z</time></trkpt><trkpt lat="44.0681898" lon="11.4842599"><ele>1055.0</ele><time>2026-04-04T09:43:31.894Z</time></trkpt><trkpt lat="44.06811" lon="11.4842543"><ele>1055.0</ele><time>2026-04-04T09:43:32.895Z</time></trkpt><trkpt lat="44.0680205" lon="11.4842557"><ele>1053.5714285714287</ele><time>2026-04-04T09:43:34.893Z</time></trkpt><trkpt lat="44.0679606" lon="11.4843043"><ele>1052.1428571428573</ele><time>2026-04-04T09:43:41.894Z</time></trkpt><trkpt lat="44.0679092" lon="11.484363"><ele>1050.7142857142858</ele><time>2026-04-04T09:43:42.894Z</time></trkpt><trkpt lat="44.0678552" lon="11.4844436"><ele>1049.2857142857142</ele><time>2026-04-04T09:43:43.895Z</time></trkpt><trkpt lat="44.0678017" lon="11.4845223"><ele>1047.8571428571427</ele><time>2026-04-04T09:43:44.895Z</time></trkpt><trkpt lat="44.0677423" lon="11.4845832"><ele>1046.4285714285713</ele><time>2026-04-04T09:43:45.894Z</time></trkpt><trkpt lat="44.067673" lon="11.4846125"><ele>1045.0</ele><time>2026-04-04T09:43:46.895Z</time></trkpt><trkpt lat="44.0675947" lon="11.4846199"><ele>1045.0</ele><time>2026-04-04T09:43:47.894Z</time></trkpt><trkpt lat="44.0675143" lon="11.4845912"><ele>1045.0</ele><time>2026-04-04T09:43:48.894Z</time></trkpt><trkpt lat="44.0674367" lon="11.4845226"><ele>1045.0</ele><time>2026-04-04T09:43:49.894Z</time></trkpt><trkpt lat="44.0673729" lon="11.4844196"><ele>1045.0</ele><time>2026-04-04T09:43:50.894Z</time></trkpt><trkpt lat="44.0673148" lon="11.4843022"><ele>1045.0</ele><time>2026-04-04T09:43:51.894Z</time></trkpt><trkpt lat="44.067262" lon="11.4841794"><ele>1046.8</ele><time>2026-04-04T09:43:52.895Z</time></trkpt><trkpt lat="44.0671934" lon="11.4840651"><ele>1048.6</ele><time>2026-04-04T09:43:53.895Z</time></trkpt><trkpt lat="44.0671044" lon="11.4839685"><ele>1050.4</ele><time>2026-04-04T09:43:54.895Z</time></trkpt><trkpt lat="44.0670037" lon="11.4838947"><ele>1052.2</ele><time>2026-04-04T09:43:55.895Z</time></trkpt><trkpt lat="44.066918" lon="11.4838171"><ele>1054.0</ele><time>2026-04-04T09:43:56.894Z</time></trkpt><trkpt lat="44.0668598" lon="11.4837164"><ele>1054.0</ele><time>2026-04-04T09:43:57.895Z</time></trkpt><trkpt lat="44.066829" lon="11.4836148"><ele>1054.0</ele><time>2026-04-04T09:43:58.895Z</time></trkpt><trkpt lat="44.066832" lon="11.4835093"><ele>1054.0</ele><time>2026-04-04T09:43:59.894Z</time></trkpt><trkpt lat="44.066845" lon="11.4833968"><ele>1054.0</ele><time>2026-04-04T09:44:00.894Z</time></trkpt><trkpt lat="44.0668598" lon="11.483276"><ele>1054.0</ele><time>2026-04-04T09:44:01.893Z</time></trkpt><trkpt lat="44.0668632" lon="11.4831459"><ele>1054.0</ele><time>2026-04-04T09:44:02.895Z</time></trkpt><trkpt lat="44.0668433" lon="11.4830015"><ele>1048.5</ele><time>2026-04-04T09:44:03.895Z</time></trkpt><trkpt lat="44.0668083" lon="11.4828476"><ele>1043.0</ele><time>2026-04-04T09:44:04.894Z</time></trkpt><trkpt lat="44.0667672" lon="11.4827032"><ele>1037.5</ele><time>2026-04-04T09:44:05.894Z</time></trkpt><trkpt lat="44.0667288" lon="11.4825595"><ele>1032.0</ele><time>2026-04-04T09:44:06.895Z</time></trkpt><trkpt lat="44.0666783" lon="11.4824131"><ele>1030.5</ele><time>2026-04-04T09:44:07.894Z</time></trkpt><trkpt lat="44.0666073" lon="11.4822913"><ele>1029.0</ele><time>2026-04-04T09:44:08.894Z</time></trkpt><trkpt lat="44.0665178" lon="11.4821834"><ele>1027.5</ele><time>2026-04-04T09:44:09.894Z</time></trkpt><trkpt lat="44.0664222" lon="11.4820744"><ele>1026.0</ele><time>2026-04-04T09:44:10.895Z</time></trkpt><trkpt lat="44.0663244" lon="11.4819525"><ele>1026.0</ele><time>2026-04-04T09:44:11.894Z</time></trkpt><trkpt lat="44.066214" lon="11.4818387"><ele>1026.0</ele><time>2026-04-04T09:44:12.894Z</time></trkpt><trkpt lat="44.0660816" lon="11.4817444"><ele>1026.0</ele><time>2026-04-04T09:44:13.894Z</time></trkpt><trkpt lat="44.065944" lon="11.4816623"><ele>1026.0</ele><time>2026-04-04T09:44:14.894Z</time></trkpt><trkpt lat="44.0658028" lon="11.4815895"><ele>1028.5</ele><time>2026-04-04T09:44:15.895Z</time></trkpt><trkpt lat="44.0656575" lon="11.4815162"><ele>1031.0</ele><time>2026-04-04T09:44:16.894Z</time></trkpt><trkpt lat="44.0655249" lon="11.4814228"><ele>1033.5</ele><time>2026-04-04T09:44:17.893Z</time></trkpt><trkpt lat="44.0653966" lon="11.4813294"><ele>1036.0</ele><time>2026-04-04T09:44:18.894Z</time></trkpt><trkpt lat="44.0652608" lon="11.4812654"><ele>1026.25</ele><time>2026-04-04T09:44:19.895Z</time></trkpt><trkpt lat="44.0651241" lon="11.4812216"><ele>1016.5</ele><time>2026-04-04T09:44:20.894Z</time></trkpt><trkpt lat="44.0649873" lon="11.4812002"><ele>1006.75</ele><time>2026-04-04T09:44:21.894Z</time></trkpt><trkpt lat="44.0648447" lon="11.4812042"><ele>997.0</ele><time>2026-04-04T09:44:22.893Z</time></trkpt><trkpt lat="44.0647001" lon="11.4812321"><ele>1004.5</ele><time>2026-04-04T09:44:23.893Z</time></trkpt><trkpt lat="44.0645582" lon="11.481287"><ele>1012.0</ele><time>2026-04-04T09:44:24.895Z</time></trkpt><trkpt lat="44.0644174" lon="11.4813425"><ele>1019.5</ele><time>2026-04-04T09:44:25.894Z</time></trkpt><trkpt lat="44.0642784" lon="11.4813705"><ele>1027.0</ele><time>2026-04-04T09:44:26.894Z</time></trkpt><trkpt lat="44.0641411" lon="11.4813834"><ele>1030.5</ele><time>2026-04-04T09:44:27.895Z</time></trkpt><trkpt lat="44.0640136" lon="11.4813839"><ele>1034.0</ele><time>2026-04-04T09:44:28.895Z</time></trkpt><trkpt lat="44.0638934" lon="11.4813763"><ele>1037.5</ele><time>2026-04-04T09:44:29.893Z</time></trkpt><trkpt lat="44.0637825" lon="11.4813215"><ele>1041.0</ele><time>2026-04-04T09:44:30.895Z</time></trkpt><trkpt lat="44.0636845" lon="11.4812334"><ele>1036.0</ele><time>2026-04-04T09:44:31.895Z</time></trkpt><trkpt lat="44.0635927" lon="11.4811106"><ele>1031.0</ele><time>2026-04-04T09:44:32.894Z</time></trkpt><trkpt lat="44.0634834" lon="11.4809911"><ele>1026.0</ele><time>2026-04-04T09:44:33.894Z</time></trkpt><trkpt lat="44.0633469" lon="11.4809384"><ele>1021.0</ele><time>2026-04-04T09:44:34.893Z</time></trkpt><trkpt lat="44.0632098" lon="11.4808705"><ele>1021.0</ele><time>2026-04-04T09:44:35.893Z</time></trkpt><trkpt lat="44.0630755" lon="11.4807751"><ele>1021.0</ele><time>2026-04-04T09:44:36.894Z</time></trkpt><trkpt lat="44.0629439" lon="11.4806214"><ele>1021.0</ele><time>2026-04-04T09:44:37.895Z</time></trkpt><trkpt lat="44.062798" lon="11.4804934"><ele>1016.6666666666666</ele><time>2026-04-04T09:44:38.895Z</time></trkpt><trkpt lat="44.0626508" lon="11.4803677"><ele>1012.3333333333333</ele><time>2026-04-04T09:44:39.895Z</time></trkpt><trkpt lat="44.0625082" lon="11.4802521"><ele>1008.0</ele><time>2026-04-04T09:44:40.894Z</time></trkpt><trkpt lat="44.0623643" lon="11.4801564"><ele>1008.0</ele><time>2026-04-04T09:44:41.895Z</time></trkpt><trkpt lat="44.0622245" lon="11.4800708"><ele>1008.0</ele><time>2026-04-04T09:44:42.895Z</time></trkpt><trkpt lat="44.0620976" lon="11.4799769"><ele>1008.0</ele><time>2026-04-04T09:44:43.895Z</time></trkpt><trkpt lat="44.0619836" lon="11.479846"><ele>1008.0</ele><time>2026-04-04T09:44:44.895Z</time></trkpt><trkpt lat="44.0618687" lon="11.4796798"><ele>1001.3333333333333</ele><time>2026-04-04T09:44:45.894Z</time></trkpt><trkpt lat="44.0617474" lon="11.4795049"><ele>994.6666666666666</ele><time>2026-04-04T09:44:46.893Z</time></trkpt><trkpt lat="44.0616061" lon="11.4793173"><ele>988.0</ele><time>2026-04-04T09:44:47.895Z</time></trkpt><trkpt lat="44.061459" lon="11.4791327"><ele>988.0</ele><time>2026-04-04T09:44:48.894Z</time></trkpt><trkpt lat="44.0613145" lon="11.4789447"><ele>988.0</ele><time>2026-04-04T09:44:49.895Z</time></trkpt><trkpt lat="44.0611758" lon="11.4787682"><ele>988.0</ele><time>2026-04-04T09:44:50.895Z</time></trkpt><trkpt lat="44.0610369" lon="11.4785975"><ele>979.6666666666666</ele><time>2026-04-04T09:44:51.895Z</time></trkpt><trkpt lat="44.060903" lon="11.4784369"><ele>971.3333333333333</ele><time>2026-04-04T09:44:52.895Z</time></trkpt><trkpt lat="44.0607554" lon="11.4782901"><ele>963.0</ele><time>2026-04-04T09:44:53.894Z</time></trkpt><trkpt lat="44.060595" lon="11.4781658"><ele>963.0</ele><time>2026-04-04T09:44:54.895Z</time></trkpt><trkpt lat="44.0604395" lon="11.4780601"><ele>963.0</ele><time>2026-04-04T09:44:55.894Z</time></trkpt><trkpt lat="44.0602991" lon="11.4779675"><ele>963.0</ele><time>2026-04-04T09:44:56.895Z</time></trkpt><trkpt lat="44.0601661" lon="11.4778999"><ele>958.75</ele><time>2026-04-04T09:44:57.894Z</time></trkpt><trkpt lat="44.0600325" lon="11.4778892"><ele>954.5</ele><time>2026-04-04T09:44:58.895Z</time></trkpt><trkpt lat="44.0599004" lon="11.4779241"><ele>950.25</ele><time>2026-04-04T09:44:59.894Z</time></trkpt><trkpt lat="44.0597622" lon="11.4779816"><ele>946.0</ele><time>2026-04-04T09:45:00.894Z</time></trkpt><trkpt lat="44.0596189" lon="11.4780483"><ele>946.0</ele><time>2026-04-04T09:45:01.894Z</time></trkpt><trkpt lat="44.0594692" lon="11.4781516"><ele>946.0</ele><time>2026-04-04T09:45:02.895Z</time></trkpt><trkpt lat="44.0593183" lon="11.4782655"><ele>946.0</ele><time>2026-04-04T09:45:03.893Z</time></trkpt><trkpt lat="44.0591715" lon="11.4783771"><ele>943.5</ele><time>2026-04-04T09:45:04.893Z</time></trkpt><trkpt lat="44.059044" lon="11.4785153"><ele>941.0</ele><time>2026-04-04T09:45:05.894Z</time></trkpt><trkpt lat="44.0589468" lon="11.4786772"><ele>938.5</ele><time>2026-04-04T09:45:06.895Z</time></trkpt><trkpt lat="44.0588755" lon="11.4788353"><ele>936.0</ele><time>2026-04-04T09:45:07.895Z</time></trkpt><trkpt lat="44.0587854" lon="11.4789582"><ele>936.0</ele><time>2026-04-04T09:45:08.895Z</time></trkpt><trkpt lat="44.0586705" lon="11.4790479"><ele>936.0</ele><time>2026-04-04T09:45:09.895Z</time></trkpt><trkpt lat="44.0585329" lon="11.4791278"><ele>936.0</ele><time>2026-04-04T09:45:10.895Z</time></trkpt><trkpt lat="44.0583803" lon="11.4792167"><ele>936.0</ele><time>2026-04-04T09:45:11.895Z</time></trkpt><trkpt lat="44.0582108" lon="11.4793142"><ele>934.3333333333333</ele><time>2026-04-04T09:45:12.894Z</time></trkpt><trkpt lat="44.0580469" lon="11.4794068"><ele>932.6666666666666</ele><time>2026-04-04T09:45:13.895Z</time></trkpt><trkpt lat="44.0578954" lon="11.4795038"><ele>931.0</ele><time>2026-04-04T09:45:14.895Z</time></trkpt><trkpt lat="44.0577639" lon="11.4796432"><ele>931.0</ele><time>2026-04-04T09:45:15.895Z</time></trkpt><trkpt lat="44.0576444" lon="11.4798237"><ele>931.0</ele><time>2026-04-04T09:45:16.894Z</time></trkpt><trkpt lat="44.0575358" lon="11.4800338"><ele>931.0</ele><time>2026-04-04T09:45:17.894Z</time></trkpt><trkpt lat="44.057423" lon="11.4802316"><ele>932.3333333333333</ele><time>2026-04-04T09:45:18.894Z</time></trkpt><trkpt lat="44.0573025" lon="11.4804099"><ele>933.6666666666667</ele><time>2026-04-04T09:45:19.894Z</time></trkpt><trkpt lat="44.05719" lon="11.4805592"><ele>935.0</ele><time>2026-04-04T09:45:20.894Z</time></trkpt><trkpt lat="44.0571066" lon="11.4807235"><ele>933.0</ele><time>2026-04-04T09:45:21.893Z</time></trkpt><trkpt lat="44.0570787" lon="11.4809221"><ele>931.0</ele><time>2026-04-04T09:45:22.894Z</time></trkpt><trkpt lat="44.0570665" lon="11.4811181"><ele>929.0</ele><time>2026-04-04T09:45:23.894Z</time></trkpt><trkpt lat="44.057055" lon="11.4812885"><ele>927.0</ele><time>2026-04-04T09:45:24.895Z</time></trkpt><trkpt lat="44.0570325" lon="11.4814394"><ele>926.6</ele><time>2026-04-04T09:45:25.893Z</time></trkpt><trkpt lat="44.056979" lon="11.4815601"><ele>926.2</ele><time>2026-04-04T09:45:26.895Z</time></trkpt><trkpt lat="44.0568916" lon="11.4816515"><ele>925.8</ele><time>2026-04-04T09:45:27.895Z</time></trkpt><trkpt lat="44.0567961" lon="11.4817513"><ele>925.4</ele><time>2026-04-04T09:45:28.894Z</time></trkpt><trkpt lat="44.0567037" lon="11.4818485"><ele>925.0</ele><time>2026-04-04T09:45:29.895Z</time></trkpt><trkpt lat="44.0566109" lon="11.4818912"><ele>931.0</ele><time>2026-04-04T09:45:30.895Z</time></trkpt><trkpt lat="44.0565041" lon="11.4818959"><ele>937.0</ele><time>2026-04-04T09:45:31.893Z</time></trkpt><trkpt lat="44.0563973" lon="11.481886"><ele>943.0</ele><time>2026-04-04T09:45:32.895Z</time></trkpt><trkpt lat="44.0562661" lon="11.4817945"><ele>949.0</ele><time>2026-04-04T09:45:33.894Z</time></trkpt><trkpt lat="44.0561366" lon="11.4816923"><ele>949.0</ele><time>2026-04-04T09:45:34.895Z</time></trkpt><trkpt lat="44.0560005" lon="11.4815833"><ele>949.0</ele><time>2026-04-04T09:45:35.895Z</time></trkpt><trkpt lat="44.0558296" lon="11.481422"><ele>949.0</ele><time>2026-04-04T09:45:36.895Z</time></trkpt><trkpt lat="44.055665" lon="11.4812939"><ele>951.3333333333333</ele><time>2026-04-04T09:45:37.895Z</time></trkpt><trkpt lat="44.055504" lon="11.4812103"><ele>953.6666666666667</ele><time>2026-04-04T09:45:38.895Z</time></trkpt><trkpt lat="44.0553594" lon="11.4811433"><ele>956.0</ele><time>2026-04-04T09:45:39.895Z</time></trkpt><trkpt lat="44.0552156" lon="11.4810756"><ele>956.0</ele><time>2026-04-04T09:45:40.895Z</time></trkpt><trkpt lat="44.05507" lon="11.4810402"><ele>956.0</ele><time>2026-04-04T09:45:41.895Z</time></trkpt><trkpt lat="44.0549132" lon="11.4812016"><ele>956.0</ele><time>2026-04-04T09:45:42.894Z</time></trkpt><trkpt lat="44.0547505" lon="11.481249"><ele>960.0</ele><time>2026-04-04T09:45:43.894Z</time></trkpt><trkpt lat="44.0545924" lon="11.4812999"><ele>964.0</ele><time>2026-04-04T09:45:44.894Z</time></trkpt><trkpt lat="44.0544459" lon="11.4813424"><ele>968.0</ele><time>2026-04-04T09:45:45.895Z</time></trkpt><trkpt lat="44.0542997" lon="11.4813218"><ele>968.0</ele><time>2026-04-04T09:45:46.895Z</time></trkpt><trkpt lat="44.0541522" lon="11.4813185"><ele>968.0</ele><time>2026-04-04T09:45:47.895Z</time></trkpt><trkpt lat="44.0539871" lon="11.4812707"><ele>968.0</ele><time>2026-04-04T09:45:48.893Z</time></trkpt><trkpt lat="44.0538239" lon="11.4811388"><ele>967.3333333333334</ele><time>2026-04-04T09:45:49.894Z</time></trkpt><trkpt lat="44.0536457" lon="11.4809987"><ele>966.6666666666667</ele><time>2026-04-04T09:45:50.895Z</time></trkpt><trkpt lat="44.0534957" lon="11.480892"><ele>966.0</ele><time>2026-04-04T09:45:51.895Z</time></trkpt><trkpt lat="44.0533538" lon="11.480799"><ele>970.3333333333333</ele><time>2026-04-04T09:45:52.894Z</time></trkpt><trkpt lat="44.0531887" lon="11.4807344"><ele>974.6666666666666</ele><time>2026-04-04T09:45:53.895Z</time></trkpt><trkpt lat="44.0530247" lon="11.4806716"><ele>979.0</ele><time>2026-04-04T09:45:54.894Z</time></trkpt><trkpt lat="44.0528491" lon="11.4806245"><ele>979.0</ele><time>2026-04-04T09:45:55.894Z</time></trkpt><trkpt lat="44.0526648" lon="11.4805867"><ele>979.0</ele><time>2026-04-04T09:45:56.895Z</time></trkpt><trkpt lat="44.0524697" lon="11.4805483"><ele>979.0</ele><time>2026-04-04T09:45:57.895Z</time></trkpt><trkpt lat="44.0522545" lon="11.4805297"><ele>985.0</ele><time>2026-04-04T09:45:58.894Z</time></trkpt><trkpt lat="44.0520429" lon="11.4805153"><ele>991.0</ele><time>2026-04-04T09:45:59.895Z</time></trkpt><trkpt lat="44.0517994" lon="11.4804901"><ele>989.6666666666666</ele><time>2026-04-04T09:46:00.895Z</time></trkpt><trkpt lat="44.0515937" lon="11.4804238"><ele>988.3333333333333</ele><time>2026-04-04T09:46:01.895Z</time></trkpt><trkpt lat="44.0513813" lon="11.4803917"><ele>987.0</ele><time>2026-04-04T09:46:02.895Z</time></trkpt><trkpt lat="44.0511638" lon="11.480316"><ele>987.0</ele><time>2026-04-04T09:46:03.895Z</time></trkpt><trkpt lat="44.051008" lon="11.4801732"><ele>987.0</ele><time>2026-04-04T09:46:04.895Z</time></trkpt><trkpt lat="44.0508434" lon="11.4800727"><ele>987.0</ele><time>2026-04-04T09:46:05.894Z</time></trkpt><trkpt lat="44.0506835" lon="11.4799264"><ele>990.3333333333333</ele><time>2026-04-04T09:46:06.895Z</time></trkpt><trkpt lat="44.0505589" lon="11.479778"><ele>993.6666666666666</ele><time>2026-04-04T09:46:07.895Z</time></trkpt><trkpt lat="44.0504248" lon="11.4795948"><ele>997.0</ele><time>2026-04-04T09:46:08.894Z</time></trkpt><trkpt lat="44.0502971" lon="11.4794674"><ele>997.0</ele><time>2026-04-04T09:46:09.895Z</time></trkpt><trkpt lat="44.0501753" lon="11.4793472"><ele>997.0</ele><time>2026-04-04T09:46:10.895Z</time></trkpt><trkpt lat="44.0500258" lon="11.4791929"><ele>997.0</ele><time>2026-04-04T09:46:11.895Z</time></trkpt><trkpt lat="44.0499114" lon="11.4790513"><ele>1001.6666666666666</ele><time>2026-04-04T09:46:12.895Z</time></trkpt><trkpt lat="44.0498019" lon="11.4789053"><ele>1006.3333333333333</ele><time>2026-04-04T09:46:13.895Z</time></trkpt><trkpt lat="44.0497157" lon="11.4787492"><ele>1011.0</ele><time>2026-04-04T09:46:14.894Z</time></trkpt><trkpt lat="44.0497387" lon="11.4785265"><ele>1011.0</ele><time>2026-04-04T09:46:15.895Z</time></trkpt><trkpt lat="44.0496469" lon="11.4783968"><ele>1011.0</ele><time>2026-04-04T09:46:16.895Z</time></trkpt><trkpt lat="44.0495551" lon="11.4782784"><ele>1011.0</ele><time>2026-04-04T09:46:17.895Z</time></trkpt><trkpt lat="44.0494274" lon="11.4781915"><ele>1011.0</ele><time>2026-04-04T09:46:18.894Z</time></trkpt><trkpt lat="44.0492943" lon="11.4781073"><ele>1011.0</ele><time>2026-04-04T09:46:19.894Z</time></trkpt><trkpt lat="44.0491474" lon="11.4780175"><ele>1011.0</ele><time>2026-04-04T09:46:20.893Z</time></trkpt><trkpt lat="44.0489779" lon="11.4779229"><ele>1011.0</ele><time>2026-04-04T09:46:21.894Z</time></trkpt><trkpt lat="44.0488078" lon="11.4778425"><ele>1012.0</ele><time>2026-04-04T09:46:22.894Z</time></trkpt><trkpt lat="44.048617" lon="11.4777305"><ele>1013.0</ele><time>2026-04-04T09:46:23.893Z</time></trkpt><trkpt lat="44.048468" lon="11.477648"><ele>1014.0</ele><time>2026-04-04T09:46:24.894Z</time></trkpt><trkpt lat="44.0483151" lon="11.4775699"><ele>1017.6666666666667</ele><time>2026-04-04T09:46:25.894Z</time></trkpt><trkpt lat="44.048166" lon="11.4775093"><ele>1021.3333333333334</ele><time>2026-04-04T09:46:26.895Z</time></trkpt><trkpt lat="44.0479945" lon="11.477563"><ele>1025.0</ele><time>2026-04-04T09:46:27.894Z</time></trkpt><trkpt lat="44.0478395" lon="11.4775337"><ele>1025.0</ele><time>2026-04-04T09:46:28.894Z</time></trkpt><trkpt lat="44.0476978" lon="11.4774833"><ele>1025.0</ele><time>2026-04-04T09:46:29.895Z</time></trkpt><trkpt lat="44.0475568" lon="11.4774388"><ele>1025.0</ele><time>2026-04-04T09:46:30.895Z</time></trkpt><trkpt lat="44.0474075" lon="11.4773402"><ele>1027.0</ele><time>2026-04-04T09:46:31.895Z</time></trkpt><trkpt lat="44.0472639" lon="11.4772761"><ele>1029.0</ele><time>2026-04-04T09:46:32.895Z</time></trkpt><trkpt lat="44.0470672" lon="11.4771576"><ele>1031.0</ele><time>2026-04-04T09:46:33.894Z</time></trkpt><trkpt lat="44.0469244" lon="11.4770255"><ele>1031.0</ele><time>2026-04-04T09:46:34.895Z</time></trkpt><trkpt lat="44.0468005" lon="11.4768996"><ele>1031.0</ele><time>2026-04-04T09:46:35.893Z</time></trkpt><trkpt lat="44.0466765" lon="11.4767918"><ele>1031.0</ele><time>2026-04-04T09:46:36.894Z</time></trkpt><trkpt lat="44.0465308" lon="11.4766866"><ele>1035.25</ele><time>2026-04-04T09:46:37.894Z</time></trkpt><trkpt lat="44.0463992" lon="11.4766214"><ele>1039.5</ele><time>2026-04-04T09:46:38.894Z</time></trkpt><trkpt lat="44.0462657" lon="11.4765316"><ele>1043.75</ele><time>2026-04-04T09:46:40.893Z</time></trkpt><trkpt lat="44.0461869" lon="11.4764403"><ele>1048.0</ele><time>2026-04-04T09:46:41.894Z</time></trkpt><trkpt lat="44.0461264" lon="11.4763348"><ele>1047.4</ele><time>2026-04-04T09:46:42.894Z</time></trkpt><trkpt lat="44.0460501" lon="11.4762103"><ele>1046.8</ele><time>2026-04-04T09:46:43.893Z</time></trkpt><trkpt lat="44.0460015" lon="11.476112"><ele>1046.2</ele><time>2026-04-04T09:46:44.894Z</time></trkpt><trkpt lat="44.0459396" lon="11.4760085"><ele>1045.6</ele><time>2026-04-04T09:46:45.893Z</time></trkpt><trkpt lat="44.0458653" lon="11.475984"><ele>1045.0</ele><time>2026-04-04T09:46:47.893Z</time></trkpt><trkpt lat="44.0457891" lon="11.4759884"><ele>1045.0</ele><time>2026-04-04T09:46:57.894Z</time></trkpt><trkpt lat="44.0458771" lon="11.4760038"><ele>1045.0</ele><time>2026-04-04T09:47:26.893Z</time></trkpt><trkpt lat="44.0458272" lon="11.4759411"><ele>1045.0</ele><time>2026-04-04T09:48:12.893Z</time></trkpt><trkpt lat="44.0456941" lon="11.4758782"><ele>1045.0</ele><time>2026-04-04T09:50:43.894Z</time></trkpt><trkpt lat="44.045637" lon="11.4758393"><ele>1045.0</ele><time>2026-04-04T09:50:44.894Z</time></trkpt><trkpt lat="44.0455569" lon="11.4758025"><ele>1045.0</ele><time>2026-04-04T09:50:45.894Z</time></trkpt><trkpt lat="44.0454791" lon="11.4757434"><ele>1044.5</ele><time>2026-04-04T09:50:46.894Z</time></trkpt><trkpt lat="44.0454078" lon="11.4756626"><ele>1044.0</ele><time>2026-04-04T09:50:47.893Z</time></trkpt><trkpt lat="44.0453103" lon="11.4755318"><ele>1043.5</ele><time>2026-04-04T09:50:48.893Z</time></trkpt><trkpt lat="44.0452916" lon="11.4753534"><ele>1043.0</ele><time>2026-04-04T09:50:49.894Z</time></trkpt><trkpt lat="44.0452522" lon="11.4751948"><ele>1043.75</ele><time>2026-04-04T09:50:50.894Z</time></trkpt><trkpt lat="44.0452048" lon="11.4750343"><ele>1044.5</ele><time>2026-04-04T09:50:51.894Z</time></trkpt><trkpt lat="44.0451536" lon="11.4748692"><ele>1045.25</ele><time>2026-04-04T09:50:52.894Z</time></trkpt><trkpt lat="44.0450827" lon="11.4747089"><ele>1046.0</ele><time>2026-04-04T09:50:53.893Z</time></trkpt><trkpt lat="44.044979" lon="11.4745614"><ele>1041.0</ele><time>2026-04-04T09:50:54.892Z</time></trkpt><trkpt lat="44.0448789" lon="11.4744294"><ele>1036.0</ele><time>2026-04-04T09:50:55.894Z</time></trkpt><trkpt lat="44.044789" lon="11.4743141"><ele>1031.0</ele><time>2026-04-04T09:50:56.893Z</time></trkpt><trkpt lat="44.0447244" lon="11.4741938"><ele>1026.0</ele><time>2026-04-04T09:50:57.893Z</time></trkpt><trkpt lat="44.0446896" lon="11.474069"><ele>1026.0</ele><time>2026-04-04T09:50:58.892Z</time></trkpt><trkpt lat="44.0446773" lon="11.4739261"><ele>1026.0</ele><time>2026-04-04T09:50:59.893Z</time></trkpt><trkpt lat="44.0446628" lon="11.4737864"><ele>1026.0</ele><time>2026-04-04T09:51:00.894Z</time></trkpt><trkpt lat="44.0446795" lon="11.4736134"><ele>1026.0</ele><time>2026-04-04T09:51:01.894Z</time></trkpt><trkpt lat="44.0446853" lon="11.473455"><ele>1026.0</ele><time>2026-04-04T09:51:02.892Z</time></trkpt><trkpt lat="44.0446868" lon="11.4733012"><ele>1025.75</ele><time>2026-04-04T09:51:03.893Z</time></trkpt><trkpt lat="44.0446897" lon="11.4731485"><ele>1025.5</ele><time>2026-04-04T09:51:04.893Z</time></trkpt><trkpt lat="44.0446904" lon="11.4729864"><ele>1025.25</ele><time>2026-04-04T09:51:05.894Z</time></trkpt><trkpt lat="44.0446938" lon="11.4728177"><ele>1025.0</ele><time>2026-04-04T09:51:06.893Z</time></trkpt><trkpt lat="44.044698" lon="11.4726467"><ele>1025.0</ele><time>2026-04-04T09:51:07.892Z</time></trkpt><trkpt lat="44.0446993" lon="11.4724746"><ele>1025.0</ele><time>2026-04-04T09:51:08.894Z</time></trkpt><trkpt lat="44.0447007" lon="11.4723034"><ele>1025.0</ele><time>2026-04-04T09:51:09.894Z</time></trkpt><trkpt lat="44.0447014" lon="11.4721392"><ele>1025.0</ele><time>2026-04-04T09:51:10.894Z</time></trkpt><trkpt lat="44.0447041" lon="11.4719787"><ele>1023.0000000000001</ele><time>2026-04-04T09:51:11.893Z</time></trkpt><trkpt lat="44.0447061" lon="11.4718266"><ele>1021.0</ele><time>2026-04-04T09:51:12.892Z</time></trkpt><trkpt lat="44.0447084" lon="11.4716871"><ele>1019.0</ele><time>2026-04-04T09:51:13.893Z</time></trkpt><trkpt lat="44.0446897" lon="11.4715667"><ele>1017.0</ele><time>2026-04-04T09:51:14.893Z</time></trkpt><trkpt lat="44.0446409" lon="11.4714844"><ele>1015.0000000000001</ele><time>2026-04-04T09:51:15.892Z</time></trkpt><trkpt lat="44.0445782" lon="11.4714402"><ele>1013.0</ele><time>2026-04-04T09:51:16.892Z</time></trkpt><trkpt lat="44.0445093" lon="11.4714399"><ele>1013.0</ele><time>2026-04-04T09:51:17.893Z</time></trkpt><trkpt lat="44.0444447" lon="11.4714752"><ele>1013.0</ele><time>2026-04-04T09:51:18.892Z</time></trkpt><trkpt lat="44.0443851" lon="11.4715489"><ele>1013.0</ele><time>2026-04-04T09:51:19.893Z</time></trkpt><trkpt lat="44.0443166" lon="11.4716627"><ele>1013.0</ele><time>2026-04-04T09:51:20.893Z</time></trkpt><trkpt lat="44.0442331" lon="11.4717838"><ele>1013.0</ele><time>2026-04-04T09:51:21.894Z</time></trkpt><trkpt lat="44.0441482" lon="11.471913"><ele>1005.25</ele><time>2026-04-04T09:51:22.893Z</time></trkpt><trkpt lat="44.0440664" lon="11.4720412"><ele>997.5</ele><time>2026-04-04T09:51:23.894Z</time></trkpt><trkpt lat="44.0440097" lon="11.4722164"><ele>989.75</ele><time>2026-04-04T09:51:24.893Z</time></trkpt><trkpt lat="44.0439501" lon="11.4723696"><ele>982.0</ele><time>2026-04-04T09:51:25.892Z</time></trkpt><trkpt lat="44.0438665" lon="11.4725161"><ele>982.0</ele><time>2026-04-04T09:51:26.893Z</time></trkpt><trkpt lat="44.043774" lon="11.4726492"><ele>982.0</ele><time>2026-04-04T09:51:27.894Z</time></trkpt><trkpt lat="44.0436943" lon="11.4727729"><ele>982.0</ele><time>2026-04-04T09:51:28.892Z</time></trkpt><trkpt lat="44.0436384" lon="11.4728952"><ele>982.0</ele><time>2026-04-04T09:51:29.893Z</time></trkpt><trkpt lat="44.0436345" lon="11.4730385"><ele>981.4000000000001</ele><time>2026-04-04T09:51:30.893Z</time></trkpt><trkpt lat="44.0436686" lon="11.4731874"><ele>980.8000000000001</ele><time>2026-04-04T09:51:31.894Z</time></trkpt><trkpt lat="44.0436971" lon="11.4733285"><ele>980.2</ele><time>2026-04-04T09:51:32.894Z</time></trkpt><trkpt lat="44.0437324" lon="11.4734779"><ele>979.6</ele><time>2026-04-04T09:51:33.893Z</time></trkpt><trkpt lat="44.0437651" lon="11.4736292"><ele>979.0</ele><time>2026-04-04T09:51:34.892Z</time></trkpt><trkpt lat="44.0438006" lon="11.4737849"><ele>978.9999999999999</ele><time>2026-04-04T09:51:35.892Z</time></trkpt><trkpt lat="44.0438001" lon="11.4739103"><ele>979.0</ele><time>2026-04-04T09:51:36.892Z</time></trkpt><trkpt lat="44.0437475" lon="11.4739828"><ele>979.0</ele><time>2026-04-04T09:51:38.893Z</time></trkpt><trkpt lat="44.0437346" lon="11.4740951"><ele>979.0</ele><time>2026-04-04T09:51:59.893Z</time></trkpt><trkpt lat="44.0437044" lon="11.4742509"><ele>978.9999999999999</ele><time>2026-04-04T09:52:01.891Z</time></trkpt><trkpt lat="44.0436694" lon="11.4743507"><ele>979.0</ele><time>2026-04-04T09:52:02.893Z</time></trkpt><trkpt lat="44.0436212" lon="11.4744548"><ele>978.9999999999999</ele><time>2026-04-04T09:52:03.892Z</time></trkpt><trkpt lat="44.0435745" lon="11.4745516"><ele>979.0</ele><time>2026-04-04T09:52:04.893Z</time></trkpt><trkpt lat="44.0435401" lon="11.4746594"><ele>979.0</ele><time>2026-04-04T09:52:05.893Z</time></trkpt><trkpt lat="44.0435131" lon="11.4747649"><ele>979.0</ele><time>2026-04-04T09:52:06.893Z</time></trkpt><trkpt lat="44.0434978" lon="11.474868"><ele>978.9999999999999</ele><time>2026-04-04T09:52:07.893Z</time></trkpt><trkpt lat="44.0434898" lon="11.4749779"><ele>979.0</ele><time>2026-04-04T09:52:08.893Z</time></trkpt><trkpt lat="44.0434832" lon="11.4750986"><ele>980.8000000000001</ele><time>2026-04-04T09:52:09.893Z</time></trkpt><trkpt lat="44.0434822" lon="11.4752289"><ele>982.6000000000001</ele><time>2026-04-04T09:52:10.893Z</time></trkpt><trkpt lat="44.043477" lon="11.4753628"><ele>984.4</ele><time>2026-04-04T09:52:11.893Z</time></trkpt><trkpt lat="44.0434637" lon="11.4755002"><ele>986.2</ele><time>2026-04-04T09:52:12.891Z</time></trkpt><trkpt lat="44.0434388" lon="11.4756405"><ele>988.0</ele><time>2026-04-04T09:52:13.892Z</time></trkpt><trkpt lat="44.0433933" lon="11.475782"><ele>989.75</ele><time>2026-04-04T09:52:14.892Z</time></trkpt><trkpt lat="44.0433291" lon="11.4759166"><ele>991.5</ele><time>2026-04-04T09:52:15.893Z</time></trkpt><trkpt lat="44.043258" lon="11.4760428"><ele>993.25</ele><time>2026-04-04T09:52:16.893Z</time></trkpt><trkpt lat="44.0431721" lon="11.4761511"><ele>995.0</ele><time>2026-04-04T09:52:17.891Z</time></trkpt><trkpt lat="44.0430745" lon="11.4762373"><ele>990.0</ele><time>2026-04-04T09:52:18.891Z</time></trkpt><trkpt lat="44.0429754" lon="11.4763027"><ele>985.0</ele><time>2026-04-04T09:52:19.893Z</time></trkpt><trkpt lat="44.0428767" lon="11.4763645"><ele>980.0</ele><time>2026-04-04T09:52:20.893Z</time></trkpt><trkpt lat="44.0427802" lon="11.4764377"><ele>975.0</ele><time>2026-04-04T09:52:21.893Z</time></trkpt><trkpt lat="44.0426915" lon="11.4765005"><ele>970.0</ele><time>2026-04-04T09:52:22.892Z</time></trkpt><trkpt lat="44.0426574" lon="11.4765963"><ele>970.0</ele><time>2026-04-04T09:52:23.892Z</time></trkpt><trkpt lat="44.0427935" lon="11.4768397"><ele>970.0</ele><time>2026-04-04T09:52:24.892Z</time></trkpt><trkpt lat="44.0427989" lon="11.4769713"><ele>970.0</ele><time>2026-04-04T09:52:25.892Z</time></trkpt><trkpt lat="44.0428168" lon="11.4771356"><ele>970.0</ele><time>2026-04-04T09:52:26.893Z</time></trkpt><trkpt lat="44.0428355" lon="11.4773137"><ele>968.25</ele><time>2026-04-04T09:52:27.892Z</time></trkpt><trkpt lat="44.0428516" lon="11.4774969"><ele>966.5</ele><time>2026-04-04T09:52:28.892Z</time></trkpt><trkpt lat="44.0428679" lon="11.4776823"><ele>964.75</ele><time>2026-04-04T09:52:29.892Z</time></trkpt><trkpt lat="44.0428839" lon="11.4778551"><ele>963.0</ele><time>2026-04-04T09:52:30.891Z</time></trkpt><trkpt lat="44.0428768" lon="11.4780252"><ele>962.75</ele><time>2026-04-04T09:52:31.893Z</time></trkpt><trkpt lat="44.0428378" lon="11.478204"><ele>962.5</ele><time>2026-04-04T09:52:32.892Z</time></trkpt><trkpt lat="44.0427927" lon="11.4783748"><ele>962.25</ele><time>2026-04-04T09:52:33.891Z</time></trkpt><trkpt lat="44.0427484" lon="11.4785329"><ele>962.0</ele><time>2026-04-04T09:52:34.893Z</time></trkpt><trkpt lat="44.0427006" lon="11.4786725"><ele>965.8</ele><time>2026-04-04T09:52:35.893Z</time></trkpt><trkpt lat="44.0426425" lon="11.4787911"><ele>969.6</ele><time>2026-04-04T09:52:36.892Z</time></trkpt><trkpt lat="44.0425827" lon="11.4788994"><ele>973.3999999999999</ele><time>2026-04-04T09:52:37.892Z</time></trkpt><trkpt lat="44.0425151" lon="11.4790104"><ele>977.1999999999999</ele><time>2026-04-04T09:52:38.891Z</time></trkpt><trkpt lat="44.0424431" lon="11.4791271"><ele>981.0</ele><time>2026-04-04T09:52:39.892Z</time></trkpt><trkpt lat="44.0423653" lon="11.4792423"><ele>972.0</ele><time>2026-04-04T09:52:40.893Z</time></trkpt><trkpt lat="44.0422851" lon="11.4793566"><ele>962.9999999999999</ele><time>2026-04-04T09:52:41.892Z</time></trkpt><trkpt lat="44.0422084" lon="11.4794679"><ele>953.9999999999999</ele><time>2026-04-04T09:52:42.893Z</time></trkpt><trkpt lat="44.0421383" lon="11.479584"><ele>945.0</ele><time>2026-04-04T09:52:43.893Z</time></trkpt><trkpt lat="44.0420834" lon="11.4797224"><ele>936.0</ele><time>2026-04-04T09:52:44.893Z</time></trkpt><trkpt lat="44.0420381" lon="11.4798864"><ele>936.0</ele><time>2026-04-04T09:52:45.891Z</time></trkpt><trkpt lat="44.0419932" lon="11.4800688"><ele>936.0</ele><time>2026-04-04T09:52:46.893Z</time></trkpt><trkpt lat="44.0419402" lon="11.4802651"><ele>936.0</ele><time>2026-04-04T09:52:47.892Z</time></trkpt><trkpt lat="44.041893" lon="11.4804608"><ele>936.0</ele><time>2026-04-04T09:52:48.892Z</time></trkpt><trkpt lat="44.0418608" lon="11.4806581"><ele>938.25</ele><time>2026-04-04T09:52:49.893Z</time></trkpt><trkpt lat="44.0418312" lon="11.480855"><ele>940.5</ele><time>2026-04-04T09:52:50.893Z</time></trkpt><trkpt lat="44.0417837" lon="11.481046"><ele>942.75</ele><time>2026-04-04T09:52:51.893Z</time></trkpt><trkpt lat="44.0417094" lon="11.4812243"><ele>945.0</ele><time>2026-04-04T09:52:52.893Z</time></trkpt><trkpt lat="44.0416317" lon="11.4813804"><ele>939.4</ele><time>2026-04-04T09:52:53.893Z</time></trkpt><trkpt lat="44.041573" lon="11.481532"><ele>933.8</ele><time>2026-04-04T09:52:54.892Z</time></trkpt><trkpt lat="44.0415226" lon="11.4816632"><ele>928.2</ele><time>2026-04-04T09:52:55.892Z</time></trkpt><trkpt lat="44.0414524" lon="11.4817562"><ele>922.6</ele><time>2026-04-04T09:52:56.891Z</time></trkpt><trkpt lat="44.0413574" lon="11.4818151"><ele>917.0</ele><time>2026-04-04T09:52:57.891Z</time></trkpt><trkpt lat="44.0412484" lon="11.4818747"><ele>917.0</ele><time>2026-04-04T09:52:58.893Z</time></trkpt><trkpt lat="44.0411224" lon="11.4819206"><ele>917.0</ele><time>2026-04-04T09:52:59.893Z</time></trkpt><trkpt lat="44.0410021" lon="11.4819557"><ele>917.0</ele><time>2026-04-04T09:53:00.893Z</time></trkpt><trkpt lat="44.0408831" lon="11.4819768"><ele>917.0</ele><time>2026-04-04T09:53:01.892Z</time></trkpt><trkpt lat="44.0407689" lon="11.4820367"><ele>915.75</ele><time>2026-04-04T09:53:02.893Z</time></trkpt><trkpt lat="44.0406582" lon="11.4821278"><ele>914.5</ele><time>2026-04-04T09:53:03.893Z</time></trkpt><trkpt lat="44.0405551" lon="11.4822263"><ele>913.25</ele><time>2026-04-04T09:53:04.892Z</time></trkpt><trkpt lat="44.0404631" lon="11.4823387"><ele>912.0</ele><time>2026-04-04T09:53:05.892Z</time></trkpt><trkpt lat="44.0404091" lon="11.4825396"><ele>912.0</ele><time>2026-04-04T09:53:06.892Z</time></trkpt><trkpt lat="44.0403495" lon="11.4827058"><ele>912.0</ele><time>2026-04-04T09:53:07.891Z</time></trkpt><trkpt lat="44.0403017" lon="11.4828753"><ele>912.0</ele><time>2026-04-04T09:53:08.892Z</time></trkpt><trkpt lat="44.0402605" lon="11.4830417"><ele>912.0</ele><time>2026-04-04T09:53:09.892Z</time></trkpt><trkpt lat="44.0402478" lon="11.4831766"><ele>911.5</ele><time>2026-04-04T09:53:10.892Z</time></trkpt><trkpt lat="44.0402159" lon="11.4833119"><ele>911.0</ele><time>2026-04-04T09:53:11.891Z</time></trkpt><trkpt lat="44.0401564" lon="11.4834086"><ele>910.5</ele><time>2026-04-04T09:53:12.892Z</time></trkpt><trkpt lat="44.0400808" lon="11.4834664"><ele>910.0</ele><time>2026-04-04T09:53:13.893Z</time></trkpt><trkpt lat="44.0400119" lon="11.4835217"><ele>909.5</ele><time>2026-04-04T09:53:14.892Z</time></trkpt><trkpt lat="44.0399321" lon="11.4835538"><ele>909.0</ele><time>2026-04-04T09:53:15.892Z</time></trkpt><trkpt lat="44.0398586" lon="11.4836573"><ele>909.0</ele><time>2026-04-04T09:53:16.892Z</time></trkpt><trkpt lat="44.0397839" lon="11.4837533"><ele>909.0000000000001</ele><time>2026-04-04T09:53:17.891Z</time></trkpt><trkpt lat="44.0396975" lon="11.4838325"><ele>909.0000000000001</ele><time>2026-04-04T09:53:18.892Z</time></trkpt><trkpt lat="44.0396054" lon="11.4838939"><ele>909.0</ele><time>2026-04-04T09:53:19.892Z</time></trkpt><trkpt lat="44.0395133" lon="11.483933"><ele>909.0</ele><time>2026-04-04T09:53:20.893Z</time></trkpt><trkpt lat="44.0394121" lon="11.4839512"><ele>912.8000000000001</ele><time>2026-04-04T09:53:21.893Z</time></trkpt><trkpt lat="44.0393088" lon="11.4839634"><ele>916.6000000000001</ele><time>2026-04-04T09:53:22.893Z</time></trkpt><trkpt lat="44.0392049" lon="11.4839694"><ele>920.4</ele><time>2026-04-04T09:53:23.893Z</time></trkpt><trkpt lat="44.0391026" lon="11.4839739"><ele>924.2</ele><time>2026-04-04T09:53:24.893Z</time></trkpt><trkpt lat="44.0390009" lon="11.4839739"><ele>928.0</ele><time>2026-04-04T09:53:25.893Z</time></trkpt><trkpt lat="44.0389061" lon="11.4839416"><ele>928.0</ele><time>2026-04-04T09:53:26.891Z</time></trkpt><trkpt lat="44.0388363" lon="11.4838974"><ele>928.0</ele><time>2026-04-04T09:53:28.892Z</time></trkpt><trkpt lat="44.0387624" lon="11.4838168"><ele>928.0</ele><time>2026-04-04T09:59:39.891Z</time></trkpt><trkpt lat="44.0386948" lon="11.483752"><ele>928.0</ele><time>2026-04-04T09:59:40.891Z</time></trkpt><trkpt lat="44.0386194" lon="11.4836485"><ele>928.0</ele><time>2026-04-04T09:59:41.891Z</time></trkpt><trkpt lat="44.0385428" lon="11.4835215"><ele>927.8</ele><time>2026-04-04T09:59:42.891Z</time></trkpt><trkpt lat="44.0384719" lon="11.4834086"><ele>927.5999999999999</ele><time>2026-04-04T09:59:43.89Z</time></trkpt><trkpt lat="44.038408" lon="11.4832888"><ele>927.4000000000001</ele><time>2026-04-04T09:59:44.891Z</time></trkpt><trkpt lat="44.0383408" lon="11.4831562"><ele>927.2</ele><time>2026-04-04T09:59:45.891Z</time></trkpt><trkpt lat="44.0382904" lon="11.4830115"><ele>927.0</ele><time>2026-04-04T09:59:46.891Z</time></trkpt><trkpt lat="44.0382528" lon="11.4828487"><ele>930.8</ele><time>2026-04-04T09:59:47.891Z</time></trkpt><trkpt lat="44.0382197" lon="11.4826883"><ele>934.6</ele><time>2026-04-04T09:59:48.891Z</time></trkpt><trkpt lat="44.0382018" lon="11.4825392"><ele>938.3999999999999</ele><time>2026-04-04T09:59:49.891Z</time></trkpt><trkpt lat="44.0381796" lon="11.4823895"><ele>942.1999999999999</ele><time>2026-04-04T09:59:50.89Z</time></trkpt><trkpt lat="44.03814" lon="11.4822594"><ele>946.0</ele><time>2026-04-04T09:59:51.891Z</time></trkpt><trkpt lat="44.0380845" lon="11.4821175"><ele>943.0</ele><time>2026-04-04T09:59:52.891Z</time></trkpt><trkpt lat="44.037989" lon="11.4820376"><ele>939.9999999999999</ele><time>2026-04-04T09:59:53.89Z</time></trkpt><trkpt lat="44.0379192" lon="11.4819492"><ele>936.9999999999999</ele><time>2026-04-04T09:59:54.891Z</time></trkpt><trkpt lat="44.037889" lon="11.4818139"><ele>934.0</ele><time>2026-04-04T09:59:55.89Z</time></trkpt><trkpt lat="44.0378492" lon="11.4816752"><ele>931.0</ele><time>2026-04-04T09:59:56.89Z</time></trkpt><trkpt lat="44.037944" lon="11.4814729"><ele>931.0</ele><time>2026-04-04T09:59:57.891Z</time></trkpt><trkpt lat="44.0379551" lon="11.4813294"><ele>930.9999999999999</ele><time>2026-04-04T09:59:58.89Z</time></trkpt><trkpt lat="44.0379799" lon="11.481203"><ele>930.9999999999999</ele><time>2026-04-04T09:59:59.89Z</time></trkpt><trkpt lat="44.0380031" lon="11.481084"><ele>931.0</ele><time>2026-04-04T10:00:00.889Z</time></trkpt><trkpt lat="44.038046" lon="11.4809928"><ele>931.0</ele><time>2026-04-04T10:00:01.891Z</time></trkpt><trkpt lat="44.0381205" lon="11.4814725"><ele>931.0</ele><time>2026-04-04T10:00:11.475Z</time></trkpt><trkpt lat="44.0381725" lon="11.4816362"><ele>931.0</ele><time>2026-04-04T10:00:12.526Z</time></trkpt><trkpt lat="44.0382608" lon="11.4817397"><ele>931.0</ele><time>2026-04-04T10:00:13.489Z</time></trkpt><trkpt lat="44.0383346" lon="11.481768"><ele>931.0</ele><time>2026-04-04T10:00:14.488Z</time></trkpt><trkpt lat="44.0385017" lon="11.4820306"><ele>927.0</ele><time>2026-04-04T10:00:15.889Z</time></trkpt><trkpt lat="44.0385533" lon="11.4821993"><ele>923.0</ele><time>2026-04-04T10:00:16.89Z</time></trkpt><trkpt lat="44.0386237" lon="11.4823421"><ele>919.0</ele><time>2026-04-04T10:00:17.888Z</time></trkpt><trkpt lat="44.0387039" lon="11.4824748"><ele>915.0</ele><time>2026-04-04T10:00:18.889Z</time></trkpt><trkpt lat="44.0387789" lon="11.4825968"><ele>915.0</ele><time>2026-04-04T10:00:19.888Z</time></trkpt><trkpt lat="44.0388557" lon="11.4827077"><ele>915.0</ele><time>2026-04-04T10:00:20.89Z</time></trkpt><trkpt lat="44.038937" lon="11.4827902"><ele>915.0</ele><time>2026-04-04T10:00:21.889Z</time></trkpt><trkpt lat="44.0390307" lon="11.4828279"><ele>915.0</ele><time>2026-04-04T10:00:22.89Z</time></trkpt><trkpt lat="44.0391192" lon="11.4828181"><ele>915.0</ele><time>2026-04-04T10:00:23.89Z</time></trkpt><trkpt lat="44.0392138" lon="11.4827512"><ele>906.75</ele><time>2026-04-04T10:00:24.89Z</time></trkpt><trkpt lat="44.0392988" lon="11.4826352"><ele>898.5</ele><time>2026-04-04T10:00:25.89Z</time></trkpt><trkpt lat="44.0393736" lon="11.4824949"><ele>890.25</ele><time>2026-04-04T10:00:26.889Z</time></trkpt><trkpt lat="44.0394482" lon="11.482359"><ele>882.0</ele><time>2026-04-04T10:00:27.89Z</time></trkpt><trkpt lat="44.0395199" lon="11.4822328"><ele>853.0</ele><time>2026-04-04T10:00:28.889Z</time></trkpt><trkpt lat="44.0405463" lon="11.4809905"><ele>853.0</ele><time>2026-04-04T10:00:38.47Z</time></trkpt><trkpt lat="44.0405487" lon="11.4807551"><ele>853.0</ele><time>2026-04-04T10:00:39.473Z</time></trkpt><trkpt lat="44.040531" lon="11.4802419"><ele>850.3333333333333</ele><time>2026-04-04T10:00:41.889Z</time></trkpt><trkpt lat="44.0405795" lon="11.4800256"><ele>847.6666666666667</ele><time>2026-04-04T10:00:42.89Z</time></trkpt><trkpt lat="44.0406017" lon="11.4797995"><ele>845.0</ele><time>2026-04-04T10:00:43.888Z</time></trkpt><trkpt lat="44.0405999" lon="11.4795582"><ele>844.0</ele><time>2026-04-04T10:00:44.89Z</time></trkpt><trkpt lat="44.0405951" lon="11.4793184"><ele>843.0</ele><time>2026-04-04T10:00:45.89Z</time></trkpt><trkpt lat="44.0405816" lon="11.4791056"><ele>842.0</ele><time>2026-04-04T10:00:46.889Z</time></trkpt><trkpt lat="44.040562" lon="11.4789339"><ele>842.0</ele><time>2026-04-04T10:00:47.889Z</time></trkpt><trkpt lat="44.0405227" lon="11.4787909"><ele>842.0</ele><time>2026-04-04T10:00:48.889Z</time></trkpt><trkpt lat="44.0404452" lon="11.4786876"><ele>842.0</ele><time>2026-04-04T10:00:49.89Z</time></trkpt><trkpt lat="44.0403461" lon="11.4786411"><ele>842.0</ele><time>2026-04-04T10:00:50.89Z</time></trkpt><trkpt lat="44.0402496" lon="11.4786042"><ele>842.0</ele><time>2026-04-04T10:00:51.889Z</time></trkpt><trkpt lat="44.0401734" lon="11.4785182"><ele>841.8</ele><time>2026-04-04T10:00:52.89Z</time></trkpt><trkpt lat="44.0401436" lon="11.4783852"><ele>841.6</ele><time>2026-04-04T10:00:53.888Z</time></trkpt><trkpt lat="44.0401401" lon="11.4782427"><ele>841.4</ele><time>2026-04-04T10:00:54.89Z</time></trkpt><trkpt lat="44.0401747" lon="11.4781063"><ele>841.1999999999999</ele><time>2026-04-04T10:00:55.89Z</time></trkpt><trkpt lat="44.0402317" lon="11.478019"><ele>841.0</ele><time>2026-04-04T10:00:56.889Z</time></trkpt><trkpt lat="44.0402845" lon="11.4779213"><ele>840.9999999999999</ele><time>2026-04-04T10:00:57.89Z</time></trkpt><trkpt lat="44.0403444" lon="11.4779539"><ele>841.0</ele><time>2026-04-04T10:00:58.89Z</time></trkpt><trkpt lat="44.0404144" lon="11.4779749"><ele>841.0</ele><time>2026-04-04T10:00:59.889Z</time></trkpt><trkpt lat="44.0404961" lon="11.4779522"><ele>841.0</ele><time>2026-04-04T10:01:00.89Z</time></trkpt><trkpt lat="44.0405691" lon="11.4778785"><ele>840.9999999999999</ele><time>2026-04-04T10:01:01.889Z</time></trkpt><trkpt lat="44.0406445" lon="11.4778231"><ele>841.0</ele><time>2026-04-04T10:01:02.89Z</time></trkpt><trkpt lat="44.0406806" lon="11.4776993"><ele>841.0</ele><time>2026-04-04T10:01:03.89Z</time></trkpt><trkpt lat="44.040734" lon="11.4775931"><ele>841.0</ele><time>2026-04-04T10:01:04.889Z</time></trkpt><trkpt lat="44.0407304" lon="11.4774035"><ele>841.0</ele><time>2026-04-04T10:01:05.89Z</time></trkpt><trkpt lat="44.0407369" lon="11.4772561"><ele>841.0</ele><time>2026-04-04T10:01:06.89Z</time></trkpt><trkpt lat="44.040725" lon="11.4771207"><ele>841.0</ele><time>2026-04-04T10:01:07.89Z</time></trkpt><trkpt lat="44.0407095" lon="11.4769942"><ele>842.0</ele><time>2026-04-04T10:01:08.889Z</time></trkpt><trkpt lat="44.0406847" lon="11.4768699"><ele>843.0</ele><time>2026-04-04T10:01:09.89Z</time></trkpt><trkpt lat="44.0406428" lon="11.4767427"><ele>844.0</ele><time>2026-04-04T10:01:10.889Z</time></trkpt><trkpt lat="44.0405903" lon="11.4766316"><ele>845.0</ele><time>2026-04-04T10:01:11.89Z</time></trkpt><trkpt lat="44.0405162" lon="11.4765465"><ele>846.0</ele><time>2026-04-04T10:01:12.89Z</time></trkpt><trkpt lat="44.0404149" lon="11.4765175"><ele>846.0</ele><time>2026-04-04T10:01:13.89Z</time></trkpt><trkpt lat="44.0403067" lon="11.4765157"><ele>846.0</ele><time>2026-04-04T10:01:14.89Z</time></trkpt><trkpt lat="44.0401959" lon="11.4765192"><ele>846.0</ele><time>2026-04-04T10:01:15.889Z</time></trkpt><trkpt lat="44.0400659" lon="11.4765302"><ele>846.0</ele><time>2026-04-04T10:01:16.89Z</time></trkpt><trkpt lat="44.0399415" lon="11.476509"><ele>840.5</ele><time>2026-04-04T10:01:17.889Z</time></trkpt><trkpt lat="44.0398015" lon="11.4764679"><ele>835.0</ele><time>2026-04-04T10:01:18.89Z</time></trkpt><trkpt lat="44.0396635" lon="11.476392"><ele>829.5</ele><time>2026-04-04T10:01:19.889Z</time></trkpt><trkpt lat="44.0395309" lon="11.4763735"><ele>824.0</ele><time>2026-04-04T10:01:20.89Z</time></trkpt><trkpt lat="44.0394188" lon="11.4763325"><ele>829.25</ele><time>2026-04-04T10:01:21.89Z</time></trkpt><trkpt lat="44.0393119" lon="11.4762562"><ele>834.5</ele><time>2026-04-04T10:01:22.89Z</time></trkpt><trkpt lat="44.0392522" lon="11.476139"><ele>839.75</ele><time>2026-04-04T10:01:23.89Z</time></trkpt><trkpt lat="44.0391988" lon="11.4760052"><ele>845.0</ele><time>2026-04-04T10:01:24.89Z</time></trkpt><trkpt lat="44.0391434" lon="11.4758603"><ele>842.25</ele><time>2026-04-04T10:01:25.889Z</time></trkpt><trkpt lat="44.0390585" lon="11.4757216"><ele>839.5</ele><time>2026-04-04T10:01:26.89Z</time></trkpt><trkpt lat="44.038955" lon="11.4755965"><ele>836.75</ele><time>2026-04-04T10:01:27.89Z</time></trkpt><trkpt lat="44.0388556" lon="11.4754803"><ele>834.0</ele><time>2026-04-04T10:01:28.889Z</time></trkpt><trkpt lat="44.0387659" lon="11.4753616"><ele>834.0</ele><time>2026-04-04T10:01:29.89Z</time></trkpt><trkpt lat="44.0386699" lon="11.4752645"><ele>834.0</ele><time>2026-04-04T10:01:30.889Z</time></trkpt><trkpt lat="44.0385689" lon="11.4752054"><ele>834.0</ele><time>2026-04-04T10:01:31.89Z</time></trkpt><trkpt lat="44.0384598" lon="11.4751652"><ele>834.0</ele><time>2026-04-04T10:01:32.889Z</time></trkpt><trkpt lat="44.0383394" lon="11.4751623"><ele>826.5</ele><time>2026-04-04T10:01:33.89Z</time></trkpt><trkpt lat="44.0382317" lon="11.4751808"><ele>819.0</ele><time>2026-04-04T10:01:34.89Z</time></trkpt><trkpt lat="44.0381033" lon="11.4752158"><ele>811.5</ele><time>2026-04-04T10:01:35.889Z</time></trkpt><trkpt lat="44.0379931" lon="11.4752358"><ele>804.0</ele><time>2026-04-04T10:01:36.889Z</time></trkpt><trkpt lat="44.0378776" lon="11.4752253"><ele>804.0</ele><time>2026-04-04T10:01:37.888Z</time></trkpt><trkpt lat="44.0377885" lon="11.4751816"><ele>804.0</ele><time>2026-04-04T10:01:38.889Z</time></trkpt><trkpt lat="44.0377394" lon="11.4751026"><ele>804.0</ele><time>2026-04-04T10:01:39.889Z</time></trkpt><trkpt lat="44.0377185" lon="11.475011"><ele>804.0</ele><time>2026-04-04T10:01:40.889Z</time></trkpt><trkpt lat="44.0377136" lon="11.4749"><ele>804.0</ele><time>2026-04-04T10:01:41.89Z</time></trkpt><trkpt lat="44.0377145" lon="11.4747894"><ele>804.0</ele><time>2026-04-04T10:01:42.889Z</time></trkpt><trkpt lat="44.0377313" lon="11.4746738"><ele>800.6</ele><time>2026-04-04T10:01:43.888Z</time></trkpt><trkpt lat="44.037777" lon="11.4745715"><ele>797.2</ele><time>2026-04-04T10:01:44.889Z</time></trkpt><trkpt lat="44.0378458" lon="11.4744864"><ele>793.8000000000001</ele><time>2026-04-04T10:01:45.89Z</time></trkpt><trkpt lat="44.0379327" lon="11.4744094"><ele>790.4000000000001</ele><time>2026-04-04T10:01:46.889Z</time></trkpt><trkpt lat="44.0380246" lon="11.4743419"><ele>787.0</ele><time>2026-04-04T10:01:47.89Z</time></trkpt><trkpt lat="44.0381368" lon="11.4743321"><ele>787.0</ele><time>2026-04-04T10:01:48.889Z</time></trkpt><trkpt lat="44.0382441" lon="11.474333"><ele>787.0</ele><time>2026-04-04T10:01:49.89Z</time></trkpt><trkpt lat="44.0383509" lon="11.4743357"><ele>787.0</ele><time>2026-04-04T10:01:50.889Z</time></trkpt><trkpt lat="44.0384572" lon="11.4743113"><ele>787.0</ele><time>2026-04-04T10:01:51.89Z</time></trkpt><trkpt lat="44.0385618" lon="11.4742506"><ele>787.0</ele><time>2026-04-04T10:01:52.889Z</time></trkpt><trkpt lat="44.0386752" lon="11.4741824"><ele>792.2</ele><time>2026-04-04T10:01:53.888Z</time></trkpt><trkpt lat="44.0387243" lon="11.4740533"><ele>797.4000000000001</ele><time>2026-04-04T10:01:54.889Z</time></trkpt><trkpt lat="44.0388014" lon="11.4739633"><ele>802.5999999999999</ele><time>2026-04-04T10:01:55.889Z</time></trkpt><trkpt lat="44.0388782" lon="11.4738773"><ele>807.8</ele><time>2026-04-04T10:01:56.889Z</time></trkpt><trkpt lat="44.038951" lon="11.4738278"><ele>813.0</ele><time>2026-04-04T10:01:57.889Z</time></trkpt><trkpt lat="44.0390426" lon="11.4738337"><ele>809.75</ele><time>2026-04-04T10:01:58.889Z</time></trkpt><trkpt lat="44.0391569" lon="11.4738284"><ele>806.5</ele><time>2026-04-04T10:01:59.889Z</time></trkpt><trkpt lat="44.0392631" lon="11.4738639"><ele>803.25</ele><time>2026-04-04T10:02:00.89Z</time></trkpt><trkpt lat="44.0393762" lon="11.4738319"><ele>800.0</ele><time>2026-04-04T10:02:01.889Z</time></trkpt><trkpt lat="44.0394806" lon="11.4737356"><ele>800.0</ele><time>2026-04-04T10:02:02.888Z</time></trkpt><trkpt lat="44.0395864" lon="11.4736404"><ele>800.0</ele><time>2026-04-04T10:02:03.889Z</time></trkpt><trkpt lat="44.0396104" lon="11.4735079"><ele>800.0</ele><time>2026-04-04T10:02:04.889Z</time></trkpt><trkpt lat="44.0396845" lon="11.4733881"><ele>800.0</ele><time>2026-04-04T10:02:05.889Z</time></trkpt><trkpt lat="44.0397481" lon="11.4732796"><ele>800.0</ele><time>2026-04-04T10:02:06.889Z</time></trkpt><trkpt lat="44.0398097" lon="11.4731773"><ele>800.0</ele><time>2026-04-04T10:02:07.889Z</time></trkpt><trkpt lat="44.0398793" lon="11.4730797"><ele>800.0</ele><time>2026-04-04T10:02:08.89Z</time></trkpt><trkpt lat="44.0399098" lon="11.4729549"><ele>800.0</ele><time>2026-04-04T10:02:09.89Z</time></trkpt><trkpt lat="44.0399088" lon="11.4728193"><ele>800.0</ele><time>2026-04-04T10:02:10.89Z</time></trkpt><trkpt lat="44.0398357" lon="11.4727094"><ele>800.0</ele><time>2026-04-04T10:02:11.89Z</time></trkpt><trkpt lat="44.0397926" lon="11.472571"><ele>800.2</ele><time>2026-04-04T10:02:12.89Z</time></trkpt><trkpt lat="44.0397795" lon="11.4724192"><ele>800.4</ele><time>2026-04-04T10:02:13.89Z</time></trkpt><trkpt lat="44.0397768" lon="11.4722715"><ele>800.5999999999999</ele><time>2026-04-04T10:02:14.89Z</time></trkpt><trkpt lat="44.0397682" lon="11.4721378"><ele>800.8</ele><time>2026-04-04T10:02:15.89Z</time></trkpt><trkpt lat="44.0397359" lon="11.4720278"><ele>801.0</ele><time>2026-04-04T10:02:16.89Z</time></trkpt><trkpt lat="44.0396727" lon="11.4719551"><ele>801.0</ele><time>2026-04-04T10:02:17.89Z</time></trkpt><trkpt lat="44.0396048" lon="11.4719529"><ele>801.0</ele><time>2026-04-04T10:02:18.89Z</time></trkpt><trkpt lat="44.0395528" lon="11.4720087"><ele>801.0</ele><time>2026-04-04T10:02:19.889Z</time></trkpt><trkpt lat="44.0395096" lon="11.4721112"><ele>801.0</ele><time>2026-04-04T10:02:20.889Z</time></trkpt><trkpt lat="44.0394663" lon="11.4722244"><ele>801.0</ele><time>2026-04-04T10:02:21.889Z</time></trkpt><trkpt lat="44.0393995" lon="11.4723318"><ele>801.0</ele><time>2026-04-04T10:02:22.889Z</time></trkpt><trkpt lat="44.0393363" lon="11.4724301"><ele>801.0</ele><time>2026-04-04T10:02:23.89Z</time></trkpt><trkpt lat="44.039258" lon="11.4724726"><ele>801.0</ele><time>2026-04-04T10:02:24.89Z</time></trkpt><trkpt lat="44.0391638" lon="11.4724982"><ele>801.0</ele><time>2026-04-04T10:02:25.89Z</time></trkpt><trkpt lat="44.0390562" lon="11.4724895"><ele>801.0</ele><time>2026-04-04T10:02:26.889Z</time></trkpt><trkpt lat="44.0389284" lon="11.4724536"><ele>801.0</ele><time>2026-04-04T10:02:27.891Z</time></trkpt><trkpt lat="44.038818" lon="11.4724525"><ele>799.1999999999999</ele><time>2026-04-04T10:02:28.89Z</time></trkpt><trkpt lat="44.038711" lon="11.4724447"><ele>797.4</ele><time>2026-04-04T10:02:29.89Z</time></trkpt><trkpt lat="44.0386099" lon="11.4724357"><ele>795.6</ele><time>2026-04-04T10:02:30.889Z</time></trkpt><trkpt lat="44.0385017" lon="11.4723957"><ele>793.8</ele><time>2026-04-04T10:02:31.889Z</time></trkpt><trkpt lat="44.0383886" lon="11.4723279"><ele>792.0</ele><time>2026-04-04T10:02:32.89Z</time></trkpt><trkpt lat="44.0382772" lon="11.4722478"><ele>786.25</ele><time>2026-04-04T10:02:33.89Z</time></trkpt><trkpt lat="44.0381626" lon="11.4721759"><ele>780.5</ele><time>2026-04-04T10:02:34.889Z</time></trkpt><trkpt lat="44.0380189" lon="11.4721376"><ele>774.75</ele><time>2026-04-04T10:02:35.888Z</time></trkpt><trkpt lat="44.0379116" lon="11.4722139"><ele>769.0</ele><time>2026-04-04T10:02:36.889Z</time></trkpt><trkpt lat="44.0378126" lon="11.4722399"><ele>769.0</ele><time>2026-04-04T10:02:37.89Z</time></trkpt><trkpt lat="44.0377212" lon="11.472199"><ele>769.0</ele><time>2026-04-04T10:02:38.888Z</time></trkpt><trkpt lat="44.0376432" lon="11.4721194"><ele>769.0</ele><time>2026-04-04T10:02:39.89Z</time></trkpt><trkpt lat="44.0375657" lon="11.4720092"><ele>769.0</ele><time>2026-04-04T10:02:40.889Z</time></trkpt><trkpt lat="44.0374628" lon="11.4719121"><ele>769.0</ele><time>2026-04-04T10:02:41.889Z</time></trkpt><trkpt lat="44.0373451" lon="11.4718257"><ele>764.8000000000001</ele><time>2026-04-04T10:02:42.89Z</time></trkpt><trkpt lat="44.0372234" lon="11.471735"><ele>760.6</ele><time>2026-04-04T10:02:43.89Z</time></trkpt><trkpt lat="44.0371222" lon="11.4716513"><ele>756.4</ele><time>2026-04-04T10:02:44.89Z</time></trkpt><trkpt lat="44.0370945" lon="11.4715615"><ele>752.2</ele><time>2026-04-04T10:02:45.89Z</time></trkpt><trkpt lat="44.0370763" lon="11.4714457"><ele>748.0</ele><time>2026-04-04T10:02:46.89Z</time></trkpt><trkpt lat="44.0370983" lon="11.4713256"><ele>746.5999999999999</ele><time>2026-04-04T10:02:47.888Z</time></trkpt><trkpt lat="44.0371413" lon="11.4712014"><ele>745.1999999999999</ele><time>2026-04-04T10:02:48.89Z</time></trkpt><trkpt lat="44.0371979" lon="11.4710769"><ele>743.8</ele><time>2026-04-04T10:02:49.89Z</time></trkpt><trkpt lat="44.0372654" lon="11.4709507"><ele>742.4</ele><time>2026-04-04T10:02:50.89Z</time></trkpt><trkpt lat="44.0373438" lon="11.4708241"><ele>741.0</ele><time>2026-04-04T10:02:51.889Z</time></trkpt><trkpt lat="44.0374342" lon="11.4707002"><ele>748.25</ele><time>2026-04-04T10:02:52.888Z</time></trkpt><trkpt lat="44.0375338" lon="11.4705825"><ele>755.5</ele><time>2026-04-04T10:02:53.889Z</time></trkpt><trkpt lat="44.0376279" lon="11.4704781"><ele>762.75</ele><time>2026-04-04T10:02:54.89Z</time></trkpt><trkpt lat="44.0377074" lon="11.4703787"><ele>770.0</ele><time>2026-04-04T10:02:55.89Z</time></trkpt><trkpt lat="44.0377664" lon="11.4702645"><ele>770.0</ele><time>2026-04-04T10:02:56.889Z</time></trkpt><trkpt lat="44.0377859" lon="11.4701394"><ele>770.0</ele><time>2026-04-04T10:02:57.89Z</time></trkpt><trkpt lat="44.0377747" lon="11.4700024"><ele>770.0</ele><time>2026-04-04T10:02:58.89Z</time></trkpt><trkpt lat="44.0377235" lon="11.4698722"><ele>770.0</ele><time>2026-04-04T10:02:59.89Z</time></trkpt><trkpt lat="44.0376495" lon="11.4697469"><ele>770.0</ele><time>2026-04-04T10:03:00.89Z</time></trkpt><trkpt lat="44.0375617" lon="11.4696408"><ele>769.0</ele><time>2026-04-04T10:03:01.889Z</time></trkpt><trkpt lat="44.0374589" lon="11.4695735"><ele>768.0</ele><time>2026-04-04T10:03:02.889Z</time></trkpt><trkpt lat="44.0373416" lon="11.4695506"><ele>767.0</ele><time>2026-04-04T10:03:03.889Z</time></trkpt><trkpt lat="44.0372173" lon="11.469572"><ele>766.0</ele><time>2026-04-04T10:03:04.889Z</time></trkpt><trkpt lat="44.0370903" lon="11.4696339"><ele>766.0</ele><time>2026-04-04T10:03:05.888Z</time></trkpt><trkpt lat="44.0369781" lon="11.4697336"><ele>766.0</ele><time>2026-04-04T10:03:06.89Z</time></trkpt><trkpt lat="44.0368456" lon="11.4698348"><ele>766.0</ele><time>2026-04-04T10:03:07.889Z</time></trkpt><trkpt lat="44.0366796" lon="11.4699054"><ele>767.3333333333334</ele><time>2026-04-04T10:03:08.89Z</time></trkpt><trkpt lat="44.0364863" lon="11.4699782"><ele>768.6666666666667</ele><time>2026-04-04T10:03:09.889Z</time></trkpt><trkpt lat="44.0362784" lon="11.4700465"><ele>770.0</ele><time>2026-04-04T10:03:10.888Z</time></trkpt><trkpt lat="44.0360824" lon="11.4701154"><ele>770.0</ele><time>2026-04-04T10:03:11.887Z</time></trkpt><trkpt lat="44.0359086" lon="11.4701902"><ele>770.0</ele><time>2026-04-04T10:03:12.888Z</time></trkpt><trkpt lat="44.0357755" lon="11.4702613"><ele>770.0</ele><time>2026-04-04T10:03:13.889Z</time></trkpt><trkpt lat="44.0356666" lon="11.4702962"><ele>770.0</ele><time>2026-04-04T10:03:14.889Z</time></trkpt><trkpt lat="44.0355502" lon="11.4703013"><ele>763.5</ele><time>2026-04-04T10:03:15.889Z</time></trkpt><trkpt lat="44.0354866" lon="11.4701791"><ele>757.0</ele><time>2026-04-04T10:03:16.889Z</time></trkpt><trkpt lat="44.0353798" lon="11.4700693"><ele>750.5</ele><time>2026-04-04T10:03:17.889Z</time></trkpt><trkpt lat="44.0352548" lon="11.4699554"><ele>744.0</ele><time>2026-04-04T10:03:18.889Z</time></trkpt><trkpt lat="44.0351362" lon="11.46984"><ele>744.0</ele><time>2026-04-04T10:03:19.889Z</time></trkpt><trkpt lat="44.0350281" lon="11.4697292"><ele>744.0</ele><time>2026-04-04T10:03:20.889Z</time></trkpt><trkpt lat="44.0349121" lon="11.4696738"><ele>744.0</ele><time>2026-04-04T10:03:21.889Z</time></trkpt><trkpt lat="44.0347846" lon="11.4696818"><ele>744.0</ele><time>2026-04-04T10:03:22.889Z</time></trkpt><trkpt lat="44.03452" lon="11.4690326"><ele>734.0</ele><time>2026-04-04T10:03:32.517Z</time></trkpt><trkpt lat="44.0346525" lon="11.4688562"><ele>724.0</ele><time>2026-04-04T10:03:33.467Z</time></trkpt><trkpt lat="44.0347417" lon="11.4686098"><ele>714.0</ele><time>2026-04-04T10:03:34.492Z</time></trkpt><trkpt lat="44.0348397" lon="11.468334"><ele>714.3333333333334</ele><time>2026-04-04T10:03:35.479Z</time></trkpt><trkpt lat="44.0349001" lon="11.4680812"><ele>714.6666666666667</ele><time>2026-04-04T10:03:36.471Z</time></trkpt><trkpt lat="44.0349233" lon="11.4678209"><ele>715.0</ele><time>2026-04-04T10:03:37.479Z</time></trkpt><trkpt lat="44.0349485" lon="11.4673698"><ele>715.0</ele><time>2026-04-04T10:03:39.889Z</time></trkpt><trkpt lat="44.034922" lon="11.4672479"><ele>715.0</ele><time>2026-04-04T10:03:40.889Z</time></trkpt><trkpt lat="44.0348665" lon="11.4671742"><ele>715.0</ele><time>2026-04-04T10:03:41.888Z</time></trkpt><trkpt lat="44.034787" lon="11.4671567"><ele>715.0</ele><time>2026-04-04T10:03:42.888Z</time></trkpt><trkpt lat="44.034692" lon="11.4671944"><ele>715.0</ele><time>2026-04-04T10:03:43.887Z</time></trkpt><trkpt lat="44.0345728" lon="11.4672604"><ele>715.0</ele><time>2026-04-04T10:03:44.888Z</time></trkpt><trkpt lat="44.0344411" lon="11.4673334"><ele>715.0</ele><time>2026-04-04T10:03:45.888Z</time></trkpt><trkpt lat="44.034329" lon="11.4674105"><ele>715.0</ele><time>2026-04-04T10:03:46.889Z</time></trkpt><trkpt lat="44.0342099" lon="11.4674702"><ele>715.0</ele><time>2026-04-04T10:03:47.889Z</time></trkpt><trkpt lat="44.0341643" lon="11.4673883"><ele>713.0</ele><time>2026-04-04T10:03:48.889Z</time></trkpt><trkpt lat="44.0341315" lon="11.4672195"><ele>711.0</ele><time>2026-04-04T10:03:50.889Z</time></trkpt><trkpt lat="44.034175" lon="11.4670917"><ele>709.0</ele><time>2026-04-04T10:03:51.888Z</time></trkpt><trkpt lat="44.034215" lon="11.4669397"><ele>707.0</ele><time>2026-04-04T10:03:52.888Z</time></trkpt><trkpt lat="44.034245" lon="11.466799"><ele>705.0</ele><time>2026-04-04T10:03:53.889Z</time></trkpt><trkpt lat="44.0343111" lon="11.4666699"><ele>705.0</ele><time>2026-04-04T10:03:54.888Z</time></trkpt><trkpt lat="44.0344087" lon="11.4665479"><ele>705.0</ele><time>2026-04-04T10:03:55.889Z</time></trkpt><trkpt lat="44.0345148" lon="11.4664246"><ele>705.0</ele><time>2026-04-04T10:03:56.889Z</time></trkpt><trkpt lat="44.0346251" lon="11.4663053"><ele>705.0</ele><time>2026-04-04T10:03:57.888Z</time></trkpt><trkpt lat="44.0347013" lon="11.466172"><ele>702.6</ele><time>2026-04-04T10:03:58.888Z</time></trkpt><trkpt lat="44.0347533" lon="11.4660392"><ele>700.2</ele><time>2026-04-04T10:03:59.888Z</time></trkpt><trkpt lat="44.0347553" lon="11.4658962"><ele>697.8</ele><time>2026-04-04T10:04:00.889Z</time></trkpt><trkpt lat="44.034712" lon="11.4657556"><ele>695.4</ele><time>2026-04-04T10:04:01.888Z</time></trkpt><trkpt lat="44.0346271" lon="11.4656297"><ele>693.0</ele><time>2026-04-04T10:04:02.888Z</time></trkpt><trkpt lat="44.0345201" lon="11.4655355"><ele>693.0</ele><time>2026-04-04T10:04:03.889Z</time></trkpt><trkpt lat="44.0344143" lon="11.4654651"><ele>693.0</ele><time>2026-04-04T10:04:04.889Z</time></trkpt><trkpt lat="44.0343185" lon="11.4653924"><ele>693.0</ele><time>2026-04-04T10:04:05.889Z</time></trkpt><trkpt lat="44.0342524" lon="11.4652871"><ele>693.0</ele><time>2026-04-04T10:04:06.888Z</time></trkpt><trkpt lat="44.0342318" lon="11.4651738"><ele>693.0</ele><time>2026-04-04T10:04:07.889Z</time></trkpt><trkpt lat="44.0342573" lon="11.4650792"><ele>693.5</ele><time>2026-04-04T10:04:08.889Z</time></trkpt><trkpt lat="44.0343208" lon="11.4649986"><ele>694.0</ele><time>2026-04-04T10:04:09.889Z</time></trkpt><trkpt lat="44.0344018" lon="11.4648938"><ele>694.5</ele><time>2026-04-04T10:04:10.889Z</time></trkpt><trkpt lat="44.0344741" lon="11.4647374"><ele>695.0</ele><time>2026-04-04T10:04:11.889Z</time></trkpt><trkpt lat="44.0345249" lon="11.4645376"><ele>695.0</ele><time>2026-04-04T10:04:12.889Z</time></trkpt><trkpt lat="44.0345642" lon="11.4643182"><ele>695.0</ele><time>2026-04-04T10:04:13.889Z</time></trkpt><trkpt lat="44.0346057" lon="11.4641127"><ele>695.0</ele><time>2026-04-04T10:04:14.888Z</time></trkpt><trkpt lat="44.0346591" lon="11.4639254"><ele>699.6</ele><time>2026-04-04T10:04:15.889Z</time></trkpt><trkpt lat="44.0347005" lon="11.4637651"><ele>704.2</ele><time>2026-04-04T10:04:16.889Z</time></trkpt><trkpt lat="44.0346948" lon="11.4636337"><ele>708.8</ele><time>2026-04-04T10:04:17.889Z</time></trkpt><trkpt lat="44.0346521" lon="11.4635381"><ele>713.4</ele><time>2026-04-04T10:04:18.888Z</time></trkpt><trkpt lat="44.0345759" lon="11.4635174"><ele>718.0</ele><time>2026-04-04T10:04:19.887Z</time></trkpt><trkpt lat="44.0344822" lon="11.4635424"><ele>718.0</ele><time>2026-04-04T10:04:20.889Z</time></trkpt><trkpt lat="44.0343827" lon="11.4636137"><ele>718.0</ele><time>2026-04-04T10:04:21.889Z</time></trkpt><trkpt lat="44.034276" lon="11.4636961"><ele>718.0</ele><time>2026-04-04T10:04:22.888Z</time></trkpt><trkpt lat="44.0341807" lon="11.4637894"><ele>718.0</ele><time>2026-04-04T10:04:23.889Z</time></trkpt><trkpt lat="44.034221" lon="11.4638662"><ele>718.0</ele><time>2026-04-04T10:04:24.888Z</time></trkpt><trkpt lat="44.0341919" lon="11.4639677"><ele>713.4</ele><time>2026-04-04T10:04:25.889Z</time></trkpt><trkpt lat="44.0341596" lon="11.4640783"><ele>708.8</ele><time>2026-04-04T10:04:26.889Z</time></trkpt><trkpt lat="44.0341039" lon="11.4641746"><ele>704.2</ele><time>2026-04-04T10:04:27.889Z</time></trkpt><trkpt lat="44.0340253" lon="11.4642404"><ele>699.6</ele><time>2026-04-04T10:04:28.889Z</time></trkpt><trkpt lat="44.0339284" lon="11.4642632"><ele>695.0</ele><time>2026-04-04T10:04:29.889Z</time></trkpt><trkpt lat="44.0338241" lon="11.4642432"><ele>694.25</ele><time>2026-04-04T10:04:30.888Z</time></trkpt><trkpt lat="44.0337112" lon="11.4641724"><ele>693.5</ele><time>2026-04-04T10:04:31.889Z</time></trkpt><trkpt lat="44.033582" lon="11.464111"><ele>692.75</ele><time>2026-04-04T10:04:32.888Z</time></trkpt><trkpt lat="44.0334464" lon="11.4640775"><ele>692.0</ele><time>2026-04-04T10:04:33.888Z</time></trkpt><trkpt lat="44.0333244" lon="11.4640862"><ele>696.0</ele><time>2026-04-04T10:04:34.889Z</time></trkpt><trkpt lat="44.0332209" lon="11.4641049"><ele>700.0</ele><time>2026-04-04T10:04:35.889Z</time></trkpt><trkpt lat="44.0331369" lon="11.4641375"><ele>704.0</ele><time>2026-04-04T10:04:36.889Z</time></trkpt><trkpt lat="44.0330883" lon="11.4642051"><ele>708.0</ele><time>2026-04-04T10:04:37.888Z</time></trkpt><trkpt lat="44.0330899" lon="11.464299"><ele>712.0</ele><time>2026-04-04T10:04:38.889Z</time></trkpt><trkpt lat="44.0331597" lon="11.464383"><ele>716.0</ele><time>2026-04-04T10:04:40.889Z</time></trkpt><trkpt lat="44.0332822" lon="11.4643582"><ele>712.0</ele><time>2026-04-04T10:04:42.889Z</time></trkpt><trkpt lat="44.0333645" lon="11.46434"><ele>708.0</ele><time>2026-04-04T10:04:43.889Z</time></trkpt><trkpt lat="44.0334482" lon="11.464346"><ele>704.0</ele><time>2026-04-04T10:04:44.889Z</time></trkpt><trkpt lat="44.0335185" lon="11.464391"><ele>700.0</ele><time>2026-04-04T10:04:45.889Z</time></trkpt><trkpt lat="44.0335651" lon="11.4644735"><ele>696.0</ele><time>2026-04-04T10:04:46.888Z</time></trkpt><trkpt lat="44.0335769" lon="11.4645867"><ele>692.0</ele><time>2026-04-04T10:04:47.889Z</time></trkpt><trkpt lat="44.0335432" lon="11.4646935"><ele>693.3333333333333</ele><time>2026-04-04T10:04:48.888Z</time></trkpt><trkpt lat="44.0334704" lon="11.4647736"><ele>694.6666666666666</ele><time>2026-04-04T10:04:49.888Z</time></trkpt><trkpt lat="44.0333879" lon="11.4648118"><ele>696.0</ele><time>2026-04-04T10:04:50.888Z</time></trkpt><trkpt lat="44.0333151" lon="11.4648809"><ele>697.3333333333334</ele><time>2026-04-04T10:04:51.888Z</time></trkpt><trkpt lat="44.0332457" lon="11.4649458"><ele>698.6666666666667</ele><time>2026-04-04T10:04:52.888Z</time></trkpt><trkpt lat="44.0332278" lon="11.4650617"><ele>700.0</ele><time>2026-04-04T10:04:53.888Z</time></trkpt><trkpt lat="44.0333804" lon="11.4651978"><ele>694.75</ele><time>2026-04-04T10:04:54.888Z</time></trkpt><trkpt lat="44.0334511" lon="11.465308"><ele>689.5</ele><time>2026-04-04T10:04:55.888Z</time></trkpt><trkpt lat="44.0335207" lon="11.4654477"><ele>684.25</ele><time>2026-04-04T10:04:56.889Z</time></trkpt><trkpt lat="44.0335602" lon="11.4656143"><ele>679.0</ele><time>2026-04-04T10:04:57.889Z</time></trkpt><trkpt lat="44.0335754" lon="11.4657741"><ele>676.75</ele><time>2026-04-04T10:04:58.888Z</time></trkpt><trkpt lat="44.0335514" lon="11.4659345"><ele>674.5</ele><time>2026-04-04T10:04:59.889Z</time></trkpt><trkpt lat="44.0334888" lon="11.4660738"><ele>672.25</ele><time>2026-04-04T10:05:00.888Z</time></trkpt><trkpt lat="44.033418" lon="11.4662083"><ele>670.0</ele><time>2026-04-04T10:05:01.888Z</time></trkpt><trkpt lat="44.0333462" lon="11.4663468"><ele>666.0</ele><time>2026-04-04T10:05:02.888Z</time></trkpt><trkpt lat="44.0333029" lon="11.466511"><ele>662.0</ele><time>2026-04-04T10:05:03.887Z</time></trkpt><trkpt lat="44.0332447" lon="11.4666409"><ele>658.0</ele><time>2026-04-04T10:05:04.888Z</time></trkpt><trkpt lat="44.0331245" lon="11.4666857"><ele>654.0</ele><time>2026-04-04T10:05:05.888Z</time></trkpt><trkpt lat="44.0330455" lon="11.4667801"><ele>654.0</ele><time>2026-04-04T10:05:06.888Z</time></trkpt><trkpt lat="44.0329652" lon="11.4669023"><ele>654.0</ele><time>2026-04-04T10:05:07.888Z</time></trkpt><trkpt lat="44.032907" lon="11.467201"><ele>654.0</ele><time>2026-04-04T10:05:08.887Z</time></trkpt><trkpt lat="44.0328236" lon="11.467382"><ele>653.0</ele><time>2026-04-04T10:05:09.886Z</time></trkpt><trkpt lat="44.0327341" lon="11.4675493"><ele>652.0</ele><time>2026-04-04T10:05:10.887Z</time></trkpt><trkpt lat="44.0326534" lon="11.4677049"><ele>651.0</ele><time>2026-04-04T10:05:11.887Z</time></trkpt><trkpt lat="44.0325985" lon="11.467863"><ele>650.0</ele><time>2026-04-04T10:05:12.887Z</time></trkpt><trkpt lat="44.0325854" lon="11.4680502"><ele>650.0</ele><time>2026-04-04T10:05:13.887Z</time></trkpt><trkpt lat="44.0326057" lon="11.4682271"><ele>650.0</ele><time>2026-04-04T10:05:14.888Z</time></trkpt><trkpt lat="44.0326077" lon="11.4683914"><ele>650.0</ele><time>2026-04-04T10:05:15.888Z</time></trkpt><trkpt lat="44.0325731" lon="11.4685364"><ele>650.0</ele><time>2026-04-04T10:05:16.888Z</time></trkpt><trkpt lat="44.0324993" lon="11.4686351"><ele>649.2</ele><time>2026-04-04T10:05:17.887Z</time></trkpt><trkpt lat="44.0323996" lon="11.4686848"><ele>648.4</ele><time>2026-04-04T10:05:18.887Z</time></trkpt><trkpt lat="44.0322799" lon="11.4687256"><ele>647.5999999999999</ele><time>2026-04-04T10:05:19.888Z</time></trkpt><trkpt lat="44.0321768" lon="11.4687996"><ele>646.8</ele><time>2026-04-04T10:05:20.888Z</time></trkpt><trkpt lat="44.0321053" lon="11.4688938"><ele>646.0</ele><time>2026-04-04T10:05:21.888Z</time></trkpt><trkpt lat="44.0320476" lon="11.4689597"><ele>646.0</ele><time>2026-04-04T10:05:22.888Z</time></trkpt><trkpt lat="44.0319752" lon="11.4689725"><ele>646.0</ele><time>2026-04-04T10:05:23.888Z</time></trkpt><trkpt lat="44.0319183" lon="11.4689222"><ele>646.0</ele><time>2026-04-04T10:05:24.887Z</time></trkpt><trkpt lat="44.0318597" lon="11.4688142"><ele>646.0</ele><time>2026-04-04T10:05:25.888Z</time></trkpt><trkpt lat="44.0317975" lon="11.4686689"><ele>646.0</ele><time>2026-04-04T10:05:26.888Z</time></trkpt><trkpt lat="44.03172" lon="11.4684956"><ele>651.0</ele><time>2026-04-04T10:05:27.887Z</time></trkpt><trkpt lat="44.0316341" lon="11.468307"><ele>656.0</ele><time>2026-04-04T10:05:28.887Z</time></trkpt><trkpt lat="44.0315499" lon="11.4681357"><ele>661.0</ele><time>2026-04-04T10:05:29.888Z</time></trkpt><trkpt lat="44.0314645" lon="11.46798"><ele>657.0</ele><time>2026-04-04T10:05:30.887Z</time></trkpt><trkpt lat="44.0313863" lon="11.4678434"><ele>653.0</ele><time>2026-04-04T10:05:31.887Z</time></trkpt><trkpt lat="44.0313305" lon="11.4677281"><ele>649.0</ele><time>2026-04-04T10:05:32.887Z</time></trkpt><trkpt lat="44.0313107" lon="11.4676062"><ele>645.0</ele><time>2026-04-04T10:05:33.886Z</time></trkpt><trkpt lat="44.0313276" lon="11.4674793"><ele>641.0</ele><time>2026-04-04T10:05:34.888Z</time></trkpt><trkpt lat="44.0313736" lon="11.4673518"><ele>641.0</ele><time>2026-04-04T10:05:35.887Z</time></trkpt><trkpt lat="44.0314502" lon="11.4672323"><ele>641.0</ele><time>2026-04-04T10:05:36.888Z</time></trkpt><trkpt lat="44.0315523" lon="11.4671114"><ele>641.0</ele><time>2026-04-04T10:05:37.887Z</time></trkpt><trkpt lat="44.0316531" lon="11.4669887"><ele>641.0</ele><time>2026-04-04T10:05:38.887Z</time></trkpt><trkpt lat="44.0317462" lon="11.4668774"><ele>640.0</ele><time>2026-04-04T10:05:39.887Z</time></trkpt><trkpt lat="44.0318226" lon="11.4667856"><ele>639.0</ele><time>2026-04-04T10:05:40.887Z</time></trkpt><trkpt lat="44.0318676" lon="11.4666886"><ele>638.0</ele><time>2026-04-04T10:05:41.887Z</time></trkpt><trkpt lat="44.0318592" lon="11.4665934"><ele>637.0</ele><time>2026-04-04T10:05:42.887Z</time></trkpt><trkpt lat="44.0318085" lon="11.4665132"><ele>636.0</ele><time>2026-04-04T10:05:43.886Z</time></trkpt><trkpt lat="44.0317233" lon="11.4664471"><ele>635.0</ele><time>2026-04-04T10:05:44.887Z</time></trkpt><trkpt lat="44.0316332" lon="11.4664157"><ele>633.8333333333333</ele><time>2026-04-04T10:05:45.887Z</time></trkpt><trkpt lat="44.0315446" lon="11.4664175"><ele>632.6666666666666</ele><time>2026-04-04T10:05:46.888Z</time></trkpt><trkpt lat="44.0314693" lon="11.4664703"><ele>631.5</ele><time>2026-04-04T10:05:47.888Z</time></trkpt><trkpt lat="44.0314094" lon="11.4665521"><ele>630.3333333333334</ele><time>2026-04-04T10:05:48.887Z</time></trkpt><trkpt lat="44.0313465" lon="11.4666231"><ele>629.1666666666667</ele><time>2026-04-04T10:05:49.887Z</time></trkpt><trkpt lat="44.0312746" lon="11.4666653"><ele>628.0</ele><time>2026-04-04T10:05:50.887Z</time></trkpt><trkpt lat="44.0312006" lon="11.4666563"><ele>628.0</ele><time>2026-04-04T10:05:51.887Z</time></trkpt><trkpt lat="44.0311345" lon="11.4665915"><ele>628.0</ele><time>2026-04-04T10:05:52.887Z</time></trkpt><trkpt lat="44.0310821" lon="11.4664677"><ele>628.0</ele><time>2026-04-04T10:05:53.887Z</time></trkpt><trkpt lat="44.0310404" lon="11.4663173"><ele>628.0</ele><time>2026-04-04T10:05:54.887Z</time></trkpt><trkpt lat="44.0309963" lon="11.4661634"><ele>628.0</ele><time>2026-04-04T10:05:55.888Z</time></trkpt><trkpt lat="44.0309351" lon="11.4660254"><ele>627.6</ele><time>2026-04-04T10:05:56.888Z</time></trkpt><trkpt lat="44.0308545" lon="11.4659265"><ele>627.1999999999999</ele><time>2026-04-04T10:05:57.888Z</time></trkpt><trkpt lat="44.0307688" lon="11.4658452"><ele>626.8</ele><time>2026-04-04T10:05:58.888Z</time></trkpt><trkpt lat="44.0306772" lon="11.4657702"><ele>626.4</ele><time>2026-04-04T10:05:59.888Z</time></trkpt><trkpt lat="44.0305963" lon="11.4656963"><ele>626.0</ele><time>2026-04-04T10:06:00.888Z</time></trkpt><trkpt lat="44.0305203" lon="11.4656065"><ele>627.0</ele><time>2026-04-04T10:06:01.887Z</time></trkpt><trkpt lat="44.0304579" lon="11.4654907"><ele>628.0</ele><time>2026-04-04T10:06:02.888Z</time></trkpt><trkpt lat="44.0304119" lon="11.4653686"><ele>629.0</ele><time>2026-04-04T10:06:03.887Z</time></trkpt><trkpt lat="44.0303743" lon="11.4652512"><ele>630.0</ele><time>2026-04-04T10:06:04.888Z</time></trkpt><trkpt lat="44.0303325" lon="11.465138"><ele>631.0</ele><time>2026-04-04T10:06:05.888Z</time></trkpt><trkpt lat="44.0302687" lon="11.46503"><ele>629.0</ele><time>2026-04-04T10:06:06.887Z</time></trkpt><trkpt lat="44.0301901" lon="11.4649439"><ele>627.0</ele><time>2026-04-04T10:06:07.888Z</time></trkpt><trkpt lat="44.0301131" lon="11.464873"><ele>625.0</ele><time>2026-04-04T10:06:08.888Z</time></trkpt><trkpt lat="44.0300342" lon="11.4648149"><ele>623.0</ele><time>2026-04-04T10:06:09.887Z</time></trkpt><trkpt lat="44.0299541" lon="11.4647761"><ele>621.0</ele><time>2026-04-04T10:06:10.888Z</time></trkpt><trkpt lat="44.0298765" lon="11.4647515"><ele>619.0</ele><time>2026-04-04T10:06:11.888Z</time></trkpt><trkpt lat="44.0298014" lon="11.4647263"><ele>619.2</ele><time>2026-04-04T10:06:12.887Z</time></trkpt><trkpt lat="44.029743" lon="11.4646764"><ele>619.4</ele><time>2026-04-04T10:06:13.887Z</time></trkpt><trkpt lat="44.0297075" lon="11.4646003"><ele>619.6</ele><time>2026-04-04T10:06:14.887Z</time></trkpt><trkpt lat="44.0297004" lon="11.4644888"><ele>619.8</ele><time>2026-04-04T10:06:15.888Z</time></trkpt><trkpt lat="44.0297199" lon="11.4643271"><ele>620.0</ele><time>2026-04-04T10:06:16.888Z</time></trkpt><trkpt lat="44.0297584" lon="11.4641254"><ele>620.0</ele><time>2026-04-04T10:06:17.888Z</time></trkpt><trkpt lat="44.029785" lon="11.4639439"><ele>620.0</ele><time>2026-04-04T10:06:18.888Z</time></trkpt><trkpt lat="44.029776" lon="11.4637545"><ele>620.0</ele><time>2026-04-04T10:06:19.888Z</time></trkpt><trkpt lat="44.0297278" lon="11.4635842"><ele>620.0</ele><time>2026-04-04T10:06:20.887Z</time></trkpt><trkpt lat="44.0296401" lon="11.4634536"><ele>617.2</ele><time>2026-04-04T10:06:21.887Z</time></trkpt><trkpt lat="44.029539" lon="11.4633821"><ele>614.4</ele><time>2026-04-04T10:06:22.887Z</time></trkpt><trkpt lat="44.0294418" lon="11.4633514"><ele>611.6</ele><time>2026-04-04T10:06:23.888Z</time></trkpt><trkpt lat="44.0293718" lon="11.4632927"><ele>608.8</ele><time>2026-04-04T10:06:24.887Z</time></trkpt><trkpt lat="44.0292985" lon="11.4632373"><ele>606.0</ele><time>2026-04-04T10:06:25.887Z</time></trkpt><trkpt lat="44.0293332" lon="11.4630661"><ele>604.5</ele><time>2026-04-04T10:06:26.888Z</time></trkpt><trkpt lat="44.0293498" lon="11.4629073"><ele>603.0</ele><time>2026-04-04T10:06:27.887Z</time></trkpt><trkpt lat="44.02937" lon="11.46273"><ele>601.5</ele><time>2026-04-04T10:06:28.886Z</time></trkpt><trkpt lat="44.0293628" lon="11.4625506"><ele>600.0</ele><time>2026-04-04T10:06:29.888Z</time></trkpt><trkpt lat="44.0293224" lon="11.4623934"><ele>600.0</ele><time>2026-04-04T10:06:30.887Z</time></trkpt><trkpt lat="44.0292544" lon="11.4622653"><ele>600.0</ele><time>2026-04-04T10:06:31.887Z</time></trkpt><trkpt lat="44.0291623" lon="11.4621763"><ele>600.0</ele><time>2026-04-04T10:06:32.888Z</time></trkpt><trkpt lat="44.0290558" lon="11.4621464"><ele>600.0</ele><time>2026-04-04T10:06:33.887Z</time></trkpt><trkpt lat="44.028952" lon="11.4621353"><ele>600.0</ele><time>2026-04-04T10:06:34.888Z</time></trkpt><trkpt lat="44.0288635" lon="11.4620895"><ele>598.5</ele><time>2026-04-04T10:06:35.887Z</time></trkpt><trkpt lat="44.028793" lon="11.4619952"><ele>597.0</ele><time>2026-04-04T10:06:36.888Z</time></trkpt><trkpt lat="44.0287278" lon="11.4618566"><ele>595.5</ele><time>2026-04-04T10:06:37.888Z</time></trkpt><trkpt lat="44.0286595" lon="11.4617041"><ele>594.0</ele><time>2026-04-04T10:06:38.887Z</time></trkpt><trkpt lat="44.028558" lon="11.4615655"><ele>594.0</ele><time>2026-04-04T10:06:39.887Z</time></trkpt><trkpt lat="44.028442" lon="11.4614464"><ele>594.0</ele><time>2026-04-04T10:06:40.887Z</time></trkpt><trkpt lat="44.0283417" lon="11.4613065"><ele>594.0</ele><time>2026-04-04T10:06:41.887Z</time></trkpt><trkpt lat="44.0282491" lon="11.4611408"><ele>594.0</ele><time>2026-04-04T10:06:42.888Z</time></trkpt><trkpt lat="44.0281684" lon="11.460964"><ele>595.0</ele><time>2026-04-04T10:06:43.888Z</time></trkpt><trkpt lat="44.0280971" lon="11.4607938"><ele>596.0</ele><time>2026-04-04T10:06:44.888Z</time></trkpt><trkpt lat="44.0279929" lon="11.4606626"><ele>597.0</ele><time>2026-04-04T10:06:45.888Z</time></trkpt><trkpt lat="44.0278495" lon="11.4605606"><ele>598.0</ele><time>2026-04-04T10:06:46.888Z</time></trkpt><trkpt lat="44.0277054" lon="11.4604768"><ele>598.5</ele><time>2026-04-04T10:06:47.887Z</time></trkpt><trkpt lat="44.0275743" lon="11.4603932"><ele>599.0</ele><time>2026-04-04T10:06:48.887Z</time></trkpt><trkpt lat="44.0274608" lon="11.4603069"><ele>599.5</ele><time>2026-04-04T10:06:49.886Z</time></trkpt><trkpt lat="44.0273767" lon="11.4601942"><ele>600.0</ele><time>2026-04-04T10:06:50.887Z</time></trkpt><trkpt lat="44.0273267" lon="11.4600538"><ele>600.0</ele><time>2026-04-04T10:06:51.887Z</time></trkpt><trkpt lat="44.0273086" lon="11.459901"><ele>600.0</ele><time>2026-04-04T10:06:52.886Z</time></trkpt><trkpt lat="44.0273033" lon="11.4597264"><ele>600.0</ele><time>2026-04-04T10:06:53.888Z</time></trkpt><trkpt lat="44.027291" lon="11.4595537"><ele>600.0</ele><time>2026-04-04T10:06:54.888Z</time></trkpt><trkpt lat="44.0272733" lon="11.459407"><ele>595.0</ele><time>2026-04-04T10:06:55.886Z</time></trkpt><trkpt lat="44.027222" lon="11.4592882"><ele>590.0</ele><time>2026-04-04T10:06:56.887Z</time></trkpt><trkpt lat="44.0271427" lon="11.459195"><ele>585.0</ele><time>2026-04-04T10:06:57.887Z</time></trkpt><trkpt lat="44.0270313" lon="11.4591367"><ele>580.0</ele><time>2026-04-04T10:06:58.887Z</time></trkpt><trkpt lat="44.0269043" lon="11.4591008"><ele>580.0</ele><time>2026-04-04T10:06:59.887Z</time></trkpt><trkpt lat="44.0267764" lon="11.459067"><ele>580.0</ele><time>2026-04-04T10:07:00.886Z</time></trkpt><trkpt lat="44.0266496" lon="11.4589909"><ele>580.0</ele><time>2026-04-04T10:07:01.887Z</time></trkpt><trkpt lat="44.0265188" lon="11.4588786"><ele>580.0</ele><time>2026-04-04T10:07:02.887Z</time></trkpt><trkpt lat="44.0263961" lon="11.4587558"><ele>574.6666666666667</ele><time>2026-04-04T10:07:03.886Z</time></trkpt><trkpt lat="44.0262732" lon="11.4586465"><ele>569.3333333333334</ele><time>2026-04-04T10:07:04.887Z</time></trkpt><trkpt lat="44.0261336" lon="11.4585749"><ele>564.0</ele><time>2026-04-04T10:07:05.888Z</time></trkpt><trkpt lat="44.0259764" lon="11.4585444"><ele>564.0</ele><time>2026-04-04T10:07:06.888Z</time></trkpt><trkpt lat="44.0258237" lon="11.4585394"><ele>564.0</ele><time>2026-04-04T10:07:07.888Z</time></trkpt><trkpt lat="44.0256849" lon="11.4585511"><ele>564.0</ele><time>2026-04-04T10:07:08.888Z</time></trkpt><trkpt lat="44.0255724" lon="11.4585613"><ele>564.0</ele><time>2026-04-04T10:07:09.888Z</time></trkpt><trkpt lat="44.0254918" lon="11.4585422"><ele>566.0</ele><time>2026-04-04T10:07:10.886Z</time></trkpt><trkpt lat="44.0254493" lon="11.458414"><ele>568.0</ele><time>2026-04-04T10:07:12.887Z</time></trkpt><trkpt lat="44.0254864" lon="11.4583318"><ele>570.0</ele><time>2026-04-04T10:07:13.887Z</time></trkpt><trkpt lat="44.0255554" lon="11.45823"><ele>572.0</ele><time>2026-04-04T10:07:14.888Z</time></trkpt><trkpt lat="44.025631" lon="11.4581072"><ele>574.0</ele><time>2026-04-04T10:07:15.888Z</time></trkpt><trkpt lat="44.0256735" lon="11.4579638"><ele>570.25</ele><time>2026-04-04T10:07:16.888Z</time></trkpt><trkpt lat="44.0256779" lon="11.4578013"><ele>566.5</ele><time>2026-04-04T10:07:17.887Z</time></trkpt><trkpt lat="44.025638" lon="11.4576394"><ele>562.75</ele><time>2026-04-04T10:07:18.888Z</time></trkpt><trkpt lat="44.0255559" lon="11.4575021"><ele>559.0</ele><time>2026-04-04T10:07:19.888Z</time></trkpt><trkpt lat="44.025446" lon="11.457406"><ele>559.0</ele><time>2026-04-04T10:07:20.887Z</time></trkpt><trkpt lat="44.0253002" lon="11.4573813"><ele>559.0</ele><time>2026-04-04T10:07:21.888Z</time></trkpt><trkpt lat="44.0251703" lon="11.4573766"><ele>559.0</ele><time>2026-04-04T10:07:22.888Z</time></trkpt><trkpt lat="44.0250468" lon="11.4573526"><ele>559.0</ele><time>2026-04-04T10:07:23.887Z</time></trkpt><trkpt lat="44.0249246" lon="11.4573352"><ele>562.0</ele><time>2026-04-04T10:07:24.888Z</time></trkpt><trkpt lat="44.0248118" lon="11.4572754"><ele>565.0</ele><time>2026-04-04T10:07:25.887Z</time></trkpt><trkpt lat="44.0248632" lon="11.4570437"><ele>568.0</ele><time>2026-04-04T10:07:26.887Z</time></trkpt><trkpt lat="44.0248641" lon="11.4569014"><ele>571.0</ele><time>2026-04-04T10:07:27.888Z</time></trkpt><trkpt lat="44.0249028" lon="11.4567188"><ele>571.0</ele><time>2026-04-04T10:07:28.888Z</time></trkpt><trkpt lat="44.0249305" lon="11.4565105"><ele>571.0</ele><time>2026-04-04T10:07:29.888Z</time></trkpt><trkpt lat="44.0249507" lon="11.4562938"><ele>571.0</ele><time>2026-04-04T10:07:30.887Z</time></trkpt><trkpt lat="44.0249579" lon="11.4560932"><ele>565.5</ele><time>2026-04-04T10:07:31.888Z</time></trkpt><trkpt lat="44.0249524" lon="11.4559048"><ele>560.0</ele><time>2026-04-04T10:07:32.887Z</time></trkpt><trkpt lat="44.024934" lon="11.455729"><ele>554.5</ele><time>2026-04-04T10:07:33.888Z</time></trkpt><trkpt lat="44.0248807" lon="11.4555799"><ele>549.0</ele><time>2026-04-04T10:07:34.888Z</time></trkpt><trkpt lat="44.0247834" lon="11.4554531"><ele>547.75</ele><time>2026-04-04T10:07:35.888Z</time></trkpt><trkpt lat="44.0246554" lon="11.4553712"><ele>546.5</ele><time>2026-04-04T10:07:36.888Z</time></trkpt><trkpt lat="44.0245083" lon="11.4553279"><ele>545.25</ele><time>2026-04-04T10:07:37.888Z</time></trkpt><trkpt lat="44.0243645" lon="11.4553082"><ele>544.0</ele><time>2026-04-04T10:07:38.888Z</time></trkpt><trkpt lat="44.0242331" lon="11.4552547"><ele>539.6666666666667</ele><time>2026-04-04T10:07:39.887Z</time></trkpt><trkpt lat="44.0241163" lon="11.4551597"><ele>535.3333333333334</ele><time>2026-04-04T10:07:40.887Z</time></trkpt><trkpt lat="44.0239992" lon="11.4550225"><ele>531.0</ele><time>2026-04-04T10:07:41.887Z</time></trkpt><trkpt lat="44.02387" lon="11.4548707"><ele>531.0</ele><time>2026-04-04T10:07:42.887Z</time></trkpt><trkpt lat="44.0237308" lon="11.4547063"><ele>531.0</ele><time>2026-04-04T10:07:43.887Z</time></trkpt><trkpt lat="44.0236056" lon="11.454547"><ele>531.0</ele><time>2026-04-04T10:07:44.887Z</time></trkpt><trkpt lat="44.0234922" lon="11.4543885"><ele>529.6666666666666</ele><time>2026-04-04T10:07:45.888Z</time></trkpt><trkpt lat="44.0233881" lon="11.4542227"><ele>528.3333333333333</ele><time>2026-04-04T10:07:46.887Z</time></trkpt><trkpt lat="44.0232994" lon="11.4540272"><ele>527.0</ele><time>2026-04-04T10:07:47.888Z</time></trkpt><trkpt lat="44.023221" lon="11.4538281"><ele>526.0</ele><time>2026-04-04T10:07:48.888Z</time></trkpt><trkpt lat="44.0231242" lon="11.4536525"><ele>525.0</ele><time>2026-04-04T10:07:49.888Z</time></trkpt><trkpt lat="44.0230007" lon="11.4535091"><ele>524.0</ele><time>2026-04-04T10:07:50.888Z</time></trkpt><trkpt lat="44.022853" lon="11.4534021"><ele>524.0</ele><time>2026-04-04T10:07:51.888Z</time></trkpt><trkpt lat="44.0226902" lon="11.4533363"><ele>524.0</ele><time>2026-04-04T10:07:52.888Z</time></trkpt><trkpt lat="44.022512" lon="11.4532788"><ele>524.0</ele><time>2026-04-04T10:07:53.888Z</time></trkpt><trkpt lat="44.0223241" lon="11.4532034"><ele>521.6666666666666</ele><time>2026-04-04T10:07:54.888Z</time></trkpt><trkpt lat="44.0221308" lon="11.4531128"><ele>519.3333333333334</ele><time>2026-04-04T10:07:55.888Z</time></trkpt><trkpt lat="44.0219355" lon="11.453044"><ele>517.0</ele><time>2026-04-04T10:07:56.888Z</time></trkpt><trkpt lat="44.0217401" lon="11.453006"><ele>516.3333333333334</ele><time>2026-04-04T10:07:57.887Z</time></trkpt><trkpt lat="44.0215514" lon="11.452968"><ele>515.6666666666666</ele><time>2026-04-04T10:07:58.888Z</time></trkpt><trkpt lat="44.0213775" lon="11.452904"><ele>515.0</ele><time>2026-04-04T10:07:59.886Z</time></trkpt><trkpt lat="44.0212127" lon="11.4528462"><ele>513.75</ele><time>2026-04-04T10:08:00.888Z</time></trkpt><trkpt lat="44.0210496" lon="11.4528243"><ele>512.5</ele><time>2026-04-04T10:08:01.888Z</time></trkpt><trkpt lat="44.0208953" lon="11.4528444"><ele>511.25</ele><time>2026-04-04T10:08:02.888Z</time></trkpt><trkpt lat="44.0207696" lon="11.4528609"><ele>510.0</ele><time>2026-04-04T10:08:03.887Z</time></trkpt><trkpt lat="44.0206491" lon="11.4528707"><ele>515.6666666666666</ele><time>2026-04-04T10:08:04.886Z</time></trkpt><trkpt lat="44.0205219" lon="11.4528074"><ele>521.3333333333333</ele><time>2026-04-04T10:08:05.886Z</time></trkpt><trkpt lat="44.0204442" lon="11.4527402"><ele>527.0</ele><time>2026-04-04T10:08:06.887Z</time></trkpt><trkpt lat="44.0205291" lon="11.4524471"><ele>527.0</ele><time>2026-04-04T10:08:07.887Z</time></trkpt><trkpt lat="44.0205089" lon="11.4522791"><ele>527.0</ele><time>2026-04-04T10:08:08.885Z</time></trkpt><trkpt lat="44.0205021" lon="11.4521105"><ele>527.0</ele><time>2026-04-04T10:08:09.886Z</time></trkpt><trkpt lat="44.0205196" lon="11.4519525"><ele>527.0</ele><time>2026-04-04T10:08:10.887Z</time></trkpt><trkpt lat="44.0205781" lon="11.4517853"><ele>527.0</ele><time>2026-04-04T10:08:11.887Z</time></trkpt><trkpt lat="44.0206702" lon="11.4516217"><ele>527.0</ele><time>2026-04-04T10:08:12.887Z</time></trkpt><trkpt lat="44.0207861" lon="11.4514308"><ele>527.0</ele><time>2026-04-04T10:08:13.887Z</time></trkpt><trkpt lat="44.0208943" lon="11.4512424"><ele>515.3333333333333</ele><time>2026-04-04T10:08:14.887Z</time></trkpt><trkpt lat="44.0209959" lon="11.45107"><ele>503.66666666666663</ele><time>2026-04-04T10:08:15.887Z</time></trkpt><trkpt lat="44.0210853" lon="11.4508994"><ele>492.0</ele><time>2026-04-04T10:08:16.887Z</time></trkpt><trkpt lat="44.0211493" lon="11.4507033"><ele>492.0</ele><time>2026-04-04T10:08:17.887Z</time></trkpt><trkpt lat="44.0211824" lon="11.4504999"><ele>492.0</ele><time>2026-04-04T10:08:18.886Z</time></trkpt><trkpt lat="44.0211956" lon="11.4503101"><ele>492.0</ele><time>2026-04-04T10:08:19.887Z</time></trkpt><trkpt lat="44.0211732" lon="11.4501439"><ele>492.0</ele><time>2026-04-04T10:08:20.887Z</time></trkpt><trkpt lat="44.0211128" lon="11.4500108"><ele>491.5</ele><time>2026-04-04T10:08:21.886Z</time></trkpt><trkpt lat="44.0210151" lon="11.449903"><ele>491.0</ele><time>2026-04-04T10:08:22.887Z</time></trkpt><trkpt lat="44.0209017" lon="11.4498246"><ele>490.5</ele><time>2026-04-04T10:08:23.886Z</time></trkpt><trkpt lat="44.0208029" lon="11.4497373"><ele>490.0</ele><time>2026-04-04T10:08:24.887Z</time></trkpt><trkpt lat="44.020719" lon="11.449615"><ele>490.0</ele><time>2026-04-04T10:08:25.887Z</time></trkpt><trkpt lat="44.0206529" lon="11.4494515"><ele>490.0</ele><time>2026-04-04T10:08:26.887Z</time></trkpt><trkpt lat="44.020596" lon="11.4492896"><ele>490.0</ele><time>2026-04-04T10:08:27.887Z</time></trkpt><trkpt lat="44.0205173" lon="11.4491513"><ele>490.0</ele><time>2026-04-04T10:08:28.885Z</time></trkpt><trkpt lat="44.0204084" lon="11.4490522"><ele>490.0</ele><time>2026-04-04T10:08:29.886Z</time></trkpt><trkpt lat="44.0202902" lon="11.4490026"><ele>490.0</ele><time>2026-04-04T10:08:30.887Z</time></trkpt><trkpt lat="44.020166" lon="11.4489906"><ele>490.0</ele><time>2026-04-04T10:08:31.885Z</time></trkpt><trkpt lat="44.020037" lon="11.448997"><ele>490.0</ele><time>2026-04-04T10:08:32.886Z</time></trkpt><trkpt lat="44.0199159" lon="11.4490045"><ele>488.0</ele><time>2026-04-04T10:08:33.886Z</time></trkpt><trkpt lat="44.0198098" lon="11.4490208"><ele>486.0</ele><time>2026-04-04T10:08:34.887Z</time></trkpt><trkpt lat="44.0197145" lon="11.4490322"><ele>484.0</ele><time>2026-04-04T10:08:35.885Z</time></trkpt><trkpt lat="44.0196261" lon="11.4490263"><ele>482.0</ele><time>2026-04-04T10:08:36.885Z</time></trkpt><trkpt lat="44.019533" lon="11.449002"><ele>480.0</ele><time>2026-04-04T10:08:37.887Z</time></trkpt><trkpt lat="44.0194293" lon="11.4489507"><ele>480.0</ele><time>2026-04-04T10:08:38.887Z</time></trkpt><trkpt lat="44.0193148" lon="11.4488671"><ele>480.0</ele><time>2026-04-04T10:08:39.886Z</time></trkpt><trkpt lat="44.0191915" lon="11.4487712"><ele>480.0</ele><time>2026-04-04T10:08:40.886Z</time></trkpt><trkpt lat="44.0190691" lon="11.4486997"><ele>480.0</ele><time>2026-04-04T10:08:41.886Z</time></trkpt><trkpt lat="44.0189485" lon="11.4486451"><ele>476.25</ele><time>2026-04-04T10:08:42.886Z</time></trkpt><trkpt lat="44.0188464" lon="11.448571"><ele>472.5</ele><time>2026-04-04T10:08:43.887Z</time></trkpt><trkpt lat="44.0187683" lon="11.4484617"><ele>468.75</ele><time>2026-04-04T10:08:44.886Z</time></trkpt><trkpt lat="44.0187196" lon="11.4483159"><ele>465.0</ele><time>2026-04-04T10:08:45.886Z</time></trkpt><trkpt lat="44.0186966" lon="11.4481422"><ele>469.5</ele><time>2026-04-04T10:08:46.886Z</time></trkpt><trkpt lat="44.0186769" lon="11.4479585"><ele>474.0</ele><time>2026-04-04T10:08:47.885Z</time></trkpt><trkpt lat="44.0186315" lon="11.4477829"><ele>478.5</ele><time>2026-04-04T10:08:48.887Z</time></trkpt><trkpt lat="44.0185628" lon="11.4476269"><ele>483.0</ele><time>2026-04-04T10:08:49.886Z</time></trkpt><trkpt lat="44.0184788" lon="11.447503"><ele>483.0</ele><time>2026-04-04T10:08:50.887Z</time></trkpt><trkpt lat="44.0183757" lon="11.4474266"><ele>483.0</ele><time>2026-04-04T10:08:51.886Z</time></trkpt><trkpt lat="44.0182564" lon="11.4474107"><ele>483.0</ele><time>2026-04-04T10:08:52.887Z</time></trkpt><trkpt lat="44.0181262" lon="11.4474466"><ele>483.0</ele><time>2026-04-04T10:08:53.887Z</time></trkpt><trkpt lat="44.0180086" lon="11.4475137"><ele>477.0</ele><time>2026-04-04T10:08:54.887Z</time></trkpt><trkpt lat="44.017894" lon="11.447566"><ele>471.0</ele><time>2026-04-04T10:08:55.886Z</time></trkpt><trkpt lat="44.0177727" lon="11.4475638"><ele>465.0</ele><time>2026-04-04T10:08:56.886Z</time></trkpt><trkpt lat="44.0176517" lon="11.4475029"><ele>459.0</ele><time>2026-04-04T10:08:57.886Z</time></trkpt><trkpt lat="44.017533" lon="11.4473949"><ele>456.0</ele><time>2026-04-04T10:08:58.887Z</time></trkpt><trkpt lat="44.0174113" lon="11.4472736"><ele>453.0</ele><time>2026-04-04T10:08:59.887Z</time></trkpt><trkpt lat="44.0172912" lon="11.4471697"><ele>450.0</ele><time>2026-04-04T10:09:00.887Z</time></trkpt><trkpt lat="44.0171716" lon="11.4470916"><ele>447.0</ele><time>2026-04-04T10:09:01.886Z</time></trkpt><trkpt lat="44.0170489" lon="11.4470689"><ele>447.0</ele><time>2026-04-04T10:09:02.887Z</time></trkpt><trkpt lat="44.0169292" lon="11.4471133"><ele>447.0</ele><time>2026-04-04T10:09:03.887Z</time></trkpt><trkpt lat="44.0168252" lon="11.4472045"><ele>447.0</ele><time>2026-04-04T10:09:04.886Z</time></trkpt><trkpt lat="44.0167264" lon="11.4472863"><ele>447.0</ele><time>2026-04-04T10:09:05.885Z</time></trkpt><trkpt lat="44.0166051" lon="11.4473176"><ele>446.5</ele><time>2026-04-04T10:09:06.886Z</time></trkpt><trkpt lat="44.0164607" lon="11.4473084"><ele>446.0</ele><time>2026-04-04T10:09:07.887Z</time></trkpt><trkpt lat="44.0163242" lon="11.4472896"><ele>445.5</ele><time>2026-04-04T10:09:08.887Z</time></trkpt><trkpt lat="44.0161962" lon="11.4472652"><ele>445.0</ele><time>2026-04-04T10:09:09.886Z</time></trkpt><trkpt lat="44.0160855" lon="11.4471932"><ele>446.6666666666667</ele><time>2026-04-04T10:09:10.887Z</time></trkpt><trkpt lat="44.0159787" lon="11.4470743"><ele>448.33333333333337</ele><time>2026-04-04T10:09:11.886Z</time></trkpt><trkpt lat="44.015895" lon="11.4468921"><ele>450.0</ele><time>2026-04-04T10:09:12.887Z</time></trkpt><trkpt lat="44.0157986" lon="11.4467168"><ele>450.0</ele><time>2026-04-04T10:09:13.886Z</time></trkpt><trkpt lat="44.015687" lon="11.4465656"><ele>450.0</ele><time>2026-04-04T10:09:14.887Z</time></trkpt><trkpt lat="44.0155645" lon="11.4464277"><ele>450.0</ele><time>2026-04-04T10:09:15.887Z</time></trkpt><trkpt lat="44.0154511" lon="11.446297"><ele>446.66666666666663</ele><time>2026-04-04T10:09:16.887Z</time></trkpt><trkpt lat="44.0153643" lon="11.446143"><ele>443.3333333333333</ele><time>2026-04-04T10:09:17.886Z</time></trkpt><trkpt lat="44.0152909" lon="11.4459583"><ele>440.0</ele><time>2026-04-04T10:09:18.886Z</time></trkpt><trkpt lat="44.0152211" lon="11.4457554"><ele>440.0</ele><time>2026-04-04T10:09:19.887Z</time></trkpt><trkpt lat="44.0151564" lon="11.445516"><ele>440.0</ele><time>2026-04-04T10:09:20.886Z</time></trkpt><trkpt lat="44.0151056" lon="11.4452729"><ele>440.0</ele><time>2026-04-04T10:09:21.886Z</time></trkpt><trkpt lat="44.0150544" lon="11.4450392"><ele>439.0</ele><time>2026-04-04T10:09:22.886Z</time></trkpt><trkpt lat="44.0150021" lon="11.4448123"><ele>438.0</ele><time>2026-04-04T10:09:23.886Z</time></trkpt><trkpt lat="44.0149417" lon="11.4445968"><ele>437.0</ele><time>2026-04-04T10:09:24.887Z</time></trkpt><trkpt lat="44.01487" lon="11.4443944"><ele>432.66666666666663</ele><time>2026-04-04T10:09:25.886Z</time></trkpt><trkpt lat="44.014795" lon="11.4442002"><ele>428.33333333333337</ele><time>2026-04-04T10:09:26.886Z</time></trkpt><trkpt lat="44.0147283" lon="11.4440087"><ele>424.0</ele><time>2026-04-04T10:09:27.887Z</time></trkpt><trkpt lat="44.0146771" lon="11.4438166"><ele>422.5</ele><time>2026-04-04T10:09:28.886Z</time></trkpt><trkpt lat="44.0146439" lon="11.4436292"><ele>421.0</ele><time>2026-04-04T10:09:29.887Z</time></trkpt><trkpt lat="44.014616" lon="11.4434514"><ele>419.5</ele><time>2026-04-04T10:09:30.887Z</time></trkpt><trkpt lat="44.0145743" lon="11.4433058"><ele>418.0</ele><time>2026-04-04T10:09:31.887Z</time></trkpt><trkpt lat="44.01451" lon="11.4431958"><ele>418.0</ele><time>2026-04-04T10:09:32.887Z</time></trkpt><trkpt lat="44.0144261" lon="11.4431291"><ele>418.0</ele><time>2026-04-04T10:09:33.887Z</time></trkpt><trkpt lat="44.0143249" lon="11.4431074"><ele>418.0</ele><time>2026-04-04T10:09:34.886Z</time></trkpt><trkpt lat="44.0142196" lon="11.4431422"><ele>418.0</ele><time>2026-04-04T10:09:35.886Z</time></trkpt><trkpt lat="44.0141244" lon="11.4432036"><ele>418.0</ele><time>2026-04-04T10:09:36.886Z</time></trkpt><trkpt lat="44.0140211" lon="11.4432854"><ele>417.79999999999995</ele><time>2026-04-04T10:09:37.886Z</time></trkpt><trkpt lat="44.0139035" lon="11.443364"><ele>417.6</ele><time>2026-04-04T10:09:38.887Z</time></trkpt><trkpt lat="44.0137897" lon="11.4434173"><ele>417.4</ele><time>2026-04-04T10:09:39.887Z</time></trkpt><trkpt lat="44.0136864" lon="11.4434418"><ele>417.20000000000005</ele><time>2026-04-04T10:09:40.886Z</time></trkpt><trkpt lat="44.0135932" lon="11.4434288"><ele>417.0</ele><time>2026-04-04T10:09:41.887Z</time></trkpt><trkpt lat="44.0135065" lon="11.4433852"><ele>417.0</ele><time>2026-04-04T10:09:42.887Z</time></trkpt><trkpt lat="44.0134413" lon="11.4433261"><ele>417.0</ele><time>2026-04-04T10:09:43.886Z</time></trkpt><trkpt lat="44.013398" lon="11.4432575"><ele>417.0</ele><time>2026-04-04T10:09:44.886Z</time></trkpt><trkpt lat="44.0133453" lon="11.4431267"><ele>417.0</ele><time>2026-04-04T10:09:45.887Z</time></trkpt><trkpt lat="44.0132994" lon="11.4429546"><ele>417.0</ele><time>2026-04-04T10:09:46.887Z</time></trkpt><trkpt lat="44.0132587" lon="11.442756"><ele>413.66666666666663</ele><time>2026-04-04T10:09:47.887Z</time></trkpt><trkpt lat="44.0132229" lon="11.4425146"><ele>410.3333333333333</ele><time>2026-04-04T10:09:48.887Z</time></trkpt><trkpt lat="44.0132013" lon="11.4422555"><ele>407.0</ele><time>2026-04-04T10:09:49.886Z</time></trkpt><trkpt lat="44.0131833" lon="11.4419796"><ele>405.0</ele><time>2026-04-04T10:09:50.887Z</time></trkpt><trkpt lat="44.0131466" lon="11.4417345"><ele>403.0</ele><time>2026-04-04T10:09:51.887Z</time></trkpt><trkpt lat="44.0130973" lon="11.4414989"><ele>401.0</ele><time>2026-04-04T10:09:52.886Z</time></trkpt><trkpt lat="44.0130633" lon="11.4412577"><ele>399.66666666666663</ele><time>2026-04-04T10:09:53.886Z</time></trkpt><trkpt lat="44.0130469" lon="11.4409977"><ele>398.33333333333337</ele><time>2026-04-04T10:09:54.887Z</time></trkpt><trkpt lat="44.0130284" lon="11.4407326"><ele>397.0</ele><time>2026-04-04T10:09:55.887Z</time></trkpt><trkpt lat="44.0129901" lon="11.4404678"><ele>397.33333333333337</ele><time>2026-04-04T10:09:56.887Z</time></trkpt><trkpt lat="44.0129376" lon="11.4402209"><ele>397.66666666666663</ele><time>2026-04-04T10:09:57.885Z</time></trkpt><trkpt lat="44.0128833" lon="11.4399993"><ele>398.0</ele><time>2026-04-04T10:09:58.885Z</time></trkpt><trkpt lat="44.012837" lon="11.439818"><ele>398.0</ele><time>2026-04-04T10:09:59.887Z</time></trkpt><trkpt lat="44.0127798" lon="11.4396767"><ele>398.0</ele><time>2026-04-04T10:10:00.887Z</time></trkpt><trkpt lat="44.0126916" lon="11.439583"><ele>398.0</ele><time>2026-04-04T10:10:01.887Z</time></trkpt><trkpt lat="44.0125864" lon="11.4395444"><ele>398.0</ele><time>2026-04-04T10:10:02.886Z</time></trkpt><trkpt lat="44.0124787" lon="11.4395331"><ele>398.0</ele><time>2026-04-04T10:10:03.886Z</time></trkpt><trkpt lat="44.0123777" lon="11.4394703"><ele>396.0</ele><time>2026-04-04T10:10:04.887Z</time></trkpt><trkpt lat="44.0122888" lon="11.4393518"><ele>394.0</ele><time>2026-04-04T10:10:05.886Z</time></trkpt><trkpt lat="44.0122163" lon="11.4391817"><ele>392.0</ele><time>2026-04-04T10:10:06.886Z</time></trkpt><trkpt lat="44.0121519" lon="11.4389896"><ele>390.0</ele><time>2026-04-04T10:10:07.887Z</time></trkpt><trkpt lat="44.0120719" lon="11.4388021"><ele>392.33333333333337</ele><time>2026-04-04T10:10:08.886Z</time></trkpt><trkpt lat="44.0119671" lon="11.4386372"><ele>394.6666666666667</ele><time>2026-04-04T10:10:09.886Z</time></trkpt><trkpt lat="44.0118395" lon="11.4385105"><ele>397.0</ele><time>2026-04-04T10:10:10.887Z</time></trkpt><trkpt lat="44.0117085" lon="11.4383956"><ele>393.0</ele><time>2026-04-04T10:10:11.887Z</time></trkpt><trkpt lat="44.0115769" lon="11.4382552"><ele>389.0</ele><time>2026-04-04T10:10:12.887Z</time></trkpt><trkpt lat="44.0114343" lon="11.4381172"><ele>385.0</ele><time>2026-04-04T10:10:13.886Z</time></trkpt><trkpt lat="44.0112881" lon="11.4380019"><ele>387.6666666666667</ele><time>2026-04-04T10:10:14.886Z</time></trkpt><trkpt lat="44.0111499" lon="11.4378905"><ele>390.33333333333337</ele><time>2026-04-04T10:10:15.886Z</time></trkpt><trkpt lat="44.0110193" lon="11.4377875"><ele>393.0</ele><time>2026-04-04T10:10:16.887Z</time></trkpt><trkpt lat="44.0108973" lon="11.4376844"><ele>390.25</ele><time>2026-04-04T10:10:17.887Z</time></trkpt><trkpt lat="44.0107855" lon="11.4375747"><ele>387.5</ele><time>2026-04-04T10:10:18.886Z</time></trkpt><trkpt lat="44.0106732" lon="11.4374513"><ele>384.75</ele><time>2026-04-04T10:10:19.887Z</time></trkpt><trkpt lat="44.010561" lon="11.4373217"><ele>382.0</ele><time>2026-04-04T10:10:20.885Z</time></trkpt><trkpt lat="44.01045" lon="11.4371864"><ele>383.0</ele><time>2026-04-04T10:10:21.887Z</time></trkpt><trkpt lat="44.0103444" lon="11.4370431"><ele>384.0</ele><time>2026-04-04T10:10:22.887Z</time></trkpt><trkpt lat="44.0102491" lon="11.4369064"><ele>385.0</ele><time>2026-04-04T10:10:23.887Z</time></trkpt><trkpt lat="44.0101513" lon="11.4367786"><ele>386.0</ele><time>2026-04-04T10:10:24.886Z</time></trkpt><trkpt lat="44.0100369" lon="11.4366697"><ele>383.3333333333333</ele><time>2026-04-04T10:10:25.887Z</time></trkpt><trkpt lat="44.009893" lon="11.4365963"><ele>380.66666666666663</ele><time>2026-04-04T10:10:26.887Z</time></trkpt><trkpt lat="44.009739" lon="11.4365376"><ele>378.0</ele><time>2026-04-04T10:10:27.886Z</time></trkpt><trkpt lat="44.0095949" lon="11.4364871"><ele>378.0</ele><time>2026-04-04T10:10:28.887Z</time></trkpt><trkpt lat="44.009466" lon="11.436428"><ele>378.0</ele><time>2026-04-04T10:10:29.886Z</time></trkpt><trkpt lat="44.0093467" lon="11.4363507"><ele>378.0</ele><time>2026-04-04T10:10:30.886Z</time></trkpt><trkpt lat="44.009237" lon="11.4362676"><ele>378.0</ele><time>2026-04-04T10:10:31.886Z</time></trkpt><trkpt lat="44.0091333" lon="11.4361914"><ele>377.4</ele><time>2026-04-04T10:10:32.887Z</time></trkpt><trkpt lat="44.0090331" lon="11.4361227"><ele>376.79999999999995</ele><time>2026-04-04T10:10:33.887Z</time></trkpt><trkpt lat="44.0089386" lon="11.4360591"><ele>376.2</ele><time>2026-04-04T10:10:34.887Z</time></trkpt><trkpt lat="44.0088505" lon="11.4359974"><ele>375.6</ele><time>2026-04-04T10:10:35.886Z</time></trkpt><trkpt lat="44.0087603" lon="11.4359342"><ele>375.0</ele><time>2026-04-04T10:10:36.886Z</time></trkpt><trkpt lat="44.0086741" lon="11.4358733"><ele>375.0</ele><time>2026-04-04T10:10:37.887Z</time></trkpt><trkpt lat="44.0085906" lon="11.4358132"><ele>375.0</ele><time>2026-04-04T10:10:38.887Z</time></trkpt><trkpt lat="44.0085071" lon="11.4357475"><ele>375.0</ele><time>2026-04-04T10:10:39.887Z</time></trkpt><trkpt lat="44.0084255" lon="11.4356768"><ele>375.0</ele><time>2026-04-04T10:10:40.886Z</time></trkpt><trkpt lat="44.0083457" lon="11.4356003"><ele>375.0</ele><time>2026-04-04T10:10:41.886Z</time></trkpt><trkpt lat="44.0082736" lon="11.4355126"><ele>373.6</ele><time>2026-04-04T10:10:42.887Z</time></trkpt><trkpt lat="44.0082026" lon="11.4354232"><ele>372.2</ele><time>2026-04-04T10:10:43.886Z</time></trkpt><trkpt lat="44.0081282" lon="11.435337"><ele>370.79999999999995</ele><time>2026-04-04T10:10:44.886Z</time></trkpt><trkpt lat="44.0080508" lon="11.4352526"><ele>369.4</ele><time>2026-04-04T10:10:45.886Z</time></trkpt><trkpt lat="44.0079746" lon="11.4351648"><ele>368.0</ele><time>2026-04-04T10:10:46.887Z</time></trkpt><trkpt lat="44.0078992" lon="11.435076"><ele>368.0</ele><time>2026-04-04T10:10:47.885Z</time></trkpt><trkpt lat="44.0078222" lon="11.434981"><ele>368.0</ele><time>2026-04-04T10:10:48.887Z</time></trkpt><trkpt lat="44.0077394" lon="11.4348791"><ele>368.0</ele><time>2026-04-04T10:10:49.887Z</time></trkpt><trkpt lat="44.0076519" lon="11.4347728"><ele>368.0</ele><time>2026-04-04T10:10:50.887Z</time></trkpt><trkpt lat="44.0075606" lon="11.4346584"><ele>366.75</ele><time>2026-04-04T10:10:51.886Z</time></trkpt><trkpt lat="44.0074695" lon="11.4345481"><ele>365.5</ele><time>2026-04-04T10:10:52.886Z</time></trkpt><trkpt lat="44.0073802" lon="11.4344375"><ele>364.25</ele><time>2026-04-04T10:10:53.887Z</time></trkpt><trkpt lat="44.0072893" lon="11.4343285"><ele>363.0</ele><time>2026-04-04T10:10:54.887Z</time></trkpt><trkpt lat="44.0071965" lon="11.4342162"><ele>363.0</ele><time>2026-04-04T10:10:55.885Z</time></trkpt><trkpt lat="44.0071022" lon="11.4341048"><ele>363.0</ele><time>2026-04-04T10:10:56.886Z</time></trkpt><trkpt lat="44.0070109" lon="11.4339942"><ele>363.0</ele><time>2026-04-04T10:10:57.886Z</time></trkpt><trkpt lat="44.0069213" lon="11.4338869"><ele>363.0</ele><time>2026-04-04T10:10:58.886Z</time></trkpt><trkpt lat="44.0068273" lon="11.4337757"><ele>363.0</ele><time>2026-04-04T10:10:59.887Z</time></trkpt><trkpt lat="44.0067275" lon="11.4336564"><ele>363.0</ele><time>2026-04-04T10:11:00.885Z</time></trkpt><trkpt lat="44.0066277" lon="11.4335324"><ele>363.0</ele><time>2026-04-04T10:11:01.887Z</time></trkpt><trkpt lat="44.0065292" lon="11.4334049"><ele>363.0</ele><time>2026-04-04T10:11:02.887Z</time></trkpt><trkpt lat="44.0064318" lon="11.4332812"><ele>363.0</ele><time>2026-04-04T10:11:03.886Z</time></trkpt><trkpt lat="44.0063358" lon="11.4331497"><ele>363.0</ele><time>2026-04-04T10:11:04.887Z</time></trkpt><trkpt lat="44.0062422" lon="11.4330162"><ele>363.0</ele><time>2026-04-04T10:11:05.886Z</time></trkpt><trkpt lat="44.0061496" lon="11.4328832"><ele>363.0</ele><time>2026-04-04T10:11:06.887Z</time></trkpt><trkpt lat="44.0060595" lon="11.4327507"><ele>362.5</ele><time>2026-04-04T10:11:07.885Z</time></trkpt><trkpt lat="44.0059654" lon="11.4326136"><ele>362.0</ele><time>2026-04-04T10:11:08.887Z</time></trkpt><trkpt lat="44.005871" lon="11.4324779"><ele>361.5</ele><time>2026-04-04T10:11:09.887Z</time></trkpt><trkpt lat="44.0057729" lon="11.4323409"><ele>361.0</ele><time>2026-04-04T10:11:10.887Z</time></trkpt><trkpt lat="44.0056786" lon="11.4321995"><ele>361.75</ele><time>2026-04-04T10:11:11.887Z</time></trkpt><trkpt lat="44.0055825" lon="11.4320574"><ele>362.5</ele><time>2026-04-04T10:11:12.886Z</time></trkpt><trkpt lat="44.0054837" lon="11.4319268"><ele>363.25</ele><time>2026-04-04T10:11:13.886Z</time></trkpt><trkpt lat="44.0053791" lon="11.4317923"><ele>364.0</ele><time>2026-04-04T10:11:14.885Z</time></trkpt><trkpt lat="44.0052848" lon="11.4316537"><ele>364.0</ele><time>2026-04-04T10:11:15.884Z</time></trkpt><trkpt lat="44.0051883" lon="11.4315087"><ele>364.0</ele><time>2026-04-04T10:11:16.885Z</time></trkpt><trkpt lat="44.0050902" lon="11.4313665"><ele>364.0</ele><time>2026-04-04T10:11:17.886Z</time></trkpt><trkpt lat="44.004991" lon="11.4312258"><ele>364.0</ele><time>2026-04-04T10:11:18.886Z</time></trkpt><trkpt lat="44.0048948" lon="11.4310956"><ele>363.0</ele><time>2026-04-04T10:11:19.885Z</time></trkpt><trkpt lat="44.0048056" lon="11.4309735"><ele>362.0</ele><time>2026-04-04T10:11:20.885Z</time></trkpt><trkpt lat="44.0047214" lon="11.4308601"><ele>361.0</ele><time>2026-04-04T10:11:21.885Z</time></trkpt><trkpt lat="44.0046417" lon="11.4307433"><ele>360.0</ele><time>2026-04-04T10:11:22.885Z</time></trkpt><trkpt lat="44.0045638" lon="11.430619"><ele>360.0</ele><time>2026-04-04T10:11:23.885Z</time></trkpt><trkpt lat="44.0044808" lon="11.4304947"><ele>360.0</ele><time>2026-04-04T10:11:24.885Z</time></trkpt><trkpt lat="44.0043937" lon="11.4303694"><ele>360.0</ele><time>2026-04-04T10:11:25.886Z</time></trkpt><trkpt lat="44.0042982" lon="11.4302356"><ele>360.0</ele><time>2026-04-04T10:11:26.885Z</time></trkpt><trkpt lat="44.0042054" lon="11.4301038"><ele>359.6</ele><time>2026-04-04T10:11:27.886Z</time></trkpt><trkpt lat="44.0041139" lon="11.4299815"><ele>359.2</ele><time>2026-04-04T10:11:28.884Z</time></trkpt><trkpt lat="44.0040339" lon="11.4298556"><ele>358.79999999999995</ele><time>2026-04-04T10:11:29.886Z</time></trkpt><trkpt lat="44.0039604" lon="11.4297376"><ele>358.4</ele><time>2026-04-04T10:11:30.885Z</time></trkpt><trkpt lat="44.0039003" lon="11.4296457"><ele>358.0</ele><time>2026-04-04T10:11:31.886Z</time></trkpt><trkpt lat="44.0038477" lon="11.4295562"><ele>358.0</ele><time>2026-04-04T10:11:32.886Z</time></trkpt><trkpt lat="44.0037855" lon="11.4294305"><ele>358.0</ele><time>2026-04-04T10:11:34.886Z</time></trkpt><trkpt lat="44.0037541" lon="11.4293361"><ele>358.0</ele><time>2026-04-04T10:11:36.885Z</time></trkpt><trkpt lat="44.0037381" lon="11.4291922"><ele>358.0</ele><time>2026-04-04T10:11:38.885Z</time></trkpt><trkpt lat="44.0037248" lon="11.4290947"><ele>358.0</ele><time>2026-04-04T10:11:39.886Z</time></trkpt><trkpt lat="44.0037048" lon="11.4289731"><ele>358.0</ele><time>2026-04-04T10:11:40.885Z</time></trkpt><trkpt lat="44.0036804" lon="11.4288327"><ele>358.0</ele><time>2026-04-04T10:11:41.885Z</time></trkpt><trkpt lat="44.0036487" lon="11.4286696"><ele>358.0</ele><time>2026-04-04T10:11:42.886Z</time></trkpt><trkpt lat="44.0036023" lon="11.4284919"><ele>358.0</ele><time>2026-04-04T10:11:43.885Z</time></trkpt><trkpt lat="44.00354" lon="11.4283298"><ele>357.5</ele><time>2026-04-04T10:11:44.886Z</time></trkpt><trkpt lat="44.0034654" lon="11.4281857"><ele>357.0</ele><time>2026-04-04T10:11:45.886Z</time></trkpt><trkpt lat="44.0033869" lon="11.4280655"><ele>356.5</ele><time>2026-04-04T10:11:46.886Z</time></trkpt><trkpt lat="44.0032916" lon="11.4279809"><ele>356.0</ele><time>2026-04-04T10:11:47.885Z</time></trkpt><trkpt lat="44.0031828" lon="11.4279188"><ele>359.8</ele><time>2026-04-04T10:11:48.885Z</time></trkpt><trkpt lat="44.0030726" lon="11.4278739"><ele>363.6</ele><time>2026-04-04T10:11:49.886Z</time></trkpt><trkpt lat="44.0029684" lon="11.427852"><ele>367.4</ele><time>2026-04-04T10:11:50.886Z</time></trkpt><trkpt lat="44.0028735" lon="11.4278505"><ele>371.2</ele><time>2026-04-04T10:11:51.885Z</time></trkpt><trkpt lat="44.002788" lon="11.4278499"><ele>375.0</ele><time>2026-04-04T10:11:52.886Z</time></trkpt><trkpt lat="44.002713" lon="11.4278176"><ele>375.0</ele><time>2026-04-04T10:11:53.886Z</time></trkpt><trkpt lat="44.0026377" lon="11.4277548"><ele>375.0</ele><time>2026-04-04T10:11:54.885Z</time></trkpt><trkpt lat="44.0025674" lon="11.4276599"><ele>375.0</ele><time>2026-04-04T10:11:55.885Z</time></trkpt><trkpt lat="44.0025016" lon="11.4275528"><ele>375.0</ele><time>2026-04-04T10:11:56.886Z</time></trkpt><trkpt lat="44.0024401" lon="11.4274478"><ele>375.0</ele><time>2026-04-04T10:11:57.886Z</time></trkpt><trkpt lat="44.0023603" lon="11.4273628"><ele>375.0</ele><time>2026-04-04T10:11:58.886Z</time></trkpt><trkpt lat="44.0022606" lon="11.4273065"><ele>375.0</ele><time>2026-04-04T10:11:59.886Z</time></trkpt><trkpt lat="44.0021509" lon="11.4272723"><ele>375.0</ele><time>2026-04-04T10:12:00.885Z</time></trkpt><trkpt lat="44.0020387" lon="11.4272357"><ele>375.0</ele><time>2026-04-04T10:12:01.886Z</time></trkpt><trkpt lat="44.0019322" lon="11.427195"><ele>375.0</ele><time>2026-04-04T10:12:02.886Z</time></trkpt><trkpt lat="44.0018314" lon="11.4271402"><ele>375.0</ele><time>2026-04-04T10:12:03.884Z</time></trkpt><trkpt lat="44.0017293" lon="11.4270754"><ele>375.0</ele><time>2026-04-04T10:12:04.886Z</time></trkpt><trkpt lat="44.0016291" lon="11.4269946"><ele>375.0</ele><time>2026-04-04T10:12:05.885Z</time></trkpt><trkpt lat="44.0015307" lon="11.4268966"><ele>375.0</ele><time>2026-04-04T10:12:06.885Z</time></trkpt><trkpt lat="44.0014258" lon="11.4267923"><ele>368.0</ele><time>2026-04-04T10:12:07.886Z</time></trkpt><trkpt lat="44.0013098" lon="11.426696"><ele>361.0</ele><time>2026-04-04T10:12:08.886Z</time></trkpt><trkpt lat="44.0011677" lon="11.4266123"><ele>354.0</ele><time>2026-04-04T10:12:09.885Z</time></trkpt><trkpt lat="44.0010043" lon="11.4265325"><ele>355.0</ele><time>2026-04-04T10:12:10.886Z</time></trkpt><trkpt lat="44.0008253" lon="11.42643"><ele>356.0</ele><time>2026-04-04T10:12:11.884Z</time></trkpt><trkpt lat="44.000642" lon="11.4263038"><ele>357.0</ele><time>2026-04-04T10:12:12.885Z</time></trkpt><trkpt lat="44.000455" lon="11.4261748"><ele>357.0</ele><time>2026-04-04T10:12:13.885Z</time></trkpt><trkpt lat="44.0002767" lon="11.4260648"><ele>357.0</ele><time>2026-04-04T10:12:14.885Z</time></trkpt><trkpt lat="44.0001159" lon="11.4259598"><ele>357.0</ele><time>2026-04-04T10:12:15.885Z</time></trkpt><trkpt lat="43.9999781" lon="11.4258565"><ele>357.0</ele><time>2026-04-04T10:12:16.885Z</time></trkpt><trkpt lat="43.9998694" lon="11.4257334"><ele>357.0</ele><time>2026-04-04T10:12:17.886Z</time></trkpt><trkpt lat="43.9997922" lon="11.4255844"><ele>357.0</ele><time>2026-04-04T10:12:18.885Z</time></trkpt><trkpt lat="43.9997356" lon="11.4254368"><ele>357.0</ele><time>2026-04-04T10:12:19.886Z</time></trkpt><trkpt lat="43.9997053" lon="11.4252975"><ele>358.20000000000005</ele><time>2026-04-04T10:12:20.885Z</time></trkpt><trkpt lat="43.99971" lon="11.4251726"><ele>359.4</ele><time>2026-04-04T10:12:21.886Z</time></trkpt><trkpt lat="43.9997445" lon="11.4250298"><ele>360.6</ele><time>2026-04-04T10:12:22.886Z</time></trkpt><trkpt lat="43.999793" lon="11.4248761"><ele>361.79999999999995</ele><time>2026-04-04T10:12:23.885Z</time></trkpt><trkpt lat="43.9998388" lon="11.4247245"><ele>363.0</ele><time>2026-04-04T10:12:24.885Z</time></trkpt><trkpt lat="43.9998785" lon="11.4245978"><ele>363.8333333333333</ele><time>2026-04-04T10:12:25.886Z</time></trkpt><trkpt lat="43.9999146" lon="11.4245057"><ele>364.6666666666667</ele><time>2026-04-04T10:12:26.886Z</time></trkpt><trkpt lat="43.9999482" lon="11.4244295"><ele>365.5</ele><time>2026-04-04T10:12:27.886Z</time></trkpt><trkpt lat="43.999956" lon="11.4243399"><ele>366.33333333333337</ele><time>2026-04-04T10:12:28.885Z</time></trkpt><trkpt lat="43.9999436" lon="11.4242367"><ele>367.1666666666667</ele><time>2026-04-04T10:12:29.886Z</time></trkpt><trkpt lat="43.9999345" lon="11.424112"><ele>368.0</ele><time>2026-04-04T10:12:30.886Z</time></trkpt><trkpt lat="43.9999277" lon="11.4239666"><ele>369.5</ele><time>2026-04-04T10:12:31.886Z</time></trkpt><trkpt lat="43.9999197" lon="11.4238052"><ele>371.0</ele><time>2026-04-04T10:12:32.886Z</time></trkpt><trkpt lat="43.9999081" lon="11.4236395"><ele>372.5</ele><time>2026-04-04T10:12:33.886Z</time></trkpt><trkpt lat="43.9998949" lon="11.4234701"><ele>374.0</ele><time>2026-04-04T10:12:34.885Z</time></trkpt><trkpt lat="43.9998624" lon="11.4232941"><ele>374.0</ele><time>2026-04-04T10:12:35.886Z</time></trkpt><trkpt lat="43.999818" lon="11.4231272"><ele>374.0</ele><time>2026-04-04T10:12:36.886Z</time></trkpt><trkpt lat="43.99977" lon="11.422965"><ele>374.0</ele><time>2026-04-04T10:12:37.885Z</time></trkpt><trkpt lat="43.999728" lon="11.4228131"><ele>374.0</ele><time>2026-04-04T10:12:38.885Z</time></trkpt><trkpt lat="43.9996887" lon="11.4226696"><ele>374.1666666666667</ele><time>2026-04-04T10:12:39.886Z</time></trkpt><trkpt lat="43.9996547" lon="11.422532"><ele>374.33333333333337</ele><time>2026-04-04T10:12:40.886Z</time></trkpt><trkpt lat="43.9996317" lon="11.4224082"><ele>374.5</ele><time>2026-04-04T10:12:41.885Z</time></trkpt><trkpt lat="43.9996133" lon="11.4222961"><ele>374.6666666666667</ele><time>2026-04-04T10:12:42.886Z</time></trkpt><trkpt lat="43.9995928" lon="11.4221988"><ele>374.8333333333333</ele><time>2026-04-04T10:12:43.886Z</time></trkpt><trkpt lat="43.9995715" lon="11.4221105"><ele>375.0</ele><time>2026-04-04T10:12:44.886Z</time></trkpt><trkpt lat="43.9995407" lon="11.4220341"><ele>374.6666666666667</ele><time>2026-04-04T10:12:45.885Z</time></trkpt><trkpt lat="43.9994985" lon="11.4219601"><ele>374.3333333333333</ele><time>2026-04-04T10:12:46.886Z</time></trkpt><trkpt lat="43.9994535" lon="11.4218986"><ele>374.0</ele><time>2026-04-04T10:12:47.885Z</time></trkpt><trkpt lat="43.9993709" lon="11.4217593"><ele>373.66666666666663</ele><time>2026-04-04T10:12:49.885Z</time></trkpt><trkpt lat="43.9993273" lon="11.4216814"><ele>373.3333333333333</ele><time>2026-04-04T10:12:50.886Z</time></trkpt><trkpt lat="43.9992694" lon="11.4216021"><ele>373.0</ele><time>2026-04-04T10:12:51.886Z</time></trkpt><trkpt lat="43.9992123" lon="11.4215289"><ele>373.0</ele><time>2026-04-04T10:12:52.886Z</time></trkpt><trkpt lat="43.9991712" lon="11.4214424"><ele>373.0</ele><time>2026-04-04T10:12:53.886Z</time></trkpt><trkpt lat="43.999124" lon="11.4213695"><ele>373.0</ele><time>2026-04-04T10:12:54.885Z</time></trkpt><trkpt lat="43.9990767" lon="11.4212916"><ele>373.0</ele><time>2026-04-04T10:12:55.885Z</time></trkpt><trkpt lat="43.9990329" lon="11.4212164"><ele>373.0</ele><time>2026-04-04T10:12:56.886Z</time></trkpt><trkpt lat="43.9989831" lon="11.4211402"><ele>373.0</ele><time>2026-04-04T10:12:57.886Z</time></trkpt><trkpt lat="43.9989329" lon="11.4210672"><ele>373.0</ele><time>2026-04-04T10:12:58.885Z</time></trkpt><trkpt lat="43.9988861" lon="11.4209891"><ele>371.0</ele><time>2026-04-04T10:12:59.886Z</time></trkpt><trkpt lat="43.9988414" lon="11.4209047"><ele>369.0</ele><time>2026-04-04T10:13:00.885Z</time></trkpt><trkpt lat="43.9988069" lon="11.4207942"><ele>367.0</ele><time>2026-04-04T10:13:01.885Z</time></trkpt><trkpt lat="43.998791" lon="11.4206699"><ele>365.0</ele><time>2026-04-04T10:13:02.886Z</time></trkpt><trkpt lat="43.9988041" lon="11.4205295"><ele>363.0</ele><time>2026-04-04T10:13:03.884Z</time></trkpt><trkpt lat="43.9988335" lon="11.4203688"><ele>362.6666666666667</ele><time>2026-04-04T10:13:04.885Z</time></trkpt><trkpt lat="43.9988828" lon="11.4201822"><ele>362.33333333333337</ele><time>2026-04-04T10:13:05.885Z</time></trkpt><trkpt lat="43.9989461" lon="11.4199756"><ele>362.0</ele><time>2026-04-04T10:13:06.886Z</time></trkpt><trkpt lat="43.9990102" lon="11.4197891"><ele>361.8</ele><time>2026-04-04T10:13:07.886Z</time></trkpt><trkpt lat="43.9990662" lon="11.4196275"><ele>361.6</ele><time>2026-04-04T10:13:08.885Z</time></trkpt><trkpt lat="43.9991157" lon="11.4194813"><ele>361.40000000000003</ele><time>2026-04-04T10:13:09.886Z</time></trkpt><trkpt lat="43.9991565" lon="11.4193561"><ele>361.20000000000005</ele><time>2026-04-04T10:13:10.885Z</time></trkpt><trkpt lat="43.9991938" lon="11.4192452"><ele>361.0</ele><time>2026-04-04T10:13:11.884Z</time></trkpt><trkpt lat="43.999223" lon="11.4191606"><ele>361.0</ele><time>2026-04-04T10:13:12.886Z</time></trkpt><trkpt lat="43.9992528" lon="11.4190777"><ele>361.0</ele><time>2026-04-04T10:13:15.885Z</time></trkpt><trkpt lat="43.999271" lon="11.4189937"><ele>361.0</ele><time>2026-04-04T10:13:33.886Z</time></trkpt><trkpt lat="43.9992571" lon="11.4188682"><ele>361.0</ele><time>2026-04-04T10:13:36.886Z</time></trkpt><trkpt lat="43.9992441" lon="11.4187332"><ele>361.0</ele><time>2026-04-04T10:13:38.886Z</time></trkpt><trkpt lat="43.9992184" lon="11.4186103"><ele>361.0</ele><time>2026-04-04T10:13:40.886Z</time></trkpt><trkpt lat="43.9991384" lon="11.4185191"><ele>360.0</ele><time>2026-04-04T10:13:42.886Z</time></trkpt><trkpt lat="43.9990772" lon="11.418457"><ele>359.0</ele><time>2026-04-04T10:13:44.885Z</time></trkpt><trkpt lat="43.9989799" lon="11.4183862"><ele>358.0</ele><time>2026-04-04T10:13:46.886Z</time></trkpt><trkpt lat="43.9988798" lon="11.418295"><ele>357.0</ele><time>2026-04-04T10:13:48.885Z</time></trkpt><trkpt lat="43.9988326" lon="11.4182356"><ele>356.0</ele><time>2026-04-04T10:13:49.884Z</time></trkpt><trkpt lat="43.998785" lon="11.4181714"><ele>355.0</ele><time>2026-04-04T10:13:50.884Z</time></trkpt><trkpt lat="43.9987044" lon="11.4180452"><ele>354.5</ele><time>2026-04-04T10:13:52.886Z</time></trkpt><trkpt lat="43.9986214" lon="11.4179239"><ele>354.0</ele><time>2026-04-04T10:13:54.886Z</time></trkpt><trkpt lat="43.9985527" lon="11.4177857"><ele>353.5</ele><time>2026-04-04T10:13:56.886Z</time></trkpt><trkpt lat="43.9984981" lon="11.4176533"><ele>353.0</ele><time>2026-04-04T10:13:58.885Z</time></trkpt><trkpt lat="43.9984317" lon="11.417544"><ele>353.0</ele><time>2026-04-04T10:14:00.885Z</time></trkpt><trkpt lat="43.9983467" lon="11.4174765"><ele>353.0</ele><time>2026-04-04T10:14:02.886Z</time></trkpt><trkpt lat="43.9982797" lon="11.4174322"><ele>353.0</ele><time>2026-04-04T10:14:05.885Z</time></trkpt><trkpt lat="43.9981895" lon="11.4173992"><ele>353.0</ele><time>2026-04-04T10:14:08.885Z</time></trkpt><trkpt lat="43.9981212" lon="11.4172946"><ele>353.0</ele><time>2026-04-04T10:14:10.886Z</time></trkpt><trkpt lat="43.9980679" lon="11.4171726"><ele>353.0</ele><time>2026-04-04T10:14:12.886Z</time></trkpt><trkpt lat="43.9980018" lon="11.4170493"><ele>353.0</ele><time>2026-04-04T10:14:14.885Z</time></trkpt><trkpt lat="43.9979163" lon="11.4169496"><ele>353.0</ele><time>2026-04-04T10:14:16.885Z</time></trkpt><trkpt lat="43.9978257" lon="11.4168743"><ele>353.0</ele><time>2026-04-04T10:14:18.886Z</time></trkpt><trkpt lat="43.9977502" lon="11.4168302"><ele>353.0</ele><time>2026-04-04T10:14:20.885Z</time></trkpt><trkpt lat="43.9976811" lon="11.4168099"><ele>353.0</ele><time>2026-04-04T10:14:23.885Z</time></trkpt><trkpt lat="43.9976718" lon="11.4167156"><ele>353.0</ele><time>2026-04-04T10:14:26.885Z</time></trkpt><trkpt lat="43.9977417" lon="11.4165649"><ele>353.0</ele><time>2026-04-04T10:14:28.884Z</time></trkpt><trkpt lat="43.9977777" lon="11.4164554"><ele>353.0</ele><time>2026-04-04T10:14:29.884Z</time></trkpt><trkpt lat="43.9978166" lon="11.4163305"><ele>353.0</ele><time>2026-04-04T10:14:30.885Z</time></trkpt><trkpt lat="43.9978478" lon="11.4162276"><ele>353.5</ele><time>2026-04-04T10:14:31.885Z</time></trkpt><trkpt lat="43.9978796" lon="11.4161189"><ele>354.0</ele><time>2026-04-04T10:14:32.885Z</time></trkpt><trkpt lat="43.9979114" lon="11.4160101"><ele>354.5</ele><time>2026-04-04T10:14:33.885Z</time></trkpt><trkpt lat="43.9979416" lon="11.4159042"><ele>355.0</ele><time>2026-04-04T10:14:34.885Z</time></trkpt><trkpt lat="43.9979745" lon="11.4157952"><ele>355.5</ele><time>2026-04-04T10:14:35.884Z</time></trkpt><trkpt lat="43.9980049" lon="11.4156911"><ele>356.0</ele><time>2026-04-04T10:14:36.884Z</time></trkpt><trkpt lat="43.9980418" lon="11.4155892"><ele>356.0</ele><time>2026-04-04T10:14:37.885Z</time></trkpt><trkpt lat="43.9980892" lon="11.4154986"><ele>356.0</ele><time>2026-04-04T10:14:38.884Z</time></trkpt><trkpt lat="43.9981507" lon="11.4154217"><ele>356.0</ele><time>2026-04-04T10:14:39.885Z</time></trkpt><trkpt lat="43.9982221" lon="11.4153688"><ele>356.0</ele><time>2026-04-04T10:14:40.885Z</time></trkpt><trkpt lat="43.9983018" lon="11.4153478"><ele>356.0</ele><time>2026-04-04T10:14:41.885Z</time></trkpt><trkpt lat="43.9983881" lon="11.4153495"><ele>356.0</ele><time>2026-04-04T10:14:42.883Z</time></trkpt><trkpt lat="43.9984725" lon="11.4153615"><ele>356.33333333333337</ele><time>2026-04-04T10:14:43.883Z</time></trkpt><trkpt lat="43.9985511" lon="11.4153782"><ele>356.6666666666667</ele><time>2026-04-04T10:14:44.885Z</time></trkpt><trkpt lat="43.9986229" lon="11.4153917"><ele>357.0</ele><time>2026-04-04T10:14:45.885Z</time></trkpt><trkpt lat="43.9986871" lon="11.4153896"><ele>357.3333333333333</ele><time>2026-04-04T10:14:46.885Z</time></trkpt><trkpt lat="43.9987939" lon="11.4153091"><ele>357.66666666666663</ele><time>2026-04-04T10:14:48.885Z</time></trkpt><trkpt lat="43.9988432" lon="11.4152319"><ele>358.0</ele><time>2026-04-04T10:14:49.884Z</time></trkpt><trkpt lat="43.9988785" lon="11.415136"><ele>358.0</ele><time>2026-04-04T10:14:50.884Z</time></trkpt><trkpt lat="43.9989017" lon="11.4150376"><ele>358.0</ele><time>2026-04-04T10:14:51.884Z</time></trkpt><trkpt lat="43.9988627" lon="11.4149434"><ele>358.0</ele><time>2026-04-04T10:14:52.885Z</time></trkpt><trkpt lat="43.998813" lon="11.4148362"><ele>358.0</ele><time>2026-04-04T10:14:53.884Z</time></trkpt><trkpt lat="43.9987485" lon="11.4147505"><ele>358.0</ele><time>2026-04-04T10:14:54.884Z</time></trkpt><trkpt lat="43.9987066" lon="11.4146694"><ele>358.0</ele><time>2026-04-04T10:14:55.884Z</time></trkpt><trkpt lat="43.998675" lon="11.414592"><ele>358.0</ele><time>2026-04-04T10:14:56.883Z</time></trkpt><trkpt lat="43.9986623" lon="11.4145051"><ele>358.0</ele><time>2026-04-04T10:14:57.885Z</time></trkpt><trkpt lat="43.9987165" lon="11.4143891"><ele>358.0</ele><time>2026-04-04T10:14:59.884Z</time></trkpt><trkpt lat="43.9987779" lon="11.4143691"><ele>358.0</ele><time>2026-04-04T10:15:00.884Z</time></trkpt><trkpt lat="43.9988459" lon="11.4143843"><ele>358.0</ele><time>2026-04-04T10:15:01.884Z</time></trkpt><trkpt lat="43.9989351" lon="11.4144347"><ele>358.0</ele><time>2026-04-04T10:15:02.885Z</time></trkpt><trkpt lat="43.9990456" lon="11.4145037"><ele>358.0</ele><time>2026-04-04T10:15:03.883Z</time></trkpt><trkpt lat="43.9991613" lon="11.4145754"><ele>358.0</ele><time>2026-04-04T10:15:04.884Z</time></trkpt><trkpt lat="43.9992913" lon="11.4146531"><ele>358.0</ele><time>2026-04-04T10:15:05.885Z</time></trkpt><trkpt lat="43.9994311" lon="11.4147356"><ele>358.0</ele><time>2026-04-04T10:15:06.884Z</time></trkpt><trkpt lat="43.9995653" lon="11.4148135"><ele>360.0</ele><time>2026-04-04T10:15:07.884Z</time></trkpt><trkpt lat="43.9996809" lon="11.4148784"><ele>362.0</ele><time>2026-04-04T10:15:08.884Z</time></trkpt><trkpt lat="43.9997797" lon="11.4149331"><ele>364.0</ele><time>2026-04-04T10:15:09.885Z</time></trkpt><trkpt lat="43.9998615" lon="11.4149648"><ele>366.0</ele><time>2026-04-04T10:15:10.885Z</time></trkpt><trkpt lat="43.9999391" lon="11.4149567"><ele>368.0</ele><time>2026-04-04T10:15:11.885Z</time></trkpt><trkpt lat="44.0000052" lon="11.4149056"><ele>368.0</ele><time>2026-04-04T10:15:12.885Z</time></trkpt><trkpt lat="44.0000725" lon="11.414816"><ele>368.0</ele><time>2026-04-04T10:15:13.884Z</time></trkpt><trkpt lat="44.0001578" lon="11.4146987"><ele>368.0</ele><time>2026-04-04T10:15:14.885Z</time></trkpt><trkpt lat="44.0002438" lon="11.414577"><ele>368.0</ele><time>2026-04-04T10:15:15.885Z</time></trkpt><trkpt lat="44.0003184" lon="11.4144472"><ele>367.33333333333337</ele><time>2026-04-04T10:15:16.885Z</time></trkpt><trkpt lat="44.000378" lon="11.4143108"><ele>366.6666666666667</ele><time>2026-04-04T10:15:17.885Z</time></trkpt><trkpt lat="44.0004234" lon="11.4141902"><ele>366.0</ele><time>2026-04-04T10:15:18.885Z</time></trkpt><trkpt lat="44.0004517" lon="11.4140837"><ele>365.3333333333333</ele><time>2026-04-04T10:15:19.885Z</time></trkpt><trkpt lat="44.0004601" lon="11.4139814"><ele>364.66666666666663</ele><time>2026-04-04T10:15:20.884Z</time></trkpt><trkpt lat="44.0004527" lon="11.4138829"><ele>364.0</ele><time>2026-04-04T10:15:21.885Z</time></trkpt><trkpt lat="44.0004401" lon="11.4137677"><ele>362.66666666666663</ele><time>2026-04-04T10:15:22.884Z</time></trkpt><trkpt lat="44.0004248" lon="11.4136461"><ele>361.3333333333333</ele><time>2026-04-04T10:15:23.885Z</time></trkpt><trkpt lat="44.0004243" lon="11.4135178"><ele>360.0</ele><time>2026-04-04T10:15:24.885Z</time></trkpt><trkpt lat="44.000441" lon="11.4133944"><ele>358.6666666666667</ele><time>2026-04-04T10:15:25.885Z</time></trkpt><trkpt lat="44.0004681" lon="11.4132899"><ele>357.33333333333337</ele><time>2026-04-04T10:15:26.884Z</time></trkpt><trkpt lat="44.0005026" lon="11.4131982"><ele>356.0</ele><time>2026-04-04T10:15:27.883Z</time></trkpt><trkpt lat="44.0005405" lon="11.4131215"><ele>356.0</ele><time>2026-04-04T10:15:28.884Z</time></trkpt><trkpt lat="44.0005891" lon="11.4130331"><ele>356.0</ele><time>2026-04-04T10:15:30.883Z</time></trkpt><trkpt lat="44.0006415" lon="11.4129791"><ele>356.0</ele><time>2026-04-04T10:15:36.885Z</time></trkpt><trkpt lat="44.000691" lon="11.4128972"><ele>356.0</ele><time>2026-04-04T10:15:43.885Z</time></trkpt><trkpt lat="44.0007427" lon="11.4127993"><ele>356.0</ele><time>2026-04-04T10:15:46.885Z</time></trkpt><trkpt lat="44.000804" lon="11.412746"><ele>356.0</ele><time>2026-04-04T10:15:48.884Z</time></trkpt><trkpt lat="44.0008753" lon="11.4126904"><ele>356.33333333333337</ele><time>2026-04-04T10:15:50.884Z</time></trkpt><trkpt lat="44.0009425" lon="11.4126383"><ele>356.6666666666667</ele><time>2026-04-04T10:15:52.885Z</time></trkpt><trkpt lat="44.0010067" lon="11.4125745"><ele>357.0</ele><time>2026-04-04T10:15:54.883Z</time></trkpt><trkpt lat="44.0010437" lon="11.4124845"><ele>357.3333333333333</ele><time>2026-04-04T10:15:56.884Z</time></trkpt><trkpt lat="44.0010293" lon="11.4123803"><ele>357.66666666666663</ele><time>2026-04-04T10:15:58.884Z</time></trkpt><trkpt lat="44.0009977" lon="11.4122712"><ele>358.0</ele><time>2026-04-04T10:16:00.884Z</time></trkpt><trkpt lat="44.0009739" lon="11.4121529"><ele>356.66666666666663</ele><time>2026-04-04T10:16:02.884Z</time></trkpt><trkpt lat="44.0009642" lon="11.4120316"><ele>355.3333333333333</ele><time>2026-04-04T10:16:04.884Z</time></trkpt><trkpt lat="44.0009649" lon="11.4119401"><ele>354.0</ele><time>2026-04-04T10:16:05.884Z</time></trkpt><trkpt lat="44.0009676" lon="11.4118463"><ele>352.6666666666667</ele><time>2026-04-04T10:16:07.885Z</time></trkpt><trkpt lat="44.0009925" lon="11.4117174"><ele>351.33333333333337</ele><time>2026-04-04T10:16:09.884Z</time></trkpt><trkpt lat="44.000975" lon="11.4115883"><ele>350.0</ele><time>2026-04-04T10:16:11.883Z</time></trkpt><trkpt lat="44.0009236" lon="11.4114998"><ele>350.0</ele><time>2026-04-04T10:16:13.885Z</time></trkpt><trkpt lat="44.0008874" lon="11.4114244"><ele>350.0</ele><time>2026-04-04T10:16:15.883Z</time></trkpt><trkpt lat="44.0008646" lon="11.4113416"><ele>350.0</ele><time>2026-04-04T10:16:20.884Z</time></trkpt><trkpt lat="44.0009195" lon="11.4114227"><ele>350.0</ele><time>2026-04-04T10:18:39.884Z</time></trkpt><trkpt lat="44.0009556" lon="11.4115377"><ele>350.0</ele><time>2026-04-04T10:18:41.882Z</time></trkpt><trkpt lat="44.0010018" lon="11.4116656"><ele>350.0</ele><time>2026-04-04T10:18:43.883Z</time></trkpt><trkpt lat="44.0010039" lon="11.411796"><ele>350.0</ele><time>2026-04-04T10:18:45.884Z</time></trkpt><trkpt lat="44.0009877" lon="11.4119486"><ele>350.0</ele><time>2026-04-04T10:18:47.883Z</time></trkpt><trkpt lat="44.0009787" lon="11.4120359"><ele>350.0</ele><time>2026-04-04T10:18:48.883Z</time></trkpt><trkpt lat="44.0009746" lon="11.4122047"><ele>350.0</ele><time>2026-04-04T10:18:50.883Z</time></trkpt><trkpt lat="44.0009982" lon="11.4122865"><ele>350.0</ele><time>2026-04-04T10:18:51.884Z</time></trkpt><trkpt lat="44.0010287" lon="11.4124421"><ele>351.0</ele><time>2026-04-04T10:18:53.884Z</time></trkpt><trkpt lat="44.0009996" lon="11.4125665"><ele>352.0</ele><time>2026-04-04T10:18:55.884Z</time></trkpt><trkpt lat="44.0009241" lon="11.4126669"><ele>353.0</ele><time>2026-04-04T10:18:57.883Z</time></trkpt><trkpt lat="44.0008314" lon="11.4127531"><ele>354.0</ele><time>2026-04-04T10:18:59.883Z</time></trkpt><trkpt lat="44.0007449" lon="11.4128307"><ele>355.0</ele><time>2026-04-04T10:19:01.883Z</time></trkpt><trkpt lat="44.0006989" lon="11.4128991"><ele>355.0</ele><time>2026-04-04T10:19:03.883Z</time></trkpt><trkpt lat="44.0006537" lon="11.4129765"><ele>355.0</ele><time>2026-04-04T10:19:07.883Z</time></trkpt><trkpt lat="44.000588" lon="11.4130226"><ele>355.0</ele><time>2026-04-04T10:19:10.884Z</time></trkpt><trkpt lat="44.0005047" lon="11.4131575"><ele>355.0</ele><time>2026-04-04T10:20:50.882Z</time></trkpt><trkpt lat="44.0004462" lon="11.4133164"><ele>355.0</ele><time>2026-04-04T10:20:52.882Z</time></trkpt><trkpt lat="44.0004259" lon="11.4134111"><ele>355.16666666666663</ele><time>2026-04-04T10:20:53.882Z</time></trkpt><trkpt lat="44.0004198" lon="11.4135061"><ele>355.3333333333333</ele><time>2026-04-04T10:20:54.882Z</time></trkpt><trkpt lat="44.0004215" lon="11.4136155"><ele>355.5</ele><time>2026-04-04T10:20:55.882Z</time></trkpt><trkpt lat="44.0004362" lon="11.4137333"><ele>355.6666666666667</ele><time>2026-04-04T10:20:56.882Z</time></trkpt><trkpt lat="44.0004509" lon="11.4138489"><ele>355.83333333333337</ele><time>2026-04-04T10:20:57.883Z</time></trkpt><trkpt lat="44.0004567" lon="11.4139613"><ele>356.0</ele><time>2026-04-04T10:20:58.883Z</time></trkpt><trkpt lat="44.0004536" lon="11.4140659"><ele>357.33333333333337</ele><time>2026-04-04T10:20:59.883Z</time></trkpt><trkpt lat="44.0004347" lon="11.4141611"><ele>358.6666666666667</ele><time>2026-04-04T10:21:00.881Z</time></trkpt><trkpt lat="44.0004014" lon="11.4142438"><ele>360.0</ele><time>2026-04-04T10:21:01.883Z</time></trkpt><trkpt lat="44.0003579" lon="11.4143373"><ele>361.3333333333333</ele><time>2026-04-04T10:21:02.882Z</time></trkpt><trkpt lat="44.0003114" lon="11.4144409"><ele>362.66666666666663</ele><time>2026-04-04T10:21:03.883Z</time></trkpt><trkpt lat="44.000257" lon="11.4145456"><ele>364.0</ele><time>2026-04-04T10:21:04.882Z</time></trkpt><trkpt lat="44.000198" lon="11.4146462"><ele>364.79999999999995</ele><time>2026-04-04T10:21:05.882Z</time></trkpt><trkpt lat="44.0001317" lon="11.4147305"><ele>365.59999999999997</ele><time>2026-04-04T10:21:06.883Z</time></trkpt><trkpt lat="44.0000774" lon="11.4147988"><ele>366.4</ele><time>2026-04-04T10:21:07.883Z</time></trkpt><trkpt lat="43.9999927" lon="11.414901"><ele>367.2</ele><time>2026-04-04T10:21:09.882Z</time></trkpt><trkpt lat="43.9998904" lon="11.4149619"><ele>368.0</ele><time>2026-04-04T10:21:11.882Z</time></trkpt><trkpt lat="43.9998251" lon="11.4149587"><ele>368.0</ele><time>2026-04-04T10:21:12.882Z</time></trkpt><trkpt lat="43.9997544" lon="11.4149331"><ele>368.0</ele><time>2026-04-04T10:21:13.883Z</time></trkpt><trkpt lat="43.9996751" lon="11.4148871"><ele>368.0</ele><time>2026-04-04T10:21:14.882Z</time></trkpt><trkpt lat="43.9995855" lon="11.4148294"><ele>368.0</ele><time>2026-04-04T10:21:15.882Z</time></trkpt><trkpt lat="43.9994872" lon="11.4147726"><ele>368.0</ele><time>2026-04-04T10:21:16.882Z</time></trkpt><trkpt lat="43.9993824" lon="11.4147169"><ele>368.0</ele><time>2026-04-04T10:21:17.882Z</time></trkpt><trkpt lat="43.999276" lon="11.4146576"><ele>368.0</ele><time>2026-04-04T10:21:18.882Z</time></trkpt><trkpt lat="43.9991752" lon="11.4146024"><ele>368.0</ele><time>2026-04-04T10:21:19.883Z</time></trkpt><trkpt lat="43.999078" lon="11.4145504"><ele>368.0</ele><time>2026-04-04T10:21:20.883Z</time></trkpt><trkpt lat="43.9989899" lon="11.4144943"><ele>368.0</ele><time>2026-04-04T10:21:21.882Z</time></trkpt><trkpt lat="43.9989102" lon="11.4144408"><ele>366.0</ele><time>2026-04-04T10:21:22.882Z</time></trkpt><trkpt lat="43.9988439" lon="11.4143998"><ele>364.0</ele><time>2026-04-04T10:21:23.881Z</time></trkpt><trkpt lat="43.9987316" lon="11.4143627"><ele>362.0</ele><time>2026-04-04T10:21:25.883Z</time></trkpt><trkpt lat="43.9986541" lon="11.4144262"><ele>360.0</ele><time>2026-04-04T10:21:27.882Z</time></trkpt><trkpt lat="43.9986368" lon="11.4145545"><ele>358.0</ele><time>2026-04-04T10:21:29.883Z</time></trkpt><trkpt lat="43.9987083" lon="11.4147007"><ele>358.00000000000006</ele><time>2026-04-04T10:21:31.881Z</time></trkpt><trkpt lat="43.99876" lon="11.4147728"><ele>358.0</ele><time>2026-04-04T10:21:32.882Z</time></trkpt><trkpt lat="43.9988166" lon="11.4148451"><ele>358.0</ele><time>2026-04-04T10:21:33.882Z</time></trkpt><trkpt lat="43.9988644" lon="11.4149214"><ele>358.0</ele><time>2026-04-04T10:21:34.883Z</time></trkpt><trkpt lat="43.9988912" lon="11.4150146"><ele>358.0</ele><time>2026-04-04T10:21:35.883Z</time></trkpt><trkpt lat="43.9989019" lon="11.415108"><ele>358.00000000000006</ele><time>2026-04-04T10:21:36.882Z</time></trkpt><trkpt lat="43.9988933" lon="11.4151988"><ele>358.0</ele><time>2026-04-04T10:21:37.883Z</time></trkpt><trkpt lat="43.9988211" lon="11.415288"><ele>358.0</ele><time>2026-04-04T10:21:38.883Z</time></trkpt><trkpt lat="43.9987536" lon="11.4153547"><ele>358.0</ele><time>2026-04-04T10:21:39.882Z</time></trkpt><trkpt lat="43.9986814" lon="11.415389"><ele>358.0</ele><time>2026-04-04T10:21:40.883Z</time></trkpt><trkpt lat="43.9986044" lon="11.4153957"><ele>358.0</ele><time>2026-04-04T10:21:41.883Z</time></trkpt><trkpt lat="43.9985259" lon="11.415371"><ele>358.0</ele><time>2026-04-04T10:21:42.883Z</time></trkpt><trkpt lat="43.9984504" lon="11.4153429"><ele>358.0</ele><time>2026-04-04T10:21:43.881Z</time></trkpt><trkpt lat="43.9983705" lon="11.4153288"><ele>357.66666666666663</ele><time>2026-04-04T10:21:44.882Z</time></trkpt><trkpt lat="43.9982909" lon="11.4153342"><ele>357.3333333333333</ele><time>2026-04-04T10:21:45.883Z</time></trkpt><trkpt lat="43.9982139" lon="11.4153577"><ele>357.0</ele><time>2026-04-04T10:21:46.882Z</time></trkpt><trkpt lat="43.9981466" lon="11.4154063"><ele>356.6666666666667</ele><time>2026-04-04T10:21:47.881Z</time></trkpt><trkpt lat="43.9980863" lon="11.415476"><ele>356.33333333333337</ele><time>2026-04-04T10:21:48.882Z</time></trkpt><trkpt lat="43.9980422" lon="11.4155755"><ele>356.0</ele><time>2026-04-04T10:21:49.883Z</time></trkpt><trkpt lat="43.9980048" lon="11.4156908"><ele>356.0</ele><time>2026-04-04T10:21:50.883Z</time></trkpt><trkpt lat="43.9979668" lon="11.4158319"><ele>356.0</ele><time>2026-04-04T10:21:51.882Z</time></trkpt><trkpt lat="43.9979238" lon="11.4159767"><ele>356.0</ele><time>2026-04-04T10:21:52.883Z</time></trkpt><trkpt lat="43.9978813" lon="11.4161093"><ele>356.0</ele><time>2026-04-04T10:21:53.882Z</time></trkpt><trkpt lat="43.9978432" lon="11.4162288"><ele>356.0</ele><time>2026-04-04T10:21:54.881Z</time></trkpt><trkpt lat="43.9978115" lon="11.4163439"><ele>355.5</ele><time>2026-04-04T10:21:55.883Z</time></trkpt><trkpt lat="43.9977814" lon="11.4164554"><ele>355.0</ele><time>2026-04-04T10:21:56.883Z</time></trkpt><trkpt lat="43.9977505" lon="11.4165533"><ele>354.5</ele><time>2026-04-04T10:21:57.881Z</time></trkpt><trkpt lat="43.997723" lon="11.416639"><ele>354.0</ele><time>2026-04-04T10:21:58.883Z</time></trkpt><trkpt lat="43.9976508" lon="11.4167347"><ele>353.5</ele><time>2026-04-04T10:22:00.882Z</time></trkpt><trkpt lat="43.9975508" lon="11.4167355"><ele>353.0</ele><time>2026-04-04T10:22:02.882Z</time></trkpt><trkpt lat="43.9974777" lon="11.4166999"><ele>351.79999999999995</ele><time>2026-04-04T10:22:03.883Z</time></trkpt><trkpt lat="43.9973934" lon="11.4166568"><ele>350.6</ele><time>2026-04-04T10:22:04.882Z</time></trkpt><trkpt lat="43.9973088" lon="11.4166157"><ele>349.4</ele><time>2026-04-04T10:22:05.882Z</time></trkpt><trkpt lat="43.9972219" lon="11.4165898"><ele>348.20000000000005</ele><time>2026-04-04T10:22:06.882Z</time></trkpt><trkpt lat="43.9970458" lon="11.4166182"><ele>347.0</ele><time>2026-04-04T10:22:08.883Z</time></trkpt><trkpt lat="43.9969612" lon="11.4166545"><ele>347.0</ele><time>2026-04-04T10:22:09.883Z</time></trkpt><trkpt lat="43.9968808" lon="11.4166746"><ele>347.0</ele><time>2026-04-04T10:22:10.882Z</time></trkpt><trkpt lat="43.9968029" lon="11.4166811"><ele>347.0</ele><time>2026-04-04T10:22:11.882Z</time></trkpt><trkpt lat="43.9967257" lon="11.4166728"><ele>347.0</ele><time>2026-04-04T10:22:12.883Z</time></trkpt><trkpt lat="43.9966417" lon="11.4166494"><ele>347.0</ele><time>2026-04-04T10:22:13.882Z</time></trkpt><trkpt lat="43.9965514" lon="11.4166166"><ele>347.0</ele><time>2026-04-04T10:22:14.882Z</time></trkpt><trkpt lat="43.9964517" lon="11.4165812"><ele>346.40000000000003</ele><time>2026-04-04T10:22:15.882Z</time></trkpt><trkpt lat="43.9963468" lon="11.4165426"><ele>345.8</ele><time>2026-04-04T10:22:16.883Z</time></trkpt><trkpt lat="43.9962382" lon="11.4165047"><ele>345.2</ele><time>2026-04-04T10:22:17.883Z</time></trkpt><trkpt lat="43.9961286" lon="11.4164653"><ele>344.6</ele><time>2026-04-04T10:22:18.882Z</time></trkpt><trkpt lat="43.9960244" lon="11.41642"><ele>344.0</ele><time>2026-04-04T10:22:19.882Z</time></trkpt><trkpt lat="43.9959255" lon="11.4163726"><ele>343.4</ele><time>2026-04-04T10:22:20.883Z</time></trkpt><trkpt lat="43.9958267" lon="11.4163206"><ele>342.79999999999995</ele><time>2026-04-04T10:22:21.883Z</time></trkpt><trkpt lat="43.99573" lon="11.4162615"><ele>342.20000000000005</ele><time>2026-04-04T10:22:22.883Z</time></trkpt><trkpt lat="43.9956366" lon="11.4162092"><ele>341.6</ele><time>2026-04-04T10:22:23.883Z</time></trkpt><trkpt lat="43.9955473" lon="11.4161595"><ele>341.0</ele><time>2026-04-04T10:22:24.882Z</time></trkpt><trkpt lat="43.9954579" lon="11.4161216"><ele>340.75</ele><time>2026-04-04T10:22:25.883Z</time></trkpt><trkpt lat="43.9953548" lon="11.4160973"><ele>340.5</ele><time>2026-04-04T10:22:26.883Z</time></trkpt><trkpt lat="43.9952354" lon="11.4160784"><ele>340.25</ele><time>2026-04-04T10:22:27.883Z</time></trkpt><trkpt lat="43.9951045" lon="11.4160548"><ele>340.0</ele><time>2026-04-04T10:22:28.883Z</time></trkpt><trkpt lat="43.994964" lon="11.4160376"><ele>339.0</ele><time>2026-04-04T10:22:29.881Z</time></trkpt><trkpt lat="43.9948172" lon="11.4160065"><ele>338.0</ele><time>2026-04-04T10:22:30.882Z</time></trkpt><trkpt lat="43.9946576" lon="11.4159789"><ele>337.0</ele><time>2026-04-04T10:22:31.883Z</time></trkpt><trkpt lat="43.9944934" lon="11.4159555"><ele>337.0</ele><time>2026-04-04T10:22:32.882Z</time></trkpt><trkpt lat="43.9943302" lon="11.4159296"><ele>337.0</ele><time>2026-04-04T10:22:33.882Z</time></trkpt><trkpt lat="43.994178" lon="11.415904"><ele>337.0</ele><time>2026-04-04T10:22:34.882Z</time></trkpt><trkpt lat="43.9940316" lon="11.4158839"><ele>336.0</ele><time>2026-04-04T10:22:35.882Z</time></trkpt><trkpt lat="43.9938861" lon="11.4158723"><ele>335.0</ele><time>2026-04-04T10:22:36.882Z</time></trkpt><trkpt lat="43.9937349" lon="11.4158688"><ele>334.0</ele><time>2026-04-04T10:22:37.882Z</time></trkpt><trkpt lat="43.993589" lon="11.4158687"><ele>333.0</ele><time>2026-04-04T10:22:38.883Z</time></trkpt><trkpt lat="43.9934477" lon="11.415862"><ele>331.25</ele><time>2026-04-04T10:22:39.882Z</time></trkpt><trkpt lat="43.9933035" lon="11.415838"><ele>329.5</ele><time>2026-04-04T10:22:40.881Z</time></trkpt><trkpt lat="43.9931579" lon="11.4157965"><ele>327.75</ele><time>2026-04-04T10:22:41.883Z</time></trkpt><trkpt lat="43.9930138" lon="11.4157512"><ele>326.0</ele><time>2026-04-04T10:22:42.882Z</time></trkpt><trkpt lat="43.9928902" lon="11.4156997"><ele>326.0</ele><time>2026-04-04T10:22:43.881Z</time></trkpt><trkpt lat="43.9927919" lon="11.4156435"><ele>326.0</ele><time>2026-04-04T10:22:44.882Z</time></trkpt><trkpt lat="43.9927193" lon="11.4155747"><ele>326.0</ele><time>2026-04-04T10:22:45.883Z</time></trkpt><trkpt lat="43.9926676" lon="11.4154886"><ele>326.0</ele><time>2026-04-04T10:22:46.882Z</time></trkpt><trkpt lat="43.9926077" lon="11.4154027"><ele>326.0</ele><time>2026-04-04T10:22:47.883Z</time></trkpt><trkpt lat="43.9925244" lon="11.4153189"><ele>325.25</ele><time>2026-04-04T10:22:48.882Z</time></trkpt><trkpt lat="43.9924247" lon="11.4152361"><ele>324.5</ele><time>2026-04-04T10:22:49.883Z</time></trkpt><trkpt lat="43.9923155" lon="11.4151404"><ele>323.75</ele><time>2026-04-04T10:22:50.883Z</time></trkpt><trkpt lat="43.9921954" lon="11.4150386"><ele>323.0</ele><time>2026-04-04T10:22:51.883Z</time></trkpt><trkpt lat="43.9920762" lon="11.4149333"><ele>323.0</ele><time>2026-04-04T10:22:52.883Z</time></trkpt><trkpt lat="43.9919653" lon="11.4148294"><ele>323.0</ele><time>2026-04-04T10:22:53.882Z</time></trkpt><trkpt lat="43.9918711" lon="11.4147507"><ele>323.0</ele><time>2026-04-04T10:22:54.882Z</time></trkpt><trkpt lat="43.9917759" lon="11.4147151"><ele>323.0</ele><time>2026-04-04T10:22:55.882Z</time></trkpt><trkpt lat="43.991679" lon="11.4147214"><ele>323.0</ele><time>2026-04-04T10:22:56.883Z</time></trkpt><trkpt lat="43.9915796" lon="11.41476"><ele>322.5</ele><time>2026-04-04T10:22:57.883Z</time></trkpt><trkpt lat="43.991486" lon="11.4147798"><ele>322.0</ele><time>2026-04-04T10:22:58.882Z</time></trkpt><trkpt lat="43.9913826" lon="11.4147485"><ele>321.5</ele><time>2026-04-04T10:22:59.883Z</time></trkpt><trkpt lat="43.9912756" lon="11.4146787"><ele>321.0</ele><time>2026-04-04T10:23:00.883Z</time></trkpt><trkpt lat="43.9911549" lon="11.4145914"><ele>320.0</ele><time>2026-04-04T10:23:01.881Z</time></trkpt><trkpt lat="43.9910199" lon="11.414501"><ele>319.0</ele><time>2026-04-04T10:23:02.882Z</time></trkpt><trkpt lat="43.9908909" lon="11.4144074"><ele>318.0</ele><time>2026-04-04T10:23:03.882Z</time></trkpt><trkpt lat="43.9907692" lon="11.4143173"><ele>317.0</ele><time>2026-04-04T10:23:04.883Z</time></trkpt><trkpt lat="43.9906676" lon="11.4142345"><ele>316.8</ele><time>2026-04-04T10:23:05.883Z</time></trkpt><trkpt lat="43.990573" lon="11.4141572"><ele>316.6</ele><time>2026-04-04T10:23:06.883Z</time></trkpt><trkpt lat="43.9904818" lon="11.4140884"><ele>316.40000000000003</ele><time>2026-04-04T10:23:07.882Z</time></trkpt><trkpt lat="43.9903948" lon="11.4140212"><ele>316.2</ele><time>2026-04-04T10:23:08.882Z</time></trkpt><trkpt lat="43.9903027" lon="11.4139546"><ele>316.0</ele><time>2026-04-04T10:23:09.883Z</time></trkpt><trkpt lat="43.9902058" lon="11.4138853"><ele>315.25</ele><time>2026-04-04T10:23:10.883Z</time></trkpt><trkpt lat="43.9901017" lon="11.4138131"><ele>314.5</ele><time>2026-04-04T10:23:11.883Z</time></trkpt><trkpt lat="43.9899985" lon="11.4137431"><ele>313.75</ele><time>2026-04-04T10:23:12.883Z</time></trkpt><trkpt lat="43.9898941" lon="11.4136664"><ele>313.0</ele><time>2026-04-04T10:23:13.883Z</time></trkpt><trkpt lat="43.9897921" lon="11.4135884"><ele>312.8</ele><time>2026-04-04T10:23:14.883Z</time></trkpt><trkpt lat="43.9896953" lon="11.4135121"><ele>312.6</ele><time>2026-04-04T10:23:15.883Z</time></trkpt><trkpt lat="43.9896027" lon="11.4134402"><ele>312.4</ele><time>2026-04-04T10:23:16.882Z</time></trkpt><trkpt lat="43.9895155" lon="11.4133721"><ele>312.2</ele><time>2026-04-04T10:23:17.883Z</time></trkpt><trkpt lat="43.9894306" lon="11.4133036"><ele>312.0</ele><time>2026-04-04T10:23:18.882Z</time></trkpt><trkpt lat="43.9893502" lon="11.4132331"><ele>312.0</ele><time>2026-04-04T10:23:19.881Z</time></trkpt><trkpt lat="43.9892745" lon="11.413159"><ele>312.0</ele><time>2026-04-04T10:23:20.881Z</time></trkpt><trkpt lat="43.9891964" lon="11.4130855"><ele>312.0</ele><time>2026-04-04T10:23:21.882Z</time></trkpt><trkpt lat="43.9891177" lon="11.4130056"><ele>312.0</ele><time>2026-04-04T10:23:22.882Z</time></trkpt><trkpt lat="43.9890413" lon="11.4129339"><ele>312.0</ele><time>2026-04-04T10:23:23.882Z</time></trkpt><trkpt lat="43.9889631" lon="11.4128526"><ele>311.2</ele><time>2026-04-04T10:23:24.881Z</time></trkpt><trkpt lat="43.9888794" lon="11.4127669"><ele>310.4</ele><time>2026-04-04T10:23:25.881Z</time></trkpt><trkpt lat="43.9887931" lon="11.4126733"><ele>309.6</ele><time>2026-04-04T10:23:26.882Z</time></trkpt><trkpt lat="43.9887105" lon="11.4125808"><ele>308.8</ele><time>2026-04-04T10:23:27.882Z</time></trkpt><trkpt lat="43.9886341" lon="11.4124944"><ele>308.0</ele><time>2026-04-04T10:23:28.882Z</time></trkpt><trkpt lat="43.9885617" lon="11.4124204"><ele>308.0</ele><time>2026-04-04T10:23:29.88Z</time></trkpt><trkpt lat="43.9884943" lon="11.4123514"><ele>308.0</ele><time>2026-04-04T10:23:30.881Z</time></trkpt><trkpt lat="43.9884481" lon="11.4122917"><ele>308.0</ele><time>2026-04-04T10:23:31.881Z</time></trkpt><trkpt lat="43.9883953" lon="11.4122366"><ele>308.0</ele><time>2026-04-04T10:23:33.882Z</time></trkpt><trkpt lat="43.988331" lon="11.4121877"><ele>308.0</ele><time>2026-04-04T10:24:34.882Z</time></trkpt><trkpt lat="43.9882652" lon="11.4121226"><ele>308.0</ele><time>2026-04-04T10:24:35.882Z</time></trkpt><trkpt lat="43.988188" lon="11.4120296"><ele>306.75</ele><time>2026-04-04T10:24:36.882Z</time></trkpt><trkpt lat="43.9881004" lon="11.4119075"><ele>305.5</ele><time>2026-04-04T10:24:37.882Z</time></trkpt><trkpt lat="43.987996" lon="11.4117592"><ele>304.25</ele><time>2026-04-04T10:24:38.882Z</time></trkpt><trkpt lat="43.9878797" lon="11.4115912"><ele>303.0</ele><time>2026-04-04T10:24:39.882Z</time></trkpt><trkpt lat="43.9877657" lon="11.4114291"><ele>302.5</ele><time>2026-04-04T10:24:40.881Z</time></trkpt><trkpt lat="43.9876635" lon="11.4112762"><ele>302.0</ele><time>2026-04-04T10:24:41.88Z</time></trkpt><trkpt lat="43.9875767" lon="11.4111374"><ele>301.5</ele><time>2026-04-04T10:24:42.881Z</time></trkpt><trkpt lat="43.9874998" lon="11.4110173"><ele>301.0</ele><time>2026-04-04T10:24:43.882Z</time></trkpt><trkpt lat="43.9874375" lon="11.410915"><ele>301.0</ele><time>2026-04-04T10:24:44.882Z</time></trkpt><trkpt lat="43.9873895" lon="11.4108389"><ele>301.0</ele><time>2026-04-04T10:24:45.882Z</time></trkpt><trkpt lat="43.9873258" lon="11.4107395"><ele>301.0</ele><time>2026-04-04T10:24:47.882Z</time></trkpt><trkpt lat="43.9872827" lon="11.4106737"><ele>301.0</ele><time>2026-04-04T10:24:49.881Z</time></trkpt><trkpt lat="43.9872009" lon="11.4105961"><ele>301.0</ele><time>2026-04-04T10:25:06.882Z</time></trkpt><trkpt lat="43.9871081" lon="11.4104796"><ele>300.0</ele><time>2026-04-04T10:25:08.881Z</time></trkpt><trkpt lat="43.9870422" lon="11.4103755"><ele>299.0</ele><time>2026-04-04T10:25:09.881Z</time></trkpt><trkpt lat="43.9869634" lon="11.4102476"><ele>298.0</ele><time>2026-04-04T10:25:10.882Z</time></trkpt><trkpt lat="43.9868681" lon="11.4100993"><ele>297.0</ele><time>2026-04-04T10:25:11.881Z</time></trkpt><trkpt lat="43.9867676" lon="11.4099512"><ele>296.8</ele><time>2026-04-04T10:25:12.881Z</time></trkpt><trkpt lat="43.9866658" lon="11.4098272"><ele>296.6</ele><time>2026-04-04T10:25:13.881Z</time></trkpt><trkpt lat="43.986566" lon="11.4097316"><ele>296.40000000000003</ele><time>2026-04-04T10:25:14.881Z</time></trkpt><trkpt lat="43.9864786" lon="11.40965"><ele>296.2</ele><time>2026-04-04T10:25:15.882Z</time></trkpt><trkpt lat="43.9864058" lon="11.4095833"><ele>296.0</ele><time>2026-04-04T10:25:16.882Z</time></trkpt><trkpt lat="43.9863462" lon="11.4095263"><ele>296.0</ele><time>2026-04-04T10:25:17.88Z</time></trkpt><trkpt lat="43.9862923" lon="11.4094728"><ele>296.0</ele><time>2026-04-04T10:25:18.88Z</time></trkpt><trkpt lat="43.9862234" lon="11.4094186"><ele>296.0</ele><time>2026-04-04T10:25:19.882Z</time></trkpt><trkpt lat="43.9861361" lon="11.4093572"><ele>296.0</ele><time>2026-04-04T10:25:20.881Z</time></trkpt><trkpt lat="43.9860215" lon="11.4092762"><ele>296.0</ele><time>2026-04-04T10:25:21.881Z</time></trkpt><trkpt lat="43.9858886" lon="11.4091582"><ele>296.0</ele><time>2026-04-04T10:25:22.882Z</time></trkpt><trkpt lat="43.9857441" lon="11.4090104"><ele>296.0</ele><time>2026-04-04T10:25:23.881Z</time></trkpt><trkpt lat="43.9855828" lon="11.4088431"><ele>296.0</ele><time>2026-04-04T10:25:24.881Z</time></trkpt><trkpt lat="43.985411" lon="11.4086711"><ele>296.0</ele><time>2026-04-04T10:25:25.882Z</time></trkpt><trkpt lat="43.985234" lon="11.4084921"><ele>296.0</ele><time>2026-04-04T10:25:26.882Z</time></trkpt><trkpt lat="43.985057" lon="11.4083215"><ele>296.0</ele><time>2026-04-04T10:25:27.881Z</time></trkpt><trkpt lat="43.984878" lon="11.408167"><ele>295.6666666666667</ele><time>2026-04-04T10:25:28.881Z</time></trkpt><trkpt lat="43.9847066" lon="11.4080306"><ele>295.3333333333333</ele><time>2026-04-04T10:25:29.882Z</time></trkpt><trkpt lat="43.9845392" lon="11.4079103"><ele>295.0</ele><time>2026-04-04T10:25:30.881Z</time></trkpt><trkpt lat="43.9843759" lon="11.4078013"><ele>294.66666666666663</ele><time>2026-04-04T10:25:31.88Z</time></trkpt><trkpt lat="43.9842082" lon="11.4076953"><ele>294.3333333333333</ele><time>2026-04-04T10:25:32.881Z</time></trkpt><trkpt lat="43.9840426" lon="11.4075859"><ele>294.0</ele><time>2026-04-04T10:25:33.882Z</time></trkpt><trkpt lat="43.9838764" lon="11.4074817"><ele>293.0</ele><time>2026-04-04T10:25:34.881Z</time></trkpt><trkpt lat="43.9837153" lon="11.4073838"><ele>292.0</ele><time>2026-04-04T10:25:35.881Z</time></trkpt><trkpt lat="43.9835654" lon="11.4072878"><ele>291.0</ele><time>2026-04-04T10:25:36.882Z</time></trkpt><trkpt lat="43.9834233" lon="11.4071948"><ele>290.75</ele><time>2026-04-04T10:25:37.882Z</time></trkpt><trkpt lat="43.9832923" lon="11.407111"><ele>290.5</ele><time>2026-04-04T10:25:38.88Z</time></trkpt><trkpt lat="43.9831664" lon="11.4070317"><ele>290.25</ele><time>2026-04-04T10:25:39.882Z</time></trkpt><trkpt lat="43.9830451" lon="11.4069672"><ele>290.0</ele><time>2026-04-04T10:25:40.882Z</time></trkpt><trkpt lat="43.9829147" lon="11.4069373"><ele>290.0</ele><time>2026-04-04T10:25:41.882Z</time></trkpt><trkpt lat="43.9827713" lon="11.4069308"><ele>290.0</ele><time>2026-04-04T10:25:42.882Z</time></trkpt><trkpt lat="43.9826188" lon="11.4069167"><ele>290.0</ele><time>2026-04-04T10:25:43.882Z</time></trkpt><trkpt lat="43.9824548" lon="11.4069058"><ele>289.6666666666667</ele><time>2026-04-04T10:25:44.881Z</time></trkpt><trkpt lat="43.9822883" lon="11.4068996"><ele>289.3333333333333</ele><time>2026-04-04T10:25:45.881Z</time></trkpt><trkpt lat="43.9821197" lon="11.4068927"><ele>289.0</ele><time>2026-04-04T10:25:46.881Z</time></trkpt><trkpt lat="43.9819567" lon="11.406883"><ele>289.0</ele><time>2026-04-04T10:25:47.882Z</time></trkpt><trkpt lat="43.9817999" lon="11.406877"><ele>289.0</ele><time>2026-04-04T10:25:48.882Z</time></trkpt><trkpt lat="43.9816549" lon="11.406869"><ele>289.0</ele><time>2026-04-04T10:25:49.882Z</time></trkpt><trkpt lat="43.9815173" lon="11.4068563"><ele>289.0</ele><time>2026-04-04T10:25:50.882Z</time></trkpt><trkpt lat="43.9813887" lon="11.4068429"><ele>288.25</ele><time>2026-04-04T10:25:51.882Z</time></trkpt><trkpt lat="43.9812656" lon="11.4068258"><ele>287.5</ele><time>2026-04-04T10:25:52.881Z</time></trkpt><trkpt lat="43.981149" lon="11.406806"><ele>286.75</ele><time>2026-04-04T10:25:53.882Z</time></trkpt><trkpt lat="43.9810373" lon="11.406791"><ele>286.0</ele><time>2026-04-04T10:25:54.881Z</time></trkpt><trkpt lat="43.9809295" lon="11.4067811"><ele>285.2</ele><time>2026-04-04T10:25:55.881Z</time></trkpt><trkpt lat="43.9808235" lon="11.4067651"><ele>284.40000000000003</ele><time>2026-04-04T10:25:56.881Z</time></trkpt><trkpt lat="43.9807253" lon="11.4067467"><ele>283.6</ele><time>2026-04-04T10:25:57.882Z</time></trkpt><trkpt lat="43.9806284" lon="11.4067289"><ele>282.8</ele><time>2026-04-04T10:25:58.881Z</time></trkpt><trkpt lat="43.9805341" lon="11.4067135"><ele>282.0</ele><time>2026-04-04T10:25:59.881Z</time></trkpt><trkpt lat="43.9804395" lon="11.4067043"><ele>282.0</ele><time>2026-04-04T10:26:00.882Z</time></trkpt><trkpt lat="43.9803449" lon="11.4066932"><ele>282.0</ele><time>2026-04-04T10:26:01.882Z</time></trkpt><trkpt lat="43.9802515" lon="11.4066807"><ele>282.0</ele><time>2026-04-04T10:26:02.881Z</time></trkpt><trkpt lat="43.9801606" lon="11.4066623"><ele>282.0</ele><time>2026-04-04T10:26:03.881Z</time></trkpt><trkpt lat="43.9800697" lon="11.4066425"><ele>282.0</ele><time>2026-04-04T10:26:04.881Z</time></trkpt><trkpt lat="43.9799715" lon="11.4066136"><ele>281.5</ele><time>2026-04-04T10:26:05.882Z</time></trkpt><trkpt lat="43.9798617" lon="11.4065686"><ele>281.0</ele><time>2026-04-04T10:26:06.882Z</time></trkpt><trkpt lat="43.9797358" lon="11.406513"><ele>280.5</ele><time>2026-04-04T10:26:07.881Z</time></trkpt><trkpt lat="43.9795862" lon="11.4064509"><ele>280.0</ele><time>2026-04-04T10:26:08.882Z</time></trkpt><trkpt lat="43.9794217" lon="11.4063828"><ele>279.66666666666663</ele><time>2026-04-04T10:26:09.882Z</time></trkpt><trkpt lat="43.9792451" lon="11.4063036"><ele>279.3333333333333</ele><time>2026-04-04T10:26:10.881Z</time></trkpt><trkpt lat="43.9790521" lon="11.4062147"><ele>279.0</ele><time>2026-04-04T10:26:11.881Z</time></trkpt><trkpt lat="43.9788485" lon="11.4061155"><ele>278.3333333333333</ele><time>2026-04-04T10:26:12.882Z</time></trkpt><trkpt lat="43.9786414" lon="11.4060022"><ele>277.66666666666663</ele><time>2026-04-04T10:26:13.882Z</time></trkpt><trkpt lat="43.9784448" lon="11.4058911"><ele>277.0</ele><time>2026-04-04T10:26:14.881Z</time></trkpt><trkpt lat="43.9782615" lon="11.4057838"><ele>276.66666666666663</ele><time>2026-04-04T10:26:15.882Z</time></trkpt><trkpt lat="43.9780864" lon="11.4056745"><ele>276.3333333333333</ele><time>2026-04-04T10:26:16.882Z</time></trkpt><trkpt lat="43.9779136" lon="11.4055595"><ele>276.0</ele><time>2026-04-04T10:26:17.882Z</time></trkpt><trkpt lat="43.9777498" lon="11.4054376"><ele>275.6666666666667</ele><time>2026-04-04T10:26:18.882Z</time></trkpt><trkpt lat="43.9775987" lon="11.4053067"><ele>275.33333333333337</ele><time>2026-04-04T10:26:19.882Z</time></trkpt><trkpt lat="43.9774479" lon="11.4051641"><ele>275.0</ele><time>2026-04-04T10:26:20.881Z</time></trkpt><trkpt lat="43.9772931" lon="11.4049963"><ele>274.33333333333337</ele><time>2026-04-04T10:26:21.882Z</time></trkpt><trkpt lat="43.9771396" lon="11.4048075"><ele>273.6666666666667</ele><time>2026-04-04T10:26:22.882Z</time></trkpt><trkpt lat="43.9769851" lon="11.4046112"><ele>273.0</ele><time>2026-04-04T10:26:23.881Z</time></trkpt><trkpt lat="43.9768319" lon="11.4044115"><ele>271.6666666666667</ele><time>2026-04-04T10:26:24.881Z</time></trkpt><trkpt lat="43.9766859" lon="11.4042233"><ele>270.33333333333337</ele><time>2026-04-04T10:26:25.882Z</time></trkpt><trkpt lat="43.9765511" lon="11.4040448"><ele>269.0</ele><time>2026-04-04T10:26:26.881Z</time></trkpt><trkpt lat="43.9764168" lon="11.403874"><ele>269.0</ele><time>2026-04-04T10:26:27.882Z</time></trkpt><trkpt lat="43.976271" lon="11.4037274"><ele>269.0</ele><time>2026-04-04T10:26:28.882Z</time></trkpt><trkpt lat="43.9760958" lon="11.4036208"><ele>269.0</ele><time>2026-04-04T10:26:29.882Z</time></trkpt><trkpt lat="43.9759029" lon="11.4035253"><ele>269.0</ele><time>2026-04-04T10:26:30.88Z</time></trkpt><trkpt lat="43.9757054" lon="11.4034171"><ele>269.0</ele><time>2026-04-04T10:26:31.881Z</time></trkpt><trkpt lat="43.9754946" lon="11.4033024"><ele>269.0</ele><time>2026-04-04T10:26:32.88Z</time></trkpt><trkpt lat="43.9752744" lon="11.4031828"><ele>269.0</ele><time>2026-04-04T10:26:33.881Z</time></trkpt><trkpt lat="43.9750534" lon="11.4030629"><ele>269.0</ele><time>2026-04-04T10:26:34.881Z</time></trkpt><trkpt lat="43.974824" lon="11.4029451"><ele>269.0</ele><time>2026-04-04T10:26:35.88Z</time></trkpt><trkpt lat="43.9746106" lon="11.4028472"><ele>269.0</ele><time>2026-04-04T10:26:36.88Z</time></trkpt><trkpt lat="43.9744066" lon="11.4027589"><ele>269.0</ele><time>2026-04-04T10:26:37.881Z</time></trkpt><trkpt lat="43.9742129" lon="11.4026826"><ele>268.33333333333337</ele><time>2026-04-04T10:26:38.881Z</time></trkpt><trkpt lat="43.9740277" lon="11.4026154"><ele>267.6666666666667</ele><time>2026-04-04T10:26:39.881Z</time></trkpt><trkpt lat="43.9738525" lon="11.4025492"><ele>267.0</ele><time>2026-04-04T10:26:40.881Z</time></trkpt><trkpt lat="43.9736863" lon="11.402486"><ele>267.0</ele><time>2026-04-04T10:26:41.88Z</time></trkpt><trkpt lat="43.9735277" lon="11.4024247"><ele>267.0</ele><time>2026-04-04T10:26:42.881Z</time></trkpt><trkpt lat="43.973367" lon="11.4023591"><ele>267.0</ele><time>2026-04-04T10:26:43.881Z</time></trkpt><trkpt lat="43.973209" lon="11.4022936"><ele>265.6666666666667</ele><time>2026-04-04T10:26:44.88Z</time></trkpt><trkpt lat="43.9730501" lon="11.402225"><ele>264.33333333333337</ele><time>2026-04-04T10:26:45.88Z</time></trkpt><trkpt lat="43.9728924" lon="11.4021578"><ele>263.0</ele><time>2026-04-04T10:26:46.881Z</time></trkpt><trkpt lat="43.9727317" lon="11.4020889"><ele>262.0</ele><time>2026-04-04T10:26:47.881Z</time></trkpt><trkpt lat="43.972564" lon="11.4020098"><ele>261.0</ele><time>2026-04-04T10:26:48.88Z</time></trkpt><trkpt lat="43.9723952" lon="11.401922"><ele>260.0</ele><time>2026-04-04T10:26:49.881Z</time></trkpt><trkpt lat="43.9722279" lon="11.4018303"><ele>258.33333333333337</ele><time>2026-04-04T10:26:50.881Z</time></trkpt><trkpt lat="43.9720628" lon="11.4017328"><ele>256.6666666666667</ele><time>2026-04-04T10:26:51.881Z</time></trkpt><trkpt lat="43.9719007" lon="11.4016255"><ele>255.0</ele><time>2026-04-04T10:26:52.881Z</time></trkpt><trkpt lat="43.9717453" lon="11.4015023"><ele>254.0</ele><time>2026-04-04T10:26:53.881Z</time></trkpt><trkpt lat="43.9715891" lon="11.4013667"><ele>253.0</ele><time>2026-04-04T10:26:54.881Z</time></trkpt><trkpt lat="43.971432" lon="11.4012295"><ele>252.0</ele><time>2026-04-04T10:26:55.881Z</time></trkpt><trkpt lat="43.9712749" lon="11.4010905"><ele>251.33333333333331</ele><time>2026-04-04T10:26:56.881Z</time></trkpt><trkpt lat="43.9711162" lon="11.4009564"><ele>250.66666666666666</ele><time>2026-04-04T10:26:57.882Z</time></trkpt><trkpt lat="43.9709555" lon="11.4008277"><ele>250.0</ele><time>2026-04-04T10:26:58.881Z</time></trkpt><trkpt lat="43.9707913" lon="11.4007212"><ele>250.0</ele><time>2026-04-04T10:26:59.88Z</time></trkpt><trkpt lat="43.9706167" lon="11.4006624"><ele>250.0</ele><time>2026-04-04T10:27:00.881Z</time></trkpt><trkpt lat="43.9704394" lon="11.4006229"><ele>250.0</ele><time>2026-04-04T10:27:01.881Z</time></trkpt><trkpt lat="43.9702655" lon="11.4006003"><ele>250.0</ele><time>2026-04-04T10:27:02.881Z</time></trkpt><trkpt lat="43.9700957" lon="11.4005718"><ele>250.0</ele><time>2026-04-04T10:27:03.881Z</time></trkpt><trkpt lat="43.9699278" lon="11.4005205"><ele>250.0</ele><time>2026-04-04T10:27:04.881Z</time></trkpt><trkpt lat="43.9697615" lon="11.4004423"><ele>251.33333333333331</ele><time>2026-04-04T10:27:05.88Z</time></trkpt><trkpt lat="43.9695984" lon="11.400361"><ele>252.66666666666669</ele><time>2026-04-04T10:27:06.881Z</time></trkpt><trkpt lat="43.9694446" lon="11.4002651"><ele>254.0</ele><time>2026-04-04T10:27:07.88Z</time></trkpt><trkpt lat="43.9693" lon="11.4001482"><ele>253.0</ele><time>2026-04-04T10:27:08.881Z</time></trkpt><trkpt lat="43.969162" lon="11.400021"><ele>252.0</ele><time>2026-04-04T10:27:09.88Z</time></trkpt><trkpt lat="43.9690335" lon="11.3998849"><ele>251.0</ele><time>2026-04-04T10:27:10.88Z</time></trkpt><trkpt lat="43.9689165" lon="11.3997411"><ele>251.33333333333334</ele><time>2026-04-04T10:27:11.881Z</time></trkpt><trkpt lat="43.968799" lon="11.3995877"><ele>251.66666666666669</ele><time>2026-04-04T10:27:12.88Z</time></trkpt><trkpt lat="43.9686764" lon="11.3994384"><ele>252.0</ele><time>2026-04-04T10:27:13.88Z</time></trkpt><trkpt lat="43.9685464" lon="11.3992998"><ele>252.0</ele><time>2026-04-04T10:27:14.881Z</time></trkpt><trkpt lat="43.96841" lon="11.3991718"><ele>252.0</ele><time>2026-04-04T10:27:15.881Z</time></trkpt><trkpt lat="43.9682707" lon="11.3990422"><ele>252.0</ele><time>2026-04-04T10:27:16.881Z</time></trkpt><trkpt lat="43.9681205" lon="11.3989329"><ele>251.66666666666669</ele><time>2026-04-04T10:27:17.881Z</time></trkpt><trkpt lat="43.9679645" lon="11.3988415"><ele>251.33333333333334</ele><time>2026-04-04T10:27:18.881Z</time></trkpt><trkpt lat="43.9678047" lon="11.3987467"><ele>251.0</ele><time>2026-04-04T10:27:19.88Z</time></trkpt><trkpt lat="43.9676441" lon="11.3986602"><ele>247.66666666666669</ele><time>2026-04-04T10:27:20.881Z</time></trkpt><trkpt lat="43.9674792" lon="11.3985755"><ele>244.33333333333331</ele><time>2026-04-04T10:27:21.88Z</time></trkpt><trkpt lat="43.967316" lon="11.3984853"><ele>241.0</ele><time>2026-04-04T10:27:22.881Z</time></trkpt><trkpt lat="43.9671526" lon="11.398382"><ele>241.0</ele><time>2026-04-04T10:27:23.881Z</time></trkpt><trkpt lat="43.9669903" lon="11.3982656"><ele>241.0</ele><time>2026-04-04T10:27:24.88Z</time></trkpt><trkpt lat="43.9668261" lon="11.3981268"><ele>241.0</ele><time>2026-04-04T10:27:25.881Z</time></trkpt><trkpt lat="43.9666612" lon="11.3979696"><ele>240.0</ele><time>2026-04-04T10:27:26.881Z</time></trkpt><trkpt lat="43.9665063" lon="11.3978058"><ele>239.0</ele><time>2026-04-04T10:27:27.881Z</time></trkpt><trkpt lat="43.9663617" lon="11.3976513"><ele>238.0</ele><time>2026-04-04T10:27:28.879Z</time></trkpt><trkpt lat="43.9662233" lon="11.3975114"><ele>238.0</ele><time>2026-04-04T10:27:29.88Z</time></trkpt><trkpt lat="43.9660879" lon="11.3973932"><ele>238.0</ele><time>2026-04-04T10:27:30.879Z</time></trkpt><trkpt lat="43.9659453" lon="11.3972918"><ele>238.0</ele><time>2026-04-04T10:27:31.88Z</time></trkpt><trkpt lat="43.9657918" lon="11.3972163"><ele>238.0</ele><time>2026-04-04T10:27:32.881Z</time></trkpt><trkpt lat="43.9656251" lon="11.3971604"><ele>238.0</ele><time>2026-04-04T10:27:33.881Z</time></trkpt><trkpt lat="43.9654544" lon="11.3971149"><ele>238.0</ele><time>2026-04-04T10:27:34.881Z</time></trkpt><trkpt lat="43.9652902" lon="11.3970734"><ele>238.0</ele><time>2026-04-04T10:27:35.88Z</time></trkpt><trkpt lat="43.965133" lon="11.3970243"><ele>238.0</ele><time>2026-04-04T10:27:36.88Z</time></trkpt><trkpt lat="43.9649831" lon="11.3969773"><ele>238.0</ele><time>2026-04-04T10:27:37.879Z</time></trkpt><trkpt lat="43.964842" lon="11.3969309"><ele>239.0</ele><time>2026-04-04T10:27:38.88Z</time></trkpt><trkpt lat="43.9647005" lon="11.3968897"><ele>240.0</ele><time>2026-04-04T10:27:39.881Z</time></trkpt><trkpt lat="43.9645568" lon="11.3968567"><ele>241.0</ele><time>2026-04-04T10:27:40.881Z</time></trkpt><trkpt lat="43.9644103" lon="11.3968292"><ele>242.0</ele><time>2026-04-04T10:27:41.88Z</time></trkpt><trkpt lat="43.9642532" lon="11.3968084"><ele>241.0</ele><time>2026-04-04T10:27:42.88Z</time></trkpt><trkpt lat="43.9640821" lon="11.3967869"><ele>240.0</ele><time>2026-04-04T10:27:43.88Z</time></trkpt><trkpt lat="43.9639077" lon="11.3967625"><ele>239.0</ele><time>2026-04-04T10:27:44.88Z</time></trkpt><trkpt lat="43.9637235" lon="11.3967369"><ele>239.0</ele><time>2026-04-04T10:27:45.881Z</time></trkpt><trkpt lat="43.9635408" lon="11.396706"><ele>239.0</ele><time>2026-04-04T10:27:46.88Z</time></trkpt><trkpt lat="43.9633606" lon="11.396677"><ele>239.0</ele><time>2026-04-04T10:27:47.88Z</time></trkpt><trkpt lat="43.963184" lon="11.3966468"><ele>238.66666666666669</ele><time>2026-04-04T10:27:48.879Z</time></trkpt><trkpt lat="43.9630111" lon="11.3966126"><ele>238.33333333333331</ele><time>2026-04-04T10:27:49.881Z</time></trkpt><trkpt lat="43.9628435" lon="11.3965723"><ele>238.0</ele><time>2026-04-04T10:27:50.881Z</time></trkpt><trkpt lat="43.9626834" lon="11.3965004"><ele>237.66666666666666</ele><time>2026-04-04T10:27:51.881Z</time></trkpt><trkpt lat="43.9625304" lon="11.3964083"><ele>237.33333333333331</ele><time>2026-04-04T10:27:52.88Z</time></trkpt><trkpt lat="43.9623813" lon="11.3962976"><ele>237.0</ele><time>2026-04-04T10:27:53.88Z</time></trkpt><trkpt lat="43.9622362" lon="11.3961847"><ele>235.33333333333331</ele><time>2026-04-04T10:27:54.881Z</time></trkpt><trkpt lat="43.9620979" lon="11.3960749"><ele>233.66666666666666</ele><time>2026-04-04T10:27:55.88Z</time></trkpt><trkpt lat="43.961959" lon="11.3959683"><ele>232.0</ele><time>2026-04-04T10:27:56.88Z</time></trkpt><trkpt lat="43.9618161" lon="11.395855"><ele>232.66666666666666</ele><time>2026-04-04T10:27:57.88Z</time></trkpt><trkpt lat="43.9616628" lon="11.3957375"><ele>233.33333333333331</ele><time>2026-04-04T10:27:58.88Z</time></trkpt><trkpt lat="43.9615082" lon="11.3956203"><ele>234.0</ele><time>2026-04-04T10:27:59.88Z</time></trkpt><trkpt lat="43.9613593" lon="11.3955025"><ele>230.66666666666669</ele><time>2026-04-04T10:28:00.881Z</time></trkpt><trkpt lat="43.9612166" lon="11.3953834"><ele>227.33333333333334</ele><time>2026-04-04T10:28:01.881Z</time></trkpt><trkpt lat="43.9610744" lon="11.3952636"><ele>224.0</ele><time>2026-04-04T10:28:02.881Z</time></trkpt><trkpt lat="43.9609332" lon="11.395152"><ele>225.0</ele><time>2026-04-04T10:28:03.88Z</time></trkpt><trkpt lat="43.9607946" lon="11.3950427"><ele>226.0</ele><time>2026-04-04T10:28:04.88Z</time></trkpt><trkpt lat="43.9606665" lon="11.394927"><ele>227.0</ele><time>2026-04-04T10:28:05.88Z</time></trkpt><trkpt lat="43.9605553" lon="11.3947927"><ele>224.0</ele><time>2026-04-04T10:28:06.88Z</time></trkpt><trkpt lat="43.9604629" lon="11.3946217"><ele>221.0</ele><time>2026-04-04T10:28:07.879Z</time></trkpt><trkpt lat="43.9603838" lon="11.3944264"><ele>218.0</ele><time>2026-04-04T10:28:08.881Z</time></trkpt><trkpt lat="43.960306" lon="11.3942215"><ele>218.0</ele><time>2026-04-04T10:28:09.881Z</time></trkpt><trkpt lat="43.9602332" lon="11.3940225"><ele>218.0</ele><time>2026-04-04T10:28:10.881Z</time></trkpt><trkpt lat="43.9601613" lon="11.3938334"><ele>218.0</ele><time>2026-04-04T10:28:11.88Z</time></trkpt><trkpt lat="43.9600917" lon="11.393657"><ele>217.0</ele><time>2026-04-04T10:28:12.881Z</time></trkpt><trkpt lat="43.9600204" lon="11.3935151"><ele>216.0</ele><time>2026-04-04T10:28:13.88Z</time></trkpt><trkpt lat="43.9599338" lon="11.3934036"><ele>215.0</ele><time>2026-04-04T10:28:14.88Z</time></trkpt><trkpt lat="43.9598341" lon="11.3933343"><ele>214.0</ele><time>2026-04-04T10:28:15.88Z</time></trkpt><trkpt lat="43.9597276" lon="11.393315"><ele>214.0</ele><time>2026-04-04T10:28:16.88Z</time></trkpt><trkpt lat="43.9596096" lon="11.3933276"><ele>214.0</ele><time>2026-04-04T10:28:17.88Z</time></trkpt><trkpt lat="43.9594827" lon="11.3933668"><ele>214.0</ele><time>2026-04-04T10:28:18.88Z</time></trkpt><trkpt lat="43.9593592" lon="11.3934031"><ele>214.0</ele><time>2026-04-04T10:28:19.881Z</time></trkpt><trkpt lat="43.9592416" lon="11.393424"><ele>213.79999999999998</ele><time>2026-04-04T10:28:20.881Z</time></trkpt><trkpt lat="43.9591275" lon="11.3934183"><ele>213.59999999999997</ele><time>2026-04-04T10:28:21.881Z</time></trkpt><trkpt lat="43.959026" lon="11.3933681"><ele>213.4</ele><time>2026-04-04T10:28:22.88Z</time></trkpt><trkpt lat="43.9589393" lon="11.3932795"><ele>213.2</ele><time>2026-04-04T10:28:23.881Z</time></trkpt><trkpt lat="43.9588767" lon="11.3931679"><ele>213.0</ele><time>2026-04-04T10:28:24.88Z</time></trkpt><trkpt lat="43.9588218" lon="11.3930259"><ele>211.25</ele><time>2026-04-04T10:28:25.88Z</time></trkpt><trkpt lat="43.9587609" lon="11.3928682"><ele>209.5</ele><time>2026-04-04T10:28:26.881Z</time></trkpt><trkpt lat="43.9586909" lon="11.3927001"><ele>207.75</ele><time>2026-04-04T10:28:27.881Z</time></trkpt><trkpt lat="43.958611" lon="11.3925389"><ele>206.0</ele><time>2026-04-04T10:28:28.881Z</time></trkpt><trkpt lat="43.9585169" lon="11.3923958"><ele>206.0</ele><time>2026-04-04T10:28:29.881Z</time></trkpt><trkpt lat="43.9584136" lon="11.3922703"><ele>206.0</ele><time>2026-04-04T10:28:30.881Z</time></trkpt><trkpt lat="43.9583013" lon="11.3921635"><ele>206.0</ele><time>2026-04-04T10:28:31.88Z</time></trkpt><trkpt lat="43.9581839" lon="11.3920656"><ele>206.0</ele><time>2026-04-04T10:28:32.88Z</time></trkpt><trkpt lat="43.9580673" lon="11.3919756"><ele>204.5</ele><time>2026-04-04T10:28:33.88Z</time></trkpt><trkpt lat="43.9579544" lon="11.3918883"><ele>203.0</ele><time>2026-04-04T10:28:34.881Z</time></trkpt><trkpt lat="43.957843" lon="11.3918056"><ele>201.5</ele><time>2026-04-04T10:28:35.881Z</time></trkpt><trkpt lat="43.9577332" lon="11.3917301"><ele>200.0</ele><time>2026-04-04T10:28:36.88Z</time></trkpt><trkpt lat="43.957627" lon="11.3916552"><ele>199.75</ele><time>2026-04-04T10:28:37.88Z</time></trkpt><trkpt lat="43.9575224" lon="11.3915814"><ele>199.5</ele><time>2026-04-04T10:28:38.881Z</time></trkpt><trkpt lat="43.9574193" lon="11.3915078"><ele>199.25</ele><time>2026-04-04T10:28:39.881Z</time></trkpt><trkpt lat="43.9573159" lon="11.3914327"><ele>199.0</ele><time>2026-04-04T10:28:40.88Z</time></trkpt><trkpt lat="43.9572145" lon="11.3913621"><ele>198.6</ele><time>2026-04-04T10:28:41.881Z</time></trkpt><trkpt lat="43.9571151" lon="11.3912947"><ele>198.2</ele><time>2026-04-04T10:28:42.881Z</time></trkpt><trkpt lat="43.9570203" lon="11.3912289"><ele>197.79999999999998</ele><time>2026-04-04T10:28:43.881Z</time></trkpt><trkpt lat="43.9569279" lon="11.3911613"><ele>197.39999999999998</ele><time>2026-04-04T10:28:44.88Z</time></trkpt><trkpt lat="43.9568334" lon="11.3910972"><ele>197.0</ele><time>2026-04-04T10:28:45.88Z</time></trkpt><trkpt lat="43.9567467" lon="11.3910395"><ele>196.66666666666669</ele><time>2026-04-04T10:28:46.881Z</time></trkpt><trkpt lat="43.9566702" lon="11.3909819"><ele>196.33333333333334</ele><time>2026-04-04T10:28:47.881Z</time></trkpt><trkpt lat="43.9566071" lon="11.3909365"><ele>196.0</ele><time>2026-04-04T10:28:48.881Z</time></trkpt><trkpt lat="43.9565342" lon="11.3908693"><ele>195.66666666666669</ele><time>2026-04-04T10:28:50.881Z</time></trkpt><trkpt lat="43.9564843" lon="11.3907915"><ele>195.33333333333334</ele><time>2026-04-04T10:28:55.881Z</time></trkpt><trkpt lat="43.9564502" lon="11.3907157"><ele>195.0</ele><time>2026-04-04T10:28:57.879Z</time></trkpt><trkpt lat="43.9564382" lon="11.3905743"><ele>195.0</ele><time>2026-04-04T10:28:59.881Z</time></trkpt><trkpt lat="43.9564592" lon="11.3904783"><ele>195.0</ele><time>2026-04-04T10:29:00.881Z</time></trkpt><trkpt lat="43.9564913" lon="11.3903717"><ele>195.0</ele><time>2026-04-04T10:29:01.88Z</time></trkpt><trkpt lat="43.9565281" lon="11.390258"><ele>195.0</ele><time>2026-04-04T10:29:02.88Z</time></trkpt><trkpt lat="43.9565668" lon="11.3901409"><ele>195.0</ele><time>2026-04-04T10:29:03.879Z</time></trkpt><trkpt lat="43.9566121" lon="11.3900167"><ele>195.0</ele><time>2026-04-04T10:29:04.88Z</time></trkpt><trkpt lat="43.9566575" lon="11.3898902"><ele>195.8</ele><time>2026-04-04T10:29:05.879Z</time></trkpt><trkpt lat="43.9567052" lon="11.3897609"><ele>196.6</ele><time>2026-04-04T10:29:06.88Z</time></trkpt><trkpt lat="43.9567508" lon="11.3896332"><ele>197.39999999999998</ele><time>2026-04-04T10:29:07.88Z</time></trkpt><trkpt lat="43.9567942" lon="11.3895118"><ele>198.2</ele><time>2026-04-04T10:29:08.88Z</time></trkpt><trkpt lat="43.9568377" lon="11.3893919"><ele>199.0</ele><time>2026-04-04T10:29:09.88Z</time></trkpt><trkpt lat="43.9568827" lon="11.3892732"><ele>199.0</ele><time>2026-04-04T10:29:10.879Z</time></trkpt><trkpt lat="43.9569272" lon="11.3891566"><ele>199.0</ele><time>2026-04-04T10:29:11.88Z</time></trkpt><trkpt lat="43.9569743" lon="11.3890319"><ele>199.0</ele><time>2026-04-04T10:29:12.88Z</time></trkpt><trkpt lat="43.9570231" lon="11.3889054"><ele>199.0</ele><time>2026-04-04T10:29:13.881Z</time></trkpt><trkpt lat="43.9570723" lon="11.3887688"><ele>199.0</ele><time>2026-04-04T10:29:14.88Z</time></trkpt><trkpt lat="43.9571228" lon="11.3886264"><ele>198.75</ele><time>2026-04-04T10:29:15.881Z</time></trkpt><trkpt lat="43.957181" lon="11.3884793"><ele>198.5</ele><time>2026-04-04T10:29:16.881Z</time></trkpt><trkpt lat="43.9572358" lon="11.3883362"><ele>198.25</ele><time>2026-04-04T10:29:17.88Z</time></trkpt><trkpt lat="43.9572903" lon="11.3881901"><ele>198.0</ele><time>2026-04-04T10:29:18.879Z</time></trkpt><trkpt lat="43.9573447" lon="11.3880416"><ele>197.75</ele><time>2026-04-04T10:29:19.879Z</time></trkpt><trkpt lat="43.9574007" lon="11.3878898"><ele>197.5</ele><time>2026-04-04T10:29:20.879Z</time></trkpt><trkpt lat="43.9574528" lon="11.3877406"><ele>197.25</ele><time>2026-04-04T10:29:21.881Z</time></trkpt><trkpt lat="43.9575046" lon="11.38759"><ele>197.0</ele><time>2026-04-04T10:29:22.881Z</time></trkpt><trkpt lat="43.9575579" lon="11.3874394"><ele>197.75</ele><time>2026-04-04T10:29:23.88Z</time></trkpt><trkpt lat="43.9576155" lon="11.387292"><ele>198.5</ele><time>2026-04-04T10:29:24.88Z</time></trkpt><trkpt lat="43.9576742" lon="11.3871423"><ele>199.25</ele><time>2026-04-04T10:29:25.88Z</time></trkpt><trkpt lat="43.9577311" lon="11.3869934"><ele>200.0</ele><time>2026-04-04T10:29:26.881Z</time></trkpt><trkpt lat="43.9577871" lon="11.3868407"><ele>200.0</ele><time>2026-04-04T10:29:27.88Z</time></trkpt><trkpt lat="43.9578403" lon="11.3866877"><ele>200.0</ele><time>2026-04-04T10:29:28.881Z</time></trkpt><trkpt lat="43.9578882" lon="11.3865376"><ele>200.0</ele><time>2026-04-04T10:29:29.881Z</time></trkpt><trkpt lat="43.9579281" lon="11.386397"><ele>200.0</ele><time>2026-04-04T10:29:30.88Z</time></trkpt><trkpt lat="43.9579509" lon="11.3862728"><ele>200.0</ele><time>2026-04-04T10:29:31.881Z</time></trkpt><trkpt lat="43.9579729" lon="11.3861532"><ele>199.66666666666669</ele><time>2026-04-04T10:29:33.881Z</time></trkpt><trkpt lat="43.9579888" lon="11.3859891"><ele>199.33333333333334</ele><time>2026-04-04T10:29:37.88Z</time></trkpt><trkpt lat="43.9579877" lon="11.385893"><ele>199.0</ele><time>2026-04-04T10:29:38.88Z</time></trkpt><trkpt lat="43.957987" lon="11.3857901"><ele>198.66666666666669</ele><time>2026-04-04T10:29:39.88Z</time></trkpt><trkpt lat="43.9580028" lon="11.3856725"><ele>198.33333333333334</ele><time>2026-04-04T10:29:40.88Z</time></trkpt><trkpt lat="43.9580239" lon="11.3855515"><ele>198.0</ele><time>2026-04-04T10:29:41.88Z</time></trkpt><trkpt lat="43.9580442" lon="11.3854281"><ele>198.0</ele><time>2026-04-04T10:29:42.88Z</time></trkpt><trkpt lat="43.9580541" lon="11.3852942"><ele>198.0</ele><time>2026-04-04T10:29:43.879Z</time></trkpt><trkpt lat="43.9580535" lon="11.3851562"><ele>198.0</ele><time>2026-04-04T10:29:44.88Z</time></trkpt><trkpt lat="43.9580448" lon="11.3850311"><ele>198.0</ele><time>2026-04-04T10:29:45.88Z</time></trkpt><trkpt lat="43.9580278" lon="11.384921"><ele>198.0</ele><time>2026-04-04T10:29:46.88Z</time></trkpt><trkpt lat="43.9580155" lon="11.3848299"><ele>198.0</ele><time>2026-04-04T10:29:47.88Z</time></trkpt><trkpt lat="43.9579981" lon="11.3846753"><ele>198.16666666666666</ele><time>2026-04-04T10:29:49.879Z</time></trkpt><trkpt lat="43.9579832" lon="11.3845085"><ele>198.33333333333331</ele><time>2026-04-04T10:29:51.879Z</time></trkpt><trkpt lat="43.9579753" lon="11.3844169"><ele>198.5</ele><time>2026-04-04T10:29:52.88Z</time></trkpt><trkpt lat="43.957965" lon="11.3843208"><ele>198.66666666666666</ele><time>2026-04-04T10:29:53.879Z</time></trkpt><trkpt lat="43.9579525" lon="11.3842129"><ele>198.83333333333331</ele><time>2026-04-04T10:29:54.88Z</time></trkpt><trkpt lat="43.9579376" lon="11.384096"><ele>199.0</ele><time>2026-04-04T10:29:55.878Z</time></trkpt><trkpt lat="43.9579228" lon="11.3839651"><ele>199.0</ele><time>2026-04-04T10:29:56.88Z</time></trkpt><trkpt lat="43.9579064" lon="11.3838209"><ele>199.0</ele><time>2026-04-04T10:29:57.879Z</time></trkpt><trkpt lat="43.9578892" lon="11.383665"><ele>199.0</ele><time>2026-04-04T10:29:58.88Z</time></trkpt><trkpt lat="43.9578702" lon="11.383514"><ele>199.0</ele><time>2026-04-04T10:29:59.88Z</time></trkpt><trkpt lat="43.9578506" lon="11.3833626"><ele>199.0</ele><time>2026-04-04T10:30:00.88Z</time></trkpt><trkpt lat="43.9578288" lon="11.3832094"><ele>199.0</ele><time>2026-04-04T10:30:01.88Z</time></trkpt><trkpt lat="43.9578078" lon="11.3830518"><ele>199.0</ele><time>2026-04-04T10:30:02.878Z</time></trkpt><trkpt lat="43.9577876" lon="11.3828872"><ele>199.0</ele><time>2026-04-04T10:30:03.879Z</time></trkpt><trkpt lat="43.9577676" lon="11.3827198"><ele>199.0</ele><time>2026-04-04T10:30:04.88Z</time></trkpt><trkpt lat="43.9577486" lon="11.3825532"><ele>199.0</ele><time>2026-04-04T10:30:05.879Z</time></trkpt><trkpt lat="43.9577296" lon="11.3823855"><ele>199.0</ele><time>2026-04-04T10:30:06.88Z</time></trkpt><trkpt lat="43.95771" lon="11.3822213"><ele>199.0</ele><time>2026-04-04T10:30:07.879Z</time></trkpt><trkpt lat="43.9576884" lon="11.3820593"><ele>199.0</ele><time>2026-04-04T10:30:08.879Z</time></trkpt><trkpt lat="43.9576672" lon="11.3818973"><ele>198.75</ele><time>2026-04-04T10:30:09.88Z</time></trkpt><trkpt lat="43.9576468" lon="11.3817301"><ele>198.5</ele><time>2026-04-04T10:30:10.88Z</time></trkpt><trkpt lat="43.9576264" lon="11.3815617"><ele>198.25</ele><time>2026-04-04T10:30:11.88Z</time></trkpt><trkpt lat="43.9576057" lon="11.3813897"><ele>198.0</ele><time>2026-04-04T10:30:12.879Z</time></trkpt><trkpt lat="43.9575837" lon="11.3812167"><ele>198.0</ele><time>2026-04-04T10:30:13.88Z</time></trkpt><trkpt lat="43.95756" lon="11.3810408"><ele>198.0</ele><time>2026-04-04T10:30:14.88Z</time></trkpt><trkpt lat="43.9575367" lon="11.3808587"><ele>198.0</ele><time>2026-04-04T10:30:15.88Z</time></trkpt><trkpt lat="43.9575153" lon="11.3806729"><ele>198.0</ele><time>2026-04-04T10:30:16.879Z</time></trkpt><trkpt lat="43.9574906" lon="11.380484"><ele>197.75</ele><time>2026-04-04T10:30:17.879Z</time></trkpt><trkpt lat="43.9574698" lon="11.3802924"><ele>197.5</ele><time>2026-04-04T10:30:18.879Z</time></trkpt><trkpt lat="43.9574527" lon="11.3801016"><ele>197.25</ele><time>2026-04-04T10:30:19.88Z</time></trkpt><trkpt lat="43.9574446" lon="11.3799277"><ele>197.0</ele><time>2026-04-04T10:30:20.879Z</time></trkpt><trkpt lat="43.9574397" lon="11.3797575"><ele>196.75</ele><time>2026-04-04T10:30:21.88Z</time></trkpt><trkpt lat="43.9574385" lon="11.3795874"><ele>196.5</ele><time>2026-04-04T10:30:22.88Z</time></trkpt><trkpt lat="43.9574356" lon="11.3794144"><ele>196.25</ele><time>2026-04-04T10:30:23.88Z</time></trkpt><trkpt lat="43.957433" lon="11.3792368"><ele>196.0</ele><time>2026-04-04T10:30:24.88Z</time></trkpt><trkpt lat="43.957432" lon="11.379051"><ele>196.0</ele><time>2026-04-04T10:30:25.879Z</time></trkpt><trkpt lat="43.95743" lon="11.3788624"><ele>196.0</ele><time>2026-04-04T10:30:26.88Z</time></trkpt><trkpt lat="43.9574307" lon="11.3786639"><ele>196.0</ele><time>2026-04-04T10:30:27.88Z</time></trkpt><trkpt lat="43.9574277" lon="11.3784615"><ele>196.0</ele><time>2026-04-04T10:30:28.88Z</time></trkpt><trkpt lat="43.9574249" lon="11.3782495"><ele>196.0</ele><time>2026-04-04T10:30:29.88Z</time></trkpt><trkpt lat="43.957425" lon="11.3780334"><ele>196.0</ele><time>2026-04-04T10:30:30.879Z</time></trkpt><trkpt lat="43.9574232" lon="11.3778151"><ele>196.0</ele><time>2026-04-04T10:30:31.88Z</time></trkpt><trkpt lat="43.9574198" lon="11.3775968"><ele>196.0</ele><time>2026-04-04T10:30:32.88Z</time></trkpt><trkpt lat="43.957416" lon="11.377389"><ele>196.0</ele><time>2026-04-04T10:30:33.88Z</time></trkpt><trkpt lat="43.9574125" lon="11.3771882"><ele>196.0</ele><time>2026-04-04T10:30:34.878Z</time></trkpt><trkpt lat="43.9574083" lon="11.3769923"><ele>196.0</ele><time>2026-04-04T10:30:35.88Z</time></trkpt><trkpt lat="43.9574053" lon="11.376798"><ele>196.0</ele><time>2026-04-04T10:30:36.88Z</time></trkpt><trkpt lat="43.957404" lon="11.3765987"><ele>196.0</ele><time>2026-04-04T10:30:37.878Z</time></trkpt><trkpt lat="43.9574031" lon="11.3764014"><ele>196.0</ele><time>2026-04-04T10:30:38.879Z</time></trkpt><trkpt lat="43.9574019" lon="11.3762106"><ele>196.0</ele><time>2026-04-04T10:30:39.879Z</time></trkpt><trkpt lat="43.9574024" lon="11.3760172"><ele>196.0</ele><time>2026-04-04T10:30:40.879Z</time></trkpt><trkpt lat="43.9574004" lon="11.3758308"><ele>196.0</ele><time>2026-04-04T10:30:41.88Z</time></trkpt><trkpt lat="43.957397" lon="11.3756436"><ele>196.0</ele><time>2026-04-04T10:30:42.88Z</time></trkpt><trkpt lat="43.9573975" lon="11.3754532"><ele>196.0</ele><time>2026-04-04T10:30:43.879Z</time></trkpt><trkpt lat="43.9574003" lon="11.375262"><ele>196.0</ele><time>2026-04-04T10:30:44.879Z</time></trkpt><trkpt lat="43.957398" lon="11.3750747"><ele>196.0</ele><time>2026-04-04T10:30:45.88Z</time></trkpt><trkpt lat="43.9573961" lon="11.374891"><ele>196.0</ele><time>2026-04-04T10:30:46.88Z</time></trkpt><trkpt lat="43.9573969" lon="11.3747094"><ele>196.0</ele><time>2026-04-04T10:30:47.88Z</time></trkpt><trkpt lat="43.9573964" lon="11.3745236"><ele>196.0</ele><time>2026-04-04T10:30:48.879Z</time></trkpt><trkpt lat="43.9573952" lon="11.3743478"><ele>196.0</ele><time>2026-04-04T10:30:49.879Z</time></trkpt><trkpt lat="43.9573942" lon="11.37418"><ele>196.0</ele><time>2026-04-04T10:30:50.88Z</time></trkpt><trkpt lat="43.9573898" lon="11.3740196"><ele>196.0</ele><time>2026-04-04T10:30:51.879Z</time></trkpt><trkpt lat="43.9573886" lon="11.3738667"><ele>195.99999999999997</ele><time>2026-04-04T10:30:52.88Z</time></trkpt><trkpt lat="43.9573894" lon="11.3737317"><ele>196.0</ele><time>2026-04-04T10:30:53.878Z</time></trkpt><trkpt lat="43.9573917" lon="11.3736059"><ele>196.0</ele><time>2026-04-04T10:30:54.879Z</time></trkpt><trkpt lat="43.9573908" lon="11.3734941"><ele>196.0</ele><time>2026-04-04T10:30:55.88Z</time></trkpt><trkpt lat="43.9573969" lon="11.3733992"><ele>195.99999999999997</ele><time>2026-04-04T10:30:56.879Z</time></trkpt><trkpt lat="43.9574328" lon="11.3732655"><ele>196.0</ele><time>2026-04-04T10:30:58.879Z</time></trkpt><trkpt lat="43.9574753" lon="11.3731756"><ele>196.0</ele><time>2026-04-04T10:31:00.88Z</time></trkpt><trkpt lat="43.9575668" lon="11.3730935"><ele>196.0</ele><time>2026-04-04T10:31:02.879Z</time></trkpt><trkpt lat="43.9576419" lon="11.3730498"><ele>196.0</ele><time>2026-04-04T10:31:03.879Z</time></trkpt><trkpt lat="43.9577249" lon="11.3730048"><ele>196.0</ele><time>2026-04-04T10:31:04.88Z</time></trkpt><trkpt lat="43.9578228" lon="11.3729653"><ele>196.0</ele><time>2026-04-04T10:31:05.879Z</time></trkpt><trkpt lat="43.9579206" lon="11.3729295"><ele>196.0</ele><time>2026-04-04T10:31:06.879Z</time></trkpt><trkpt lat="43.9580157" lon="11.3728958"><ele>196.0</ele><time>2026-04-04T10:31:07.88Z</time></trkpt><trkpt lat="43.958105" lon="11.3728601"><ele>196.0</ele><time>2026-04-04T10:31:08.879Z</time></trkpt><trkpt lat="43.9581947" lon="11.3728286"><ele>196.0</ele><time>2026-04-04T10:31:09.88Z</time></trkpt><trkpt lat="43.9582834" lon="11.3727987"><ele>196.0</ele><time>2026-04-04T10:31:10.879Z</time></trkpt><trkpt lat="43.9583704" lon="11.3727724"><ele>195.83333333333331</ele><time>2026-04-04T10:31:11.879Z</time></trkpt><trkpt lat="43.9584521" lon="11.3727515"><ele>195.66666666666666</ele><time>2026-04-04T10:31:12.88Z</time></trkpt><trkpt lat="43.9585325" lon="11.3727417"><ele>195.5</ele><time>2026-04-04T10:31:13.879Z</time></trkpt><trkpt lat="43.9586105" lon="11.3727415"><ele>195.33333333333331</ele><time>2026-04-04T10:31:14.88Z</time></trkpt><trkpt lat="43.9586867" lon="11.3727491"><ele>195.16666666666666</ele><time>2026-04-04T10:31:15.878Z</time></trkpt><trkpt lat="43.958758" lon="11.372761"><ele>195.0</ele><time>2026-04-04T10:31:16.88Z</time></trkpt><trkpt lat="43.9588303" lon="11.3727582"><ele>195.0</ele><time>2026-04-04T10:31:17.879Z</time></trkpt><trkpt lat="43.9589034" lon="11.3727322"><ele>195.0</ele><time>2026-04-04T10:31:18.879Z</time></trkpt><trkpt lat="43.9589709" lon="11.3726877"><ele>195.0</ele><time>2026-04-04T10:31:19.879Z</time></trkpt><trkpt lat="43.9590282" lon="11.3726231"><ele>195.0</ele><time>2026-04-04T10:31:20.88Z</time></trkpt><trkpt lat="43.9590843" lon="11.3725514"><ele>195.0</ele><time>2026-04-04T10:31:21.88Z</time></trkpt><trkpt lat="43.9591392" lon="11.3724699"><ele>195.0</ele><time>2026-04-04T10:31:22.88Z</time></trkpt><trkpt lat="43.9591952" lon="11.3723884"><ele>195.5</ele><time>2026-04-04T10:31:23.879Z</time></trkpt><trkpt lat="43.9592553" lon="11.3723132"><ele>196.0</ele><time>2026-04-04T10:31:24.878Z</time></trkpt><trkpt lat="43.9593109" lon="11.372237"><ele>196.5</ele><time>2026-04-04T10:31:25.878Z</time></trkpt><trkpt lat="43.9593672" lon="11.3721697"><ele>197.0</ele><time>2026-04-04T10:31:26.88Z</time></trkpt><trkpt lat="43.9594266" lon="11.3721101"><ele>197.5</ele><time>2026-04-04T10:31:27.88Z</time></trkpt><trkpt lat="43.9594914" lon="11.3720641"><ele>198.0</ele><time>2026-04-04T10:31:28.879Z</time></trkpt><trkpt lat="43.9595628" lon="11.3720351"><ele>198.0</ele><time>2026-04-04T10:31:29.88Z</time></trkpt><trkpt lat="43.9596492" lon="11.3720192"><ele>198.0</ele><time>2026-04-04T10:31:30.879Z</time></trkpt><trkpt lat="43.9597473" lon="11.3720176"><ele>198.0</ele><time>2026-04-04T10:31:31.88Z</time></trkpt><trkpt lat="43.959854" lon="11.372028"><ele>198.0</ele><time>2026-04-04T10:31:32.88Z</time></trkpt><trkpt lat="43.9599861" lon="11.3720382"><ele>198.0</ele><time>2026-04-04T10:31:33.88Z</time></trkpt><trkpt lat="43.9601472" lon="11.3720545"><ele>199.0</ele><time>2026-04-04T10:31:34.88Z</time></trkpt><trkpt lat="43.9603339" lon="11.3720789"><ele>200.0</ele><time>2026-04-04T10:31:35.88Z</time></trkpt><trkpt lat="43.9605414" lon="11.3721225"><ele>201.0</ele><time>2026-04-04T10:31:36.879Z</time></trkpt><trkpt lat="43.9607594" lon="11.3721827"><ele>201.66666666666669</ele><time>2026-04-04T10:31:37.879Z</time></trkpt><trkpt lat="43.9609786" lon="11.3722425"><ele>202.33333333333334</ele><time>2026-04-04T10:31:38.879Z</time></trkpt><trkpt lat="43.9611837" lon="11.37228"><ele>203.0</ele><time>2026-04-04T10:31:39.88Z</time></trkpt><trkpt lat="43.9613767" lon="11.3722957"><ele>203.0</ele><time>2026-04-04T10:31:40.88Z</time></trkpt><trkpt lat="43.9615508" lon="11.3722869"><ele>203.0</ele><time>2026-04-04T10:31:41.88Z</time></trkpt><trkpt lat="43.9617182" lon="11.3722655"><ele>203.0</ele><time>2026-04-04T10:31:42.879Z</time></trkpt><trkpt lat="43.9618832" lon="11.3722389"><ele>203.0</ele><time>2026-04-04T10:31:43.879Z</time></trkpt><trkpt lat="43.9620496" lon="11.3722111"><ele>203.0</ele><time>2026-04-04T10:31:44.878Z</time></trkpt><trkpt lat="43.9622144" lon="11.3721833"><ele>203.0</ele><time>2026-04-04T10:31:45.879Z</time></trkpt><trkpt lat="43.9623875" lon="11.3721483"><ele>202.66666666666669</ele><time>2026-04-04T10:31:46.88Z</time></trkpt><trkpt lat="43.9625801" lon="11.3721068"><ele>202.33333333333331</ele><time>2026-04-04T10:31:47.879Z</time></trkpt><trkpt lat="43.9627877" lon="11.3720619"><ele>202.0</ele><time>2026-04-04T10:31:48.88Z</time></trkpt><trkpt lat="43.9630096" lon="11.3720247"><ele>202.0</ele><time>2026-04-04T10:31:49.88Z</time></trkpt><trkpt lat="43.9632325" lon="11.3719941"><ele>202.0</ele><time>2026-04-04T10:31:50.879Z</time></trkpt><trkpt lat="43.9634476" lon="11.3719549"><ele>202.0</ele><time>2026-04-04T10:31:51.879Z</time></trkpt><trkpt lat="43.9636497" lon="11.3718864"><ele>202.66666666666666</ele><time>2026-04-04T10:31:52.879Z</time></trkpt><trkpt lat="43.9638511" lon="11.3717875"><ele>203.33333333333331</ele><time>2026-04-04T10:31:53.879Z</time></trkpt><trkpt lat="43.9640339" lon="11.3716708"><ele>204.0</ele><time>2026-04-04T10:31:54.88Z</time></trkpt><trkpt lat="43.9641999" lon="11.3715365"><ele>205.66666666666669</ele><time>2026-04-04T10:31:55.88Z</time></trkpt><trkpt lat="43.9643562" lon="11.3713883"><ele>207.33333333333334</ele><time>2026-04-04T10:31:56.879Z</time></trkpt><trkpt lat="43.9644959" lon="11.3712276"><ele>209.0</ele><time>2026-04-04T10:31:57.88Z</time></trkpt><trkpt lat="43.9646221" lon="11.3710591"><ele>209.66666666666669</ele><time>2026-04-04T10:31:58.88Z</time></trkpt><trkpt lat="43.9647314" lon="11.3708936"><ele>210.33333333333331</ele><time>2026-04-04T10:31:59.88Z</time></trkpt><trkpt lat="43.9648377" lon="11.3707234"><ele>211.0</ele><time>2026-04-04T10:32:00.88Z</time></trkpt><trkpt lat="43.9649468" lon="11.3705466"><ele>212.33333333333331</ele><time>2026-04-04T10:32:01.878Z</time></trkpt><trkpt lat="43.9650677" lon="11.3703434"><ele>213.66666666666669</ele><time>2026-04-04T10:32:02.879Z</time></trkpt><trkpt lat="43.9652029" lon="11.3701209"><ele>215.0</ele><time>2026-04-04T10:32:03.878Z</time></trkpt><trkpt lat="43.9653486" lon="11.3698723"><ele>215.0</ele><time>2026-04-04T10:32:04.878Z</time></trkpt><trkpt lat="43.9654988" lon="11.369616"><ele>215.0</ele><time>2026-04-04T10:32:05.88Z</time></trkpt><trkpt lat="43.9656605" lon="11.3693688"><ele>215.0</ele><time>2026-04-04T10:32:06.88Z</time></trkpt><trkpt lat="43.9658139" lon="11.3691181"><ele>215.0</ele><time>2026-04-04T10:32:07.88Z</time></trkpt><trkpt lat="43.9659471" lon="11.3688502"><ele>216.5</ele><time>2026-04-04T10:32:08.88Z</time></trkpt><trkpt lat="43.9660612" lon="11.3685636"><ele>218.0</ele><time>2026-04-04T10:32:09.88Z</time></trkpt><trkpt lat="43.9661506" lon="11.3682572"><ele>217.5</ele><time>2026-04-04T10:32:10.879Z</time></trkpt><trkpt lat="43.9662337" lon="11.3679333"><ele>217.0</ele><time>2026-04-04T10:32:11.88Z</time></trkpt><trkpt lat="43.9663084" lon="11.3675957"><ele>217.0</ele><time>2026-04-04T10:32:12.88Z</time></trkpt><trkpt lat="43.966377" lon="11.3672487"><ele>217.0</ele><time>2026-04-04T10:32:13.88Z</time></trkpt><trkpt lat="43.9664395" lon="11.3669059"><ele>217.5</ele><time>2026-04-04T10:32:14.879Z</time></trkpt><trkpt lat="43.9664976" lon="11.3665848"><ele>218.0</ele><time>2026-04-04T10:32:15.88Z</time></trkpt><trkpt lat="43.9665534" lon="11.3662898"><ele>219.66666666666669</ele><time>2026-04-04T10:32:16.879Z</time></trkpt><trkpt lat="43.9666074" lon="11.3660228"><ele>221.33333333333331</ele><time>2026-04-04T10:32:17.879Z</time></trkpt><trkpt lat="43.9666524" lon="11.3657986"><ele>223.0</ele><time>2026-04-04T10:32:18.879Z</time></trkpt><trkpt lat="43.9666877" lon="11.3656291"><ele>223.0</ele><time>2026-04-04T10:32:19.88Z</time></trkpt><trkpt lat="43.9667124" lon="11.3655082"><ele>223.0</ele><time>2026-04-04T10:32:20.879Z</time></trkpt><trkpt lat="43.9667484" lon="11.3653806"><ele>223.0</ele><time>2026-04-04T10:32:22.88Z</time></trkpt><trkpt lat="43.9668396" lon="11.3652924"><ele>223.0</ele><time>2026-04-04T10:32:24.88Z</time></trkpt><trkpt lat="43.9669318" lon="11.3652707"><ele>223.0</ele><time>2026-04-04T10:32:25.879Z</time></trkpt><trkpt lat="43.9670499" lon="11.3653088"><ele>223.0</ele><time>2026-04-04T10:32:26.878Z</time></trkpt><trkpt lat="43.9671848" lon="11.3653491"><ele>223.0</ele><time>2026-04-04T10:32:27.878Z</time></trkpt><trkpt lat="43.9673463" lon="11.3653937"><ele>223.0</ele><time>2026-04-04T10:32:28.879Z</time></trkpt><trkpt lat="43.9675339" lon="11.3654415"><ele>222.33333333333331</ele><time>2026-04-04T10:32:29.88Z</time></trkpt><trkpt lat="43.9677387" lon="11.3655168"><ele>221.66666666666669</ele><time>2026-04-04T10:32:30.88Z</time></trkpt><trkpt lat="43.9679607" lon="11.3655991"><ele>221.0</ele><time>2026-04-04T10:32:31.88Z</time></trkpt><trkpt lat="43.968184" lon="11.3656715"><ele>224.0</ele><time>2026-04-04T10:32:32.88Z</time></trkpt><trkpt lat="43.9684122" lon="11.3657485"><ele>227.0</ele><time>2026-04-04T10:32:33.88Z</time></trkpt><trkpt lat="43.9686231" lon="11.3658158"><ele>227.0</ele><time>2026-04-04T10:32:34.879Z</time></trkpt><trkpt lat="43.9688338" lon="11.3658753"><ele>227.0</ele><time>2026-04-04T10:32:35.879Z</time></trkpt><trkpt lat="43.9690226" lon="11.365924"><ele>227.0</ele><time>2026-04-04T10:32:36.879Z</time></trkpt><trkpt lat="43.9692033" lon="11.3659636"><ele>228.66666666666669</ele><time>2026-04-04T10:32:37.879Z</time></trkpt><trkpt lat="43.9693735" lon="11.3659799"><ele>230.33333333333331</ele><time>2026-04-04T10:32:38.879Z</time></trkpt><trkpt lat="43.9695451" lon="11.3659676"><ele>232.0</ele><time>2026-04-04T10:32:39.877Z</time></trkpt><trkpt lat="43.9697206" lon="11.3659166"><ele>232.0</ele><time>2026-04-04T10:32:40.878Z</time></trkpt><trkpt lat="43.9698973" lon="11.3658452"><ele>232.0</ele><time>2026-04-04T10:32:41.879Z</time></trkpt><trkpt lat="43.9700583" lon="11.3657672"><ele>232.0</ele><time>2026-04-04T10:32:42.878Z</time></trkpt><trkpt lat="43.9702085" lon="11.3656802"><ele>231.66666666666666</ele><time>2026-04-04T10:32:43.878Z</time></trkpt><trkpt lat="43.9703598" lon="11.3656007"><ele>231.33333333333331</ele><time>2026-04-04T10:32:44.879Z</time></trkpt><trkpt lat="43.9705243" lon="11.3655496"><ele>231.0</ele><time>2026-04-04T10:32:45.879Z</time></trkpt><trkpt lat="43.9707013" lon="11.3655374"><ele>228.66666666666669</ele><time>2026-04-04T10:32:46.879Z</time></trkpt><trkpt lat="43.9708825" lon="11.3655689"><ele>226.33333333333334</ele><time>2026-04-04T10:32:47.879Z</time></trkpt><trkpt lat="43.9710647" lon="11.3656488"><ele>224.0</ele><time>2026-04-04T10:32:48.879Z</time></trkpt><trkpt lat="43.9712381" lon="11.3657705"><ele>224.0</ele><time>2026-04-04T10:32:49.877Z</time></trkpt><trkpt lat="43.9713931" lon="11.3659357"><ele>224.0</ele><time>2026-04-04T10:32:50.877Z</time></trkpt><trkpt lat="43.9715339" lon="11.3661321"><ele>224.0</ele><time>2026-04-04T10:32:51.878Z</time></trkpt><trkpt lat="43.9716526" lon="11.3663689"><ele>224.0</ele><time>2026-04-04T10:32:52.878Z</time></trkpt><trkpt lat="43.9717506" lon="11.3666261"><ele>224.0</ele><time>2026-04-04T10:32:53.878Z</time></trkpt><trkpt lat="43.9718388" lon="11.3668797"><ele>224.0</ele><time>2026-04-04T10:32:54.878Z</time></trkpt><trkpt lat="43.9719546" lon="11.3671134"><ele>225.0</ele><time>2026-04-04T10:32:55.878Z</time></trkpt><trkpt lat="43.972095" lon="11.367331"><ele>226.0</ele><time>2026-04-04T10:32:56.878Z</time></trkpt><trkpt lat="43.9722554" lon="11.3675316"><ele>227.0</ele><time>2026-04-04T10:32:57.878Z</time></trkpt><trkpt lat="43.9724314" lon="11.3677081"><ele>226.5</ele><time>2026-04-04T10:32:58.879Z</time></trkpt><trkpt lat="43.9726259" lon="11.3678622"><ele>226.0</ele><time>2026-04-04T10:32:59.879Z</time></trkpt><trkpt lat="43.9728368" lon="11.3679986"><ele>228.0</ele><time>2026-04-04T10:33:00.878Z</time></trkpt><trkpt lat="43.9730593" lon="11.3681305"><ele>230.0</ele><time>2026-04-04T10:33:01.879Z</time></trkpt><trkpt lat="43.97329" lon="11.3682633"><ele>229.0</ele><time>2026-04-04T10:33:02.879Z</time></trkpt><trkpt lat="43.9735312" lon="11.3683967"><ele>228.0</ele><time>2026-04-04T10:33:03.878Z</time></trkpt><trkpt lat="43.9737797" lon="11.3685339"><ele>228.0</ele><time>2026-04-04T10:33:04.877Z</time></trkpt><trkpt lat="43.9740359" lon="11.3686722"><ele>228.0</ele><time>2026-04-04T10:33:05.878Z</time></trkpt><trkpt lat="43.9742972" lon="11.3688174"><ele>229.0</ele><time>2026-04-04T10:33:06.878Z</time></trkpt><trkpt lat="43.9745629" lon="11.3689641"><ele>230.0</ele><time>2026-04-04T10:33:07.879Z</time></trkpt><trkpt lat="43.9748275" lon="11.369107"><ele>230.0</ele><time>2026-04-04T10:33:08.878Z</time></trkpt><trkpt lat="43.9750887" lon="11.3692478"><ele>230.0</ele><time>2026-04-04T10:33:09.879Z</time></trkpt><trkpt lat="43.9753428" lon="11.3693878"><ele>230.0</ele><time>2026-04-04T10:33:10.879Z</time></trkpt><trkpt lat="43.9755827" lon="11.3695223"><ele>230.0</ele><time>2026-04-04T10:33:11.878Z</time></trkpt><trkpt lat="43.9758049" lon="11.3696478"><ele>231.5</ele><time>2026-04-04T10:33:12.879Z</time></trkpt><trkpt lat="43.9760143" lon="11.3697762"><ele>233.0</ele><time>2026-04-04T10:33:13.878Z</time></trkpt><trkpt lat="43.9762138" lon="11.3699303"><ele>233.0</ele><time>2026-04-04T10:33:14.879Z</time></trkpt><trkpt lat="43.9764112" lon="11.3701068"><ele>233.0</ele><time>2026-04-04T10:33:15.879Z</time></trkpt><trkpt lat="43.9766071" lon="11.3703004"><ele>232.5</ele><time>2026-04-04T10:33:16.879Z</time></trkpt><trkpt lat="43.9768084" lon="11.3705021"><ele>232.0</ele><time>2026-04-04T10:33:17.879Z</time></trkpt><trkpt lat="43.9770165" lon="11.3707104"><ele>233.5</ele><time>2026-04-04T10:33:18.878Z</time></trkpt><trkpt lat="43.9772304" lon="11.3709223"><ele>235.0</ele><time>2026-04-04T10:33:19.878Z</time></trkpt><trkpt lat="43.9774506" lon="11.3711379"><ele>234.5</ele><time>2026-04-04T10:33:20.877Z</time></trkpt><trkpt lat="43.9776761" lon="11.3713559"><ele>234.0</ele><time>2026-04-04T10:33:21.879Z</time></trkpt><trkpt lat="43.9779096" lon="11.3715651"><ele>235.0</ele><time>2026-04-04T10:33:22.877Z</time></trkpt><trkpt lat="43.9781442" lon="11.3717727"><ele>236.0</ele><time>2026-04-04T10:33:23.879Z</time></trkpt><trkpt lat="43.9783824" lon="11.3719852"><ele>236.5</ele><time>2026-04-04T10:33:24.879Z</time></trkpt><trkpt lat="43.9786176" lon="11.3722021"><ele>237.0</ele><time>2026-04-04T10:33:25.878Z</time></trkpt><trkpt lat="43.9788543" lon="11.3724174"><ele>237.0</ele><time>2026-04-04T10:33:26.878Z</time></trkpt><trkpt lat="43.9790932" lon="11.3726366"><ele>237.0</ele><time>2026-04-04T10:33:27.877Z</time></trkpt><trkpt lat="43.9793363" lon="11.372854"><ele>238.0</ele><time>2026-04-04T10:33:28.879Z</time></trkpt><trkpt lat="43.9795841" lon="11.3730752"><ele>239.0</ele><time>2026-04-04T10:33:29.878Z</time></trkpt><trkpt lat="43.9798342" lon="11.3732988"><ele>240.0</ele><time>2026-04-04T10:33:30.879Z</time></trkpt><trkpt lat="43.9800875" lon="11.3735287"><ele>241.0</ele><time>2026-04-04T10:33:31.878Z</time></trkpt><trkpt lat="43.9803456" lon="11.3737676"><ele>242.0</ele><time>2026-04-04T10:33:32.878Z</time></trkpt><trkpt lat="43.9806066" lon="11.3740037"><ele>243.0</ele><time>2026-04-04T10:33:33.878Z</time></trkpt><trkpt lat="43.9808733" lon="11.374244"><ele>243.0</ele><time>2026-04-04T10:33:34.878Z</time></trkpt><trkpt lat="43.9811396" lon="11.374484"><ele>243.0</ele><time>2026-04-04T10:33:35.879Z</time></trkpt><trkpt lat="43.9814002" lon="11.3747139"><ele>243.0</ele><time>2026-04-04T10:33:36.878Z</time></trkpt><trkpt lat="43.9816598" lon="11.3749243"><ele>243.0</ele><time>2026-04-04T10:33:37.879Z</time></trkpt><trkpt lat="43.9819178" lon="11.3751076"><ele>244.5</ele><time>2026-04-04T10:33:38.879Z</time></trkpt><trkpt lat="43.9821592" lon="11.3752628"><ele>246.0</ele><time>2026-04-04T10:33:39.879Z</time></trkpt><trkpt lat="43.9823827" lon="11.3754076"><ele>246.5</ele><time>2026-04-04T10:33:40.878Z</time></trkpt><trkpt lat="43.9825953" lon="11.3755451"><ele>247.0</ele><time>2026-04-04T10:33:41.879Z</time></trkpt><trkpt lat="43.9827992" lon="11.3756785"><ele>247.0</ele><time>2026-04-04T10:33:42.879Z</time></trkpt><trkpt lat="43.9829975" lon="11.3758058"><ele>247.0</ele><time>2026-04-04T10:33:43.878Z</time></trkpt><trkpt lat="43.9831882" lon="11.3759294"><ele>247.0</ele><time>2026-04-04T10:33:44.877Z</time></trkpt><trkpt lat="43.983367" lon="11.3760574"><ele>247.33333333333331</ele><time>2026-04-04T10:33:45.879Z</time></trkpt><trkpt lat="43.9835345" lon="11.3761949"><ele>247.66666666666669</ele><time>2026-04-04T10:33:46.878Z</time></trkpt><trkpt lat="43.9836952" lon="11.3763436"><ele>248.0</ele><time>2026-04-04T10:33:47.878Z</time></trkpt><trkpt lat="43.9838518" lon="11.3764924"><ele>248.0</ele><time>2026-04-04T10:33:48.878Z</time></trkpt><trkpt lat="43.9840196" lon="11.3766506"><ele>248.0</ele><time>2026-04-04T10:33:49.879Z</time></trkpt><trkpt lat="43.9842006" lon="11.3768197"><ele>248.0</ele><time>2026-04-04T10:33:50.879Z</time></trkpt><trkpt lat="43.9843866" lon="11.3770044"><ele>248.5</ele><time>2026-04-04T10:33:51.878Z</time></trkpt><trkpt lat="43.9845704" lon="11.3772037"><ele>249.0</ele><time>2026-04-04T10:33:52.878Z</time></trkpt><trkpt lat="43.9847476" lon="11.3774017"><ele>249.0</ele><time>2026-04-04T10:33:53.879Z</time></trkpt><trkpt lat="43.9849286" lon="11.3775841"><ele>249.0</ele><time>2026-04-04T10:33:54.878Z</time></trkpt><trkpt lat="43.9851167" lon="11.3777441"><ele>249.0</ele><time>2026-04-04T10:33:55.878Z</time></trkpt><trkpt lat="43.9853138" lon="11.3778722"><ele>249.33333333333331</ele><time>2026-04-04T10:33:56.877Z</time></trkpt><trkpt lat="43.9855144" lon="11.3779687"><ele>249.66666666666666</ele><time>2026-04-04T10:33:57.879Z</time></trkpt><trkpt lat="43.9856976" lon="11.3780309"><ele>250.0</ele><time>2026-04-04T10:33:58.879Z</time></trkpt><trkpt lat="43.9858595" lon="11.3780734"><ele>250.2</ele><time>2026-04-04T10:33:59.878Z</time></trkpt><trkpt lat="43.9859929" lon="11.3780953"><ele>250.4</ele><time>2026-04-04T10:34:00.877Z</time></trkpt><trkpt lat="43.9860851" lon="11.3781046"><ele>250.60000000000002</ele><time>2026-04-04T10:34:01.878Z</time></trkpt><trkpt lat="43.9861717" lon="11.3780767"><ele>250.8</ele><time>2026-04-04T10:34:03.878Z</time></trkpt><trkpt lat="43.9862025" lon="11.3779303"><ele>251.0</ele><time>2026-04-04T10:34:05.878Z</time></trkpt><trkpt lat="43.9861945" lon="11.3777888"><ele>250.33333333333334</ele><time>2026-04-04T10:34:06.879Z</time></trkpt><trkpt lat="43.9861821" lon="11.377614"><ele>249.66666666666669</ele><time>2026-04-04T10:34:07.878Z</time></trkpt><trkpt lat="43.9861767" lon="11.3774016"><ele>249.0</ele><time>2026-04-04T10:34:08.878Z</time></trkpt><trkpt lat="43.9861755" lon="11.3771592"><ele>249.0</ele><time>2026-04-04T10:34:09.878Z</time></trkpt><trkpt lat="43.9861818" lon="11.3769272"><ele>249.0</ele><time>2026-04-04T10:34:10.878Z</time></trkpt><trkpt lat="43.9862054" lon="11.3767151"><ele>249.0</ele><time>2026-04-04T10:34:11.879Z</time></trkpt><trkpt lat="43.9862463" lon="11.3765123"><ele>249.33333333333331</ele><time>2026-04-04T10:34:12.879Z</time></trkpt><trkpt lat="43.9863191" lon="11.3763076"><ele>249.66666666666666</ele><time>2026-04-04T10:34:13.879Z</time></trkpt><trkpt lat="43.9864148" lon="11.376087"><ele>250.0</ele><time>2026-04-04T10:34:14.879Z</time></trkpt><trkpt lat="43.9865277" lon="11.3758495"><ele>250.0</ele><time>2026-04-04T10:34:15.878Z</time></trkpt><trkpt lat="43.9866543" lon="11.3755915"><ele>250.0</ele><time>2026-04-04T10:34:16.878Z</time></trkpt><trkpt lat="43.9867895" lon="11.3753187"><ele>251.5</ele><time>2026-04-04T10:34:17.879Z</time></trkpt><trkpt lat="43.9869334" lon="11.3750371"><ele>253.0</ele><time>2026-04-04T10:34:18.879Z</time></trkpt><trkpt lat="43.98709" lon="11.3747467"><ele>252.5</ele><time>2026-04-04T10:34:19.879Z</time></trkpt><trkpt lat="43.9872523" lon="11.3744435"><ele>252.0</ele><time>2026-04-04T10:34:20.878Z</time></trkpt><trkpt lat="43.9874236" lon="11.3741307"><ele>253.0</ele><time>2026-04-04T10:34:21.879Z</time></trkpt><trkpt lat="43.9876036" lon="11.3738216"><ele>254.0</ele><time>2026-04-04T10:34:22.877Z</time></trkpt><trkpt lat="43.9877863" lon="11.3735082"><ele>254.0</ele><time>2026-04-04T10:34:23.878Z</time></trkpt><trkpt lat="43.9879741" lon="11.3731976"><ele>254.0</ele><time>2026-04-04T10:34:24.877Z</time></trkpt><trkpt lat="43.9881592" lon="11.3728968"><ele>256.0</ele><time>2026-04-04T10:34:25.878Z</time></trkpt><trkpt lat="43.9883312" lon="11.3726155"><ele>258.0</ele><time>2026-04-04T10:34:26.878Z</time></trkpt><trkpt lat="43.9884844" lon="11.3723651"><ele>260.3333333333333</ele><time>2026-04-04T10:34:27.879Z</time></trkpt><trkpt lat="43.988628" lon="11.372148"><ele>262.66666666666663</ele><time>2026-04-04T10:34:28.879Z</time></trkpt><trkpt lat="43.988775" lon="11.3719573"><ele>265.0</ele><time>2026-04-04T10:34:29.879Z</time></trkpt><trkpt lat="43.9889381" lon="11.371787"><ele>265.0</ele><time>2026-04-04T10:34:30.879Z</time></trkpt><trkpt lat="43.9891166" lon="11.3716296"><ele>265.0</ele><time>2026-04-04T10:34:31.878Z</time></trkpt><trkpt lat="43.9892881" lon="11.3714873"><ele>265.0</ele><time>2026-04-04T10:34:32.878Z</time></trkpt><trkpt lat="43.9894551" lon="11.3713532"><ele>262.66666666666663</ele><time>2026-04-04T10:34:33.879Z</time></trkpt><trkpt lat="43.9896077" lon="11.3712205"><ele>260.3333333333333</ele><time>2026-04-04T10:34:34.879Z</time></trkpt><trkpt lat="43.9897481" lon="11.3710759"><ele>258.0</ele><time>2026-04-04T10:34:35.879Z</time></trkpt><trkpt lat="43.9898694" lon="11.3709276"><ele>258.0</ele><time>2026-04-04T10:34:36.878Z</time></trkpt><trkpt lat="43.9899743" lon="11.3707877"><ele>258.0</ele><time>2026-04-04T10:34:37.878Z</time></trkpt><trkpt lat="43.9900648" lon="11.370656"><ele>258.0</ele><time>2026-04-04T10:34:38.879Z</time></trkpt><trkpt lat="43.9901395" lon="11.3705398"><ele>258.0</ele><time>2026-04-04T10:34:39.879Z</time></trkpt><trkpt lat="43.9902049" lon="11.3704513"><ele>256.1666666666667</ele><time>2026-04-04T10:34:40.879Z</time></trkpt><trkpt lat="43.9902692" lon="11.3703935"><ele>254.33333333333331</ele><time>2026-04-04T10:34:41.879Z</time></trkpt><trkpt lat="43.9903379" lon="11.3703519"><ele>252.5</ele><time>2026-04-04T10:34:42.879Z</time></trkpt><trkpt lat="43.9903986" lon="11.3703247"><ele>250.66666666666666</ele><time>2026-04-04T10:34:43.878Z</time></trkpt><trkpt lat="43.9904913" lon="11.3702451"><ele>248.83333333333331</ele><time>2026-04-04T10:34:45.878Z</time></trkpt><trkpt lat="43.9905321" lon="11.3701337"><ele>247.0</ele><time>2026-04-04T10:34:47.878Z</time></trkpt><trkpt lat="43.9905819" lon="11.3700798"><ele>246.99999999999997</ele><time>2026-04-04T10:34:49.878Z</time></trkpt><trkpt lat="43.9906469" lon="11.3701286"><ele>247.0</ele><time>2026-04-04T10:34:52.878Z</time></trkpt><trkpt lat="43.9906753" lon="11.370221"><ele>247.0</ele><time>2026-04-04T10:34:56.879Z</time></trkpt><trkpt lat="43.9906157" lon="11.3702762"><ele>247.0</ele><time>2026-04-04T10:40:36.877Z</time></trkpt><trkpt lat="43.9905051" lon="11.3702507"><ele>246.99999999999997</ele><time>2026-04-04T10:40:38.876Z</time></trkpt><trkpt lat="43.9904296" lon="11.3701496"><ele>247.0</ele><time>2026-04-04T10:40:40.877Z</time></trkpt><trkpt lat="43.9904057" lon="11.3699651"><ele>247.0</ele><time>2026-04-04T10:40:42.877Z</time></trkpt><trkpt lat="43.9904226" lon="11.3698105"><ele>247.0</ele><time>2026-04-04T10:40:43.876Z</time></trkpt><trkpt lat="43.990459" lon="11.3696152"><ele>247.0</ele><time>2026-04-04T10:40:44.877Z</time></trkpt><trkpt lat="43.9905108" lon="11.3693779"><ele>247.0</ele><time>2026-04-04T10:40:45.876Z</time></trkpt><trkpt lat="43.9905718" lon="11.3691055"><ele>244.5</ele><time>2026-04-04T10:40:46.877Z</time></trkpt><trkpt lat="43.990647" lon="11.3688075"><ele>242.0</ele><time>2026-04-04T10:40:47.877Z</time></trkpt><trkpt lat="43.9907378" lon="11.3684859"><ele>242.0</ele><time>2026-04-04T10:40:48.876Z</time></trkpt><trkpt lat="43.9908361" lon="11.3681467"><ele>242.0</ele><time>2026-04-04T10:40:49.876Z</time></trkpt><trkpt lat="43.9909451" lon="11.3677935"><ele>245.0</ele><time>2026-04-04T10:40:50.876Z</time></trkpt><trkpt lat="43.9910575" lon="11.3674359"><ele>248.0</ele><time>2026-04-04T10:40:51.877Z</time></trkpt><trkpt lat="43.9911768" lon="11.3670838"><ele>250.5</ele><time>2026-04-04T10:40:52.877Z</time></trkpt><trkpt lat="43.9913009" lon="11.3667344"><ele>253.0</ele><time>2026-04-04T10:40:53.877Z</time></trkpt><trkpt lat="43.9914233" lon="11.3663963"><ele>256.5</ele><time>2026-04-04T10:40:54.875Z</time></trkpt><trkpt lat="43.9915438" lon="11.3660677"><ele>260.0</ele><time>2026-04-04T10:40:55.875Z</time></trkpt><trkpt lat="43.9916581" lon="11.3657531"><ele>264.5</ele><time>2026-04-04T10:40:56.876Z</time></trkpt><trkpt lat="43.9917696" lon="11.3654506"><ele>269.0</ele><time>2026-04-04T10:40:57.877Z</time></trkpt><trkpt lat="43.9918729" lon="11.3651692"><ele>269.0</ele><time>2026-04-04T10:40:58.877Z</time></trkpt><trkpt lat="43.9919644" lon="11.3649151"><ele>269.0</ele><time>2026-04-04T10:40:59.876Z</time></trkpt><trkpt lat="43.9920501" lon="11.3646819"><ele>269.0</ele><time>2026-04-04T10:41:00.876Z</time></trkpt><trkpt lat="43.9921312" lon="11.3644631"><ele>271.5</ele><time>2026-04-04T10:41:01.876Z</time></trkpt><trkpt lat="43.9922057" lon="11.3642715"><ele>274.0</ele><time>2026-04-04T10:41:02.876Z</time></trkpt><trkpt lat="43.9922826" lon="11.3641093"><ele>276.5</ele><time>2026-04-04T10:41:03.877Z</time></trkpt><trkpt lat="43.9923579" lon="11.363972"><ele>279.0</ele><time>2026-04-04T10:41:04.877Z</time></trkpt><trkpt lat="43.9924341" lon="11.3638557"><ele>280.2</ele><time>2026-04-04T10:41:05.877Z</time></trkpt><trkpt lat="43.992505" lon="11.363752"><ele>281.4</ele><time>2026-04-04T10:41:06.876Z</time></trkpt><trkpt lat="43.9925754" lon="11.3636669"><ele>282.6</ele><time>2026-04-04T10:41:07.877Z</time></trkpt><trkpt lat="43.9926541" lon="11.3635956"><ele>283.8</ele><time>2026-04-04T10:41:08.877Z</time></trkpt><trkpt lat="43.9927461" lon="11.363537"><ele>285.0</ele><time>2026-04-04T10:41:09.877Z</time></trkpt><trkpt lat="43.9928415" lon="11.3635008"><ele>285.5</ele><time>2026-04-04T10:41:10.876Z</time></trkpt><trkpt lat="43.9929308" lon="11.3634575"><ele>286.0</ele><time>2026-04-04T10:41:11.877Z</time></trkpt><trkpt lat="43.9929922" lon="11.3633899"><ele>286.5</ele><time>2026-04-04T10:41:12.877Z</time></trkpt><trkpt lat="43.9930232" lon="11.363302"><ele>287.0</ele><time>2026-04-04T10:41:13.876Z</time></trkpt><trkpt lat="43.9930206" lon="11.3632086"><ele>287.5</ele><time>2026-04-04T10:41:14.877Z</time></trkpt><trkpt lat="43.9929916" lon="11.3631253"><ele>288.0</ele><time>2026-04-04T10:41:15.876Z</time></trkpt><trkpt lat="43.9929431" lon="11.3630352"><ele>287.6</ele><time>2026-04-04T10:41:16.876Z</time></trkpt><trkpt lat="43.9928991" lon="11.3629377"><ele>287.20000000000005</ele><time>2026-04-04T10:41:17.875Z</time></trkpt><trkpt lat="43.9928854" lon="11.3628293"><ele>286.8</ele><time>2026-04-04T10:41:18.877Z</time></trkpt><trkpt lat="43.9928897" lon="11.3626974"><ele>286.40000000000003</ele><time>2026-04-04T10:41:19.876Z</time></trkpt><trkpt lat="43.9929106" lon="11.3625385"><ele>286.0</ele><time>2026-04-04T10:41:20.876Z</time></trkpt><trkpt lat="43.9929479" lon="11.3623863"><ele>286.0</ele><time>2026-04-04T10:41:21.876Z</time></trkpt><trkpt lat="43.9929942" lon="11.3622275"><ele>286.0</ele><time>2026-04-04T10:41:22.876Z</time></trkpt><trkpt lat="43.993044" lon="11.3620825"><ele>286.0</ele><time>2026-04-04T10:41:23.876Z</time></trkpt><trkpt lat="43.9931006" lon="11.3619588"><ele>286.0</ele><time>2026-04-04T10:41:24.875Z</time></trkpt><trkpt lat="43.9931749" lon="11.3618552"><ele>284.6</ele><time>2026-04-04T10:41:25.876Z</time></trkpt><trkpt lat="43.9932618" lon="11.3617798"><ele>283.20000000000005</ele><time>2026-04-04T10:41:26.875Z</time></trkpt><trkpt lat="43.9933622" lon="11.3617365"><ele>281.79999999999995</ele><time>2026-04-04T10:41:27.875Z</time></trkpt><trkpt lat="43.9934757" lon="11.3617259"><ele>280.4</ele><time>2026-04-04T10:41:28.876Z</time></trkpt><trkpt lat="43.9935944" lon="11.3617322"><ele>279.0</ele><time>2026-04-04T10:41:29.875Z</time></trkpt><trkpt lat="43.9937051" lon="11.3617172"><ele>278.0</ele><time>2026-04-04T10:41:30.875Z</time></trkpt><trkpt lat="43.9938212" lon="11.3616671"><ele>277.0</ele><time>2026-04-04T10:41:31.876Z</time></trkpt><trkpt lat="43.9939298" lon="11.3615781"><ele>276.0</ele><time>2026-04-04T10:41:32.876Z</time></trkpt><trkpt lat="43.9940258" lon="11.3614452"><ele>275.0</ele><time>2026-04-04T10:41:33.875Z</time></trkpt><trkpt lat="43.9941054" lon="11.3612821"><ele>273.33333333333337</ele><time>2026-04-04T10:41:34.876Z</time></trkpt><trkpt lat="43.9941608" lon="11.3610894"><ele>271.6666666666667</ele><time>2026-04-04T10:41:35.876Z</time></trkpt><trkpt lat="43.9941824" lon="11.3608665"><ele>270.0</ele><time>2026-04-04T10:41:36.876Z</time></trkpt><trkpt lat="43.9941816" lon="11.3606232"><ele>270.0</ele><time>2026-04-04T10:41:37.875Z</time></trkpt><trkpt lat="43.9941991" lon="11.3603676"><ele>270.0</ele><time>2026-04-04T10:41:38.874Z</time></trkpt><trkpt lat="43.9942382" lon="11.3600993"><ele>270.0</ele><time>2026-04-04T10:41:39.876Z</time></trkpt><trkpt lat="43.9942909" lon="11.3598273"><ele>272.3333333333333</ele><time>2026-04-04T10:41:40.875Z</time></trkpt><trkpt lat="43.9943474" lon="11.3595796"><ele>274.66666666666663</ele><time>2026-04-04T10:41:41.876Z</time></trkpt><trkpt lat="43.9943892" lon="11.3593562"><ele>277.0</ele><time>2026-04-04T10:41:42.875Z</time></trkpt><trkpt lat="43.9944112" lon="11.3591547"><ele>277.0</ele><time>2026-04-04T10:41:43.876Z</time></trkpt><trkpt lat="43.9944253" lon="11.3589617"><ele>277.0</ele><time>2026-04-04T10:41:44.875Z</time></trkpt><trkpt lat="43.9944581" lon="11.3587812"><ele>277.0</ele><time>2026-04-04T10:41:45.875Z</time></trkpt><trkpt lat="43.9945162" lon="11.3586251"><ele>277.0</ele><time>2026-04-04T10:41:46.876Z</time></trkpt><trkpt lat="43.9945994" lon="11.3585018"><ele>278.5</ele><time>2026-04-04T10:41:47.875Z</time></trkpt><trkpt lat="43.9947085" lon="11.3583918"><ele>280.0</ele><time>2026-04-04T10:41:48.876Z</time></trkpt><trkpt lat="43.9948289" lon="11.3582742"><ele>281.5</ele><time>2026-04-04T10:41:49.876Z</time></trkpt><trkpt lat="43.9949526" lon="11.3581306"><ele>283.0</ele><time>2026-04-04T10:41:50.876Z</time></trkpt><trkpt lat="43.9950675" lon="11.357969"><ele>285.0</ele><time>2026-04-04T10:41:51.875Z</time></trkpt><trkpt lat="43.995168" lon="11.3578231"><ele>287.0</ele><time>2026-04-04T10:41:52.875Z</time></trkpt><trkpt lat="43.9952631" lon="11.3576939"><ele>289.0</ele><time>2026-04-04T10:41:53.876Z</time></trkpt><trkpt lat="43.995345" lon="11.3575791"><ele>291.0</ele><time>2026-04-04T10:41:54.875Z</time></trkpt><trkpt lat="43.9954098" lon="11.3574576"><ele>291.0</ele><time>2026-04-04T10:41:55.875Z</time></trkpt><trkpt lat="43.9954623" lon="11.3573202"><ele>291.0</ele><time>2026-04-04T10:41:56.876Z</time></trkpt><trkpt lat="43.9955054" lon="11.3571762"><ele>291.0</ele><time>2026-04-04T10:41:57.876Z</time></trkpt><trkpt lat="43.9955447" lon="11.3570428"><ele>291.0</ele><time>2026-04-04T10:41:58.876Z</time></trkpt><trkpt lat="43.9955797" lon="11.3569267"><ele>291.0</ele><time>2026-04-04T10:41:59.875Z</time></trkpt><trkpt lat="43.9956068" lon="11.356825"><ele>291.6666666666667</ele><time>2026-04-04T10:42:00.875Z</time></trkpt><trkpt lat="43.9956362" lon="11.3567372"><ele>292.3333333333333</ele><time>2026-04-04T10:42:01.876Z</time></trkpt><trkpt lat="43.9956645" lon="11.3566571"><ele>293.0</ele><time>2026-04-04T10:42:02.875Z</time></trkpt><trkpt lat="43.9957148" lon="11.3565258"><ele>293.66666666666663</ele><time>2026-04-04T10:42:04.876Z</time></trkpt><trkpt lat="43.9957311" lon="11.3564411"><ele>294.3333333333333</ele><time>2026-04-04T10:42:12.876Z</time></trkpt><trkpt lat="43.9957062" lon="11.3562972"><ele>295.0</ele><time>2026-04-04T10:42:17.875Z</time></trkpt><trkpt lat="43.9955935" lon="11.3562498"><ele>295.0</ele><time>2026-04-04T10:42:19.876Z</time></trkpt><trkpt lat="43.9955085" lon="11.3562107"><ele>295.0</ele><time>2026-04-04T10:42:20.875Z</time></trkpt><trkpt lat="43.9954158" lon="11.3561654"><ele>295.0</ele><time>2026-04-04T10:42:21.876Z</time></trkpt><trkpt lat="43.995327" lon="11.3561233"><ele>295.0</ele><time>2026-04-04T10:42:22.876Z</time></trkpt><trkpt lat="43.9952397" lon="11.356081"><ele>295.0</ele><time>2026-04-04T10:42:23.875Z</time></trkpt><trkpt lat="43.9951585" lon="11.3560383"><ele>295.0</ele><time>2026-04-04T10:42:24.875Z</time></trkpt><trkpt lat="43.9950766" lon="11.3559946"><ele>295.0</ele><time>2026-04-04T10:42:25.876Z</time></trkpt><trkpt lat="43.9950009" lon="11.3559558"><ele>295.0</ele><time>2026-04-04T10:42:26.875Z</time></trkpt><trkpt lat="43.9949401" lon="11.3558943"><ele>295.0</ele><time>2026-04-04T10:42:28.876Z</time></trkpt><trkpt lat="43.9949822" lon="11.355741"><ele>295.0</ele><time>2026-04-04T10:42:31.875Z</time></trkpt><trkpt lat="43.9950115" lon="11.3556064"><ele>295.2</ele><time>2026-04-04T10:42:32.875Z</time></trkpt><trkpt lat="43.9950481" lon="11.3554623"><ele>295.4</ele><time>2026-04-04T10:42:33.875Z</time></trkpt><trkpt lat="43.9950916" lon="11.3553108"><ele>295.6</ele><time>2026-04-04T10:42:34.876Z</time></trkpt><trkpt lat="43.9951324" lon="11.3551774"><ele>295.8</ele><time>2026-04-04T10:42:35.874Z</time></trkpt><trkpt lat="43.995165" lon="11.3550595"><ele>296.0</ele><time>2026-04-04T10:42:36.874Z</time></trkpt><trkpt lat="43.9951921" lon="11.354962"><ele>296.0</ele><time>2026-04-04T10:42:37.876Z</time></trkpt><trkpt lat="43.9952162" lon="11.3548656"><ele>296.0</ele><time>2026-04-04T10:42:39.875Z</time></trkpt><trkpt lat="43.9952624" lon="11.3547259"><ele>296.0</ele><time>2026-04-04T10:42:42.874Z</time></trkpt><trkpt lat="43.99529" lon="11.354644"><ele>296.0</ele><time>2026-04-04T10:42:43.875Z</time></trkpt><trkpt lat="43.9953242" lon="11.3545317"><ele>296.0</ele><time>2026-04-04T10:42:45.876Z</time></trkpt><trkpt lat="43.9954066" lon="11.3544971"><ele>296.0</ele><time>2026-04-04T10:42:55.875Z</time></trkpt><trkpt lat="43.9955046" lon="11.354572"><ele>296.0</ele><time>2026-04-04T10:42:57.876Z</time></trkpt><trkpt lat="43.995599" lon="11.3546276"><ele>296.0</ele><time>2026-04-04T10:42:59.875Z</time></trkpt><trkpt lat="43.995691" lon="11.3546807"><ele>296.0</ele><time>2026-04-04T10:43:01.875Z</time></trkpt><trkpt lat="43.9957731" lon="11.354737"><ele>296.0</ele><time>2026-04-04T10:43:03.876Z</time></trkpt><trkpt lat="43.995846" lon="11.3547875"><ele>296.0</ele><time>2026-04-04T10:43:05.875Z</time></trkpt><trkpt lat="43.9959249" lon="11.3548387"><ele>296.6</ele><time>2026-04-04T10:43:07.875Z</time></trkpt><trkpt lat="43.9960303" lon="11.3548876"><ele>297.20000000000005</ele><time>2026-04-04T10:43:09.874Z</time></trkpt><trkpt lat="43.996128" lon="11.3549437"><ele>297.79999999999995</ele><time>2026-04-04T10:43:11.876Z</time></trkpt><trkpt lat="43.9962118" lon="11.3549825"><ele>298.4</ele><time>2026-04-04T10:43:13.875Z</time></trkpt><trkpt lat="43.9962943" lon="11.3550405"><ele>299.0</ele><time>2026-04-04T10:43:15.874Z</time></trkpt><trkpt lat="43.9963962" lon="11.3550941"><ele>299.0</ele><time>2026-04-04T10:43:17.876Z</time></trkpt><trkpt lat="43.9965095" lon="11.3551552"><ele>299.0</ele><time>2026-04-04T10:43:19.874Z</time></trkpt><trkpt lat="43.9966194" lon="11.3552127"><ele>299.0</ele><time>2026-04-04T10:43:21.876Z</time></trkpt><trkpt lat="43.9967282" lon="11.3552719"><ele>299.0</ele><time>2026-04-04T10:43:23.875Z</time></trkpt><trkpt lat="43.9968272" lon="11.3553319"><ele>298.83333333333337</ele><time>2026-04-04T10:43:25.876Z</time></trkpt><trkpt lat="43.9969001" lon="11.3553842"><ele>298.6666666666667</ele><time>2026-04-04T10:43:27.875Z</time></trkpt><trkpt lat="43.996961" lon="11.3554182"><ele>298.5</ele><time>2026-04-04T10:43:29.876Z</time></trkpt><trkpt lat="43.9970235" lon="11.3554422"><ele>298.3333333333333</ele><time>2026-04-04T10:43:31.875Z</time></trkpt><trkpt lat="43.9970954" lon="11.3554846"><ele>298.16666666666663</ele><time>2026-04-04T10:43:33.875Z</time></trkpt><trkpt lat="43.9971715" lon="11.3555267"><ele>298.0</ele><time>2026-04-04T10:43:35.876Z</time></trkpt><trkpt lat="43.997246" lon="11.3555741"><ele>298.4</ele><time>2026-04-04T10:43:37.875Z</time></trkpt><trkpt lat="43.9973234" lon="11.3556232"><ele>298.8</ele><time>2026-04-04T10:43:39.874Z</time></trkpt><trkpt lat="43.9974149" lon="11.3556886"><ele>299.2</ele><time>2026-04-04T10:43:41.874Z</time></trkpt><trkpt lat="43.9975267" lon="11.3557801"><ele>299.6</ele><time>2026-04-04T10:43:43.875Z</time></trkpt><trkpt lat="43.9975822" lon="11.3558417"><ele>300.0</ele><time>2026-04-04T10:43:44.876Z</time></trkpt><trkpt lat="43.9976261" lon="11.3559053"><ele>298.6666666666667</ele><time>2026-04-04T10:43:45.876Z</time></trkpt><trkpt lat="43.9976748" lon="11.3559627"><ele>297.3333333333333</ele><time>2026-04-04T10:43:46.875Z</time></trkpt><trkpt lat="43.9977217" lon="11.3560219"><ele>296.0</ele><time>2026-04-04T10:43:47.876Z</time></trkpt><trkpt lat="43.9977928" lon="11.356099"><ele>294.66666666666663</ele><time>2026-04-04T10:43:49.875Z</time></trkpt><trkpt lat="43.9978504" lon="11.3560016"><ele>293.3333333333333</ele><time>2026-04-04T10:43:53.876Z</time></trkpt><trkpt lat="43.9979132" lon="11.3559174"><ele>292.0</ele><time>2026-04-04T10:43:55.876Z</time></trkpt><trkpt lat="43.9979817" lon="11.3558557"><ele>292.0</ele><time>2026-04-04T10:43:57.876Z</time></trkpt><trkpt lat="43.9980638" lon="11.3558583"><ele>292.0</ele><time>2026-04-04T10:43:59.876Z</time></trkpt><trkpt lat="43.998187" lon="11.3558923"><ele>292.0</ele><time>2026-04-04T10:44:01.876Z</time></trkpt><trkpt lat="43.9982624" lon="11.355906"><ele>292.0</ele><time>2026-04-04T10:44:02.876Z</time></trkpt><trkpt lat="43.998348" lon="11.3559176"><ele>292.0</ele><time>2026-04-04T10:44:03.876Z</time></trkpt><trkpt lat="43.9984423" lon="11.3559325"><ele>289.6</ele><time>2026-04-04T10:44:04.876Z</time></trkpt><trkpt lat="43.9985383" lon="11.3559517"><ele>287.2</ele><time>2026-04-04T10:44:05.876Z</time></trkpt><trkpt lat="43.9986351" lon="11.3559856"><ele>284.8</ele><time>2026-04-04T10:44:06.875Z</time></trkpt><trkpt lat="43.9987354" lon="11.3560229"><ele>282.4</ele><time>2026-04-04T10:44:07.874Z</time></trkpt><trkpt lat="43.9988341" lon="11.356067"><ele>280.0</ele><time>2026-04-04T10:44:08.873Z</time></trkpt><trkpt lat="43.9989336" lon="11.3561204"><ele>280.0</ele><time>2026-04-04T10:44:09.875Z</time></trkpt><trkpt lat="43.9990394" lon="11.3561886"><ele>280.0</ele><time>2026-04-04T10:44:10.874Z</time></trkpt><trkpt lat="43.9991483" lon="11.3562703"><ele>280.0</ele><time>2026-04-04T10:44:11.873Z</time></trkpt><trkpt lat="43.999258" lon="11.3563527"><ele>280.0</ele><time>2026-04-04T10:44:12.874Z</time></trkpt><trkpt lat="43.9993622" lon="11.3564265"><ele>280.66666666666663</ele><time>2026-04-04T10:44:13.874Z</time></trkpt><trkpt lat="43.999464" lon="11.3564902"><ele>281.3333333333333</ele><time>2026-04-04T10:44:14.874Z</time></trkpt><trkpt lat="43.9995589" lon="11.3565475"><ele>282.0</ele><time>2026-04-04T10:44:15.875Z</time></trkpt><trkpt lat="43.9996394" lon="11.356591"><ele>282.6666666666667</ele><time>2026-04-04T10:44:16.874Z</time></trkpt><trkpt lat="43.999712" lon="11.356612"><ele>283.33333333333337</ele><time>2026-04-04T10:44:17.874Z</time></trkpt><trkpt lat="43.9997765" lon="11.3565791"><ele>284.0</ele><time>2026-04-04T10:44:18.874Z</time></trkpt><trkpt lat="43.999819" lon="11.3565018"><ele>284.0</ele><time>2026-04-04T10:44:19.875Z</time></trkpt><trkpt lat="43.9998415" lon="11.3563741"><ele>284.0</ele><time>2026-04-04T10:44:20.875Z</time></trkpt><trkpt lat="43.9998525" lon="11.3562133"><ele>284.0</ele><time>2026-04-04T10:44:21.875Z</time></trkpt><trkpt lat="43.9998667" lon="11.3560619"><ele>284.0</ele><time>2026-04-04T10:44:22.875Z</time></trkpt><trkpt lat="43.9998861" lon="11.3559256"><ele>284.0</ele><time>2026-04-04T10:44:23.875Z</time></trkpt><trkpt lat="43.9999262" lon="11.35581"><ele>282.0</ele><time>2026-04-04T10:44:24.875Z</time></trkpt><trkpt lat="43.9999914" lon="11.3557068"><ele>280.0</ele><time>2026-04-04T10:44:25.874Z</time></trkpt><trkpt lat="44.0000828" lon="11.3556042"><ele>278.0</ele><time>2026-04-04T10:44:26.875Z</time></trkpt><trkpt lat="44.0001917" lon="11.3554843"><ele>276.0</ele><time>2026-04-04T10:44:27.875Z</time></trkpt><trkpt lat="44.0002976" lon="11.3553703"><ele>276.0</ele><time>2026-04-04T10:44:28.875Z</time></trkpt><trkpt lat="44.0003867" lon="11.35527"><ele>276.0</ele><time>2026-04-04T10:44:29.875Z</time></trkpt><trkpt lat="44.0004469" lon="11.3551655"><ele>276.0</ele><time>2026-04-04T10:44:30.875Z</time></trkpt><trkpt lat="44.0004847" lon="11.3550241"><ele>276.0</ele><time>2026-04-04T10:44:31.874Z</time></trkpt><trkpt lat="44.000511" lon="11.3548578"><ele>276.0</ele><time>2026-04-04T10:44:32.874Z</time></trkpt><trkpt lat="44.0005477" lon="11.3546716"><ele>276.6666666666667</ele><time>2026-04-04T10:44:33.873Z</time></trkpt><trkpt lat="44.0006049" lon="11.3544731"><ele>277.33333333333337</ele><time>2026-04-04T10:44:34.875Z</time></trkpt><trkpt lat="44.0006753" lon="11.3542682"><ele>278.0</ele><time>2026-04-04T10:44:35.875Z</time></trkpt><trkpt lat="44.0007665" lon="11.3540491"><ele>278.0</ele><time>2026-04-04T10:44:36.874Z</time></trkpt><trkpt lat="44.0008621" lon="11.3538513"><ele>278.0</ele><time>2026-04-04T10:44:37.874Z</time></trkpt><trkpt lat="44.0009525" lon="11.3536689"><ele>278.0</ele><time>2026-04-04T10:44:38.875Z</time></trkpt><trkpt lat="44.0010378" lon="11.3535091"><ele>278.0</ele><time>2026-04-04T10:44:39.875Z</time></trkpt><trkpt lat="44.0011101" lon="11.3533642"><ele>278.0</ele><time>2026-04-04T10:44:40.873Z</time></trkpt><trkpt lat="44.0011629" lon="11.3532283"><ele>278.0</ele><time>2026-04-04T10:44:41.874Z</time></trkpt><trkpt lat="44.0011992" lon="11.3531128"><ele>278.0</ele><time>2026-04-04T10:44:42.874Z</time></trkpt><trkpt lat="44.0012204" lon="11.3530267"><ele>278.0</ele><time>2026-04-04T10:44:43.874Z</time></trkpt><trkpt lat="44.0013243" lon="11.3530536"><ele>278.0</ele><time>2026-04-04T10:44:46.874Z</time></trkpt><trkpt lat="44.0013898" lon="11.3531582"><ele>278.0</ele><time>2026-04-04T10:44:47.874Z</time></trkpt><trkpt lat="44.0014718" lon="11.3532907"><ele>278.0</ele><time>2026-04-04T10:44:48.874Z</time></trkpt><trkpt lat="44.0015714" lon="11.3534656"><ele>278.0</ele><time>2026-04-04T10:44:49.874Z</time></trkpt><trkpt lat="44.0016821" lon="11.3536664"><ele>279.0</ele><time>2026-04-04T10:44:50.875Z</time></trkpt><trkpt lat="44.0018064" lon="11.3539"><ele>280.0</ele><time>2026-04-04T10:44:51.874Z</time></trkpt><trkpt lat="44.001933" lon="11.35416"><ele>281.0</ele><time>2026-04-04T10:44:52.875Z</time></trkpt><trkpt lat="44.0020641" lon="11.3544508"><ele>281.0</ele><time>2026-04-04T10:44:53.875Z</time></trkpt><trkpt lat="44.0021949" lon="11.3547641"><ele>281.0</ele><time>2026-04-04T10:44:54.873Z</time></trkpt><trkpt lat="44.0023257" lon="11.3550892"><ele>281.0</ele><time>2026-04-04T10:44:55.873Z</time></trkpt><trkpt lat="44.0024593" lon="11.3554307"><ele>281.0</ele><time>2026-04-04T10:44:56.875Z</time></trkpt><trkpt lat="44.0025961" lon="11.3557816"><ele>281.5</ele><time>2026-04-04T10:44:57.873Z</time></trkpt><trkpt lat="44.0027371" lon="11.3561424"><ele>282.0</ele><time>2026-04-04T10:44:58.875Z</time></trkpt><trkpt lat="44.002881" lon="11.3565103"><ele>282.5</ele><time>2026-04-04T10:44:59.875Z</time></trkpt><trkpt lat="44.0030264" lon="11.3568838"><ele>283.0</ele><time>2026-04-04T10:45:00.875Z</time></trkpt><trkpt lat="44.003172" lon="11.3572564"><ele>283.5</ele><time>2026-04-04T10:45:01.874Z</time></trkpt><trkpt lat="44.0033182" lon="11.3576352"><ele>284.0</ele><time>2026-04-04T10:45:02.875Z</time></trkpt><trkpt lat="44.0034653" lon="11.3580172"><ele>285.5</ele><time>2026-04-04T10:45:03.875Z</time></trkpt><trkpt lat="44.0036129" lon="11.3584027"><ele>287.0</ele><time>2026-04-04T10:45:04.874Z</time></trkpt><trkpt lat="44.003762" lon="11.3587901"><ele>288.0</ele><time>2026-04-04T10:45:05.874Z</time></trkpt><trkpt lat="44.0039138" lon="11.3591791"><ele>289.0</ele><time>2026-04-04T10:45:06.874Z</time></trkpt><trkpt lat="44.0040662" lon="11.3595695"><ele>290.0</ele><time>2026-04-04T10:45:07.875Z</time></trkpt><trkpt lat="44.0042176" lon="11.3599614"><ele>291.0</ele><time>2026-04-04T10:45:08.874Z</time></trkpt><trkpt lat="44.0043708" lon="11.3603531"><ele>293.5</ele><time>2026-04-04T10:45:09.874Z</time></trkpt><trkpt lat="44.0045241" lon="11.3607475"><ele>296.0</ele><time>2026-04-04T10:45:10.875Z</time></trkpt><trkpt lat="44.0046753" lon="11.3611444"><ele>297.0</ele><time>2026-04-04T10:45:11.875Z</time></trkpt><trkpt lat="44.0048265" lon="11.3615427"><ele>298.0</ele><time>2026-04-04T10:45:12.874Z</time></trkpt><trkpt lat="44.0049784" lon="11.3619415"><ele>299.0</ele><time>2026-04-04T10:45:13.875Z</time></trkpt><trkpt lat="44.005131" lon="11.3623419"><ele>300.0</ele><time>2026-04-04T10:45:14.875Z</time></trkpt><trkpt lat="44.0052862" lon="11.3627416"><ele>307.5</ele><time>2026-04-04T10:45:15.875Z</time></trkpt><trkpt lat="44.0054422" lon="11.363138"><ele>315.0</ele><time>2026-04-04T10:45:16.874Z</time></trkpt><trkpt lat="44.0055908" lon="11.3635235"><ele>317.5</ele><time>2026-04-04T10:45:17.875Z</time></trkpt><trkpt lat="44.0057245" lon="11.3638696"><ele>320.0</ele><time>2026-04-04T10:45:18.875Z</time></trkpt><trkpt lat="44.0058476" lon="11.3641863"><ele>319.5</ele><time>2026-04-04T10:45:19.874Z</time></trkpt><trkpt lat="44.0059609" lon="11.3644764"><ele>319.0</ele><time>2026-04-04T10:45:20.875Z</time></trkpt><trkpt lat="44.0060676" lon="11.3647467"><ele>319.0</ele><time>2026-04-04T10:45:21.875Z</time></trkpt><trkpt lat="44.0061823" lon="11.3650078"><ele>319.0</ele><time>2026-04-04T10:45:22.875Z</time></trkpt><trkpt lat="44.0063067" lon="11.3652585"><ele>319.0</ele><time>2026-04-04T10:45:23.875Z</time></trkpt><trkpt lat="44.0064446" lon="11.3654935"><ele>319.66666666666663</ele><time>2026-04-04T10:45:24.874Z</time></trkpt><trkpt lat="44.006593" lon="11.365708"><ele>320.3333333333333</ele><time>2026-04-04T10:45:25.874Z</time></trkpt><trkpt lat="44.0067434" lon="11.3659118"><ele>321.0</ele><time>2026-04-04T10:45:26.875Z</time></trkpt><trkpt lat="44.0068973" lon="11.3660974"><ele>321.0</ele><time>2026-04-04T10:45:27.874Z</time></trkpt><trkpt lat="44.0070422" lon="11.3662554"><ele>321.0</ele><time>2026-04-04T10:45:28.875Z</time></trkpt><trkpt lat="44.0071691" lon="11.366379"><ele>321.0</ele><time>2026-04-04T10:45:29.875Z</time></trkpt><trkpt lat="44.007269" lon="11.3664723"><ele>321.8333333333333</ele><time>2026-04-04T10:45:30.874Z</time></trkpt><trkpt lat="44.0073427" lon="11.3665475"><ele>322.6666666666667</ele><time>2026-04-04T10:45:31.874Z</time></trkpt><trkpt lat="44.0073868" lon="11.3666254"><ele>323.5</ele><time>2026-04-04T10:45:32.875Z</time></trkpt><trkpt lat="44.0073947" lon="11.3667781"><ele>324.33333333333337</ele><time>2026-04-04T10:45:34.875Z</time></trkpt><trkpt lat="44.007401" lon="11.3668667"><ele>325.1666666666667</ele><time>2026-04-04T10:45:35.875Z</time></trkpt><trkpt lat="44.0074173" lon="11.3669902"><ele>326.0</ele><time>2026-04-04T10:45:37.874Z</time></trkpt><trkpt lat="44.0075015" lon="11.3670839"><ele>326.0</ele><time>2026-04-04T10:45:40.875Z</time></trkpt><trkpt lat="44.0075928" lon="11.3671135"><ele>326.0</ele><time>2026-04-04T10:45:41.875Z</time></trkpt><trkpt lat="44.0077165" lon="11.3671379"><ele>326.0</ele><time>2026-04-04T10:45:42.875Z</time></trkpt><trkpt lat="44.0078698" lon="11.3671569"><ele>326.0</ele><time>2026-04-04T10:45:43.874Z</time></trkpt><trkpt lat="44.0080423" lon="11.3671744"><ele>326.0</ele><time>2026-04-04T10:45:44.874Z</time></trkpt><trkpt lat="44.0082031" lon="11.3671824"><ele>326.0</ele><time>2026-04-04T10:45:45.874Z</time></trkpt><trkpt lat="44.0083598" lon="11.3671962"><ele>326.0</ele><time>2026-04-04T10:45:46.875Z</time></trkpt><trkpt lat="44.0085256" lon="11.3672258"><ele>327.33333333333337</ele><time>2026-04-04T10:45:47.875Z</time></trkpt><trkpt lat="44.008707" lon="11.3672849"><ele>328.6666666666667</ele><time>2026-04-04T10:45:48.874Z</time></trkpt><trkpt lat="44.0089027" lon="11.3673798"><ele>330.0</ele><time>2026-04-04T10:45:49.874Z</time></trkpt><trkpt lat="44.0091131" lon="11.3674892"><ele>332.5</ele><time>2026-04-04T10:45:50.874Z</time></trkpt><trkpt lat="44.0093331" lon="11.3676008"><ele>335.0</ele><time>2026-04-04T10:45:51.875Z</time></trkpt><trkpt lat="44.0095653" lon="11.3677158"><ele>335.0</ele><time>2026-04-04T10:45:52.874Z</time></trkpt><trkpt lat="44.0098042" lon="11.3678383"><ele>335.0</ele><time>2026-04-04T10:45:53.875Z</time></trkpt><trkpt lat="44.0100367" lon="11.3679556"><ele>337.0</ele><time>2026-04-04T10:45:54.874Z</time></trkpt><trkpt lat="44.0102556" lon="11.3680682"><ele>339.0</ele><time>2026-04-04T10:45:55.875Z</time></trkpt><trkpt lat="44.0104623" lon="11.3681814"><ele>339.0</ele><time>2026-04-04T10:45:56.875Z</time></trkpt><trkpt lat="44.0106566" lon="11.3682886"><ele>339.0</ele><time>2026-04-04T10:45:57.875Z</time></trkpt><trkpt lat="44.0108385" lon="11.368382"><ele>339.0</ele><time>2026-04-04T10:45:58.874Z</time></trkpt><trkpt lat="44.0110099" lon="11.368447"><ele>341.6666666666667</ele><time>2026-04-04T10:45:59.875Z</time></trkpt><trkpt lat="44.0111763" lon="11.3684825"><ele>344.33333333333337</ele><time>2026-04-04T10:46:00.875Z</time></trkpt><trkpt lat="44.0113484" lon="11.3684847"><ele>347.0</ele><time>2026-04-04T10:46:01.874Z</time></trkpt><trkpt lat="44.0115274" lon="11.3684619"><ele>349.0</ele><time>2026-04-04T10:46:02.874Z</time></trkpt><trkpt lat="44.0117188" lon="11.3684231"><ele>351.0</ele><time>2026-04-04T10:46:03.875Z</time></trkpt><trkpt lat="44.0118987" lon="11.3683921"><ele>353.0</ele><time>2026-04-04T10:46:04.874Z</time></trkpt><trkpt lat="44.0120592" lon="11.3683693"><ele>353.0</ele><time>2026-04-04T10:46:05.875Z</time></trkpt><trkpt lat="44.012207" lon="11.3683747"><ele>353.0</ele><time>2026-04-04T10:46:06.875Z</time></trkpt><trkpt lat="44.0123414" lon="11.3684294"><ele>353.0</ele><time>2026-04-04T10:46:07.874Z</time></trkpt><trkpt lat="44.0124799" lon="11.3685339"><ele>353.0</ele><time>2026-04-04T10:46:08.875Z</time></trkpt><trkpt lat="44.0126137" lon="11.3686795"><ele>352.6666666666667</ele><time>2026-04-04T10:46:09.874Z</time></trkpt><trkpt lat="44.0127553" lon="11.3688391"><ele>352.3333333333333</ele><time>2026-04-04T10:46:10.874Z</time></trkpt><trkpt lat="44.0129049" lon="11.3689977"><ele>352.0</ele><time>2026-04-04T10:46:11.875Z</time></trkpt><trkpt lat="44.0130421" lon="11.3691581"><ele>352.66666666666663</ele><time>2026-04-04T10:46:12.875Z</time></trkpt><trkpt lat="44.0131645" lon="11.3693559"><ele>353.3333333333333</ele><time>2026-04-04T10:46:13.875Z</time></trkpt><trkpt lat="44.0132708" lon="11.369593"><ele>354.0</ele><time>2026-04-04T10:46:14.875Z</time></trkpt><trkpt lat="44.0133692" lon="11.3698452"><ele>358.0</ele><time>2026-04-04T10:46:15.874Z</time></trkpt><trkpt lat="44.0134561" lon="11.3700788"><ele>362.0</ele><time>2026-04-04T10:46:16.875Z</time></trkpt><trkpt lat="44.0135466" lon="11.370286"><ele>366.0</ele><time>2026-04-04T10:46:17.874Z</time></trkpt><trkpt lat="44.0136586" lon="11.3704778"><ele>366.3333333333333</ele><time>2026-04-04T10:46:18.875Z</time></trkpt><trkpt lat="44.0138015" lon="11.3706316"><ele>366.66666666666663</ele><time>2026-04-04T10:46:19.874Z</time></trkpt><trkpt lat="44.0139746" lon="11.3707477"><ele>367.0</ele><time>2026-04-04T10:46:20.874Z</time></trkpt><trkpt lat="44.0141609" lon="11.3708572"><ele>368.3333333333333</ele><time>2026-04-04T10:46:21.875Z</time></trkpt><trkpt lat="44.0143327" lon="11.3709872"><ele>369.6666666666667</ele><time>2026-04-04T10:46:22.875Z</time></trkpt><trkpt lat="44.0144929" lon="11.3711043"><ele>371.0</ele><time>2026-04-04T10:46:23.874Z</time></trkpt><trkpt lat="44.0146743" lon="11.3711839"><ele>371.0</ele><time>2026-04-04T10:46:24.875Z</time></trkpt><trkpt lat="44.0148557" lon="11.371243"><ele>371.0</ele><time>2026-04-04T10:46:25.875Z</time></trkpt><trkpt lat="44.0150261" lon="11.3712807"><ele>371.0</ele><time>2026-04-04T10:46:26.875Z</time></trkpt><trkpt lat="44.015185" lon="11.3712856"><ele>374.6666666666667</ele><time>2026-04-04T10:46:27.875Z</time></trkpt><trkpt lat="44.015342" lon="11.371236"><ele>378.3333333333333</ele><time>2026-04-04T10:46:28.875Z</time></trkpt><trkpt lat="44.0154791" lon="11.3711537"><ele>382.0</ele><time>2026-04-04T10:46:29.873Z</time></trkpt><trkpt lat="44.0156135" lon="11.371086"><ele>382.0</ele><time>2026-04-04T10:46:30.875Z</time></trkpt><trkpt lat="44.0157499" lon="11.3710834"><ele>382.0</ele><time>2026-04-04T10:46:31.875Z</time></trkpt><trkpt lat="44.0158748" lon="11.3711283"><ele>382.0</ele><time>2026-04-04T10:46:32.873Z</time></trkpt><trkpt lat="44.0159764" lon="11.3712006"><ele>382.0</ele><time>2026-04-04T10:46:33.874Z</time></trkpt><trkpt lat="44.0160813" lon="11.3712568"><ele>383.20000000000005</ele><time>2026-04-04T10:46:34.875Z</time></trkpt><trkpt lat="44.0161903" lon="11.371264"><ele>384.4</ele><time>2026-04-04T10:46:35.875Z</time></trkpt><trkpt lat="44.0162849" lon="11.3712164"><ele>385.6</ele><time>2026-04-04T10:46:36.874Z</time></trkpt><trkpt lat="44.0163545" lon="11.371122"><ele>386.79999999999995</ele><time>2026-04-04T10:46:37.873Z</time></trkpt><trkpt lat="44.0164085" lon="11.3710065"><ele>388.0</ele><time>2026-04-04T10:46:38.874Z</time></trkpt><trkpt lat="44.0164597" lon="11.3708912"><ele>388.0</ele><time>2026-04-04T10:46:39.874Z</time></trkpt><trkpt lat="44.0165338" lon="11.3707851"><ele>388.0</ele><time>2026-04-04T10:46:40.875Z</time></trkpt><trkpt lat="44.0166184" lon="11.3706859"><ele>388.0</ele><time>2026-04-04T10:46:41.875Z</time></trkpt><trkpt lat="44.0167122" lon="11.3706035"><ele>388.0</ele><time>2026-04-04T10:46:42.874Z</time></trkpt><trkpt lat="44.0168051" lon="11.3705318"><ele>388.0</ele><time>2026-04-04T10:46:43.875Z</time></trkpt><trkpt lat="44.0169055" lon="11.3704764"><ele>387.4</ele><time>2026-04-04T10:46:44.875Z</time></trkpt><trkpt lat="44.0170053" lon="11.3704262"><ele>386.79999999999995</ele><time>2026-04-04T10:46:45.874Z</time></trkpt><trkpt lat="44.0171038" lon="11.3703759"><ele>386.2</ele><time>2026-04-04T10:46:46.875Z</time></trkpt><trkpt lat="44.0172043" lon="11.370333"><ele>385.6</ele><time>2026-04-04T10:46:47.873Z</time></trkpt><trkpt lat="44.0173094" lon="11.3703222"><ele>385.0</ele><time>2026-04-04T10:46:48.875Z</time></trkpt><trkpt lat="44.0174177" lon="11.370357"><ele>384.6666666666667</ele><time>2026-04-04T10:46:49.874Z</time></trkpt><trkpt lat="44.0175458" lon="11.3704331"><ele>384.33333333333337</ele><time>2026-04-04T10:46:50.873Z</time></trkpt><trkpt lat="44.0176899" lon="11.3705535"><ele>384.0</ele><time>2026-04-04T10:46:51.875Z</time></trkpt><trkpt lat="44.0178398" lon="11.3707092"><ele>383.6666666666667</ele><time>2026-04-04T10:46:52.874Z</time></trkpt><trkpt lat="44.0179819" lon="11.3708455"><ele>383.33333333333337</ele><time>2026-04-04T10:46:53.873Z</time></trkpt><trkpt lat="44.0181238" lon="11.3709498"><ele>383.0</ele><time>2026-04-04T10:46:54.873Z</time></trkpt><trkpt lat="44.0182688" lon="11.3710077"><ele>387.33333333333337</ele><time>2026-04-04T10:46:55.872Z</time></trkpt><trkpt lat="44.0184111" lon="11.3710056"><ele>391.6666666666667</ele><time>2026-04-04T10:46:56.874Z</time></trkpt><trkpt lat="44.0185593" lon="11.3709353"><ele>396.0</ele><time>2026-04-04T10:46:57.874Z</time></trkpt><trkpt lat="44.0187064" lon="11.3708057"><ele>396.0</ele><time>2026-04-04T10:46:58.873Z</time></trkpt><trkpt lat="44.0188771" lon="11.3706683"><ele>396.0</ele><time>2026-04-04T10:46:59.874Z</time></trkpt><trkpt lat="44.0190375" lon="11.370549"><ele>396.0</ele><time>2026-04-04T10:47:00.872Z</time></trkpt><trkpt lat="44.0191735" lon="11.3704156"><ele>394.33333333333337</ele><time>2026-04-04T10:47:01.874Z</time></trkpt><trkpt lat="44.0193204" lon="11.3702936"><ele>392.6666666666667</ele><time>2026-04-04T10:47:02.873Z</time></trkpt><trkpt lat="44.0194898" lon="11.3702023"><ele>391.0</ele><time>2026-04-04T10:47:03.873Z</time></trkpt><trkpt lat="44.0196754" lon="11.3701469"><ele>391.0</ele><time>2026-04-04T10:47:04.873Z</time></trkpt><trkpt lat="44.0198352" lon="11.3701167"><ele>391.0</ele><time>2026-04-04T10:47:05.873Z</time></trkpt><trkpt lat="44.019965" lon="11.3700908"><ele>391.0</ele><time>2026-04-04T10:47:06.873Z</time></trkpt><trkpt lat="44.0200586" lon="11.3700695"><ele>391.0</ele><time>2026-04-04T10:47:07.873Z</time></trkpt><trkpt lat="44.0201315" lon="11.3700455"><ele>393.0</ele><time>2026-04-04T10:47:08.874Z</time></trkpt><trkpt lat="44.0202406" lon="11.3700389"><ele>395.0</ele><time>2026-04-04T10:47:10.874Z</time></trkpt><trkpt lat="44.020304" lon="11.3700217"><ele>397.0</ele><time>2026-04-04T10:47:54.874Z</time></trkpt><trkpt lat="44.0204006" lon="11.3700069"><ele>399.0</ele><time>2026-04-04T10:47:55.874Z</time></trkpt><trkpt lat="44.0204936" lon="11.3700127"><ele>401.0</ele><time>2026-04-04T10:47:56.874Z</time></trkpt><trkpt lat="44.0205848" lon="11.3700446"><ele>401.0</ele><time>2026-04-04T10:47:57.874Z</time></trkpt><trkpt lat="44.0206751" lon="11.3701073"><ele>401.0</ele><time>2026-04-04T10:47:58.873Z</time></trkpt><trkpt lat="44.0207665" lon="11.370213"><ele>401.0</ele><time>2026-04-04T10:47:59.873Z</time></trkpt><trkpt lat="44.0208648" lon="11.3703359"><ele>401.0</ele><time>2026-04-04T10:48:00.872Z</time></trkpt><trkpt lat="44.0209833" lon="11.3704449"><ele>402.75</ele><time>2026-04-04T10:48:01.874Z</time></trkpt><trkpt lat="44.0211139" lon="11.3705329"><ele>404.5</ele><time>2026-04-04T10:48:02.874Z</time></trkpt><trkpt lat="44.0212407" lon="11.3706012"><ele>406.25</ele><time>2026-04-04T10:48:03.874Z</time></trkpt><trkpt lat="44.0213622" lon="11.3706476"><ele>408.0</ele><time>2026-04-04T10:48:04.874Z</time></trkpt><trkpt lat="44.0214856" lon="11.3706596"><ele>408.0</ele><time>2026-04-04T10:48:05.872Z</time></trkpt><trkpt lat="44.0216104" lon="11.3706381"><ele>408.0</ele><time>2026-04-04T10:48:06.873Z</time></trkpt><trkpt lat="44.0217371" lon="11.3705869"><ele>408.0</ele><time>2026-04-04T10:48:07.873Z</time></trkpt><trkpt lat="44.0218715" lon="11.3705164"><ele>408.0</ele><time>2026-04-04T10:48:08.874Z</time></trkpt><trkpt lat="44.0220034" lon="11.3704674"><ele>410.0</ele><time>2026-04-04T10:48:09.873Z</time></trkpt><trkpt lat="44.0221361" lon="11.3704605"><ele>412.0</ele><time>2026-04-04T10:48:10.873Z</time></trkpt><trkpt lat="44.0222636" lon="11.3704965"><ele>414.0</ele><time>2026-04-04T10:48:11.873Z</time></trkpt><trkpt lat="44.0223847" lon="11.3705542"><ele>416.0</ele><time>2026-04-04T10:48:12.874Z</time></trkpt><trkpt lat="44.0224997" lon="11.3705976"><ele>419.0</ele><time>2026-04-04T10:48:13.873Z</time></trkpt><trkpt lat="44.0226133" lon="11.3706061"><ele>422.0</ele><time>2026-04-04T10:48:14.874Z</time></trkpt><trkpt lat="44.0227452" lon="11.370582"><ele>425.0</ele><time>2026-04-04T10:48:15.873Z</time></trkpt><trkpt lat="44.0228958" lon="11.3705452"><ele>428.0</ele><time>2026-04-04T10:48:16.874Z</time></trkpt><trkpt lat="44.0230646" lon="11.370506"><ele>431.0</ele><time>2026-04-04T10:48:17.874Z</time></trkpt><trkpt lat="44.0232453" lon="11.3704632"><ele>434.0</ele><time>2026-04-04T10:48:18.874Z</time></trkpt><trkpt lat="44.0234221" lon="11.3704235"><ele>437.0</ele><time>2026-04-04T10:48:19.874Z</time></trkpt><trkpt lat="44.0235907" lon="11.3703778"><ele>439.66666666666663</ele><time>2026-04-04T10:48:20.874Z</time></trkpt><trkpt lat="44.0237427" lon="11.3702868"><ele>442.33333333333337</ele><time>2026-04-04T10:48:21.873Z</time></trkpt><trkpt lat="44.0238855" lon="11.3701489"><ele>445.0</ele><time>2026-04-04T10:48:22.873Z</time></trkpt><trkpt lat="44.0239941" lon="11.3699901"><ele>445.0</ele><time>2026-04-04T10:48:23.874Z</time></trkpt><trkpt lat="44.0240966" lon="11.3698533"><ele>445.0</ele><time>2026-04-04T10:48:24.874Z</time></trkpt><trkpt lat="44.0242189" lon="11.3697546"><ele>445.0</ele><time>2026-04-04T10:48:25.874Z</time></trkpt><trkpt lat="44.0243525" lon="11.3697111"><ele>445.0</ele><time>2026-04-04T10:48:26.874Z</time></trkpt><trkpt lat="44.0245023" lon="11.3697143"><ele>445.33333333333337</ele><time>2026-04-04T10:48:27.873Z</time></trkpt><trkpt lat="44.0246686" lon="11.3697436"><ele>445.66666666666663</ele><time>2026-04-04T10:48:28.873Z</time></trkpt><trkpt lat="44.0248421" lon="11.3697682"><ele>446.0</ele><time>2026-04-04T10:48:29.873Z</time></trkpt><trkpt lat="44.0250092" lon="11.3697993"><ele>449.0</ele><time>2026-04-04T10:48:30.874Z</time></trkpt><trkpt lat="44.0251544" lon="11.3698375"><ele>452.0</ele><time>2026-04-04T10:48:31.874Z</time></trkpt><trkpt lat="44.0252851" lon="11.3698818"><ele>455.0</ele><time>2026-04-04T10:48:32.873Z</time></trkpt><trkpt lat="44.0253977" lon="11.3699306"><ele>458.0</ele><time>2026-04-04T10:48:33.872Z</time></trkpt><trkpt lat="44.0255037" lon="11.3699931"><ele>458.0</ele><time>2026-04-04T10:48:34.873Z</time></trkpt><trkpt lat="44.0256079" lon="11.3700644"><ele>458.0</ele><time>2026-04-04T10:48:35.873Z</time></trkpt><trkpt lat="44.0257188" lon="11.3701452"><ele>458.0</ele><time>2026-04-04T10:48:36.873Z</time></trkpt><trkpt lat="44.0258519" lon="11.3702482"><ele>458.0</ele><time>2026-04-04T10:48:37.873Z</time></trkpt><trkpt lat="44.0260029" lon="11.3703724"><ele>461.0</ele><time>2026-04-04T10:48:38.873Z</time></trkpt><trkpt lat="44.0261575" lon="11.3705062"><ele>464.0</ele><time>2026-04-04T10:48:39.873Z</time></trkpt><trkpt lat="44.0263094" lon="11.3706295"><ele>467.0</ele><time>2026-04-04T10:48:40.874Z</time></trkpt><trkpt lat="44.0264522" lon="11.3707283"><ele>469.0</ele><time>2026-04-04T10:48:41.874Z</time></trkpt><trkpt lat="44.0266094" lon="11.3707731"><ele>471.0</ele><time>2026-04-04T10:48:42.873Z</time></trkpt><trkpt lat="44.0267872" lon="11.3707767"><ele>473.0</ele><time>2026-04-04T10:48:43.873Z</time></trkpt><trkpt lat="44.0269802" lon="11.3707587"><ele>474.66666666666663</ele><time>2026-04-04T10:48:44.873Z</time></trkpt><trkpt lat="44.0271874" lon="11.3707438"><ele>476.33333333333337</ele><time>2026-04-04T10:48:45.872Z</time></trkpt><trkpt lat="44.0273994" lon="11.3707274"><ele>478.0</ele><time>2026-04-04T10:48:46.873Z</time></trkpt><trkpt lat="44.0276055" lon="11.370703"><ele>481.0</ele><time>2026-04-04T10:48:47.874Z</time></trkpt><trkpt lat="44.0277925" lon="11.3706473"><ele>484.0</ele><time>2026-04-04T10:48:48.874Z</time></trkpt><trkpt lat="44.0279592" lon="11.3705723"><ele>487.0</ele><time>2026-04-04T10:48:49.873Z</time></trkpt><trkpt lat="44.0281191" lon="11.3705305"><ele>487.0</ele><time>2026-04-04T10:48:50.874Z</time></trkpt><trkpt lat="44.0282847" lon="11.3705281"><ele>487.0</ele><time>2026-04-04T10:48:51.874Z</time></trkpt><trkpt lat="44.0284555" lon="11.3705326"><ele>487.0</ele><time>2026-04-04T10:48:52.873Z</time></trkpt><trkpt lat="44.0286146" lon="11.370529"><ele>489.6</ele><time>2026-04-04T10:48:53.873Z</time></trkpt><trkpt lat="44.0287474" lon="11.3705314"><ele>492.20000000000005</ele><time>2026-04-04T10:48:54.874Z</time></trkpt><trkpt lat="44.0288539" lon="11.3705562"><ele>494.8</ele><time>2026-04-04T10:48:55.874Z</time></trkpt><trkpt lat="44.0289158" lon="11.3706146"><ele>497.4</ele><time>2026-04-04T10:48:56.873Z</time></trkpt><trkpt lat="44.0289018" lon="11.3707528"><ele>500.0</ele><time>2026-04-04T10:48:58.874Z</time></trkpt><trkpt lat="44.0288332" lon="11.3707797"><ele>500.0</ele><time>2026-04-04T10:48:59.874Z</time></trkpt><trkpt lat="44.028732" lon="11.3707831"><ele>500.0</ele><time>2026-04-04T10:49:00.874Z</time></trkpt><trkpt lat="44.0286" lon="11.3707706"><ele>500.0</ele><time>2026-04-04T10:49:01.874Z</time></trkpt><trkpt lat="44.0284423" lon="11.3707965"><ele>500.0</ele><time>2026-04-04T10:49:02.874Z</time></trkpt><trkpt lat="44.0282759" lon="11.3708597"><ele>495.66666666666663</ele><time>2026-04-04T10:49:03.874Z</time></trkpt><trkpt lat="44.0281132" lon="11.3709656"><ele>491.33333333333337</ele><time>2026-04-04T10:49:04.873Z</time></trkpt><trkpt lat="44.0279378" lon="11.3710945"><ele>487.0</ele><time>2026-04-04T10:49:05.872Z</time></trkpt><trkpt lat="44.027766" lon="11.3712279"><ele>487.0</ele><time>2026-04-04T10:49:06.873Z</time></trkpt><trkpt lat="44.0276148" lon="11.3713461"><ele>487.0</ele><time>2026-04-04T10:49:07.873Z</time></trkpt><trkpt lat="44.027491" lon="11.3714447"><ele>487.0</ele><time>2026-04-04T10:49:08.874Z</time></trkpt><trkpt lat="44.0274031" lon="11.3715441"><ele>487.0</ele><time>2026-04-04T10:49:09.874Z</time></trkpt><trkpt lat="44.0273584" lon="11.3716696"><ele>489.0</ele><time>2026-04-04T10:49:10.874Z</time></trkpt><trkpt lat="44.0273527" lon="11.3718136"><ele>491.00000000000006</ele><time>2026-04-04T10:49:11.874Z</time></trkpt><trkpt lat="44.0273587" lon="11.3719553"><ele>493.00000000000006</ele><time>2026-04-04T10:49:12.873Z</time></trkpt><trkpt lat="44.0273249" lon="11.3720674"><ele>495.0</ele><time>2026-04-04T10:49:13.873Z</time></trkpt><trkpt lat="44.0272593" lon="11.3721518"><ele>497.0</ele><time>2026-04-04T10:49:14.873Z</time></trkpt><trkpt lat="44.0271807" lon="11.3722071"><ele>500.16666666666663</ele><time>2026-04-04T10:49:15.874Z</time></trkpt><trkpt lat="44.0271056" lon="11.3722377"><ele>503.3333333333333</ele><time>2026-04-04T10:49:16.874Z</time></trkpt><trkpt lat="44.0270431" lon="11.3722773"><ele>506.5</ele><time>2026-04-04T10:49:17.873Z</time></trkpt><trkpt lat="44.026956" lon="11.3723743"><ele>509.66666666666663</ele><time>2026-04-04T10:49:19.874Z</time></trkpt><trkpt lat="44.0269056" lon="11.3724932"><ele>512.8333333333334</ele><time>2026-04-04T10:49:21.874Z</time></trkpt><trkpt lat="44.0268797" lon="11.3725797"><ele>516.0</ele><time>2026-04-04T10:49:22.873Z</time></trkpt><trkpt lat="44.02684" lon="11.3726774"><ele>516.0</ele><time>2026-04-04T10:49:23.874Z</time></trkpt><trkpt lat="44.026776" lon="11.3727733"><ele>516.0</ele><time>2026-04-04T10:49:24.874Z</time></trkpt><trkpt lat="44.0266835" lon="11.3728426"><ele>516.0</ele><time>2026-04-04T10:49:25.874Z</time></trkpt><trkpt lat="44.0265814" lon="11.3728728"><ele>516.0</ele><time>2026-04-04T10:49:26.873Z</time></trkpt><trkpt lat="44.0264614" lon="11.3728944"><ele>516.0</ele><time>2026-04-04T10:49:27.873Z</time></trkpt><trkpt lat="44.0263456" lon="11.37295"><ele>517.5</ele><time>2026-04-04T10:49:28.873Z</time></trkpt><trkpt lat="44.0262376" lon="11.3730624"><ele>519.0</ele><time>2026-04-04T10:49:29.874Z</time></trkpt><trkpt lat="44.0261348" lon="11.3732214"><ele>520.5</ele><time>2026-04-04T10:49:30.873Z</time></trkpt><trkpt lat="44.026038" lon="11.3733984"><ele>522.0</ele><time>2026-04-04T10:49:31.873Z</time></trkpt><trkpt lat="44.0259564" lon="11.3735632"><ele>522.0</ele><time>2026-04-04T10:49:32.873Z</time></trkpt><trkpt lat="44.0259086" lon="11.3737286"><ele>522.0</ele><time>2026-04-04T10:49:33.874Z</time></trkpt><trkpt lat="44.0259088" lon="11.3738943"><ele>522.0</ele><time>2026-04-04T10:49:34.874Z</time></trkpt><trkpt lat="44.0259483" lon="11.3740719"><ele>522.0</ele><time>2026-04-04T10:49:35.874Z</time></trkpt><trkpt lat="44.0260165" lon="11.3742476"><ele>524.0</ele><time>2026-04-04T10:49:36.873Z</time></trkpt><trkpt lat="44.0261148" lon="11.3744164"><ele>526.0</ele><time>2026-04-04T10:49:37.873Z</time></trkpt><trkpt lat="44.0262464" lon="11.3745675"><ele>528.0</ele><time>2026-04-04T10:49:38.873Z</time></trkpt><trkpt lat="44.0264002" lon="11.3747189"><ele>533.3333333333334</ele><time>2026-04-04T10:49:39.872Z</time></trkpt><trkpt lat="44.0265659" lon="11.3748755"><ele>538.6666666666667</ele><time>2026-04-04T10:49:40.873Z</time></trkpt><trkpt lat="44.0267385" lon="11.3750272"><ele>544.0</ele><time>2026-04-04T10:49:41.873Z</time></trkpt><trkpt lat="44.0269083" lon="11.3751702"><ele>544.0</ele><time>2026-04-04T10:49:42.873Z</time></trkpt><trkpt lat="44.0270741" lon="11.3752921"><ele>544.0</ele><time>2026-04-04T10:49:43.873Z</time></trkpt><trkpt lat="44.0272358" lon="11.3753967"><ele>544.0</ele><time>2026-04-04T10:49:44.873Z</time></trkpt><trkpt lat="44.027377" lon="11.3754872"><ele>547.25</ele><time>2026-04-04T10:49:45.871Z</time></trkpt><trkpt lat="44.0274974" lon="11.3755661"><ele>550.5</ele><time>2026-04-04T10:49:46.873Z</time></trkpt><trkpt lat="44.0275869" lon="11.3756668"><ele>553.75</ele><time>2026-04-04T10:49:47.873Z</time></trkpt><trkpt lat="44.0276518" lon="11.3758044"><ele>557.0</ele><time>2026-04-04T10:49:48.872Z</time></trkpt><trkpt lat="44.0276909" lon="11.3759691"><ele>557.0</ele><time>2026-04-04T10:49:49.872Z</time></trkpt><trkpt lat="44.0277532" lon="11.3761159"><ele>557.0</ele><time>2026-04-04T10:49:50.872Z</time></trkpt><trkpt lat="44.0278546" lon="11.3762529"><ele>557.0</ele><time>2026-04-04T10:49:51.872Z</time></trkpt><trkpt lat="44.0279856" lon="11.3763767"><ele>557.0</ele><time>2026-04-04T10:49:52.873Z</time></trkpt><trkpt lat="44.0281318" lon="11.3765034"><ele>559.3333333333333</ele><time>2026-04-04T10:49:53.873Z</time></trkpt><trkpt lat="44.0282824" lon="11.3766393"><ele>561.6666666666666</ele><time>2026-04-04T10:49:54.873Z</time></trkpt><trkpt lat="44.0284294" lon="11.3767666"><ele>564.0</ele><time>2026-04-04T10:49:55.873Z</time></trkpt><trkpt lat="44.0285747" lon="11.3768713"><ele>564.0</ele><time>2026-04-04T10:49:56.872Z</time></trkpt><trkpt lat="44.0287261" lon="11.376937"><ele>564.0</ele><time>2026-04-04T10:49:57.872Z</time></trkpt><trkpt lat="44.0288677" lon="11.3769727"><ele>564.0</ele><time>2026-04-04T10:49:58.873Z</time></trkpt><trkpt lat="44.0289909" lon="11.3770011"><ele>564.0</ele><time>2026-04-04T10:49:59.873Z</time></trkpt><trkpt lat="44.0290965" lon="11.3770793"><ele>565.0</ele><time>2026-04-04T10:50:00.872Z</time></trkpt><trkpt lat="44.0291776" lon="11.3772035"><ele>566.0</ele><time>2026-04-04T10:50:01.873Z</time></trkpt><trkpt lat="44.0292099" lon="11.3773621"><ele>567.0</ele><time>2026-04-04T10:50:02.872Z</time></trkpt><trkpt lat="44.0291955" lon="11.3775325"><ele>568.0</ele><time>2026-04-04T10:50:03.873Z</time></trkpt><trkpt lat="44.0291795" lon="11.3776807"><ele>568.0</ele><time>2026-04-04T10:50:04.872Z</time></trkpt><trkpt lat="44.0292107" lon="11.3778432"><ele>568.0</ele><time>2026-04-04T10:50:05.872Z</time></trkpt><trkpt lat="44.0292834" lon="11.3779934"><ele>568.0</ele><time>2026-04-04T10:50:06.872Z</time></trkpt><trkpt lat="44.0293873" lon="11.3781215"><ele>568.0</ele><time>2026-04-04T10:50:07.872Z</time></trkpt><trkpt lat="44.0295139" lon="11.3782292"><ele>566.75</ele><time>2026-04-04T10:50:08.872Z</time></trkpt><trkpt lat="44.0296523" lon="11.3783215"><ele>565.5</ele><time>2026-04-04T10:50:09.873Z</time></trkpt><trkpt lat="44.0297843" lon="11.3783731"><ele>564.25</ele><time>2026-04-04T10:50:10.873Z</time></trkpt><trkpt lat="44.029917" lon="11.3783743"><ele>563.0</ele><time>2026-04-04T10:50:11.873Z</time></trkpt><trkpt lat="44.0300379" lon="11.3783225"><ele>565.5</ele><time>2026-04-04T10:50:12.872Z</time></trkpt><trkpt lat="44.0301338" lon="11.3782116"><ele>568.0</ele><time>2026-04-04T10:50:13.873Z</time></trkpt><trkpt lat="44.0302045" lon="11.3780561"><ele>570.5</ele><time>2026-04-04T10:50:14.873Z</time></trkpt><trkpt lat="44.0302639" lon="11.3778975"><ele>573.0</ele><time>2026-04-04T10:50:15.873Z</time></trkpt><trkpt lat="44.0303542" lon="11.3777851"><ele>575.5</ele><time>2026-04-04T10:50:16.873Z</time></trkpt><trkpt lat="44.0304636" lon="11.377721"><ele>578.0</ele><time>2026-04-04T10:50:17.871Z</time></trkpt><trkpt lat="44.0305641" lon="11.3776514"><ele>580.5</ele><time>2026-04-04T10:50:18.873Z</time></trkpt><trkpt lat="44.0306352" lon="11.3775227"><ele>583.0</ele><time>2026-04-04T10:50:19.872Z</time></trkpt><trkpt lat="44.0306757" lon="11.3773575"><ele>583.0</ele><time>2026-04-04T10:50:20.873Z</time></trkpt><trkpt lat="44.030694" lon="11.3771887"><ele>583.0</ele><time>2026-04-04T10:50:21.873Z</time></trkpt><trkpt lat="44.0307404" lon="11.377049"><ele>583.0</ele><time>2026-04-04T10:50:22.873Z</time></trkpt><trkpt lat="44.0308147" lon="11.3769546"><ele>583.0</ele><time>2026-04-04T10:50:23.872Z</time></trkpt><trkpt lat="44.0308914" lon="11.3769244"><ele>583.0</ele><time>2026-04-04T10:50:24.873Z</time></trkpt><trkpt lat="44.0309706" lon="11.3769266"><ele>585.1999999999999</ele><time>2026-04-04T10:50:25.873Z</time></trkpt><trkpt lat="44.0310551" lon="11.3769318"><ele>587.4</ele><time>2026-04-04T10:50:26.872Z</time></trkpt><trkpt lat="44.0311575" lon="11.3769331"><ele>589.5999999999999</ele><time>2026-04-04T10:50:27.872Z</time></trkpt><trkpt lat="44.0312722" lon="11.3769322"><ele>591.8</ele><time>2026-04-04T10:50:28.872Z</time></trkpt><trkpt lat="44.031412" lon="11.376936"><ele>594.0</ele><time>2026-04-04T10:50:29.873Z</time></trkpt><trkpt lat="44.0315696" lon="11.3769428"><ele>593.6666666666666</ele><time>2026-04-04T10:50:30.873Z</time></trkpt><trkpt lat="44.0317254" lon="11.3769532"><ele>593.3333333333333</ele><time>2026-04-04T10:50:31.873Z</time></trkpt><trkpt lat="44.0318929" lon="11.3769549"><ele>593.0</ele><time>2026-04-04T10:50:32.871Z</time></trkpt><trkpt lat="44.0320655" lon="11.3769373"><ele>593.0</ele><time>2026-04-04T10:50:33.871Z</time></trkpt><trkpt lat="44.0322327" lon="11.376912"><ele>593.0</ele><time>2026-04-04T10:50:34.873Z</time></trkpt><trkpt lat="44.0323868" lon="11.3768825"><ele>593.0</ele><time>2026-04-04T10:50:35.873Z</time></trkpt><trkpt lat="44.0325214" lon="11.3768421"><ele>594.25</ele><time>2026-04-04T10:50:36.872Z</time></trkpt><trkpt lat="44.0326422" lon="11.3767701"><ele>595.5</ele><time>2026-04-04T10:50:37.873Z</time></trkpt><trkpt lat="44.0327389" lon="11.3766744"><ele>596.75</ele><time>2026-04-04T10:50:38.872Z</time></trkpt><trkpt lat="44.0328084" lon="11.3765519"><ele>598.0</ele><time>2026-04-04T10:50:39.872Z</time></trkpt><trkpt lat="44.0328545" lon="11.3763989"><ele>600.6</ele><time>2026-04-04T10:50:40.872Z</time></trkpt><trkpt lat="44.0328943" lon="11.3762505"><ele>603.1999999999999</ele><time>2026-04-04T10:50:41.872Z</time></trkpt><trkpt lat="44.032931" lon="11.3761161"><ele>605.8</ele><time>2026-04-04T10:50:42.872Z</time></trkpt><trkpt lat="44.0329825" lon="11.3759992"><ele>608.4</ele><time>2026-04-04T10:50:43.873Z</time></trkpt><trkpt lat="44.033044" lon="11.3758932"><ele>611.0</ele><time>2026-04-04T10:50:44.873Z</time></trkpt><trkpt lat="44.0331171" lon="11.3758072"><ele>611.0</ele><time>2026-04-04T10:50:45.873Z</time></trkpt><trkpt lat="44.033189" lon="11.3757495"><ele>611.0</ele><time>2026-04-04T10:50:46.872Z</time></trkpt><trkpt lat="44.0332623" lon="11.3757127"><ele>611.0</ele><time>2026-04-04T10:50:47.873Z</time></trkpt><trkpt lat="44.0333305" lon="11.3757006"><ele>611.0</ele><time>2026-04-04T10:50:48.872Z</time></trkpt><trkpt lat="44.0334301" lon="11.3757222"><ele>611.0</ele><time>2026-04-04T10:50:50.873Z</time></trkpt><trkpt lat="44.0335059" lon="11.3757419"><ele>611.0</ele><time>2026-04-04T10:50:53.873Z</time></trkpt><trkpt lat="44.0335819" lon="11.375745"><ele>607.0</ele><time>2026-04-04T10:50:55.873Z</time></trkpt><trkpt lat="44.0336484" lon="11.3757344"><ele>607.0</ele><time>2026-04-04T10:50:58.872Z</time></trkpt><trkpt lat="44.0335705" lon="11.3757221"><ele>607.0</ele><time>2026-04-04T10:51:02.873Z</time></trkpt></trkseg><trkseg><trkpt lat="44.047052" lon="11.3883041"><ele>881.0</ele><time>2026-04-04T12:21:26.856Z</time></trkpt><trkpt lat="44.0471061" lon="11.3884015"><ele>881.0</ele><time>2026-04-04T12:21:29.855Z</time></trkpt><trkpt lat="44.0471033" lon="11.3885507"><ele>881.0</ele><time>2026-04-04T12:21:30.855Z</time></trkpt><trkpt lat="44.047095" lon="11.3887196"><ele>881.0</ele><time>2026-04-04T12:21:31.855Z</time></trkpt><trkpt lat="44.0470896" lon="11.3889181"><ele>877.3333333333334</ele><time>2026-04-04T12:21:32.856Z</time></trkpt><trkpt lat="44.0471079" lon="11.3891446"><ele>873.6666666666667</ele><time>2026-04-04T12:21:33.855Z</time></trkpt><trkpt lat="44.0471432" lon="11.3893808"><ele>870.0</ele><time>2026-04-04T12:21:34.855Z</time></trkpt><trkpt lat="44.0471754" lon="11.3896096"><ele>866.5</ele><time>2026-04-04T12:21:35.855Z</time></trkpt><trkpt lat="44.047192" lon="11.3898258"><ele>863.0</ele><time>2026-04-04T12:21:36.856Z</time></trkpt><trkpt lat="44.0471996" lon="11.3900254"><ele>859.5</ele><time>2026-04-04T12:21:37.856Z</time></trkpt><trkpt lat="44.0472031" lon="11.3901887"><ele>856.0</ele><time>2026-04-04T12:21:38.855Z</time></trkpt><trkpt lat="44.0472092" lon="11.3903279"><ele>855.9999999999999</ele><time>2026-04-04T12:21:39.856Z</time></trkpt><trkpt lat="44.0472271" lon="11.3904476"><ele>856.0</ele><time>2026-04-04T12:21:40.854Z</time></trkpt><trkpt lat="44.0472779" lon="11.3905266"><ele>856.0</ele><time>2026-04-04T12:21:41.856Z</time></trkpt><trkpt lat="44.0473455" lon="11.3905546"><ele>856.0</ele><time>2026-04-04T12:21:42.855Z</time></trkpt><trkpt lat="44.0474267" lon="11.3905331"><ele>855.9999999999999</ele><time>2026-04-04T12:21:43.855Z</time></trkpt><trkpt lat="44.0475043" lon="11.3904762"><ele>856.0</ele><time>2026-04-04T12:21:44.855Z</time></trkpt><trkpt lat="44.0475791" lon="11.3904187"><ele>857.8333333333333</ele><time>2026-04-04T12:21:45.855Z</time></trkpt><trkpt lat="44.0476547" lon="11.390371"><ele>859.6666666666666</ele><time>2026-04-04T12:21:46.855Z</time></trkpt><trkpt lat="44.0477287" lon="11.3903286"><ele>861.5</ele><time>2026-04-04T12:21:47.856Z</time></trkpt><trkpt lat="44.0478058" lon="11.3903041"><ele>863.3333333333333</ele><time>2026-04-04T12:21:48.855Z</time></trkpt><trkpt lat="44.0478921" lon="11.3903061"><ele>865.1666666666666</ele><time>2026-04-04T12:21:49.855Z</time></trkpt><trkpt lat="44.0479821" lon="11.3903463"><ele>867.0</ele><time>2026-04-04T12:21:50.854Z</time></trkpt><trkpt lat="44.0480708" lon="11.3904322"><ele>863.5</ele><time>2026-04-04T12:21:51.855Z</time></trkpt><trkpt lat="44.0481512" lon="11.3905536"><ele>860.0</ele><time>2026-04-04T12:21:52.855Z</time></trkpt><trkpt lat="44.0482243" lon="11.3907201"><ele>856.5</ele><time>2026-04-04T12:21:53.855Z</time></trkpt><trkpt lat="44.0482875" lon="11.3908892"><ele>853.0</ele><time>2026-04-04T12:21:54.855Z</time></trkpt><trkpt lat="44.048339" lon="11.3910507"><ele>852.2</ele><time>2026-04-04T12:21:55.856Z</time></trkpt><trkpt lat="44.0483783" lon="11.3912104"><ele>851.4</ele><time>2026-04-04T12:21:56.855Z</time></trkpt><trkpt lat="44.0483985" lon="11.3913672"><ele>850.6</ele><time>2026-04-04T12:21:57.855Z</time></trkpt><trkpt lat="44.0484049" lon="11.3915151"><ele>849.8000000000001</ele><time>2026-04-04T12:21:58.856Z</time></trkpt><trkpt lat="44.0484182" lon="11.3916328"><ele>849.0</ele><time>2026-04-04T12:21:59.856Z</time></trkpt><trkpt lat="44.0484648" lon="11.3917044"><ele>849.0</ele><time>2026-04-04T12:22:00.855Z</time></trkpt><trkpt lat="44.0485776" lon="11.3916746"><ele>849.0</ele><time>2026-04-04T12:22:02.856Z</time></trkpt><trkpt lat="44.0486287" lon="11.391576"><ele>849.0</ele><time>2026-04-04T12:22:03.855Z</time></trkpt><trkpt lat="44.0486676" lon="11.3914304"><ele>849.0</ele><time>2026-04-04T12:22:04.856Z</time></trkpt><trkpt lat="44.0487217" lon="11.3912586"><ele>849.0</ele><time>2026-04-04T12:22:05.855Z</time></trkpt><trkpt lat="44.0487979" lon="11.3910776"><ele>849.0</ele><time>2026-04-04T12:22:06.855Z</time></trkpt><trkpt lat="44.0488792" lon="11.390893"><ele>849.0</ele><time>2026-04-04T12:22:07.856Z</time></trkpt><trkpt lat="44.0489479" lon="11.3907156"><ele>849.0</ele><time>2026-04-04T12:22:08.856Z</time></trkpt><trkpt lat="44.0489898" lon="11.390532"><ele>849.0</ele><time>2026-04-04T12:22:09.855Z</time></trkpt><trkpt lat="44.0490116" lon="11.3903591"><ele>847.75</ele><time>2026-04-04T12:22:10.856Z</time></trkpt><trkpt lat="44.0490583" lon="11.3902116"><ele>846.5</ele><time>2026-04-04T12:22:11.856Z</time></trkpt><trkpt lat="44.0491388" lon="11.3900882"><ele>845.25</ele><time>2026-04-04T12:22:12.854Z</time></trkpt><trkpt lat="44.0492391" lon="11.3899803"><ele>844.0</ele><time>2026-04-04T12:22:13.856Z</time></trkpt><trkpt lat="44.0493457" lon="11.3898896"><ele>844.0</ele><time>2026-04-04T12:22:14.855Z</time></trkpt><trkpt lat="44.0494556" lon="11.3898082"><ele>844.0</ele><time>2026-04-04T12:22:15.854Z</time></trkpt><trkpt lat="44.0495676" lon="11.3897429"><ele>844.0</ele><time>2026-04-04T12:22:16.855Z</time></trkpt><trkpt lat="44.0496784" lon="11.3896988"><ele>844.0</ele><time>2026-04-04T12:22:17.856Z</time></trkpt><trkpt lat="44.0497852" lon="11.3896709"><ele>845.0</ele><time>2026-04-04T12:22:18.855Z</time></trkpt><trkpt lat="44.0498912" lon="11.3896632"><ele>846.0</ele><time>2026-04-04T12:22:19.856Z</time></trkpt><trkpt lat="44.0499937" lon="11.3896676"><ele>847.0</ele><time>2026-04-04T12:22:20.855Z</time></trkpt><trkpt lat="44.0501099" lon="11.3896806"><ele>848.0</ele><time>2026-04-04T12:22:21.855Z</time></trkpt><trkpt lat="44.050235" lon="11.3897049"><ele>843.25</ele><time>2026-04-04T12:22:22.856Z</time></trkpt><trkpt lat="44.0503697" lon="11.3897437"><ele>838.5</ele><time>2026-04-04T12:22:23.855Z</time></trkpt><trkpt lat="44.0505093" lon="11.3898038"><ele>833.75</ele><time>2026-04-04T12:22:24.855Z</time></trkpt><trkpt lat="44.0506508" lon="11.3898822"><ele>829.0</ele><time>2026-04-04T12:22:25.855Z</time></trkpt><trkpt lat="44.0508011" lon="11.3899812"><ele>826.0</ele><time>2026-04-04T12:22:26.855Z</time></trkpt><trkpt lat="44.0509542" lon="11.3900655"><ele>823.0</ele><time>2026-04-04T12:22:27.856Z</time></trkpt><trkpt lat="44.0511152" lon="11.3901153"><ele>820.0</ele><time>2026-04-04T12:22:28.855Z</time></trkpt><trkpt lat="44.0512888" lon="11.3901163"><ele>820.0</ele><time>2026-04-04T12:22:29.856Z</time></trkpt><trkpt lat="44.0514676" lon="11.3900961"><ele>820.0</ele><time>2026-04-04T12:22:30.854Z</time></trkpt><trkpt lat="44.0516485" lon="11.3901134"><ele>820.0</ele><time>2026-04-04T12:22:31.856Z</time></trkpt><trkpt lat="44.0518412" lon="11.3901784"><ele>819.3333333333333</ele><time>2026-04-04T12:22:32.855Z</time></trkpt><trkpt lat="44.0520434" lon="11.3902732"><ele>818.6666666666667</ele><time>2026-04-04T12:22:33.856Z</time></trkpt><trkpt lat="44.0522518" lon="11.3903694"><ele>818.0</ele><time>2026-04-04T12:22:34.856Z</time></trkpt><trkpt lat="44.0524357" lon="11.3904611"><ele>813.6666666666667</ele><time>2026-04-04T12:22:35.855Z</time></trkpt><trkpt lat="44.0525982" lon="11.3905333"><ele>809.3333333333333</ele><time>2026-04-04T12:22:36.856Z</time></trkpt><trkpt lat="44.0527546" lon="11.3905638"><ele>805.0</ele><time>2026-04-04T12:22:37.855Z</time></trkpt><trkpt lat="44.0529071" lon="11.3905504"><ele>810.0</ele><time>2026-04-04T12:22:38.855Z</time></trkpt><trkpt lat="44.0530589" lon="11.390496"><ele>815.0</ele><time>2026-04-04T12:22:39.854Z</time></trkpt><trkpt lat="44.0532128" lon="11.3904414"><ele>820.0</ele><time>2026-04-04T12:22:40.856Z</time></trkpt><trkpt lat="44.0533763" lon="11.39042"><ele>823.3333333333333</ele><time>2026-04-04T12:22:41.854Z</time></trkpt><trkpt lat="44.0535409" lon="11.3904223"><ele>826.6666666666667</ele><time>2026-04-04T12:22:42.854Z</time></trkpt><trkpt lat="44.0537059" lon="11.3904327"><ele>830.0</ele><time>2026-04-04T12:22:43.856Z</time></trkpt><trkpt lat="44.0538692" lon="11.3904576"><ele>830.0</ele><time>2026-04-04T12:22:44.856Z</time></trkpt><trkpt lat="44.0540248" lon="11.3904948"><ele>830.0</ele><time>2026-04-04T12:22:45.855Z</time></trkpt><trkpt lat="44.0541737" lon="11.3905352"><ele>830.0</ele><time>2026-04-04T12:22:46.855Z</time></trkpt><trkpt lat="44.0543074" lon="11.3906049"><ele>822.5</ele><time>2026-04-04T12:22:47.856Z</time></trkpt><trkpt lat="44.0544427" lon="11.3906344"><ele>815.0</ele><time>2026-04-04T12:22:48.856Z</time></trkpt><trkpt lat="44.0545724" lon="11.3906476"><ele>807.5</ele><time>2026-04-04T12:22:49.854Z</time></trkpt><trkpt lat="44.0546912" lon="11.3906481"><ele>800.0</ele><time>2026-04-04T12:22:50.855Z</time></trkpt><trkpt lat="44.0547981" lon="11.3905867"><ele>800.0</ele><time>2026-04-04T12:22:51.856Z</time></trkpt><trkpt lat="44.0548959" lon="11.3905176"><ele>800.0</ele><time>2026-04-04T12:22:52.855Z</time></trkpt><trkpt lat="44.0549305" lon="11.3903902"><ele>800.0</ele><time>2026-04-04T12:22:53.855Z</time></trkpt><trkpt lat="44.0549844" lon="11.3902922"><ele>800.0</ele><time>2026-04-04T12:22:54.856Z</time></trkpt><trkpt lat="44.0550346" lon="11.3901929"><ele>800.0</ele><time>2026-04-04T12:22:55.856Z</time></trkpt><trkpt lat="44.0550867" lon="11.3901133"><ele>799.0</ele><time>2026-04-04T12:22:56.855Z</time></trkpt><trkpt lat="44.0551452" lon="11.3900663"><ele>798.0</ele><time>2026-04-04T12:22:57.855Z</time></trkpt><trkpt lat="44.0552539" lon="11.390118"><ele>797.0</ele><time>2026-04-04T12:22:59.855Z</time></trkpt><trkpt lat="44.0552904" lon="11.3902149"><ele>796.0</ele><time>2026-04-04T12:23:00.855Z</time></trkpt><trkpt lat="44.0553151" lon="11.3903539"><ele>795.0</ele><time>2026-04-04T12:23:01.855Z</time></trkpt><trkpt lat="44.0553265" lon="11.3905272"><ele>795.0</ele><time>2026-04-04T12:23:02.855Z</time></trkpt><trkpt lat="44.055329" lon="11.3907087"><ele>795.0</ele><time>2026-04-04T12:23:03.855Z</time></trkpt><trkpt lat="44.0553213" lon="11.3908868"><ele>795.0</ele><time>2026-04-04T12:23:04.855Z</time></trkpt><trkpt lat="44.0553105" lon="11.3910539"><ele>795.0</ele><time>2026-04-04T12:23:05.856Z</time></trkpt><trkpt lat="44.0553057" lon="11.3912204"><ele>792.5</ele><time>2026-04-04T12:23:06.855Z</time></trkpt><trkpt lat="44.0553236" lon="11.3913816"><ele>790.0</ele><time>2026-04-04T12:23:07.855Z</time></trkpt><trkpt lat="44.0553699" lon="11.3915495"><ele>787.5</ele><time>2026-04-04T12:23:08.854Z</time></trkpt><trkpt lat="44.0554314" lon="11.3917204"><ele>785.0</ele><time>2026-04-04T12:23:09.856Z</time></trkpt><trkpt lat="44.0555065" lon="11.3919034"><ele>785.0</ele><time>2026-04-04T12:23:10.855Z</time></trkpt><trkpt lat="44.0555998" lon="11.3921099"><ele>785.0</ele><time>2026-04-04T12:23:11.855Z</time></trkpt><trkpt lat="44.0557062" lon="11.3923514"><ele>785.0</ele><time>2026-04-04T12:23:12.856Z</time></trkpt><trkpt lat="44.0558072" lon="11.3926154"><ele>786.6666666666667</ele><time>2026-04-04T12:23:13.856Z</time></trkpt><trkpt lat="44.0558999" lon="11.3928593"><ele>788.3333333333333</ele><time>2026-04-04T12:23:14.856Z</time></trkpt><trkpt lat="44.05598" lon="11.3930539"><ele>790.0</ele><time>2026-04-04T12:23:15.856Z</time></trkpt><trkpt lat="44.0560561" lon="11.3932026"><ele>784.8</ele><time>2026-04-04T12:23:16.855Z</time></trkpt><trkpt lat="44.0561489" lon="11.3932868"><ele>779.6</ele><time>2026-04-04T12:23:17.856Z</time></trkpt><trkpt lat="44.0562406" lon="11.3933296"><ele>774.4000000000001</ele><time>2026-04-04T12:23:18.855Z</time></trkpt><trkpt lat="44.0563498" lon="11.3932861"><ele>769.2</ele><time>2026-04-04T12:23:19.855Z</time></trkpt><trkpt lat="44.0564534" lon="11.3931964"><ele>764.0</ele><time>2026-04-04T12:23:20.856Z</time></trkpt><trkpt lat="44.0565424" lon="11.3930922"><ele>766.5</ele><time>2026-04-04T12:23:21.856Z</time></trkpt><trkpt lat="44.0566241" lon="11.3930274"><ele>769.0</ele><time>2026-04-04T12:23:22.856Z</time></trkpt><trkpt lat="44.0567012" lon="11.3930168"><ele>771.5</ele><time>2026-04-04T12:23:23.855Z</time></trkpt><trkpt lat="44.0567628" lon="11.3930648"><ele>774.0</ele><time>2026-04-04T12:23:24.855Z</time></trkpt><trkpt lat="44.0568024" lon="11.3931608"><ele>776.5000000000001</ele><time>2026-04-04T12:23:25.855Z</time></trkpt><trkpt lat="44.0568108" lon="11.3932928"><ele>779.0</ele><time>2026-04-04T12:23:26.855Z</time></trkpt><trkpt lat="44.0567933" lon="11.3934535"><ele>779.0</ele><time>2026-04-04T12:23:27.855Z</time></trkpt><trkpt lat="44.0567714" lon="11.3936018"><ele>779.0</ele><time>2026-04-04T12:23:28.854Z</time></trkpt><trkpt lat="44.0567774" lon="11.393741"><ele>779.0</ele><time>2026-04-04T12:23:29.856Z</time></trkpt><trkpt lat="44.0568228" lon="11.3938542"><ele>779.0</ele><time>2026-04-04T12:23:30.856Z</time></trkpt><trkpt lat="44.0569052" lon="11.3939291"><ele>779.0</ele><time>2026-04-04T12:23:31.854Z</time></trkpt><trkpt lat="44.0570206" lon="11.393998"><ele>778.0</ele><time>2026-04-04T12:23:32.855Z</time></trkpt><trkpt lat="44.0571472" lon="11.3940837"><ele>777.0</ele><time>2026-04-04T12:23:33.855Z</time></trkpt><trkpt lat="44.0572726" lon="11.3941949"><ele>776.0</ele><time>2026-04-04T12:23:34.856Z</time></trkpt><trkpt lat="44.0573859" lon="11.3942979"><ele>775.0</ele><time>2026-04-04T12:23:35.855Z</time></trkpt><trkpt lat="44.0574927" lon="11.3943982"><ele>774.9999999999999</ele><time>2026-04-04T12:23:36.856Z</time></trkpt><trkpt lat="44.0575776" lon="11.3944865"><ele>775.0</ele><time>2026-04-04T12:23:37.855Z</time></trkpt><trkpt lat="44.0576272" lon="11.3945759"><ele>775.0</ele><time>2026-04-04T12:23:38.855Z</time></trkpt><trkpt lat="44.057629" lon="11.3946746"><ele>775.0</ele><time>2026-04-04T12:23:39.854Z</time></trkpt><trkpt lat="44.0575916" lon="11.3947611"><ele>774.9999999999999</ele><time>2026-04-04T12:23:40.854Z</time></trkpt><trkpt lat="44.0575104" lon="11.3948337"><ele>775.0</ele><time>2026-04-04T12:23:41.856Z</time></trkpt><trkpt lat="44.0574115" lon="11.394904"><ele>767.2</ele><time>2026-04-04T12:23:42.856Z</time></trkpt><trkpt lat="44.0573313" lon="11.3949949"><ele>759.4</ele><time>2026-04-04T12:23:43.856Z</time></trkpt><trkpt lat="44.0572857" lon="11.3951138"><ele>751.5999999999999</ele><time>2026-04-04T12:23:44.855Z</time></trkpt><trkpt lat="44.0572812" lon="11.3952511"><ele>743.8</ele><time>2026-04-04T12:23:45.856Z</time></trkpt><trkpt lat="44.057319" lon="11.3954057"><ele>736.0</ele><time>2026-04-04T12:23:46.856Z</time></trkpt><trkpt lat="44.057379" lon="11.3955921"><ele>734.3333333333334</ele><time>2026-04-04T12:23:47.855Z</time></trkpt><trkpt lat="44.0574418" lon="11.3958088"><ele>732.6666666666666</ele><time>2026-04-04T12:23:48.856Z</time></trkpt><trkpt lat="44.0575181" lon="11.3960451"><ele>731.0</ele><time>2026-04-04T12:23:49.855Z</time></trkpt><trkpt lat="44.0575987" lon="11.3962796"><ele>737.0</ele><time>2026-04-04T12:23:50.855Z</time></trkpt><trkpt lat="44.0576631" lon="11.3964902"><ele>743.0</ele><time>2026-04-04T12:23:51.855Z</time></trkpt><trkpt lat="44.0576977" lon="11.3967029"><ele>749.0</ele><time>2026-04-04T12:23:52.855Z</time></trkpt><trkpt lat="44.0576997" lon="11.3969023"><ele>749.0</ele><time>2026-04-04T12:23:53.855Z</time></trkpt><trkpt lat="44.0577052" lon="11.3970777"><ele>749.0</ele><time>2026-04-04T12:23:54.856Z</time></trkpt><trkpt lat="44.0577304" lon="11.3972523"><ele>749.0</ele><time>2026-04-04T12:23:55.855Z</time></trkpt><trkpt lat="44.057817" lon="11.3974072"><ele>749.0</ele><time>2026-04-04T12:23:56.855Z</time></trkpt><trkpt lat="44.057899" lon="11.3975463"><ele>750.25</ele><time>2026-04-04T12:23:57.854Z</time></trkpt><trkpt lat="44.0580085" lon="11.3976621"><ele>751.5</ele><time>2026-04-04T12:23:58.856Z</time></trkpt><trkpt lat="44.058136" lon="11.3977622"><ele>752.75</ele><time>2026-04-04T12:23:59.856Z</time></trkpt><trkpt lat="44.0582757" lon="11.3978426"><ele>754.0</ele><time>2026-04-04T12:24:00.855Z</time></trkpt><trkpt lat="44.0584241" lon="11.3978997"><ele>754.0</ele><time>2026-04-04T12:24:01.855Z</time></trkpt><trkpt lat="44.0585653" lon="11.3979243"><ele>754.0</ele><time>2026-04-04T12:24:02.855Z</time></trkpt><trkpt lat="44.0587116" lon="11.3979148"><ele>754.0</ele><time>2026-04-04T12:24:03.856Z</time></trkpt><trkpt lat="44.0588581" lon="11.3978611"><ele>754.0</ele><time>2026-04-04T12:24:04.856Z</time></trkpt><trkpt lat="44.0590019" lon="11.3977988"><ele>754.5</ele><time>2026-04-04T12:24:05.856Z</time></trkpt><trkpt lat="44.059142" lon="11.3977747"><ele>755.0</ele><time>2026-04-04T12:24:06.856Z</time></trkpt><trkpt lat="44.0592871" lon="11.3978006"><ele>755.5</ele><time>2026-04-04T12:24:07.855Z</time></trkpt><trkpt lat="44.0594338" lon="11.3978762"><ele>756.0</ele><time>2026-04-04T12:24:08.856Z</time></trkpt><trkpt lat="44.0595709" lon="11.3979828"><ele>750.25</ele><time>2026-04-04T12:24:09.855Z</time></trkpt><trkpt lat="44.0596977" lon="11.3980695"><ele>744.5</ele><time>2026-04-04T12:24:10.854Z</time></trkpt><trkpt lat="44.0598276" lon="11.3981136"><ele>738.75</ele><time>2026-04-04T12:24:11.855Z</time></trkpt><trkpt lat="44.0599428" lon="11.3981072"><ele>733.0</ele><time>2026-04-04T12:24:12.855Z</time></trkpt><trkpt lat="44.0600349" lon="11.3980472"><ele>735.25</ele><time>2026-04-04T12:24:13.856Z</time></trkpt><trkpt lat="44.0600909" lon="11.3979438"><ele>737.5</ele><time>2026-04-04T12:24:14.855Z</time></trkpt><trkpt lat="44.0601157" lon="11.3977983"><ele>739.75</ele><time>2026-04-04T12:24:15.856Z</time></trkpt><trkpt lat="44.0601284" lon="11.3976264"><ele>742.0</ele><time>2026-04-04T12:24:16.856Z</time></trkpt><trkpt lat="44.0601784" lon="11.3974607"><ele>742.0</ele><time>2026-04-04T12:24:17.855Z</time></trkpt><trkpt lat="44.060269" lon="11.3973113"><ele>742.0</ele><time>2026-04-04T12:24:18.855Z</time></trkpt><trkpt lat="44.0603801" lon="11.3971906"><ele>742.0</ele><time>2026-04-04T12:24:19.856Z</time></trkpt><trkpt lat="44.0604977" lon="11.3971117"><ele>742.0</ele><time>2026-04-04T12:24:20.856Z</time></trkpt><trkpt lat="44.0606268" lon="11.3970997"><ele>737.5</ele><time>2026-04-04T12:24:21.855Z</time></trkpt><trkpt lat="44.0607552" lon="11.3971516"><ele>733.0</ele><time>2026-04-04T12:24:22.854Z</time></trkpt><trkpt lat="44.060874" lon="11.3972355"><ele>728.5</ele><time>2026-04-04T12:24:23.856Z</time></trkpt><trkpt lat="44.0609846" lon="11.3972832"><ele>724.0</ele><time>2026-04-04T12:24:24.856Z</time></trkpt><trkpt lat="44.0610825" lon="11.3972813"><ele>724.0</ele><time>2026-04-04T12:24:25.855Z</time></trkpt><trkpt lat="44.0611574" lon="11.3972276"><ele>724.0</ele><time>2026-04-04T12:24:26.855Z</time></trkpt><trkpt lat="44.0612096" lon="11.3971329"><ele>724.0</ele><time>2026-04-04T12:24:27.856Z</time></trkpt><trkpt lat="44.0612452" lon="11.3970037"><ele>724.0</ele><time>2026-04-04T12:24:28.855Z</time></trkpt><trkpt lat="44.0612977" lon="11.3968584"><ele>724.0</ele><time>2026-04-04T12:24:29.856Z</time></trkpt><trkpt lat="44.0613906" lon="11.396723"><ele>724.5</ele><time>2026-04-04T12:24:30.855Z</time></trkpt><trkpt lat="44.0615079" lon="11.3965968"><ele>725.0</ele><time>2026-04-04T12:24:31.855Z</time></trkpt><trkpt lat="44.0616175" lon="11.3964845"><ele>725.5</ele><time>2026-04-04T12:24:32.854Z</time></trkpt><trkpt lat="44.0617039" lon="11.3963483"><ele>726.0</ele><time>2026-04-04T12:24:33.855Z</time></trkpt><trkpt lat="44.0617468" lon="11.3961989"><ele>726.0</ele><time>2026-04-04T12:24:34.855Z</time></trkpt><trkpt lat="44.0617481" lon="11.3960506"><ele>726.0</ele><time>2026-04-04T12:24:35.855Z</time></trkpt><trkpt lat="44.0617223" lon="11.3959159"><ele>726.0</ele><time>2026-04-04T12:24:36.856Z</time></trkpt><trkpt lat="44.0617098" lon="11.3957886"><ele>726.0</ele><time>2026-04-04T12:24:37.854Z</time></trkpt><trkpt lat="44.0617374" lon="11.3956592"><ele>726.0</ele><time>2026-04-04T12:24:38.854Z</time></trkpt><trkpt lat="44.0618016" lon="11.3955359"><ele>734.6666666666666</ele><time>2026-04-04T12:24:39.855Z</time></trkpt><trkpt lat="44.0619031" lon="11.395422"><ele>743.3333333333333</ele><time>2026-04-04T12:24:40.855Z</time></trkpt><trkpt lat="44.0620361" lon="11.3953162"><ele>752.0</ele><time>2026-04-04T12:24:41.855Z</time></trkpt><trkpt lat="44.062199" lon="11.3952285"><ele>752.0</ele><time>2026-04-04T12:24:42.854Z</time></trkpt><trkpt lat="44.0623701" lon="11.3951501"><ele>752.0</ele><time>2026-04-04T12:24:43.855Z</time></trkpt><trkpt lat="44.0625301" lon="11.3950675"><ele>752.0</ele><time>2026-04-04T12:24:44.855Z</time></trkpt><trkpt lat="44.062673" lon="11.3949709"><ele>749.0</ele><time>2026-04-04T12:24:45.854Z</time></trkpt><trkpt lat="44.0627884" lon="11.3948743"><ele>746.0</ele><time>2026-04-04T12:24:46.855Z</time></trkpt><trkpt lat="44.0628767" lon="11.3947698"><ele>743.0</ele><time>2026-04-04T12:24:47.855Z</time></trkpt><trkpt lat="44.0629274" lon="11.3946367"><ele>740.0</ele><time>2026-04-04T12:24:48.854Z</time></trkpt><trkpt lat="44.0629384" lon="11.3944795"><ele>740.0</ele><time>2026-04-04T12:24:49.855Z</time></trkpt><trkpt lat="44.0629271" lon="11.3942896"><ele>740.0</ele><time>2026-04-04T12:24:50.855Z</time></trkpt><trkpt lat="44.0629244" lon="11.3940875"><ele>740.0</ele><time>2026-04-04T12:24:51.855Z</time></trkpt><trkpt lat="44.0629428" lon="11.3938644"><ele>740.0</ele><time>2026-04-04T12:24:52.855Z</time></trkpt><trkpt lat="44.062982" lon="11.3936108"><ele>742.3333333333333</ele><time>2026-04-04T12:24:53.854Z</time></trkpt><trkpt lat="44.063021" lon="11.3933418"><ele>744.6666666666666</ele><time>2026-04-04T12:24:54.854Z</time></trkpt><trkpt lat="44.0630531" lon="11.3930916"><ele>747.0</ele><time>2026-04-04T12:24:55.854Z</time></trkpt><trkpt lat="44.0630973" lon="11.3928573"><ele>747.0</ele><time>2026-04-04T12:24:56.854Z</time></trkpt><trkpt lat="44.0631349" lon="11.3926478"><ele>747.0</ele><time>2026-04-04T12:24:57.854Z</time></trkpt><trkpt lat="44.0631367" lon="11.392427"><ele>747.0</ele><time>2026-04-04T12:24:58.855Z</time></trkpt><trkpt lat="44.0631067" lon="11.3921951"><ele>740.5</ele><time>2026-04-04T12:24:59.855Z</time></trkpt><trkpt lat="44.0630734" lon="11.3919915"><ele>734.0</ele><time>2026-04-04T12:25:00.855Z</time></trkpt><trkpt lat="44.0630359" lon="11.391822"><ele>727.5</ele><time>2026-04-04T12:25:01.855Z</time></trkpt><trkpt lat="44.0630168" lon="11.3916826"><ele>721.0</ele><time>2026-04-04T12:25:02.855Z</time></trkpt><trkpt lat="44.0630426" lon="11.3915766"><ele>721.0</ele><time>2026-04-04T12:25:03.855Z</time></trkpt><trkpt lat="44.0631" lon="11.3915121"><ele>721.0</ele><time>2026-04-04T12:25:04.854Z</time></trkpt><trkpt lat="44.0631732" lon="11.3914832"><ele>721.0</ele><time>2026-04-04T12:25:05.854Z</time></trkpt><trkpt lat="44.0632632" lon="11.3915084"><ele>721.0</ele><time>2026-04-04T12:25:06.855Z</time></trkpt><trkpt lat="44.0633632" lon="11.3915879"><ele>721.0</ele><time>2026-04-04T12:25:07.855Z</time></trkpt><trkpt lat="44.0634607" lon="11.3917114"><ele>718.0</ele><time>2026-04-04T12:25:08.855Z</time></trkpt><trkpt lat="44.0635746" lon="11.3918579"><ele>715.0</ele><time>2026-04-04T12:25:09.855Z</time></trkpt><trkpt lat="44.0637106" lon="11.3920135"><ele>712.0</ele><time>2026-04-04T12:25:10.854Z</time></trkpt><trkpt lat="44.0638655" lon="11.3921625"><ele>711.3333333333334</ele><time>2026-04-04T12:25:11.854Z</time></trkpt><trkpt lat="44.0639926" lon="11.3923347"><ele>710.6666666666666</ele><time>2026-04-04T12:25:12.854Z</time></trkpt><trkpt lat="44.0640861" lon="11.3925185"><ele>710.0</ele><time>2026-04-04T12:25:13.855Z</time></trkpt><trkpt lat="44.0641544" lon="11.3926923"><ele>710.0</ele><time>2026-04-04T12:25:14.854Z</time></trkpt><trkpt lat="44.064233" lon="11.3928142"><ele>710.0</ele><time>2026-04-04T12:25:15.855Z</time></trkpt><trkpt lat="44.0643215" lon="11.3928655"><ele>710.0</ele><time>2026-04-04T12:25:16.854Z</time></trkpt><trkpt lat="44.0644121" lon="11.392861"><ele>710.0</ele><time>2026-04-04T12:25:17.854Z</time></trkpt><trkpt lat="44.0645231" lon="11.3927878"><ele>710.0</ele><time>2026-04-04T12:25:18.854Z</time></trkpt><trkpt lat="44.0646387" lon="11.3926927"><ele>710.0</ele><time>2026-04-04T12:25:19.854Z</time></trkpt><trkpt lat="44.0647654" lon="11.3925708"><ele>710.0</ele><time>2026-04-04T12:25:20.855Z</time></trkpt><trkpt lat="44.0648923" lon="11.3924073"><ele>710.0</ele><time>2026-04-04T12:25:21.855Z</time></trkpt><trkpt lat="44.0650116" lon="11.3922464"><ele>715.75</ele><time>2026-04-04T12:25:22.854Z</time></trkpt><trkpt lat="44.0651124" lon="11.3921007"><ele>721.5</ele><time>2026-04-04T12:25:23.854Z</time></trkpt><trkpt lat="44.0651938" lon="11.3919612"><ele>727.25</ele><time>2026-04-04T12:25:24.854Z</time></trkpt><trkpt lat="44.0652568" lon="11.3918023"><ele>733.0</ele><time>2026-04-04T12:25:25.854Z</time></trkpt><trkpt lat="44.0653024" lon="11.3916086"><ele>733.0</ele><time>2026-04-04T12:25:26.854Z</time></trkpt><trkpt lat="44.0653447" lon="11.3913972"><ele>733.0</ele><time>2026-04-04T12:25:27.855Z</time></trkpt><trkpt lat="44.0653907" lon="11.3911707"><ele>733.0</ele><time>2026-04-04T12:25:28.855Z</time></trkpt><trkpt lat="44.0654393" lon="11.3909637"><ele>734.75</ele><time>2026-04-04T12:25:29.854Z</time></trkpt><trkpt lat="44.0654921" lon="11.390772"><ele>736.5</ele><time>2026-04-04T12:25:30.855Z</time></trkpt><trkpt lat="44.0655579" lon="11.3905987"><ele>738.25</ele><time>2026-04-04T12:25:31.855Z</time></trkpt><trkpt lat="44.0656369" lon="11.3904645"><ele>740.0</ele><time>2026-04-04T12:25:32.854Z</time></trkpt><trkpt lat="44.0657208" lon="11.3903452"><ele>734.0</ele><time>2026-04-04T12:25:33.854Z</time></trkpt><trkpt lat="44.0657837" lon="11.390205"><ele>728.0</ele><time>2026-04-04T12:25:34.853Z</time></trkpt><trkpt lat="44.0658169" lon="11.3900515"><ele>722.0</ele><time>2026-04-04T12:25:35.853Z</time></trkpt><trkpt lat="44.065851" lon="11.389897"><ele>716.0</ele><time>2026-04-04T12:25:36.855Z</time></trkpt><trkpt lat="44.0659141" lon="11.3897629"><ele>717.5</ele><time>2026-04-04T12:25:37.855Z</time></trkpt><trkpt lat="44.0660071" lon="11.3896627"><ele>719.0</ele><time>2026-04-04T12:25:38.855Z</time></trkpt><trkpt lat="44.0661356" lon="11.3895911"><ele>720.5</ele><time>2026-04-04T12:25:39.854Z</time></trkpt><trkpt lat="44.0662725" lon="11.3895292"><ele>722.0</ele><time>2026-04-04T12:25:40.854Z</time></trkpt><trkpt lat="44.066406" lon="11.3894298"><ele>722.0</ele><time>2026-04-04T12:25:41.854Z</time></trkpt><trkpt lat="44.0665412" lon="11.3892791"><ele>722.0</ele><time>2026-04-04T12:25:42.854Z</time></trkpt><trkpt lat="44.0666714" lon="11.3891047"><ele>722.0</ele><time>2026-04-04T12:25:43.854Z</time></trkpt><trkpt lat="44.0668015" lon="11.3889309"><ele>717.0</ele><time>2026-04-04T12:25:44.854Z</time></trkpt><trkpt lat="44.0669243" lon="11.3887248"><ele>712.0</ele><time>2026-04-04T12:25:45.854Z</time></trkpt><trkpt lat="44.0670398" lon="11.3884864"><ele>707.0</ele><time>2026-04-04T12:25:46.854Z</time></trkpt><trkpt lat="44.067136" lon="11.3882361"><ele>710.3333333333333</ele><time>2026-04-04T12:25:47.855Z</time></trkpt><trkpt lat="44.0672153" lon="11.3879919"><ele>713.6666666666666</ele><time>2026-04-04T12:25:48.855Z</time></trkpt><trkpt lat="44.0672775" lon="11.3877531"><ele>717.0</ele><time>2026-04-04T12:25:49.855Z</time></trkpt><trkpt lat="44.0673202" lon="11.3875218"><ele>717.0</ele><time>2026-04-04T12:25:50.854Z</time></trkpt><trkpt lat="44.0673504" lon="11.3873103"><ele>717.0</ele><time>2026-04-04T12:25:51.853Z</time></trkpt><trkpt lat="44.0673793" lon="11.3871545"><ele>717.0</ele><time>2026-04-04T12:25:52.854Z</time></trkpt><trkpt lat="44.0674336" lon="11.3870285"><ele>717.0</ele><time>2026-04-04T12:25:53.855Z</time></trkpt><trkpt lat="44.0675208" lon="11.3869401"><ele>713.25</ele><time>2026-04-04T12:25:54.854Z</time></trkpt><trkpt lat="44.0676442" lon="11.3868679"><ele>709.5</ele><time>2026-04-04T12:25:55.855Z</time></trkpt><trkpt lat="44.0677922" lon="11.3868069"><ele>705.75</ele><time>2026-04-04T12:25:56.853Z</time></trkpt><trkpt lat="44.0679302" lon="11.3867552"><ele>702.0</ele><time>2026-04-04T12:25:57.854Z</time></trkpt><trkpt lat="44.0680546" lon="11.3866896"><ele>702.0</ele><time>2026-04-04T12:25:58.855Z</time></trkpt><trkpt lat="44.0681456" lon="11.38658"><ele>702.0</ele><time>2026-04-04T12:25:59.854Z</time></trkpt><trkpt lat="44.0682091" lon="11.3864229"><ele>702.0</ele><time>2026-04-04T12:26:00.855Z</time></trkpt><trkpt lat="44.0682515" lon="11.3862116"><ele>702.0</ele><time>2026-04-04T12:26:01.854Z</time></trkpt><trkpt lat="44.0682981" lon="11.3859463"><ele>697.6666666666666</ele><time>2026-04-04T12:26:02.855Z</time></trkpt><trkpt lat="44.0683636" lon="11.3856626"><ele>693.3333333333333</ele><time>2026-04-04T12:26:03.854Z</time></trkpt><trkpt lat="44.0684364" lon="11.3853575"><ele>689.0</ele><time>2026-04-04T12:26:04.854Z</time></trkpt><trkpt lat="44.0685083" lon="11.3850449"><ele>689.0</ele><time>2026-04-04T12:26:05.854Z</time></trkpt><trkpt lat="44.0685728" lon="11.3847234"><ele>689.0</ele><time>2026-04-04T12:26:06.855Z</time></trkpt><trkpt lat="44.0686204" lon="11.3844056"><ele>690.0</ele><time>2026-04-04T12:26:07.854Z</time></trkpt><trkpt lat="44.0686512" lon="11.3841155"><ele>691.0</ele><time>2026-04-04T12:26:08.855Z</time></trkpt><trkpt lat="44.0686674" lon="11.3838496"><ele>692.0</ele><time>2026-04-04T12:26:09.853Z</time></trkpt><trkpt lat="44.0686765" lon="11.383629"><ele>692.0</ele><time>2026-04-04T12:26:10.854Z</time></trkpt><trkpt lat="44.0686989" lon="11.383448"><ele>692.0</ele><time>2026-04-04T12:26:11.854Z</time></trkpt><trkpt lat="44.0687562" lon="11.3832968"><ele>692.0</ele><time>2026-04-04T12:26:12.854Z</time></trkpt><trkpt lat="44.0688426" lon="11.3831937"><ele>692.0</ele><time>2026-04-04T12:26:13.854Z</time></trkpt><trkpt lat="44.0689465" lon="11.3831361"><ele>692.0</ele><time>2026-04-04T12:26:14.855Z</time></trkpt><trkpt lat="44.0690571" lon="11.383144"><ele>692.0</ele><time>2026-04-04T12:26:15.855Z</time></trkpt><trkpt lat="44.0691759" lon="11.3832016"><ele>692.0</ele><time>2026-04-04T12:26:16.854Z</time></trkpt><trkpt lat="44.0692998" lon="11.3832981"><ele>692.0</ele><time>2026-04-04T12:26:17.855Z</time></trkpt><trkpt lat="44.069439" lon="11.3833992"><ele>692.5</ele><time>2026-04-04T12:26:18.855Z</time></trkpt><trkpt lat="44.0695785" lon="11.3834728"><ele>693.0</ele><time>2026-04-04T12:26:19.854Z</time></trkpt><trkpt lat="44.0697089" lon="11.3835192"><ele>693.5</ele><time>2026-04-04T12:26:20.853Z</time></trkpt><trkpt lat="44.0698251" lon="11.3835809"><ele>694.0</ele><time>2026-04-04T12:26:21.854Z</time></trkpt><trkpt lat="44.0699354" lon="11.3836973"><ele>694.6666666666667</ele><time>2026-04-04T12:26:22.854Z</time></trkpt><trkpt lat="44.0700324" lon="11.3838558"><ele>695.3333333333334</ele><time>2026-04-04T12:26:23.855Z</time></trkpt><trkpt lat="44.0701107" lon="11.3840613"><ele>696.0</ele><time>2026-04-04T12:26:24.854Z</time></trkpt><trkpt lat="44.0701763" lon="11.3842968"><ele>696.0</ele><time>2026-04-04T12:26:25.854Z</time></trkpt><trkpt lat="44.0702467" lon="11.3845555"><ele>696.0</ele><time>2026-04-04T12:26:26.855Z</time></trkpt><trkpt lat="44.0703356" lon="11.3848243"><ele>696.0</ele><time>2026-04-04T12:26:27.853Z</time></trkpt><trkpt lat="44.0704209" lon="11.3850867"><ele>694.3333333333334</ele><time>2026-04-04T12:26:28.853Z</time></trkpt><trkpt lat="44.070508" lon="11.3853341"><ele>692.6666666666667</ele><time>2026-04-04T12:26:29.854Z</time></trkpt><trkpt lat="44.0706203" lon="11.3855635"><ele>691.0</ele><time>2026-04-04T12:26:30.855Z</time></trkpt><trkpt lat="44.0707487" lon="11.3857825"><ele>697.0</ele><time>2026-04-04T12:26:31.854Z</time></trkpt><trkpt lat="44.0708904" lon="11.3859834"><ele>703.0</ele><time>2026-04-04T12:26:32.854Z</time></trkpt><trkpt lat="44.0710436" lon="11.3861619"><ele>709.0</ele><time>2026-04-04T12:26:33.854Z</time></trkpt><trkpt lat="44.0711931" lon="11.3863007"><ele>707.5</ele><time>2026-04-04T12:26:34.855Z</time></trkpt><trkpt lat="44.0713247" lon="11.3864045"><ele>706.0</ele><time>2026-04-04T12:26:35.854Z</time></trkpt><trkpt lat="44.071446" lon="11.3864593"><ele>704.5</ele><time>2026-04-04T12:26:36.854Z</time></trkpt><trkpt lat="44.0715604" lon="11.3864585"><ele>703.0</ele><time>2026-04-04T12:26:37.855Z</time></trkpt><trkpt lat="44.0716713" lon="11.386396"><ele>708.0</ele><time>2026-04-04T12:26:38.854Z</time></trkpt><trkpt lat="44.0717748" lon="11.3862779"><ele>713.0</ele><time>2026-04-04T12:26:39.854Z</time></trkpt><trkpt lat="44.0718772" lon="11.3861356"><ele>718.0</ele><time>2026-04-04T12:26:40.855Z</time></trkpt><trkpt lat="44.0719943" lon="11.3860252"><ele>723.0</ele><time>2026-04-04T12:26:41.855Z</time></trkpt><trkpt lat="44.072091" lon="11.3859706"><ele>723.0</ele><time>2026-04-04T12:26:42.854Z</time></trkpt><trkpt lat="44.0721808" lon="11.3859658"><ele>723.0</ele><time>2026-04-04T12:26:43.855Z</time></trkpt><trkpt lat="44.0722827" lon="11.3860243"><ele>723.0</ele><time>2026-04-04T12:26:44.855Z</time></trkpt><trkpt lat="44.0723987" lon="11.3861416"><ele>723.0</ele><time>2026-04-04T12:26:45.855Z</time></trkpt><trkpt lat="44.0725371" lon="11.3862949"><ele>722.0</ele><time>2026-04-04T12:26:46.855Z</time></trkpt><trkpt lat="44.072703" lon="11.3864484"><ele>721.0</ele><time>2026-04-04T12:26:47.854Z</time></trkpt><trkpt lat="44.0728686" lon="11.3865934"><ele>720.0</ele><time>2026-04-04T12:26:48.855Z</time></trkpt><trkpt lat="44.0730167" lon="11.3867185"><ele>720.0</ele><time>2026-04-04T12:26:49.855Z</time></trkpt><trkpt lat="44.0731397" lon="11.3868147"><ele>720.0</ele><time>2026-04-04T12:26:50.855Z</time></trkpt><trkpt lat="44.0732428" lon="11.3868525"><ele>720.0</ele><time>2026-04-04T12:26:51.855Z</time></trkpt><trkpt lat="44.073323" lon="11.3868246"><ele>720.0</ele><time>2026-04-04T12:26:52.853Z</time></trkpt><trkpt lat="44.0733714" lon="11.3867396"><ele>720.0</ele><time>2026-04-04T12:26:53.854Z</time></trkpt><trkpt lat="44.0733798" lon="11.3866117"><ele>716.25</ele><time>2026-04-04T12:26:54.855Z</time></trkpt><trkpt lat="44.0733478" lon="11.3864536"><ele>712.5</ele><time>2026-04-04T12:26:55.853Z</time></trkpt><trkpt lat="44.0733066" lon="11.3862788"><ele>708.75</ele><time>2026-04-04T12:26:56.853Z</time></trkpt><trkpt lat="44.0732846" lon="11.3860833"><ele>705.0</ele><time>2026-04-04T12:26:57.854Z</time></trkpt><trkpt lat="44.0733047" lon="11.3858854"><ele>704.0</ele><time>2026-04-04T12:26:58.854Z</time></trkpt><trkpt lat="44.073354" lon="11.385687"><ele>703.0</ele><time>2026-04-04T12:26:59.855Z</time></trkpt><trkpt lat="44.0734062" lon="11.3855103"><ele>702.0</ele><time>2026-04-04T12:27:00.855Z</time></trkpt><trkpt lat="44.0734665" lon="11.385345"><ele>701.0</ele><time>2026-04-04T12:27:01.854Z</time></trkpt><trkpt lat="44.0735554" lon="11.3852307"><ele>703.0</ele><time>2026-04-04T12:27:02.855Z</time></trkpt><trkpt lat="44.0736539" lon="11.385182"><ele>705.0</ele><time>2026-04-04T12:27:03.854Z</time></trkpt><trkpt lat="44.0737585" lon="11.3851934"><ele>707.0</ele><time>2026-04-04T12:27:04.853Z</time></trkpt><trkpt lat="44.0738702" lon="11.3852522"><ele>709.0</ele><time>2026-04-04T12:27:05.854Z</time></trkpt><trkpt lat="44.0739766" lon="11.3853245"><ele>711.0</ele><time>2026-04-04T12:27:06.855Z</time></trkpt><trkpt lat="44.0740855" lon="11.3853496"><ele>707.1999999999999</ele><time>2026-04-04T12:27:07.854Z</time></trkpt><trkpt lat="44.0741853" lon="11.3853102"><ele>703.4</ele><time>2026-04-04T12:27:08.855Z</time></trkpt><trkpt lat="44.0742572" lon="11.3852269"><ele>699.6</ele><time>2026-04-04T12:27:09.853Z</time></trkpt><trkpt lat="44.074295" lon="11.3850889"><ele>695.8</ele><time>2026-04-04T12:27:10.854Z</time></trkpt><trkpt lat="44.0743104" lon="11.384925"><ele>692.0</ele><time>2026-04-04T12:27:11.854Z</time></trkpt><trkpt lat="44.0743121" lon="11.384763"><ele>695.5</ele><time>2026-04-04T12:27:12.855Z</time></trkpt><trkpt lat="44.0743546" lon="11.384619"><ele>699.0</ele><time>2026-04-04T12:27:13.855Z</time></trkpt><trkpt lat="44.0744371" lon="11.3844732"><ele>702.5</ele><time>2026-04-04T12:27:14.854Z</time></trkpt><trkpt lat="44.0745483" lon="11.3843196"><ele>706.0</ele><time>2026-04-04T12:27:15.853Z</time></trkpt><trkpt lat="44.074657" lon="11.3841661"><ele>706.0</ele><time>2026-04-04T12:27:16.854Z</time></trkpt><trkpt lat="44.0747612" lon="11.3840359"><ele>706.0</ele><time>2026-04-04T12:27:17.855Z</time></trkpt><trkpt lat="44.0748792" lon="11.3839615"><ele>706.0</ele><time>2026-04-04T12:27:18.855Z</time></trkpt><trkpt lat="44.0750114" lon="11.3839469"><ele>706.0</ele><time>2026-04-04T12:27:19.855Z</time></trkpt><trkpt lat="44.0751437" lon="11.3839691"><ele>704.3333333333334</ele><time>2026-04-04T12:27:20.855Z</time></trkpt><trkpt lat="44.0752855" lon="11.3839517"><ele>702.6666666666666</ele><time>2026-04-04T12:27:21.854Z</time></trkpt><trkpt lat="44.0754303" lon="11.3838777"><ele>701.0</ele><time>2026-04-04T12:27:22.854Z</time></trkpt><trkpt lat="44.0755782" lon="11.3837671"><ele>701.0</ele><time>2026-04-04T12:27:23.855Z</time></trkpt><trkpt lat="44.0757252" lon="11.3836463"><ele>701.0</ele><time>2026-04-04T12:27:24.854Z</time></trkpt><trkpt lat="44.0758501" lon="11.3835291"><ele>701.0</ele><time>2026-04-04T12:27:25.853Z</time></trkpt><trkpt lat="44.075945" lon="11.3834336"><ele>701.0</ele><time>2026-04-04T12:27:26.854Z</time></trkpt><trkpt lat="44.0760434" lon="11.3833933"><ele>697.0</ele><time>2026-04-04T12:27:27.854Z</time></trkpt><trkpt lat="44.0761523" lon="11.3834113"><ele>693.0</ele><time>2026-04-04T12:27:28.855Z</time></trkpt><trkpt lat="44.0762857" lon="11.383471"><ele>689.0</ele><time>2026-04-04T12:27:29.854Z</time></trkpt><trkpt lat="44.0764469" lon="11.3835469"><ele>685.0</ele><time>2026-04-04T12:27:30.854Z</time></trkpt><trkpt lat="44.0766041" lon="11.3836156"><ele>685.0</ele><time>2026-04-04T12:27:31.855Z</time></trkpt><trkpt lat="44.0767509" lon="11.383668"><ele>685.0</ele><time>2026-04-04T12:27:32.855Z</time></trkpt><trkpt lat="44.0768888" lon="11.3836722"><ele>685.0</ele><time>2026-04-04T12:27:33.855Z</time></trkpt><trkpt lat="44.0770321" lon="11.3836123"><ele>685.0</ele><time>2026-04-04T12:27:34.855Z</time></trkpt><trkpt lat="44.0771814" lon="11.383505"><ele>685.0</ele><time>2026-04-04T12:27:35.854Z</time></trkpt><trkpt lat="44.0773354" lon="11.3833874"><ele>685.0</ele><time>2026-04-04T12:27:36.854Z</time></trkpt><trkpt lat="44.0774618" lon="11.3832984"><ele>685.0</ele><time>2026-04-04T12:27:37.854Z</time></trkpt><trkpt lat="44.0775598" lon="11.3832098"><ele>685.0</ele><time>2026-04-04T12:27:38.853Z</time></trkpt><trkpt lat="44.0776231" lon="11.3830915"><ele>682.75</ele><time>2026-04-04T12:27:39.854Z</time></trkpt><trkpt lat="44.0776521" lon="11.3829316"><ele>680.5</ele><time>2026-04-04T12:27:40.855Z</time></trkpt><trkpt lat="44.0776757" lon="11.3827342"><ele>678.25</ele><time>2026-04-04T12:27:41.855Z</time></trkpt><trkpt lat="44.0777174" lon="11.3825097"><ele>676.0</ele><time>2026-04-04T12:27:42.855Z</time></trkpt><trkpt lat="44.0777834" lon="11.382296"><ele>680.6666666666667</ele><time>2026-04-04T12:27:43.854Z</time></trkpt><trkpt lat="44.0778763" lon="11.3820756"><ele>685.3333333333334</ele><time>2026-04-04T12:27:44.854Z</time></trkpt><trkpt lat="44.0779969" lon="11.381854"><ele>690.0</ele><time>2026-04-04T12:27:45.855Z</time></trkpt><trkpt lat="44.0781308" lon="11.3816292"><ele>681.6666666666666</ele><time>2026-04-04T12:27:46.855Z</time></trkpt><trkpt lat="44.0782754" lon="11.3813912"><ele>673.3333333333333</ele><time>2026-04-04T12:27:47.854Z</time></trkpt><trkpt lat="44.0784039" lon="11.3811705"><ele>665.0</ele><time>2026-04-04T12:27:48.855Z</time></trkpt><trkpt lat="44.078526" lon="11.3809577"><ele>665.0</ele><time>2026-04-04T12:27:49.854Z</time></trkpt><trkpt lat="44.0786517" lon="11.3807735"><ele>665.0</ele><time>2026-04-04T12:27:50.855Z</time></trkpt><trkpt lat="44.0787972" lon="11.3806342"><ele>665.0</ele><time>2026-04-04T12:27:51.854Z</time></trkpt><trkpt lat="44.0789606" lon="11.3805323"><ele>663.6666666666666</ele><time>2026-04-04T12:27:52.854Z</time></trkpt><trkpt lat="44.0791342" lon="11.3804817"><ele>662.3333333333334</ele><time>2026-04-04T12:27:53.854Z</time></trkpt><trkpt lat="44.0792869" lon="11.380424"><ele>661.0</ele><time>2026-04-04T12:27:54.855Z</time></trkpt><trkpt lat="44.0794251" lon="11.3803233"><ele>661.0</ele><time>2026-04-04T12:27:55.854Z</time></trkpt><trkpt lat="44.0795625" lon="11.3801783"><ele>661.0</ele><time>2026-04-04T12:27:56.854Z</time></trkpt><trkpt lat="44.0796985" lon="11.3800172"><ele>661.0</ele><time>2026-04-04T12:27:57.855Z</time></trkpt><trkpt lat="44.0798379" lon="11.3798487"><ele>655.6666666666667</ele><time>2026-04-04T12:27:58.854Z</time></trkpt><trkpt lat="44.0799622" lon="11.3796803"><ele>650.3333333333334</ele><time>2026-04-04T12:27:59.854Z</time></trkpt><trkpt lat="44.0800726" lon="11.3795065"><ele>645.0</ele><time>2026-04-04T12:28:00.854Z</time></trkpt><trkpt lat="44.0801692" lon="11.3793443"><ele>645.0</ele><time>2026-04-04T12:28:01.854Z</time></trkpt><trkpt lat="44.0802447" lon="11.3792198"><ele>645.0</ele><time>2026-04-04T12:28:02.854Z</time></trkpt><trkpt lat="44.0803129" lon="11.3791407"><ele>645.0</ele><time>2026-04-04T12:28:03.854Z</time></trkpt><trkpt lat="44.0803861" lon="11.3791288"><ele>645.0</ele><time>2026-04-04T12:28:04.854Z</time></trkpt><trkpt lat="44.0804449" lon="11.3791812"><ele>645.0</ele><time>2026-04-04T12:28:05.853Z</time></trkpt><trkpt lat="44.080474" lon="11.3792731"><ele>645.0</ele><time>2026-04-04T12:28:06.854Z</time></trkpt><trkpt lat="44.0804696" lon="11.379394"><ele>645.0</ele><time>2026-04-04T12:28:07.854Z</time></trkpt><trkpt lat="44.0804256" lon="11.3795304"><ele>645.0</ele><time>2026-04-04T12:28:08.853Z</time></trkpt><trkpt lat="44.080356" lon="11.3796654"><ele>645.0</ele><time>2026-04-04T12:28:09.852Z</time></trkpt><trkpt lat="44.0802961" lon="11.3798083"><ele>645.0</ele><time>2026-04-04T12:28:10.853Z</time></trkpt><trkpt lat="44.0802813" lon="11.3799645"><ele>643.75</ele><time>2026-04-04T12:28:11.854Z</time></trkpt><trkpt lat="44.0803137" lon="11.3801197"><ele>642.5</ele><time>2026-04-04T12:28:12.852Z</time></trkpt><trkpt lat="44.0803943" lon="11.3802874"><ele>641.25</ele><time>2026-04-04T12:28:13.853Z</time></trkpt><trkpt lat="44.0805154" lon="11.3804486"><ele>640.0</ele><time>2026-04-04T12:28:14.852Z</time></trkpt><trkpt lat="44.0806415" lon="11.3806137"><ele>639.0</ele><time>2026-04-04T12:28:15.853Z</time></trkpt><trkpt lat="44.0807494" lon="11.3807701"><ele>638.0</ele><time>2026-04-04T12:28:16.854Z</time></trkpt><trkpt lat="44.0808404" lon="11.3809367"><ele>637.0</ele><time>2026-04-04T12:28:17.854Z</time></trkpt><trkpt lat="44.0808947" lon="11.3811257"><ele>632.6666666666667</ele><time>2026-04-04T12:28:18.854Z</time></trkpt><trkpt lat="44.0809203" lon="11.3813364"><ele>628.3333333333334</ele><time>2026-04-04T12:28:19.854Z</time></trkpt><trkpt lat="44.0809219" lon="11.3815745"><ele>624.0</ele><time>2026-04-04T12:28:20.853Z</time></trkpt><trkpt lat="44.0808979" lon="11.3818323"><ele>623.0</ele><time>2026-04-04T12:28:21.854Z</time></trkpt><trkpt lat="44.0808469" lon="11.3820962"><ele>622.0</ele><time>2026-04-04T12:28:22.854Z</time></trkpt><trkpt lat="44.0807721" lon="11.3823343"><ele>621.0</ele><time>2026-04-04T12:28:23.853Z</time></trkpt><trkpt lat="44.0806904" lon="11.382533"><ele>620.5</ele><time>2026-04-04T12:28:24.854Z</time></trkpt><trkpt lat="44.0806322" lon="11.3827113"><ele>620.0</ele><time>2026-04-04T12:28:25.854Z</time></trkpt><trkpt lat="44.0806186" lon="11.3828926"><ele>619.5</ele><time>2026-04-04T12:28:26.854Z</time></trkpt><trkpt lat="44.0806389" lon="11.3830795"><ele>619.0</ele><time>2026-04-04T12:28:27.853Z</time></trkpt><trkpt lat="44.0806886" lon="11.3832597"><ele>616.25</ele><time>2026-04-04T12:28:28.852Z</time></trkpt><trkpt lat="44.0807583" lon="11.3834177"><ele>613.5</ele><time>2026-04-04T12:28:29.853Z</time></trkpt><trkpt lat="44.0808531" lon="11.3835328"><ele>610.75</ele><time>2026-04-04T12:28:30.854Z</time></trkpt><trkpt lat="44.0809688" lon="11.3835976"><ele>608.0</ele><time>2026-04-04T12:28:31.854Z</time></trkpt><trkpt lat="44.0811039" lon="11.3836058"><ele>608.0</ele><time>2026-04-04T12:28:32.854Z</time></trkpt><trkpt lat="44.0812448" lon="11.3835652"><ele>608.0</ele><time>2026-04-04T12:28:33.854Z</time></trkpt><trkpt lat="44.0813848" lon="11.3834874"><ele>608.0</ele><time>2026-04-04T12:28:34.854Z</time></trkpt><trkpt lat="44.0815034" lon="11.3833817"><ele>608.0</ele><time>2026-04-04T12:28:35.854Z</time></trkpt><trkpt lat="44.0816165" lon="11.3832775"><ele>607.0</ele><time>2026-04-04T12:28:36.854Z</time></trkpt><trkpt lat="44.0817329" lon="11.3832352"><ele>606.0</ele><time>2026-04-04T12:28:37.853Z</time></trkpt><trkpt lat="44.0818482" lon="11.3832568"><ele>605.0</ele><time>2026-04-04T12:28:38.853Z</time></trkpt><trkpt lat="44.0819585" lon="11.3833379"><ele>604.0</ele><time>2026-04-04T12:28:39.853Z</time></trkpt><trkpt lat="44.0820485" lon="11.3834652"><ele>604.0</ele><time>2026-04-04T12:28:40.854Z</time></trkpt><trkpt lat="44.0821468" lon="11.3835956"><ele>604.0</ele><time>2026-04-04T12:28:41.854Z</time></trkpt><trkpt lat="44.0822653" lon="11.383676"><ele>604.0</ele><time>2026-04-04T12:28:42.854Z</time></trkpt><trkpt lat="44.0823983" lon="11.3836991"><ele>604.0</ele><time>2026-04-04T12:28:43.854Z</time></trkpt><trkpt lat="44.0825288" lon="11.3836592"><ele>602.0</ele><time>2026-04-04T12:28:44.854Z</time></trkpt><trkpt lat="44.0826388" lon="11.3835559"><ele>600.0</ele><time>2026-04-04T12:28:45.852Z</time></trkpt><trkpt lat="44.0827203" lon="11.3834019"><ele>598.0</ele><time>2026-04-04T12:28:46.854Z</time></trkpt><trkpt lat="44.0827718" lon="11.3832095"><ele>596.0</ele><time>2026-04-04T12:28:47.854Z</time></trkpt><trkpt lat="44.0827937" lon="11.383003"><ele>594.0</ele><time>2026-04-04T12:28:48.854Z</time></trkpt><trkpt lat="44.0827848" lon="11.3827926"><ele>592.0</ele><time>2026-04-04T12:28:49.853Z</time></trkpt><trkpt lat="44.0827317" lon="11.3825912"><ele>590.0</ele><time>2026-04-04T12:28:50.853Z</time></trkpt><trkpt lat="44.0826353" lon="11.3824033"><ele>590.0</ele><time>2026-04-04T12:28:51.853Z</time></trkpt><trkpt lat="44.0825164" lon="11.3822231"><ele>590.0</ele><time>2026-04-04T12:28:52.853Z</time></trkpt><trkpt lat="44.0824039" lon="11.382062"><ele>590.0</ele><time>2026-04-04T12:28:53.853Z</time></trkpt><trkpt lat="44.0823181" lon="11.3818896"><ele>593.0</ele><time>2026-04-04T12:28:54.853Z</time></trkpt><trkpt lat="44.0822696" lon="11.3816975"><ele>596.0</ele><time>2026-04-04T12:28:55.854Z</time></trkpt><trkpt lat="44.0822526" lon="11.3814757"><ele>599.0</ele><time>2026-04-04T12:28:56.853Z</time></trkpt><trkpt lat="44.082273" lon="11.3812324"><ele>599.0</ele><time>2026-04-04T12:28:57.853Z</time></trkpt><trkpt lat="44.0823149" lon="11.3809657"><ele>599.0</ele><time>2026-04-04T12:28:58.854Z</time></trkpt><trkpt lat="44.0823552" lon="11.3807032"><ele>599.0</ele><time>2026-04-04T12:28:59.854Z</time></trkpt><trkpt lat="44.0823977" lon="11.3804606"><ele>593.6666666666666</ele><time>2026-04-04T12:29:00.854Z</time></trkpt><trkpt lat="44.0824554" lon="11.3802421"><ele>588.3333333333334</ele><time>2026-04-04T12:29:01.854Z</time></trkpt><trkpt lat="44.0825413" lon="11.3800472"><ele>583.0</ele><time>2026-04-04T12:29:02.852Z</time></trkpt><trkpt lat="44.0826575" lon="11.3798787"><ele>583.0</ele><time>2026-04-04T12:29:03.853Z</time></trkpt><trkpt lat="44.0828028" lon="11.3797331"><ele>583.0</ele><time>2026-04-04T12:29:04.854Z</time></trkpt><trkpt lat="44.0829475" lon="11.3796302"><ele>583.0</ele><time>2026-04-04T12:29:05.853Z</time></trkpt><trkpt lat="44.0830913" lon="11.3795794"><ele>584.3333333333334</ele><time>2026-04-04T12:29:06.854Z</time></trkpt><trkpt lat="44.083234" lon="11.3795921"><ele>585.6666666666666</ele><time>2026-04-04T12:29:07.854Z</time></trkpt><trkpt lat="44.0833803" lon="11.3796601"><ele>587.0</ele><time>2026-04-04T12:29:08.853Z</time></trkpt><trkpt lat="44.083529" lon="11.3797816"><ele>581.6666666666666</ele><time>2026-04-04T12:29:09.854Z</time></trkpt><trkpt lat="44.0836787" lon="11.3799246"><ele>576.3333333333334</ele><time>2026-04-04T12:29:10.854Z</time></trkpt><trkpt lat="44.0838165" lon="11.3800608"><ele>571.0</ele><time>2026-04-04T12:29:11.854Z</time></trkpt><trkpt lat="44.0839492" lon="11.3801381"><ele>571.0</ele><time>2026-04-04T12:29:12.854Z</time></trkpt><trkpt lat="44.0840815" lon="11.3801526"><ele>571.0</ele><time>2026-04-04T12:29:13.852Z</time></trkpt><trkpt lat="44.0842084" lon="11.3801044"><ele>571.0</ele><time>2026-04-04T12:29:14.854Z</time></trkpt><trkpt lat="44.0843388" lon="11.3800035"><ele>571.0</ele><time>2026-04-04T12:29:15.854Z</time></trkpt><trkpt lat="44.0844662" lon="11.3798495"><ele>570.6666666666667</ele><time>2026-04-04T12:29:16.853Z</time></trkpt><trkpt lat="44.0845915" lon="11.3796528"><ele>570.3333333333334</ele><time>2026-04-04T12:29:17.853Z</time></trkpt><trkpt lat="44.084716" lon="11.3794323"><ele>570.0</ele><time>2026-04-04T12:29:18.853Z</time></trkpt><trkpt lat="44.0848403" lon="11.3792237"><ele>567.6666666666666</ele><time>2026-04-04T12:29:19.853Z</time></trkpt><trkpt lat="44.0849675" lon="11.379035"><ele>565.3333333333333</ele><time>2026-04-04T12:29:20.854Z</time></trkpt><trkpt lat="44.0851116" lon="11.3788721"><ele>563.0</ele><time>2026-04-04T12:29:21.854Z</time></trkpt><trkpt lat="44.0852901" lon="11.3787453"><ele>563.0</ele><time>2026-04-04T12:29:22.853Z</time></trkpt><trkpt lat="44.0854973" lon="11.3786422"><ele>563.0</ele><time>2026-04-04T12:29:23.854Z</time></trkpt><trkpt lat="44.0857307" lon="11.3785496"><ele>558.0</ele><time>2026-04-04T12:29:24.854Z</time></trkpt><trkpt lat="44.0859595" lon="11.3784693"><ele>553.0</ele><time>2026-04-04T12:29:25.854Z</time></trkpt><trkpt lat="44.0861734" lon="11.3783984"><ele>553.0</ele><time>2026-04-04T12:29:26.852Z</time></trkpt><trkpt lat="44.0863701" lon="11.3783379"><ele>553.0</ele><time>2026-04-04T12:29:27.853Z</time></trkpt><trkpt lat="44.0865524" lon="11.378316"><ele>553.0</ele><time>2026-04-04T12:29:28.853Z</time></trkpt><trkpt lat="44.0867249" lon="11.378344"><ele>551.6666666666667</ele><time>2026-04-04T12:29:29.854Z</time></trkpt><trkpt lat="44.0869057" lon="11.3784108"><ele>550.3333333333334</ele><time>2026-04-04T12:29:30.854Z</time></trkpt><trkpt lat="44.0870978" lon="11.3785138"><ele>549.0</ele><time>2026-04-04T12:29:31.854Z</time></trkpt><trkpt lat="44.0873048" lon="11.378627"><ele>547.0</ele><time>2026-04-04T12:29:32.854Z</time></trkpt><trkpt lat="44.0874965" lon="11.3787423"><ele>545.0</ele><time>2026-04-04T12:29:33.852Z</time></trkpt><trkpt lat="44.0876703" lon="11.378853"><ele>543.0</ele><time>2026-04-04T12:29:34.854Z</time></trkpt><trkpt lat="44.0878355" lon="11.3789389"><ele>541.0</ele><time>2026-04-04T12:29:35.852Z</time></trkpt><trkpt lat="44.0880118" lon="11.3789613"><ele>539.0</ele><time>2026-04-04T12:29:36.853Z</time></trkpt><trkpt lat="44.0881958" lon="11.3789338"><ele>537.0</ele><time>2026-04-04T12:29:37.854Z</time></trkpt><trkpt lat="44.0883851" lon="11.3788582"><ele>538.6666666666666</ele><time>2026-04-04T12:29:38.852Z</time></trkpt><trkpt lat="44.0885691" lon="11.3787683"><ele>540.3333333333333</ele><time>2026-04-04T12:29:39.854Z</time></trkpt><trkpt lat="44.0887432" lon="11.3786907"><ele>542.0</ele><time>2026-04-04T12:29:40.853Z</time></trkpt><trkpt lat="44.0888925" lon="11.3786345"><ele>542.0</ele><time>2026-04-04T12:29:41.854Z</time></trkpt><trkpt lat="44.0890126" lon="11.3786317"><ele>542.0</ele><time>2026-04-04T12:29:42.853Z</time></trkpt><trkpt lat="44.0891207" lon="11.3786855"><ele>542.0</ele><time>2026-04-04T12:29:43.854Z</time></trkpt><trkpt lat="44.089214" lon="11.3787938"><ele>542.0</ele><time>2026-04-04T12:29:44.853Z</time></trkpt><trkpt lat="44.0893009" lon="11.3789566"><ele>537.6666666666666</ele><time>2026-04-04T12:29:45.853Z</time></trkpt><trkpt lat="44.0893921" lon="11.3791368"><ele>533.3333333333334</ele><time>2026-04-04T12:29:46.853Z</time></trkpt><trkpt lat="44.0894857" lon="11.379294"><ele>529.0</ele><time>2026-04-04T12:29:47.853Z</time></trkpt><trkpt lat="44.0896067" lon="11.3794142"><ele>529.0</ele><time>2026-04-04T12:29:48.854Z</time></trkpt><trkpt lat="44.0897462" lon="11.3794884"><ele>529.0</ele><time>2026-04-04T12:29:49.852Z</time></trkpt><trkpt lat="44.0898808" lon="11.3795459"><ele>529.0</ele><time>2026-04-04T12:29:50.852Z</time></trkpt><trkpt lat="44.0900038" lon="11.3796061"><ele>529.0</ele><time>2026-04-04T12:29:51.852Z</time></trkpt><trkpt lat="44.0901055" lon="11.3796688"><ele>527.2</ele><time>2026-04-04T12:29:52.853Z</time></trkpt><trkpt lat="44.0901758" lon="11.3797449"><ele>525.4</ele><time>2026-04-04T12:29:53.854Z</time></trkpt><trkpt lat="44.0902354" lon="11.3798434"><ele>523.6</ele><time>2026-04-04T12:29:54.854Z</time></trkpt><trkpt lat="44.0902805" lon="11.379969"><ele>521.8</ele><time>2026-04-04T12:29:55.852Z</time></trkpt><trkpt lat="44.090334" lon="11.3801331"><ele>520.0</ele><time>2026-04-04T12:29:56.854Z</time></trkpt><trkpt lat="44.0904131" lon="11.3803387"><ele>516.6666666666667</ele><time>2026-04-04T12:29:57.853Z</time></trkpt><trkpt lat="44.0905104" lon="11.3805665"><ele>513.3333333333334</ele><time>2026-04-04T12:29:58.854Z</time></trkpt><trkpt lat="44.0906227" lon="11.3807813"><ele>510.0</ele><time>2026-04-04T12:29:59.854Z</time></trkpt><trkpt lat="44.0907378" lon="11.3809778"><ele>508.66666666666663</ele><time>2026-04-04T12:30:00.854Z</time></trkpt><trkpt lat="44.0908501" lon="11.3811588"><ele>507.3333333333333</ele><time>2026-04-04T12:30:01.854Z</time></trkpt><trkpt lat="44.0909613" lon="11.3813293"><ele>506.0</ele><time>2026-04-04T12:30:02.852Z</time></trkpt><trkpt lat="44.0910885" lon="11.3814742"><ele>506.0</ele><time>2026-04-04T12:30:03.853Z</time></trkpt><trkpt lat="44.0912398" lon="11.3815749"><ele>506.0</ele><time>2026-04-04T12:30:04.852Z</time></trkpt><trkpt lat="44.0914071" lon="11.3816272"><ele>506.0</ele><time>2026-04-04T12:30:05.854Z</time></trkpt><trkpt lat="44.0915639" lon="11.3816514"><ele>507.25</ele><time>2026-04-04T12:30:06.853Z</time></trkpt><trkpt lat="44.091713" lon="11.3816989"><ele>508.5</ele><time>2026-04-04T12:30:07.854Z</time></trkpt><trkpt lat="44.0918466" lon="11.3817851"><ele>509.75</ele><time>2026-04-04T12:30:08.854Z</time></trkpt><trkpt lat="44.0919575" lon="11.3819016"><ele>511.0</ele><time>2026-04-04T12:30:09.854Z</time></trkpt><trkpt lat="44.0920326" lon="11.3820519"><ele>509.0</ele><time>2026-04-04T12:30:10.854Z</time></trkpt><trkpt lat="44.0920594" lon="11.3822185"><ele>507.0</ele><time>2026-04-04T12:30:11.854Z</time></trkpt><trkpt lat="44.0920489" lon="11.382375"><ele>505.0</ele><time>2026-04-04T12:30:12.854Z</time></trkpt><trkpt lat="44.0920382" lon="11.3825231"><ele>503.0</ele><time>2026-04-04T12:30:13.853Z</time></trkpt><trkpt lat="44.0920654" lon="11.3826685"><ele>503.0</ele><time>2026-04-04T12:30:14.854Z</time></trkpt><trkpt lat="44.0921235" lon="11.3827873"><ele>502.99999999999994</ele><time>2026-04-04T12:30:15.854Z</time></trkpt><trkpt lat="44.0922164" lon="11.3828502"><ele>502.99999999999994</ele><time>2026-04-04T12:30:16.854Z</time></trkpt><trkpt lat="44.0923258" lon="11.3828532"><ele>503.0</ele><time>2026-04-04T12:30:17.854Z</time></trkpt><trkpt lat="44.0924398" lon="11.3828418"><ele>503.0</ele><time>2026-04-04T12:30:18.854Z</time></trkpt><trkpt lat="44.0925475" lon="11.3828907"><ele>504.0</ele><time>2026-04-04T12:30:19.854Z</time></trkpt><trkpt lat="44.0926392" lon="11.3829873"><ele>505.0</ele><time>2026-04-04T12:30:20.854Z</time></trkpt><trkpt lat="44.092712" lon="11.3831209"><ele>506.0</ele><time>2026-04-04T12:30:21.853Z</time></trkpt><trkpt lat="44.0927746" lon="11.3832514"><ele>507.0</ele><time>2026-04-04T12:30:22.853Z</time></trkpt><trkpt lat="44.0928625" lon="11.3833435"><ele>504.75</ele><time>2026-04-04T12:30:23.854Z</time></trkpt><trkpt lat="44.0929719" lon="11.3833831"><ele>502.5</ele><time>2026-04-04T12:30:24.854Z</time></trkpt><trkpt lat="44.0930977" lon="11.3833591"><ele>500.25</ele><time>2026-04-04T12:30:25.854Z</time></trkpt><trkpt lat="44.0932354" lon="11.38328"><ele>498.0</ele><time>2026-04-04T12:30:26.854Z</time></trkpt><trkpt lat="44.0933755" lon="11.383179"><ele>496.0</ele><time>2026-04-04T12:30:27.854Z</time></trkpt><trkpt lat="44.0935092" lon="11.3830755"><ele>494.0</ele><time>2026-04-04T12:30:28.852Z</time></trkpt><trkpt lat="44.0936312" lon="11.3829398"><ele>492.0</ele><time>2026-04-04T12:30:29.854Z</time></trkpt><trkpt lat="44.0937378" lon="11.3827664"><ele>496.0</ele><time>2026-04-04T12:30:30.853Z</time></trkpt><trkpt lat="44.0938227" lon="11.3825612"><ele>500.0</ele><time>2026-04-04T12:30:31.854Z</time></trkpt><trkpt lat="44.0938916" lon="11.3823597"><ele>504.0</ele><time>2026-04-04T12:30:32.853Z</time></trkpt><trkpt lat="44.0939687" lon="11.3821808"><ele>505.0</ele><time>2026-04-04T12:30:33.853Z</time></trkpt><trkpt lat="44.0940705" lon="11.3820522"><ele>506.0</ele><time>2026-04-04T12:30:34.853Z</time></trkpt><trkpt lat="44.0941773" lon="11.3819825"><ele>507.0</ele><time>2026-04-04T12:30:35.853Z</time></trkpt><trkpt lat="44.094279" lon="11.3819793"><ele>508.0</ele><time>2026-04-04T12:30:36.852Z</time></trkpt><trkpt lat="44.0943867" lon="11.3820318"><ele>504.6666666666667</ele><time>2026-04-04T12:30:37.854Z</time></trkpt><trkpt lat="44.0944987" lon="11.3821349"><ele>501.33333333333337</ele><time>2026-04-04T12:30:38.854Z</time></trkpt><trkpt lat="44.0946259" lon="11.3822564"><ele>498.0</ele><time>2026-04-04T12:30:39.854Z</time></trkpt><trkpt lat="44.0947809" lon="11.3823627"><ele>491.66666666666663</ele><time>2026-04-04T12:30:40.854Z</time></trkpt><trkpt lat="44.0949332" lon="11.3824437"><ele>485.3333333333333</ele><time>2026-04-04T12:30:41.854Z</time></trkpt><trkpt lat="44.0950836" lon="11.3825027"><ele>479.0</ele><time>2026-04-04T12:30:42.853Z</time></trkpt><trkpt lat="44.0952325" lon="11.3825308"><ele>479.0</ele><time>2026-04-04T12:30:43.852Z</time></trkpt><trkpt lat="44.0953695" lon="11.3825232"><ele>479.0</ele><time>2026-04-04T12:30:44.854Z</time></trkpt><trkpt lat="44.0954852" lon="11.3824656"><ele>479.0</ele><time>2026-04-04T12:30:45.853Z</time></trkpt><trkpt lat="44.0955744" lon="11.3823602"><ele>479.0</ele><time>2026-04-04T12:30:46.853Z</time></trkpt><trkpt lat="44.0956386" lon="11.3822005"><ele>478.0</ele><time>2026-04-04T12:30:47.854Z</time></trkpt><trkpt lat="44.0956876" lon="11.3820092"><ele>477.0</ele><time>2026-04-04T12:30:48.854Z</time></trkpt><trkpt lat="44.0957543" lon="11.3818233"><ele>476.0</ele><time>2026-04-04T12:30:49.854Z</time></trkpt><trkpt lat="44.09585" lon="11.3816593"><ele>475.0</ele><time>2026-04-04T12:30:50.853Z</time></trkpt><trkpt lat="44.0959623" lon="11.3815242"><ele>475.0</ele><time>2026-04-04T12:30:51.854Z</time></trkpt><trkpt lat="44.0960923" lon="11.3814205"><ele>475.0</ele><time>2026-04-04T12:30:52.853Z</time></trkpt><trkpt lat="44.0962266" lon="11.3813348"><ele>475.0</ele><time>2026-04-04T12:30:53.854Z</time></trkpt><trkpt lat="44.0963604" lon="11.3812469"><ele>475.0</ele><time>2026-04-04T12:30:54.854Z</time></trkpt><trkpt lat="44.0964942" lon="11.3811476"><ele>473.0</ele><time>2026-04-04T12:30:55.853Z</time></trkpt><trkpt lat="44.0966278" lon="11.3810489"><ele>471.0</ele><time>2026-04-04T12:30:56.853Z</time></trkpt><trkpt lat="44.0967559" lon="11.3809582"><ele>469.0</ele><time>2026-04-04T12:30:57.852Z</time></trkpt><trkpt lat="44.0968813" lon="11.3808742"><ele>467.0</ele><time>2026-04-04T12:30:58.854Z</time></trkpt><trkpt lat="44.0970089" lon="11.3808202"><ele>467.0</ele><time>2026-04-04T12:30:59.854Z</time></trkpt><trkpt lat="44.0971463" lon="11.3807979"><ele>467.0</ele><time>2026-04-04T12:31:00.853Z</time></trkpt><trkpt lat="44.0972926" lon="11.380808"><ele>467.0</ele><time>2026-04-04T12:31:01.853Z</time></trkpt><trkpt lat="44.097446" lon="11.3808342"><ele>467.0</ele><time>2026-04-04T12:31:02.853Z</time></trkpt><trkpt lat="44.0976064" lon="11.380862"><ele>463.66666666666663</ele><time>2026-04-04T12:31:03.854Z</time></trkpt><trkpt lat="44.0977658" lon="11.3808777"><ele>460.33333333333337</ele><time>2026-04-04T12:31:04.854Z</time></trkpt><trkpt lat="44.0979221" lon="11.3808669"><ele>457.0</ele><time>2026-04-04T12:31:05.854Z</time></trkpt><trkpt lat="44.0980729" lon="11.3808301"><ele>457.0</ele><time>2026-04-04T12:31:06.854Z</time></trkpt><trkpt lat="44.0982275" lon="11.3807701"><ele>457.0</ele><time>2026-04-04T12:31:07.854Z</time></trkpt><trkpt lat="44.0983901" lon="11.3806826"><ele>457.0</ele><time>2026-04-04T12:31:08.853Z</time></trkpt><trkpt lat="44.0985689" lon="11.3805818"><ele>458.0</ele><time>2026-04-04T12:31:09.853Z</time></trkpt><trkpt lat="44.0987695" lon="11.3804662"><ele>459.0</ele><time>2026-04-04T12:31:10.854Z</time></trkpt><trkpt lat="44.0989772" lon="11.3803419"><ele>460.0</ele><time>2026-04-04T12:31:11.853Z</time></trkpt><trkpt lat="44.0991953" lon="11.3802108"><ele>453.5</ele><time>2026-04-04T12:31:12.853Z</time></trkpt><trkpt lat="44.099417" lon="11.3800678"><ele>447.0</ele><time>2026-04-04T12:31:13.854Z</time></trkpt><trkpt lat="44.099643" lon="11.3799173"><ele>447.0</ele><time>2026-04-04T12:31:14.852Z</time></trkpt><trkpt lat="44.0998715" lon="11.3797605"><ele>447.0</ele><time>2026-04-04T12:31:15.853Z</time></trkpt><trkpt lat="44.1001027" lon="11.3796024"><ele>448.5</ele><time>2026-04-04T12:31:16.852Z</time></trkpt><trkpt lat="44.1003371" lon="11.3794356"><ele>450.0</ele><time>2026-04-04T12:31:17.854Z</time></trkpt><trkpt lat="44.1005577" lon="11.3792787"><ele>446.5</ele><time>2026-04-04T12:31:18.854Z</time></trkpt><trkpt lat="44.1007621" lon="11.3791354"><ele>443.0</ele><time>2026-04-04T12:31:19.853Z</time></trkpt><trkpt lat="44.1009613" lon="11.3790018"><ele>443.0</ele><time>2026-04-04T12:31:20.854Z</time></trkpt><trkpt lat="44.1011547" lon="11.3788669"><ele>443.0</ele><time>2026-04-04T12:31:21.853Z</time></trkpt><trkpt lat="44.1013513" lon="11.3787335"><ele>443.0</ele><time>2026-04-04T12:31:22.853Z</time></trkpt><trkpt lat="44.1015403" lon="11.3786061"><ele>442.3333333333333</ele><time>2026-04-04T12:31:23.853Z</time></trkpt><trkpt lat="44.101729" lon="11.3784842"><ele>441.66666666666663</ele><time>2026-04-04T12:31:24.853Z</time></trkpt><trkpt lat="44.1019091" lon="11.3783637"><ele>441.0</ele><time>2026-04-04T12:31:25.853Z</time></trkpt><trkpt lat="44.1020901" lon="11.3782575"><ele>441.0</ele><time>2026-04-04T12:31:26.851Z</time></trkpt><trkpt lat="44.1022735" lon="11.3781731"><ele>441.0</ele><time>2026-04-04T12:31:27.852Z</time></trkpt><trkpt lat="44.1024626" lon="11.3781208"><ele>441.0</ele><time>2026-04-04T12:31:28.853Z</time></trkpt><trkpt lat="44.1026618" lon="11.3780932"><ele>440.66666666666663</ele><time>2026-04-04T12:31:29.852Z</time></trkpt><trkpt lat="44.1028709" lon="11.3780872"><ele>440.3333333333333</ele><time>2026-04-04T12:31:30.853Z</time></trkpt><trkpt lat="44.1030955" lon="11.3780983"><ele>440.0</ele><time>2026-04-04T12:31:31.852Z</time></trkpt><trkpt lat="44.1033334" lon="11.3781251"><ele>439.5</ele><time>2026-04-04T12:31:32.852Z</time></trkpt><trkpt lat="44.1035846" lon="11.3781565"><ele>439.0</ele><time>2026-04-04T12:31:33.852Z</time></trkpt><trkpt lat="44.1038479" lon="11.3781909"><ele>439.0</ele><time>2026-04-04T12:31:34.853Z</time></trkpt><trkpt lat="44.1041219" lon="11.3782273"><ele>439.0</ele><time>2026-04-04T12:31:35.853Z</time></trkpt><trkpt lat="44.1044057" lon="11.378269"><ele>439.0</ele><time>2026-04-04T12:31:36.852Z</time></trkpt><trkpt lat="44.1046996" lon="11.3783142"><ele>439.0</ele><time>2026-04-04T12:31:37.853Z</time></trkpt><trkpt lat="44.104995" lon="11.3783564"><ele>438.5</ele><time>2026-04-04T12:31:38.853Z</time></trkpt><trkpt lat="44.1052959" lon="11.3783994"><ele>438.0</ele><time>2026-04-04T12:31:39.852Z</time></trkpt><trkpt lat="44.1055971" lon="11.3784433"><ele>436.5</ele><time>2026-04-04T12:31:40.852Z</time></trkpt><trkpt lat="44.105886" lon="11.3784932"><ele>435.0</ele><time>2026-04-04T12:31:41.853Z</time></trkpt><trkpt lat="44.106159" lon="11.3785438"><ele>435.0</ele><time>2026-04-04T12:31:42.852Z</time></trkpt><trkpt lat="44.1064261" lon="11.3786089"><ele>435.0</ele><time>2026-04-04T12:31:43.852Z</time></trkpt><trkpt lat="44.1066912" lon="11.3786919"><ele>435.5</ele><time>2026-04-04T12:31:44.852Z</time></trkpt><trkpt lat="44.1069568" lon="11.3787938"><ele>436.0</ele><time>2026-04-04T12:31:45.853Z</time></trkpt><trkpt lat="44.1072231" lon="11.3789154"><ele>433.0</ele><time>2026-04-04T12:31:46.853Z</time></trkpt><trkpt lat="44.107496" lon="11.3790466"><ele>430.0</ele><time>2026-04-04T12:31:47.853Z</time></trkpt><trkpt lat="44.1077722" lon="11.3791822"><ele>430.0</ele><time>2026-04-04T12:31:48.853Z</time></trkpt><trkpt lat="44.1080532" lon="11.3793192"><ele>430.0</ele><time>2026-04-04T12:31:49.853Z</time></trkpt><trkpt lat="44.108334" lon="11.3794523"><ele>428.5</ele><time>2026-04-04T12:31:50.853Z</time></trkpt><trkpt lat="44.108617" lon="11.3795849"><ele>427.0</ele><time>2026-04-04T12:31:51.852Z</time></trkpt><trkpt lat="44.1088949" lon="11.3797149"><ele>428.0</ele><time>2026-04-04T12:31:52.853Z</time></trkpt><trkpt lat="44.1091651" lon="11.3798409"><ele>429.0</ele><time>2026-04-04T12:31:53.852Z</time></trkpt><trkpt lat="44.1094029" lon="11.379953"><ele>429.0</ele><time>2026-04-04T12:31:54.852Z</time></trkpt><trkpt lat="44.1096058" lon="11.3800431"><ele>429.0</ele><time>2026-04-04T12:31:55.852Z</time></trkpt><trkpt lat="44.1097921" lon="11.3801026"><ele>429.0</ele><time>2026-04-04T12:31:56.853Z</time></trkpt><trkpt lat="44.1099656" lon="11.3800959"><ele>430.0</ele><time>2026-04-04T12:31:57.852Z</time></trkpt><trkpt lat="44.110145" lon="11.3800509"><ele>431.0</ele><time>2026-04-04T12:31:58.853Z</time></trkpt><trkpt lat="44.1103264" lon="11.3799854"><ele>432.0</ele><time>2026-04-04T12:31:59.853Z</time></trkpt><trkpt lat="44.1105186" lon="11.3799184"><ele>432.0</ele><time>2026-04-04T12:32:00.853Z</time></trkpt><trkpt lat="44.110714" lon="11.3798555"><ele>432.0</ele><time>2026-04-04T12:32:01.852Z</time></trkpt><trkpt lat="44.1109202" lon="11.3797915"><ele>432.0</ele><time>2026-04-04T12:32:02.852Z</time></trkpt><trkpt lat="44.111119" lon="11.3797252"><ele>432.66666666666663</ele><time>2026-04-04T12:32:03.853Z</time></trkpt><trkpt lat="44.111307" lon="11.3796683"><ele>433.3333333333333</ele><time>2026-04-04T12:32:04.852Z</time></trkpt><trkpt lat="44.1114907" lon="11.3796373"><ele>434.0</ele><time>2026-04-04T12:32:05.852Z</time></trkpt><trkpt lat="44.1116787" lon="11.3796539"><ele>431.3333333333333</ele><time>2026-04-04T12:32:06.853Z</time></trkpt><trkpt lat="44.111874" lon="11.379718"><ele>428.66666666666663</ele><time>2026-04-04T12:32:07.853Z</time></trkpt><trkpt lat="44.1120722" lon="11.3798182"><ele>426.0</ele><time>2026-04-04T12:32:08.853Z</time></trkpt><trkpt lat="44.1122829" lon="11.3799293"><ele>427.0</ele><time>2026-04-04T12:32:09.852Z</time></trkpt><trkpt lat="44.1125031" lon="11.3800453"><ele>428.0</ele><time>2026-04-04T12:32:10.853Z</time></trkpt><trkpt lat="44.1127336" lon="11.3801738"><ele>428.0</ele><time>2026-04-04T12:32:11.853Z</time></trkpt><trkpt lat="44.1129679" lon="11.3803071"><ele>428.0</ele><time>2026-04-04T12:32:12.853Z</time></trkpt><trkpt lat="44.1131871" lon="11.3804318"><ele>426.3333333333333</ele><time>2026-04-04T12:32:13.852Z</time></trkpt><trkpt lat="44.1133949" lon="11.3805489"><ele>424.66666666666663</ele><time>2026-04-04T12:32:14.853Z</time></trkpt><trkpt lat="44.11359" lon="11.3806654"><ele>423.0</ele><time>2026-04-04T12:32:15.852Z</time></trkpt><trkpt lat="44.1137758" lon="11.3807701"><ele>423.0</ele><time>2026-04-04T12:32:16.853Z</time></trkpt><trkpt lat="44.1139513" lon="11.3808519"><ele>423.0</ele><time>2026-04-04T12:32:17.853Z</time></trkpt><trkpt lat="44.1141247" lon="11.3808886"><ele>423.0</ele><time>2026-04-04T12:32:18.853Z</time></trkpt><trkpt lat="44.1142924" lon="11.3808702"><ele>424.33333333333337</ele><time>2026-04-04T12:32:19.853Z</time></trkpt><trkpt lat="44.1144574" lon="11.3807953"><ele>425.6666666666667</ele><time>2026-04-04T12:32:20.853Z</time></trkpt><trkpt lat="44.1146197" lon="11.3806623"><ele>427.0</ele><time>2026-04-04T12:32:21.853Z</time></trkpt><trkpt lat="44.114777" lon="11.3805106"><ele>426.33333333333337</ele><time>2026-04-04T12:32:22.853Z</time></trkpt><trkpt lat="44.1149258" lon="11.3803808"><ele>425.66666666666663</ele><time>2026-04-04T12:32:23.853Z</time></trkpt><trkpt lat="44.1150658" lon="11.3802718"><ele>425.0</ele><time>2026-04-04T12:32:24.853Z</time></trkpt><trkpt lat="44.1151967" lon="11.3801944"><ele>425.0</ele><time>2026-04-04T12:32:25.853Z</time></trkpt><trkpt lat="44.1153249" lon="11.3801674"><ele>425.0</ele><time>2026-04-04T12:32:26.853Z</time></trkpt><trkpt lat="44.1154501" lon="11.3801808"><ele>425.0</ele><time>2026-04-04T12:32:27.852Z</time></trkpt><trkpt lat="44.1155663" lon="11.3802033"><ele>425.0</ele><time>2026-04-04T12:32:28.852Z</time></trkpt><trkpt lat="44.1156697" lon="11.3802231"><ele>423.8</ele><time>2026-04-04T12:32:29.852Z</time></trkpt><trkpt lat="44.1157665" lon="11.3802343"><ele>422.6</ele><time>2026-04-04T12:32:30.853Z</time></trkpt><trkpt lat="44.1158559" lon="11.3802281"><ele>421.4</ele><time>2026-04-04T12:32:31.853Z</time></trkpt><trkpt lat="44.1159496" lon="11.3801956"><ele>420.2</ele><time>2026-04-04T12:32:32.853Z</time></trkpt><trkpt lat="44.1160579" lon="11.3801571"><ele>419.0</ele><time>2026-04-04T12:32:33.852Z</time></trkpt><trkpt lat="44.116177" lon="11.3801116"><ele>419.0</ele><time>2026-04-04T12:32:34.852Z</time></trkpt><trkpt lat="44.1162978" lon="11.3800675"><ele>419.0</ele><time>2026-04-04T12:32:35.853Z</time></trkpt><trkpt lat="44.1164197" lon="11.3800246"><ele>419.0</ele><time>2026-04-04T12:32:36.852Z</time></trkpt><trkpt lat="44.1165416" lon="11.3799821"><ele>419.0</ele><time>2026-04-04T12:32:37.853Z</time></trkpt><trkpt lat="44.1166616" lon="11.3799433"><ele>418.75</ele><time>2026-04-04T12:32:38.852Z</time></trkpt><trkpt lat="44.116782" lon="11.3799033"><ele>418.5</ele><time>2026-04-04T12:32:39.852Z</time></trkpt><trkpt lat="44.1168994" lon="11.3798569"><ele>418.25</ele><time>2026-04-04T12:32:40.853Z</time></trkpt><trkpt lat="44.1170163" lon="11.3798115"><ele>418.0</ele><time>2026-04-04T12:32:41.852Z</time></trkpt><trkpt lat="44.1171227" lon="11.3797738"><ele>418.00000000000006</ele><time>2026-04-04T12:32:42.853Z</time></trkpt><trkpt lat="44.1172181" lon="11.3797381"><ele>418.0</ele><time>2026-04-04T12:32:43.853Z</time></trkpt><trkpt lat="44.1173052" lon="11.379696"><ele>418.0</ele><time>2026-04-04T12:32:44.852Z</time></trkpt><trkpt lat="44.1173748" lon="11.379637"><ele>418.0</ele><time>2026-04-04T12:32:45.852Z</time></trkpt><trkpt lat="44.1174141" lon="11.3795505"><ele>418.00000000000006</ele><time>2026-04-04T12:32:46.853Z</time></trkpt><trkpt lat="44.117425" lon="11.3794425"><ele>418.0</ele><time>2026-04-04T12:32:47.853Z</time></trkpt><trkpt lat="44.1174019" lon="11.3793138"><ele>418.0</ele><time>2026-04-04T12:32:48.853Z</time></trkpt><trkpt lat="44.1173734" lon="11.3791401"><ele>418.0</ele><time>2026-04-04T12:32:49.851Z</time></trkpt><trkpt lat="44.1173448" lon="11.3789323"><ele>418.0</ele><time>2026-04-04T12:32:50.852Z</time></trkpt><trkpt lat="44.1173124" lon="11.3787136"><ele>418.0</ele><time>2026-04-04T12:32:51.852Z</time></trkpt><trkpt lat="44.1172863" lon="11.3785151"><ele>418.59999999999997</ele><time>2026-04-04T12:32:52.853Z</time></trkpt><trkpt lat="44.1172705" lon="11.3783405"><ele>419.2</ele><time>2026-04-04T12:32:53.853Z</time></trkpt><trkpt lat="44.1172694" lon="11.3782069"><ele>419.8</ele><time>2026-04-04T12:32:54.852Z</time></trkpt><trkpt lat="44.1172794" lon="11.3781087"><ele>420.4</ele><time>2026-04-04T12:32:55.851Z</time></trkpt><trkpt lat="44.1172813" lon="11.3780105"><ele>421.0</ele><time>2026-04-04T12:32:56.852Z</time></trkpt><trkpt lat="44.11727" lon="11.3778813"><ele>421.0</ele><time>2026-04-04T12:32:57.852Z</time></trkpt><trkpt lat="44.1172468" lon="11.3777177"><ele>421.0</ele><time>2026-04-04T12:32:58.851Z</time></trkpt><trkpt lat="44.1172082" lon="11.3775206"><ele>421.0</ele><time>2026-04-04T12:32:59.852Z</time></trkpt><trkpt lat="44.1171727" lon="11.3773394"><ele>421.0</ele><time>2026-04-04T12:33:00.853Z</time></trkpt><trkpt lat="44.1171472" lon="11.3771592"><ele>421.25</ele><time>2026-04-04T12:33:01.853Z</time></trkpt><trkpt lat="44.1171433" lon="11.3769897"><ele>421.5</ele><time>2026-04-04T12:33:02.853Z</time></trkpt><trkpt lat="44.1171607" lon="11.3768285"><ele>421.75</ele><time>2026-04-04T12:33:03.853Z</time></trkpt><trkpt lat="44.1171933" lon="11.3766544"><ele>422.0</ele><time>2026-04-04T12:33:04.853Z</time></trkpt><trkpt lat="44.1172276" lon="11.3764802"><ele>421.75</ele><time>2026-04-04T12:33:05.852Z</time></trkpt><trkpt lat="44.1172568" lon="11.3763133"><ele>421.5</ele><time>2026-04-04T12:33:06.851Z</time></trkpt><trkpt lat="44.1172815" lon="11.3761511"><ele>421.25</ele><time>2026-04-04T12:33:07.852Z</time></trkpt><trkpt lat="44.1172994" lon="11.3759981"><ele>421.0</ele><time>2026-04-04T12:33:08.853Z</time></trkpt><trkpt lat="44.117305" lon="11.3758503"><ele>421.0</ele><time>2026-04-04T12:33:09.853Z</time></trkpt><trkpt lat="44.1172917" lon="11.3757029"><ele>421.0</ele><time>2026-04-04T12:33:10.853Z</time></trkpt><trkpt lat="44.1172496" lon="11.3755633"><ele>421.0</ele><time>2026-04-04T12:33:11.852Z</time></trkpt><trkpt lat="44.1171878" lon="11.3754409"><ele>421.0</ele><time>2026-04-04T12:33:12.853Z</time></trkpt><trkpt lat="44.1171173" lon="11.3753252"><ele>421.0</ele><time>2026-04-04T12:33:13.853Z</time></trkpt><trkpt lat="44.1170473" lon="11.3752026"><ele>421.0</ele><time>2026-04-04T12:33:14.851Z</time></trkpt><trkpt lat="44.1169809" lon="11.3750701"><ele>421.0</ele><time>2026-04-04T12:33:15.853Z</time></trkpt><trkpt lat="44.1169157" lon="11.3749247"><ele>421.0</ele><time>2026-04-04T12:33:16.852Z</time></trkpt><trkpt lat="44.1168468" lon="11.3747501"><ele>421.0</ele><time>2026-04-04T12:33:17.853Z</time></trkpt><trkpt lat="44.1167822" lon="11.3745653"><ele>421.0</ele><time>2026-04-04T12:33:18.852Z</time></trkpt><trkpt lat="44.1167298" lon="11.3743657"><ele>421.0</ele><time>2026-04-04T12:33:19.852Z</time></trkpt><trkpt lat="44.1166935" lon="11.3741553"><ele>421.0</ele><time>2026-04-04T12:33:20.853Z</time></trkpt><trkpt lat="44.1166705" lon="11.3739331"><ele>421.0</ele><time>2026-04-04T12:33:21.853Z</time></trkpt><trkpt lat="44.1166573" lon="11.3736829"><ele>421.0</ele><time>2026-04-04T12:33:22.853Z</time></trkpt><trkpt lat="44.1166595" lon="11.3733981"><ele>421.0</ele><time>2026-04-04T12:33:23.852Z</time></trkpt><trkpt lat="44.1166856" lon="11.3730899"><ele>421.5</ele><time>2026-04-04T12:33:24.853Z</time></trkpt><trkpt lat="44.1167317" lon="11.3727584"><ele>422.0</ele><time>2026-04-04T12:33:25.853Z</time></trkpt><trkpt lat="44.116784" lon="11.3724133"><ele>421.5</ele><time>2026-04-04T12:33:26.852Z</time></trkpt><trkpt lat="44.116829" lon="11.3720731"><ele>421.0</ele><time>2026-04-04T12:33:27.853Z</time></trkpt><trkpt lat="44.1168516" lon="11.371742"><ele>421.0</ele><time>2026-04-04T12:33:28.852Z</time></trkpt><trkpt lat="44.1168473" lon="11.3713977"><ele>421.0</ele><time>2026-04-04T12:33:29.852Z</time></trkpt><trkpt lat="44.1168206" lon="11.3710446"><ele>421.5</ele><time>2026-04-04T12:33:30.852Z</time></trkpt><trkpt lat="44.1167769" lon="11.370679"><ele>422.0</ele><time>2026-04-04T12:33:31.852Z</time></trkpt><trkpt lat="44.1167244" lon="11.3703079"><ele>423.0</ele><time>2026-04-04T12:33:32.853Z</time></trkpt><trkpt lat="44.1166676" lon="11.3699293"><ele>424.0</ele><time>2026-04-04T12:33:33.852Z</time></trkpt><trkpt lat="44.1166123" lon="11.3695449"><ele>425.5</ele><time>2026-04-04T12:33:34.852Z</time></trkpt><trkpt lat="44.1165617" lon="11.3691501"><ele>427.0</ele><time>2026-04-04T12:33:35.852Z</time></trkpt><trkpt lat="44.1165171" lon="11.3687643"><ele>427.0</ele><time>2026-04-04T12:33:36.853Z</time></trkpt><trkpt lat="44.1164926" lon="11.3683886"><ele>427.0</ele><time>2026-04-04T12:33:37.853Z</time></trkpt><trkpt lat="44.1164902" lon="11.3680184"><ele>427.0</ele><time>2026-04-04T12:33:38.853Z</time></trkpt><trkpt lat="44.1165139" lon="11.3676592"><ele>427.0</ele><time>2026-04-04T12:33:39.852Z</time></trkpt><trkpt lat="44.1165601" lon="11.3673021"><ele>427.0</ele><time>2026-04-04T12:33:40.853Z</time></trkpt><trkpt lat="44.1166266" lon="11.3669486"><ele>427.0</ele><time>2026-04-04T12:33:41.853Z</time></trkpt><trkpt lat="44.1167119" lon="11.3665947"><ele>427.5</ele><time>2026-04-04T12:33:42.852Z</time></trkpt><trkpt lat="44.1168025" lon="11.3662334"><ele>428.0</ele><time>2026-04-04T12:33:43.852Z</time></trkpt><trkpt lat="44.1168918" lon="11.3658606"><ele>428.5</ele><time>2026-04-04T12:33:44.853Z</time></trkpt><trkpt lat="44.1169719" lon="11.3654895"><ele>429.0</ele><time>2026-04-04T12:33:45.853Z</time></trkpt><trkpt lat="44.1170336" lon="11.365122"><ele>429.0</ele><time>2026-04-04T12:33:46.852Z</time></trkpt><trkpt lat="44.1170661" lon="11.3647696"><ele>429.0</ele><time>2026-04-04T12:33:47.853Z</time></trkpt><trkpt lat="44.1170785" lon="11.3644331"><ele>429.33333333333337</ele><time>2026-04-04T12:33:48.852Z</time></trkpt><trkpt lat="44.1170835" lon="11.3641189"><ele>429.6666666666667</ele><time>2026-04-04T12:33:49.852Z</time></trkpt><trkpt lat="44.1170839" lon="11.3638239"><ele>430.0</ele><time>2026-04-04T12:33:50.852Z</time></trkpt><trkpt lat="44.1170868" lon="11.3635605"><ele>430.0</ele><time>2026-04-04T12:33:51.852Z</time></trkpt><trkpt lat="44.1170963" lon="11.3633241"><ele>430.0</ele><time>2026-04-04T12:33:52.852Z</time></trkpt><trkpt lat="44.1171232" lon="11.3631388"><ele>430.0</ele><time>2026-04-04T12:33:53.852Z</time></trkpt><trkpt lat="44.1171837" lon="11.3629784"><ele>430.0</ele><time>2026-04-04T12:33:54.852Z</time></trkpt><trkpt lat="44.1172787" lon="11.3628425"><ele>430.6666666666667</ele><time>2026-04-04T12:33:55.853Z</time></trkpt><trkpt lat="44.1174065" lon="11.3627476"><ele>431.33333333333337</ele><time>2026-04-04T12:33:56.851Z</time></trkpt><trkpt lat="44.1175522" lon="11.362703"><ele>432.0</ele><time>2026-04-04T12:33:57.852Z</time></trkpt><trkpt lat="44.1177243" lon="11.3626831"><ele>432.0</ele><time>2026-04-04T12:33:58.852Z</time></trkpt><trkpt lat="44.1179078" lon="11.3626654"><ele>432.0</ele><time>2026-04-04T12:33:59.852Z</time></trkpt><trkpt lat="44.1180604" lon="11.3626447"><ele>432.0</ele><time>2026-04-04T12:34:00.851Z</time></trkpt><trkpt lat="44.1181946" lon="11.3626451"><ele>432.1666666666667</ele><time>2026-04-04T12:34:01.852Z</time></trkpt><trkpt lat="44.1182932" lon="11.3626759"><ele>432.33333333333337</ele><time>2026-04-04T12:34:02.852Z</time></trkpt><trkpt lat="44.1183541" lon="11.3626997"><ele>432.5</ele><time>2026-04-04T12:34:03.853Z</time></trkpt><trkpt lat="44.1184251" lon="11.3626812"><ele>432.6666666666667</ele><time>2026-04-04T12:34:05.853Z</time></trkpt><trkpt lat="44.118463" lon="11.3625559"><ele>432.83333333333337</ele><time>2026-04-04T12:34:07.853Z</time></trkpt><trkpt lat="44.1184444" lon="11.3624235"><ele>433.0</ele><time>2026-04-04T12:34:08.852Z</time></trkpt><trkpt lat="44.1183954" lon="11.3622781"><ele>434.0</ele><time>2026-04-04T12:34:09.853Z</time></trkpt><trkpt lat="44.1183231" lon="11.3621008"><ele>435.0</ele><time>2026-04-04T12:34:10.852Z</time></trkpt><trkpt lat="44.1182445" lon="11.3619288"><ele>436.0</ele><time>2026-04-04T12:34:11.852Z</time></trkpt><trkpt lat="44.1181715" lon="11.3617766"><ele>437.0</ele><time>2026-04-04T12:34:12.853Z</time></trkpt><trkpt lat="44.1181259" lon="11.3616316"><ele>437.5</ele><time>2026-04-04T12:34:13.852Z</time></trkpt><trkpt lat="44.1181215" lon="11.3614949"><ele>438.0</ele><time>2026-04-04T12:34:14.852Z</time></trkpt><trkpt lat="44.1181614" lon="11.3613558"><ele>438.5</ele><time>2026-04-04T12:34:15.853Z</time></trkpt><trkpt lat="44.1182409" lon="11.3612129"><ele>439.0</ele><time>2026-04-04T12:34:16.852Z</time></trkpt><trkpt lat="44.1183554" lon="11.3610636"><ele>440.33333333333337</ele><time>2026-04-04T12:34:17.851Z</time></trkpt><trkpt lat="44.1184928" lon="11.3608939"><ele>441.66666666666663</ele><time>2026-04-04T12:34:18.853Z</time></trkpt><trkpt lat="44.1186376" lon="11.3607045"><ele>443.0</ele><time>2026-04-04T12:34:19.853Z</time></trkpt><trkpt lat="44.1187767" lon="11.3605248"><ele>445.75</ele><time>2026-04-04T12:34:20.853Z</time></trkpt><trkpt lat="44.118899" lon="11.3603669"><ele>448.5</ele><time>2026-04-04T12:34:21.852Z</time></trkpt><trkpt lat="44.119009" lon="11.3602273"><ele>451.25</ele><time>2026-04-04T12:34:22.852Z</time></trkpt><trkpt lat="44.1190945" lon="11.3601128"><ele>454.0</ele><time>2026-04-04T12:34:23.852Z</time></trkpt><trkpt lat="44.1191422" lon="11.3600068"><ele>454.00000000000006</ele><time>2026-04-04T12:34:24.853Z</time></trkpt><trkpt lat="44.1191415" lon="11.3599087"><ele>454.0</ele><time>2026-04-04T12:34:25.853Z</time></trkpt><trkpt lat="44.1191019" lon="11.3598259"><ele>454.0</ele><time>2026-04-04T12:34:26.852Z</time></trkpt><trkpt lat="44.1190293" lon="11.3598016"><ele>454.0</ele><time>2026-04-04T12:34:27.853Z</time></trkpt><trkpt lat="44.1189297" lon="11.359821"><ele>454.00000000000006</ele><time>2026-04-04T12:34:28.853Z</time></trkpt><trkpt lat="44.1188056" lon="11.3598585"><ele>454.0</ele><time>2026-04-04T12:34:29.853Z</time></trkpt><trkpt lat="44.1186526" lon="11.3598735"><ele>456.6666666666667</ele><time>2026-04-04T12:34:30.853Z</time></trkpt><trkpt lat="44.1184726" lon="11.3598608"><ele>459.33333333333337</ele><time>2026-04-04T12:34:31.852Z</time></trkpt><trkpt lat="44.1182773" lon="11.3598221"><ele>462.0</ele><time>2026-04-04T12:34:32.852Z</time></trkpt><trkpt lat="44.1180745" lon="11.3597644"><ele>467.0</ele><time>2026-04-04T12:34:33.853Z</time></trkpt><trkpt lat="44.1178604" lon="11.3596926"><ele>472.0</ele><time>2026-04-04T12:34:34.852Z</time></trkpt><trkpt lat="44.1176608" lon="11.3596153"><ele>477.0</ele><time>2026-04-04T12:34:35.851Z</time></trkpt><trkpt lat="44.1174794" lon="11.3595423"><ele>474.75</ele><time>2026-04-04T12:34:36.852Z</time></trkpt><trkpt lat="44.1173159" lon="11.3594714"><ele>472.5</ele><time>2026-04-04T12:34:37.852Z</time></trkpt><trkpt lat="44.1171742" lon="11.359416"><ele>470.25</ele><time>2026-04-04T12:34:38.851Z</time></trkpt><trkpt lat="44.117062" lon="11.3593499"><ele>468.0</ele><time>2026-04-04T12:34:39.851Z</time></trkpt><trkpt lat="44.1169773" lon="11.3592444"><ele>468.0</ele><time>2026-04-04T12:34:40.85Z</time></trkpt><trkpt lat="44.1169049" lon="11.3590902"><ele>468.0</ele><time>2026-04-04T12:34:41.851Z</time></trkpt><trkpt lat="44.1168435" lon="11.3589022"><ele>468.0</ele><time>2026-04-04T12:34:42.851Z</time></trkpt><trkpt lat="44.1167767" lon="11.3586987"><ele>468.0</ele><time>2026-04-04T12:34:43.852Z</time></trkpt><trkpt lat="44.1167081" lon="11.358499"><ele>472.0</ele><time>2026-04-04T12:34:44.852Z</time></trkpt><trkpt lat="44.1166518" lon="11.3582916"><ele>476.0</ele><time>2026-04-04T12:34:45.851Z</time></trkpt><trkpt lat="44.1166189" lon="11.3580536"><ele>480.0</ele><time>2026-04-04T12:34:46.851Z</time></trkpt><trkpt lat="44.1165835" lon="11.3577984"><ele>480.33333333333337</ele><time>2026-04-04T12:34:47.85Z</time></trkpt><trkpt lat="44.1165447" lon="11.3575452"><ele>480.6666666666667</ele><time>2026-04-04T12:34:48.85Z</time></trkpt><trkpt lat="44.116527" lon="11.3572904"><ele>481.0</ele><time>2026-04-04T12:34:49.852Z</time></trkpt><trkpt lat="44.1165217" lon="11.3570611"><ele>481.0</ele><time>2026-04-04T12:34:50.852Z</time></trkpt><trkpt lat="44.1165173" lon="11.3568791"><ele>481.0</ele><time>2026-04-04T12:34:51.852Z</time></trkpt><trkpt lat="44.1165347" lon="11.3567209"><ele>481.0</ele><time>2026-04-04T12:34:52.852Z</time></trkpt><trkpt lat="44.1165868" lon="11.3565718"><ele>481.0</ele><time>2026-04-04T12:34:53.851Z</time></trkpt><trkpt lat="44.1166393" lon="11.3564313"><ele>483.0</ele><time>2026-04-04T12:34:54.852Z</time></trkpt><trkpt lat="44.116645" lon="11.3562778"><ele>485.0</ele><time>2026-04-04T12:34:55.85Z</time></trkpt><trkpt lat="44.1166027" lon="11.3561172"><ele>487.0</ele><time>2026-04-04T12:34:56.851Z</time></trkpt><trkpt lat="44.1165262" lon="11.355962"><ele>489.0</ele><time>2026-04-04T12:34:57.852Z</time></trkpt><trkpt lat="44.1164599" lon="11.355796"><ele>489.0</ele><time>2026-04-04T12:34:58.852Z</time></trkpt><trkpt lat="44.116414" lon="11.3556003"><ele>489.0</ele><time>2026-04-04T12:34:59.851Z</time></trkpt><trkpt lat="44.1163819" lon="11.3554139"><ele>489.0</ele><time>2026-04-04T12:35:00.852Z</time></trkpt><trkpt lat="44.1163693" lon="11.3552523"><ele>489.0</ele><time>2026-04-04T12:35:01.852Z</time></trkpt><trkpt lat="44.1163925" lon="11.3550868"><ele>490.5</ele><time>2026-04-04T12:35:02.852Z</time></trkpt><trkpt lat="44.1164525" lon="11.3549217"><ele>492.0</ele><time>2026-04-04T12:35:03.852Z</time></trkpt><trkpt lat="44.1165362" lon="11.354767"><ele>493.5</ele><time>2026-04-04T12:35:04.852Z</time></trkpt><trkpt lat="44.1166017" lon="11.3545841"><ele>495.0</ele><time>2026-04-04T12:35:05.85Z</time></trkpt><trkpt lat="44.1166362" lon="11.3543782"><ele>498.6</ele><time>2026-04-04T12:35:06.85Z</time></trkpt><trkpt lat="44.1166511" lon="11.3541869"><ele>502.2</ele><time>2026-04-04T12:35:07.851Z</time></trkpt><trkpt lat="44.116688" lon="11.3540275"><ele>505.79999999999995</ele><time>2026-04-04T12:35:08.852Z</time></trkpt><trkpt lat="44.116751" lon="11.3539216"><ele>509.4</ele><time>2026-04-04T12:35:09.852Z</time></trkpt><trkpt lat="44.1168221" lon="11.3538714"><ele>513.0</ele><time>2026-04-04T12:35:10.851Z</time></trkpt><trkpt lat="44.1169221" lon="11.3538568"><ele>513.0</ele><time>2026-04-04T12:35:11.852Z</time></trkpt><trkpt lat="44.1170385" lon="11.3538781"><ele>513.0</ele><time>2026-04-04T12:35:12.851Z</time></trkpt><trkpt lat="44.1171588" lon="11.3538656"><ele>513.0</ele><time>2026-04-04T12:35:13.851Z</time></trkpt><trkpt lat="44.1172826" lon="11.3538168"><ele>513.0</ele><time>2026-04-04T12:35:14.851Z</time></trkpt><trkpt lat="44.1173957" lon="11.3537185"><ele>516.0</ele><time>2026-04-04T12:35:15.851Z</time></trkpt><trkpt lat="44.1174923" lon="11.3535636"><ele>519.0</ele><time>2026-04-04T12:35:16.851Z</time></trkpt><trkpt lat="44.1175725" lon="11.3533576"><ele>522.0</ele><time>2026-04-04T12:35:17.85Z</time></trkpt><trkpt lat="44.117636" lon="11.3531213"><ele>524.0</ele><time>2026-04-04T12:35:18.851Z</time></trkpt><trkpt lat="44.1176841" lon="11.3528612"><ele>526.0</ele><time>2026-04-04T12:35:19.852Z</time></trkpt><trkpt lat="44.1177181" lon="11.352617"><ele>528.0</ele><time>2026-04-04T12:35:20.852Z</time></trkpt><trkpt lat="44.1177403" lon="11.3524067"><ele>528.0</ele><time>2026-04-04T12:35:21.852Z</time></trkpt><trkpt lat="44.1177317" lon="11.352234"><ele>528.0</ele><time>2026-04-04T12:35:22.852Z</time></trkpt><trkpt lat="44.1176848" lon="11.3520832"><ele>528.0</ele><time>2026-04-04T12:35:23.852Z</time></trkpt><trkpt lat="44.1176076" lon="11.3519671"><ele>528.0</ele><time>2026-04-04T12:35:24.852Z</time></trkpt><trkpt lat="44.1175422" lon="11.3518753"><ele>528.0</ele><time>2026-04-04T12:35:25.851Z</time></trkpt><trkpt lat="44.1175065" lon="11.3517743"><ele>529.8</ele><time>2026-04-04T12:35:26.851Z</time></trkpt><trkpt lat="44.1175022" lon="11.3516504"><ele>531.5999999999999</ele><time>2026-04-04T12:35:27.851Z</time></trkpt><trkpt lat="44.1175316" lon="11.3515139"><ele>533.4000000000001</ele><time>2026-04-04T12:35:28.852Z</time></trkpt><trkpt lat="44.1175657" lon="11.3513597"><ele>535.2</ele><time>2026-04-04T12:35:29.851Z</time></trkpt><trkpt lat="44.1175698" lon="11.3511773"><ele>537.0</ele><time>2026-04-04T12:35:30.852Z</time></trkpt><trkpt lat="44.1175383" lon="11.350976"><ele>537.6666666666666</ele><time>2026-04-04T12:35:31.852Z</time></trkpt><trkpt lat="44.1174805" lon="11.3507508"><ele>538.3333333333333</ele><time>2026-04-04T12:35:32.852Z</time></trkpt><trkpt lat="44.1174265" lon="11.3505233"><ele>539.0</ele><time>2026-04-04T12:35:33.851Z</time></trkpt><trkpt lat="44.1173902" lon="11.3502852"><ele>539.0</ele><time>2026-04-04T12:35:34.852Z</time></trkpt><trkpt lat="44.1173731" lon="11.350045"><ele>539.0</ele><time>2026-04-04T12:35:35.852Z</time></trkpt><trkpt lat="44.1173684" lon="11.349799"><ele>539.0</ele><time>2026-04-04T12:35:36.851Z</time></trkpt><trkpt lat="44.117378" lon="11.3495434"><ele>538.0</ele><time>2026-04-04T12:35:37.852Z</time></trkpt><trkpt lat="44.1174009" lon="11.349282"><ele>537.0</ele><time>2026-04-04T12:35:38.851Z</time></trkpt><trkpt lat="44.1174166" lon="11.3490493"><ele>536.0</ele><time>2026-04-04T12:35:39.851Z</time></trkpt><trkpt lat="44.1174124" lon="11.3488422"><ele>536.75</ele><time>2026-04-04T12:35:40.851Z</time></trkpt><trkpt lat="44.117396" lon="11.3486559"><ele>537.5</ele><time>2026-04-04T12:35:41.851Z</time></trkpt><trkpt lat="44.1173883" lon="11.3484723"><ele>538.25</ele><time>2026-04-04T12:35:42.852Z</time></trkpt><trkpt lat="44.1173835" lon="11.3482704"><ele>539.0</ele><time>2026-04-04T12:35:43.852Z</time></trkpt><trkpt lat="44.1173734" lon="11.3480614"><ele>541.3333333333333</ele><time>2026-04-04T12:35:44.852Z</time></trkpt><trkpt lat="44.1173461" lon="11.3478533"><ele>543.6666666666666</ele><time>2026-04-04T12:35:45.852Z</time></trkpt><trkpt lat="44.1172923" lon="11.3476345"><ele>546.0</ele><time>2026-04-04T12:35:46.851Z</time></trkpt><trkpt lat="44.1172035" lon="11.3474208"><ele>546.0</ele><time>2026-04-04T12:35:47.852Z</time></trkpt><trkpt lat="44.1171111" lon="11.3472267"><ele>546.0</ele><time>2026-04-04T12:35:48.852Z</time></trkpt><trkpt lat="44.1170401" lon="11.3470487"><ele>546.0</ele><time>2026-04-04T12:35:49.852Z</time></trkpt><trkpt lat="44.1169883" lon="11.3468592"><ele>549.0</ele><time>2026-04-04T12:35:50.852Z</time></trkpt><trkpt lat="44.1169634" lon="11.3466587"><ele>552.0</ele><time>2026-04-04T12:35:51.852Z</time></trkpt><trkpt lat="44.116961" lon="11.3464448"><ele>555.0</ele><time>2026-04-04T12:35:52.851Z</time></trkpt><trkpt lat="44.1169777" lon="11.3462177"><ele>555.6666666666666</ele><time>2026-04-04T12:35:53.851Z</time></trkpt><trkpt lat="44.1170216" lon="11.3459784"><ele>556.3333333333333</ele><time>2026-04-04T12:35:54.852Z</time></trkpt><trkpt lat="44.1170917" lon="11.3457255"><ele>557.0</ele><time>2026-04-04T12:35:55.852Z</time></trkpt><trkpt lat="44.1171688" lon="11.3454684"><ele>559.0</ele><time>2026-04-04T12:35:56.85Z</time></trkpt><trkpt lat="44.1172315" lon="11.3452147"><ele>561.0</ele><time>2026-04-04T12:35:57.852Z</time></trkpt><trkpt lat="44.117268" lon="11.3449595"><ele>563.0</ele><time>2026-04-04T12:35:58.852Z</time></trkpt><trkpt lat="44.1172773" lon="11.3447271"><ele>565.75</ele><time>2026-04-04T12:35:59.852Z</time></trkpt><trkpt lat="44.1172632" lon="11.3445126"><ele>568.5</ele><time>2026-04-04T12:36:00.851Z</time></trkpt><trkpt lat="44.1172147" lon="11.3443182"><ele>571.25</ele><time>2026-04-04T12:36:01.851Z</time></trkpt><trkpt lat="44.1171343" lon="11.3441577"><ele>574.0</ele><time>2026-04-04T12:36:02.851Z</time></trkpt><trkpt lat="44.1170637" lon="11.3440012"><ele>575.5</ele><time>2026-04-04T12:36:03.851Z</time></trkpt><trkpt lat="44.1170316" lon="11.3438327"><ele>577.0</ele><time>2026-04-04T12:36:04.852Z</time></trkpt><trkpt lat="44.1170335" lon="11.3436486"><ele>578.5</ele><time>2026-04-04T12:36:05.852Z</time></trkpt><trkpt lat="44.1170706" lon="11.3434563"><ele>580.0</ele><time>2026-04-04T12:36:06.851Z</time></trkpt><trkpt lat="44.1171336" lon="11.343262"><ele>580.0</ele><time>2026-04-04T12:36:07.851Z</time></trkpt><trkpt lat="44.1172123" lon="11.3430584"><ele>580.0</ele><time>2026-04-04T12:36:08.851Z</time></trkpt><trkpt lat="44.1172958" lon="11.3428583"><ele>580.0</ele><time>2026-04-04T12:36:09.851Z</time></trkpt><trkpt lat="44.1173863" lon="11.3426689"><ele>582.6666666666667</ele><time>2026-04-04T12:36:10.851Z</time></trkpt><trkpt lat="44.1174853" lon="11.3425004"><ele>585.3333333333334</ele><time>2026-04-04T12:36:11.852Z</time></trkpt><trkpt lat="44.1176077" lon="11.3423546"><ele>588.0</ele><time>2026-04-04T12:36:12.852Z</time></trkpt><trkpt lat="44.1177488" lon="11.3422216"><ele>587.3333333333334</ele><time>2026-04-04T12:36:13.851Z</time></trkpt><trkpt lat="44.1178988" lon="11.3420846"><ele>586.6666666666667</ele><time>2026-04-04T12:36:14.851Z</time></trkpt><trkpt lat="44.1180515" lon="11.3419468"><ele>586.0</ele><time>2026-04-04T12:36:15.851Z</time></trkpt><trkpt lat="44.118189" lon="11.3418124"><ele>586.6666666666667</ele><time>2026-04-04T12:36:16.852Z</time></trkpt><trkpt lat="44.1183082" lon="11.3416725"><ele>587.3333333333334</ele><time>2026-04-04T12:36:17.852Z</time></trkpt><trkpt lat="44.1184186" lon="11.3415145"><ele>588.0</ele><time>2026-04-04T12:36:18.852Z</time></trkpt><trkpt lat="44.1185308" lon="11.3413274"><ele>588.0</ele><time>2026-04-04T12:36:19.851Z</time></trkpt><trkpt lat="44.1186497" lon="11.3411187"><ele>588.0</ele><time>2026-04-04T12:36:20.851Z</time></trkpt><trkpt lat="44.1187753" lon="11.3409027"><ele>588.0</ele><time>2026-04-04T12:36:21.852Z</time></trkpt><trkpt lat="44.1188994" lon="11.3406949"><ele>586.0</ele><time>2026-04-04T12:36:22.852Z</time></trkpt><trkpt lat="44.1190207" lon="11.3405016"><ele>584.0</ele><time>2026-04-04T12:36:23.852Z</time></trkpt><trkpt lat="44.1191361" lon="11.3403217"><ele>582.0</ele><time>2026-04-04T12:36:24.851Z</time></trkpt><trkpt lat="44.1192396" lon="11.3401609"><ele>582.0</ele><time>2026-04-04T12:36:25.852Z</time></trkpt><trkpt lat="44.1193382" lon="11.3400362"><ele>582.0</ele><time>2026-04-04T12:36:26.852Z</time></trkpt><trkpt lat="44.1194562" lon="11.339969"><ele>582.0</ele><time>2026-04-04T12:36:27.851Z</time></trkpt><trkpt lat="44.1195993" lon="11.3399327"><ele>582.0</ele><time>2026-04-04T12:36:28.851Z</time></trkpt><trkpt lat="44.1197577" lon="11.3399267"><ele>580.6666666666666</ele><time>2026-04-04T12:36:29.851Z</time></trkpt><trkpt lat="44.1199306" lon="11.3399301"><ele>579.3333333333333</ele><time>2026-04-04T12:36:30.852Z</time></trkpt><trkpt lat="44.1201209" lon="11.3399383"><ele>578.0</ele><time>2026-04-04T12:36:31.851Z</time></trkpt><trkpt lat="44.120333" lon="11.3399385"><ele>578.0</ele><time>2026-04-04T12:36:32.851Z</time></trkpt><trkpt lat="44.1205694" lon="11.3399224"><ele>578.0</ele><time>2026-04-04T12:36:33.85Z</time></trkpt><trkpt lat="44.1208191" lon="11.3398778"><ele>577.5</ele><time>2026-04-04T12:36:34.851Z</time></trkpt><trkpt lat="44.121068" lon="11.3398055"><ele>577.0</ele><time>2026-04-04T12:36:35.852Z</time></trkpt><trkpt lat="44.1213018" lon="11.3397263"><ele>576.3333333333334</ele><time>2026-04-04T12:36:36.852Z</time></trkpt><trkpt lat="44.1215223" lon="11.3396428"><ele>575.6666666666666</ele><time>2026-04-04T12:36:37.851Z</time></trkpt><trkpt lat="44.1217291" lon="11.3395468"><ele>575.0</ele><time>2026-04-04T12:36:38.852Z</time></trkpt><trkpt lat="44.1219222" lon="11.3394164"><ele>575.0</ele><time>2026-04-04T12:36:39.851Z</time></trkpt><trkpt lat="44.1221157" lon="11.3392561"><ele>575.0</ele><time>2026-04-04T12:36:40.851Z</time></trkpt><trkpt lat="44.1223227" lon="11.3391139"><ele>576.3333333333333</ele><time>2026-04-04T12:36:41.851Z</time></trkpt><trkpt lat="44.1225222" lon="11.339024"><ele>577.6666666666666</ele><time>2026-04-04T12:36:42.852Z</time></trkpt><trkpt lat="44.1227165" lon="11.3389773"><ele>579.0</ele><time>2026-04-04T12:36:43.852Z</time></trkpt><trkpt lat="44.122916" lon="11.3389726"><ele>579.0</ele><time>2026-04-04T12:36:44.852Z</time></trkpt><trkpt lat="44.1231079" lon="11.3390012"><ele>579.0</ele><time>2026-04-04T12:36:45.851Z</time></trkpt><trkpt lat="44.1232809" lon="11.3390363"><ele>579.0</ele><time>2026-04-04T12:36:46.851Z</time></trkpt><trkpt lat="44.1234483" lon="11.3390286"><ele>582.0</ele><time>2026-04-04T12:36:47.852Z</time></trkpt><trkpt lat="44.1236233" lon="11.3389647"><ele>585.0</ele><time>2026-04-04T12:36:48.852Z</time></trkpt><trkpt lat="44.1237979" lon="11.3388692"><ele>588.0</ele><time>2026-04-04T12:36:49.852Z</time></trkpt><trkpt lat="44.1239791" lon="11.3387742"><ele>592.6666666666666</ele><time>2026-04-04T12:36:50.852Z</time></trkpt><trkpt lat="44.1241517" lon="11.3386754"><ele>597.3333333333333</ele><time>2026-04-04T12:36:51.851Z</time></trkpt><trkpt lat="44.1243062" lon="11.3385453"><ele>602.0</ele><time>2026-04-04T12:36:52.851Z</time></trkpt><trkpt lat="44.1244442" lon="11.33837"><ele>602.0</ele><time>2026-04-04T12:36:53.852Z</time></trkpt><trkpt lat="44.1245625" lon="11.3381698"><ele>602.0</ele><time>2026-04-04T12:36:54.851Z</time></trkpt><trkpt lat="44.1246801" lon="11.3379841"><ele>602.0</ele><time>2026-04-04T12:36:55.852Z</time></trkpt><trkpt lat="44.1248085" lon="11.3378494"><ele>604.3333333333333</ele><time>2026-04-04T12:36:56.851Z</time></trkpt><trkpt lat="44.1249537" lon="11.3377703"><ele>606.6666666666666</ele><time>2026-04-04T12:36:57.852Z</time></trkpt><trkpt lat="44.1251202" lon="11.3377394"><ele>609.0</ele><time>2026-04-04T12:36:58.852Z</time></trkpt><trkpt lat="44.1252958" lon="11.3377473"><ele>609.0</ele><time>2026-04-04T12:36:59.851Z</time></trkpt><trkpt lat="44.1254812" lon="11.3377627"><ele>609.0</ele><time>2026-04-04T12:37:00.851Z</time></trkpt><trkpt lat="44.1256742" lon="11.3377748"><ele>609.0</ele><time>2026-04-04T12:37:01.851Z</time></trkpt><trkpt lat="44.1258751" lon="11.3377878"><ele>611.6666666666666</ele><time>2026-04-04T12:37:02.85Z</time></trkpt><trkpt lat="44.1260828" lon="11.3378027"><ele>614.3333333333333</ele><time>2026-04-04T12:37:03.851Z</time></trkpt><trkpt lat="44.1262797" lon="11.3378192"><ele>617.0</ele><time>2026-04-04T12:37:04.851Z</time></trkpt><trkpt lat="44.126459" lon="11.3378271"><ele>619.3333333333333</ele><time>2026-04-04T12:37:05.851Z</time></trkpt><trkpt lat="44.1266201" lon="11.3378218"><ele>621.6666666666666</ele><time>2026-04-04T12:37:06.85Z</time></trkpt><trkpt lat="44.126772" lon="11.3377785"><ele>624.0</ele><time>2026-04-04T12:37:07.852Z</time></trkpt><trkpt lat="44.1269154" lon="11.3376701"><ele>624.0</ele><time>2026-04-04T12:37:08.852Z</time></trkpt><trkpt lat="44.1270531" lon="11.3375277"><ele>624.0</ele><time>2026-04-04T12:37:09.852Z</time></trkpt><trkpt lat="44.1271835" lon="11.3374209"><ele>624.0</ele><time>2026-04-04T12:37:10.852Z</time></trkpt><trkpt lat="44.1273214" lon="11.3373685"><ele>624.6666666666666</ele><time>2026-04-04T12:37:11.851Z</time></trkpt><trkpt lat="44.1274727" lon="11.3373598"><ele>625.3333333333333</ele><time>2026-04-04T12:37:12.851Z</time></trkpt><trkpt lat="44.1276382" lon="11.3374003"><ele>626.0</ele><time>2026-04-04T12:37:13.851Z</time></trkpt><trkpt lat="44.1278087" lon="11.3374857"><ele>626.0</ele><time>2026-04-04T12:37:14.851Z</time></trkpt><trkpt lat="44.1279653" lon="11.3375764"><ele>626.0</ele><time>2026-04-04T12:37:15.851Z</time></trkpt><trkpt lat="44.1281027" lon="11.337635"><ele>626.0</ele><time>2026-04-04T12:37:16.851Z</time></trkpt><trkpt lat="44.1282268" lon="11.33763"><ele>626.0</ele><time>2026-04-04T12:37:17.852Z</time></trkpt><trkpt lat="44.1283347" lon="11.3375613"><ele>628.25</ele><time>2026-04-04T12:37:18.851Z</time></trkpt><trkpt lat="44.1284293" lon="11.3374306"><ele>630.5</ele><time>2026-04-04T12:37:19.852Z</time></trkpt><trkpt lat="44.1285126" lon="11.3372611"><ele>632.75</ele><time>2026-04-04T12:37:20.851Z</time></trkpt><trkpt lat="44.1286142" lon="11.3370927"><ele>635.0</ele><time>2026-04-04T12:37:21.852Z</time></trkpt><trkpt lat="44.1287396" lon="11.3369327"><ele>635.0</ele><time>2026-04-04T12:37:22.851Z</time></trkpt><trkpt lat="44.1288531" lon="11.3367998"><ele>635.0</ele><time>2026-04-04T12:37:23.852Z</time></trkpt><trkpt lat="44.1289539" lon="11.3366892"><ele>635.0</ele><time>2026-04-04T12:37:24.852Z</time></trkpt><trkpt lat="44.129057" lon="11.3366355"><ele>635.0</ele><time>2026-04-04T12:37:25.851Z</time></trkpt><trkpt lat="44.1291801" lon="11.3366259"><ele>639.0</ele><time>2026-04-04T12:37:26.852Z</time></trkpt><trkpt lat="44.1293036" lon="11.3366454"><ele>643.0</ele><time>2026-04-04T12:37:27.852Z</time></trkpt><trkpt lat="44.12943" lon="11.3366185"><ele>647.0</ele><time>2026-04-04T12:37:28.852Z</time></trkpt><trkpt lat="44.1295501" lon="11.3365313"><ele>651.0</ele><time>2026-04-04T12:37:29.852Z</time></trkpt><trkpt lat="44.1296735" lon="11.3364356"><ele>648.0</ele><time>2026-04-04T12:37:30.851Z</time></trkpt><trkpt lat="44.1298262" lon="11.3363853"><ele>645.0</ele><time>2026-04-04T12:37:31.851Z</time></trkpt><trkpt lat="44.1299994" lon="11.3363609"><ele>642.0</ele><time>2026-04-04T12:37:32.851Z</time></trkpt><trkpt lat="44.1301494" lon="11.3363485"><ele>646.5</ele><time>2026-04-04T12:37:33.852Z</time></trkpt><trkpt lat="44.1302728" lon="11.3362938"><ele>651.0</ele><time>2026-04-04T12:37:34.852Z</time></trkpt><trkpt lat="44.1303681" lon="11.3361872"><ele>655.5</ele><time>2026-04-04T12:37:35.851Z</time></trkpt><trkpt lat="44.1304389" lon="11.3360277"><ele>660.0</ele><time>2026-04-04T12:37:36.85Z</time></trkpt><trkpt lat="44.1304924" lon="11.3358315"><ele>660.0</ele><time>2026-04-04T12:37:37.851Z</time></trkpt><trkpt lat="44.1305392" lon="11.3356291"><ele>660.0</ele><time>2026-04-04T12:37:38.851Z</time></trkpt><trkpt lat="44.1305943" lon="11.3354415"><ele>660.0</ele><time>2026-04-04T12:37:39.852Z</time></trkpt><trkpt lat="44.1306743" lon="11.3352768"><ele>660.0</ele><time>2026-04-04T12:37:40.852Z</time></trkpt><trkpt lat="44.1307855" lon="11.3351399"><ele>662.5</ele><time>2026-04-04T12:37:41.851Z</time></trkpt><trkpt lat="44.1309237" lon="11.3350411"><ele>665.0</ele><time>2026-04-04T12:37:42.851Z</time></trkpt><trkpt lat="44.1310562" lon="11.3349493"><ele>667.5</ele><time>2026-04-04T12:37:43.851Z</time></trkpt><trkpt lat="44.1311616" lon="11.3348209"><ele>670.0</ele><time>2026-04-04T12:37:44.851Z</time></trkpt><trkpt lat="44.1312302" lon="11.334669"><ele>670.8</ele><time>2026-04-04T12:37:45.851Z</time></trkpt><trkpt lat="44.1312738" lon="11.3345143"><ele>671.6</ele><time>2026-04-04T12:37:46.852Z</time></trkpt><trkpt lat="44.1313366" lon="11.3344031"><ele>672.4000000000001</ele><time>2026-04-04T12:37:47.85Z</time></trkpt><trkpt lat="44.1314278" lon="11.3343323"><ele>673.2</ele><time>2026-04-04T12:37:48.851Z</time></trkpt><trkpt lat="44.1315406" lon="11.3343144"><ele>674.0</ele><time>2026-04-04T12:37:49.852Z</time></trkpt><trkpt lat="44.131671" lon="11.3343309"><ele>678.0</ele><time>2026-04-04T12:37:50.851Z</time></trkpt><trkpt lat="44.1318185" lon="11.3343588"><ele>682.0</ele><time>2026-04-04T12:37:51.85Z</time></trkpt><trkpt lat="44.1319739" lon="11.334379"><ele>686.0</ele><time>2026-04-04T12:37:52.852Z</time></trkpt><trkpt lat="44.1321331" lon="11.3343735"><ele>686.0</ele><time>2026-04-04T12:37:53.852Z</time></trkpt><trkpt lat="44.1322997" lon="11.3343315"><ele>686.0</ele><time>2026-04-04T12:37:54.851Z</time></trkpt><trkpt lat="44.1324759" lon="11.3342608"><ele>686.0</ele><time>2026-04-04T12:37:55.85Z</time></trkpt><trkpt lat="44.132654" lon="11.3341763"><ele>689.5</ele><time>2026-04-04T12:37:56.852Z</time></trkpt><trkpt lat="44.1328068" lon="11.3341138"><ele>693.0</ele><time>2026-04-04T12:37:57.852Z</time></trkpt><trkpt lat="44.1329414" lon="11.3340821"><ele>696.5</ele><time>2026-04-04T12:37:58.852Z</time></trkpt><trkpt lat="44.133051" lon="11.3340436"><ele>700.0</ele><time>2026-04-04T12:37:59.851Z</time></trkpt><trkpt lat="44.133125" lon="11.3339703"><ele>700.4</ele><time>2026-04-04T12:38:00.85Z</time></trkpt><trkpt lat="44.1331547" lon="11.3338602"><ele>700.8</ele><time>2026-04-04T12:38:01.85Z</time></trkpt><trkpt lat="44.1331367" lon="11.3337225"><ele>701.2</ele><time>2026-04-04T12:38:02.85Z</time></trkpt><trkpt lat="44.1330838" lon="11.333577"><ele>701.6</ele><time>2026-04-04T12:38:03.851Z</time></trkpt><trkpt lat="44.1330396" lon="11.3334508"><ele>702.0</ele><time>2026-04-04T12:38:04.851Z</time></trkpt><trkpt lat="44.1330345" lon="11.3333419"><ele>702.0</ele><time>2026-04-04T12:38:05.85Z</time></trkpt><trkpt lat="44.1331374" lon="11.3332398"><ele>702.0</ele><time>2026-04-04T12:38:07.85Z</time></trkpt><trkpt lat="44.1332414" lon="11.3332204"><ele>702.0</ele><time>2026-04-04T12:38:08.85Z</time></trkpt><trkpt lat="44.1333692" lon="11.3331665"><ele>702.0</ele><time>2026-04-04T12:38:09.85Z</time></trkpt><trkpt lat="44.1335125" lon="11.3330859"><ele>705.5</ele><time>2026-04-04T12:38:10.85Z</time></trkpt><trkpt lat="44.1336627" lon="11.3329864"><ele>709.0</ele><time>2026-04-04T12:38:11.851Z</time></trkpt><trkpt lat="44.1337974" lon="11.3329077"><ele>712.5</ele><time>2026-04-04T12:38:12.851Z</time></trkpt><trkpt lat="44.1339213" lon="11.3328452"><ele>716.0</ele><time>2026-04-04T12:38:13.85Z</time></trkpt><trkpt lat="44.1340374" lon="11.3327985"><ele>719.0</ele><time>2026-04-04T12:38:14.849Z</time></trkpt><trkpt lat="44.1341448" lon="11.332755"><ele>722.0</ele><time>2026-04-04T12:38:15.851Z</time></trkpt><trkpt lat="44.1342525" lon="11.3327102"><ele>725.0</ele><time>2026-04-04T12:38:16.851Z</time></trkpt><trkpt lat="44.1343567" lon="11.3326628"><ele>728.0</ele><time>2026-04-04T12:38:17.851Z</time></trkpt><trkpt lat="44.1344578" lon="11.3326211"><ele>731.0</ele><time>2026-04-04T12:38:18.851Z</time></trkpt><trkpt lat="44.134548" lon="11.3325876"><ele>731.0</ele><time>2026-04-04T12:38:19.851Z</time></trkpt><trkpt lat="44.1346198" lon="11.3325546"><ele>731.0</ele><time>2026-04-04T12:38:20.85Z</time></trkpt><trkpt lat="44.1346807" lon="11.3325012"><ele>731.0</ele><time>2026-04-04T12:38:21.849Z</time></trkpt><trkpt lat="44.1347353" lon="11.3324162"><ele>731.0</ele><time>2026-04-04T12:38:22.851Z</time></trkpt><trkpt lat="44.1347858" lon="11.3322992"><ele>731.0</ele><time>2026-04-04T12:38:23.851Z</time></trkpt><trkpt lat="44.1348394" lon="11.3321695"><ele>731.0</ele><time>2026-04-04T12:38:24.85Z</time></trkpt><trkpt lat="44.1349059" lon="11.3320208"><ele>732.6666666666666</ele><time>2026-04-04T12:38:25.85Z</time></trkpt><trkpt lat="44.1349831" lon="11.3318465"><ele>734.3333333333334</ele><time>2026-04-04T12:38:26.851Z</time></trkpt><trkpt lat="44.1350664" lon="11.3316514"><ele>736.0</ele><time>2026-04-04T12:38:27.85Z</time></trkpt><trkpt lat="44.1351385" lon="11.3314459"><ele>736.3333333333334</ele><time>2026-04-04T12:38:28.85Z</time></trkpt><trkpt lat="44.135195" lon="11.3312236"><ele>736.6666666666666</ele><time>2026-04-04T12:38:29.851Z</time></trkpt><trkpt lat="44.1352308" lon="11.3309926"><ele>737.0</ele><time>2026-04-04T12:38:30.851Z</time></trkpt><trkpt lat="44.1352565" lon="11.3307594"><ele>737.6666666666666</ele><time>2026-04-04T12:38:31.85Z</time></trkpt><trkpt lat="44.1352899" lon="11.3305343"><ele>738.3333333333334</ele><time>2026-04-04T12:38:32.851Z</time></trkpt><trkpt lat="44.1353429" lon="11.3303171"><ele>739.0</ele><time>2026-04-04T12:38:33.85Z</time></trkpt><trkpt lat="44.1354023" lon="11.3301044"><ele>739.0</ele><time>2026-04-04T12:38:34.851Z</time></trkpt><trkpt lat="44.1354758" lon="11.3298986"><ele>739.0</ele><time>2026-04-04T12:38:35.85Z</time></trkpt><trkpt lat="44.1355714" lon="11.3296934"><ele>739.0</ele><time>2026-04-04T12:38:36.849Z</time></trkpt><trkpt lat="44.1356903" lon="11.3294907"><ele>742.6666666666667</ele><time>2026-04-04T12:38:37.85Z</time></trkpt><trkpt lat="44.1358268" lon="11.3292759"><ele>746.3333333333334</ele><time>2026-04-04T12:38:38.851Z</time></trkpt><trkpt lat="44.1359648" lon="11.3290513"><ele>750.0</ele><time>2026-04-04T12:38:39.851Z</time></trkpt><trkpt lat="44.1360857" lon="11.3288432"><ele>750.0</ele><time>2026-04-04T12:38:40.851Z</time></trkpt><trkpt lat="44.1361947" lon="11.3286456"><ele>750.0</ele><time>2026-04-04T12:38:41.851Z</time></trkpt><trkpt lat="44.1362885" lon="11.3284548"><ele>750.0</ele><time>2026-04-04T12:38:42.851Z</time></trkpt><trkpt lat="44.1363609" lon="11.3282583"><ele>749.6666666666666</ele><time>2026-04-04T12:38:43.85Z</time></trkpt><trkpt lat="44.1364084" lon="11.3280393"><ele>749.3333333333333</ele><time>2026-04-04T12:38:44.851Z</time></trkpt><trkpt lat="44.1364268" lon="11.3277975"><ele>749.0</ele><time>2026-04-04T12:38:45.851Z</time></trkpt><trkpt lat="44.1364159" lon="11.3275418"><ele>749.0</ele><time>2026-04-04T12:38:46.851Z</time></trkpt><trkpt lat="44.1364002" lon="11.3272732"><ele>749.0</ele><time>2026-04-04T12:38:47.851Z</time></trkpt><trkpt lat="44.1364041" lon="11.3269911"><ele>749.0</ele><time>2026-04-04T12:38:48.851Z</time></trkpt><trkpt lat="44.1364214" lon="11.3267138"><ele>750.3333333333333</ele><time>2026-04-04T12:38:49.849Z</time></trkpt><trkpt lat="44.1364303" lon="11.3264553"><ele>751.6666666666666</ele><time>2026-04-04T12:38:50.85Z</time></trkpt><trkpt lat="44.1364373" lon="11.32622"><ele>753.0</ele><time>2026-04-04T12:38:51.85Z</time></trkpt><trkpt lat="44.1364669" lon="11.3260085"><ele>754.6666666666666</ele><time>2026-04-04T12:38:52.851Z</time></trkpt><trkpt lat="44.1365327" lon="11.3258181"><ele>756.3333333333333</ele><time>2026-04-04T12:38:53.85Z</time></trkpt><trkpt lat="44.136632" lon="11.3256441"><ele>758.0</ele><time>2026-04-04T12:38:54.849Z</time></trkpt><trkpt lat="44.136739" lon="11.3254854"><ele>761.5</ele><time>2026-04-04T12:38:55.851Z</time></trkpt><trkpt lat="44.1368091" lon="11.3253136"><ele>765.0</ele><time>2026-04-04T12:38:56.851Z</time></trkpt><trkpt lat="44.1368442" lon="11.3251112"><ele>768.5</ele><time>2026-04-04T12:38:57.85Z</time></trkpt><trkpt lat="44.1368339" lon="11.3248945"><ele>772.0</ele><time>2026-04-04T12:38:58.849Z</time></trkpt><trkpt lat="44.1367797" lon="11.3246763"><ele>773.6666666666666</ele><time>2026-04-04T12:38:59.849Z</time></trkpt><trkpt lat="44.136733" lon="11.3244369"><ele>775.3333333333333</ele><time>2026-04-04T12:39:00.849Z</time></trkpt><trkpt lat="44.1367179" lon="11.324187"><ele>777.0</ele><time>2026-04-04T12:39:01.851Z</time></trkpt><trkpt lat="44.136721" lon="11.3239514"><ele>777.5</ele><time>2026-04-04T12:39:02.85Z</time></trkpt><trkpt lat="44.1367559" lon="11.3237496"><ele>778.0</ele><time>2026-04-04T12:39:03.851Z</time></trkpt><trkpt lat="44.1368213" lon="11.3235863"><ele>778.5</ele><time>2026-04-04T12:39:04.85Z</time></trkpt><trkpt lat="44.1369191" lon="11.3234595"><ele>779.0</ele><time>2026-04-04T12:39:05.851Z</time></trkpt><trkpt lat="44.1370427" lon="11.3233586"><ele>779.0</ele><time>2026-04-04T12:39:06.85Z</time></trkpt><trkpt lat="44.1371781" lon="11.3232616"><ele>779.0</ele><time>2026-04-04T12:39:07.849Z</time></trkpt><trkpt lat="44.1373218" lon="11.3231604"><ele>779.0</ele><time>2026-04-04T12:39:08.849Z</time></trkpt><trkpt lat="44.1374794" lon="11.3230716"><ele>782.6666666666667</ele><time>2026-04-04T12:39:09.851Z</time></trkpt><trkpt lat="44.1376469" lon="11.3229881"><ele>786.3333333333333</ele><time>2026-04-04T12:39:10.851Z</time></trkpt><trkpt lat="44.1378157" lon="11.3229022"><ele>790.0</ele><time>2026-04-04T12:39:11.851Z</time></trkpt><trkpt lat="44.1379808" lon="11.3228169"><ele>790.0</ele><time>2026-04-04T12:39:12.85Z</time></trkpt><trkpt lat="44.1381306" lon="11.3227305"><ele>790.0</ele><time>2026-04-04T12:39:13.849Z</time></trkpt><trkpt lat="44.1382627" lon="11.3226217"><ele>790.0</ele><time>2026-04-04T12:39:14.851Z</time></trkpt><trkpt lat="44.138371" lon="11.3224771"><ele>794.3333333333333</ele><time>2026-04-04T12:39:15.851Z</time></trkpt><trkpt lat="44.1384533" lon="11.3222975"><ele>798.6666666666667</ele><time>2026-04-04T12:39:16.851Z</time></trkpt><trkpt lat="44.1385009" lon="11.322093"><ele>803.0</ele><time>2026-04-04T12:39:17.85Z</time></trkpt><trkpt lat="44.1385081" lon="11.3218609"><ele>803.3333333333334</ele><time>2026-04-04T12:39:18.851Z</time></trkpt><trkpt lat="44.1384818" lon="11.3216218"><ele>803.6666666666667</ele><time>2026-04-04T12:39:19.85Z</time></trkpt><trkpt lat="44.1384185" lon="11.321382"><ele>804.0</ele><time>2026-04-04T12:39:20.85Z</time></trkpt><trkpt lat="44.138323" lon="11.3211486"><ele>805.3333333333333</ele><time>2026-04-04T12:39:21.851Z</time></trkpt><trkpt lat="44.1382114" lon="11.3209418"><ele>806.6666666666666</ele><time>2026-04-04T12:39:22.85Z</time></trkpt><trkpt lat="44.1380899" lon="11.3207741"><ele>808.0</ele><time>2026-04-04T12:39:23.85Z</time></trkpt><trkpt lat="44.1379542" lon="11.320652"><ele>808.0</ele><time>2026-04-04T12:39:24.85Z</time></trkpt><trkpt lat="44.1378172" lon="11.3205721"><ele>808.0</ele><time>2026-04-04T12:39:25.85Z</time></trkpt><trkpt lat="44.1377051" lon="11.3205051"><ele>808.0</ele><time>2026-04-04T12:39:26.85Z</time></trkpt><trkpt lat="44.1376442" lon="11.3204466"><ele>808.0</ele><time>2026-04-04T12:39:27.851Z</time></trkpt><trkpt lat="44.1376409" lon="11.3202948"><ele>808.5999999999999</ele><time>2026-04-04T12:39:29.851Z</time></trkpt><trkpt lat="44.1377035" lon="11.3202451"><ele>809.1999999999999</ele><time>2026-04-04T12:39:30.85Z</time></trkpt><trkpt lat="44.1377973" lon="11.3202292"><ele>809.8</ele><time>2026-04-04T12:39:31.85Z</time></trkpt><trkpt lat="44.1379138" lon="11.32023"><ele>810.4</ele><time>2026-04-04T12:39:32.85Z</time></trkpt><trkpt lat="44.1380533" lon="11.3202309"><ele>811.0</ele><time>2026-04-04T12:39:33.851Z</time></trkpt><trkpt lat="44.1382059" lon="11.3202339"><ele>813.4</ele><time>2026-04-04T12:39:34.85Z</time></trkpt><trkpt lat="44.138338" lon="11.320238"><ele>815.8</ele><time>2026-04-04T12:39:35.851Z</time></trkpt><trkpt lat="44.1384538" lon="11.3202372"><ele>818.1999999999999</ele><time>2026-04-04T12:39:36.85Z</time></trkpt><trkpt lat="44.1385494" lon="11.3202448"><ele>820.5999999999999</ele><time>2026-04-04T12:39:37.849Z</time></trkpt><trkpt lat="44.138627" lon="11.3202697"><ele>823.0</ele><time>2026-04-04T12:39:38.85Z</time></trkpt><trkpt lat="44.1387449" lon="11.3203752"><ele>823.0</ele><time>2026-04-04T12:39:40.851Z</time></trkpt><trkpt lat="44.1388258" lon="11.3204644"><ele>823.0</ele><time>2026-04-04T12:39:41.85Z</time></trkpt><trkpt lat="44.1389287" lon="11.3205669"><ele>823.0</ele><time>2026-04-04T12:39:42.85Z</time></trkpt><trkpt lat="44.139064" lon="11.3206628"><ele>823.0</ele><time>2026-04-04T12:39:43.85Z</time></trkpt><trkpt lat="44.1392193" lon="11.3207796"><ele>824.75</ele><time>2026-04-04T12:39:44.851Z</time></trkpt><trkpt lat="44.1393509" lon="11.3209242"><ele>826.5</ele><time>2026-04-04T12:39:45.85Z</time></trkpt><trkpt lat="44.1394549" lon="11.3210663"><ele>828.25</ele><time>2026-04-04T12:39:46.85Z</time></trkpt><trkpt lat="44.1395453" lon="11.3212016"><ele>830.0</ele><time>2026-04-04T12:39:47.851Z</time></trkpt><trkpt lat="44.1396365" lon="11.3213309"><ele>832.0</ele><time>2026-04-04T12:39:48.849Z</time></trkpt><trkpt lat="44.1397302" lon="11.3214509"><ele>834.0</ele><time>2026-04-04T12:39:49.851Z</time></trkpt><trkpt lat="44.1398337" lon="11.321557"><ele>836.0</ele><time>2026-04-04T12:39:50.851Z</time></trkpt><trkpt lat="44.1399496" lon="11.3216321"><ele>838.0</ele><time>2026-04-04T12:39:51.85Z</time></trkpt><trkpt lat="44.1400719" lon="11.3216727"><ele>838.0</ele><time>2026-04-04T12:39:52.85Z</time></trkpt><trkpt lat="44.1401914" lon="11.3216918"><ele>838.0</ele><time>2026-04-04T12:39:53.851Z</time></trkpt><trkpt lat="44.1403085" lon="11.3217152"><ele>838.0</ele><time>2026-04-04T12:39:54.849Z</time></trkpt><trkpt lat="44.1404185" lon="11.3217515"><ele>838.0</ele><time>2026-04-04T12:39:55.85Z</time></trkpt><trkpt lat="44.1405168" lon="11.3218165"><ele>838.0</ele><time>2026-04-04T12:39:56.85Z</time></trkpt><trkpt lat="44.140597" lon="11.3219267"><ele>838.0</ele><time>2026-04-04T12:39:57.851Z</time></trkpt><trkpt lat="44.1406709" lon="11.3220814"><ele>838.0</ele><time>2026-04-04T12:39:58.85Z</time></trkpt><trkpt lat="44.1407499" lon="11.3222654"><ele>838.0</ele><time>2026-04-04T12:39:59.85Z</time></trkpt><trkpt lat="44.1408313" lon="11.3224821"><ele>839.0</ele><time>2026-04-04T12:40:00.85Z</time></trkpt><trkpt lat="44.1409167" lon="11.3227248"><ele>840.0</ele><time>2026-04-04T12:40:01.85Z</time></trkpt><trkpt lat="44.1410062" lon="11.3229895"><ele>841.0</ele><time>2026-04-04T12:40:02.849Z</time></trkpt><trkpt lat="44.1410944" lon="11.3232391"><ele>841.0</ele><time>2026-04-04T12:40:03.851Z</time></trkpt><trkpt lat="44.141178" lon="11.3234717"><ele>841.0</ele><time>2026-04-04T12:40:04.851Z</time></trkpt><trkpt lat="44.1412329" lon="11.3237078"><ele>841.0</ele><time>2026-04-04T12:40:05.85Z</time></trkpt><trkpt lat="44.1412497" lon="11.3239633"><ele>841.0</ele><time>2026-04-04T12:40:06.85Z</time></trkpt><trkpt lat="44.1412363" lon="11.3242285"><ele>841.0</ele><time>2026-04-04T12:40:07.85Z</time></trkpt><trkpt lat="44.1411992" lon="11.324504"><ele>841.0</ele><time>2026-04-04T12:40:08.85Z</time></trkpt><trkpt lat="44.1411529" lon="11.324761"><ele>842.0</ele><time>2026-04-04T12:40:09.85Z</time></trkpt><trkpt lat="44.1411047" lon="11.3249977"><ele>843.0</ele><time>2026-04-04T12:40:10.851Z</time></trkpt><trkpt lat="44.1410536" lon="11.3252061"><ele>844.0</ele><time>2026-04-04T12:40:11.85Z</time></trkpt><trkpt lat="44.1410284" lon="11.3253971"><ele>844.6666666666666</ele><time>2026-04-04T12:40:12.851Z</time></trkpt><trkpt lat="44.1410562" lon="11.3255933"><ele>845.3333333333333</ele><time>2026-04-04T12:40:13.851Z</time></trkpt><trkpt lat="44.141116" lon="11.325801"><ele>846.0</ele><time>2026-04-04T12:40:14.851Z</time></trkpt><trkpt lat="44.141189" lon="11.3260029"><ele>846.0</ele><time>2026-04-04T12:40:15.85Z</time></trkpt><trkpt lat="44.1412485" lon="11.3261985"><ele>846.0</ele><time>2026-04-04T12:40:16.85Z</time></trkpt><trkpt lat="44.141295" lon="11.3263793"><ele>846.0</ele><time>2026-04-04T12:40:17.85Z</time></trkpt><trkpt lat="44.1413067" lon="11.3265495"><ele>846.0</ele><time>2026-04-04T12:40:18.85Z</time></trkpt><trkpt lat="44.1412899" lon="11.3267059"><ele>846.0</ele><time>2026-04-04T12:40:19.851Z</time></trkpt><trkpt lat="44.1412477" lon="11.326846"><ele>846.0</ele><time>2026-04-04T12:40:20.851Z</time></trkpt><trkpt lat="44.1411727" lon="11.3269675"><ele>846.0</ele><time>2026-04-04T12:40:21.85Z</time></trkpt><trkpt lat="44.1410683" lon="11.327075"><ele>846.0</ele><time>2026-04-04T12:40:22.85Z</time></trkpt><trkpt lat="44.1409369" lon="11.3271789"><ele>845.3333333333333</ele><time>2026-04-04T12:40:23.851Z</time></trkpt><trkpt lat="44.1407973" lon="11.3273009"><ele>844.6666666666666</ele><time>2026-04-04T12:40:24.851Z</time></trkpt><trkpt lat="44.1406732" lon="11.3274161"><ele>844.0</ele><time>2026-04-04T12:40:25.851Z</time></trkpt><trkpt lat="44.140571" lon="11.327542"><ele>844.0</ele><time>2026-04-04T12:40:26.851Z</time></trkpt><trkpt lat="44.1405046" lon="11.3276877"><ele>844.0</ele><time>2026-04-04T12:40:27.849Z</time></trkpt><trkpt lat="44.1404784" lon="11.3278626"><ele>844.0</ele><time>2026-04-04T12:40:28.85Z</time></trkpt><trkpt lat="44.1404886" lon="11.3280529"><ele>844.0</ele><time>2026-04-04T12:40:29.851Z</time></trkpt><trkpt lat="44.1405177" lon="11.3282317"><ele>844.0</ele><time>2026-04-04T12:40:30.85Z</time></trkpt><trkpt lat="44.1405556" lon="11.328384"><ele>844.0</ele><time>2026-04-04T12:40:31.85Z</time></trkpt><trkpt lat="44.1406187" lon="11.3285006"><ele>844.0</ele><time>2026-04-04T12:40:32.851Z</time></trkpt><trkpt lat="44.1407105" lon="11.3285755"><ele>844.0</ele><time>2026-04-04T12:40:33.85Z</time></trkpt><trkpt lat="44.1408188" lon="11.328594"><ele>844.0</ele><time>2026-04-04T12:40:34.85Z</time></trkpt><trkpt lat="44.1409381" lon="11.328552"><ele>849.0</ele><time>2026-04-04T12:40:35.85Z</time></trkpt><trkpt lat="44.141063" lon="11.3284625"><ele>854.0</ele><time>2026-04-04T12:40:36.85Z</time></trkpt><trkpt lat="44.1411959" lon="11.328351"><ele>859.0</ele><time>2026-04-04T12:40:37.85Z</time></trkpt><trkpt lat="44.1413454" lon="11.3282316"><ele>859.0</ele><time>2026-04-04T12:40:38.85Z</time></trkpt><trkpt lat="44.1415112" lon="11.3280951"><ele>859.0</ele><time>2026-04-04T12:40:39.849Z</time></trkpt><trkpt lat="44.1416902" lon="11.3279442"><ele>859.0</ele><time>2026-04-04T12:40:40.85Z</time></trkpt><trkpt lat="44.141886" lon="11.3277817"><ele>862.0</ele><time>2026-04-04T12:40:41.85Z</time></trkpt><trkpt lat="44.1420904" lon="11.3276147"><ele>865.0</ele><time>2026-04-04T12:40:42.85Z</time></trkpt><trkpt lat="44.1422949" lon="11.3274643"><ele>865.0</ele><time>2026-04-04T12:40:43.851Z</time></trkpt><trkpt lat="44.1425076" lon="11.327342"><ele>865.0</ele><time>2026-04-04T12:40:44.851Z</time></trkpt><trkpt lat="44.1427315" lon="11.3272566"><ele>868.5</ele><time>2026-04-04T12:40:45.851Z</time></trkpt><trkpt lat="44.1429602" lon="11.3272032"><ele>872.0</ele><time>2026-04-04T12:40:46.851Z</time></trkpt><trkpt lat="44.143187" lon="11.3271779"><ele>870.0</ele><time>2026-04-04T12:40:47.851Z</time></trkpt><trkpt lat="44.1434067" lon="11.3271812"><ele>868.0</ele><time>2026-04-04T12:40:48.851Z</time></trkpt><trkpt lat="44.1436148" lon="11.3272149"><ele>866.0</ele><time>2026-04-04T12:40:49.85Z</time></trkpt><trkpt lat="44.143809" lon="11.327294"><ele>866.0</ele><time>2026-04-04T12:40:50.851Z</time></trkpt><trkpt lat="44.1439948" lon="11.3273993"><ele>866.0</ele><time>2026-04-04T12:40:51.851Z</time></trkpt><trkpt lat="44.1441643" lon="11.3274869"><ele>866.0</ele><time>2026-04-04T12:40:52.851Z</time></trkpt><trkpt lat="44.1443243" lon="11.3275433"><ele>867.25</ele><time>2026-04-04T12:40:53.851Z</time></trkpt><trkpt lat="44.1444535" lon="11.3275556"><ele>868.5</ele><time>2026-04-04T12:40:54.851Z</time></trkpt><trkpt lat="44.1445697" lon="11.3275201"><ele>869.75</ele><time>2026-04-04T12:40:55.851Z</time></trkpt><trkpt lat="44.1446694" lon="11.3274286"><ele>871.0</ele><time>2026-04-04T12:40:56.85Z</time></trkpt><trkpt lat="44.1447493" lon="11.3272791"><ele>873.5</ele><time>2026-04-04T12:40:57.85Z</time></trkpt><trkpt lat="44.1448199" lon="11.3271064"><ele>876.0</ele><time>2026-04-04T12:40:58.85Z</time></trkpt><trkpt lat="44.1449121" lon="11.3269453"><ele>878.5</ele><time>2026-04-04T12:40:59.85Z</time></trkpt><trkpt lat="44.1450342" lon="11.3268041"><ele>881.0</ele><time>2026-04-04T12:41:00.851Z</time></trkpt><trkpt lat="44.1451855" lon="11.3267016"><ele>881.0</ele><time>2026-04-04T12:41:01.85Z</time></trkpt><trkpt lat="44.1453604" lon="11.3266456"><ele>881.0</ele><time>2026-04-04T12:41:02.851Z</time></trkpt><trkpt lat="44.1455519" lon="11.3266267"><ele>881.0</ele><time>2026-04-04T12:41:03.851Z</time></trkpt><trkpt lat="44.1457504" lon="11.3266475"><ele>880.3333333333334</ele><time>2026-04-04T12:41:04.851Z</time></trkpt><trkpt lat="44.145955" lon="11.3267268"><ele>879.6666666666667</ele><time>2026-04-04T12:41:05.851Z</time></trkpt><trkpt lat="44.1461623" lon="11.3268532"><ele>879.0</ele><time>2026-04-04T12:41:06.85Z</time></trkpt><trkpt lat="44.1463554" lon="11.3269904"><ele>879.0</ele><time>2026-04-04T12:41:07.85Z</time></trkpt><trkpt lat="44.1465289" lon="11.3271043"><ele>879.0</ele><time>2026-04-04T12:41:08.85Z</time></trkpt><trkpt lat="44.1467038" lon="11.3271837"><ele>879.0</ele><time>2026-04-04T12:41:09.85Z</time></trkpt><trkpt lat="44.1468882" lon="11.3272137"><ele>883.0</ele><time>2026-04-04T12:41:10.85Z</time></trkpt><trkpt lat="44.1470608" lon="11.3271945"><ele>887.0</ele><time>2026-04-04T12:41:11.85Z</time></trkpt><trkpt lat="44.147227" lon="11.3271755"><ele>891.0</ele><time>2026-04-04T12:41:12.85Z</time></trkpt><trkpt lat="44.1473974" lon="11.3272004"><ele>889.3333333333333</ele><time>2026-04-04T12:41:13.851Z</time></trkpt><trkpt lat="44.1475742" lon="11.327266"><ele>887.6666666666666</ele><time>2026-04-04T12:41:14.85Z</time></trkpt><trkpt lat="44.1477392" lon="11.3273655"><ele>886.0</ele><time>2026-04-04T12:41:15.85Z</time></trkpt><trkpt lat="44.1478798" lon="11.3274584"><ele>886.0</ele><time>2026-04-04T12:41:16.851Z</time></trkpt><trkpt lat="44.1480185" lon="11.3275139"><ele>886.0</ele><time>2026-04-04T12:41:17.851Z</time></trkpt><trkpt lat="44.1481491" lon="11.3275074"><ele>886.0</ele><time>2026-04-04T12:41:18.849Z</time></trkpt><trkpt lat="44.1482813" lon="11.3274453"><ele>886.0</ele><time>2026-04-04T12:41:19.851Z</time></trkpt><trkpt lat="44.1484102" lon="11.3273228"><ele>892.3333333333333</ele><time>2026-04-04T12:41:20.847Z</time></trkpt><trkpt lat="44.1485431" lon="11.3271678"><ele>898.6666666666667</ele><time>2026-04-04T12:41:21.85Z</time></trkpt><trkpt lat="44.1486788" lon="11.3269865"><ele>905.0</ele><time>2026-04-04T12:41:22.85Z</time></trkpt><trkpt lat="44.1488098" lon="11.3267948"><ele>905.0</ele><time>2026-04-04T12:41:23.85Z</time></trkpt><trkpt lat="44.1489396" lon="11.3266054"><ele>905.0</ele><time>2026-04-04T12:41:24.85Z</time></trkpt><trkpt lat="44.1490716" lon="11.3264514"><ele>905.0</ele><time>2026-04-04T12:41:25.849Z</time></trkpt><trkpt lat="44.1491964" lon="11.3263153"><ele>905.75</ele><time>2026-04-04T12:41:26.848Z</time></trkpt><trkpt lat="44.1493112" lon="11.3261916"><ele>906.5</ele><time>2026-04-04T12:41:27.849Z</time></trkpt><trkpt lat="44.1494215" lon="11.3260816"><ele>907.25</ele><time>2026-04-04T12:41:28.85Z</time></trkpt><trkpt lat="44.1495269" lon="11.3259877"><ele>908.0</ele><time>2026-04-04T12:41:29.85Z</time></trkpt><trkpt lat="44.1496324" lon="11.3259268"><ele>908.0</ele><time>2026-04-04T12:41:30.85Z</time></trkpt><trkpt lat="44.1497397" lon="11.3258929"><ele>908.0</ele><time>2026-04-04T12:41:31.849Z</time></trkpt><trkpt lat="44.1498558" lon="11.3258812"><ele>908.0</ele><time>2026-04-04T12:41:32.848Z</time></trkpt><trkpt lat="44.1499948" lon="11.325883"><ele>908.0</ele><time>2026-04-04T12:41:33.85Z</time></trkpt><trkpt lat="44.150155" lon="11.32589"><ele>904.0</ele><time>2026-04-04T12:41:34.85Z</time></trkpt><trkpt lat="44.15034" lon="11.3258942"><ele>900.0</ele><time>2026-04-04T12:41:35.85Z</time></trkpt><trkpt lat="44.1505466" lon="11.325897"><ele>896.0</ele><time>2026-04-04T12:41:36.849Z</time></trkpt><trkpt lat="44.1507462" lon="11.3258974"><ele>893.0</ele><time>2026-04-04T12:41:37.85Z</time></trkpt><trkpt lat="44.150934" lon="11.3258812"><ele>890.0</ele><time>2026-04-04T12:41:38.849Z</time></trkpt><trkpt lat="44.1511171" lon="11.3258161"><ele>887.0</ele><time>2026-04-04T12:41:39.849Z</time></trkpt><trkpt lat="44.1513106" lon="11.3257103"><ele>887.0</ele><time>2026-04-04T12:41:40.85Z</time></trkpt><trkpt lat="44.1515115" lon="11.3255639"><ele>887.0</ele><time>2026-04-04T12:41:41.849Z</time></trkpt><trkpt lat="44.1517196" lon="11.325387"><ele>893.0</ele><time>2026-04-04T12:41:42.849Z</time></trkpt><trkpt lat="44.1519348" lon="11.3252071"><ele>899.0</ele><time>2026-04-04T12:41:43.849Z</time></trkpt><trkpt lat="44.1521331" lon="11.3250363"><ele>899.0</ele><time>2026-04-04T12:41:44.85Z</time></trkpt><trkpt lat="44.1523228" lon="11.3248824"><ele>899.0</ele><time>2026-04-04T12:41:45.85Z</time></trkpt><trkpt lat="44.1524984" lon="11.324739"><ele>899.0</ele><time>2026-04-04T12:41:46.85Z</time></trkpt><trkpt lat="44.1526525" lon="11.3246099"><ele>900.6666666666667</ele><time>2026-04-04T12:41:47.849Z</time></trkpt><trkpt lat="44.1527941" lon="11.3245074"><ele>902.3333333333333</ele><time>2026-04-04T12:41:48.849Z</time></trkpt><trkpt lat="44.1529368" lon="11.3244616"><ele>904.0</ele><time>2026-04-04T12:41:49.85Z</time></trkpt><trkpt lat="44.1530869" lon="11.3244705"><ele>901.3333333333333</ele><time>2026-04-04T12:41:50.85Z</time></trkpt><trkpt lat="44.1532457" lon="11.3245287"><ele>898.6666666666667</ele><time>2026-04-04T12:41:51.85Z</time></trkpt><trkpt lat="44.1534071" lon="11.324635"><ele>896.0</ele><time>2026-04-04T12:41:52.849Z</time></trkpt><trkpt lat="44.1535732" lon="11.3247709"><ele>894.3333333333334</ele><time>2026-04-04T12:41:53.85Z</time></trkpt><trkpt lat="44.1537268" lon="11.3249004"><ele>892.6666666666667</ele><time>2026-04-04T12:41:54.85Z</time></trkpt><trkpt lat="44.1538775" lon="11.3250104"><ele>891.0</ele><time>2026-04-04T12:41:55.849Z</time></trkpt><trkpt lat="44.1540392" lon="11.3251023"><ele>891.0</ele><time>2026-04-04T12:41:56.85Z</time></trkpt><trkpt lat="44.1542067" lon="11.3251647"><ele>891.0</ele><time>2026-04-04T12:41:57.85Z</time></trkpt><trkpt lat="44.1543653" lon="11.3251961"><ele>891.0</ele><time>2026-04-04T12:41:58.85Z</time></trkpt><trkpt lat="44.1545087" lon="11.325179"><ele>891.0</ele><time>2026-04-04T12:41:59.848Z</time></trkpt><trkpt lat="44.1546327" lon="11.3251028"><ele>891.0</ele><time>2026-04-04T12:42:00.85Z</time></trkpt><trkpt lat="44.154737" lon="11.3249669"><ele>891.0</ele><time>2026-04-04T12:42:01.85Z</time></trkpt><trkpt lat="44.1548226" lon="11.3247798"><ele>891.0</ele><time>2026-04-04T12:42:02.85Z</time></trkpt><trkpt lat="44.154922" lon="11.3245779"><ele>892.3333333333333</ele><time>2026-04-04T12:42:03.85Z</time></trkpt><trkpt lat="44.1550609" lon="11.3244039"><ele>893.6666666666666</ele><time>2026-04-04T12:42:04.85Z</time></trkpt><trkpt lat="44.1552193" lon="11.3242527"><ele>895.0</ele><time>2026-04-04T12:42:05.849Z</time></trkpt><trkpt lat="44.1553621" lon="11.3240755"><ele>896.3333333333333</ele><time>2026-04-04T12:42:06.85Z</time></trkpt><trkpt lat="44.1554926" lon="11.3238614"><ele>897.6666666666667</ele><time>2026-04-04T12:42:07.849Z</time></trkpt><trkpt lat="44.1556104" lon="11.3236533"><ele>899.0</ele><time>2026-04-04T12:42:08.85Z</time></trkpt><trkpt lat="44.1557314" lon="11.3234752"><ele>899.0</ele><time>2026-04-04T12:42:09.849Z</time></trkpt><trkpt lat="44.1558747" lon="11.3233372"><ele>899.0</ele><time>2026-04-04T12:42:10.85Z</time></trkpt><trkpt lat="44.1560332" lon="11.3232423"><ele>899.0</ele><time>2026-04-04T12:42:11.85Z</time></trkpt><trkpt lat="44.1561923" lon="11.3232039"><ele>899.0</ele><time>2026-04-04T12:42:12.849Z</time></trkpt><trkpt lat="44.1563621" lon="11.323212"><ele>899.0</ele><time>2026-04-04T12:42:13.85Z</time></trkpt><trkpt lat="44.1565386" lon="11.3232754"><ele>899.0</ele><time>2026-04-04T12:42:14.85Z</time></trkpt><trkpt lat="44.1567076" lon="11.3233602"><ele>899.6666666666667</ele><time>2026-04-04T12:42:15.85Z</time></trkpt><trkpt lat="44.1568665" lon="11.3234203"><ele>900.3333333333333</ele><time>2026-04-04T12:42:16.85Z</time></trkpt><trkpt lat="44.1570281" lon="11.3234306"><ele>901.0</ele><time>2026-04-04T12:42:17.849Z</time></trkpt><trkpt lat="44.1571972" lon="11.3233787"><ele>901.0</ele><time>2026-04-04T12:42:18.85Z</time></trkpt><trkpt lat="44.1573645" lon="11.3232826"><ele>901.0</ele><time>2026-04-04T12:42:19.85Z</time></trkpt><trkpt lat="44.1575207" lon="11.3231517"><ele>901.0</ele><time>2026-04-04T12:42:20.85Z</time></trkpt><trkpt lat="44.1576609" lon="11.323005"><ele>902.6666666666666</ele><time>2026-04-04T12:42:21.85Z</time></trkpt><trkpt lat="44.1577856" lon="11.3228646"><ele>904.3333333333333</ele><time>2026-04-04T12:42:22.85Z</time></trkpt><trkpt lat="44.1579199" lon="11.3227618"><ele>906.0</ele><time>2026-04-04T12:42:23.849Z</time></trkpt><trkpt lat="44.158067" lon="11.3227081"><ele>905.6666666666667</ele><time>2026-04-04T12:42:24.849Z</time></trkpt><trkpt lat="44.1582232" lon="11.3226957"><ele>905.3333333333334</ele><time>2026-04-04T12:42:25.85Z</time></trkpt><trkpt lat="44.1583861" lon="11.3227431"><ele>905.0</ele><time>2026-04-04T12:42:26.85Z</time></trkpt><trkpt lat="44.1585494" lon="11.3228442"><ele>905.0</ele><time>2026-04-04T12:42:27.849Z</time></trkpt><trkpt lat="44.1587088" lon="11.3229839"><ele>905.0</ele><time>2026-04-04T12:42:28.85Z</time></trkpt><trkpt lat="44.1588426" lon="11.323144"><ele>905.0</ele><time>2026-04-04T12:42:29.85Z</time></trkpt><trkpt lat="44.1589685" lon="11.3232985"><ele>903.0</ele><time>2026-04-04T12:42:30.849Z</time></trkpt><trkpt lat="44.1591166" lon="11.3234242"><ele>901.0</ele><time>2026-04-04T12:42:31.849Z</time></trkpt><trkpt lat="44.1592815" lon="11.3235229"><ele>899.0</ele><time>2026-04-04T12:42:32.85Z</time></trkpt><trkpt lat="44.1594441" lon="11.3236318"><ele>899.0</ele><time>2026-04-04T12:42:33.849Z</time></trkpt><trkpt lat="44.159597" lon="11.3237449"><ele>899.0</ele><time>2026-04-04T12:42:34.85Z</time></trkpt><trkpt lat="44.1597364" lon="11.3238928"><ele>899.0</ele><time>2026-04-04T12:42:35.85Z</time></trkpt><trkpt lat="44.1598555" lon="11.3240883"><ele>899.0</ele><time>2026-04-04T12:42:36.85Z</time></trkpt><trkpt lat="44.1599467" lon="11.3243347"><ele>899.0</ele><time>2026-04-04T12:42:37.849Z</time></trkpt><trkpt lat="44.1600243" lon="11.3246201"><ele>899.0</ele><time>2026-04-04T12:42:38.849Z</time></trkpt><trkpt lat="44.1601095" lon="11.3249331"><ele>894.5</ele><time>2026-04-04T12:42:39.849Z</time></trkpt><trkpt lat="44.1602016" lon="11.3252607"><ele>890.0</ele><time>2026-04-04T12:42:40.849Z</time></trkpt><trkpt lat="44.160306" lon="11.3255988"><ele>886.0</ele><time>2026-04-04T12:42:41.849Z</time></trkpt><trkpt lat="44.1604243" lon="11.32595"><ele>882.0</ele><time>2026-04-04T12:42:42.849Z</time></trkpt><trkpt lat="44.160553" lon="11.3263089"><ele>879.0</ele><time>2026-04-04T12:42:43.849Z</time></trkpt><trkpt lat="44.1606885" lon="11.3266593"><ele>876.0</ele><time>2026-04-04T12:42:44.849Z</time></trkpt><trkpt lat="44.1608223" lon="11.3269782"><ele>879.5</ele><time>2026-04-04T12:42:45.85Z</time></trkpt><trkpt lat="44.160948" lon="11.3272785"><ele>883.0</ele><time>2026-04-04T12:42:46.849Z</time></trkpt><trkpt lat="44.1610509" lon="11.3275704"><ele>883.0</ele><time>2026-04-04T12:42:47.848Z</time></trkpt><trkpt lat="44.1611262" lon="11.3278521"><ele>883.0</ele><time>2026-04-04T12:42:48.848Z</time></trkpt><trkpt lat="44.1611855" lon="11.3281234"><ele>883.0</ele><time>2026-04-04T12:42:49.849Z</time></trkpt><trkpt lat="44.1612321" lon="11.3283846"><ele>882.6666666666666</ele><time>2026-04-04T12:42:50.849Z</time></trkpt><trkpt lat="44.1612701" lon="11.3286336"><ele>882.3333333333333</ele><time>2026-04-04T12:42:51.85Z</time></trkpt><trkpt lat="44.1613033" lon="11.3288627"><ele>882.0</ele><time>2026-04-04T12:42:52.85Z</time></trkpt><trkpt lat="44.1613523" lon="11.3290729"><ele>881.6666666666667</ele><time>2026-04-04T12:42:53.848Z</time></trkpt><trkpt lat="44.1614255" lon="11.3292487"><ele>881.3333333333334</ele><time>2026-04-04T12:42:54.849Z</time></trkpt><trkpt lat="44.1615439" lon="11.3293995"><ele>881.0</ele><time>2026-04-04T12:42:55.849Z</time></trkpt><trkpt lat="44.161688" lon="11.3295188"><ele>881.0</ele><time>2026-04-04T12:42:56.848Z</time></trkpt><trkpt lat="44.1618549" lon="11.3296095"><ele>881.0</ele><time>2026-04-04T12:42:57.849Z</time></trkpt><trkpt lat="44.1620272" lon="11.3296621"><ele>881.0</ele><time>2026-04-04T12:42:58.849Z</time></trkpt><trkpt lat="44.1621931" lon="11.3296864"><ele>881.0</ele><time>2026-04-04T12:42:59.849Z</time></trkpt><trkpt lat="44.1623493" lon="11.3296932"><ele>881.0</ele><time>2026-04-04T12:43:00.849Z</time></trkpt><trkpt lat="44.1624934" lon="11.3297145"><ele>881.0</ele><time>2026-04-04T12:43:01.849Z</time></trkpt><trkpt lat="44.1626204" lon="11.3298002"><ele>881.0</ele><time>2026-04-04T12:43:02.848Z</time></trkpt><trkpt lat="44.1627329" lon="11.3299269"><ele>877.0</ele><time>2026-04-04T12:43:03.85Z</time></trkpt><trkpt lat="44.1628179" lon="11.330096"><ele>873.0</ele><time>2026-04-04T12:43:04.85Z</time></trkpt><trkpt lat="44.1628637" lon="11.3302838"><ele>869.0</ele><time>2026-04-04T12:43:05.849Z</time></trkpt><trkpt lat="44.1628706" lon="11.3304907"><ele>865.0</ele><time>2026-04-04T12:43:06.849Z</time></trkpt><trkpt lat="44.1628448" lon="11.3307056"><ele>862.25</ele><time>2026-04-04T12:43:07.848Z</time></trkpt><trkpt lat="44.1628237" lon="11.3308985"><ele>859.5</ele><time>2026-04-04T12:43:08.849Z</time></trkpt><trkpt lat="44.1628427" lon="11.3310801"><ele>856.75</ele><time>2026-04-04T12:43:09.85Z</time></trkpt><trkpt lat="44.1628947" lon="11.3312248"><ele>854.0</ele><time>2026-04-04T12:43:10.85Z</time></trkpt><trkpt lat="44.1629893" lon="11.3313417"><ele>853.0</ele><time>2026-04-04T12:43:11.848Z</time></trkpt><trkpt lat="44.1631148" lon="11.3314454"><ele>852.0</ele><time>2026-04-04T12:43:12.848Z</time></trkpt><trkpt lat="44.1632582" lon="11.3315523"><ele>851.0</ele><time>2026-04-04T12:43:13.85Z</time></trkpt><trkpt lat="44.1634091" lon="11.3316694"><ele>851.0</ele><time>2026-04-04T12:43:14.85Z</time></trkpt><trkpt lat="44.16356" lon="11.3317874"><ele>851.0</ele><time>2026-04-04T12:43:15.85Z</time></trkpt><trkpt lat="44.1637021" lon="11.3319207"><ele>851.0</ele><time>2026-04-04T12:43:16.85Z</time></trkpt><trkpt lat="44.1638299" lon="11.3320976"><ele>851.6666666666667</ele><time>2026-04-04T12:43:17.85Z</time></trkpt><trkpt lat="44.1639497" lon="11.3323086"><ele>852.3333333333333</ele><time>2026-04-04T12:43:18.85Z</time></trkpt><trkpt lat="44.1640595" lon="11.3325112"><ele>853.0</ele><time>2026-04-04T12:43:19.849Z</time></trkpt><trkpt lat="44.164171" lon="11.3326872"><ele>853.0</ele><time>2026-04-04T12:43:20.85Z</time></trkpt><trkpt lat="44.1642866" lon="11.33283"><ele>853.0</ele><time>2026-04-04T12:43:21.849Z</time></trkpt><trkpt lat="44.1643877" lon="11.3329722"><ele>853.0</ele><time>2026-04-04T12:43:22.849Z</time></trkpt><trkpt lat="44.1644653" lon="11.3331564"><ele>851.0</ele><time>2026-04-04T12:43:23.849Z</time></trkpt><trkpt lat="44.1645162" lon="11.3333764"><ele>849.0</ele><time>2026-04-04T12:43:24.849Z</time></trkpt><trkpt lat="44.1645575" lon="11.3336098"><ele>847.0</ele><time>2026-04-04T12:43:25.85Z</time></trkpt><trkpt lat="44.1646161" lon="11.3338069"><ele>847.5</ele><time>2026-04-04T12:43:26.85Z</time></trkpt><trkpt lat="44.1646853" lon="11.3339738"><ele>848.0</ele><time>2026-04-04T12:43:27.85Z</time></trkpt><trkpt lat="44.1647632" lon="11.3341119"><ele>848.5</ele><time>2026-04-04T12:43:28.85Z</time></trkpt><trkpt lat="44.1648461" lon="11.3342441"><ele>849.0</ele><time>2026-04-04T12:43:29.849Z</time></trkpt><trkpt lat="44.1649292" lon="11.3343747"><ele>849.5</ele><time>2026-04-04T12:43:30.848Z</time></trkpt><trkpt lat="44.1650088" lon="11.3345049"><ele>850.0</ele><time>2026-04-04T12:43:31.848Z</time></trkpt><trkpt lat="44.1650931" lon="11.3346368"><ele>850.5</ele><time>2026-04-04T12:43:32.849Z</time></trkpt><trkpt lat="44.1651786" lon="11.3347697"><ele>851.0</ele><time>2026-04-04T12:43:33.849Z</time></trkpt><trkpt lat="44.1652632" lon="11.3349061"><ele>851.0</ele><time>2026-04-04T12:43:34.849Z</time></trkpt><trkpt lat="44.1653379" lon="11.3350624"><ele>851.0</ele><time>2026-04-04T12:43:35.85Z</time></trkpt><trkpt lat="44.165386" lon="11.3352452"><ele>851.0</ele><time>2026-04-04T12:43:36.85Z</time></trkpt><trkpt lat="44.1654134" lon="11.3354538"><ele>851.0</ele><time>2026-04-04T12:43:37.85Z</time></trkpt><trkpt lat="44.1654294" lon="11.3356349"><ele>851.1666666666667</ele><time>2026-04-04T12:43:38.849Z</time></trkpt><trkpt lat="44.1654402" lon="11.3357892"><ele>851.3333333333334</ele><time>2026-04-04T12:43:39.85Z</time></trkpt><trkpt lat="44.1654576" lon="11.3359194"><ele>851.5</ele><time>2026-04-04T12:43:40.849Z</time></trkpt><trkpt lat="44.1654746" lon="11.3360298"><ele>851.6666666666667</ele><time>2026-04-04T12:43:41.848Z</time></trkpt><trkpt lat="44.1655089" lon="11.3361145"><ele>851.8333333333334</ele><time>2026-04-04T12:43:42.848Z</time></trkpt><trkpt lat="44.1655789" lon="11.3361845"><ele>852.0</ele><time>2026-04-04T12:43:43.848Z</time></trkpt><trkpt lat="44.165673" lon="11.3362055"><ele>854.5</ele><time>2026-04-04T12:43:44.849Z</time></trkpt><trkpt lat="44.1657846" lon="11.3361826"><ele>857.0</ele><time>2026-04-04T12:43:45.849Z</time></trkpt><trkpt lat="44.1659034" lon="11.3361249"><ele>859.5</ele><time>2026-04-04T12:43:46.85Z</time></trkpt><trkpt lat="44.1660335" lon="11.3360425"><ele>862.0</ele><time>2026-04-04T12:43:47.85Z</time></trkpt><trkpt lat="44.1661738" lon="11.3359321"><ele>862.0</ele><time>2026-04-04T12:43:48.85Z</time></trkpt><trkpt lat="44.1663271" lon="11.3358071"><ele>862.0</ele><time>2026-04-04T12:43:49.85Z</time></trkpt><trkpt lat="44.1664928" lon="11.3356572"><ele>862.0</ele><time>2026-04-04T12:43:50.848Z</time></trkpt><trkpt lat="44.1666451" lon="11.3355155"><ele>864.0</ele><time>2026-04-04T12:43:51.85Z</time></trkpt><trkpt lat="44.1668127" lon="11.3353686"><ele>866.0</ele><time>2026-04-04T12:43:52.85Z</time></trkpt><trkpt lat="44.1669728" lon="11.3352309"><ele>868.0</ele><time>2026-04-04T12:43:53.85Z</time></trkpt><trkpt lat="44.1671134" lon="11.3351112"><ele>868.0</ele><time>2026-04-04T12:43:54.849Z</time></trkpt><trkpt lat="44.1672408" lon="11.3350023"><ele>868.0</ele><time>2026-04-04T12:43:55.849Z</time></trkpt><trkpt lat="44.1673515" lon="11.3349027"><ele>868.0</ele><time>2026-04-04T12:43:56.849Z</time></trkpt><trkpt lat="44.1674431" lon="11.3348119"><ele>868.0</ele><time>2026-04-04T12:43:57.849Z</time></trkpt><trkpt lat="44.1675107" lon="11.334714"><ele>868.8</ele><time>2026-04-04T12:43:58.849Z</time></trkpt><trkpt lat="44.1675378" lon="11.3345958"><ele>869.5999999999999</ele><time>2026-04-04T12:43:59.849Z</time></trkpt><trkpt lat="44.1675228" lon="11.3344577"><ele>870.4000000000001</ele><time>2026-04-04T12:44:00.849Z</time></trkpt><trkpt lat="44.1674674" lon="11.334311"><ele>871.2</ele><time>2026-04-04T12:44:01.849Z</time></trkpt><trkpt lat="44.1673991" lon="11.3341454"><ele>872.0</ele><time>2026-04-04T12:44:02.849Z</time></trkpt><trkpt lat="44.1673155" lon="11.3339653"><ele>874.25</ele><time>2026-04-04T12:44:03.849Z</time></trkpt><trkpt lat="44.1672355" lon="11.3337887"><ele>876.5</ele><time>2026-04-04T12:44:04.849Z</time></trkpt><trkpt lat="44.167199" lon="11.3336268"><ele>878.75</ele><time>2026-04-04T12:44:05.849Z</time></trkpt><trkpt lat="44.1671658" lon="11.3334624"><ele>881.0</ele><time>2026-04-04T12:44:06.849Z</time></trkpt><trkpt lat="44.1672492" lon="11.3333242"><ele>881.0</ele><time>2026-04-04T12:44:07.849Z</time></trkpt><trkpt lat="44.1673254" lon="11.3331836"><ele>881.0</ele><time>2026-04-04T12:44:08.849Z</time></trkpt><trkpt lat="44.1674268" lon="11.3330336"><ele>881.0</ele><time>2026-04-04T12:44:09.849Z</time></trkpt><trkpt lat="44.1675263" lon="11.3328692"><ele>881.0</ele><time>2026-04-04T12:44:10.85Z</time></trkpt><trkpt lat="44.1676109" lon="11.3327291"><ele>883.5</ele><time>2026-04-04T12:44:11.85Z</time></trkpt><trkpt lat="44.16769" lon="11.3326154"><ele>886.0</ele><time>2026-04-04T12:44:12.849Z</time></trkpt><trkpt lat="44.1677888" lon="11.3325443"><ele>888.5</ele><time>2026-04-04T12:44:13.85Z</time></trkpt><trkpt lat="44.1679076" lon="11.3325294"><ele>891.0</ele><time>2026-04-04T12:44:14.85Z</time></trkpt><trkpt lat="44.1680351" lon="11.3325625"><ele>891.0</ele><time>2026-04-04T12:44:15.85Z</time></trkpt><trkpt lat="44.1681797" lon="11.3326222"><ele>891.0</ele><time>2026-04-04T12:44:16.849Z</time></trkpt><trkpt lat="44.1683408" lon="11.3326779"><ele>891.0</ele><time>2026-04-04T12:44:17.849Z</time></trkpt><trkpt lat="44.1685219" lon="11.3327363"><ele>896.3333333333333</ele><time>2026-04-04T12:44:18.849Z</time></trkpt><trkpt lat="44.1687201" lon="11.3327973"><ele>901.6666666666666</ele><time>2026-04-04T12:44:19.849Z</time></trkpt><trkpt lat="44.1689081" lon="11.3328552"><ele>907.0</ele><time>2026-04-04T12:44:20.85Z</time></trkpt><trkpt lat="44.1690817" lon="11.3328991"><ele>910.6666666666666</ele><time>2026-04-04T12:44:21.849Z</time></trkpt><trkpt lat="44.169247" lon="11.332917"><ele>914.3333333333333</ele><time>2026-04-04T12:44:22.849Z</time></trkpt><trkpt lat="44.1694236" lon="11.332883"><ele>918.0</ele><time>2026-04-04T12:44:23.85Z</time></trkpt><trkpt lat="44.169603" lon="11.3328086"><ele>918.0</ele><time>2026-04-04T12:44:24.85Z</time></trkpt><trkpt lat="44.1697849" lon="11.332734"><ele>918.0</ele><time>2026-04-04T12:44:25.85Z</time></trkpt><trkpt lat="44.1699561" lon="11.3326723"><ele>918.0</ele><time>2026-04-04T12:44:26.849Z</time></trkpt><trkpt lat="44.1701136" lon="11.3326118"><ele>919.75</ele><time>2026-04-04T12:44:27.849Z</time></trkpt><trkpt lat="44.1702588" lon="11.3325688"><ele>921.5</ele><time>2026-04-04T12:44:28.85Z</time></trkpt><trkpt lat="44.1703926" lon="11.3325471"><ele>923.25</ele><time>2026-04-04T12:44:29.849Z</time></trkpt><trkpt lat="44.1705182" lon="11.3325716"><ele>925.0</ele><time>2026-04-04T12:44:30.849Z</time></trkpt><trkpt lat="44.1706284" lon="11.332653"><ele>925.25</ele><time>2026-04-04T12:44:31.85Z</time></trkpt><trkpt lat="44.1707098" lon="11.3327844"><ele>925.5</ele><time>2026-04-04T12:44:32.849Z</time></trkpt><trkpt lat="44.1707703" lon="11.3329607"><ele>925.75</ele><time>2026-04-04T12:44:33.849Z</time></trkpt><trkpt lat="44.1708132" lon="11.3331736"><ele>926.0</ele><time>2026-04-04T12:44:34.85Z</time></trkpt><trkpt lat="44.1708478" lon="11.333414"><ele>926.0</ele><time>2026-04-04T12:44:35.85Z</time></trkpt><trkpt lat="44.1708805" lon="11.3336628"><ele>926.0</ele><time>2026-04-04T12:44:36.85Z</time></trkpt><trkpt lat="44.1709234" lon="11.3338885"><ele>926.0</ele><time>2026-04-04T12:44:37.85Z</time></trkpt><trkpt lat="44.1709928" lon="11.3341007"><ele>925.6666666666667</ele><time>2026-04-04T12:44:38.849Z</time></trkpt><trkpt lat="44.171095" lon="11.3343102"><ele>925.3333333333333</ele><time>2026-04-04T12:44:39.85Z</time></trkpt><trkpt lat="44.1712255" lon="11.3345169"><ele>925.0</ele><time>2026-04-04T12:44:40.849Z</time></trkpt><trkpt lat="44.1713653" lon="11.3347359"><ele>924.3333333333333</ele><time>2026-04-04T12:44:41.85Z</time></trkpt><trkpt lat="44.1715051" lon="11.3349792"><ele>923.6666666666667</ele><time>2026-04-04T12:44:42.85Z</time></trkpt><trkpt lat="44.171631" lon="11.3352286"><ele>923.0</ele><time>2026-04-04T12:44:43.85Z</time></trkpt><trkpt lat="44.1717464" lon="11.3354981"><ele>928.6666666666667</ele><time>2026-04-04T12:44:44.85Z</time></trkpt><trkpt lat="44.1718614" lon="11.3357665"><ele>934.3333333333333</ele><time>2026-04-04T12:44:45.85Z</time></trkpt><trkpt lat="44.1719762" lon="11.3360328"><ele>940.0</ele><time>2026-04-04T12:44:46.848Z</time></trkpt><trkpt lat="44.1720872" lon="11.3362829"><ele>939.3333333333333</ele><time>2026-04-04T12:44:47.848Z</time></trkpt><trkpt lat="44.1721713" lon="11.3365031"><ele>938.6666666666667</ele><time>2026-04-04T12:44:48.848Z</time></trkpt><trkpt lat="44.1722155" lon="11.3367289"><ele>938.0</ele><time>2026-04-04T12:44:49.849Z</time></trkpt><trkpt lat="44.1722322" lon="11.3369521"><ele>938.0</ele><time>2026-04-04T12:44:50.849Z</time></trkpt><trkpt lat="44.1722539" lon="11.3371802"><ele>938.0</ele><time>2026-04-04T12:44:51.849Z</time></trkpt><trkpt lat="44.1723115" lon="11.3374072"><ele>938.0</ele><time>2026-04-04T12:44:52.848Z</time></trkpt><trkpt lat="44.1723987" lon="11.3376385"><ele>945.6666666666667</ele><time>2026-04-04T12:44:53.849Z</time></trkpt><trkpt lat="44.1724885" lon="11.3378582"><ele>953.3333333333333</ele><time>2026-04-04T12:44:54.848Z</time></trkpt><trkpt lat="44.1725608" lon="11.3380391"><ele>961.0</ele><time>2026-04-04T12:44:55.848Z</time></trkpt><trkpt lat="44.1726234" lon="11.3381841"><ele>960.9999999999999</ele><time>2026-04-04T12:44:56.849Z</time></trkpt><trkpt lat="44.1726744" lon="11.3382768"><ele>961.0</ele><time>2026-04-04T12:44:57.849Z</time></trkpt><trkpt lat="44.1727355" lon="11.3383448"><ele>961.0</ele><time>2026-04-04T12:44:59.848Z</time></trkpt><trkpt lat="44.1728205" lon="11.338364"><ele>961.0</ele><time>2026-04-04T12:45:02.849Z</time></trkpt><trkpt lat="44.172926" lon="11.3384123"><ele>960.9999999999999</ele><time>2026-04-04T12:45:04.848Z</time></trkpt><trkpt lat="44.1730091" lon="11.3384191"><ele>961.0</ele><time>2026-04-04T12:45:06.848Z</time></trkpt><trkpt lat="44.1730783" lon="11.338411"><ele>961.0</ele><time>2026-04-04T12:45:08.848Z</time></trkpt><trkpt lat="44.1731677" lon="11.3383892"><ele>961.0</ele><time>2026-04-04T12:45:10.849Z</time></trkpt><trkpt lat="44.173269" lon="11.3383504"><ele>961.0</ele><time>2026-04-04T12:45:11.849Z</time></trkpt><trkpt lat="44.1733836" lon="11.3382693"><ele>961.0</ele><time>2026-04-04T12:45:12.848Z</time></trkpt><trkpt lat="44.1734928" lon="11.3381314"><ele>963.6666666666666</ele><time>2026-04-04T12:45:13.848Z</time></trkpt><trkpt lat="44.1735918" lon="11.3379357"><ele>966.3333333333333</ele><time>2026-04-04T12:45:14.849Z</time></trkpt><trkpt lat="44.1736793" lon="11.3377273"><ele>969.0</ele><time>2026-04-04T12:45:15.849Z</time></trkpt><trkpt lat="44.1737789" lon="11.3375463"><ele>969.0</ele><time>2026-04-04T12:45:16.848Z</time></trkpt><trkpt lat="44.1739003" lon="11.3373889"><ele>969.0</ele><time>2026-04-04T12:45:17.849Z</time></trkpt><trkpt lat="44.1740467" lon="11.3372494"><ele>969.0</ele><time>2026-04-04T12:45:18.849Z</time></trkpt><trkpt lat="44.1741883" lon="11.3371273"><ele>965.6666666666667</ele><time>2026-04-04T12:45:19.848Z</time></trkpt><trkpt lat="44.1743268" lon="11.3370067"><ele>962.3333333333334</ele><time>2026-04-04T12:45:20.848Z</time></trkpt><trkpt lat="44.1744605" lon="11.3368913"><ele>959.0</ele><time>2026-04-04T12:45:21.848Z</time></trkpt><trkpt lat="44.174592" lon="11.3367859"><ele>959.0</ele><time>2026-04-04T12:45:22.849Z</time></trkpt><trkpt lat="44.1747221" lon="11.3366952"><ele>959.0</ele><time>2026-04-04T12:45:23.849Z</time></trkpt><trkpt lat="44.1748531" lon="11.336627"><ele>959.0</ele><time>2026-04-04T12:45:24.847Z</time></trkpt><trkpt lat="44.1749844" lon="11.3366005"><ele>959.0</ele><time>2026-04-04T12:45:25.849Z</time></trkpt><trkpt lat="44.175115" lon="11.3366369"><ele>956.6666666666667</ele><time>2026-04-04T12:45:26.849Z</time></trkpt><trkpt lat="44.1752535" lon="11.3367265"><ele>954.3333333333333</ele><time>2026-04-04T12:45:27.849Z</time></trkpt><trkpt lat="44.1753902" lon="11.3368476"><ele>952.0</ele><time>2026-04-04T12:45:28.848Z</time></trkpt><trkpt lat="44.1755174" lon="11.3369971"><ele>952.0</ele><time>2026-04-04T12:45:29.848Z</time></trkpt><trkpt lat="44.1756187" lon="11.3371801"><ele>952.0</ele><time>2026-04-04T12:45:30.849Z</time></trkpt><trkpt lat="44.175696" lon="11.3373771"><ele>952.0</ele><time>2026-04-04T12:45:31.848Z</time></trkpt><trkpt lat="44.1757906" lon="11.3375448"><ele>950.3333333333333</ele><time>2026-04-04T12:45:32.848Z</time></trkpt><trkpt lat="44.175925" lon="11.3376897"><ele>948.6666666666667</ele><time>2026-04-04T12:45:33.848Z</time></trkpt><trkpt lat="44.1760931" lon="11.3378172"><ele>947.0</ele><time>2026-04-04T12:45:34.849Z</time></trkpt><trkpt lat="44.1762683" lon="11.3379255"><ele>947.0</ele><time>2026-04-04T12:45:35.848Z</time></trkpt><trkpt lat="44.1764325" lon="11.3380228"><ele>947.0</ele><time>2026-04-04T12:45:36.848Z</time></trkpt><trkpt lat="44.1765804" lon="11.33811"><ele>947.0</ele><time>2026-04-04T12:45:37.847Z</time></trkpt><trkpt lat="44.1767072" lon="11.3381838"><ele>944.75</ele><time>2026-04-04T12:45:38.848Z</time></trkpt><trkpt lat="44.1768314" lon="11.3382258"><ele>942.5</ele><time>2026-04-04T12:45:39.849Z</time></trkpt><trkpt lat="44.1769539" lon="11.3382014"><ele>940.25</ele><time>2026-04-04T12:45:40.848Z</time></trkpt><trkpt lat="44.1770727" lon="11.3381194"><ele>938.0</ele><time>2026-04-04T12:45:41.849Z</time></trkpt><trkpt lat="44.1771789" lon="11.3379897"><ele>938.0</ele><time>2026-04-04T12:45:42.849Z</time></trkpt><trkpt lat="44.1772547" lon="11.3378148"><ele>938.0</ele><time>2026-04-04T12:45:43.849Z</time></trkpt><trkpt lat="44.1772946" lon="11.3376248"><ele>938.0</ele><time>2026-04-04T12:45:44.848Z</time></trkpt><trkpt lat="44.177292" lon="11.3374434"><ele>938.0</ele><time>2026-04-04T12:45:45.847Z</time></trkpt><trkpt lat="44.1772529" lon="11.3372742"><ele>940.25</ele><time>2026-04-04T12:45:46.848Z</time></trkpt><trkpt lat="44.1772254" lon="11.3371164"><ele>942.5</ele><time>2026-04-04T12:45:47.848Z</time></trkpt><trkpt lat="44.1772457" lon="11.3369595"><ele>944.75</ele><time>2026-04-04T12:45:48.849Z</time></trkpt><trkpt lat="44.1773109" lon="11.3368029"><ele>947.0</ele><time>2026-04-04T12:45:49.849Z</time></trkpt><trkpt lat="44.1774199" lon="11.3366553"><ele>944.0</ele><time>2026-04-04T12:45:50.848Z</time></trkpt><trkpt lat="44.1775565" lon="11.336502"><ele>941.0</ele><time>2026-04-04T12:45:51.847Z</time></trkpt><trkpt lat="44.1776934" lon="11.3363742"><ele>938.0</ele><time>2026-04-04T12:45:52.849Z</time></trkpt><trkpt lat="44.1778314" lon="11.3362694"><ele>938.0</ele><time>2026-04-04T12:45:53.847Z</time></trkpt><trkpt lat="44.177971" lon="11.3362034"><ele>938.0</ele><time>2026-04-04T12:45:54.849Z</time></trkpt><trkpt lat="44.1781142" lon="11.336193"><ele>938.0</ele><time>2026-04-04T12:45:55.848Z</time></trkpt><trkpt lat="44.178251" lon="11.336249"><ele>938.0</ele><time>2026-04-04T12:45:56.849Z</time></trkpt><trkpt lat="44.1783755" lon="11.3363622"><ele>931.25</ele><time>2026-04-04T12:45:57.848Z</time></trkpt><trkpt lat="44.1784874" lon="11.3365106"><ele>924.5</ele><time>2026-04-04T12:45:58.849Z</time></trkpt><trkpt lat="44.1785897" lon="11.3366537"><ele>917.75</ele><time>2026-04-04T12:45:59.849Z</time></trkpt><trkpt lat="44.1786861" lon="11.3367563"><ele>911.0</ele><time>2026-04-04T12:46:00.847Z</time></trkpt><trkpt lat="44.1787886" lon="11.3368074"><ele>911.0</ele><time>2026-04-04T12:46:01.847Z</time></trkpt><trkpt lat="44.1788954" lon="11.3367934"><ele>911.0</ele><time>2026-04-04T12:46:02.848Z</time></trkpt><trkpt lat="44.1789963" lon="11.3367138"><ele>911.0</ele><time>2026-04-04T12:46:03.848Z</time></trkpt><trkpt lat="44.1790846" lon="11.336596"><ele>911.0</ele><time>2026-04-04T12:46:04.848Z</time></trkpt><trkpt lat="44.1791501" lon="11.3364497"><ele>908.25</ele><time>2026-04-04T12:46:05.848Z</time></trkpt><trkpt lat="44.1791803" lon="11.3362797"><ele>905.5</ele><time>2026-04-04T12:46:06.849Z</time></trkpt><trkpt lat="44.1791803" lon="11.3361017"><ele>902.75</ele><time>2026-04-04T12:46:07.849Z</time></trkpt><trkpt lat="44.1791763" lon="11.3359259"><ele>900.0</ele><time>2026-04-04T12:46:08.849Z</time></trkpt><trkpt lat="44.179177" lon="11.3357604"><ele>900.0</ele><time>2026-04-04T12:46:09.849Z</time></trkpt><trkpt lat="44.1791982" lon="11.3356085"><ele>900.0</ele><time>2026-04-04T12:46:10.849Z</time></trkpt><trkpt lat="44.1792565" lon="11.3354798"><ele>900.0</ele><time>2026-04-04T12:46:11.849Z</time></trkpt><trkpt lat="44.1793595" lon="11.3353668"><ele>900.0</ele><time>2026-04-04T12:46:12.849Z</time></trkpt><trkpt lat="44.179495" lon="11.3352699"><ele>898.6666666666667</ele><time>2026-04-04T12:46:13.848Z</time></trkpt><trkpt lat="44.1796356" lon="11.3351757"><ele>897.3333333333334</ele><time>2026-04-04T12:46:14.848Z</time></trkpt><trkpt lat="44.1798301" lon="11.335086"><ele>896.0</ele><time>2026-04-04T12:46:15.849Z</time></trkpt><trkpt lat="44.1799899" lon="11.3350119"><ele>896.0</ele><time>2026-04-04T12:46:16.849Z</time></trkpt><trkpt lat="44.1801622" lon="11.3349721"><ele>896.0</ele><time>2026-04-04T12:46:17.847Z</time></trkpt><trkpt lat="44.1803408" lon="11.3349564"><ele>896.0</ele><time>2026-04-04T12:46:18.848Z</time></trkpt><trkpt lat="44.1805157" lon="11.3349509"><ele>895.0</ele><time>2026-04-04T12:46:19.849Z</time></trkpt><trkpt lat="44.180685" lon="11.3349435"><ele>894.0</ele><time>2026-04-04T12:46:20.849Z</time></trkpt><trkpt lat="44.1808388" lon="11.3349504"><ele>893.0</ele><time>2026-04-04T12:46:21.849Z</time></trkpt><trkpt lat="44.1809853" lon="11.3349924"><ele>893.0</ele><time>2026-04-04T12:46:22.849Z</time></trkpt><trkpt lat="44.18113" lon="11.3350689"><ele>893.0</ele><time>2026-04-04T12:46:23.849Z</time></trkpt><trkpt lat="44.1812599" lon="11.3351773"><ele>893.0</ele><time>2026-04-04T12:46:24.849Z</time></trkpt><trkpt lat="44.1813725" lon="11.3353029"><ele>893.0</ele><time>2026-04-04T12:46:25.848Z</time></trkpt><trkpt lat="44.1814773" lon="11.3354247"><ele>893.0</ele><time>2026-04-04T12:46:26.849Z</time></trkpt><trkpt lat="44.1815908" lon="11.3355015"><ele>893.0</ele><time>2026-04-04T12:46:27.849Z</time></trkpt><trkpt lat="44.1817243" lon="11.335529"><ele>893.0</ele><time>2026-04-04T12:46:28.848Z</time></trkpt><trkpt lat="44.1818769" lon="11.3355116"><ele>892.6666666666667</ele><time>2026-04-04T12:46:29.848Z</time></trkpt><trkpt lat="44.1820357" lon="11.3354812"><ele>892.3333333333333</ele><time>2026-04-04T12:46:30.848Z</time></trkpt><trkpt lat="44.1821947" lon="11.3354425"><ele>892.0</ele><time>2026-04-04T12:46:31.848Z</time></trkpt><trkpt lat="44.1823523" lon="11.335381"><ele>890.0</ele><time>2026-04-04T12:46:32.848Z</time></trkpt><trkpt lat="44.1825036" lon="11.3353131"><ele>888.0</ele><time>2026-04-04T12:46:33.849Z</time></trkpt><trkpt lat="44.1826534" lon="11.3352461"><ele>886.0</ele><time>2026-04-04T12:46:34.849Z</time></trkpt><trkpt lat="44.182813" lon="11.3352107"><ele>886.0</ele><time>2026-04-04T12:46:35.848Z</time></trkpt><trkpt lat="44.1829916" lon="11.3352189"><ele>886.0</ele><time>2026-04-04T12:46:36.849Z</time></trkpt><trkpt lat="44.1831821" lon="11.33526"><ele>886.0</ele><time>2026-04-04T12:46:37.849Z</time></trkpt><trkpt lat="44.1833672" lon="11.3352922"><ele>883.6666666666666</ele><time>2026-04-04T12:46:38.848Z</time></trkpt><trkpt lat="44.183546" lon="11.3352982"><ele>881.3333333333333</ele><time>2026-04-04T12:46:39.848Z</time></trkpt><trkpt lat="44.1837211" lon="11.33527"><ele>879.0</ele><time>2026-04-04T12:46:40.848Z</time></trkpt><trkpt lat="44.1839033" lon="11.3352019"><ele>875.0</ele><time>2026-04-04T12:46:41.848Z</time></trkpt><trkpt lat="44.1840914" lon="11.3351132"><ele>871.0</ele><time>2026-04-04T12:46:42.848Z</time></trkpt><trkpt lat="44.184295" lon="11.3350136"><ele>867.0</ele><time>2026-04-04T12:46:43.849Z</time></trkpt><trkpt lat="44.1845022" lon="11.3349013"><ele>867.0</ele><time>2026-04-04T12:46:44.847Z</time></trkpt><trkpt lat="44.18469" lon="11.3347665"><ele>867.0</ele><time>2026-04-04T12:46:45.849Z</time></trkpt><trkpt lat="44.1848629" lon="11.3346215"><ele>867.0</ele><time>2026-04-04T12:46:46.848Z</time></trkpt><trkpt lat="44.1850113" lon="11.3344938"><ele>869.0</ele><time>2026-04-04T12:46:47.849Z</time></trkpt><trkpt lat="44.1851499" lon="11.3343987"><ele>871.0</ele><time>2026-04-04T12:46:48.849Z</time></trkpt><trkpt lat="44.1852978" lon="11.3343566"><ele>873.0</ele><time>2026-04-04T12:46:49.849Z</time></trkpt><trkpt lat="44.1854546" lon="11.334371"><ele>873.0</ele><time>2026-04-04T12:46:50.849Z</time></trkpt><trkpt lat="44.1856124" lon="11.3344081"><ele>873.0</ele><time>2026-04-04T12:46:51.848Z</time></trkpt><trkpt lat="44.1857603" lon="11.3344332"><ele>873.0</ele><time>2026-04-04T12:46:52.848Z</time></trkpt><trkpt lat="44.1859081" lon="11.3344328"><ele>869.0</ele><time>2026-04-04T12:46:53.847Z</time></trkpt><trkpt lat="44.1860625" lon="11.3344048"><ele>865.0</ele><time>2026-04-04T12:46:54.848Z</time></trkpt><trkpt lat="44.1861498" lon="11.3342818"><ele>861.0</ele><time>2026-04-04T12:46:55.849Z</time></trkpt><trkpt lat="44.186245" lon="11.334154"><ele>857.0</ele><time>2026-04-04T12:46:56.849Z</time></trkpt><trkpt lat="44.1863209" lon="11.3339926"><ele>855.5</ele><time>2026-04-04T12:46:57.848Z</time></trkpt><trkpt lat="44.1864127" lon="11.3338442"><ele>854.0</ele><time>2026-04-04T12:46:58.848Z</time></trkpt><trkpt lat="44.1865413" lon="11.3337441"><ele>852.5</ele><time>2026-04-04T12:46:59.849Z</time></trkpt><trkpt lat="44.1866879" lon="11.3336831"><ele>851.0</ele><time>2026-04-04T12:47:00.849Z</time></trkpt><trkpt lat="44.1868395" lon="11.3336602"><ele>851.0</ele><time>2026-04-04T12:47:01.849Z</time></trkpt><trkpt lat="44.1869786" lon="11.3336526"><ele>851.0</ele><time>2026-04-04T12:47:02.847Z</time></trkpt><trkpt lat="44.1871031" lon="11.3336194"><ele>851.0</ele><time>2026-04-04T12:47:03.849Z</time></trkpt><trkpt lat="44.1872053" lon="11.3335348"><ele>851.0</ele><time>2026-04-04T12:47:04.849Z</time></trkpt><trkpt lat="44.1872925" lon="11.3333987"><ele>851.25</ele><time>2026-04-04T12:47:05.849Z</time></trkpt><trkpt lat="44.1873714" lon="11.3332359"><ele>851.5</ele><time>2026-04-04T12:47:06.849Z</time></trkpt><trkpt lat="44.1874592" lon="11.3331009"><ele>851.75</ele><time>2026-04-04T12:47:07.848Z</time></trkpt><trkpt lat="44.1875564" lon="11.3329912"><ele>852.0</ele><time>2026-04-04T12:47:08.848Z</time></trkpt><trkpt lat="44.1876634" lon="11.3329156"><ele>852.0</ele><time>2026-04-04T12:47:09.849Z</time></trkpt><trkpt lat="44.1877832" lon="11.3328683"><ele>852.0</ele><time>2026-04-04T12:47:10.848Z</time></trkpt><trkpt lat="44.1879104" lon="11.3328472"><ele>852.0</ele><time>2026-04-04T12:47:11.848Z</time></trkpt><trkpt lat="44.1880411" lon="11.3328466"><ele>852.0</ele><time>2026-04-04T12:47:12.849Z</time></trkpt><trkpt lat="44.1881724" lon="11.3328781"><ele>851.0</ele><time>2026-04-04T12:47:13.848Z</time></trkpt><trkpt lat="44.1883013" lon="11.3329305"><ele>850.0</ele><time>2026-04-04T12:47:14.849Z</time></trkpt><trkpt lat="44.1884294" lon="11.3329939"><ele>849.0</ele><time>2026-04-04T12:47:15.849Z</time></trkpt><trkpt lat="44.1885593" lon="11.3330581"><ele>848.0</ele><time>2026-04-04T12:47:16.849Z</time></trkpt><trkpt lat="44.188692" lon="11.3331275"><ele>845.0</ele><time>2026-04-04T12:47:17.849Z</time></trkpt><trkpt lat="44.1888198" lon="11.3331937"><ele>842.0</ele><time>2026-04-04T12:47:18.849Z</time></trkpt><trkpt lat="44.1889408" lon="11.3332638"><ele>839.0</ele><time>2026-04-04T12:47:19.849Z</time></trkpt><trkpt lat="44.1890529" lon="11.3333571"><ele>836.0</ele><time>2026-04-04T12:47:20.849Z</time></trkpt><trkpt lat="44.1891535" lon="11.3334991"><ele>836.0</ele><time>2026-04-04T12:47:21.848Z</time></trkpt><trkpt lat="44.1892396" lon="11.3336727"><ele>836.0</ele><time>2026-04-04T12:47:22.848Z</time></trkpt><trkpt lat="44.1893152" lon="11.3338638"><ele>836.0</ele><time>2026-04-04T12:47:23.848Z</time></trkpt><trkpt lat="44.1893901" lon="11.3340575"><ele>831.5</ele><time>2026-04-04T12:47:24.849Z</time></trkpt><trkpt lat="44.1894644" lon="11.3342395"><ele>827.0</ele><time>2026-04-04T12:47:25.849Z</time></trkpt><trkpt lat="44.1895382" lon="11.3344151"><ele>822.5</ele><time>2026-04-04T12:47:26.849Z</time></trkpt><trkpt lat="44.1896064" lon="11.334577"><ele>818.0</ele><time>2026-04-04T12:47:27.847Z</time></trkpt><trkpt lat="44.1896756" lon="11.334707"><ele>815.5</ele><time>2026-04-04T12:47:28.849Z</time></trkpt><trkpt lat="44.1897676" lon="11.3347855"><ele>813.0</ele><time>2026-04-04T12:47:29.849Z</time></trkpt><trkpt lat="44.1898837" lon="11.3348204"><ele>810.5</ele><time>2026-04-04T12:47:30.847Z</time></trkpt><trkpt lat="44.1900208" lon="11.3348008"><ele>808.0</ele><time>2026-04-04T12:47:31.849Z</time></trkpt><trkpt lat="44.190179" lon="11.334748"><ele>811.0</ele><time>2026-04-04T12:47:32.849Z</time></trkpt><trkpt lat="44.1903671" lon="11.3346844"><ele>814.0</ele><time>2026-04-04T12:47:33.848Z</time></trkpt><trkpt lat="44.1905731" lon="11.3346187"><ele>817.0</ele><time>2026-04-04T12:47:34.849Z</time></trkpt><trkpt lat="44.1907769" lon="11.3345512"><ele>817.0</ele><time>2026-04-04T12:47:35.848Z</time></trkpt><trkpt lat="44.190966" lon="11.3344903"><ele>817.0</ele><time>2026-04-04T12:47:36.848Z</time></trkpt><trkpt lat="44.1911382" lon="11.3344104"><ele>817.0</ele><time>2026-04-04T12:47:37.848Z</time></trkpt><trkpt lat="44.1913014" lon="11.3342981"><ele>817.0</ele><time>2026-04-04T12:47:38.848Z</time></trkpt><trkpt lat="44.1914696" lon="11.3341614"><ele>817.0</ele><time>2026-04-04T12:47:39.848Z</time></trkpt><trkpt lat="44.191658" lon="11.3340395"><ele>817.0</ele><time>2026-04-04T12:47:40.848Z</time></trkpt><trkpt lat="44.1918519" lon="11.333925"><ele>818.6666666666666</ele><time>2026-04-04T12:47:41.847Z</time></trkpt><trkpt lat="44.1920367" lon="11.3338268"><ele>820.3333333333333</ele><time>2026-04-04T12:47:42.848Z</time></trkpt><trkpt lat="44.1922085" lon="11.3337342"><ele>822.0</ele><time>2026-04-04T12:47:43.848Z</time></trkpt><trkpt lat="44.1923518" lon="11.3336665"><ele>818.0</ele><time>2026-04-04T12:47:44.849Z</time></trkpt><trkpt lat="44.192494" lon="11.3336105"><ele>814.0</ele><time>2026-04-04T12:47:45.849Z</time></trkpt><trkpt lat="44.1926204" lon="11.3335828"><ele>810.0</ele><time>2026-04-04T12:47:46.849Z</time></trkpt><trkpt lat="44.1927375" lon="11.3335966"><ele>806.0</ele><time>2026-04-04T12:47:47.848Z</time></trkpt><trkpt lat="44.1928376" lon="11.3336736"><ele>806.0</ele><time>2026-04-04T12:47:48.849Z</time></trkpt><trkpt lat="44.1929368" lon="11.3337815"><ele>806.0</ele><time>2026-04-04T12:47:49.848Z</time></trkpt><trkpt lat="44.1930296" lon="11.3339217"><ele>806.0</ele><time>2026-04-04T12:47:50.849Z</time></trkpt><trkpt lat="44.1931233" lon="11.3340763"><ele>806.0</ele><time>2026-04-04T12:47:51.848Z</time></trkpt><trkpt lat="44.1932031" lon="11.3342171"><ele>801.1999999999999</ele><time>2026-04-04T12:47:52.848Z</time></trkpt><trkpt lat="44.1932699" lon="11.3343353"><ele>796.4</ele><time>2026-04-04T12:47:53.849Z</time></trkpt><trkpt lat="44.1933402" lon="11.3344008"><ele>791.6</ele><time>2026-04-04T12:47:54.849Z</time></trkpt><trkpt lat="44.1934146" lon="11.3344096"><ele>786.8</ele><time>2026-04-04T12:47:55.849Z</time></trkpt><trkpt lat="44.1934933" lon="11.3343642"><ele>782.0</ele><time>2026-04-04T12:47:56.849Z</time></trkpt><trkpt lat="44.1935807" lon="11.3342705"><ele>782.0</ele><time>2026-04-04T12:47:57.848Z</time></trkpt><trkpt lat="44.1936919" lon="11.3341431"><ele>782.0</ele><time>2026-04-04T12:47:58.849Z</time></trkpt><trkpt lat="44.1938116" lon="11.3340014"><ele>782.0</ele><time>2026-04-04T12:47:59.849Z</time></trkpt><trkpt lat="44.1939456" lon="11.3338845"><ele>783.0</ele><time>2026-04-04T12:48:00.849Z</time></trkpt><trkpt lat="44.1941121" lon="11.3337953"><ele>784.0</ele><time>2026-04-04T12:48:01.849Z</time></trkpt><trkpt lat="44.1942947" lon="11.3337227"><ele>785.0</ele><time>2026-04-04T12:48:02.849Z</time></trkpt><trkpt lat="44.1944688" lon="11.3336773"><ele>785.0</ele><time>2026-04-04T12:48:03.849Z</time></trkpt><trkpt lat="44.1946552" lon="11.3336645"><ele>785.0</ele><time>2026-04-04T12:48:04.849Z</time></trkpt><trkpt lat="44.1948451" lon="11.333678"><ele>785.0</ele><time>2026-04-04T12:48:05.848Z</time></trkpt><trkpt lat="44.1950235" lon="11.3336999"><ele>785.6666666666667</ele><time>2026-04-04T12:48:06.848Z</time></trkpt><trkpt lat="44.1952067" lon="11.3337219"><ele>786.3333333333333</ele><time>2026-04-04T12:48:07.848Z</time></trkpt><trkpt lat="44.1953894" lon="11.3337284"><ele>787.0</ele><time>2026-04-04T12:48:08.848Z</time></trkpt><trkpt lat="44.1955876" lon="11.3336976"><ele>783.6666666666666</ele><time>2026-04-04T12:48:09.848Z</time></trkpt><trkpt lat="44.1957911" lon="11.3336385"><ele>780.3333333333333</ele><time>2026-04-04T12:48:10.848Z</time></trkpt><trkpt lat="44.1960037" lon="11.3335494"><ele>777.0</ele><time>2026-04-04T12:48:11.848Z</time></trkpt><trkpt lat="44.1962114" lon="11.3334733"><ele>777.0</ele><time>2026-04-04T12:48:12.849Z</time></trkpt><trkpt lat="44.1964109" lon="11.3334111"><ele>777.0</ele><time>2026-04-04T12:48:13.847Z</time></trkpt><trkpt lat="44.1966025" lon="11.3333841"><ele>777.0</ele><time>2026-04-04T12:48:14.847Z</time></trkpt><trkpt lat="44.196786" lon="11.3333968"><ele>776.0</ele><time>2026-04-04T12:48:15.847Z</time></trkpt><trkpt lat="44.1969521" lon="11.333402"><ele>775.0</ele><time>2026-04-04T12:48:16.847Z</time></trkpt><trkpt lat="44.1971175" lon="11.3333648"><ele>774.0</ele><time>2026-04-04T12:48:17.848Z</time></trkpt><trkpt lat="44.1972875" lon="11.3332896"><ele>773.0</ele><time>2026-04-04T12:48:18.848Z</time></trkpt><trkpt lat="44.1974569" lon="11.3332082"><ele>772.0</ele><time>2026-04-04T12:48:19.848Z</time></trkpt><trkpt lat="44.19764" lon="11.3331694"><ele>771.0</ele><time>2026-04-04T12:48:20.848Z</time></trkpt><trkpt lat="44.1978375" lon="11.3331716"><ele>771.0</ele><time>2026-04-04T12:48:21.848Z</time></trkpt><trkpt lat="44.1980294" lon="11.3331977"><ele>771.0</ele><time>2026-04-04T12:48:22.848Z</time></trkpt><trkpt lat="44.1982025" lon="11.3332237"><ele>771.0</ele><time>2026-04-04T12:48:23.847Z</time></trkpt><trkpt lat="44.1983595" lon="11.3332575"><ele>771.25</ele><time>2026-04-04T12:48:24.846Z</time></trkpt><trkpt lat="44.1985007" lon="11.3332796"><ele>771.5</ele><time>2026-04-04T12:48:25.846Z</time></trkpt><trkpt lat="44.1986375" lon="11.3332564"><ele>771.75</ele><time>2026-04-04T12:48:26.848Z</time></trkpt><trkpt lat="44.1987607" lon="11.3331748"><ele>772.0</ele><time>2026-04-04T12:48:27.848Z</time></trkpt><trkpt lat="44.1988737" lon="11.3330364"><ele>775.6666666666666</ele><time>2026-04-04T12:48:28.847Z</time></trkpt><trkpt lat="44.198992" lon="11.3328639"><ele>779.3333333333333</ele><time>2026-04-04T12:48:29.848Z</time></trkpt><trkpt lat="44.1991241" lon="11.3326777"><ele>783.0</ele><time>2026-04-04T12:48:30.848Z</time></trkpt><trkpt lat="44.1992682" lon="11.3324842"><ele>783.0</ele><time>2026-04-04T12:48:31.846Z</time></trkpt><trkpt lat="44.1994009" lon="11.3323034"><ele>783.0</ele><time>2026-04-04T12:48:32.847Z</time></trkpt><trkpt lat="44.1995118" lon="11.3321202"><ele>783.0</ele><time>2026-04-04T12:48:33.847Z</time></trkpt><trkpt lat="44.1995774" lon="11.3319238"><ele>787.25</ele><time>2026-04-04T12:48:34.848Z</time></trkpt><trkpt lat="44.1996048" lon="11.3317302"><ele>791.5</ele><time>2026-04-04T12:48:35.847Z</time></trkpt><trkpt lat="44.1996349" lon="11.3315647"><ele>795.75</ele><time>2026-04-04T12:48:36.848Z</time></trkpt><trkpt lat="44.1996856" lon="11.3314338"><ele>800.0</ele><time>2026-04-04T12:48:37.847Z</time></trkpt><trkpt lat="44.1997569" lon="11.3313417"><ele>799.4</ele><time>2026-04-04T12:48:38.848Z</time></trkpt><trkpt lat="44.1998446" lon="11.3313122"><ele>798.8</ele><time>2026-04-04T12:48:39.848Z</time></trkpt><trkpt lat="44.1999268" lon="11.3313494"><ele>798.2</ele><time>2026-04-04T12:48:40.848Z</time></trkpt><trkpt lat="44.1999928" lon="11.33145"><ele>797.6</ele><time>2026-04-04T12:48:41.847Z</time></trkpt><trkpt lat="44.2000359" lon="11.3315983"><ele>797.0</ele><time>2026-04-04T12:48:42.848Z</time></trkpt><trkpt lat="44.2000783" lon="11.3317423"><ele>797.0</ele><time>2026-04-04T12:48:43.847Z</time></trkpt><trkpt lat="44.2001621" lon="11.3318521"><ele>797.0</ele><time>2026-04-04T12:48:44.848Z</time></trkpt><trkpt lat="44.2002811" lon="11.3319367"><ele>797.0</ele><time>2026-04-04T12:48:45.847Z</time></trkpt><trkpt lat="44.2004149" lon="11.3319956"><ele>797.0</ele><time>2026-04-04T12:48:46.848Z</time></trkpt><trkpt lat="44.2005279" lon="11.3320158"><ele>797.0</ele><time>2026-04-04T12:48:47.847Z</time></trkpt><trkpt lat="44.200628" lon="11.3319676"><ele>797.0</ele><time>2026-04-04T12:48:48.848Z</time></trkpt><trkpt lat="44.2007169" lon="11.3318573"><ele>797.0</ele><time>2026-04-04T12:48:49.847Z</time></trkpt><trkpt lat="44.200796" lon="11.3317103"><ele>797.0</ele><time>2026-04-04T12:48:50.848Z</time></trkpt><trkpt lat="44.2008598" lon="11.3315583"><ele>797.25</ele><time>2026-04-04T12:48:51.847Z</time></trkpt><trkpt lat="44.2008794" lon="11.3313907"><ele>797.5</ele><time>2026-04-04T12:48:52.846Z</time></trkpt><trkpt lat="44.2008549" lon="11.3312296"><ele>797.75</ele><time>2026-04-04T12:48:53.846Z</time></trkpt><trkpt lat="44.2008147" lon="11.3310742"><ele>798.0</ele><time>2026-04-04T12:48:54.848Z</time></trkpt><trkpt lat="44.2008054" lon="11.3309105"><ele>799.0</ele><time>2026-04-04T12:48:55.847Z</time></trkpt><trkpt lat="44.2008342" lon="11.3307345"><ele>800.0</ele><time>2026-04-04T12:48:56.846Z</time></trkpt><trkpt lat="44.2009047" lon="11.3305573"><ele>801.0</ele><time>2026-04-04T12:48:57.847Z</time></trkpt><trkpt lat="44.201006" lon="11.3303748"><ele>802.0</ele><time>2026-04-04T12:48:58.848Z</time></trkpt><trkpt lat="44.2011123" lon="11.3301849"><ele>809.0</ele><time>2026-04-04T12:48:59.848Z</time></trkpt><trkpt lat="44.2012165" lon="11.3300139"><ele>816.0</ele><time>2026-04-04T12:49:00.848Z</time></trkpt><trkpt lat="44.2013325" lon="11.3298712"><ele>823.0</ele><time>2026-04-04T12:49:01.848Z</time></trkpt><trkpt lat="44.2014686" lon="11.3297675"><ele>825.3333333333333</ele><time>2026-04-04T12:49:02.847Z</time></trkpt><trkpt lat="44.2016262" lon="11.3297047"><ele>827.6666666666667</ele><time>2026-04-04T12:49:03.847Z</time></trkpt><trkpt lat="44.2017926" lon="11.3296945"><ele>830.0</ele><time>2026-04-04T12:49:04.847Z</time></trkpt><trkpt lat="44.2019472" lon="11.3296915"><ele>830.0</ele><time>2026-04-04T12:49:05.847Z</time></trkpt><trkpt lat="44.2021039" lon="11.3296522"><ele>830.0</ele><time>2026-04-04T12:49:06.847Z</time></trkpt><trkpt lat="44.2022454" lon="11.3295982"><ele>830.0</ele><time>2026-04-04T12:49:07.847Z</time></trkpt><trkpt lat="44.2023661" lon="11.3295287"><ele>830.0</ele><time>2026-04-04T12:49:08.848Z</time></trkpt><trkpt lat="44.2024704" lon="11.3294411"><ele>828.75</ele><time>2026-04-04T12:49:09.848Z</time></trkpt><trkpt lat="44.2025606" lon="11.32931"><ele>827.5</ele><time>2026-04-04T12:49:10.847Z</time></trkpt><trkpt lat="44.2026171" lon="11.3291442"><ele>826.25</ele><time>2026-04-04T12:49:11.847Z</time></trkpt><trkpt lat="44.2026361" lon="11.3289724"><ele>825.0</ele><time>2026-04-04T12:49:12.847Z</time></trkpt><trkpt lat="44.2026575" lon="11.3288151"><ele>825.0</ele><time>2026-04-04T12:49:13.847Z</time></trkpt><trkpt lat="44.2027145" lon="11.3286851"><ele>825.0</ele><time>2026-04-04T12:49:14.846Z</time></trkpt><trkpt lat="44.2027809" lon="11.328592"><ele>825.0</ele><time>2026-04-04T12:49:15.848Z</time></trkpt><trkpt lat="44.2028813" lon="11.3285492"><ele>825.0</ele><time>2026-04-04T12:49:16.848Z</time></trkpt><trkpt lat="44.2030049" lon="11.3285316"><ele>825.0</ele><time>2026-04-04T12:49:17.847Z</time></trkpt><trkpt lat="44.2031413" lon="11.3285044"><ele>821.3333333333333</ele><time>2026-04-04T12:49:18.847Z</time></trkpt><trkpt lat="44.2032928" lon="11.3284554"><ele>817.6666666666666</ele><time>2026-04-04T12:49:19.848Z</time></trkpt><trkpt lat="44.2034373" lon="11.3283587"><ele>814.0</ele><time>2026-04-04T12:49:20.847Z</time></trkpt><trkpt lat="44.2035823" lon="11.3282133"><ele>817.3333333333333</ele><time>2026-04-04T12:49:21.848Z</time></trkpt><trkpt lat="44.2037271" lon="11.328043"><ele>820.6666666666667</ele><time>2026-04-04T12:49:22.846Z</time></trkpt><trkpt lat="44.2038635" lon="11.3278767"><ele>824.0</ele><time>2026-04-04T12:49:23.847Z</time></trkpt><trkpt lat="44.2039822" lon="11.3277085"><ele>819.0</ele><time>2026-04-04T12:49:24.847Z</time></trkpt><trkpt lat="44.2040792" lon="11.3275304"><ele>814.0</ele><time>2026-04-04T12:49:25.848Z</time></trkpt><trkpt lat="44.204154" lon="11.3273471"><ele>809.0</ele><time>2026-04-04T12:49:26.847Z</time></trkpt><trkpt lat="44.2042161" lon="11.3271644"><ele>808.5</ele><time>2026-04-04T12:49:27.846Z</time></trkpt><trkpt lat="44.2042843" lon="11.3269957"><ele>808.0</ele><time>2026-04-04T12:49:28.848Z</time></trkpt><trkpt lat="44.2043719" lon="11.3268577"><ele>807.5</ele><time>2026-04-04T12:49:29.848Z</time></trkpt><trkpt lat="44.2044858" lon="11.3267492"><ele>807.0</ele><time>2026-04-04T12:49:30.848Z</time></trkpt><trkpt lat="44.2046246" lon="11.3266805"><ele>807.0</ele><time>2026-04-04T12:49:31.846Z</time></trkpt><trkpt lat="44.2047672" lon="11.3266478"><ele>807.0</ele><time>2026-04-04T12:49:32.846Z</time></trkpt><trkpt lat="44.2048824" lon="11.3266176"><ele>807.0</ele><time>2026-04-04T12:49:33.847Z</time></trkpt><trkpt lat="44.2049756" lon="11.3265778"><ele>807.0</ele><time>2026-04-04T12:49:34.848Z</time></trkpt><trkpt lat="44.2050641" lon="11.3265401"><ele>806.75</ele><time>2026-04-04T12:49:35.848Z</time></trkpt><trkpt lat="44.2051588" lon="11.3265062"><ele>806.5</ele><time>2026-04-04T12:49:36.848Z</time></trkpt><trkpt lat="44.2052739" lon="11.3264786"><ele>806.25</ele><time>2026-04-04T12:49:37.847Z</time></trkpt><trkpt lat="44.2054128" lon="11.3264263"><ele>806.0</ele><time>2026-04-04T12:49:38.848Z</time></trkpt><trkpt lat="44.2055711" lon="11.3263237"><ele>804.6666666666667</ele><time>2026-04-04T12:49:39.848Z</time></trkpt><trkpt lat="44.2057409" lon="11.3262065"><ele>803.3333333333333</ele><time>2026-04-04T12:49:40.848Z</time></trkpt><trkpt lat="44.2059072" lon="11.3261133"><ele>802.0</ele><time>2026-04-04T12:49:41.847Z</time></trkpt><trkpt lat="44.2060679" lon="11.3260319"><ele>802.0</ele><time>2026-04-04T12:49:42.847Z</time></trkpt><trkpt lat="44.2062191" lon="11.3259583"><ele>802.0</ele><time>2026-04-04T12:49:43.846Z</time></trkpt><trkpt lat="44.206354" lon="11.3258885"><ele>802.0</ele><time>2026-04-04T12:49:44.847Z</time></trkpt><trkpt lat="44.2064811" lon="11.3258347"><ele>802.0</ele><time>2026-04-04T12:49:45.847Z</time></trkpt><trkpt lat="44.2065982" lon="11.3257897"><ele>802.1666666666666</ele><time>2026-04-04T12:49:46.848Z</time></trkpt><trkpt lat="44.2067079" lon="11.325756"><ele>802.3333333333333</ele><time>2026-04-04T12:49:47.848Z</time></trkpt><trkpt lat="44.2068061" lon="11.3257285"><ele>802.5</ele><time>2026-04-04T12:49:48.847Z</time></trkpt><trkpt lat="44.2068899" lon="11.3257145"><ele>802.6666666666667</ele><time>2026-04-04T12:49:49.848Z</time></trkpt><trkpt lat="44.206951" lon="11.3256913"><ele>802.8333333333334</ele><time>2026-04-04T12:49:50.848Z</time></trkpt><trkpt lat="44.206983" lon="11.3256087"><ele>803.0</ele><time>2026-04-04T12:49:52.848Z</time></trkpt><trkpt lat="44.2068844" lon="11.3255971"><ele>803.0</ele><time>2026-04-04T12:49:55.847Z</time></trkpt><trkpt lat="44.2068009" lon="11.3256458"><ele>803.0</ele><time>2026-04-04T12:49:56.848Z</time></trkpt><trkpt lat="44.2067089" lon="11.3256972"><ele>803.0</ele><time>2026-04-04T12:49:57.846Z</time></trkpt><trkpt lat="44.2065988" lon="11.3257488"><ele>803.0</ele><time>2026-04-04T12:49:58.847Z</time></trkpt><trkpt lat="44.2064755" lon="11.3258032"><ele>803.0</ele><time>2026-04-04T12:49:59.848Z</time></trkpt><trkpt lat="44.2063558" lon="11.3258578"><ele>802.75</ele><time>2026-04-04T12:50:00.846Z</time></trkpt><trkpt lat="44.2062392" lon="11.3259177"><ele>802.5</ele><time>2026-04-04T12:50:01.847Z</time></trkpt><trkpt lat="44.2061227" lon="11.3259833"><ele>802.25</ele><time>2026-04-04T12:50:02.847Z</time></trkpt><trkpt lat="44.2060064" lon="11.3260428"><ele>802.0</ele><time>2026-04-04T12:50:03.846Z</time></trkpt><trkpt lat="44.2058919" lon="11.3261044"><ele>802.0</ele><time>2026-04-04T12:50:04.847Z</time></trkpt><trkpt lat="44.2057792" lon="11.326166"><ele>802.0</ele><time>2026-04-04T12:50:05.846Z</time></trkpt><trkpt lat="44.2056709" lon="11.3262318"><ele>802.0</ele><time>2026-04-04T12:50:06.847Z</time></trkpt><trkpt lat="44.2055715" lon="11.3262972"><ele>802.0</ele><time>2026-04-04T12:50:07.847Z</time></trkpt><trkpt lat="44.2054862" lon="11.3263536"><ele>802.0</ele><time>2026-04-04T12:50:08.848Z</time></trkpt><trkpt lat="44.2054015" lon="11.3263878"><ele>802.0</ele><time>2026-04-04T12:50:09.847Z</time></trkpt><trkpt lat="44.2053259" lon="11.3263924"><ele>802.0</ele><time>2026-04-04T12:50:10.848Z</time></trkpt><trkpt lat="44.2052563" lon="11.3263554"><ele>802.0</ele><time>2026-04-04T12:50:11.847Z</time></trkpt><trkpt lat="44.2051841" lon="11.3262784"><ele>802.0</ele><time>2026-04-04T12:50:12.848Z</time></trkpt><trkpt lat="44.2051091" lon="11.3261674"><ele>802.0</ele><time>2026-04-04T12:50:13.847Z</time></trkpt><trkpt lat="44.2050212" lon="11.3260302"><ele>802.0</ele><time>2026-04-04T12:50:14.846Z</time></trkpt><trkpt lat="44.2048893" lon="11.3259032"><ele>802.0</ele><time>2026-04-04T12:50:15.846Z</time></trkpt><trkpt lat="44.2047667" lon="11.3257935"><ele>802.0</ele><time>2026-04-04T12:50:16.848Z</time></trkpt><trkpt lat="44.2046468" lon="11.3256968"><ele>802.0</ele><time>2026-04-04T12:50:17.848Z</time></trkpt><trkpt lat="44.2045133" lon="11.3256248"><ele>802.3333333333333</ele><time>2026-04-04T12:50:18.848Z</time></trkpt><trkpt lat="44.2043587" lon="11.3255792"><ele>802.6666666666667</ele><time>2026-04-04T12:50:19.848Z</time></trkpt><trkpt lat="44.2041888" lon="11.3255416"><ele>803.0</ele><time>2026-04-04T12:50:20.848Z</time></trkpt><trkpt lat="44.2040109" lon="11.3255017"><ele>801.3333333333334</ele><time>2026-04-04T12:50:21.848Z</time></trkpt><trkpt lat="44.2038426" lon="11.3254638"><ele>799.6666666666667</ele><time>2026-04-04T12:50:22.847Z</time></trkpt><trkpt lat="44.2036822" lon="11.3254124"><ele>798.0</ele><time>2026-04-04T12:50:23.847Z</time></trkpt><trkpt lat="44.2035414" lon="11.3253279"><ele>798.0</ele><time>2026-04-04T12:50:24.848Z</time></trkpt><trkpt lat="44.2034304" lon="11.3251988"><ele>798.0</ele><time>2026-04-04T12:50:25.847Z</time></trkpt><trkpt lat="44.2033487" lon="11.3250341"><ele>798.0</ele><time>2026-04-04T12:50:26.848Z</time></trkpt><trkpt lat="44.2032835" lon="11.324845"><ele>798.0</ele><time>2026-04-04T12:50:27.848Z</time></trkpt><trkpt lat="44.2032114" lon="11.3246704"><ele>797.25</ele><time>2026-04-04T12:50:28.848Z</time></trkpt><trkpt lat="44.2031282" lon="11.3245284"><ele>796.5</ele><time>2026-04-04T12:50:29.848Z</time></trkpt><trkpt lat="44.2030272" lon="11.3244316"><ele>795.75</ele><time>2026-04-04T12:50:30.847Z</time></trkpt><trkpt lat="44.2029098" lon="11.3243872"><ele>795.0</ele><time>2026-04-04T12:50:31.848Z</time></trkpt><trkpt lat="44.2027733" lon="11.3243988"><ele>795.0</ele><time>2026-04-04T12:50:32.848Z</time></trkpt><trkpt lat="44.2026207" lon="11.3244429"><ele>795.0</ele><time>2026-04-04T12:50:33.848Z</time></trkpt><trkpt lat="44.2024573" lon="11.3244822"><ele>795.0</ele><time>2026-04-04T12:50:34.848Z</time></trkpt><trkpt lat="44.202306" lon="11.3245174"><ele>796.25</ele><time>2026-04-04T12:50:35.848Z</time></trkpt><trkpt lat="44.2021673" lon="11.3245542"><ele>797.5</ele><time>2026-04-04T12:50:36.847Z</time></trkpt><trkpt lat="44.2020316" lon="11.3245679"><ele>798.75</ele><time>2026-04-04T12:50:37.848Z</time></trkpt><trkpt lat="44.2018901" lon="11.3245423"><ele>800.0</ele><time>2026-04-04T12:50:38.847Z</time></trkpt><trkpt lat="44.2017534" lon="11.3244955"><ele>800.0</ele><time>2026-04-04T12:50:39.847Z</time></trkpt><trkpt lat="44.2016266" lon="11.3244537"><ele>800.0</ele><time>2026-04-04T12:50:40.847Z</time></trkpt><trkpt lat="44.2015077" lon="11.3244174"><ele>800.0</ele><time>2026-04-04T12:50:41.847Z</time></trkpt><trkpt lat="44.2013979" lon="11.3243801"><ele>800.0</ele><time>2026-04-04T12:50:42.848Z</time></trkpt><trkpt lat="44.2013098" lon="11.3243028"><ele>802.0</ele><time>2026-04-04T12:50:43.847Z</time></trkpt><trkpt lat="44.2012551" lon="11.3241959"><ele>804.0</ele><time>2026-04-04T12:50:44.847Z</time></trkpt><trkpt lat="44.2012403" lon="11.324075"><ele>806.0</ele><time>2026-04-04T12:50:45.848Z</time></trkpt><trkpt lat="44.201272" lon="11.3239549"><ele>808.0</ele><time>2026-04-04T12:50:46.848Z</time></trkpt><trkpt lat="44.201343" lon="11.3238696"><ele>810.0</ele><time>2026-04-04T12:50:47.847Z</time></trkpt><trkpt lat="44.2014458" lon="11.3238139"><ele>809.0</ele><time>2026-04-04T12:50:48.848Z</time></trkpt><trkpt lat="44.2015686" lon="11.323767"><ele>808.0</ele><time>2026-04-04T12:50:49.848Z</time></trkpt><trkpt lat="44.2017075" lon="11.3236948"><ele>807.0</ele><time>2026-04-04T12:50:50.847Z</time></trkpt><trkpt lat="44.2018435" lon="11.3235834"><ele>806.0</ele><time>2026-04-04T12:50:51.848Z</time></trkpt><trkpt lat="44.2019768" lon="11.3234276"><ele>806.0</ele><time>2026-04-04T12:50:52.847Z</time></trkpt><trkpt lat="44.2021126" lon="11.3232382"><ele>806.0</ele><time>2026-04-04T12:50:53.848Z</time></trkpt><trkpt lat="44.2022341" lon="11.3230491"><ele>806.0</ele><time>2026-04-04T12:50:54.848Z</time></trkpt><trkpt lat="44.202339" lon="11.3228746"><ele>805.5</ele><time>2026-04-04T12:50:55.847Z</time></trkpt><trkpt lat="44.2024272" lon="11.3227048"><ele>805.0</ele><time>2026-04-04T12:50:56.846Z</time></trkpt><trkpt lat="44.2024894" lon="11.3225411"><ele>804.5</ele><time>2026-04-04T12:50:57.847Z</time></trkpt><trkpt lat="44.2025249" lon="11.3223668"><ele>804.0</ele><time>2026-04-04T12:50:58.848Z</time></trkpt><trkpt lat="44.202537" lon="11.3221604"><ele>804.0</ele><time>2026-04-04T12:50:59.847Z</time></trkpt><trkpt lat="44.2025377" lon="11.3219278"><ele>804.0</ele><time>2026-04-04T12:51:00.848Z</time></trkpt><trkpt lat="44.2025242" lon="11.3216707"><ele>804.0</ele><time>2026-04-04T12:51:01.848Z</time></trkpt><trkpt lat="44.2025082" lon="11.321403"><ele>803.0</ele><time>2026-04-04T12:51:02.846Z</time></trkpt><trkpt lat="44.2025003" lon="11.3211438"><ele>802.0</ele><time>2026-04-04T12:51:03.848Z</time></trkpt><trkpt lat="44.202494" lon="11.3209011"><ele>801.0</ele><time>2026-04-04T12:51:04.848Z</time></trkpt><trkpt lat="44.2024852" lon="11.3206804"><ele>802.0</ele><time>2026-04-04T12:51:05.846Z</time></trkpt><trkpt lat="44.2024673" lon="11.3204761"><ele>803.0</ele><time>2026-04-04T12:51:06.848Z</time></trkpt><trkpt lat="44.2024274" lon="11.320293"><ele>804.0</ele><time>2026-04-04T12:51:07.848Z</time></trkpt><trkpt lat="44.2023603" lon="11.3201253"><ele>805.0</ele><time>2026-04-04T12:51:08.846Z</time></trkpt><trkpt lat="44.2022653" lon="11.3199746"><ele>805.0</ele><time>2026-04-04T12:51:09.848Z</time></trkpt><trkpt lat="44.2021515" lon="11.3198573"><ele>805.0</ele><time>2026-04-04T12:51:10.848Z</time></trkpt><trkpt lat="44.2020186" lon="11.3197749"><ele>805.0</ele><time>2026-04-04T12:51:11.848Z</time></trkpt><trkpt lat="44.201875" lon="11.3197399"><ele>805.0</ele><time>2026-04-04T12:51:12.848Z</time></trkpt><trkpt lat="44.2017279" lon="11.319737"><ele>805.0</ele><time>2026-04-04T12:51:13.848Z</time></trkpt><trkpt lat="44.2015868" lon="11.3197615"><ele>805.0</ele><time>2026-04-04T12:51:14.848Z</time></trkpt><trkpt lat="44.2014567" lon="11.319781"><ele>805.0</ele><time>2026-04-04T12:51:15.847Z</time></trkpt><trkpt lat="44.2013388" lon="11.3197719"><ele>805.0</ele><time>2026-04-04T12:51:16.847Z</time></trkpt><trkpt lat="44.2012392" lon="11.3197192"><ele>805.8</ele><time>2026-04-04T12:51:17.846Z</time></trkpt><trkpt lat="44.2011614" lon="11.3196302"><ele>806.6</ele><time>2026-04-04T12:51:18.847Z</time></trkpt><trkpt lat="44.2011181" lon="11.319513"><ele>807.4000000000001</ele><time>2026-04-04T12:51:19.848Z</time></trkpt><trkpt lat="44.201119" lon="11.3193925"><ele>808.2</ele><time>2026-04-04T12:51:20.847Z</time></trkpt><trkpt lat="44.201161" lon="11.319294"><ele>809.0</ele><time>2026-04-04T12:51:21.847Z</time></trkpt><trkpt lat="44.2012432" lon="11.3192006"><ele>809.0</ele><time>2026-04-04T12:51:22.848Z</time></trkpt><trkpt lat="44.2013533" lon="11.3190845"><ele>809.0</ele><time>2026-04-04T12:51:23.848Z</time></trkpt><trkpt lat="44.2014819" lon="11.3189365"><ele>809.0</ele><time>2026-04-04T12:51:24.847Z</time></trkpt><trkpt lat="44.2016367" lon="11.3187637"><ele>806.6666666666667</ele><time>2026-04-04T12:51:25.847Z</time></trkpt><trkpt lat="44.2017956" lon="11.3185774"><ele>804.3333333333333</ele><time>2026-04-04T12:51:26.847Z</time></trkpt><trkpt lat="44.2019425" lon="11.3183954"><ele>802.0</ele><time>2026-04-04T12:51:27.847Z</time></trkpt><trkpt lat="44.2020709" lon="11.3182234"><ele>802.0</ele><time>2026-04-04T12:51:28.847Z</time></trkpt><trkpt lat="44.2021984" lon="11.3180838"><ele>802.0</ele><time>2026-04-04T12:51:29.846Z</time></trkpt><trkpt lat="44.2023393" lon="11.3179949"><ele>802.0</ele><time>2026-04-04T12:51:30.848Z</time></trkpt><trkpt lat="44.2024909" lon="11.3179423"><ele>801.75</ele><time>2026-04-04T12:51:31.847Z</time></trkpt><trkpt lat="44.2026355" lon="11.3179077"><ele>801.5</ele><time>2026-04-04T12:51:32.848Z</time></trkpt><trkpt lat="44.2027703" lon="11.3178667"><ele>801.25</ele><time>2026-04-04T12:51:33.848Z</time></trkpt><trkpt lat="44.2028961" lon="11.3178086"><ele>801.0</ele><time>2026-04-04T12:51:34.848Z</time></trkpt><trkpt lat="44.2030113" lon="11.3176963"><ele>801.0</ele><time>2026-04-04T12:51:35.847Z</time></trkpt><trkpt lat="44.2031158" lon="11.3175318"><ele>801.0</ele><time>2026-04-04T12:51:36.848Z</time></trkpt><trkpt lat="44.203216" lon="11.3173429"><ele>801.0</ele><time>2026-04-04T12:51:37.847Z</time></trkpt><trkpt lat="44.2033093" lon="11.3171411"><ele>797.6666666666667</ele><time>2026-04-04T12:51:38.847Z</time></trkpt><trkpt lat="44.2033846" lon="11.316934"><ele>794.3333333333334</ele><time>2026-04-04T12:51:39.846Z</time></trkpt><trkpt lat="44.2034434" lon="11.3167376"><ele>791.0</ele><time>2026-04-04T12:51:40.847Z</time></trkpt><trkpt lat="44.2034882" lon="11.3165489"><ele>792.0</ele><time>2026-04-04T12:51:41.847Z</time></trkpt><trkpt lat="44.2035203" lon="11.3163707"><ele>793.0</ele><time>2026-04-04T12:51:42.847Z</time></trkpt><trkpt lat="44.2035377" lon="11.3162041"><ele>794.0</ele><time>2026-04-04T12:51:43.847Z</time></trkpt><trkpt lat="44.2035464" lon="11.3160491"><ele>795.0</ele><time>2026-04-04T12:51:44.847Z</time></trkpt><trkpt lat="44.2035468" lon="11.3159045"><ele>795.0</ele><time>2026-04-04T12:51:45.847Z</time></trkpt><trkpt lat="44.20354" lon="11.3157624"><ele>795.0</ele><time>2026-04-04T12:51:46.847Z</time></trkpt><trkpt lat="44.2035224" lon="11.3156226"><ele>795.0</ele><time>2026-04-04T12:51:47.847Z</time></trkpt><trkpt lat="44.2034986" lon="11.3154897"><ele>795.0</ele><time>2026-04-04T12:51:48.847Z</time></trkpt><trkpt lat="44.2034764" lon="11.3153635"><ele>795.0</ele><time>2026-04-04T12:51:49.846Z</time></trkpt><trkpt lat="44.2034522" lon="11.3152434"><ele>794.1666666666666</ele><time>2026-04-04T12:51:50.846Z</time></trkpt><trkpt lat="44.2034265" lon="11.3151258"><ele>793.3333333333333</ele><time>2026-04-04T12:51:51.847Z</time></trkpt><trkpt lat="44.203398" lon="11.315012"><ele>792.5</ele><time>2026-04-04T12:51:52.847Z</time></trkpt><trkpt lat="44.2033648" lon="11.3149031"><ele>791.6666666666666</ele><time>2026-04-04T12:51:53.846Z</time></trkpt><trkpt lat="44.2033217" lon="11.3148037"><ele>790.8333333333333</ele><time>2026-04-04T12:51:54.847Z</time></trkpt><trkpt lat="44.2032688" lon="11.3147248"><ele>790.0</ele><time>2026-04-04T12:51:55.847Z</time></trkpt><trkpt lat="44.2032044" lon="11.3146569"><ele>788.5</ele><time>2026-04-04T12:51:56.847Z</time></trkpt><trkpt lat="44.2031256" lon="11.3145864"><ele>787.0</ele><time>2026-04-04T12:51:57.847Z</time></trkpt><trkpt lat="44.2030365" lon="11.314512"><ele>785.5</ele><time>2026-04-04T12:51:58.847Z</time></trkpt><trkpt lat="44.202925" lon="11.3144417"><ele>784.0</ele><time>2026-04-04T12:51:59.846Z</time></trkpt><trkpt lat="44.202794" lon="11.3143938"><ele>784.0</ele><time>2026-04-04T12:52:00.847Z</time></trkpt><trkpt lat="44.2026403" lon="11.314368"><ele>784.0</ele><time>2026-04-04T12:52:01.847Z</time></trkpt><trkpt lat="44.2024788" lon="11.3143535"><ele>784.0</ele><time>2026-04-04T12:52:02.847Z</time></trkpt><trkpt lat="44.2023167" lon="11.3143456"><ele>782.3333333333333</ele><time>2026-04-04T12:52:03.847Z</time></trkpt><trkpt lat="44.202153" lon="11.3143457"><ele>780.6666666666667</ele><time>2026-04-04T12:52:04.847Z</time></trkpt><trkpt lat="44.201985" lon="11.3143684"><ele>779.0</ele><time>2026-04-04T12:52:05.847Z</time></trkpt><trkpt lat="44.201813" lon="11.3144048"><ele>779.0</ele><time>2026-04-04T12:52:06.846Z</time></trkpt><trkpt lat="44.2016399" lon="11.3144447"><ele>779.0</ele><time>2026-04-04T12:52:07.846Z</time></trkpt><trkpt lat="44.2014724" lon="11.3144806"><ele>779.0</ele><time>2026-04-04T12:52:08.846Z</time></trkpt><trkpt lat="44.2013124" lon="11.3145042"><ele>777.0</ele><time>2026-04-04T12:52:09.847Z</time></trkpt><trkpt lat="44.2011523" lon="11.314504"><ele>775.0</ele><time>2026-04-04T12:52:10.846Z</time></trkpt><trkpt lat="44.2009989" lon="11.3144722"><ele>773.0</ele><time>2026-04-04T12:52:11.847Z</time></trkpt><trkpt lat="44.200856" lon="11.3143804"><ele>773.0</ele><time>2026-04-04T12:52:12.845Z</time></trkpt><trkpt lat="44.2007308" lon="11.3142394"><ele>773.0</ele><time>2026-04-04T12:52:13.846Z</time></trkpt><trkpt lat="44.2006337" lon="11.3140604"><ele>773.0</ele><time>2026-04-04T12:52:14.847Z</time></trkpt><trkpt lat="44.2005483" lon="11.3138627"><ele>771.0</ele><time>2026-04-04T12:52:15.847Z</time></trkpt><trkpt lat="44.2004616" lon="11.313676"><ele>769.0</ele><time>2026-04-04T12:52:16.846Z</time></trkpt><trkpt lat="44.2003416" lon="11.3135347"><ele>767.0</ele><time>2026-04-04T12:52:17.847Z</time></trkpt><trkpt lat="44.2001939" lon="11.3134238"><ele>767.0</ele><time>2026-04-04T12:52:18.847Z</time></trkpt><trkpt lat="44.2000182" lon="11.3133394"><ele>767.0</ele><time>2026-04-04T12:52:19.846Z</time></trkpt><trkpt lat="44.1998256" lon="11.3132502"><ele>767.0</ele><time>2026-04-04T12:52:20.846Z</time></trkpt><trkpt lat="44.1996154" lon="11.3131492"><ele>762.6666666666666</ele><time>2026-04-04T12:52:21.845Z</time></trkpt><trkpt lat="44.1994184" lon="11.313059"><ele>758.3333333333334</ele><time>2026-04-04T12:52:22.847Z</time></trkpt><trkpt lat="44.1992469" lon="11.3129779"><ele>754.0</ele><time>2026-04-04T12:52:23.847Z</time></trkpt><trkpt lat="44.1991006" lon="11.3129164"><ele>755.75</ele><time>2026-04-04T12:52:24.847Z</time></trkpt><trkpt lat="44.1989674" lon="11.3129007"><ele>757.5</ele><time>2026-04-04T12:52:25.847Z</time></trkpt><trkpt lat="44.1988316" lon="11.3129473"><ele>759.25</ele><time>2026-04-04T12:52:26.846Z</time></trkpt><trkpt lat="44.1987112" lon="11.3130423"><ele>761.0</ele><time>2026-04-04T12:52:27.846Z</time></trkpt><trkpt lat="44.1986053" lon="11.3131345"><ele>761.0</ele><time>2026-04-04T12:52:28.846Z</time></trkpt><trkpt lat="44.1984924" lon="11.313172"><ele>761.0</ele><time>2026-04-04T12:52:29.847Z</time></trkpt><trkpt lat="44.1983902" lon="11.3131425"><ele>761.0</ele><time>2026-04-04T12:52:30.846Z</time></trkpt><trkpt lat="44.1983168" lon="11.3130547"><ele>761.0</ele><time>2026-04-04T12:52:31.846Z</time></trkpt><trkpt lat="44.198255" lon="11.3129188"><ele>761.0</ele><time>2026-04-04T12:52:32.846Z</time></trkpt><trkpt lat="44.1981771" lon="11.3127689"><ele>764.3333333333333</ele><time>2026-04-04T12:52:33.846Z</time></trkpt><trkpt lat="44.198057" lon="11.3126423"><ele>767.6666666666666</ele><time>2026-04-04T12:52:34.846Z</time></trkpt><trkpt lat="44.1979103" lon="11.31254"><ele>771.0</ele><time>2026-04-04T12:52:35.846Z</time></trkpt><trkpt lat="44.1977554" lon="11.3124501"><ele>771.0</ele><time>2026-04-04T12:52:36.845Z</time></trkpt><trkpt lat="44.1976231" lon="11.3123675"><ele>771.0</ele><time>2026-04-04T12:52:37.847Z</time></trkpt><trkpt lat="44.1975095" lon="11.3122934"><ele>771.0</ele><time>2026-04-04T12:52:38.846Z</time></trkpt><trkpt lat="44.1974223" lon="11.3122123"><ele>771.0</ele><time>2026-04-04T12:52:39.846Z</time></trkpt><trkpt lat="44.1973665" lon="11.3121031"><ele>771.4</ele><time>2026-04-04T12:52:40.847Z</time></trkpt><trkpt lat="44.1973511" lon="11.3119866"><ele>771.8</ele><time>2026-04-04T12:52:41.846Z</time></trkpt><trkpt lat="44.1973737" lon="11.3118592"><ele>772.1999999999999</ele><time>2026-04-04T12:52:42.846Z</time></trkpt><trkpt lat="44.1974376" lon="11.31173"><ele>772.5999999999999</ele><time>2026-04-04T12:52:43.845Z</time></trkpt><trkpt lat="44.197517" lon="11.3115819"><ele>773.0</ele><time>2026-04-04T12:52:44.847Z</time></trkpt><trkpt lat="44.1976038" lon="11.311404"><ele>773.0</ele><time>2026-04-04T12:52:45.847Z</time></trkpt><trkpt lat="44.1976844" lon="11.3112156"><ele>773.0</ele><time>2026-04-04T12:52:46.847Z</time></trkpt><trkpt lat="44.1977411" lon="11.3110016"><ele>773.0</ele><time>2026-04-04T12:52:47.847Z</time></trkpt><trkpt lat="44.1977645" lon="11.3107714"><ele>772.6666666666667</ele><time>2026-04-04T12:52:48.847Z</time></trkpt><trkpt lat="44.1977504" lon="11.3105278"><ele>772.3333333333333</ele><time>2026-04-04T12:52:49.846Z</time></trkpt><trkpt lat="44.1977024" lon="11.3102754"><ele>772.0</ele><time>2026-04-04T12:52:50.847Z</time></trkpt><trkpt lat="44.1976628" lon="11.3100078"><ele>771.0</ele><time>2026-04-04T12:52:51.847Z</time></trkpt><trkpt lat="44.1976443" lon="11.3097179"><ele>770.0</ele><time>2026-04-04T12:52:52.847Z</time></trkpt><trkpt lat="44.1976346" lon="11.3094552"><ele>769.0</ele><time>2026-04-04T12:52:53.847Z</time></trkpt><trkpt lat="44.1976319" lon="11.3092201"><ele>769.0</ele><time>2026-04-04T12:52:54.846Z</time></trkpt><trkpt lat="44.1976504" lon="11.3090174"><ele>769.0</ele><time>2026-04-04T12:52:55.846Z</time></trkpt><trkpt lat="44.1977043" lon="11.3088597"><ele>769.0</ele><time>2026-04-04T12:52:56.847Z</time></trkpt><trkpt lat="44.1977865" lon="11.308751"><ele>769.0</ele><time>2026-04-04T12:52:57.847Z</time></trkpt><trkpt lat="44.1978862" lon="11.308704"><ele>769.25</ele><time>2026-04-04T12:52:58.847Z</time></trkpt><trkpt lat="44.1979975" lon="11.3087151"><ele>769.5</ele><time>2026-04-04T12:52:59.846Z</time></trkpt><trkpt lat="44.1981153" lon="11.3087776"><ele>769.75</ele><time>2026-04-04T12:53:00.846Z</time></trkpt><trkpt lat="44.1982397" lon="11.3088475"><ele>770.0</ele><time>2026-04-04T12:53:01.847Z</time></trkpt><trkpt lat="44.1983801" lon="11.308862"><ele>770.0</ele><time>2026-04-04T12:53:02.847Z</time></trkpt><trkpt lat="44.1985193" lon="11.3088331"><ele>770.0</ele><time>2026-04-04T12:53:03.846Z</time></trkpt><trkpt lat="44.1986414" lon="11.3087461"><ele>770.0</ele><time>2026-04-04T12:53:04.847Z</time></trkpt><trkpt lat="44.1987399" lon="11.3086029"><ele>770.0</ele><time>2026-04-04T12:53:05.847Z</time></trkpt><trkpt lat="44.1987998" lon="11.3084201"><ele>770.0</ele><time>2026-04-04T12:53:06.846Z</time></trkpt><trkpt lat="44.1988199" lon="11.3082115"><ele>770.0</ele><time>2026-04-04T12:53:07.845Z</time></trkpt><trkpt lat="44.1988165" lon="11.3079807"><ele>770.0</ele><time>2026-04-04T12:53:08.846Z</time></trkpt><trkpt lat="44.1988264" lon="11.3077414"><ele>767.3333333333334</ele><time>2026-04-04T12:53:09.847Z</time></trkpt><trkpt lat="44.1988594" lon="11.3074973"><ele>764.6666666666667</ele><time>2026-04-04T12:53:10.846Z</time></trkpt><trkpt lat="44.1989258" lon="11.3072587"><ele>762.0</ele><time>2026-04-04T12:53:11.847Z</time></trkpt><trkpt lat="44.1990122" lon="11.3070234"><ele>762.0</ele><time>2026-04-04T12:53:12.845Z</time></trkpt><trkpt lat="44.1990829" lon="11.3067987"><ele>762.0</ele><time>2026-04-04T12:53:13.847Z</time></trkpt><trkpt lat="44.1991145" lon="11.3065803"><ele>762.0</ele><time>2026-04-04T12:53:14.847Z</time></trkpt><trkpt lat="44.1991732" lon="11.3063871"><ele>765.0</ele><time>2026-04-04T12:53:15.846Z</time></trkpt><trkpt lat="44.1992702" lon="11.3062243"><ele>768.0</ele><time>2026-04-04T12:53:16.846Z</time></trkpt><trkpt lat="44.1993571" lon="11.3060737"><ele>771.0</ele><time>2026-04-04T12:53:17.847Z</time></trkpt><trkpt lat="44.1994178" lon="11.305878"><ele>774.0</ele><time>2026-04-04T12:53:18.846Z</time></trkpt><trkpt lat="44.1994699" lon="11.3056473"><ele>777.0</ele><time>2026-04-04T12:53:19.846Z</time></trkpt><trkpt lat="44.1995164" lon="11.305406"><ele>780.0</ele><time>2026-04-04T12:53:20.846Z</time></trkpt><trkpt lat="44.1995593" lon="11.3051864"><ele>783.0</ele><time>2026-04-04T12:53:21.847Z</time></trkpt><trkpt lat="44.1995977" lon="11.3049889"><ele>783.0</ele><time>2026-04-04T12:53:22.845Z</time></trkpt><trkpt lat="44.1996562" lon="11.3048237"><ele>783.0</ele><time>2026-04-04T12:53:23.847Z</time></trkpt><trkpt lat="44.199749" lon="11.304704"><ele>783.0</ele><time>2026-04-04T12:53:24.846Z</time></trkpt><trkpt lat="44.1998554" lon="11.3046055"><ele>783.0</ele><time>2026-04-04T12:53:25.845Z</time></trkpt><trkpt lat="44.1999331" lon="11.3044679"><ele>777.0</ele><time>2026-04-04T12:53:26.846Z</time></trkpt><trkpt lat="44.1999878" lon="11.3042825"><ele>771.0</ele><time>2026-04-04T12:53:27.846Z</time></trkpt><trkpt lat="44.2000043" lon="11.3040728"><ele>765.0</ele><time>2026-04-04T12:53:28.846Z</time></trkpt><trkpt lat="44.2000083" lon="11.3038649"><ele>759.0</ele><time>2026-04-04T12:53:29.846Z</time></trkpt><trkpt lat="44.1999952" lon="11.3036813"><ele>758.0</ele><time>2026-04-04T12:53:30.847Z</time></trkpt><trkpt lat="44.1999412" lon="11.3035277"><ele>757.0</ele><time>2026-04-04T12:53:31.847Z</time></trkpt><trkpt lat="44.1998445" lon="11.3033795"><ele>756.0</ele><time>2026-04-04T12:53:32.847Z</time></trkpt><trkpt lat="44.19974" lon="11.3032386"><ele>755.0</ele><time>2026-04-04T12:53:33.847Z</time></trkpt><trkpt lat="44.1996469" lon="11.3031099"><ele>757.0</ele><time>2026-04-04T12:53:34.847Z</time></trkpt><trkpt lat="44.1995607" lon="11.3029889"><ele>759.0</ele><time>2026-04-04T12:53:35.847Z</time></trkpt><trkpt lat="44.1994849" lon="11.3028733"><ele>761.0</ele><time>2026-04-04T12:53:36.846Z</time></trkpt><trkpt lat="44.1994224" lon="11.3027561"><ele>763.0</ele><time>2026-04-04T12:53:37.846Z</time></trkpt><trkpt lat="44.1993783" lon="11.302633"><ele>765.0</ele><time>2026-04-04T12:53:38.846Z</time></trkpt><trkpt lat="44.1993499" lon="11.3024999"><ele>765.0</ele><time>2026-04-04T12:53:39.845Z</time></trkpt><trkpt lat="44.1993282" lon="11.3023549"><ele>765.0</ele><time>2026-04-04T12:53:40.846Z</time></trkpt><trkpt lat="44.1993097" lon="11.3022029"><ele>765.0</ele><time>2026-04-04T12:53:41.846Z</time></trkpt><trkpt lat="44.1992971" lon="11.3020414"><ele>765.0</ele><time>2026-04-04T12:53:42.846Z</time></trkpt><trkpt lat="44.1992908" lon="11.3018737"><ele>763.0</ele><time>2026-04-04T12:53:43.847Z</time></trkpt><trkpt lat="44.1992948" lon="11.3017084"><ele>761.0</ele><time>2026-04-04T12:53:44.847Z</time></trkpt><trkpt lat="44.1993012" lon="11.3015465"><ele>759.0</ele><time>2026-04-04T12:53:45.845Z</time></trkpt><trkpt lat="44.1992852" lon="11.3013912"><ele>757.0</ele><time>2026-04-04T12:53:46.846Z</time></trkpt><trkpt lat="44.1992406" lon="11.3012472"><ele>755.8</ele><time>2026-04-04T12:53:47.846Z</time></trkpt><trkpt lat="44.1991876" lon="11.3011076"><ele>754.6</ele><time>2026-04-04T12:53:48.845Z</time></trkpt><trkpt lat="44.1991254" lon="11.3009785"><ele>753.4</ele><time>2026-04-04T12:53:49.847Z</time></trkpt><trkpt lat="44.1990661" lon="11.3008567"><ele>752.1999999999999</ele><time>2026-04-04T12:53:50.846Z</time></trkpt><trkpt lat="44.1990219" lon="11.3007344"><ele>751.0</ele><time>2026-04-04T12:53:51.847Z</time></trkpt><trkpt lat="44.1989973" lon="11.3006163"><ele>753.3333333333334</ele><time>2026-04-04T12:53:52.846Z</time></trkpt><trkpt lat="44.1990062" lon="11.3005096"><ele>755.6666666666667</ele><time>2026-04-04T12:53:53.845Z</time></trkpt><trkpt lat="44.1990355" lon="11.3004217"><ele>758.0</ele><time>2026-04-04T12:53:54.846Z</time></trkpt><trkpt lat="44.1990865" lon="11.3003571"><ele>760.3333333333334</ele><time>2026-04-04T12:53:55.845Z</time></trkpt><trkpt lat="44.199144" lon="11.3003031"><ele>762.6666666666666</ele><time>2026-04-04T12:53:56.846Z</time></trkpt><trkpt lat="44.1992222" lon="11.3002455"><ele>765.0</ele><time>2026-04-04T12:53:57.847Z</time></trkpt><trkpt lat="44.1993156" lon="11.3001884"><ele>765.0</ele><time>2026-04-04T12:53:58.847Z</time></trkpt><trkpt lat="44.1994233" lon="11.3001395"><ele>765.0</ele><time>2026-04-04T12:53:59.847Z</time></trkpt><trkpt lat="44.1995296" lon="11.3000975"><ele>765.0</ele><time>2026-04-04T12:54:00.846Z</time></trkpt><trkpt lat="44.1996251" lon="11.3000493"><ele>765.0</ele><time>2026-04-04T12:54:01.845Z</time></trkpt><trkpt lat="44.1996989" lon="11.2999965"><ele>765.0</ele><time>2026-04-04T12:54:02.846Z</time></trkpt><trkpt lat="44.1997573" lon="11.2999184"><ele>765.0</ele><time>2026-04-04T12:54:03.847Z</time></trkpt><trkpt lat="44.1997873" lon="11.2998076"><ele>765.0</ele><time>2026-04-04T12:54:04.846Z</time></trkpt><trkpt lat="44.1997967" lon="11.2996742"><ele>765.0</ele><time>2026-04-04T12:54:05.845Z</time></trkpt><trkpt lat="44.1998024" lon="11.2995308"><ele>765.0</ele><time>2026-04-04T12:54:06.847Z</time></trkpt><trkpt lat="44.1998423" lon="11.2994003"><ele>765.0</ele><time>2026-04-04T12:54:07.847Z</time></trkpt><trkpt lat="44.1999163" lon="11.2992838"><ele>766.5</ele><time>2026-04-04T12:54:08.847Z</time></trkpt><trkpt lat="44.2000067" lon="11.2991655"><ele>768.0</ele><time>2026-04-04T12:54:09.847Z</time></trkpt><trkpt lat="44.2001022" lon="11.2990355"><ele>769.5</ele><time>2026-04-04T12:54:10.846Z</time></trkpt><trkpt lat="44.2001991" lon="11.2988975"><ele>771.0</ele><time>2026-04-04T12:54:11.846Z</time></trkpt><trkpt lat="44.2002951" lon="11.298763"><ele>771.0</ele><time>2026-04-04T12:54:12.846Z</time></trkpt><trkpt lat="44.2003875" lon="11.2986275"><ele>771.0</ele><time>2026-04-04T12:54:13.846Z</time></trkpt><trkpt lat="44.2004665" lon="11.2984884"><ele>771.0</ele><time>2026-04-04T12:54:14.846Z</time></trkpt><trkpt lat="44.2005275" lon="11.2983462"><ele>771.0</ele><time>2026-04-04T12:54:15.846Z</time></trkpt><trkpt lat="44.2005613" lon="11.2981998"><ele>771.0</ele><time>2026-04-04T12:54:16.846Z</time></trkpt><trkpt lat="44.2005679" lon="11.2980443"><ele>771.0</ele><time>2026-04-04T12:54:17.847Z</time></trkpt><trkpt lat="44.2005545" lon="11.2978847"><ele>771.0</ele><time>2026-04-04T12:54:18.847Z</time></trkpt><trkpt lat="44.200538" lon="11.2977222"><ele>771.0</ele><time>2026-04-04T12:54:19.846Z</time></trkpt><trkpt lat="44.2005222" lon="11.2975664"><ele>771.0</ele><time>2026-04-04T12:54:20.847Z</time></trkpt><trkpt lat="44.2005103" lon="11.2974137"><ele>771.0</ele><time>2026-04-04T12:54:21.846Z</time></trkpt><trkpt lat="44.2004906" lon="11.2972684"><ele>771.0</ele><time>2026-04-04T12:54:22.847Z</time></trkpt><trkpt lat="44.2004488" lon="11.2971355"><ele>771.0</ele><time>2026-04-04T12:54:23.847Z</time></trkpt><trkpt lat="44.2003877" lon="11.2970206"><ele>771.0</ele><time>2026-04-04T12:54:24.846Z</time></trkpt><trkpt lat="44.2003073" lon="11.2969307"><ele>770.8</ele><time>2026-04-04T12:54:25.847Z</time></trkpt><trkpt lat="44.2002148" lon="11.2968585"><ele>770.5999999999999</ele><time>2026-04-04T12:54:26.847Z</time></trkpt><trkpt lat="44.2001175" lon="11.2967966"><ele>770.4</ele><time>2026-04-04T12:54:27.847Z</time></trkpt><trkpt lat="44.2000251" lon="11.2967288"><ele>770.2</ele><time>2026-04-04T12:54:28.846Z</time></trkpt><trkpt lat="44.1999572" lon="11.2966367"><ele>770.0</ele><time>2026-04-04T12:54:29.847Z</time></trkpt><trkpt lat="44.1999163" lon="11.296518"><ele>771.0</ele><time>2026-04-04T12:54:30.846Z</time></trkpt><trkpt lat="44.199905" lon="11.2963804"><ele>772.0</ele><time>2026-04-04T12:54:31.846Z</time></trkpt><trkpt lat="44.1999391" lon="11.2962275"><ele>773.0</ele><time>2026-04-04T12:54:32.847Z</time></trkpt><trkpt lat="44.1999959" lon="11.296066"><ele>774.0</ele><time>2026-04-04T12:54:33.846Z</time></trkpt><trkpt lat="44.200061" lon="11.2958924"><ele>774.0</ele><time>2026-04-04T12:54:34.846Z</time></trkpt><trkpt lat="44.2001153" lon="11.2957287"><ele>774.0</ele><time>2026-04-04T12:54:35.846Z</time></trkpt><trkpt lat="44.2001606" lon="11.2955622"><ele>774.0</ele><time>2026-04-04T12:54:36.846Z</time></trkpt><trkpt lat="44.2001772" lon="11.295385"><ele>774.0</ele><time>2026-04-04T12:54:37.846Z</time></trkpt><trkpt lat="44.2001532" lon="11.2951929"><ele>774.0</ele><time>2026-04-04T12:54:38.846Z</time></trkpt><trkpt lat="44.2000975" lon="11.2949885"><ele>774.0</ele><time>2026-04-04T12:54:39.847Z</time></trkpt><trkpt lat="44.2000249" lon="11.2947811"><ele>774.0</ele><time>2026-04-04T12:54:40.847Z</time></trkpt><trkpt lat="44.1999491" lon="11.2945711"><ele>774.0</ele><time>2026-04-04T12:54:41.847Z</time></trkpt><trkpt lat="44.1998863" lon="11.2943591"><ele>774.0</ele><time>2026-04-04T12:54:42.846Z</time></trkpt><trkpt lat="44.1998475" lon="11.2941436"><ele>774.0</ele><time>2026-04-04T12:54:43.847Z</time></trkpt><trkpt lat="44.1998428" lon="11.2939237"><ele>776.0</ele><time>2026-04-04T12:54:44.846Z</time></trkpt><trkpt lat="44.199875" lon="11.293699"><ele>778.0</ele><time>2026-04-04T12:54:45.847Z</time></trkpt><trkpt lat="44.1999475" lon="11.2934807"><ele>780.0</ele><time>2026-04-04T12:54:46.847Z</time></trkpt><trkpt lat="44.2000543" lon="11.2932736"><ele>782.6666666666667</ele><time>2026-04-04T12:54:47.847Z</time></trkpt><trkpt lat="44.2001755" lon="11.2930714"><ele>785.3333333333334</ele><time>2026-04-04T12:54:48.847Z</time></trkpt><trkpt lat="44.2002864" lon="11.2928634"><ele>788.0</ele><time>2026-04-04T12:54:49.847Z</time></trkpt><trkpt lat="44.2003858" lon="11.2926403"><ele>788.0</ele><time>2026-04-04T12:54:50.848Z</time></trkpt><trkpt lat="44.2004794" lon="11.2924012"><ele>788.0</ele><time>2026-04-04T12:54:51.847Z</time></trkpt><trkpt lat="44.2005691" lon="11.2921535"><ele>788.0</ele><time>2026-04-04T12:54:52.847Z</time></trkpt><trkpt lat="44.2006497" lon="11.29191"><ele>788.0</ele><time>2026-04-04T12:54:53.847Z</time></trkpt><trkpt lat="44.2007124" lon="11.2916689"><ele>788.0</ele><time>2026-04-04T12:54:54.847Z</time></trkpt><trkpt lat="44.2007592" lon="11.291442"><ele>788.0</ele><time>2026-04-04T12:54:55.848Z</time></trkpt><trkpt lat="44.2007904" lon="11.2912356"><ele>789.0</ele><time>2026-04-04T12:54:56.848Z</time></trkpt><trkpt lat="44.2008041" lon="11.2910301"><ele>790.0</ele><time>2026-04-04T12:54:57.848Z</time></trkpt><trkpt lat="44.2007901" lon="11.2908135"><ele>791.0</ele><time>2026-04-04T12:54:58.848Z</time></trkpt><trkpt lat="44.2007547" lon="11.2905806"><ele>791.0</ele><time>2026-04-04T12:54:59.846Z</time></trkpt><trkpt lat="44.200711" lon="11.2903305"><ele>791.0</ele><time>2026-04-04T12:55:00.846Z</time></trkpt><trkpt lat="44.2006647" lon="11.2900698"><ele>791.0</ele><time>2026-04-04T12:55:01.846Z</time></trkpt><trkpt lat="44.2006203" lon="11.2897989"><ele>792.6666666666667</ele><time>2026-04-04T12:55:02.846Z</time></trkpt><trkpt lat="44.2005773" lon="11.2895666"><ele>794.3333333333333</ele><time>2026-04-04T12:55:03.846Z</time></trkpt><trkpt lat="44.2005153" lon="11.2893697"><ele>796.0</ele><time>2026-04-04T12:55:04.846Z</time></trkpt><trkpt lat="44.2004282" lon="11.2892036"><ele>796.0</ele><time>2026-04-04T12:55:05.846Z</time></trkpt><trkpt lat="44.2003127" lon="11.2890663"><ele>796.0</ele><time>2026-04-04T12:55:06.846Z</time></trkpt><trkpt lat="44.2001699" lon="11.288971"><ele>796.0</ele><time>2026-04-04T12:55:07.845Z</time></trkpt><trkpt lat="44.2000035" lon="11.2889051"><ele>795.0</ele><time>2026-04-04T12:55:08.846Z</time></trkpt><trkpt lat="44.1998352" lon="11.2888463"><ele>794.0</ele><time>2026-04-04T12:55:09.847Z</time></trkpt><trkpt lat="44.1996759" lon="11.288776"><ele>793.0</ele><time>2026-04-04T12:55:10.845Z</time></trkpt><trkpt lat="44.1995209" lon="11.2886823"><ele>793.0</ele><time>2026-04-04T12:55:11.847Z</time></trkpt><trkpt lat="44.1993799" lon="11.288555"><ele>793.0</ele><time>2026-04-04T12:55:12.847Z</time></trkpt><trkpt lat="44.1992536" lon="11.2883893"><ele>793.0</ele><time>2026-04-04T12:55:13.846Z</time></trkpt><trkpt lat="44.1991332" lon="11.2882137"><ele>790.3333333333333</ele><time>2026-04-04T12:55:14.846Z</time></trkpt><trkpt lat="44.199009" lon="11.2880696"><ele>787.6666666666667</ele><time>2026-04-04T12:55:15.847Z</time></trkpt><trkpt lat="44.198866" lon="11.2879543"><ele>785.0</ele><time>2026-04-04T12:55:16.847Z</time></trkpt><trkpt lat="44.1986995" lon="11.2878762"><ele>785.0</ele><time>2026-04-04T12:55:17.847Z</time></trkpt><trkpt lat="44.198509" lon="11.2878123"><ele>785.0</ele><time>2026-04-04T12:55:18.847Z</time></trkpt><trkpt lat="44.1982946" lon="11.2877462"><ele>785.0</ele><time>2026-04-04T12:55:19.847Z</time></trkpt><trkpt lat="44.1980602" lon="11.2876752"><ele>783.5</ele><time>2026-04-04T12:55:20.847Z</time></trkpt><trkpt lat="44.1978184" lon="11.2876021"><ele>782.0</ele><time>2026-04-04T12:55:21.847Z</time></trkpt><trkpt lat="44.1975897" lon="11.2875352"><ele>782.0</ele><time>2026-04-04T12:55:22.847Z</time></trkpt><trkpt lat="44.1973881" lon="11.287477"><ele>782.0</ele><time>2026-04-04T12:55:23.846Z</time></trkpt><trkpt lat="44.197225" lon="11.2874366"><ele>782.0</ele><time>2026-04-04T12:55:24.846Z</time></trkpt><trkpt lat="44.1970699" lon="11.2874309"><ele>779.25</ele><time>2026-04-04T12:55:25.846Z</time></trkpt><trkpt lat="44.1969335" lon="11.2874893"><ele>776.5</ele><time>2026-04-04T12:55:26.845Z</time></trkpt><trkpt lat="44.1968116" lon="11.2875902"><ele>773.75</ele><time>2026-04-04T12:55:27.844Z</time></trkpt><trkpt lat="44.1966974" lon="11.2876879"><ele>771.0</ele><time>2026-04-04T12:55:28.845Z</time></trkpt><trkpt lat="44.1965613" lon="11.287742"><ele>768.6666666666666</ele><time>2026-04-04T12:55:29.846Z</time></trkpt><trkpt lat="44.1964041" lon="11.2877532"><ele>766.3333333333333</ele><time>2026-04-04T12:55:30.846Z</time></trkpt><trkpt lat="44.1962285" lon="11.2877615"><ele>764.0</ele><time>2026-04-04T12:55:31.845Z</time></trkpt><trkpt lat="44.1960495" lon="11.2877763"><ele>764.0</ele><time>2026-04-04T12:55:32.846Z</time></trkpt><trkpt lat="44.1958842" lon="11.2877879"><ele>764.0</ele><time>2026-04-04T12:55:33.846Z</time></trkpt><trkpt lat="44.195727" lon="11.2878153"><ele>764.0</ele><time>2026-04-04T12:55:34.846Z</time></trkpt><trkpt lat="44.1955917" lon="11.2878713"><ele>764.6</ele><time>2026-04-04T12:55:35.845Z</time></trkpt><trkpt lat="44.195487" lon="11.2879397"><ele>765.2</ele><time>2026-04-04T12:55:36.844Z</time></trkpt><trkpt lat="44.1953873" lon="11.2879542"><ele>765.8000000000001</ele><time>2026-04-04T12:55:37.845Z</time></trkpt><trkpt lat="44.1952929" lon="11.2879005"><ele>766.4000000000001</ele><time>2026-04-04T12:55:38.846Z</time></trkpt><trkpt lat="44.1951987" lon="11.2877866"><ele>767.0</ele><time>2026-04-04T12:55:39.846Z</time></trkpt><trkpt lat="44.1951179" lon="11.2876193"><ele>767.0</ele><time>2026-04-04T12:55:40.844Z</time></trkpt><trkpt lat="44.1950257" lon="11.287424"><ele>767.0</ele><time>2026-04-04T12:55:41.846Z</time></trkpt><trkpt lat="44.1949209" lon="11.2872262"><ele>767.0</ele><time>2026-04-04T12:55:42.846Z</time></trkpt><trkpt lat="44.1948208" lon="11.2870215"><ele>768.3333333333333</ele><time>2026-04-04T12:55:43.846Z</time></trkpt><trkpt lat="44.1947376" lon="11.2868073"><ele>769.6666666666666</ele><time>2026-04-04T12:55:44.846Z</time></trkpt><trkpt lat="44.1946749" lon="11.2865554"><ele>771.0</ele><time>2026-04-04T12:55:45.845Z</time></trkpt><trkpt lat="44.1946295" lon="11.2862734"><ele>771.0</ele><time>2026-04-04T12:55:46.845Z</time></trkpt><trkpt lat="44.1945961" lon="11.285987"><ele>771.0</ele><time>2026-04-04T12:55:47.845Z</time></trkpt><trkpt lat="44.1945635" lon="11.2857275"><ele>771.0</ele><time>2026-04-04T12:55:48.846Z</time></trkpt><trkpt lat="44.1945356" lon="11.2854847"><ele>771.75</ele><time>2026-04-04T12:55:49.846Z</time></trkpt><trkpt lat="44.1945252" lon="11.2852636"><ele>772.5</ele><time>2026-04-04T12:55:50.844Z</time></trkpt><trkpt lat="44.1945527" lon="11.2850684"><ele>773.25</ele><time>2026-04-04T12:55:51.845Z</time></trkpt><trkpt lat="44.1946173" lon="11.2849088"><ele>774.0</ele><time>2026-04-04T12:55:52.845Z</time></trkpt><trkpt lat="44.1947191" lon="11.2847661"><ele>770.3333333333334</ele><time>2026-04-04T12:55:53.845Z</time></trkpt><trkpt lat="44.1948397" lon="11.2846422"><ele>766.6666666666667</ele><time>2026-04-04T12:55:54.845Z</time></trkpt><trkpt lat="44.1949563" lon="11.2845094"><ele>763.0</ele><time>2026-04-04T12:55:55.846Z</time></trkpt><trkpt lat="44.195046" lon="11.2843374"><ele>763.0</ele><time>2026-04-04T12:55:56.846Z</time></trkpt><trkpt lat="44.1951131" lon="11.2841485"><ele>763.0</ele><time>2026-04-04T12:55:57.845Z</time></trkpt><trkpt lat="44.1951236" lon="11.2839294"><ele>763.0</ele><time>2026-04-04T12:55:58.844Z</time></trkpt><trkpt lat="44.1951059" lon="11.2836965"><ele>763.0</ele><time>2026-04-04T12:55:59.845Z</time></trkpt><trkpt lat="44.1950543" lon="11.2834395"><ele>763.0</ele><time>2026-04-04T12:56:00.844Z</time></trkpt><trkpt lat="44.1950064" lon="11.2831983"><ele>763.0</ele><time>2026-04-04T12:56:01.845Z</time></trkpt><trkpt lat="44.1949467" lon="11.2829931"><ele>763.3333333333334</ele><time>2026-04-04T12:56:02.846Z</time></trkpt><trkpt lat="44.1948593" lon="11.2828361"><ele>763.6666666666666</ele><time>2026-04-04T12:56:03.846Z</time></trkpt><trkpt lat="44.1947479" lon="11.2827147"><ele>764.0</ele><time>2026-04-04T12:56:04.845Z</time></trkpt><trkpt lat="44.1945872" lon="11.2826126"><ele>764.0</ele><time>2026-04-04T12:56:05.846Z</time></trkpt><trkpt lat="44.1944107" lon="11.2825001"><ele>764.0</ele><time>2026-04-04T12:56:06.846Z</time></trkpt><trkpt lat="44.1942143" lon="11.2823792"><ele>764.0</ele><time>2026-04-04T12:56:07.845Z</time></trkpt><trkpt lat="44.1940111" lon="11.2822722"><ele>759.3333333333333</ele><time>2026-04-04T12:56:08.845Z</time></trkpt><trkpt lat="44.1937952" lon="11.2821679"><ele>754.6666666666666</ele><time>2026-04-04T12:56:09.846Z</time></trkpt><trkpt lat="44.193587" lon="11.2820757"><ele>750.0</ele><time>2026-04-04T12:56:10.845Z</time></trkpt><trkpt lat="44.1933873" lon="11.2819909"><ele>750.0</ele><time>2026-04-04T12:56:11.846Z</time></trkpt><trkpt lat="44.1931985" lon="11.2819104"><ele>750.0</ele><time>2026-04-04T12:56:12.845Z</time></trkpt><trkpt lat="44.1930268" lon="11.2818094"><ele>750.0</ele><time>2026-04-04T12:56:13.846Z</time></trkpt><trkpt lat="44.1928801" lon="11.2816663"><ele>751.6666666666666</ele><time>2026-04-04T12:56:14.845Z</time></trkpt><trkpt lat="44.1927597" lon="11.2814661"><ele>753.3333333333333</ele><time>2026-04-04T12:56:15.845Z</time></trkpt><trkpt lat="44.1926528" lon="11.2812444"><ele>755.0</ele><time>2026-04-04T12:56:16.846Z</time></trkpt><trkpt lat="44.1925146" lon="11.2810406"><ele>754.0</ele><time>2026-04-04T12:56:17.846Z</time></trkpt><trkpt lat="44.1923482" lon="11.2808469"><ele>753.0</ele><time>2026-04-04T12:56:18.845Z</time></trkpt><trkpt lat="44.1921922" lon="11.2806606"><ele>752.0</ele><time>2026-04-04T12:56:19.846Z</time></trkpt><trkpt lat="44.192046" lon="11.2804795"><ele>750.0</ele><time>2026-04-04T12:56:20.845Z</time></trkpt><trkpt lat="44.1919087" lon="11.2803064"><ele>748.0</ele><time>2026-04-04T12:56:21.846Z</time></trkpt><trkpt lat="44.1917765" lon="11.2801453"><ele>746.0</ele><time>2026-04-04T12:56:22.845Z</time></trkpt><trkpt lat="44.1916465" lon="11.2799998"><ele>746.0</ele><time>2026-04-04T12:56:23.845Z</time></trkpt><trkpt lat="44.1915204" lon="11.2798674"><ele>746.0</ele><time>2026-04-04T12:56:24.846Z</time></trkpt><trkpt lat="44.1913943" lon="11.2797555"><ele>746.0</ele><time>2026-04-04T12:56:25.846Z</time></trkpt><trkpt lat="44.1912576" lon="11.279672"><ele>743.3333333333333</ele><time>2026-04-04T12:56:26.846Z</time></trkpt><trkpt lat="44.1911046" lon="11.2796202"><ele>740.6666666666666</ele><time>2026-04-04T12:56:27.846Z</time></trkpt><trkpt lat="44.1909332" lon="11.2795963"><ele>738.0</ele><time>2026-04-04T12:56:28.846Z</time></trkpt><trkpt lat="44.1907451" lon="11.2795904"><ele>738.0</ele><time>2026-04-04T12:56:29.846Z</time></trkpt><trkpt lat="44.1905609" lon="11.279579"><ele>738.0</ele><time>2026-04-04T12:56:30.846Z</time></trkpt><trkpt lat="44.1903904" lon="11.2795518"><ele>738.0</ele><time>2026-04-04T12:56:31.845Z</time></trkpt><trkpt lat="44.190232" lon="11.2794931"><ele>738.0</ele><time>2026-04-04T12:56:32.845Z</time></trkpt><trkpt lat="44.1900912" lon="11.279407"><ele>738.0</ele><time>2026-04-04T12:56:33.846Z</time></trkpt><trkpt lat="44.1899572" lon="11.2793188"><ele>738.0</ele><time>2026-04-04T12:56:34.845Z</time></trkpt><trkpt lat="44.1898377" lon="11.2792402"><ele>738.0</ele><time>2026-04-04T12:56:35.846Z</time></trkpt><trkpt lat="44.189734" lon="11.2791674"><ele>738.4</ele><time>2026-04-04T12:56:36.846Z</time></trkpt><trkpt lat="44.1896423" lon="11.2790842"><ele>738.8</ele><time>2026-04-04T12:56:37.846Z</time></trkpt><trkpt lat="44.1895596" lon="11.2789816"><ele>739.2</ele><time>2026-04-04T12:56:38.846Z</time></trkpt><trkpt lat="44.1894874" lon="11.2788641"><ele>739.6</ele><time>2026-04-04T12:56:39.846Z</time></trkpt><trkpt lat="44.1894222" lon="11.2787307"><ele>740.0</ele><time>2026-04-04T12:56:40.846Z</time></trkpt><trkpt lat="44.1893684" lon="11.2785825"><ele>740.0</ele><time>2026-04-04T12:56:41.844Z</time></trkpt><trkpt lat="44.1893177" lon="11.2784439"><ele>740.0</ele><time>2026-04-04T12:56:42.846Z</time></trkpt><trkpt lat="44.1892662" lon="11.2783218"><ele>740.0</ele><time>2026-04-04T12:56:43.845Z</time></trkpt><trkpt lat="44.1892089" lon="11.2782168"><ele>740.0</ele><time>2026-04-04T12:56:44.845Z</time></trkpt><trkpt lat="44.1891479" lon="11.2781288"><ele>740.0</ele><time>2026-04-04T12:56:45.846Z</time></trkpt><trkpt lat="44.1890843" lon="11.2780491"><ele>739.5</ele><time>2026-04-04T12:56:46.846Z</time></trkpt><trkpt lat="44.1890177" lon="11.2779776"><ele>739.0</ele><time>2026-04-04T12:56:47.845Z</time></trkpt><trkpt lat="44.1889472" lon="11.2779162"><ele>738.5</ele><time>2026-04-04T12:56:48.845Z</time></trkpt><trkpt lat="44.1888777" lon="11.2778632"><ele>738.0</ele><time>2026-04-04T12:56:49.846Z</time></trkpt><trkpt lat="44.1888056" lon="11.2778181"><ele>737.5</ele><time>2026-04-04T12:56:50.845Z</time></trkpt><trkpt lat="44.1887328" lon="11.2777741"><ele>737.0</ele><time>2026-04-04T12:56:51.846Z</time></trkpt><trkpt lat="44.1886547" lon="11.2777261"><ele>737.0</ele><time>2026-04-04T12:56:52.845Z</time></trkpt><trkpt lat="44.1885693" lon="11.2776714"><ele>737.0</ele><time>2026-04-04T12:56:53.845Z</time></trkpt><trkpt lat="44.1884792" lon="11.2776108"><ele>737.0</ele><time>2026-04-04T12:56:54.845Z</time></trkpt><trkpt lat="44.1883777" lon="11.2775451"><ele>737.0</ele><time>2026-04-04T12:56:55.846Z</time></trkpt><trkpt lat="44.1882719" lon="11.2774794"><ele>737.0</ele><time>2026-04-04T12:56:56.846Z</time></trkpt><trkpt lat="44.18817" lon="11.2774165"><ele>738.5</ele><time>2026-04-04T12:56:57.846Z</time></trkpt><trkpt lat="44.1880635" lon="11.2773474"><ele>740.0</ele><time>2026-04-04T12:56:58.846Z</time></trkpt><trkpt lat="44.187956" lon="11.2772786"><ele>741.5</ele><time>2026-04-04T12:56:59.846Z</time></trkpt><trkpt lat="44.1878472" lon="11.2772091"><ele>743.0</ele><time>2026-04-04T12:57:00.845Z</time></trkpt><trkpt lat="44.1877306" lon="11.2771326"><ele>737.75</ele><time>2026-04-04T12:57:01.845Z</time></trkpt><trkpt lat="44.1876122" lon="11.2770463"><ele>732.5</ele><time>2026-04-04T12:57:02.846Z</time></trkpt><trkpt lat="44.1875002" lon="11.2769483"><ele>727.25</ele><time>2026-04-04T12:57:03.845Z</time></trkpt><trkpt lat="44.1874004" lon="11.2768383"><ele>722.0</ele><time>2026-04-04T12:57:04.845Z</time></trkpt><trkpt lat="44.1873035" lon="11.2767281"><ele>720.0</ele><time>2026-04-04T12:57:05.845Z</time></trkpt><trkpt lat="44.1872044" lon="11.2766257"><ele>718.0</ele><time>2026-04-04T12:57:06.845Z</time></trkpt><trkpt lat="44.1871016" lon="11.2765374"><ele>716.0</ele><time>2026-04-04T12:57:07.845Z</time></trkpt><trkpt lat="44.1869911" lon="11.276483"><ele>714.0</ele><time>2026-04-04T12:57:08.845Z</time></trkpt><trkpt lat="44.1868786" lon="11.2764717"><ele>714.0</ele><time>2026-04-04T12:57:09.846Z</time></trkpt><trkpt lat="44.1867821" lon="11.2765188"><ele>714.0</ele><time>2026-04-04T12:57:10.846Z</time></trkpt><trkpt lat="44.1866961" lon="11.2765952"><ele>714.0</ele><time>2026-04-04T12:57:11.846Z</time></trkpt><trkpt lat="44.1866354" lon="11.2767295"><ele>714.0</ele><time>2026-04-04T12:57:12.846Z</time></trkpt><trkpt lat="44.1866093" lon="11.276883"><ele>714.0</ele><time>2026-04-04T12:57:13.846Z</time></trkpt><trkpt lat="44.1865819" lon="11.2770378"><ele>714.0</ele><time>2026-04-04T12:57:14.846Z</time></trkpt><trkpt lat="44.1865358" lon="11.2771742"><ele>714.0</ele><time>2026-04-04T12:57:15.845Z</time></trkpt><trkpt lat="44.1864569" lon="11.2772704"><ele>714.0</ele><time>2026-04-04T12:57:16.846Z</time></trkpt><trkpt lat="44.186354" lon="11.2773468"><ele>714.0</ele><time>2026-04-04T12:57:17.846Z</time></trkpt><trkpt lat="44.1862327" lon="11.2773905"><ele>713.75</ele><time>2026-04-04T12:57:18.845Z</time></trkpt><trkpt lat="44.1861066" lon="11.2774461"><ele>713.5</ele><time>2026-04-04T12:57:19.846Z</time></trkpt><trkpt lat="44.1859885" lon="11.2775161"><ele>713.25</ele><time>2026-04-04T12:57:20.846Z</time></trkpt><trkpt lat="44.1858703" lon="11.2775685"><ele>713.0</ele><time>2026-04-04T12:57:21.846Z</time></trkpt><trkpt lat="44.1857543" lon="11.2775841"><ele>712.5</ele><time>2026-04-04T12:57:22.845Z</time></trkpt><trkpt lat="44.1856315" lon="11.2775273"><ele>712.0</ele><time>2026-04-04T12:57:23.845Z</time></trkpt><trkpt lat="44.1855163" lon="11.2774553"><ele>711.5</ele><time>2026-04-04T12:57:24.845Z</time></trkpt><trkpt lat="44.1854114" lon="11.277378"><ele>711.0</ele><time>2026-04-04T12:57:25.845Z</time></trkpt><trkpt lat="44.1853078" lon="11.2773084"><ele>708.4</ele><time>2026-04-04T12:57:26.846Z</time></trkpt><trkpt lat="44.1852042" lon="11.2772477"><ele>705.8</ele><time>2026-04-04T12:57:27.846Z</time></trkpt><trkpt lat="44.1851086" lon="11.2771837"><ele>703.1999999999999</ele><time>2026-04-04T12:57:28.846Z</time></trkpt><trkpt lat="44.1850213" lon="11.2771121"><ele>700.5999999999999</ele><time>2026-04-04T12:57:29.846Z</time></trkpt><trkpt lat="44.1849431" lon="11.277029"><ele>698.0</ele><time>2026-04-04T12:57:30.845Z</time></trkpt><trkpt lat="44.1848764" lon="11.2769348"><ele>698.4</ele><time>2026-04-04T12:57:31.845Z</time></trkpt><trkpt lat="44.184819" lon="11.2768276"><ele>698.8</ele><time>2026-04-04T12:57:32.846Z</time></trkpt><trkpt lat="44.1847637" lon="11.2767207"><ele>699.2</ele><time>2026-04-04T12:57:33.846Z</time></trkpt><trkpt lat="44.1847111" lon="11.276619"><ele>699.6</ele><time>2026-04-04T12:57:34.845Z</time></trkpt><trkpt lat="44.1846591" lon="11.2765192"><ele>700.0</ele><time>2026-04-04T12:57:35.845Z</time></trkpt><trkpt lat="44.1846058" lon="11.2764214"><ele>698.5</ele><time>2026-04-04T12:57:36.845Z</time></trkpt><trkpt lat="44.1845488" lon="11.276333"><ele>697.0</ele><time>2026-04-04T12:57:37.846Z</time></trkpt><trkpt lat="44.1844817" lon="11.2762638"><ele>695.5</ele><time>2026-04-04T12:57:38.845Z</time></trkpt><trkpt lat="44.1844011" lon="11.2762233"><ele>694.0</ele><time>2026-04-04T12:57:39.845Z</time></trkpt><trkpt lat="44.184316" lon="11.2762043"><ele>692.5</ele><time>2026-04-04T12:57:40.845Z</time></trkpt><trkpt lat="44.184231" lon="11.2761963"><ele>691.0</ele><time>2026-04-04T12:57:41.845Z</time></trkpt><trkpt lat="44.1841537" lon="11.2761882"><ele>691.0</ele><time>2026-04-04T12:57:42.845Z</time></trkpt><trkpt lat="44.184088" lon="11.2761704"><ele>691.0</ele><time>2026-04-04T12:57:43.845Z</time></trkpt><trkpt lat="44.1840077" lon="11.2761239"><ele>691.0</ele><time>2026-04-04T12:57:45.846Z</time></trkpt><trkpt lat="44.1839588" lon="11.2760168"><ele>691.0</ele><time>2026-04-04T12:57:48.846Z</time></trkpt><trkpt lat="44.1839114" lon="11.2759252"><ele>691.0</ele><time>2026-04-04T12:57:51.845Z</time></trkpt><trkpt lat="44.1838492" lon="11.2758352"><ele>691.0</ele><time>2026-04-04T12:57:54.845Z</time></trkpt><trkpt lat="44.1838058" lon="11.2757521"><ele>691.3333333333334</ele><time>2026-04-04T12:57:56.845Z</time></trkpt><trkpt lat="44.1837717" lon="11.2756756"><ele>691.6666666666667</ele><time>2026-04-04T12:57:58.846Z</time></trkpt><trkpt lat="44.1837259" lon="11.2755695"><ele>692.0</ele><time>2026-04-04T12:58:00.846Z</time></trkpt><trkpt lat="44.1836508" lon="11.2754184"><ele>692.3333333333334</ele><time>2026-04-04T12:58:02.845Z</time></trkpt><trkpt lat="44.1836164" lon="11.2753377"><ele>692.6666666666666</ele><time>2026-04-04T12:58:03.845Z</time></trkpt><trkpt lat="44.1835924" lon="11.2752533"><ele>693.0</ele><time>2026-04-04T12:58:04.846Z</time></trkpt><trkpt lat="44.1835959" lon="11.2751655"><ele>695.2</ele><time>2026-04-04T12:58:05.845Z</time></trkpt><trkpt lat="44.1836261" lon="11.2750651"><ele>697.4</ele><time>2026-04-04T12:58:06.846Z</time></trkpt><trkpt lat="44.1836758" lon="11.2749521"><ele>699.6</ele><time>2026-04-04T12:58:07.845Z</time></trkpt><trkpt lat="44.183737" lon="11.2748043"><ele>701.8000000000001</ele><time>2026-04-04T12:58:08.846Z</time></trkpt><trkpt lat="44.183779" lon="11.2746369"><ele>704.0</ele><time>2026-04-04T12:58:09.846Z</time></trkpt><trkpt lat="44.1838114" lon="11.27444"><ele>703.6</ele><time>2026-04-04T12:58:10.846Z</time></trkpt><trkpt lat="44.1838427" lon="11.2742824"><ele>703.2</ele><time>2026-04-04T12:58:11.845Z</time></trkpt><trkpt lat="44.1838683" lon="11.2741897"><ele>702.8000000000001</ele><time>2026-04-04T12:58:12.846Z</time></trkpt><trkpt lat="44.1839337" lon="11.2741324"><ele>702.4000000000001</ele><time>2026-04-04T12:58:14.844Z</time></trkpt><trkpt lat="44.1840608" lon="11.2741747"><ele>702.0</ele><time>2026-04-04T12:58:16.846Z</time></trkpt><trkpt lat="44.1841291" lon="11.2741801"><ele>702.0000000000001</ele><time>2026-04-04T12:58:17.845Z</time></trkpt><trkpt lat="44.1841924" lon="11.2741517"><ele>702.0</ele><time>2026-04-04T12:58:18.845Z</time></trkpt><trkpt lat="44.1842593" lon="11.2740818"><ele>702.0</ele><time>2026-04-04T12:58:19.845Z</time></trkpt><trkpt lat="44.1843252" lon="11.2740116"><ele>702.0</ele><time>2026-04-04T12:58:20.846Z</time></trkpt><trkpt lat="44.1843836" lon="11.2739504"><ele>702.0</ele><time>2026-04-04T12:58:21.846Z</time></trkpt><trkpt lat="44.1844415" lon="11.2738992"><ele>702.0000000000001</ele><time>2026-04-04T12:58:22.844Z</time></trkpt><trkpt lat="44.184503" lon="11.2738641"><ele>702.0</ele><time>2026-04-04T12:58:23.845Z</time></trkpt><trkpt lat="44.1845683" lon="11.27385"><ele>702.0</ele><time>2026-04-04T12:58:24.845Z</time></trkpt><trkpt lat="44.1846417" lon="11.2738552"><ele>702.0</ele><time>2026-04-04T12:58:25.845Z</time></trkpt><trkpt lat="44.1847163" lon="11.2738847"><ele>702.0</ele><time>2026-04-04T12:58:26.846Z</time></trkpt><trkpt lat="44.1847891" lon="11.2739427"><ele>702.0</ele><time>2026-04-04T12:58:27.845Z</time></trkpt><trkpt lat="44.1848497" lon="11.2740142"><ele>702.0</ele><time>2026-04-04T12:58:28.846Z</time></trkpt><trkpt lat="44.1849195" lon="11.2741297"><ele>702.0</ele><time>2026-04-04T12:58:30.846Z</time></trkpt><trkpt lat="44.1849742" lon="11.2742075"><ele>700.0</ele><time>2026-04-04T12:58:33.845Z</time></trkpt></trkseg><trkseg><trkpt lat="44.1849602" lon="11.2740439"><ele>700.0</ele><time>2026-04-04T13:08:51.841Z</time></trkpt><trkpt lat="44.1848897" lon="11.2739861"><ele>700.0</ele><time>2026-04-04T13:08:52.843Z</time></trkpt><trkpt lat="44.1848161" lon="11.2739373"><ele>700.0</ele><time>2026-04-04T13:08:53.843Z</time></trkpt><trkpt lat="44.1847392" lon="11.2738896"><ele>700.0</ele><time>2026-04-04T13:08:54.842Z</time></trkpt><trkpt lat="44.184659" lon="11.2738464"><ele>700.0</ele><time>2026-04-04T13:08:55.842Z</time></trkpt><trkpt lat="44.1845835" lon="11.273827"><ele>700.0</ele><time>2026-04-04T13:08:56.843Z</time></trkpt><trkpt lat="44.1845134" lon="11.2738395"><ele>700.3333333333334</ele><time>2026-04-04T13:08:57.842Z</time></trkpt><trkpt lat="44.1844487" lon="11.2738737"><ele>700.6666666666667</ele><time>2026-04-04T13:08:58.843Z</time></trkpt><trkpt lat="44.1843889" lon="11.2739381"><ele>701.0</ele><time>2026-04-04T13:08:59.843Z</time></trkpt><trkpt lat="44.184323" lon="11.2740153"><ele>701.3333333333334</ele><time>2026-04-04T13:09:00.843Z</time></trkpt><trkpt lat="44.1842582" lon="11.2740825"><ele>701.6666666666666</ele><time>2026-04-04T13:09:01.841Z</time></trkpt><trkpt lat="44.1841898" lon="11.2741377"><ele>702.0</ele><time>2026-04-04T13:09:02.843Z</time></trkpt><trkpt lat="44.1841212" lon="11.2741775"><ele>702.0</ele><time>2026-04-04T13:09:03.842Z</time></trkpt><trkpt lat="44.1840532" lon="11.2741963"><ele>702.0</ele><time>2026-04-04T13:09:04.842Z</time></trkpt><trkpt lat="44.1839452" lon="11.274173"><ele>702.0</ele><time>2026-04-04T13:09:06.842Z</time></trkpt><trkpt lat="44.1839015" lon="11.2741054"><ele>702.0</ele><time>2026-04-04T13:09:08.843Z</time></trkpt><trkpt lat="44.1839254" lon="11.2739963"><ele>702.0</ele><time>2026-04-04T13:09:10.842Z</time></trkpt><trkpt lat="44.1839662" lon="11.2739237"><ele>702.0</ele><time>2026-04-04T13:09:11.842Z</time></trkpt><trkpt lat="44.1840267" lon="11.2738381"><ele>706.0</ele><time>2026-04-04T13:09:12.843Z</time></trkpt><trkpt lat="44.1841088" lon="11.2737392"><ele>710.0</ele><time>2026-04-04T13:09:13.843Z</time></trkpt><trkpt lat="44.1842037" lon="11.2736318"><ele>714.0</ele><time>2026-04-04T13:09:14.842Z</time></trkpt><trkpt lat="44.1843109" lon="11.2735166"><ele>718.0</ele><time>2026-04-04T13:09:15.842Z</time></trkpt><trkpt lat="44.1844202" lon="11.2734"><ele>718.0</ele><time>2026-04-04T13:09:16.843Z</time></trkpt><trkpt lat="44.1845173" lon="11.273303"><ele>718.0</ele><time>2026-04-04T13:09:17.843Z</time></trkpt><trkpt lat="44.1846081" lon="11.2732273"><ele>718.0</ele><time>2026-04-04T13:09:18.843Z</time></trkpt><trkpt lat="44.1847007" lon="11.2731889"><ele>718.0</ele><time>2026-04-04T13:09:19.842Z</time></trkpt><trkpt lat="44.1847942" lon="11.2732002"><ele>718.0</ele><time>2026-04-04T13:09:20.842Z</time></trkpt><trkpt lat="44.1848878" lon="11.2732541"><ele>718.5999999999999</ele><time>2026-04-04T13:09:21.842Z</time></trkpt><trkpt lat="44.184978" lon="11.2733323"><ele>719.1999999999999</ele><time>2026-04-04T13:09:22.843Z</time></trkpt><trkpt lat="44.1850703" lon="11.2734102"><ele>719.8</ele><time>2026-04-04T13:09:23.842Z</time></trkpt><trkpt lat="44.1851623" lon="11.2734725"><ele>720.4</ele><time>2026-04-04T13:09:24.843Z</time></trkpt><trkpt lat="44.1852554" lon="11.2735203"><ele>721.0</ele><time>2026-04-04T13:09:25.842Z</time></trkpt><trkpt lat="44.1853533" lon="11.2735314"><ele>721.0</ele><time>2026-04-04T13:09:26.842Z</time></trkpt><trkpt lat="44.1854546" lon="11.2734972"><ele>721.0</ele><time>2026-04-04T13:09:27.842Z</time></trkpt><trkpt lat="44.1855521" lon="11.2734242"><ele>721.0</ele><time>2026-04-04T13:09:28.843Z</time></trkpt><trkpt lat="44.1856382" lon="11.2733111"><ele>721.0</ele><time>2026-04-04T13:09:29.842Z</time></trkpt><trkpt lat="44.1857222" lon="11.2731792"><ele>726.75</ele><time>2026-04-04T13:09:30.842Z</time></trkpt><trkpt lat="44.1858063" lon="11.2730523"><ele>732.5</ele><time>2026-04-04T13:09:31.843Z</time></trkpt><trkpt lat="44.1858876" lon="11.2729188"><ele>738.25</ele><time>2026-04-04T13:09:32.843Z</time></trkpt><trkpt lat="44.1859719" lon="11.2727995"><ele>744.0</ele><time>2026-04-04T13:09:33.843Z</time></trkpt><trkpt lat="44.1860677" lon="11.2727054"><ele>744.0</ele><time>2026-04-04T13:09:34.842Z</time></trkpt><trkpt lat="44.1861688" lon="11.2726505"><ele>744.0</ele><time>2026-04-04T13:09:35.842Z</time></trkpt><trkpt lat="44.1862585" lon="11.2726105"><ele>744.0</ele><time>2026-04-04T13:09:36.843Z</time></trkpt><trkpt lat="44.1863271" lon="11.2725686"><ele>744.0</ele><time>2026-04-04T13:09:37.843Z</time></trkpt><trkpt lat="44.1863604" lon="11.2724287"><ele>744.0</ele><time>2026-04-04T13:09:39.842Z</time></trkpt><trkpt lat="44.1862726" lon="11.2723647"><ele>744.0</ele><time>2026-04-04T13:09:41.843Z</time></trkpt><trkpt lat="44.1862005" lon="11.2723784"><ele>744.0</ele><time>2026-04-04T13:09:42.842Z</time></trkpt><trkpt lat="44.1861186" lon="11.2724028"><ele>744.0</ele><time>2026-04-04T13:09:43.843Z</time></trkpt><trkpt lat="44.1860426" lon="11.2724194"><ele>744.0</ele><time>2026-04-04T13:09:44.843Z</time></trkpt><trkpt lat="44.1859427" lon="11.2723308"><ele>744.0</ele><time>2026-04-04T13:09:46.843Z</time></trkpt><trkpt lat="44.185934" lon="11.2722403"><ele>744.0</ele><time>2026-04-04T13:09:47.843Z</time></trkpt><trkpt lat="44.1859504" lon="11.2721306"><ele>746.75</ele><time>2026-04-04T13:09:48.843Z</time></trkpt><trkpt lat="44.1859724" lon="11.2719943"><ele>749.5</ele><time>2026-04-04T13:09:49.842Z</time></trkpt><trkpt lat="44.1859664" lon="11.2718356"><ele>752.25</ele><time>2026-04-04T13:09:50.843Z</time></trkpt><trkpt lat="44.1859498" lon="11.2716543"><ele>755.0</ele><time>2026-04-04T13:09:51.841Z</time></trkpt><trkpt lat="44.1859664" lon="11.2714533"><ele>759.0</ele><time>2026-04-04T13:09:52.842Z</time></trkpt><trkpt lat="44.1859942" lon="11.2712483"><ele>763.0</ele><time>2026-04-04T13:09:53.842Z</time></trkpt><trkpt lat="44.1860425" lon="11.2710359"><ele>767.0</ele><time>2026-04-04T13:09:54.842Z</time></trkpt><trkpt lat="44.1861087" lon="11.2708427"><ele>767.0</ele><time>2026-04-04T13:09:55.843Z</time></trkpt><trkpt lat="44.1861835" lon="11.2706693"><ele>767.0</ele><time>2026-04-04T13:09:56.841Z</time></trkpt><trkpt lat="44.186269" lon="11.2705242"><ele>767.0</ele><time>2026-04-04T13:09:57.843Z</time></trkpt><trkpt lat="44.1863541" lon="11.2704145"><ele>767.0</ele><time>2026-04-04T13:09:58.842Z</time></trkpt><trkpt lat="44.1864391" lon="11.2702983"><ele>768.6</ele><time>2026-04-04T13:09:59.843Z</time></trkpt><trkpt lat="44.1865254" lon="11.2702382"><ele>770.2</ele><time>2026-04-04T13:10:00.842Z</time></trkpt><trkpt lat="44.1866008" lon="11.270216"><ele>771.8</ele><time>2026-04-04T13:10:01.843Z</time></trkpt><trkpt lat="44.186693" lon="11.2702071"><ele>773.4</ele><time>2026-04-04T13:10:02.842Z</time></trkpt><trkpt lat="44.1867992" lon="11.2702312"><ele>775.0</ele><time>2026-04-04T13:10:03.843Z</time></trkpt><trkpt lat="44.1869077" lon="11.2702669"><ele>775.0</ele><time>2026-04-04T13:10:04.843Z</time></trkpt><trkpt lat="44.1870286" lon="11.2703162"><ele>775.0</ele><time>2026-04-04T13:10:05.842Z</time></trkpt><trkpt lat="44.1871499" lon="11.2703924"><ele>775.0</ele><time>2026-04-04T13:10:06.842Z</time></trkpt><trkpt lat="44.1872681" lon="11.2704814"><ele>775.0</ele><time>2026-04-04T13:10:07.842Z</time></trkpt><trkpt lat="44.1873905" lon="11.2705669"><ele>774.5</ele><time>2026-04-04T13:10:08.841Z</time></trkpt><trkpt lat="44.1875142" lon="11.2706159"><ele>774.0</ele><time>2026-04-04T13:10:09.843Z</time></trkpt><trkpt lat="44.1876347" lon="11.2706197"><ele>773.5</ele><time>2026-04-04T13:10:10.841Z</time></trkpt><trkpt lat="44.1877394" lon="11.2705726"><ele>773.0</ele><time>2026-04-04T13:10:11.843Z</time></trkpt><trkpt lat="44.1878249" lon="11.2704756"><ele>773.0</ele><time>2026-04-04T13:10:12.842Z</time></trkpt><trkpt lat="44.187892" lon="11.270334"><ele>773.0</ele><time>2026-04-04T13:10:13.843Z</time></trkpt><trkpt lat="44.1879516" lon="11.2701593"><ele>773.0</ele><time>2026-04-04T13:10:14.842Z</time></trkpt><trkpt lat="44.1880146" lon="11.2699648"><ele>773.0</ele><time>2026-04-04T13:10:15.842Z</time></trkpt><trkpt lat="44.1880813" lon="11.2697519"><ele>773.3333333333334</ele><time>2026-04-04T13:10:16.843Z</time></trkpt><trkpt lat="44.1881524" lon="11.2695367"><ele>773.6666666666667</ele><time>2026-04-04T13:10:17.843Z</time></trkpt><trkpt lat="44.1882156" lon="11.2693366"><ele>774.0</ele><time>2026-04-04T13:10:18.842Z</time></trkpt><trkpt lat="44.1882747" lon="11.2691598"><ele>774.0</ele><time>2026-04-04T13:10:19.843Z</time></trkpt><trkpt lat="44.1883547" lon="11.2690041"><ele>774.0</ele><time>2026-04-04T13:10:20.842Z</time></trkpt><trkpt lat="44.1884475" lon="11.2688615"><ele>774.0</ele><time>2026-04-04T13:10:21.841Z</time></trkpt><trkpt lat="44.1885462" lon="11.2687263"><ele>774.0</ele><time>2026-04-04T13:10:22.843Z</time></trkpt><trkpt lat="44.1886458" lon="11.2686003"><ele>774.25</ele><time>2026-04-04T13:10:23.841Z</time></trkpt><trkpt lat="44.1887493" lon="11.2684755"><ele>774.5</ele><time>2026-04-04T13:10:24.842Z</time></trkpt><trkpt lat="44.188855" lon="11.2683518"><ele>774.75</ele><time>2026-04-04T13:10:25.843Z</time></trkpt><trkpt lat="44.1889897" lon="11.2682237"><ele>775.0</ele><time>2026-04-04T13:10:26.841Z</time></trkpt><trkpt lat="44.1891802" lon="11.2681324"><ele>779.3333333333333</ele><time>2026-04-04T13:10:27.843Z</time></trkpt><trkpt lat="44.189342" lon="11.2679947"><ele>783.6666666666667</ele><time>2026-04-04T13:10:28.842Z</time></trkpt><trkpt lat="44.1895011" lon="11.2678295"><ele>788.0</ele><time>2026-04-04T13:10:29.843Z</time></trkpt><trkpt lat="44.1896558" lon="11.2676411"><ele>788.0</ele><time>2026-04-04T13:10:30.842Z</time></trkpt><trkpt lat="44.1898012" lon="11.2674642"><ele>788.0</ele><time>2026-04-04T13:10:31.842Z</time></trkpt><trkpt lat="44.1899335" lon="11.2673016"><ele>788.0</ele><time>2026-04-04T13:10:32.843Z</time></trkpt><trkpt lat="44.1900409" lon="11.2671697"><ele>788.5999999999999</ele><time>2026-04-04T13:10:33.843Z</time></trkpt><trkpt lat="44.1901491" lon="11.267095"><ele>789.1999999999999</ele><time>2026-04-04T13:10:34.842Z</time></trkpt><trkpt lat="44.1902531" lon="11.2670832"><ele>789.8</ele><time>2026-04-04T13:10:35.842Z</time></trkpt><trkpt lat="44.1903577" lon="11.2671146"><ele>790.4</ele><time>2026-04-04T13:10:36.843Z</time></trkpt><trkpt lat="44.1904603" lon="11.267179"><ele>791.0</ele><time>2026-04-04T13:10:37.843Z</time></trkpt><trkpt lat="44.190581" lon="11.2672466"><ele>788.75</ele><time>2026-04-04T13:10:38.843Z</time></trkpt><trkpt lat="44.1907144" lon="11.2673212"><ele>786.5</ele><time>2026-04-04T13:10:39.843Z</time></trkpt><trkpt lat="44.1908437" lon="11.2673931"><ele>784.25</ele><time>2026-04-04T13:10:40.841Z</time></trkpt><trkpt lat="44.1909917" lon="11.2674501"><ele>782.0</ele><time>2026-04-04T13:10:41.843Z</time></trkpt><trkpt lat="44.1911227" lon="11.2674818"><ele>782.0</ele><time>2026-04-04T13:10:42.842Z</time></trkpt><trkpt lat="44.1912582" lon="11.2674969"><ele>782.0</ele><time>2026-04-04T13:10:43.843Z</time></trkpt><trkpt lat="44.1913806" lon="11.2675008"><ele>782.0</ele><time>2026-04-04T13:10:44.843Z</time></trkpt><trkpt lat="44.1914651" lon="11.2675025"><ele>782.0</ele><time>2026-04-04T13:10:45.843Z</time></trkpt><trkpt lat="44.1915306" lon="11.2674928"><ele>782.0</ele><time>2026-04-04T13:10:46.843Z</time></trkpt><trkpt lat="44.1915982" lon="11.2673801"><ele>786.4000000000001</ele><time>2026-04-04T13:10:48.842Z</time></trkpt><trkpt lat="44.1915529" lon="11.2672521"><ele>790.8000000000001</ele><time>2026-04-04T13:10:50.842Z</time></trkpt><trkpt lat="44.1914842" lon="11.2672224"><ele>795.2</ele><time>2026-04-04T13:10:51.843Z</time></trkpt><trkpt lat="44.1913947" lon="11.2672096"><ele>799.6</ele><time>2026-04-04T13:10:52.842Z</time></trkpt><trkpt lat="44.1912875" lon="11.2671726"><ele>804.0</ele><time>2026-04-04T13:10:53.843Z</time></trkpt><trkpt lat="44.1911714" lon="11.2670945"><ele>804.0</ele><time>2026-04-04T13:10:54.843Z</time></trkpt><trkpt lat="44.191056" lon="11.2670121"><ele>804.0</ele><time>2026-04-04T13:10:55.843Z</time></trkpt><trkpt lat="44.1909629" lon="11.2669567"><ele>804.0</ele><time>2026-04-04T13:10:56.842Z</time></trkpt><trkpt lat="44.1909001" lon="11.2668985"><ele>804.0</ele><time>2026-04-04T13:10:57.842Z</time></trkpt><trkpt lat="44.1908817" lon="11.2667629"><ele>804.0</ele><time>2026-04-04T13:10:59.842Z</time></trkpt><trkpt lat="44.1910028" lon="11.2667022"><ele>804.0</ele><time>2026-04-04T13:11:01.841Z</time></trkpt><trkpt lat="44.1911042" lon="11.2667223"><ele>804.0</ele><time>2026-04-04T13:11:02.842Z</time></trkpt><trkpt lat="44.1912349" lon="11.2667415"><ele>804.0</ele><time>2026-04-04T13:11:03.842Z</time></trkpt><trkpt lat="44.1913918" lon="11.2667428"><ele>804.0</ele><time>2026-04-04T13:11:04.841Z</time></trkpt><trkpt lat="44.1915602" lon="11.2667362"><ele>808.0</ele><time>2026-04-04T13:11:05.842Z</time></trkpt><trkpt lat="44.1917414" lon="11.2667305"><ele>812.0</ele><time>2026-04-04T13:11:06.841Z</time></trkpt><trkpt lat="44.1919282" lon="11.2667244"><ele>816.0</ele><time>2026-04-04T13:11:07.842Z</time></trkpt><trkpt lat="44.192109" lon="11.2667262"><ele>816.0</ele><time>2026-04-04T13:11:08.842Z</time></trkpt><trkpt lat="44.1922858" lon="11.2667447"><ele>816.0</ele><time>2026-04-04T13:11:09.841Z</time></trkpt><trkpt lat="44.1924528" lon="11.2667883"><ele>816.0</ele><time>2026-04-04T13:11:10.842Z</time></trkpt><trkpt lat="44.1926091" lon="11.2668475"><ele>817.75</ele><time>2026-04-04T13:11:11.842Z</time></trkpt><trkpt lat="44.1927609" lon="11.2668969"><ele>819.5</ele><time>2026-04-04T13:11:12.842Z</time></trkpt><trkpt lat="44.1929056" lon="11.2669318"><ele>821.25</ele><time>2026-04-04T13:11:13.842Z</time></trkpt><trkpt lat="44.1930476" lon="11.2669391"><ele>823.0</ele><time>2026-04-04T13:11:14.842Z</time></trkpt><trkpt lat="44.193189" lon="11.2669019"><ele>825.75</ele><time>2026-04-04T13:11:15.842Z</time></trkpt><trkpt lat="44.193327" lon="11.2668489"><ele>828.5</ele><time>2026-04-04T13:11:16.842Z</time></trkpt><trkpt lat="44.1934713" lon="11.2668454"><ele>831.25</ele><time>2026-04-04T13:11:17.841Z</time></trkpt><trkpt lat="44.1936227" lon="11.2668794"><ele>834.0</ele><time>2026-04-04T13:11:18.841Z</time></trkpt><trkpt lat="44.1937823" lon="11.2669279"><ele>834.0</ele><time>2026-04-04T13:11:19.841Z</time></trkpt><trkpt lat="44.1939443" lon="11.2669711"><ele>834.0</ele><time>2026-04-04T13:11:20.841Z</time></trkpt><trkpt lat="44.1940968" lon="11.2670141"><ele>834.0</ele><time>2026-04-04T13:11:21.841Z</time></trkpt><trkpt lat="44.19423" lon="11.2670537"><ele>834.8000000000001</ele><time>2026-04-04T13:11:22.841Z</time></trkpt><trkpt lat="44.1943445" lon="11.2670753"><ele>835.6</ele><time>2026-04-04T13:11:23.842Z</time></trkpt><trkpt lat="44.1944469" lon="11.2670651"><ele>836.4</ele><time>2026-04-04T13:11:24.842Z</time></trkpt><trkpt lat="44.1945475" lon="11.2670154"><ele>837.2</ele><time>2026-04-04T13:11:25.841Z</time></trkpt><trkpt lat="44.1946523" lon="11.2669349"><ele>838.0</ele><time>2026-04-04T13:11:26.841Z</time></trkpt><trkpt lat="44.1947637" lon="11.2668428"><ele>839.25</ele><time>2026-04-04T13:11:27.841Z</time></trkpt><trkpt lat="44.1948892" lon="11.2667458"><ele>840.5</ele><time>2026-04-04T13:11:28.842Z</time></trkpt><trkpt lat="44.1950181" lon="11.2666468"><ele>841.75</ele><time>2026-04-04T13:11:29.842Z</time></trkpt><trkpt lat="44.1951509" lon="11.2665437"><ele>843.0</ele><time>2026-04-04T13:11:30.842Z</time></trkpt><trkpt lat="44.1952769" lon="11.2664401"><ele>843.0</ele><time>2026-04-04T13:11:31.841Z</time></trkpt><trkpt lat="44.1953968" lon="11.2663377"><ele>843.0</ele><time>2026-04-04T13:11:32.84Z</time></trkpt><trkpt lat="44.1955091" lon="11.2662354"><ele>843.0</ele><time>2026-04-04T13:11:33.84Z</time></trkpt><trkpt lat="44.1956037" lon="11.2661144"><ele>843.0</ele><time>2026-04-04T13:11:34.841Z</time></trkpt><trkpt lat="44.1956703" lon="11.2659668"><ele>843.5</ele><time>2026-04-04T13:11:35.841Z</time></trkpt><trkpt lat="44.1957108" lon="11.2658011"><ele>844.0</ele><time>2026-04-04T13:11:36.84Z</time></trkpt><trkpt lat="44.1957481" lon="11.2656348"><ele>844.5</ele><time>2026-04-04T13:11:37.842Z</time></trkpt><trkpt lat="44.1958099" lon="11.2654848"><ele>845.0</ele><time>2026-04-04T13:11:38.842Z</time></trkpt><trkpt lat="44.1958821" lon="11.2653533"><ele>845.0</ele><time>2026-04-04T13:11:39.842Z</time></trkpt><trkpt lat="44.1959705" lon="11.2652589"><ele>845.0</ele><time>2026-04-04T13:11:40.842Z</time></trkpt><trkpt lat="44.1960658" lon="11.2652034"><ele>845.0</ele><time>2026-04-04T13:11:41.842Z</time></trkpt><trkpt lat="44.196163" lon="11.26519"><ele>845.0</ele><time>2026-04-04T13:11:42.842Z</time></trkpt><trkpt lat="44.1962622" lon="11.2652279"><ele>845.0</ele><time>2026-04-04T13:11:43.842Z</time></trkpt><trkpt lat="44.1963541" lon="11.2653163"><ele>845.0</ele><time>2026-04-04T13:11:44.841Z</time></trkpt><trkpt lat="44.1964538" lon="11.2654323"><ele>845.0</ele><time>2026-04-04T13:11:45.841Z</time></trkpt><trkpt lat="44.1965826" lon="11.2655392"><ele>845.0</ele><time>2026-04-04T13:11:46.842Z</time></trkpt><trkpt lat="44.196728" lon="11.2656429"><ele>845.0</ele><time>2026-04-04T13:11:47.842Z</time></trkpt><trkpt lat="44.1968707" lon="11.2657601"><ele>839.75</ele><time>2026-04-04T13:11:48.842Z</time></trkpt><trkpt lat="44.1969971" lon="11.2658949"><ele>834.5</ele><time>2026-04-04T13:11:49.841Z</time></trkpt><trkpt lat="44.1971058" lon="11.2660334"><ele>829.25</ele><time>2026-04-04T13:11:50.842Z</time></trkpt><trkpt lat="44.1972096" lon="11.2661332"><ele>824.0</ele><time>2026-04-04T13:11:51.842Z</time></trkpt><trkpt lat="44.19731" lon="11.2661724"><ele>823.75</ele><time>2026-04-04T13:11:52.84Z</time></trkpt><trkpt lat="44.1974011" lon="11.2661488"><ele>823.5</ele><time>2026-04-04T13:11:53.841Z</time></trkpt><trkpt lat="44.1974898" lon="11.2660677"><ele>823.25</ele><time>2026-04-04T13:11:54.841Z</time></trkpt><trkpt lat="44.1975703" lon="11.2659274"><ele>823.0</ele><time>2026-04-04T13:11:55.842Z</time></trkpt><trkpt lat="44.1976482" lon="11.2657629"><ele>823.0</ele><time>2026-04-04T13:11:56.84Z</time></trkpt><trkpt lat="44.1977256" lon="11.2656159"><ele>823.0</ele><time>2026-04-04T13:11:57.841Z</time></trkpt><trkpt lat="44.1978043" lon="11.2654776"><ele>823.0</ele><time>2026-04-04T13:11:58.841Z</time></trkpt><trkpt lat="44.1978986" lon="11.265374"><ele>823.0</ele><time>2026-04-04T13:11:59.842Z</time></trkpt><trkpt lat="44.1980042" lon="11.2653107"><ele>822.5999999999999</ele><time>2026-04-04T13:12:00.842Z</time></trkpt><trkpt lat="44.1981158" lon="11.2652699"><ele>822.1999999999999</ele><time>2026-04-04T13:12:01.841Z</time></trkpt><trkpt lat="44.1982118" lon="11.2651903"><ele>821.8</ele><time>2026-04-04T13:12:02.841Z</time></trkpt><trkpt lat="44.1982695" lon="11.2650707"><ele>821.4</ele><time>2026-04-04T13:12:03.842Z</time></trkpt><trkpt lat="44.1982884" lon="11.2649307"><ele>821.0</ele><time>2026-04-04T13:12:04.842Z</time></trkpt><trkpt lat="44.1982849" lon="11.2647741"><ele>821.0</ele><time>2026-04-04T13:12:05.842Z</time></trkpt><trkpt lat="44.1982869" lon="11.2646246"><ele>821.0</ele><time>2026-04-04T13:12:06.841Z</time></trkpt><trkpt lat="44.1983193" lon="11.2644754"><ele>821.0</ele><time>2026-04-04T13:12:07.841Z</time></trkpt><trkpt lat="44.1983769" lon="11.2643271"><ele>821.0</ele><time>2026-04-04T13:12:08.841Z</time></trkpt><trkpt lat="44.198444" lon="11.2641797"><ele>821.0</ele><time>2026-04-04T13:12:09.842Z</time></trkpt><trkpt lat="44.1985251" lon="11.2640301"><ele>821.0</ele><time>2026-04-04T13:12:10.842Z</time></trkpt><trkpt lat="44.198589" lon="11.2638633"><ele>821.0</ele><time>2026-04-04T13:12:11.841Z</time></trkpt><trkpt lat="44.1986362" lon="11.2636927"><ele>821.0</ele><time>2026-04-04T13:12:12.842Z</time></trkpt><trkpt lat="44.1986713" lon="11.2635262"><ele>821.1999999999999</ele><time>2026-04-04T13:12:13.841Z</time></trkpt><trkpt lat="44.1986828" lon="11.2633685"><ele>821.4</ele><time>2026-04-04T13:12:14.842Z</time></trkpt><trkpt lat="44.1986844" lon="11.2632384"><ele>821.6</ele><time>2026-04-04T13:12:15.842Z</time></trkpt><trkpt lat="44.19868" lon="11.2631093"><ele>821.8</ele><time>2026-04-04T13:12:16.841Z</time></trkpt><trkpt lat="44.1986835" lon="11.2629786"><ele>822.0</ele><time>2026-04-04T13:12:17.841Z</time></trkpt><trkpt lat="44.1987076" lon="11.262852"><ele>822.8</ele><time>2026-04-04T13:12:18.841Z</time></trkpt><trkpt lat="44.1987427" lon="11.2627222"><ele>823.6</ele><time>2026-04-04T13:12:19.841Z</time></trkpt><trkpt lat="44.1987879" lon="11.262589"><ele>824.4</ele><time>2026-04-04T13:12:20.842Z</time></trkpt><trkpt lat="44.1988381" lon="11.2624507"><ele>825.1999999999999</ele><time>2026-04-04T13:12:21.843Z</time></trkpt><trkpt lat="44.198893" lon="11.2623116"><ele>826.0</ele><time>2026-04-04T13:12:22.842Z</time></trkpt><trkpt lat="44.1989437" lon="11.2621716"><ele>828.0</ele><time>2026-04-04T13:12:23.842Z</time></trkpt><trkpt lat="44.1989936" lon="11.2620321"><ele>830.0</ele><time>2026-04-04T13:12:24.84Z</time></trkpt><trkpt lat="44.1990438" lon="11.2618938"><ele>832.0</ele><time>2026-04-04T13:12:25.843Z</time></trkpt><trkpt lat="44.199104" lon="11.2617709"><ele>834.0</ele><time>2026-04-04T13:12:26.842Z</time></trkpt><trkpt lat="44.1991779" lon="11.2616641"><ele>836.0</ele><time>2026-04-04T13:12:27.841Z</time></trkpt><trkpt lat="44.1992629" lon="11.2615695"><ele>831.4</ele><time>2026-04-04T13:12:28.841Z</time></trkpt><trkpt lat="44.1993574" lon="11.2614879"><ele>826.8</ele><time>2026-04-04T13:12:29.842Z</time></trkpt><trkpt lat="44.1994577" lon="11.2614188"><ele>822.1999999999999</ele><time>2026-04-04T13:12:30.842Z</time></trkpt><trkpt lat="44.1995642" lon="11.2613667"><ele>817.5999999999999</ele><time>2026-04-04T13:12:31.84Z</time></trkpt><trkpt lat="44.1996636" lon="11.2613265"><ele>813.0</ele><time>2026-04-04T13:12:32.841Z</time></trkpt><trkpt lat="44.1997565" lon="11.2612945"><ele>811.1666666666666</ele><time>2026-04-04T13:12:33.841Z</time></trkpt><trkpt lat="44.1998397" lon="11.2612586"><ele>809.3333333333333</ele><time>2026-04-04T13:12:34.841Z</time></trkpt><trkpt lat="44.1999234" lon="11.2612229"><ele>807.5</ele><time>2026-04-04T13:12:35.842Z</time></trkpt><trkpt lat="44.200001" lon="11.261173"><ele>805.6666666666666</ele><time>2026-04-04T13:12:36.842Z</time></trkpt><trkpt lat="44.2000753" lon="11.2611067"><ele>803.8333333333333</ele><time>2026-04-04T13:12:37.84Z</time></trkpt><trkpt lat="44.2001366" lon="11.2610158"><ele>802.0</ele><time>2026-04-04T13:12:38.84Z</time></trkpt><trkpt lat="44.2001866" lon="11.260903"><ele>801.9999999999999</ele><time>2026-04-04T13:12:39.841Z</time></trkpt><trkpt lat="44.2002325" lon="11.2607842"><ele>802.0</ele><time>2026-04-04T13:12:40.842Z</time></trkpt><trkpt lat="44.2002771" lon="11.2606716"><ele>802.0</ele><time>2026-04-04T13:12:41.841Z</time></trkpt><trkpt lat="44.2003198" lon="11.2605676"><ele>802.0</ele><time>2026-04-04T13:12:42.841Z</time></trkpt><trkpt lat="44.200355" lon="11.2604822"><ele>801.9999999999999</ele><time>2026-04-04T13:12:43.842Z</time></trkpt><trkpt lat="44.2003965" lon="11.2603537"><ele>802.0</ele><time>2026-04-04T13:12:45.842Z</time></trkpt><trkpt lat="44.200425" lon="11.260246"><ele>801.4999999999999</ele><time>2026-04-04T13:12:47.842Z</time></trkpt><trkpt lat="44.2004842" lon="11.2601618"><ele>801.0</ele><time>2026-04-04T13:12:49.841Z</time></trkpt><trkpt lat="44.2005799" lon="11.2601323"><ele>800.5</ele><time>2026-04-04T13:12:51.84Z</time></trkpt><trkpt lat="44.200647" lon="11.2601232"><ele>800.0</ele><time>2026-04-04T13:12:52.842Z</time></trkpt><trkpt lat="44.2007201" lon="11.2601002"><ele>799.4999999999999</ele><time>2026-04-04T13:12:53.841Z</time></trkpt><trkpt lat="44.2008044" lon="11.2600762"><ele>799.0</ele><time>2026-04-04T13:12:54.842Z</time></trkpt><trkpt lat="44.2008974" lon="11.2600562"><ele>798.2</ele><time>2026-04-04T13:12:55.841Z</time></trkpt><trkpt lat="44.2009957" lon="11.2600423"><ele>797.4000000000001</ele><time>2026-04-04T13:12:56.842Z</time></trkpt><trkpt lat="44.2010978" lon="11.2600262"><ele>796.6</ele><time>2026-04-04T13:12:57.842Z</time></trkpt><trkpt lat="44.2011965" lon="11.2600181"><ele>795.8</ele><time>2026-04-04T13:12:58.842Z</time></trkpt><trkpt lat="44.2012854" lon="11.2600086"><ele>795.0</ele><time>2026-04-04T13:12:59.842Z</time></trkpt><trkpt lat="44.2013726" lon="11.2600049"><ele>795.0</ele><time>2026-04-04T13:13:00.842Z</time></trkpt><trkpt lat="44.2014542" lon="11.2600029"><ele>795.0</ele><time>2026-04-04T13:13:01.842Z</time></trkpt><trkpt lat="44.2015358" lon="11.2600019"><ele>795.0</ele><time>2026-04-04T13:13:02.842Z</time></trkpt><trkpt lat="44.2016192" lon="11.259996"><ele>795.0</ele><time>2026-04-04T13:13:03.841Z</time></trkpt><trkpt lat="44.2017083" lon="11.2599828"><ele>795.0</ele><time>2026-04-04T13:13:04.842Z</time></trkpt><trkpt lat="44.2018032" lon="11.2599718"><ele>795.0</ele><time>2026-04-04T13:13:05.841Z</time></trkpt><trkpt lat="44.2018973" lon="11.2599615"><ele>795.5</ele><time>2026-04-04T13:13:06.841Z</time></trkpt><trkpt lat="44.2019788" lon="11.2599611"><ele>796.0</ele><time>2026-04-04T13:13:07.842Z</time></trkpt><trkpt lat="44.2020522" lon="11.2599574"><ele>796.5</ele><time>2026-04-04T13:13:08.842Z</time></trkpt><trkpt lat="44.2021612" lon="11.2599563"><ele>797.0</ele><time>2026-04-04T13:13:10.842Z</time></trkpt><trkpt lat="44.2020717" lon="11.2599447"><ele>797.5</ele><time>2026-04-04T13:13:16.841Z</time></trkpt><trkpt lat="44.2020027" lon="11.2599575"><ele>798.0</ele><time>2026-04-04T13:13:17.841Z</time></trkpt><trkpt lat="44.2019252" lon="11.2599647"><ele>798.0</ele><time>2026-04-04T13:13:18.842Z</time></trkpt><trkpt lat="44.2018407" lon="11.2599684"><ele>798.0</ele><time>2026-04-04T13:13:19.842Z</time></trkpt><trkpt lat="44.2017655" lon="11.2599681"><ele>798.0</ele><time>2026-04-04T13:13:20.842Z</time></trkpt><trkpt lat="44.2016557" lon="11.2599777"><ele>798.0</ele><time>2026-04-04T13:13:22.841Z</time></trkpt><trkpt lat="44.201638" lon="11.260103"><ele>798.0</ele><time>2026-04-04T13:13:25.841Z</time></trkpt><trkpt lat="44.2017366" lon="11.2602153"><ele>798.0</ele><time>2026-04-04T13:13:27.841Z</time></trkpt><trkpt lat="44.2017984" lon="11.2603123"><ele>798.0</ele><time>2026-04-04T13:13:28.842Z</time></trkpt><trkpt lat="44.2018602" lon="11.2604079"><ele>798.0</ele><time>2026-04-04T13:13:29.842Z</time></trkpt><trkpt lat="44.2019281" lon="11.2605117"><ele>798.0</ele><time>2026-04-04T13:13:30.841Z</time></trkpt><trkpt lat="44.2020047" lon="11.2606133"><ele>798.0</ele><time>2026-04-04T13:13:31.842Z</time></trkpt><trkpt lat="44.2020838" lon="11.260717"><ele>797.5999999999999</ele><time>2026-04-04T13:13:32.841Z</time></trkpt><trkpt lat="44.202161" lon="11.2608209"><ele>797.1999999999999</ele><time>2026-04-04T13:13:33.841Z</time></trkpt><trkpt lat="44.2022376" lon="11.2609245"><ele>796.8</ele><time>2026-04-04T13:13:34.84Z</time></trkpt><trkpt lat="44.2023119" lon="11.26103"><ele>796.4</ele><time>2026-04-04T13:13:35.841Z</time></trkpt><trkpt lat="44.2023866" lon="11.2611335"><ele>796.0</ele><time>2026-04-04T13:13:36.842Z</time></trkpt><trkpt lat="44.2024613" lon="11.2612358"><ele>796.0</ele><time>2026-04-04T13:13:37.84Z</time></trkpt><trkpt lat="44.2025372" lon="11.2613423"><ele>796.0</ele><time>2026-04-04T13:13:38.841Z</time></trkpt><trkpt lat="44.2026103" lon="11.2614489"><ele>796.0</ele><time>2026-04-04T13:13:39.842Z</time></trkpt><trkpt lat="44.2026837" lon="11.2615491"><ele>796.0</ele><time>2026-04-04T13:13:40.842Z</time></trkpt><trkpt lat="44.2027575" lon="11.2616503"><ele>796.0</ele><time>2026-04-04T13:13:41.842Z</time></trkpt><trkpt lat="44.2028335" lon="11.261749"><ele>795.1999999999999</ele><time>2026-04-04T13:13:42.841Z</time></trkpt><trkpt lat="44.2029096" lon="11.2618482"><ele>794.4</ele><time>2026-04-04T13:13:43.842Z</time></trkpt><trkpt lat="44.2029818" lon="11.261944"><ele>793.6</ele><time>2026-04-04T13:13:44.841Z</time></trkpt><trkpt lat="44.2030623" lon="11.2620347"><ele>792.8</ele><time>2026-04-04T13:13:45.842Z</time></trkpt><trkpt lat="44.2031461" lon="11.2621028"><ele>792.0</ele><time>2026-04-04T13:13:46.841Z</time></trkpt><trkpt lat="44.2032348" lon="11.2621363"><ele>792.0</ele><time>2026-04-04T13:13:47.841Z</time></trkpt><trkpt lat="44.2033213" lon="11.2621304"><ele>792.0</ele><time>2026-04-04T13:13:48.841Z</time></trkpt><trkpt lat="44.2034034" lon="11.2620845"><ele>792.0</ele><time>2026-04-04T13:13:49.841Z</time></trkpt><trkpt lat="44.2034799" lon="11.2620173"><ele>792.0</ele><time>2026-04-04T13:13:50.842Z</time></trkpt><trkpt lat="44.2035527" lon="11.2619421"><ele>792.0</ele><time>2026-04-04T13:13:51.84Z</time></trkpt><trkpt lat="44.2036311" lon="11.261881"><ele>792.0</ele><time>2026-04-04T13:13:52.841Z</time></trkpt><trkpt lat="44.2037185" lon="11.2618363"><ele>792.0</ele><time>2026-04-04T13:13:53.842Z</time></trkpt><trkpt lat="44.2038069" lon="11.2618187"><ele>792.0</ele><time>2026-04-04T13:13:54.841Z</time></trkpt><trkpt lat="44.2038941" lon="11.2618398"><ele>792.0</ele><time>2026-04-04T13:13:55.841Z</time></trkpt><trkpt lat="44.2039704" lon="11.2618967"><ele>792.0</ele><time>2026-04-04T13:13:56.842Z</time></trkpt><trkpt lat="44.2040314" lon="11.261976"><ele>792.0</ele><time>2026-04-04T13:13:57.842Z</time></trkpt><trkpt lat="44.2040833" lon="11.2620724"><ele>792.0</ele><time>2026-04-04T13:13:58.842Z</time></trkpt><trkpt lat="44.204126" lon="11.2621872"><ele>790.0</ele><time>2026-04-04T13:13:59.842Z</time></trkpt><trkpt lat="44.2041669" lon="11.262312"><ele>788.0</ele><time>2026-04-04T13:14:00.842Z</time></trkpt><trkpt lat="44.2042149" lon="11.2624368"><ele>786.0</ele><time>2026-04-04T13:14:01.842Z</time></trkpt><trkpt lat="44.2042647" lon="11.2625571"><ele>784.0</ele><time>2026-04-04T13:14:02.842Z</time></trkpt><trkpt lat="44.2043227" lon="11.2626699"><ele>782.0</ele><time>2026-04-04T13:14:03.842Z</time></trkpt><trkpt lat="44.2043913" lon="11.262769"><ele>782.0</ele><time>2026-04-04T13:14:04.841Z</time></trkpt><trkpt lat="44.2044701" lon="11.2628586"><ele>782.0</ele><time>2026-04-04T13:14:05.842Z</time></trkpt><trkpt lat="44.2045523" lon="11.2629267"><ele>782.0</ele><time>2026-04-04T13:14:06.841Z</time></trkpt><trkpt lat="44.2046408" lon="11.262982"><ele>782.0</ele><time>2026-04-04T13:14:07.842Z</time></trkpt><trkpt lat="44.2047321" lon="11.2630219"><ele>782.0</ele><time>2026-04-04T13:14:08.841Z</time></trkpt><trkpt lat="44.2048306" lon="11.2630543"><ele>780.6</ele><time>2026-04-04T13:14:09.842Z</time></trkpt><trkpt lat="44.2049289" lon="11.26309"><ele>779.2</ele><time>2026-04-04T13:14:10.841Z</time></trkpt><trkpt lat="44.2050227" lon="11.2631195"><ele>777.8</ele><time>2026-04-04T13:14:11.84Z</time></trkpt><trkpt lat="44.2051118" lon="11.2631513"><ele>776.4</ele><time>2026-04-04T13:14:12.841Z</time></trkpt><trkpt lat="44.2051991" lon="11.2631761"><ele>775.0</ele><time>2026-04-04T13:14:13.841Z</time></trkpt><trkpt lat="44.2052697" lon="11.2631978"><ele>774.9999999999999</ele><time>2026-04-04T13:14:14.841Z</time></trkpt><trkpt lat="44.2053323" lon="11.2632406"><ele>775.0</ele><time>2026-04-04T13:14:15.842Z</time></trkpt><trkpt lat="44.2053786" lon="11.2633053"><ele>775.0</ele><time>2026-04-04T13:14:16.841Z</time></trkpt><trkpt lat="44.2054087" lon="11.2633966"><ele>775.0</ele><time>2026-04-04T13:14:17.841Z</time></trkpt><trkpt lat="44.2054274" lon="11.2635098"><ele>774.9999999999999</ele><time>2026-04-04T13:14:18.84Z</time></trkpt><trkpt lat="44.205456" lon="11.2636312"><ele>775.0</ele><time>2026-04-04T13:14:19.84Z</time></trkpt><trkpt lat="44.205516" lon="11.2637383"><ele>775.0</ele><time>2026-04-04T13:14:20.84Z</time></trkpt><trkpt lat="44.2055939" lon="11.2638155"><ele>775.0</ele><time>2026-04-04T13:14:21.841Z</time></trkpt><trkpt lat="44.2056848" lon="11.263856"><ele>775.0</ele><time>2026-04-04T13:14:22.84Z</time></trkpt><trkpt lat="44.2057928" lon="11.2638752"><ele>775.0</ele><time>2026-04-04T13:14:23.84Z</time></trkpt><trkpt lat="44.205903" lon="11.2638699"><ele>775.0</ele><time>2026-04-04T13:14:24.84Z</time></trkpt><trkpt lat="44.2060035" lon="11.2638567"><ele>776.6666666666666</ele><time>2026-04-04T13:14:25.84Z</time></trkpt><trkpt lat="44.206102" lon="11.2638571"><ele>778.3333333333333</ele><time>2026-04-04T13:14:26.84Z</time></trkpt><trkpt lat="44.2061892" lon="11.2638573"><ele>780.0</ele><time>2026-04-04T13:14:27.84Z</time></trkpt><trkpt lat="44.2062802" lon="11.2638592"><ele>781.6666666666667</ele><time>2026-04-04T13:14:28.84Z</time></trkpt><trkpt lat="44.2063671" lon="11.2638785"><ele>783.3333333333334</ele><time>2026-04-04T13:14:29.84Z</time></trkpt><trkpt lat="44.2064439" lon="11.2639186"><ele>785.0</ele><time>2026-04-04T13:14:30.841Z</time></trkpt><trkpt lat="44.206499" lon="11.2639769"><ele>785.0000000000001</ele><time>2026-04-04T13:14:31.84Z</time></trkpt><trkpt lat="44.2065328" lon="11.264051"><ele>785.0</ele><time>2026-04-04T13:14:32.841Z</time></trkpt><trkpt lat="44.2065182" lon="11.2642102"><ele>785.0</ele><time>2026-04-04T13:14:34.84Z</time></trkpt><trkpt lat="44.2064709" lon="11.2642856"><ele>785.0</ele><time>2026-04-04T13:14:35.84Z</time></trkpt><trkpt lat="44.206421" lon="11.2643705"><ele>785.0000000000001</ele><time>2026-04-04T13:14:36.841Z</time></trkpt><trkpt lat="44.2063687" lon="11.2644724"><ele>785.0</ele><time>2026-04-04T13:14:37.84Z</time></trkpt><trkpt lat="44.2063182" lon="11.2645838"><ele>781.0</ele><time>2026-04-04T13:14:38.841Z</time></trkpt><trkpt lat="44.2062685" lon="11.2647012"><ele>777.0</ele><time>2026-04-04T13:14:39.841Z</time></trkpt><trkpt lat="44.2062227" lon="11.264828"><ele>773.0</ele><time>2026-04-04T13:14:40.84Z</time></trkpt><trkpt lat="44.2061887" lon="11.2649571"><ele>769.0</ele><time>2026-04-04T13:14:41.839Z</time></trkpt><trkpt lat="44.2061492" lon="11.2650828"><ele>765.0</ele><time>2026-04-04T13:14:42.841Z</time></trkpt><trkpt lat="44.206088" lon="11.2651899"><ele>765.0</ele><time>2026-04-04T13:14:43.84Z</time></trkpt><trkpt lat="44.2060181" lon="11.2652779"><ele>765.0</ele><time>2026-04-04T13:14:44.839Z</time></trkpt><trkpt lat="44.205946" lon="11.2653635"><ele>765.0</ele><time>2026-04-04T13:14:45.839Z</time></trkpt><trkpt lat="44.2058902" lon="11.2654734"><ele>765.0</ele><time>2026-04-04T13:14:46.839Z</time></trkpt><trkpt lat="44.2058577" lon="11.2656055"><ele>765.0</ele><time>2026-04-04T13:14:47.84Z</time></trkpt><trkpt lat="44.2058394" lon="11.2657518"><ele>765.0</ele><time>2026-04-04T13:14:48.84Z</time></trkpt><trkpt lat="44.2058227" lon="11.2659028"><ele>765.0</ele><time>2026-04-04T13:14:49.84Z</time></trkpt><trkpt lat="44.2057962" lon="11.2660471"><ele>765.0</ele><time>2026-04-04T13:14:50.84Z</time></trkpt><trkpt lat="44.2057434" lon="11.2661721"><ele>765.0</ele><time>2026-04-04T13:14:51.84Z</time></trkpt><trkpt lat="44.2056962" lon="11.266248"><ele>765.0</ele><time>2026-04-04T13:14:52.84Z</time></trkpt><trkpt lat="44.2056362" lon="11.2663095"><ele>760.6</ele><time>2026-04-04T13:15:38.841Z</time></trkpt><trkpt lat="44.2055426" lon="11.2663994"><ele>756.2</ele><time>2026-04-04T13:15:40.84Z</time></trkpt><trkpt lat="44.2054657" lon="11.2664683"><ele>751.8</ele><time>2026-04-04T13:15:41.839Z</time></trkpt><trkpt lat="44.2053794" lon="11.2665428"><ele>747.4</ele><time>2026-04-04T13:15:42.84Z</time></trkpt><trkpt lat="44.205302" lon="11.2666176"><ele>743.0</ele><time>2026-04-04T13:15:43.841Z</time></trkpt><trkpt lat="44.2052433" lon="11.2667077"><ele>743.0</ele><time>2026-04-04T13:15:44.84Z</time></trkpt><trkpt lat="44.2052127" lon="11.2668096"><ele>743.0</ele><time>2026-04-04T13:15:45.839Z</time></trkpt><trkpt lat="44.2052124" lon="11.2669131"><ele>743.0</ele><time>2026-04-04T13:15:46.84Z</time></trkpt><trkpt lat="44.2052365" lon="11.2669962"><ele>743.0</ele><time>2026-04-04T13:15:47.841Z</time></trkpt><trkpt lat="44.2052905" lon="11.2670672"><ele>743.0</ele><time>2026-04-04T13:15:48.84Z</time></trkpt><trkpt lat="44.2053508" lon="11.2671543"><ele>743.0</ele><time>2026-04-04T13:15:49.841Z</time></trkpt><trkpt lat="44.2054143" lon="11.2672514"><ele>742.0</ele><time>2026-04-04T13:15:50.84Z</time></trkpt><trkpt lat="44.2054746" lon="11.2673552"><ele>741.0</ele><time>2026-04-04T13:15:51.841Z</time></trkpt><trkpt lat="44.2055291" lon="11.2674611"><ele>740.0</ele><time>2026-04-04T13:15:52.84Z</time></trkpt><trkpt lat="44.205584" lon="11.2675708"><ele>739.0</ele><time>2026-04-04T13:15:53.841Z</time></trkpt><trkpt lat="44.2056091" lon="11.2676926"><ele>738.0</ele><time>2026-04-04T13:15:54.841Z</time></trkpt><trkpt lat="44.2056408" lon="11.2678133"><ele>739.1666666666666</ele><time>2026-04-04T13:15:55.841Z</time></trkpt><trkpt lat="44.20567" lon="11.2679346"><ele>740.3333333333334</ele><time>2026-04-04T13:15:56.84Z</time></trkpt><trkpt lat="44.2056978" lon="11.2680569"><ele>741.5</ele><time>2026-04-04T13:15:57.84Z</time></trkpt><trkpt lat="44.2057289" lon="11.2681764"><ele>742.6666666666667</ele><time>2026-04-04T13:15:58.84Z</time></trkpt><trkpt lat="44.2057475" lon="11.2682885"><ele>743.8333333333334</ele><time>2026-04-04T13:15:59.84Z</time></trkpt><trkpt lat="44.2057724" lon="11.2683903"><ele>745.0</ele><time>2026-04-04T13:16:00.841Z</time></trkpt><trkpt lat="44.2058142" lon="11.2684834"><ele>745.0</ele><time>2026-04-04T13:16:01.84Z</time></trkpt><trkpt lat="44.2058757" lon="11.268554"><ele>745.0</ele><time>2026-04-04T13:16:02.841Z</time></trkpt><trkpt lat="44.2059517" lon="11.2685961"><ele>745.0</ele><time>2026-04-04T13:16:03.841Z</time></trkpt><trkpt lat="44.2060381" lon="11.2686333"><ele>745.0</ele><time>2026-04-04T13:16:04.841Z</time></trkpt><trkpt lat="44.2061232" lon="11.268673"><ele>745.0</ele><time>2026-04-04T13:16:05.841Z</time></trkpt><trkpt lat="44.2062059" lon="11.2687128"><ele>745.0</ele><time>2026-04-04T13:16:06.841Z</time></trkpt><trkpt lat="44.206289" lon="11.2687575"><ele>745.0</ele><time>2026-04-04T13:16:07.84Z</time></trkpt><trkpt lat="44.2063652" lon="11.2688203"><ele>745.0</ele><time>2026-04-04T13:16:08.841Z</time></trkpt><trkpt lat="44.2064303" lon="11.2689096"><ele>745.0</ele><time>2026-04-04T13:16:09.84Z</time></trkpt><trkpt lat="44.206489" lon="11.2690143"><ele>745.0</ele><time>2026-04-04T13:16:10.841Z</time></trkpt><trkpt lat="44.2065419" lon="11.2691202"><ele>745.0</ele><time>2026-04-04T13:16:11.841Z</time></trkpt><trkpt lat="44.2065924" lon="11.2692304"><ele>745.2</ele><time>2026-04-04T13:16:12.841Z</time></trkpt><trkpt lat="44.2066267" lon="11.2693465"><ele>745.4</ele><time>2026-04-04T13:16:13.84Z</time></trkpt><trkpt lat="44.2066279" lon="11.2694756"><ele>745.5999999999999</ele><time>2026-04-04T13:16:14.841Z</time></trkpt><trkpt lat="44.2066056" lon="11.2696139"><ele>745.8</ele><time>2026-04-04T13:16:15.84Z</time></trkpt><trkpt lat="44.2065752" lon="11.2697526"><ele>746.0</ele><time>2026-04-04T13:16:16.841Z</time></trkpt><trkpt lat="44.206552" lon="11.269895"><ele>743.4</ele><time>2026-04-04T13:16:17.84Z</time></trkpt><trkpt lat="44.2065423" lon="11.2700316"><ele>740.8</ele><time>2026-04-04T13:16:18.839Z</time></trkpt><trkpt lat="44.2065407" lon="11.2701611"><ele>738.1999999999999</ele><time>2026-04-04T13:16:19.84Z</time></trkpt><trkpt lat="44.2065471" lon="11.2702863"><ele>735.5999999999999</ele><time>2026-04-04T13:16:20.839Z</time></trkpt><trkpt lat="44.2065632" lon="11.2704076"><ele>733.0</ele><time>2026-04-04T13:16:21.839Z</time></trkpt><trkpt lat="44.206587" lon="11.2705237"><ele>730.5999999999999</ele><time>2026-04-04T13:16:22.84Z</time></trkpt><trkpt lat="44.2066201" lon="11.2706336"><ele>728.1999999999999</ele><time>2026-04-04T13:16:23.841Z</time></trkpt><trkpt lat="44.2066563" lon="11.2707457"><ele>725.8</ele><time>2026-04-04T13:16:24.841Z</time></trkpt><trkpt lat="44.206697" lon="11.2708684"><ele>723.4</ele><time>2026-04-04T13:16:25.84Z</time></trkpt><trkpt lat="44.2067428" lon="11.2710017"><ele>721.0</ele><time>2026-04-04T13:16:26.839Z</time></trkpt><trkpt lat="44.2067827" lon="11.2711361"><ele>721.0</ele><time>2026-04-04T13:16:27.841Z</time></trkpt><trkpt lat="44.2068217" lon="11.2712685"><ele>721.0</ele><time>2026-04-04T13:16:28.84Z</time></trkpt><trkpt lat="44.20686" lon="11.2713948"><ele>721.0</ele><time>2026-04-04T13:16:29.84Z</time></trkpt><trkpt lat="44.2069053" lon="11.2715116"><ele>721.0</ele><time>2026-04-04T13:16:30.841Z</time></trkpt><trkpt lat="44.2069707" lon="11.2716043"><ele>721.0</ele><time>2026-04-04T13:16:31.84Z</time></trkpt><trkpt lat="44.2070495" lon="11.2716777"><ele>721.5999999999999</ele><time>2026-04-04T13:16:32.84Z</time></trkpt><trkpt lat="44.2071339" lon="11.2717309"><ele>722.2</ele><time>2026-04-04T13:16:33.84Z</time></trkpt><trkpt lat="44.2072173" lon="11.2717814"><ele>722.8</ele><time>2026-04-04T13:16:34.841Z</time></trkpt><trkpt lat="44.2073002" lon="11.2718306"><ele>723.4000000000001</ele><time>2026-04-04T13:16:35.841Z</time></trkpt><trkpt lat="44.2073819" lon="11.2718734"><ele>724.0</ele><time>2026-04-04T13:16:36.84Z</time></trkpt><trkpt lat="44.2074816" lon="11.271892"><ele>724.0</ele><time>2026-04-04T13:16:37.84Z</time></trkpt><trkpt lat="44.2075969" lon="11.2718936"><ele>724.0</ele><time>2026-04-04T13:16:38.841Z</time></trkpt><trkpt lat="44.2077218" lon="11.2718848"><ele>724.0</ele><time>2026-04-04T13:16:39.841Z</time></trkpt><trkpt lat="44.2078456" lon="11.2718781"><ele>724.0</ele><time>2026-04-04T13:16:40.841Z</time></trkpt><trkpt lat="44.2079667" lon="11.2718789"><ele>724.0</ele><time>2026-04-04T13:16:41.841Z</time></trkpt><trkpt lat="44.2080861" lon="11.2718826"><ele>724.0</ele><time>2026-04-04T13:16:42.841Z</time></trkpt><trkpt lat="44.2081984" lon="11.2718868"><ele>724.0</ele><time>2026-04-04T13:16:43.84Z</time></trkpt><trkpt lat="44.2083087" lon="11.2718969"><ele>724.0</ele><time>2026-04-04T13:16:44.841Z</time></trkpt><trkpt lat="44.208418" lon="11.2719112"><ele>723.8000000000001</ele><time>2026-04-04T13:16:45.84Z</time></trkpt><trkpt lat="44.2085274" lon="11.2719306"><ele>723.6</ele><time>2026-04-04T13:16:46.841Z</time></trkpt><trkpt lat="44.2086361" lon="11.2719576"><ele>723.4</ele><time>2026-04-04T13:16:47.84Z</time></trkpt><trkpt lat="44.2087443" lon="11.271989"><ele>723.2</ele><time>2026-04-04T13:16:48.841Z</time></trkpt><trkpt lat="44.2088501" lon="11.2720188"><ele>723.0</ele><time>2026-04-04T13:16:49.841Z</time></trkpt><trkpt lat="44.2089543" lon="11.2720463"><ele>721.4</ele><time>2026-04-04T13:16:50.841Z</time></trkpt><trkpt lat="44.2090634" lon="11.272064"><ele>719.8</ele><time>2026-04-04T13:16:51.84Z</time></trkpt><trkpt lat="44.2091754" lon="11.2720671"><ele>718.2</ele><time>2026-04-04T13:16:52.841Z</time></trkpt><trkpt lat="44.2092892" lon="11.2720638"><ele>716.6</ele><time>2026-04-04T13:16:53.84Z</time></trkpt><trkpt lat="44.2094012" lon="11.2720587"><ele>715.0</ele><time>2026-04-04T13:16:54.839Z</time></trkpt><trkpt lat="44.2095145" lon="11.272042"><ele>715.0</ele><time>2026-04-04T13:16:55.84Z</time></trkpt><trkpt lat="44.2096263" lon="11.2720169"><ele>715.0</ele><time>2026-04-04T13:16:56.84Z</time></trkpt><trkpt lat="44.2097343" lon="11.2719816"><ele>715.0</ele><time>2026-04-04T13:16:57.841Z</time></trkpt><trkpt lat="44.2098359" lon="11.2719362"><ele>715.0</ele><time>2026-04-04T13:16:58.839Z</time></trkpt><trkpt lat="44.2099242" lon="11.2718962"><ele>715.0</ele><time>2026-04-04T13:16:59.841Z</time></trkpt><trkpt lat="44.2100012" lon="11.2718565"><ele>713.5714285714286</ele><time>2026-04-04T13:17:00.841Z</time></trkpt><trkpt lat="44.2100704" lon="11.2718364"><ele>712.1428571428571</ele><time>2026-04-04T13:17:01.84Z</time></trkpt><trkpt lat="44.2101393" lon="11.2718475"><ele>710.7142857142857</ele><time>2026-04-04T13:17:02.84Z</time></trkpt><trkpt lat="44.2101976" lon="11.2718995"><ele>709.2857142857142</ele><time>2026-04-04T13:17:03.841Z</time></trkpt><trkpt lat="44.2102325" lon="11.2719854"><ele>707.8571428571429</ele><time>2026-04-04T13:17:04.841Z</time></trkpt><trkpt lat="44.210249" lon="11.2720805"><ele>706.4285714285713</ele><time>2026-04-04T13:17:05.84Z</time></trkpt><trkpt lat="44.2102558" lon="11.272182"><ele>705.0</ele><time>2026-04-04T13:17:06.84Z</time></trkpt><trkpt lat="44.2102556" lon="11.2722822"><ele>702.0</ele><time>2026-04-04T13:17:07.84Z</time></trkpt><trkpt lat="44.21025" lon="11.2723817"><ele>699.0</ele><time>2026-04-04T13:17:08.84Z</time></trkpt><trkpt lat="44.2102425" lon="11.2724916"><ele>696.0</ele><time>2026-04-04T13:17:09.84Z</time></trkpt><trkpt lat="44.2102324" lon="11.2726087"><ele>693.0</ele><time>2026-04-04T13:17:10.841Z</time></trkpt><trkpt lat="44.2102223" lon="11.2727346"><ele>690.0</ele><time>2026-04-04T13:17:11.839Z</time></trkpt><trkpt lat="44.210218" lon="11.2728553"><ele>687.0</ele><time>2026-04-04T13:17:12.841Z</time></trkpt><trkpt lat="44.210212" lon="11.2729635"><ele>687.0</ele><time>2026-04-04T13:17:13.841Z</time></trkpt><trkpt lat="44.2101941" lon="11.2730679"><ele>687.0</ele><time>2026-04-04T13:17:14.841Z</time></trkpt><trkpt lat="44.2101701" lon="11.2731876"><ele>687.0</ele><time>2026-04-04T13:17:15.841Z</time></trkpt><trkpt lat="44.2101335" lon="11.2733179"><ele>687.0</ele><time>2026-04-04T13:17:16.841Z</time></trkpt><trkpt lat="44.2100861" lon="11.2734763"><ele>687.0</ele><time>2026-04-04T13:17:17.841Z</time></trkpt><trkpt lat="44.210032" lon="11.2736424"><ele>685.5</ele><time>2026-04-04T13:17:18.841Z</time></trkpt><trkpt lat="44.2099785" lon="11.2738104"><ele>684.0</ele><time>2026-04-04T13:17:19.84Z</time></trkpt><trkpt lat="44.209934" lon="11.2739831"><ele>682.5</ele><time>2026-04-04T13:17:20.84Z</time></trkpt><trkpt lat="44.2099001" lon="11.2741661"><ele>681.0</ele><time>2026-04-04T13:17:21.841Z</time></trkpt><trkpt lat="44.2098806" lon="11.2743536"><ele>681.0</ele><time>2026-04-04T13:17:22.841Z</time></trkpt><trkpt lat="44.2098702" lon="11.2745416"><ele>681.0</ele><time>2026-04-04T13:17:23.84Z</time></trkpt><trkpt lat="44.2098606" lon="11.2747223"><ele>681.0</ele><time>2026-04-04T13:17:24.84Z</time></trkpt><trkpt lat="44.2098512" lon="11.2748965"><ele>681.0</ele><time>2026-04-04T13:17:25.841Z</time></trkpt><trkpt lat="44.2098486" lon="11.2750524"><ele>682.0</ele><time>2026-04-04T13:17:26.84Z</time></trkpt><trkpt lat="44.2098482" lon="11.275191"><ele>683.0</ele><time>2026-04-04T13:17:27.841Z</time></trkpt><trkpt lat="44.2098695" lon="11.275313"><ele>684.0</ele><time>2026-04-04T13:17:28.84Z</time></trkpt><trkpt lat="44.2099268" lon="11.2754099"><ele>685.0</ele><time>2026-04-04T13:17:29.84Z</time></trkpt><trkpt lat="44.2100023" lon="11.275485"><ele>686.0</ele><time>2026-04-04T13:17:30.838Z</time></trkpt><trkpt lat="44.2100926" lon="11.2755558"><ele>681.8</ele><time>2026-04-04T13:17:31.839Z</time></trkpt><trkpt lat="44.2101878" lon="11.2756249"><ele>677.5999999999999</ele><time>2026-04-04T13:17:32.839Z</time></trkpt><trkpt lat="44.2102847" lon="11.2757005"><ele>673.4</ele><time>2026-04-04T13:17:33.839Z</time></trkpt><trkpt lat="44.2103809" lon="11.2757741"><ele>669.2</ele><time>2026-04-04T13:17:34.84Z</time></trkpt><trkpt lat="44.2104772" lon="11.2758504"><ele>665.0</ele><time>2026-04-04T13:17:35.839Z</time></trkpt><trkpt lat="44.2105718" lon="11.2759169"><ele>669.4</ele><time>2026-04-04T13:17:36.84Z</time></trkpt><trkpt lat="44.2106647" lon="11.2759793"><ele>673.8</ele><time>2026-04-04T13:17:37.84Z</time></trkpt><trkpt lat="44.210755" lon="11.2760315"><ele>678.2</ele><time>2026-04-04T13:17:38.84Z</time></trkpt><trkpt lat="44.210846" lon="11.2760802"><ele>682.6</ele><time>2026-04-04T13:17:39.84Z</time></trkpt><trkpt lat="44.2109426" lon="11.276117"><ele>687.0</ele><time>2026-04-04T13:17:40.839Z</time></trkpt><trkpt lat="44.2110414" lon="11.2761476"><ele>687.0</ele><time>2026-04-04T13:17:41.84Z</time></trkpt><trkpt lat="44.2111406" lon="11.2761725"><ele>687.0</ele><time>2026-04-04T13:17:42.839Z</time></trkpt><trkpt lat="44.2112358" lon="11.2762008"><ele>687.0</ele><time>2026-04-04T13:17:43.838Z</time></trkpt><trkpt lat="44.2113262" lon="11.2762361"><ele>687.0</ele><time>2026-04-04T13:17:44.839Z</time></trkpt><trkpt lat="44.2114197" lon="11.2762783"><ele>687.0</ele><time>2026-04-04T13:17:45.84Z</time></trkpt><trkpt lat="44.2115142" lon="11.27633"><ele>686.5</ele><time>2026-04-04T13:17:46.838Z</time></trkpt><trkpt lat="44.2116135" lon="11.2764008"><ele>686.0</ele><time>2026-04-04T13:17:47.84Z</time></trkpt><trkpt lat="44.2117173" lon="11.2764838"><ele>685.5</ele><time>2026-04-04T13:17:48.84Z</time></trkpt><trkpt lat="44.2118211" lon="11.2765674"><ele>685.0</ele><time>2026-04-04T13:17:49.84Z</time></trkpt><trkpt lat="44.2119258" lon="11.2766503"><ele>678.6</ele><time>2026-04-04T13:17:50.839Z</time></trkpt><trkpt lat="44.2120246" lon="11.2767288"><ele>672.2</ele><time>2026-04-04T13:17:51.84Z</time></trkpt><trkpt lat="44.2121123" lon="11.2767917"><ele>665.8</ele><time>2026-04-04T13:17:52.838Z</time></trkpt><trkpt lat="44.2122019" lon="11.2768076"><ele>659.4</ele><time>2026-04-04T13:17:53.838Z</time></trkpt><trkpt lat="44.2122941" lon="11.276765"><ele>653.0</ele><time>2026-04-04T13:17:54.838Z</time></trkpt><trkpt lat="44.2123869" lon="11.2767048"><ele>651.5</ele><time>2026-04-04T13:17:55.84Z</time></trkpt><trkpt lat="44.2124873" lon="11.276635"><ele>650.0</ele><time>2026-04-04T13:17:56.838Z</time></trkpt><trkpt lat="44.2125904" lon="11.2765613"><ele>648.5</ele><time>2026-04-04T13:17:57.839Z</time></trkpt><trkpt lat="44.2126967" lon="11.2764893"><ele>647.0</ele><time>2026-04-04T13:17:58.84Z</time></trkpt><trkpt lat="44.2127948" lon="11.2764268"><ele>646.0</ele><time>2026-04-04T13:17:59.839Z</time></trkpt><trkpt lat="44.2128883" lon="11.2763829"><ele>645.0</ele><time>2026-04-04T13:18:00.84Z</time></trkpt><trkpt lat="44.2129879" lon="11.2763667"><ele>644.0</ele><time>2026-04-04T13:18:01.839Z</time></trkpt><trkpt lat="44.2130857" lon="11.2763913"><ele>643.0</ele><time>2026-04-04T13:18:02.838Z</time></trkpt><trkpt lat="44.2131831" lon="11.2764528"><ele>642.0</ele><time>2026-04-04T13:18:03.838Z</time></trkpt><trkpt lat="44.213295" lon="11.2765285"><ele>642.0</ele><time>2026-04-04T13:18:04.84Z</time></trkpt><trkpt lat="44.2134021" lon="11.2765905"><ele>642.0</ele><time>2026-04-04T13:18:05.84Z</time></trkpt><trkpt lat="44.2135024" lon="11.2766409"><ele>642.0</ele><time>2026-04-04T13:18:06.84Z</time></trkpt><trkpt lat="44.2135984" lon="11.2766765"><ele>642.0</ele><time>2026-04-04T13:18:07.839Z</time></trkpt><trkpt lat="44.2136918" lon="11.2767103"><ele>642.0</ele><time>2026-04-04T13:18:08.839Z</time></trkpt><trkpt lat="44.2137723" lon="11.2767768"><ele>641.9999999999999</ele><time>2026-04-04T13:18:09.84Z</time></trkpt><trkpt lat="44.2138376" lon="11.2768524"><ele>642.0</ele><time>2026-04-04T13:18:10.84Z</time></trkpt><trkpt lat="44.2139075" lon="11.2768783"><ele>642.0</ele><time>2026-04-04T13:18:11.839Z</time></trkpt><trkpt lat="44.2139696" lon="11.2768494"><ele>642.0</ele><time>2026-04-04T13:18:12.839Z</time></trkpt><trkpt lat="44.2140092" lon="11.2767769"><ele>642.0</ele><time>2026-04-04T13:18:13.839Z</time></trkpt><trkpt lat="44.214034" lon="11.2766872"><ele>641.9999999999999</ele><time>2026-04-04T13:18:14.84Z</time></trkpt><trkpt lat="44.2140427" lon="11.2765765"><ele>642.0</ele><time>2026-04-04T13:18:15.84Z</time></trkpt><trkpt lat="44.2140641" lon="11.2764723"><ele>644.3333333333334</ele><time>2026-04-04T13:18:16.84Z</time></trkpt><trkpt lat="44.2141077" lon="11.2763804"><ele>646.6666666666666</ele><time>2026-04-04T13:18:17.839Z</time></trkpt><trkpt lat="44.2141608" lon="11.2762942"><ele>649.0</ele><time>2026-04-04T13:18:18.84Z</time></trkpt><trkpt lat="44.2142215" lon="11.2762124"><ele>651.3333333333333</ele><time>2026-04-04T13:18:19.84Z</time></trkpt><trkpt lat="44.2142905" lon="11.2761438"><ele>653.6666666666666</ele><time>2026-04-04T13:18:20.838Z</time></trkpt><trkpt lat="44.2143688" lon="11.2760947"><ele>656.0</ele><time>2026-04-04T13:18:21.839Z</time></trkpt><trkpt lat="44.2144527" lon="11.2760647"><ele>656.0</ele><time>2026-04-04T13:18:22.84Z</time></trkpt><trkpt lat="44.2145373" lon="11.2760557"><ele>656.0</ele><time>2026-04-04T13:18:23.839Z</time></trkpt><trkpt lat="44.214621" lon="11.2760531"><ele>656.0</ele><time>2026-04-04T13:18:24.84Z</time></trkpt><trkpt lat="44.2147003" lon="11.2760555"><ele>656.0</ele><time>2026-04-04T13:18:25.84Z</time></trkpt><trkpt lat="44.214781" lon="11.276056"><ele>656.0</ele><time>2026-04-04T13:18:26.84Z</time></trkpt><trkpt lat="44.214862" lon="11.2760546"><ele>656.0</ele><time>2026-04-04T13:18:27.839Z</time></trkpt><trkpt lat="44.2149416" lon="11.2760343"><ele>654.8333333333333</ele><time>2026-04-04T13:18:28.84Z</time></trkpt><trkpt lat="44.215014" lon="11.2759934"><ele>653.6666666666666</ele><time>2026-04-04T13:18:29.839Z</time></trkpt><trkpt lat="44.2150749" lon="11.2759249"><ele>652.5</ele><time>2026-04-04T13:18:30.839Z</time></trkpt><trkpt lat="44.2151357" lon="11.2758409"><ele>651.3333333333334</ele><time>2026-04-04T13:18:31.838Z</time></trkpt><trkpt lat="44.2152013" lon="11.2757505"><ele>650.1666666666667</ele><time>2026-04-04T13:18:32.84Z</time></trkpt><trkpt lat="44.215272" lon="11.2756468"><ele>649.0</ele><time>2026-04-04T13:18:33.838Z</time></trkpt><trkpt lat="44.2153414" lon="11.2755474"><ele>649.0</ele><time>2026-04-04T13:18:34.839Z</time></trkpt><trkpt lat="44.2154161" lon="11.2754403"><ele>649.0</ele><time>2026-04-04T13:18:35.84Z</time></trkpt><trkpt lat="44.2154873" lon="11.2753324"><ele>649.0</ele><time>2026-04-04T13:18:36.839Z</time></trkpt><trkpt lat="44.2155659" lon="11.2752279"><ele>649.0</ele><time>2026-04-04T13:18:37.839Z</time></trkpt><trkpt lat="44.2156582" lon="11.2751235"><ele>649.0</ele><time>2026-04-04T13:18:38.839Z</time></trkpt><trkpt lat="44.2157504" lon="11.2750361"><ele>644.6</ele><time>2026-04-04T13:18:39.84Z</time></trkpt><trkpt lat="44.2158407" lon="11.2749459"><ele>640.2</ele><time>2026-04-04T13:18:40.839Z</time></trkpt><trkpt lat="44.2159562" lon="11.2748551"><ele>635.8000000000001</ele><time>2026-04-04T13:18:41.84Z</time></trkpt><trkpt lat="44.216037" lon="11.2747761"><ele>631.4000000000001</ele><time>2026-04-04T13:18:42.839Z</time></trkpt><trkpt lat="44.2161121" lon="11.2746952"><ele>627.0</ele><time>2026-04-04T13:18:43.839Z</time></trkpt><trkpt lat="44.2162035" lon="11.2746199"><ele>627.0</ele><time>2026-04-04T13:18:44.84Z</time></trkpt><trkpt lat="44.2162693" lon="11.2745604"><ele>627.0</ele><time>2026-04-04T13:18:45.839Z</time></trkpt><trkpt lat="44.2163331" lon="11.2745162"><ele>627.0</ele><time>2026-04-04T13:18:46.839Z</time></trkpt><trkpt lat="44.2164003" lon="11.2744749"><ele>627.0</ele><time>2026-04-04T13:18:47.84Z</time></trkpt><trkpt lat="44.2165118" lon="11.2744138"><ele>627.0</ele><time>2026-04-04T13:18:49.839Z</time></trkpt><trkpt lat="44.2166081" lon="11.2743094"><ele>622.2</ele><time>2026-04-04T13:18:51.84Z</time></trkpt><trkpt lat="44.2166757" lon="11.2742508"><ele>617.4000000000001</ele><time>2026-04-04T13:18:52.839Z</time></trkpt><trkpt lat="44.2167523" lon="11.2741899"><ele>612.5999999999999</ele><time>2026-04-04T13:18:53.839Z</time></trkpt><trkpt lat="44.2168357" lon="11.2741196"><ele>607.8</ele><time>2026-04-04T13:18:54.839Z</time></trkpt><trkpt lat="44.2169266" lon="11.2740428"><ele>603.0</ele><time>2026-04-04T13:18:55.839Z</time></trkpt><trkpt lat="44.2170271" lon="11.273955"><ele>603.5</ele><time>2026-04-04T13:18:56.84Z</time></trkpt><trkpt lat="44.2171313" lon="11.2738615"><ele>604.0</ele><time>2026-04-04T13:18:57.84Z</time></trkpt><trkpt lat="44.2172348" lon="11.2737462"><ele>604.5</ele><time>2026-04-04T13:18:58.84Z</time></trkpt><trkpt lat="44.2173322" lon="11.2736209"><ele>605.0</ele><time>2026-04-04T13:18:59.839Z</time></trkpt><trkpt lat="44.2174416" lon="11.2735112"><ele>605.0</ele><time>2026-04-04T13:19:00.84Z</time></trkpt><trkpt lat="44.2175504" lon="11.2734118"><ele>605.0</ele><time>2026-04-04T13:19:01.839Z</time></trkpt><trkpt lat="44.2176527" lon="11.2733311"><ele>605.0</ele><time>2026-04-04T13:19:02.84Z</time></trkpt><trkpt lat="44.2177489" lon="11.2732584"><ele>605.0</ele><time>2026-04-04T13:19:03.839Z</time></trkpt><trkpt lat="44.2178345" lon="11.2731909"><ele>605.0</ele><time>2026-04-04T13:19:04.838Z</time></trkpt><trkpt lat="44.2178995" lon="11.2731282"><ele>605.0</ele><time>2026-04-04T13:19:05.84Z</time></trkpt><trkpt lat="44.2179478" lon="11.2729625"><ele>605.0</ele><time>2026-04-04T13:19:07.839Z</time></trkpt><trkpt lat="44.2179337" lon="11.2728476"><ele>605.0</ele><time>2026-04-04T13:19:08.84Z</time></trkpt><trkpt lat="44.2178929" lon="11.2727214"><ele>605.0</ele><time>2026-04-04T13:19:09.84Z</time></trkpt><trkpt lat="44.217841" lon="11.2725738"><ele>607.75</ele><time>2026-04-04T13:19:10.839Z</time></trkpt><trkpt lat="44.217801" lon="11.2724208"><ele>610.5</ele><time>2026-04-04T13:19:11.839Z</time></trkpt><trkpt lat="44.2177456" lon="11.2722631"><ele>613.25</ele><time>2026-04-04T13:19:12.839Z</time></trkpt><trkpt lat="44.2176672" lon="11.2720962"><ele>616.0</ele><time>2026-04-04T13:19:13.838Z</time></trkpt><trkpt lat="44.2175976" lon="11.2719232"><ele>616.0</ele><time>2026-04-04T13:19:14.839Z</time></trkpt><trkpt lat="44.2175347" lon="11.2717608"><ele>616.0</ele><time>2026-04-04T13:19:15.839Z</time></trkpt><trkpt lat="44.2174732" lon="11.2716006"><ele>616.0</ele><time>2026-04-04T13:19:16.84Z</time></trkpt><trkpt lat="44.2174017" lon="11.2714809"><ele>616.0</ele><time>2026-04-04T13:19:17.838Z</time></trkpt><trkpt lat="44.2173368" lon="11.2713867"><ele>618.6666666666667</ele><time>2026-04-04T13:19:18.839Z</time></trkpt><trkpt lat="44.2173119" lon="11.2712922"><ele>621.3333333333334</ele><time>2026-04-04T13:19:19.839Z</time></trkpt><trkpt lat="44.2173604" lon="11.2711342"><ele>624.0</ele><time>2026-04-04T13:19:21.839Z</time></trkpt><trkpt lat="44.2174093" lon="11.2710613"><ele>626.6666666666666</ele><time>2026-04-04T13:19:22.839Z</time></trkpt><trkpt lat="44.2174224" lon="11.2709547"><ele>629.3333333333333</ele><time>2026-04-04T13:19:23.84Z</time></trkpt><trkpt lat="44.2174188" lon="11.2708537"><ele>632.0</ele><time>2026-04-04T13:19:24.84Z</time></trkpt><trkpt lat="44.2174478" lon="11.270704"><ele>632.0</ele><time>2026-04-04T13:19:26.84Z</time></trkpt><trkpt lat="44.2175514" lon="11.2706492"><ele>632.0</ele><time>2026-04-04T13:19:28.84Z</time></trkpt><trkpt lat="44.2176346" lon="11.2706594"><ele>632.0</ele><time>2026-04-04T13:19:29.84Z</time></trkpt><trkpt lat="44.2177344" lon="11.2707031"><ele>632.0</ele><time>2026-04-04T13:19:30.84Z</time></trkpt><trkpt lat="44.21785" lon="11.2707474"><ele>632.0</ele><time>2026-04-04T13:19:31.839Z</time></trkpt><trkpt lat="44.2179761" lon="11.2707913"><ele>632.0</ele><time>2026-04-04T13:19:32.84Z</time></trkpt><trkpt lat="44.2180902" lon="11.2708447"><ele>632.0</ele><time>2026-04-04T13:19:33.839Z</time></trkpt><trkpt lat="44.2181968" lon="11.2709157"><ele>632.0</ele><time>2026-04-04T13:19:34.84Z</time></trkpt><trkpt lat="44.2183046" lon="11.2709732"><ele>632.0</ele><time>2026-04-04T13:19:35.84Z</time></trkpt><trkpt lat="44.2184135" lon="11.2709947"><ele>631.8333333333333</ele><time>2026-04-04T13:19:36.839Z</time></trkpt><trkpt lat="44.2185025" lon="11.2710012"><ele>631.6666666666666</ele><time>2026-04-04T13:19:37.84Z</time></trkpt><trkpt lat="44.2185736" lon="11.2709876"><ele>631.5</ele><time>2026-04-04T13:19:38.84Z</time></trkpt><trkpt lat="44.2186423" lon="11.2709447"><ele>631.3333333333334</ele><time>2026-04-04T13:19:39.84Z</time></trkpt><trkpt lat="44.2187244" lon="11.2708872"><ele>631.1666666666667</ele><time>2026-04-04T13:19:40.839Z</time></trkpt><trkpt lat="44.2188166" lon="11.2708193"><ele>631.0</ele><time>2026-04-04T13:19:41.84Z</time></trkpt><trkpt lat="44.2189071" lon="11.270737"><ele>628.0</ele><time>2026-04-04T13:19:42.839Z</time></trkpt><trkpt lat="44.2189873" lon="11.2706296"><ele>625.0</ele><time>2026-04-04T13:19:43.839Z</time></trkpt><trkpt lat="44.219072" lon="11.2705"><ele>622.0</ele><time>2026-04-04T13:19:44.84Z</time></trkpt><trkpt lat="44.2191674" lon="11.2703707"><ele>619.0</ele><time>2026-04-04T13:19:45.839Z</time></trkpt><trkpt lat="44.2192696" lon="11.2702391"><ele>626.0</ele><time>2026-04-04T13:19:46.84Z</time></trkpt><trkpt lat="44.2193725" lon="11.270121"><ele>633.0</ele><time>2026-04-04T13:19:47.84Z</time></trkpt><trkpt lat="44.2194724" lon="11.2700213"><ele>640.0</ele><time>2026-04-04T13:19:48.84Z</time></trkpt><trkpt lat="44.2195707" lon="11.2699256"><ele>647.0</ele><time>2026-04-04T13:19:49.839Z</time></trkpt><trkpt lat="44.2196665" lon="11.2698284"><ele>647.75</ele><time>2026-04-04T13:19:50.839Z</time></trkpt><trkpt lat="44.2197532" lon="11.2697162"><ele>648.5</ele><time>2026-04-04T13:19:51.84Z</time></trkpt><trkpt lat="44.2198343" lon="11.2695935"><ele>649.25</ele><time>2026-04-04T13:19:52.84Z</time></trkpt><trkpt lat="44.2199071" lon="11.2694608"><ele>650.0</ele><time>2026-04-04T13:19:53.839Z</time></trkpt><trkpt lat="44.2199689" lon="11.2693323"><ele>650.0</ele><time>2026-04-04T13:19:54.839Z</time></trkpt><trkpt lat="44.2200274" lon="11.2692231"><ele>650.0</ele><time>2026-04-04T13:19:55.839Z</time></trkpt><trkpt lat="44.2201016" lon="11.2691638"><ele>650.0</ele><time>2026-04-04T13:19:56.839Z</time></trkpt><trkpt lat="44.2201758" lon="11.2691645"><ele>650.0</ele><time>2026-04-04T13:19:57.839Z</time></trkpt><trkpt lat="44.2202504" lon="11.2692094"><ele>650.0</ele><time>2026-04-04T13:19:58.839Z</time></trkpt><trkpt lat="44.2203191" lon="11.2692858"><ele>650.0</ele><time>2026-04-04T13:19:59.84Z</time></trkpt><trkpt lat="44.2203823" lon="11.2693707"><ele>650.0</ele><time>2026-04-04T13:20:00.84Z</time></trkpt><trkpt lat="44.2204445" lon="11.2694477"><ele>650.0</ele><time>2026-04-04T13:20:01.839Z</time></trkpt><trkpt lat="44.2205208" lon="11.2695095"><ele>650.0</ele><time>2026-04-04T13:20:02.839Z</time></trkpt><trkpt lat="44.2206085" lon="11.2695579"><ele>650.0</ele><time>2026-04-04T13:20:03.84Z</time></trkpt><trkpt lat="44.2207077" lon="11.2695984"><ele>650.0</ele><time>2026-04-04T13:20:04.84Z</time></trkpt><trkpt lat="44.2208151" lon="11.2696356"><ele>650.0</ele><time>2026-04-04T13:20:05.84Z</time></trkpt><trkpt lat="44.2209269" lon="11.2696667"><ele>650.0</ele><time>2026-04-04T13:20:06.839Z</time></trkpt><trkpt lat="44.2210357" lon="11.2697065"><ele>650.0</ele><time>2026-04-04T13:20:07.839Z</time></trkpt><trkpt lat="44.2211333" lon="11.269778"><ele>650.0</ele><time>2026-04-04T13:20:08.839Z</time></trkpt><trkpt lat="44.2212246" lon="11.2698674"><ele>650.0</ele><time>2026-04-04T13:20:09.84Z</time></trkpt><trkpt lat="44.2213178" lon="11.2699478"><ele>651.6</ele><time>2026-04-04T13:20:10.84Z</time></trkpt><trkpt lat="44.2214139" lon="11.2699858"><ele>653.2</ele><time>2026-04-04T13:20:11.839Z</time></trkpt><trkpt lat="44.2215016" lon="11.2699789"><ele>654.8</ele><time>2026-04-04T13:20:12.838Z</time></trkpt><trkpt lat="44.2215861" lon="11.2699293"><ele>656.4</ele><time>2026-04-04T13:20:13.84Z</time></trkpt><trkpt lat="44.2216573" lon="11.2698276"><ele>658.0</ele><time>2026-04-04T13:20:14.84Z</time></trkpt><trkpt lat="44.2217413" lon="11.2697379"><ele>658.0</ele><time>2026-04-04T13:20:15.839Z</time></trkpt><trkpt lat="44.2218465" lon="11.2696756"><ele>658.0</ele><time>2026-04-04T13:20:16.838Z</time></trkpt><trkpt lat="44.2219658" lon="11.2696368"><ele>658.0</ele><time>2026-04-04T13:20:17.84Z</time></trkpt><trkpt lat="44.2220986" lon="11.2696066"><ele>658.0</ele><time>2026-04-04T13:20:18.84Z</time></trkpt><trkpt lat="44.2222443" lon="11.2695763"><ele>656.6666666666667</ele><time>2026-04-04T13:20:19.84Z</time></trkpt><trkpt lat="44.2223923" lon="11.269546"><ele>655.3333333333334</ele><time>2026-04-04T13:20:20.84Z</time></trkpt><trkpt lat="44.2225454" lon="11.2695105"><ele>654.0</ele><time>2026-04-04T13:20:21.84Z</time></trkpt><trkpt lat="44.2226887" lon="11.2694747"><ele>654.0</ele><time>2026-04-04T13:20:22.84Z</time></trkpt><trkpt lat="44.2228249" lon="11.2694474"><ele>654.0</ele><time>2026-04-04T13:20:23.84Z</time></trkpt><trkpt lat="44.2229522" lon="11.2694379"><ele>654.0</ele><time>2026-04-04T13:20:24.84Z</time></trkpt><trkpt lat="44.2230707" lon="11.2694454"><ele>654.0</ele><time>2026-04-04T13:20:25.84Z</time></trkpt><trkpt lat="44.2231834" lon="11.2694682"><ele>652.8000000000001</ele><time>2026-04-04T13:20:26.839Z</time></trkpt><trkpt lat="44.2232858" lon="11.2695039"><ele>651.6</ele><time>2026-04-04T13:20:27.84Z</time></trkpt><trkpt lat="44.2233811" lon="11.2695474"><ele>650.4</ele><time>2026-04-04T13:20:28.84Z</time></trkpt><trkpt lat="44.2234752" lon="11.2695772"><ele>649.2</ele><time>2026-04-04T13:20:29.84Z</time></trkpt><trkpt lat="44.2235686" lon="11.2695522"><ele>648.0</ele><time>2026-04-04T13:20:30.84Z</time></trkpt><trkpt lat="44.2236563" lon="11.2694791"><ele>648.0</ele><time>2026-04-04T13:20:31.839Z</time></trkpt><trkpt lat="44.2237457" lon="11.2693795"><ele>648.0</ele><time>2026-04-04T13:20:32.839Z</time></trkpt><trkpt lat="44.2238199" lon="11.2692555"><ele>648.0</ele><time>2026-04-04T13:20:33.839Z</time></trkpt><trkpt lat="44.2238918" lon="11.2691296"><ele>648.0</ele><time>2026-04-04T13:20:34.839Z</time></trkpt><trkpt lat="44.2239694" lon="11.2690216"><ele>645.75</ele><time>2026-04-04T13:20:35.84Z</time></trkpt><trkpt lat="44.2240658" lon="11.2689504"><ele>643.5</ele><time>2026-04-04T13:20:36.839Z</time></trkpt><trkpt lat="44.2241783" lon="11.2689137"><ele>641.25</ele><time>2026-04-04T13:20:37.838Z</time></trkpt><trkpt lat="44.224294" lon="11.2689224"><ele>639.0</ele><time>2026-04-04T13:20:38.84Z</time></trkpt><trkpt lat="44.2244035" lon="11.2689685"><ele>639.0</ele><time>2026-04-04T13:20:39.839Z</time></trkpt><trkpt lat="44.2245001" lon="11.2690213"><ele>639.0</ele><time>2026-04-04T13:20:40.84Z</time></trkpt><trkpt lat="44.2246061" lon="11.2690485"><ele>639.0</ele><time>2026-04-04T13:20:41.84Z</time></trkpt><trkpt lat="44.2247102" lon="11.2690458"><ele>639.0</ele><time>2026-04-04T13:20:42.839Z</time></trkpt><trkpt lat="44.2248136" lon="11.2690195"><ele>639.0</ele><time>2026-04-04T13:20:43.84Z</time></trkpt><trkpt lat="44.2249145" lon="11.2689762"><ele>641.6</ele><time>2026-04-04T13:20:44.839Z</time></trkpt><trkpt lat="44.2250107" lon="11.2689119"><ele>644.2</ele><time>2026-04-04T13:20:45.839Z</time></trkpt><trkpt lat="44.2250973" lon="11.2688262"><ele>646.8000000000001</ele><time>2026-04-04T13:20:46.84Z</time></trkpt><trkpt lat="44.2251726" lon="11.2687384"><ele>649.4</ele><time>2026-04-04T13:20:47.839Z</time></trkpt><trkpt lat="44.2252352" lon="11.2686546"><ele>652.0</ele><time>2026-04-04T13:20:48.838Z</time></trkpt><trkpt lat="44.2252895" lon="11.2685682"><ele>652.0</ele><time>2026-04-04T13:20:49.839Z</time></trkpt><trkpt lat="44.2253413" lon="11.2684802"><ele>652.0</ele><time>2026-04-04T13:20:50.838Z</time></trkpt><trkpt lat="44.2253837" lon="11.2683871"><ele>652.0</ele><time>2026-04-04T13:20:51.839Z</time></trkpt><trkpt lat="44.2254167" lon="11.2682847"><ele>652.0</ele><time>2026-04-04T13:20:52.839Z</time></trkpt><trkpt lat="44.2254458" lon="11.2681751"><ele>652.0</ele><time>2026-04-04T13:20:53.839Z</time></trkpt><trkpt lat="44.2254742" lon="11.2680613"><ele>652.0</ele><time>2026-04-04T13:20:54.838Z</time></trkpt><trkpt lat="44.2255038" lon="11.2679448"><ele>652.6666666666667</ele><time>2026-04-04T13:20:55.838Z</time></trkpt><trkpt lat="44.2255328" lon="11.2678235"><ele>653.3333333333334</ele><time>2026-04-04T13:20:56.839Z</time></trkpt><trkpt lat="44.2255678" lon="11.2677066"><ele>654.0</ele><time>2026-04-04T13:20:57.839Z</time></trkpt><trkpt lat="44.2256011" lon="11.26759"><ele>654.6666666666666</ele><time>2026-04-04T13:20:58.838Z</time></trkpt><trkpt lat="44.2256334" lon="11.2674731"><ele>655.3333333333333</ele><time>2026-04-04T13:20:59.838Z</time></trkpt><trkpt lat="44.2256651" lon="11.2673654"><ele>656.0</ele><time>2026-04-04T13:21:00.837Z</time></trkpt><trkpt lat="44.2256892" lon="11.2672714"><ele>656.0</ele><time>2026-04-04T13:21:01.839Z</time></trkpt><trkpt lat="44.2257211" lon="11.2671909"><ele>656.0</ele><time>2026-04-04T13:21:02.839Z</time></trkpt><trkpt lat="44.2258284" lon="11.2671104"><ele>656.0</ele><time>2026-04-04T13:21:04.839Z</time></trkpt><trkpt lat="44.2258976" lon="11.267114"><ele>656.0</ele><time>2026-04-04T13:21:05.839Z</time></trkpt><trkpt lat="44.22598" lon="11.2671324"><ele>656.0</ele><time>2026-04-04T13:21:06.839Z</time></trkpt><trkpt lat="44.2260614" lon="11.2671615"><ele>656.0</ele><time>2026-04-04T13:21:07.838Z</time></trkpt><trkpt lat="44.226147" lon="11.2671929"><ele>656.0</ele><time>2026-04-04T13:21:08.839Z</time></trkpt><trkpt lat="44.226236" lon="11.2672222"><ele>656.0</ele><time>2026-04-04T13:21:09.839Z</time></trkpt><trkpt lat="44.2263295" lon="11.267239"><ele>656.0</ele><time>2026-04-04T13:21:10.838Z</time></trkpt><trkpt lat="44.226422" lon="11.2672348"><ele>656.0</ele><time>2026-04-04T13:21:11.839Z</time></trkpt><trkpt lat="44.2265164" lon="11.2671999"><ele>656.0</ele><time>2026-04-04T13:21:12.838Z</time></trkpt><trkpt lat="44.2266095" lon="11.2671448"><ele>652.8</ele><time>2026-04-04T13:21:13.838Z</time></trkpt><trkpt lat="44.2266986" lon="11.2670841"><ele>649.5999999999999</ele><time>2026-04-04T13:21:14.839Z</time></trkpt><trkpt lat="44.2267817" lon="11.2670218"><ele>646.4</ele><time>2026-04-04T13:21:15.838Z</time></trkpt><trkpt lat="44.2268668" lon="11.266967"><ele>643.2</ele><time>2026-04-04T13:21:16.838Z</time></trkpt><trkpt lat="44.2269561" lon="11.2669231"><ele>640.0</ele><time>2026-04-04T13:21:17.837Z</time></trkpt><trkpt lat="44.2270487" lon="11.2668899"><ele>640.0</ele><time>2026-04-04T13:21:18.839Z</time></trkpt><trkpt lat="44.2271396" lon="11.2668781"><ele>640.0</ele><time>2026-04-04T13:21:19.839Z</time></trkpt><trkpt lat="44.2272348" lon="11.2668669"><ele>640.0</ele><time>2026-04-04T13:21:20.839Z</time></trkpt><trkpt lat="44.2273313" lon="11.2668636"><ele>640.0</ele><time>2026-04-04T13:21:21.839Z</time></trkpt><trkpt lat="44.2274239" lon="11.2668583"><ele>640.0</ele><time>2026-04-04T13:21:22.838Z</time></trkpt><trkpt lat="44.2275169" lon="11.2668498"><ele>637.5</ele><time>2026-04-04T13:21:23.837Z</time></trkpt><trkpt lat="44.2276068" lon="11.2668366"><ele>635.0</ele><time>2026-04-04T13:21:24.839Z</time></trkpt><trkpt lat="44.2276972" lon="11.2668248"><ele>632.5</ele><time>2026-04-04T13:21:25.838Z</time></trkpt><trkpt lat="44.2277893" lon="11.2668273"><ele>630.0</ele><time>2026-04-04T13:21:26.838Z</time></trkpt><trkpt lat="44.2278734" lon="11.2668749"><ele>627.5</ele><time>2026-04-04T13:21:27.839Z</time></trkpt><trkpt lat="44.227941" lon="11.2669445"><ele>625.0</ele><time>2026-04-04T13:21:28.839Z</time></trkpt><trkpt lat="44.227998" lon="11.2670466"><ele>625.0</ele><time>2026-04-04T13:21:29.839Z</time></trkpt><trkpt lat="44.2280573" lon="11.2671563"><ele>625.0</ele><time>2026-04-04T13:21:30.839Z</time></trkpt><trkpt lat="44.2281296" lon="11.2672713"><ele>625.0</ele><time>2026-04-04T13:21:31.838Z</time></trkpt><trkpt lat="44.2282149" lon="11.2673928"><ele>625.0</ele><time>2026-04-04T13:21:32.838Z</time></trkpt><trkpt lat="44.2283117" lon="11.2675242"><ele>624.5</ele><time>2026-04-04T13:21:33.839Z</time></trkpt><trkpt lat="44.2284116" lon="11.2676616"><ele>624.0</ele><time>2026-04-04T13:21:34.839Z</time></trkpt><trkpt lat="44.2285051" lon="11.2677901"><ele>623.5</ele><time>2026-04-04T13:21:35.838Z</time></trkpt><trkpt lat="44.2285872" lon="11.2678992"><ele>623.0</ele><time>2026-04-04T13:21:36.838Z</time></trkpt><trkpt lat="44.2286711" lon="11.267978"><ele>623.0</ele><time>2026-04-04T13:21:37.838Z</time></trkpt><trkpt lat="44.2287729" lon="11.2680435"><ele>623.0</ele><time>2026-04-04T13:21:38.838Z</time></trkpt><trkpt lat="44.2288887" lon="11.2681023"><ele>623.0</ele><time>2026-04-04T13:21:39.838Z</time></trkpt><trkpt lat="44.2290227" lon="11.2681809"><ele>623.0</ele><time>2026-04-04T13:21:40.839Z</time></trkpt><trkpt lat="44.2291536" lon="11.2682643"><ele>623.25</ele><time>2026-04-04T13:21:41.839Z</time></trkpt><trkpt lat="44.229284" lon="11.2683478"><ele>623.5</ele><time>2026-04-04T13:21:42.838Z</time></trkpt><trkpt lat="44.2294007" lon="11.2684549"><ele>623.75</ele><time>2026-04-04T13:21:43.839Z</time></trkpt><trkpt lat="44.2294872" lon="11.2685722"><ele>624.0</ele><time>2026-04-04T13:21:44.839Z</time></trkpt><trkpt lat="44.2295738" lon="11.2686675"><ele>624.0</ele><time>2026-04-04T13:21:45.839Z</time></trkpt><trkpt lat="44.229668" lon="11.2687293"><ele>624.0</ele><time>2026-04-04T13:21:46.838Z</time></trkpt><trkpt lat="44.2297648" lon="11.2687634"><ele>624.0</ele><time>2026-04-04T13:21:47.839Z</time></trkpt><trkpt lat="44.2298755" lon="11.2687661"><ele>624.0</ele><time>2026-04-04T13:21:48.839Z</time></trkpt><trkpt lat="44.229986" lon="11.2687526"><ele>624.0</ele><time>2026-04-04T13:21:49.839Z</time></trkpt><trkpt lat="44.2300993" lon="11.2687179"><ele>626.0</ele><time>2026-04-04T13:21:50.839Z</time></trkpt><trkpt lat="44.2302117" lon="11.2686478"><ele>628.0</ele><time>2026-04-04T13:21:51.837Z</time></trkpt><trkpt lat="44.2303237" lon="11.2685584"><ele>630.0</ele><time>2026-04-04T13:21:52.838Z</time></trkpt><trkpt lat="44.2304354" lon="11.268464"><ele>632.0</ele><time>2026-04-04T13:21:53.838Z</time></trkpt><trkpt lat="44.2305531" lon="11.2683657"><ele>632.5</ele><time>2026-04-04T13:21:54.839Z</time></trkpt><trkpt lat="44.2306713" lon="11.2682616"><ele>633.0</ele><time>2026-04-04T13:21:55.838Z</time></trkpt><trkpt lat="44.2307887" lon="11.2681618"><ele>633.5</ele><time>2026-04-04T13:21:56.839Z</time></trkpt><trkpt lat="44.2309032" lon="11.2680676"><ele>634.0</ele><time>2026-04-04T13:21:57.838Z</time></trkpt><trkpt lat="44.2310149" lon="11.2679813"><ele>634.0</ele><time>2026-04-04T13:21:58.837Z</time></trkpt><trkpt lat="44.2311292" lon="11.2679166"><ele>634.0</ele><time>2026-04-04T13:21:59.838Z</time></trkpt><trkpt lat="44.2312453" lon="11.2678774"><ele>634.0</ele><time>2026-04-04T13:22:00.838Z</time></trkpt><trkpt lat="44.2313628" lon="11.2678592"><ele>634.0</ele><time>2026-04-04T13:22:01.838Z</time></trkpt><trkpt lat="44.2314845" lon="11.2678644"><ele>631.5</ele><time>2026-04-04T13:22:02.838Z</time></trkpt><trkpt lat="44.2316085" lon="11.2678862"><ele>629.0</ele><time>2026-04-04T13:22:03.838Z</time></trkpt><trkpt lat="44.2317294" lon="11.2679135"><ele>626.5</ele><time>2026-04-04T13:22:04.838Z</time></trkpt><trkpt lat="44.2318398" lon="11.2679209"><ele>624.0</ele><time>2026-04-04T13:22:05.839Z</time></trkpt><trkpt lat="44.2319312" lon="11.2679098"><ele>624.0</ele><time>2026-04-04T13:22:06.839Z</time></trkpt><trkpt lat="44.2320084" lon="11.2678847"><ele>624.0</ele><time>2026-04-04T13:22:07.839Z</time></trkpt><trkpt lat="44.2320807" lon="11.2678452"><ele>624.0</ele><time>2026-04-04T13:22:08.838Z</time></trkpt><trkpt lat="44.2321546" lon="11.2678092"><ele>624.0</ele><time>2026-04-04T13:22:09.838Z</time></trkpt><trkpt lat="44.2322285" lon="11.2677634"><ele>624.0</ele><time>2026-04-04T13:22:10.837Z</time></trkpt><trkpt lat="44.2322952" lon="11.2677107"><ele>624.0</ele><time>2026-04-04T13:22:11.839Z</time></trkpt><trkpt lat="44.2323666" lon="11.2676727"><ele>622.6666666666666</ele><time>2026-04-04T13:22:12.839Z</time></trkpt><trkpt lat="44.2324489" lon="11.26766"><ele>621.3333333333334</ele><time>2026-04-04T13:22:13.838Z</time></trkpt><trkpt lat="44.2325283" lon="11.2676795"><ele>620.0</ele><time>2026-04-04T13:22:14.838Z</time></trkpt><trkpt lat="44.2326001" lon="11.2677189"><ele>618.6666666666667</ele><time>2026-04-04T13:22:15.839Z</time></trkpt><trkpt lat="44.2326769" lon="11.2677548"><ele>617.3333333333334</ele><time>2026-04-04T13:22:16.839Z</time></trkpt><trkpt lat="44.2327598" lon="11.2677482"><ele>616.0</ele><time>2026-04-04T13:22:17.839Z</time></trkpt><trkpt lat="44.2328395" lon="11.26771"><ele>616.0</ele><time>2026-04-04T13:22:18.839Z</time></trkpt><trkpt lat="44.2329122" lon="11.2676509"><ele>616.0</ele><time>2026-04-04T13:22:19.838Z</time></trkpt><trkpt lat="44.2329889" lon="11.2675891"><ele>616.0</ele><time>2026-04-04T13:22:20.839Z</time></trkpt><trkpt lat="44.2330676" lon="11.2675248"><ele>616.0</ele><time>2026-04-04T13:22:21.838Z</time></trkpt><trkpt lat="44.2331623" lon="11.2674624"><ele>616.0</ele><time>2026-04-04T13:22:22.838Z</time></trkpt><trkpt lat="44.2332628" lon="11.2674092"><ele>613.6</ele><time>2026-04-04T13:22:23.838Z</time></trkpt><trkpt lat="44.2333677" lon="11.2673764"><ele>611.2</ele><time>2026-04-04T13:22:24.838Z</time></trkpt><trkpt lat="44.2334705" lon="11.2673621"><ele>608.8</ele><time>2026-04-04T13:22:25.839Z</time></trkpt><trkpt lat="44.2335844" lon="11.2673741"><ele>606.4</ele><time>2026-04-04T13:22:26.838Z</time></trkpt><trkpt lat="44.2336923" lon="11.267407"><ele>604.0</ele><time>2026-04-04T13:22:27.839Z</time></trkpt><trkpt lat="44.2338037" lon="11.2674252"><ele>604.0</ele><time>2026-04-04T13:22:28.838Z</time></trkpt><trkpt lat="44.2339164" lon="11.2674187"><ele>604.0</ele><time>2026-04-04T13:22:29.838Z</time></trkpt><trkpt lat="44.2340317" lon="11.2674079"><ele>604.0</ele><time>2026-04-04T13:22:30.837Z</time></trkpt><trkpt lat="44.2341475" lon="11.2673967"><ele>604.0</ele><time>2026-04-04T13:22:31.838Z</time></trkpt><trkpt lat="44.2342636" lon="11.267388"><ele>602.0</ele><time>2026-04-04T13:22:32.839Z</time></trkpt><trkpt lat="44.2343789" lon="11.2673765"><ele>600.0</ele><time>2026-04-04T13:22:33.838Z</time></trkpt><trkpt lat="44.2344952" lon="11.2673651"><ele>598.0</ele><time>2026-04-04T13:22:34.837Z</time></trkpt><trkpt lat="44.2346082" lon="11.2673515"><ele>596.0</ele><time>2026-04-04T13:22:35.839Z</time></trkpt><trkpt lat="44.2347234" lon="11.2673398"><ele>594.5</ele><time>2026-04-04T13:22:36.837Z</time></trkpt><trkpt lat="44.2348374" lon="11.2673328"><ele>593.0</ele><time>2026-04-04T13:22:37.839Z</time></trkpt><trkpt lat="44.2349482" lon="11.2673238"><ele>591.5</ele><time>2026-04-04T13:22:38.838Z</time></trkpt><trkpt lat="44.2350613" lon="11.2673142"><ele>590.0</ele><time>2026-04-04T13:22:39.839Z</time></trkpt><trkpt lat="44.2351761" lon="11.2673052"><ele>590.0</ele><time>2026-04-04T13:22:40.838Z</time></trkpt><trkpt lat="44.2352836" lon="11.2673133"><ele>590.0</ele><time>2026-04-04T13:22:41.838Z</time></trkpt><trkpt lat="44.2353905" lon="11.2673427"><ele>590.0</ele><time>2026-04-04T13:22:42.839Z</time></trkpt><trkpt lat="44.2354926" lon="11.2673953"><ele>590.0</ele><time>2026-04-04T13:22:43.839Z</time></trkpt><trkpt lat="44.2355875" lon="11.2674702"><ele>590.0</ele><time>2026-04-04T13:22:44.839Z</time></trkpt><trkpt lat="44.2356815" lon="11.2675452"><ele>590.6</ele><time>2026-04-04T13:22:45.839Z</time></trkpt><trkpt lat="44.2357697" lon="11.2676019"><ele>591.2</ele><time>2026-04-04T13:22:46.839Z</time></trkpt><trkpt lat="44.2358549" lon="11.2676405"><ele>591.8</ele><time>2026-04-04T13:22:47.838Z</time></trkpt><trkpt lat="44.2359448" lon="11.2676458"><ele>592.4</ele><time>2026-04-04T13:22:48.839Z</time></trkpt><trkpt lat="44.2360318" lon="11.2676499"><ele>593.0</ele><time>2026-04-04T13:22:49.839Z</time></trkpt><trkpt lat="44.2361225" lon="11.2676569"><ele>593.0</ele><time>2026-04-04T13:22:50.839Z</time></trkpt><trkpt lat="44.2362098" lon="11.267673"><ele>593.0</ele><time>2026-04-04T13:22:51.839Z</time></trkpt><trkpt lat="44.2362953" lon="11.267688"><ele>593.0</ele><time>2026-04-04T13:22:52.839Z</time></trkpt><trkpt lat="44.2363832" lon="11.2676947"><ele>593.0</ele><time>2026-04-04T13:22:53.838Z</time></trkpt><trkpt lat="44.2364686" lon="11.2676809"><ele>593.0</ele><time>2026-04-04T13:22:54.839Z</time></trkpt><trkpt lat="44.2365467" lon="11.2676383"><ele>593.0</ele><time>2026-04-04T13:22:55.839Z</time></trkpt><trkpt lat="44.2366084" lon="11.2675824"><ele>592.0</ele><time>2026-04-04T13:22:56.839Z</time></trkpt><trkpt lat="44.2366702" lon="11.2675265"><ele>591.0</ele><time>2026-04-04T13:22:57.839Z</time></trkpt><trkpt lat="44.2367269" lon="11.2674737"><ele>590.0</ele><time>2026-04-04T13:22:58.838Z</time></trkpt><trkpt lat="44.2368248" lon="11.2673761"><ele>589.0</ele><time>2026-04-04T13:23:00.838Z</time></trkpt><trkpt lat="44.2369176" lon="11.2672897"><ele>588.0</ele><time>2026-04-04T13:23:02.839Z</time></trkpt><trkpt lat="44.2369943" lon="11.2672257"><ele>590.1999999999999</ele><time>2026-04-04T13:23:04.839Z</time></trkpt><trkpt lat="44.2370741" lon="11.2671665"><ele>592.4</ele><time>2026-04-04T13:23:06.839Z</time></trkpt><trkpt lat="44.2371858" lon="11.2670795"><ele>594.5999999999999</ele><time>2026-04-04T13:23:08.839Z</time></trkpt><trkpt lat="44.2372551" lon="11.2670301"><ele>596.8</ele><time>2026-04-04T13:23:09.839Z</time></trkpt><trkpt lat="44.23733" lon="11.2669808"><ele>599.0</ele><time>2026-04-04T13:23:10.839Z</time></trkpt><trkpt lat="44.2374089" lon="11.2669236"><ele>599.0</ele><time>2026-04-04T13:23:11.838Z</time></trkpt><trkpt lat="44.2374922" lon="11.2668631"><ele>599.0</ele><time>2026-04-04T13:23:12.838Z</time></trkpt><trkpt lat="44.2375778" lon="11.266802"><ele>599.0</ele><time>2026-04-04T13:23:13.838Z</time></trkpt><trkpt lat="44.2376637" lon="11.2667427"><ele>599.0</ele><time>2026-04-04T13:23:14.838Z</time></trkpt><trkpt lat="44.2377513" lon="11.2666879"><ele>599.0</ele><time>2026-04-04T13:23:15.838Z</time></trkpt><trkpt lat="44.2378416" lon="11.2666429"><ele>599.0</ele><time>2026-04-04T13:23:16.839Z</time></trkpt><trkpt lat="44.237929" lon="11.2665997"><ele>599.0</ele><time>2026-04-04T13:23:17.839Z</time></trkpt><trkpt lat="44.2380156" lon="11.2665566"><ele>599.0</ele><time>2026-04-04T13:23:18.839Z</time></trkpt><trkpt lat="44.2381032" lon="11.2665143"><ele>599.0</ele><time>2026-04-04T13:23:19.839Z</time></trkpt><trkpt lat="44.2381874" lon="11.2664804"><ele>599.0</ele><time>2026-04-04T13:23:20.839Z</time></trkpt><trkpt lat="44.2382722" lon="11.2664481"><ele>601.6</ele><time>2026-04-04T13:23:21.839Z</time></trkpt><trkpt lat="44.2383539" lon="11.2664034"><ele>604.2</ele><time>2026-04-04T13:23:22.839Z</time></trkpt><trkpt lat="44.2384387" lon="11.2663427"><ele>606.8000000000001</ele><time>2026-04-04T13:23:23.837Z</time></trkpt><trkpt lat="44.2385199" lon="11.2662615"><ele>609.4</ele><time>2026-04-04T13:23:24.838Z</time></trkpt><trkpt lat="44.2385959" lon="11.2661618"><ele>612.0</ele><time>2026-04-04T13:23:25.838Z</time></trkpt><trkpt lat="44.2386812" lon="11.2660575"><ele>612.0</ele><time>2026-04-04T13:23:26.839Z</time></trkpt><trkpt lat="44.2387625" lon="11.2659532"><ele>612.0</ele><time>2026-04-04T13:23:27.839Z</time></trkpt><trkpt lat="44.2388382" lon="11.2658498"><ele>612.0</ele><time>2026-04-04T13:23:28.839Z</time></trkpt><trkpt lat="44.238905" lon="11.2657609"><ele>612.0</ele><time>2026-04-04T13:23:29.838Z</time></trkpt><trkpt lat="44.2389646" lon="11.2656792"><ele>612.0</ele><time>2026-04-04T13:23:30.839Z</time></trkpt><trkpt lat="44.2390194" lon="11.2656101"><ele>612.2857142857142</ele><time>2026-04-04T13:23:31.839Z</time></trkpt><trkpt lat="44.239079" lon="11.2655692"><ele>612.5714285714286</ele><time>2026-04-04T13:23:32.837Z</time></trkpt><trkpt lat="44.2391483" lon="11.2655654"><ele>612.8571428571429</ele><time>2026-04-04T13:23:33.839Z</time></trkpt><trkpt lat="44.2392156" lon="11.2655936"><ele>613.1428571428571</ele><time>2026-04-04T13:23:34.837Z</time></trkpt><trkpt lat="44.2392681" lon="11.2656599"><ele>613.4285714285714</ele><time>2026-04-04T13:23:35.838Z</time></trkpt><trkpt lat="44.2393019" lon="11.2657549"><ele>613.7142857142857</ele><time>2026-04-04T13:23:36.839Z</time></trkpt><trkpt lat="44.2393313" lon="11.2658806"><ele>614.0</ele><time>2026-04-04T13:23:37.839Z</time></trkpt><trkpt lat="44.2393611" lon="11.2660201"><ele>610.0</ele><time>2026-04-04T13:23:38.839Z</time></trkpt><trkpt lat="44.2393955" lon="11.2661803"><ele>606.0</ele><time>2026-04-04T13:23:39.839Z</time></trkpt><trkpt lat="44.239455" lon="11.2663523"><ele>602.0</ele><time>2026-04-04T13:23:40.839Z</time></trkpt><trkpt lat="44.2395021" lon="11.2665167"><ele>598.0</ele><time>2026-04-04T13:23:41.838Z</time></trkpt><trkpt lat="44.2395468" lon="11.2666628"><ele>598.8333333333334</ele><time>2026-04-04T13:23:42.839Z</time></trkpt><trkpt lat="44.2395914" lon="11.2667729"><ele>599.6666666666667</ele><time>2026-04-04T13:23:43.839Z</time></trkpt><trkpt lat="44.2396527" lon="11.2668311"><ele>600.5</ele><time>2026-04-04T13:23:44.839Z</time></trkpt><trkpt lat="44.239729" lon="11.2668451"><ele>601.3333333333334</ele><time>2026-04-04T13:23:45.838Z</time></trkpt><trkpt lat="44.239821" lon="11.266822"><ele>602.1666666666666</ele><time>2026-04-04T13:23:46.838Z</time></trkpt><trkpt lat="44.2399324" lon="11.2668095"><ele>603.0</ele><time>2026-04-04T13:23:47.839Z</time></trkpt><trkpt lat="44.240064" lon="11.2668127"><ele>603.0</ele><time>2026-04-04T13:23:48.838Z</time></trkpt><trkpt lat="44.2401896" lon="11.2668383"><ele>603.0</ele><time>2026-04-04T13:23:49.839Z</time></trkpt><trkpt lat="44.2403011" lon="11.2668318"><ele>603.0</ele><time>2026-04-04T13:23:50.839Z</time></trkpt><trkpt lat="44.2404274" lon="11.2668"><ele>603.0</ele><time>2026-04-04T13:23:51.839Z</time></trkpt><trkpt lat="44.2405563" lon="11.2667667"><ele>602.5</ele><time>2026-04-04T13:23:52.839Z</time></trkpt><trkpt lat="44.2406885" lon="11.2667205"><ele>602.0</ele><time>2026-04-04T13:23:53.839Z</time></trkpt><trkpt lat="44.2408164" lon="11.2666893"><ele>601.5</ele><time>2026-04-04T13:23:54.839Z</time></trkpt><trkpt lat="44.2409339" lon="11.266656"><ele>601.0</ele><time>2026-04-04T13:23:55.839Z</time></trkpt><trkpt lat="44.2410394" lon="11.2666194"><ele>601.0</ele><time>2026-04-04T13:23:56.839Z</time></trkpt><trkpt lat="44.2411313" lon="11.2665896"><ele>601.0</ele><time>2026-04-04T13:23:57.838Z</time></trkpt><trkpt lat="44.2412139" lon="11.266559"><ele>601.0</ele><time>2026-04-04T13:23:58.839Z</time></trkpt><trkpt lat="44.2412875" lon="11.2665188"><ele>601.0</ele><time>2026-04-04T13:23:59.839Z</time></trkpt><trkpt lat="44.2413557" lon="11.2664708"><ele>601.0</ele><time>2026-04-04T13:24:00.838Z</time></trkpt><trkpt lat="44.2414303" lon="11.266408"><ele>601.0</ele><time>2026-04-04T13:24:01.839Z</time></trkpt><trkpt lat="44.2415068" lon="11.2663324"><ele>602.0</ele><time>2026-04-04T13:24:02.838Z</time></trkpt><trkpt lat="44.2415749" lon="11.266248"><ele>603.0</ele><time>2026-04-04T13:24:03.838Z</time></trkpt><trkpt lat="44.2416371" lon="11.2661565"><ele>604.0</ele><time>2026-04-04T13:24:04.839Z</time></trkpt><trkpt lat="44.2416988" lon="11.2660631"><ele>605.0</ele><time>2026-04-04T13:24:05.839Z</time></trkpt><trkpt lat="44.2417497" lon="11.2659582"><ele>606.0</ele><time>2026-04-04T13:24:06.839Z</time></trkpt><trkpt lat="44.2418014" lon="11.2658608"><ele>606.0</ele><time>2026-04-04T13:24:07.838Z</time></trkpt><trkpt lat="44.2418584" lon="11.2657815"><ele>606.0</ele><time>2026-04-04T13:24:08.839Z</time></trkpt><trkpt lat="44.2419174" lon="11.2657137"><ele>606.0</ele><time>2026-04-04T13:24:09.839Z</time></trkpt><trkpt lat="44.2419812" lon="11.2656541"><ele>606.0</ele><time>2026-04-04T13:24:10.839Z</time></trkpt><trkpt lat="44.2420578" lon="11.2655982"><ele>606.0</ele><time>2026-04-04T13:24:11.839Z</time></trkpt><trkpt lat="44.2421406" lon="11.2655461"><ele>606.0</ele><time>2026-04-04T13:24:12.838Z</time></trkpt><trkpt lat="44.2422248" lon="11.2654976"><ele>607.8</ele><time>2026-04-04T13:24:13.838Z</time></trkpt><trkpt lat="44.2423112" lon="11.2654525"><ele>609.6</ele><time>2026-04-04T13:24:14.836Z</time></trkpt><trkpt lat="44.2424002" lon="11.2654509"><ele>611.4</ele><time>2026-04-04T13:24:15.837Z</time></trkpt><trkpt lat="44.2425144" lon="11.265465"><ele>613.2</ele><time>2026-04-04T13:24:16.837Z</time></trkpt><trkpt lat="44.2426061" lon="11.2655229"><ele>615.0</ele><time>2026-04-04T13:24:17.836Z</time></trkpt><trkpt lat="44.2427025" lon="11.2655918"><ele>614.5</ele><time>2026-04-04T13:24:18.837Z</time></trkpt><trkpt lat="44.2428064" lon="11.2656702"><ele>614.0</ele><time>2026-04-04T13:24:19.838Z</time></trkpt><trkpt lat="44.242916" lon="11.2657545"><ele>613.5</ele><time>2026-04-04T13:24:20.838Z</time></trkpt><trkpt lat="44.2430264" lon="11.2658422"><ele>613.0</ele><time>2026-04-04T13:24:21.838Z</time></trkpt><trkpt lat="44.2431478" lon="11.2659353"><ele>613.0</ele><time>2026-04-04T13:24:22.838Z</time></trkpt><trkpt lat="44.2432695" lon="11.2660308"><ele>613.0</ele><time>2026-04-04T13:24:23.838Z</time></trkpt><trkpt lat="44.2433823" lon="11.2661175"><ele>613.0</ele><time>2026-04-04T13:24:24.837Z</time></trkpt><trkpt lat="44.2434787" lon="11.2662036"><ele>613.0</ele><time>2026-04-04T13:24:25.838Z</time></trkpt><trkpt lat="44.2435647" lon="11.2662911"><ele>613.0</ele><time>2026-04-04T13:24:26.839Z</time></trkpt><trkpt lat="44.24364" lon="11.2664097"><ele>613.0</ele><time>2026-04-04T13:24:27.838Z</time></trkpt><trkpt lat="44.2436911" lon="11.2665441"><ele>613.0</ele><time>2026-04-04T13:24:28.837Z</time></trkpt><trkpt lat="44.2437277" lon="11.2666832"><ele>613.0</ele><time>2026-04-04T13:24:29.837Z</time></trkpt><trkpt lat="44.2437539" lon="11.2668177"><ele>613.0</ele><time>2026-04-04T13:24:30.838Z</time></trkpt><trkpt lat="44.2437764" lon="11.2669416"><ele>612.6</ele><time>2026-04-04T13:24:31.838Z</time></trkpt><trkpt lat="44.2438231" lon="11.267059"><ele>612.1999999999999</ele><time>2026-04-04T13:24:32.837Z</time></trkpt><trkpt lat="44.2438989" lon="11.267151"><ele>611.8</ele><time>2026-04-04T13:24:33.838Z</time></trkpt><trkpt lat="44.2439803" lon="11.267244"><ele>611.4</ele><time>2026-04-04T13:24:34.838Z</time></trkpt><trkpt lat="44.2440255" lon="11.2673703"><ele>611.0</ele><time>2026-04-04T13:24:35.837Z</time></trkpt><trkpt lat="44.2440409" lon="11.267519"><ele>611.0</ele><time>2026-04-04T13:24:36.838Z</time></trkpt><trkpt lat="44.2440248" lon="11.267674"><ele>611.0</ele><time>2026-04-04T13:24:37.836Z</time></trkpt><trkpt lat="44.244012" lon="11.2678306"><ele>611.0</ele><time>2026-04-04T13:24:38.837Z</time></trkpt><trkpt lat="44.2440214" lon="11.267987"><ele>611.0</ele><time>2026-04-04T13:24:39.836Z</time></trkpt><trkpt lat="44.2440464" lon="11.2681163"><ele>611.0</ele><time>2026-04-04T13:24:40.836Z</time></trkpt><trkpt lat="44.2441018" lon="11.2682009"><ele>607.75</ele><time>2026-04-04T13:24:41.836Z</time></trkpt><trkpt lat="44.2441866" lon="11.2682556"><ele>604.5</ele><time>2026-04-04T13:24:42.837Z</time></trkpt><trkpt lat="44.2442935" lon="11.2682949"><ele>601.25</ele><time>2026-04-04T13:24:43.838Z</time></trkpt><trkpt lat="44.2444172" lon="11.2683469"><ele>598.0</ele><time>2026-04-04T13:24:44.838Z</time></trkpt><trkpt lat="44.2445562" lon="11.2684084"><ele>598.0</ele><time>2026-04-04T13:24:45.838Z</time></trkpt><trkpt lat="44.2446814" lon="11.2684722"><ele>598.0</ele><time>2026-04-04T13:24:46.837Z</time></trkpt><trkpt lat="44.2448003" lon="11.268524"><ele>598.0</ele><time>2026-04-04T13:24:47.836Z</time></trkpt><trkpt lat="44.2449089" lon="11.2685432"><ele>598.0</ele><time>2026-04-04T13:24:48.837Z</time></trkpt><trkpt lat="44.2450036" lon="11.2685218"><ele>602.0</ele><time>2026-04-04T13:24:49.837Z</time></trkpt><trkpt lat="44.2450866" lon="11.2684925"><ele>606.0</ele><time>2026-04-04T13:24:50.838Z</time></trkpt><trkpt lat="44.2451864" lon="11.2684299"><ele>610.0</ele><time>2026-04-04T13:24:51.837Z</time></trkpt><trkpt lat="44.2452982" lon="11.2684353"><ele>614.0</ele><time>2026-04-04T13:24:52.837Z</time></trkpt><trkpt lat="44.2454137" lon="11.2684696"><ele>618.0</ele><time>2026-04-04T13:24:53.837Z</time></trkpt><trkpt lat="44.2455316" lon="11.2685125"><ele>615.8</ele><time>2026-04-04T13:24:54.838Z</time></trkpt><trkpt lat="44.2456323" lon="11.268542"><ele>613.5999999999999</ele><time>2026-04-04T13:24:55.838Z</time></trkpt><trkpt lat="44.2457262" lon="11.2685509"><ele>611.4000000000001</ele><time>2026-04-04T13:24:56.836Z</time></trkpt><trkpt lat="44.2458137" lon="11.2685223"><ele>609.2</ele><time>2026-04-04T13:24:57.838Z</time></trkpt><trkpt lat="44.245878" lon="11.2684494"><ele>607.0</ele><time>2026-04-04T13:24:58.838Z</time></trkpt><trkpt lat="44.2459188" lon="11.2683277"><ele>607.0</ele><time>2026-04-04T13:24:59.837Z</time></trkpt><trkpt lat="44.2459297" lon="11.268174"><ele>607.0</ele><time>2026-04-04T13:25:00.837Z</time></trkpt><trkpt lat="44.2459446" lon="11.2680039"><ele>607.0</ele><time>2026-04-04T13:25:01.837Z</time></trkpt><trkpt lat="44.245986" lon="11.2678329"><ele>607.0</ele><time>2026-04-04T13:25:02.837Z</time></trkpt><trkpt lat="44.2460538" lon="11.2676702"><ele>611.0</ele><time>2026-04-04T13:25:03.838Z</time></trkpt><trkpt lat="44.2461262" lon="11.2675112"><ele>615.0</ele><time>2026-04-04T13:25:04.838Z</time></trkpt><trkpt lat="44.2461983" lon="11.2673536"><ele>619.0</ele><time>2026-04-04T13:25:05.837Z</time></trkpt><trkpt lat="44.2462718" lon="11.2672067"><ele>623.0</ele><time>2026-04-04T13:25:06.838Z</time></trkpt><trkpt lat="44.2463462" lon="11.2670809"><ele>622.4</ele><time>2026-04-04T13:25:07.838Z</time></trkpt><trkpt lat="44.246426" lon="11.2669796"><ele>621.8</ele><time>2026-04-04T13:25:08.838Z</time></trkpt><trkpt lat="44.2465077" lon="11.2668882"><ele>621.2</ele><time>2026-04-04T13:25:09.838Z</time></trkpt><trkpt lat="44.2465909" lon="11.266803"><ele>620.6</ele><time>2026-04-04T13:25:10.838Z</time></trkpt><trkpt lat="44.2466739" lon="11.26673"><ele>620.0</ele><time>2026-04-04T13:25:11.837Z</time></trkpt><trkpt lat="44.2467481" lon="11.2666715"><ele>620.0</ele><time>2026-04-04T13:25:12.837Z</time></trkpt><trkpt lat="44.2468318" lon="11.266639"><ele>620.0</ele><time>2026-04-04T13:25:13.838Z</time></trkpt><trkpt lat="44.2469228" lon="11.26663"><ele>620.0</ele><time>2026-04-04T13:25:14.837Z</time></trkpt><trkpt lat="44.2470224" lon="11.2666456"><ele>620.0</ele><time>2026-04-04T13:25:15.836Z</time></trkpt><trkpt lat="44.2471265" lon="11.2666727"><ele>620.0</ele><time>2026-04-04T13:25:16.837Z</time></trkpt><trkpt lat="44.2472361" lon="11.2667041"><ele>620.25</ele><time>2026-04-04T13:25:17.838Z</time></trkpt><trkpt lat="44.2473488" lon="11.2667429"><ele>620.5</ele><time>2026-04-04T13:25:18.837Z</time></trkpt><trkpt lat="44.2474568" lon="11.2667956"><ele>620.75</ele><time>2026-04-04T13:25:19.838Z</time></trkpt><trkpt lat="44.2475541" lon="11.2668824"><ele>621.0</ele><time>2026-04-04T13:25:20.838Z</time></trkpt><trkpt lat="44.2476376" lon="11.2670009"><ele>621.0</ele><time>2026-04-04T13:25:21.838Z</time></trkpt><trkpt lat="44.2477216" lon="11.2671236"><ele>621.0</ele><time>2026-04-04T13:25:22.836Z</time></trkpt><trkpt lat="44.2478249" lon="11.2672134"><ele>621.0</ele><time>2026-04-04T13:25:23.837Z</time></trkpt><trkpt lat="44.2479261" lon="11.2672883"><ele>621.0</ele><time>2026-04-04T13:25:24.837Z</time></trkpt><trkpt lat="44.2480257" lon="11.2673337"><ele>621.0</ele><time>2026-04-04T13:25:25.837Z</time></trkpt><trkpt lat="44.2481438" lon="11.2673626"><ele>621.0</ele><time>2026-04-04T13:25:26.838Z</time></trkpt><trkpt lat="44.2482617" lon="11.2674215"><ele>621.0</ele><time>2026-04-04T13:25:27.838Z</time></trkpt><trkpt lat="44.2483807" lon="11.2675067"><ele>621.0</ele><time>2026-04-04T13:25:28.837Z</time></trkpt><trkpt lat="44.2484912" lon="11.2675947"><ele>621.0</ele><time>2026-04-04T13:25:29.837Z</time></trkpt><trkpt lat="44.2485909" lon="11.2676726"><ele>621.0</ele><time>2026-04-04T13:25:30.836Z</time></trkpt><trkpt lat="44.2486742" lon="11.2677513"><ele>621.0</ele><time>2026-04-04T13:25:31.837Z</time></trkpt><trkpt lat="44.2487529" lon="11.2678484"><ele>621.0</ele><time>2026-04-04T13:25:32.838Z</time></trkpt><trkpt lat="44.2487822" lon="11.2680097"><ele>621.0</ele><time>2026-04-04T13:25:33.838Z</time></trkpt><trkpt lat="44.2488287" lon="11.2681679"><ele>618.0</ele><time>2026-04-04T13:25:34.838Z</time></trkpt><trkpt lat="44.248874" lon="11.2683206"><ele>615.0</ele><time>2026-04-04T13:25:35.838Z</time></trkpt><trkpt lat="44.2489158" lon="11.2684652"><ele>612.0</ele><time>2026-04-04T13:25:36.838Z</time></trkpt><trkpt lat="44.2489545" lon="11.2686087"><ele>609.0</ele><time>2026-04-04T13:25:37.838Z</time></trkpt><trkpt lat="44.2489864" lon="11.2687655"><ele>611.6</ele><time>2026-04-04T13:25:38.837Z</time></trkpt><trkpt lat="44.249017" lon="11.2689269"><ele>614.2</ele><time>2026-04-04T13:25:39.838Z</time></trkpt><trkpt lat="44.2490526" lon="11.2690603"><ele>616.8000000000001</ele><time>2026-04-04T13:25:40.836Z</time></trkpt><trkpt lat="44.2491077" lon="11.2691607"><ele>619.4</ele><time>2026-04-04T13:25:41.838Z</time></trkpt><trkpt lat="44.2491713" lon="11.2692171"><ele>622.0</ele><time>2026-04-04T13:25:42.837Z</time></trkpt><trkpt lat="44.2492488" lon="11.2692486"><ele>622.0</ele><time>2026-04-04T13:25:43.838Z</time></trkpt><trkpt lat="44.2493292" lon="11.2692436"><ele>622.0</ele><time>2026-04-04T13:25:44.838Z</time></trkpt><trkpt lat="44.2494094" lon="11.2691907"><ele>622.0</ele><time>2026-04-04T13:25:45.838Z</time></trkpt><trkpt lat="44.2494991" lon="11.2691159"><ele>622.0</ele><time>2026-04-04T13:25:46.838Z</time></trkpt><trkpt lat="44.2496" lon="11.2690391"><ele>622.0</ele><time>2026-04-04T13:25:47.838Z</time></trkpt><trkpt lat="44.2497131" lon="11.2689691"><ele>627.75</ele><time>2026-04-04T13:25:48.837Z</time></trkpt><trkpt lat="44.24984" lon="11.2689276"><ele>633.5</ele><time>2026-04-04T13:25:49.837Z</time></trkpt><trkpt lat="44.2499674" lon="11.2689161"><ele>639.25</ele><time>2026-04-04T13:25:50.838Z</time></trkpt><trkpt lat="44.2500811" lon="11.2689067"><ele>645.0</ele><time>2026-04-04T13:25:51.837Z</time></trkpt><trkpt lat="44.2501903" lon="11.2688842"><ele>645.0</ele><time>2026-04-04T13:25:52.837Z</time></trkpt><trkpt lat="44.250298" lon="11.2688564"><ele>645.0</ele><time>2026-04-04T13:25:53.838Z</time></trkpt><trkpt lat="44.2504127" lon="11.2687633"><ele>645.0</ele><time>2026-04-04T13:25:54.838Z</time></trkpt><trkpt lat="44.2505292" lon="11.2687318"><ele>645.0</ele><time>2026-04-04T13:25:55.838Z</time></trkpt><trkpt lat="44.2506542" lon="11.2687259"><ele>647.5</ele><time>2026-04-04T13:25:56.836Z</time></trkpt><trkpt lat="44.2507803" lon="11.2687556"><ele>650.0</ele><time>2026-04-04T13:25:57.837Z</time></trkpt><trkpt lat="44.2509053" lon="11.2688218"><ele>652.5</ele><time>2026-04-04T13:25:58.838Z</time></trkpt><trkpt lat="44.2510159" lon="11.2689038"><ele>655.0</ele><time>2026-04-04T13:25:59.837Z</time></trkpt><trkpt lat="44.2511115" lon="11.2689845"><ele>650.8</ele><time>2026-04-04T13:26:00.838Z</time></trkpt><trkpt lat="44.2512001" lon="11.2690394"><ele>646.6</ele><time>2026-04-04T13:26:01.837Z</time></trkpt><trkpt lat="44.2512925" lon="11.2690524"><ele>642.4</ele><time>2026-04-04T13:26:02.838Z</time></trkpt><trkpt lat="44.2513927" lon="11.2690387"><ele>638.2</ele><time>2026-04-04T13:26:03.838Z</time></trkpt><trkpt lat="44.2515051" lon="11.269004"><ele>634.0</ele><time>2026-04-04T13:26:04.837Z</time></trkpt><trkpt lat="44.2516281" lon="11.26896"><ele>641.5</ele><time>2026-04-04T13:26:05.837Z</time></trkpt><trkpt lat="44.2517568" lon="11.2689126"><ele>649.0</ele><time>2026-04-04T13:26:06.837Z</time></trkpt><trkpt lat="44.2518802" lon="11.2688784"><ele>656.5</ele><time>2026-04-04T13:26:07.837Z</time></trkpt><trkpt lat="44.2520017" lon="11.2688572"><ele>664.0</ele><time>2026-04-04T13:26:08.837Z</time></trkpt><trkpt lat="44.2521109" lon="11.2688481"><ele>664.0</ele><time>2026-04-04T13:26:09.838Z</time></trkpt><trkpt lat="44.2522185" lon="11.2688444"><ele>664.0</ele><time>2026-04-04T13:26:10.837Z</time></trkpt><trkpt lat="44.2523278" lon="11.2688812"><ele>664.0</ele><time>2026-04-04T13:26:11.838Z</time></trkpt><trkpt lat="44.2524463" lon="11.2689469"><ele>664.0</ele><time>2026-04-04T13:26:12.838Z</time></trkpt><trkpt lat="44.2525725" lon="11.2690249"><ele>657.0</ele><time>2026-04-04T13:26:13.838Z</time></trkpt><trkpt lat="44.2527029" lon="11.2691251"><ele>650.0</ele><time>2026-04-04T13:26:14.838Z</time></trkpt><trkpt lat="44.2528205" lon="11.2692506"><ele>643.0</ele><time>2026-04-04T13:26:15.837Z</time></trkpt><trkpt lat="44.2529311" lon="11.2693957"><ele>636.0</ele><time>2026-04-04T13:26:16.838Z</time></trkpt><trkpt lat="44.2530507" lon="11.2695228"><ele>637.5</ele><time>2026-04-04T13:26:17.836Z</time></trkpt><trkpt lat="44.2531608" lon="11.2696674"><ele>639.0</ele><time>2026-04-04T13:26:18.836Z</time></trkpt><trkpt lat="44.2532507" lon="11.2698359"><ele>640.5</ele><time>2026-04-04T13:26:19.838Z</time></trkpt><trkpt lat="44.2533301" lon="11.2700063"><ele>642.0</ele><time>2026-04-04T13:26:20.838Z</time></trkpt><trkpt lat="44.2534213" lon="11.2701538"><ele>642.0</ele><time>2026-04-04T13:26:21.837Z</time></trkpt><trkpt lat="44.2535268" lon="11.2702681"><ele>642.0</ele><time>2026-04-04T13:26:22.837Z</time></trkpt><trkpt lat="44.2536571" lon="11.2703526"><ele>642.0</ele><time>2026-04-04T13:26:23.837Z</time></trkpt><trkpt lat="44.2537934" lon="11.2704152"><ele>642.0</ele><time>2026-04-04T13:26:24.837Z</time></trkpt><trkpt lat="44.2539166" lon="11.2705124"><ele>646.3333333333334</ele><time>2026-04-04T13:26:25.838Z</time></trkpt><trkpt lat="44.2540278" lon="11.2706573"><ele>650.6666666666667</ele><time>2026-04-04T13:26:26.838Z</time></trkpt><trkpt lat="44.254134" lon="11.2708264"><ele>655.0</ele><time>2026-04-04T13:26:27.838Z</time></trkpt><trkpt lat="44.2542417" lon="11.2710059"><ele>655.0</ele><time>2026-04-04T13:26:28.838Z</time></trkpt><trkpt lat="44.2543452" lon="11.2711866"><ele>655.0</ele><time>2026-04-04T13:26:29.837Z</time></trkpt><trkpt lat="44.2544485" lon="11.2713641"><ele>655.0</ele><time>2026-04-04T13:26:30.837Z</time></trkpt><trkpt lat="44.2545468" lon="11.2715454"><ele>652.3333333333334</ele><time>2026-04-04T13:26:31.837Z</time></trkpt><trkpt lat="44.2546262" lon="11.2717369"><ele>649.6666666666666</ele><time>2026-04-04T13:26:32.838Z</time></trkpt><trkpt lat="44.2546942" lon="11.2719286"><ele>647.0</ele><time>2026-04-04T13:26:33.836Z</time></trkpt><trkpt lat="44.2547476" lon="11.2721102"><ele>652.6</ele><time>2026-04-04T13:26:34.838Z</time></trkpt><trkpt lat="44.2547936" lon="11.2722719"><ele>658.2</ele><time>2026-04-04T13:26:35.837Z</time></trkpt><trkpt lat="44.25483" lon="11.2724179"><ele>663.8</ele><time>2026-04-04T13:26:36.837Z</time></trkpt><trkpt lat="44.254854" lon="11.2725555"><ele>669.4</ele><time>2026-04-04T13:26:37.838Z</time></trkpt><trkpt lat="44.2548578" lon="11.2727018"><ele>675.0</ele><time>2026-04-04T13:26:38.837Z</time></trkpt><trkpt lat="44.2548464" lon="11.2728422"><ele>675.0</ele><time>2026-04-04T13:26:39.838Z</time></trkpt><trkpt lat="44.25484" lon="11.2729607"><ele>675.0</ele><time>2026-04-04T13:26:40.838Z</time></trkpt><trkpt lat="44.2548585" lon="11.2730795"><ele>675.0</ele><time>2026-04-04T13:26:41.837Z</time></trkpt><trkpt lat="44.2549022" lon="11.2731841"><ele>675.0</ele><time>2026-04-04T13:26:42.836Z</time></trkpt><trkpt lat="44.254956" lon="11.2732625"><ele>675.0</ele><time>2026-04-04T13:26:43.838Z</time></trkpt><trkpt lat="44.255017" lon="11.2733104"><ele>675.0</ele><time>2026-04-04T13:26:44.838Z</time></trkpt><trkpt lat="44.2551344" lon="11.2733231"><ele>676.6</ele><time>2026-04-04T13:26:46.836Z</time></trkpt><trkpt lat="44.2552095" lon="11.2732968"><ele>678.2</ele><time>2026-04-04T13:26:47.837Z</time></trkpt><trkpt lat="44.2552995" lon="11.2732486"><ele>679.8</ele><time>2026-04-04T13:26:48.838Z</time></trkpt><trkpt lat="44.2554032" lon="11.2731837"><ele>681.4</ele><time>2026-04-04T13:26:49.838Z</time></trkpt><trkpt lat="44.2555228" lon="11.2731066"><ele>683.0</ele><time>2026-04-04T13:26:50.838Z</time></trkpt><trkpt lat="44.2556454" lon="11.2730322"><ele>683.0</ele><time>2026-04-04T13:26:51.838Z</time></trkpt><trkpt lat="44.255767" lon="11.2729599"><ele>683.0</ele><time>2026-04-04T13:26:52.838Z</time></trkpt><trkpt lat="44.2558786" lon="11.2728973"><ele>683.0</ele><time>2026-04-04T13:26:53.838Z</time></trkpt><trkpt lat="44.2559909" lon="11.2728547"><ele>683.0</ele><time>2026-04-04T13:26:54.838Z</time></trkpt><trkpt lat="44.2561083" lon="11.2728406"><ele>683.0</ele><time>2026-04-04T13:26:55.837Z</time></trkpt><trkpt lat="44.2562263" lon="11.2728641"><ele>683.0</ele><time>2026-04-04T13:26:56.838Z</time></trkpt><trkpt lat="44.256343" lon="11.2729181"><ele>683.0</ele><time>2026-04-04T13:26:57.837Z</time></trkpt><trkpt lat="44.2564651" lon="11.2729794"><ele>683.0</ele><time>2026-04-04T13:26:58.838Z</time></trkpt><trkpt lat="44.2565907" lon="11.2730487"><ele>681.0</ele><time>2026-04-04T13:26:59.836Z</time></trkpt><trkpt lat="44.2567189" lon="11.2731213"><ele>679.0</ele><time>2026-04-04T13:27:00.837Z</time></trkpt><trkpt lat="44.2568392" lon="11.2731931"><ele>677.0</ele><time>2026-04-04T13:27:01.838Z</time></trkpt><trkpt lat="44.256945" lon="11.2732736"><ele>675.0</ele><time>2026-04-04T13:27:02.838Z</time></trkpt><trkpt lat="44.2570306" lon="11.2733689"><ele>675.0</ele><time>2026-04-04T13:27:03.837Z</time></trkpt><trkpt lat="44.257092" lon="11.2734931"><ele>675.0</ele><time>2026-04-04T13:27:04.838Z</time></trkpt><trkpt lat="44.257141" lon="11.2736408"><ele>675.0</ele><time>2026-04-04T13:27:05.838Z</time></trkpt><trkpt lat="44.2571747" lon="11.2738052"><ele>675.0</ele><time>2026-04-04T13:27:06.838Z</time></trkpt><trkpt lat="44.2572059" lon="11.2739688"><ele>673.0</ele><time>2026-04-04T13:27:07.838Z</time></trkpt><trkpt lat="44.2572508" lon="11.2741239"><ele>671.0</ele><time>2026-04-04T13:27:08.837Z</time></trkpt><trkpt lat="44.2573186" lon="11.2742336"><ele>669.0</ele><time>2026-04-04T13:27:09.838Z</time></trkpt><trkpt lat="44.2574162" lon="11.2743087"><ele>667.0</ele><time>2026-04-04T13:27:10.837Z</time></trkpt><trkpt lat="44.2575286" lon="11.2743482"><ele>672.5</ele><time>2026-04-04T13:27:11.837Z</time></trkpt><trkpt lat="44.2576495" lon="11.2743701"><ele>678.0</ele><time>2026-04-04T13:27:12.837Z</time></trkpt><trkpt lat="44.2577706" lon="11.2743933"><ele>683.5</ele><time>2026-04-04T13:27:13.838Z</time></trkpt><trkpt lat="44.2578837" lon="11.27441"><ele>689.0</ele><time>2026-04-04T13:27:14.837Z</time></trkpt><trkpt lat="44.2579838" lon="11.274414"><ele>689.0</ele><time>2026-04-04T13:27:15.838Z</time></trkpt><trkpt lat="44.2580722" lon="11.2743888"><ele>689.0</ele><time>2026-04-04T13:27:16.838Z</time></trkpt><trkpt lat="44.2581536" lon="11.2743147"><ele>689.0</ele><time>2026-04-04T13:27:17.837Z</time></trkpt><trkpt lat="44.2582406" lon="11.2742291"><ele>689.0</ele><time>2026-04-04T13:27:18.837Z</time></trkpt><trkpt lat="44.258335" lon="11.2741548"><ele>689.0</ele><time>2026-04-04T13:27:19.838Z</time></trkpt><trkpt lat="44.2584222" lon="11.2740868"><ele>690.2</ele><time>2026-04-04T13:27:20.838Z</time></trkpt><trkpt lat="44.2585059" lon="11.2740189"><ele>691.4000000000001</ele><time>2026-04-04T13:27:21.837Z</time></trkpt><trkpt lat="44.2585795" lon="11.2739355"><ele>692.6</ele><time>2026-04-04T13:27:22.838Z</time></trkpt><trkpt lat="44.2586385" lon="11.2738335"><ele>693.8</ele><time>2026-04-04T13:27:23.838Z</time></trkpt><trkpt lat="44.2586806" lon="11.2737104"><ele>695.0</ele><time>2026-04-04T13:27:24.838Z</time></trkpt><trkpt lat="44.2587171" lon="11.2735789"><ele>696.2</ele><time>2026-04-04T13:27:25.838Z</time></trkpt><trkpt lat="44.258759" lon="11.2734634"><ele>697.4</ele><time>2026-04-04T13:27:26.837Z</time></trkpt><trkpt lat="44.2588222" lon="11.273374"><ele>698.5999999999999</ele><time>2026-04-04T13:27:27.837Z</time></trkpt><trkpt lat="44.2589024" lon="11.2732995"><ele>699.8</ele><time>2026-04-04T13:27:28.838Z</time></trkpt><trkpt lat="44.2589935" lon="11.2732361"><ele>701.0</ele><time>2026-04-04T13:27:29.837Z</time></trkpt><trkpt lat="44.2590975" lon="11.273201"><ele>701.0</ele><time>2026-04-04T13:27:30.837Z</time></trkpt><trkpt lat="44.259201" lon="11.2732024"><ele>701.0</ele><time>2026-04-04T13:27:31.836Z</time></trkpt><trkpt lat="44.2593038" lon="11.2732137"><ele>701.0</ele><time>2026-04-04T13:27:32.837Z</time></trkpt><trkpt lat="44.259402" lon="11.2731933"><ele>701.0</ele><time>2026-04-04T13:27:33.837Z</time></trkpt><trkpt lat="44.2594856" lon="11.2731317"><ele>701.0</ele><time>2026-04-04T13:27:34.836Z</time></trkpt><trkpt lat="44.2595555" lon="11.2730263"><ele>701.5999999999999</ele><time>2026-04-04T13:27:35.837Z</time></trkpt><trkpt lat="44.259605" lon="11.2728887"><ele>702.2</ele><time>2026-04-04T13:27:36.836Z</time></trkpt><trkpt lat="44.2596403" lon="11.2727404"><ele>702.8</ele><time>2026-04-04T13:27:37.837Z</time></trkpt><trkpt lat="44.2596861" lon="11.2726084"><ele>703.4000000000001</ele><time>2026-04-04T13:27:38.835Z</time></trkpt><trkpt lat="44.2597626" lon="11.272495"><ele>704.0</ele><time>2026-04-04T13:27:39.837Z</time></trkpt><trkpt lat="44.2598601" lon="11.2724128"><ele>704.0</ele><time>2026-04-04T13:27:40.837Z</time></trkpt><trkpt lat="44.2599748" lon="11.2723454"><ele>704.0</ele><time>2026-04-04T13:27:41.837Z</time></trkpt><trkpt lat="44.2600915" lon="11.2722988"><ele>704.0</ele><time>2026-04-04T13:27:42.837Z</time></trkpt><trkpt lat="44.2602093" lon="11.2722722"><ele>704.0</ele><time>2026-04-04T13:27:43.837Z</time></trkpt><trkpt lat="44.2603344" lon="11.2722731"><ele>704.0</ele><time>2026-04-04T13:27:44.837Z</time></trkpt><trkpt lat="44.2604677" lon="11.2722986"><ele>704.0</ele><time>2026-04-04T13:27:45.837Z</time></trkpt><trkpt lat="44.260582" lon="11.2723204"><ele>704.0</ele><time>2026-04-04T13:27:46.837Z</time></trkpt><trkpt lat="44.2606956" lon="11.2723413"><ele>704.0</ele><time>2026-04-04T13:27:47.837Z</time></trkpt><trkpt lat="44.2608143" lon="11.2723715"><ele>705.0</ele><time>2026-04-04T13:27:48.837Z</time></trkpt><trkpt lat="44.2609394" lon="11.2724059"><ele>706.0</ele><time>2026-04-04T13:27:49.837Z</time></trkpt><trkpt lat="44.2610681" lon="11.2724515"><ele>707.0</ele><time>2026-04-04T13:27:50.836Z</time></trkpt><trkpt lat="44.2611957" lon="11.2725046"><ele>708.0</ele><time>2026-04-04T13:27:51.837Z</time></trkpt><trkpt lat="44.261317" lon="11.2725636"><ele>708.0</ele><time>2026-04-04T13:27:52.837Z</time></trkpt><trkpt lat="44.261431" lon="11.2726332"><ele>708.0</ele><time>2026-04-04T13:27:53.837Z</time></trkpt><trkpt lat="44.2615336" lon="11.2727033"><ele>708.0</ele><time>2026-04-04T13:27:54.837Z</time></trkpt><trkpt lat="44.2616286" lon="11.2727793"><ele>708.0</ele><time>2026-04-04T13:27:55.837Z</time></trkpt><trkpt lat="44.2617205" lon="11.2728419"><ele>707.4</ele><time>2026-04-04T13:27:56.836Z</time></trkpt><trkpt lat="44.2618115" lon="11.2728933"><ele>706.8</ele><time>2026-04-04T13:27:57.836Z</time></trkpt><trkpt lat="44.2619013" lon="11.2729346"><ele>706.2</ele><time>2026-04-04T13:27:58.836Z</time></trkpt><trkpt lat="44.2619992" lon="11.2729651"><ele>705.6</ele><time>2026-04-04T13:27:59.836Z</time></trkpt><trkpt lat="44.2621061" lon="11.2729863"><ele>705.0</ele><time>2026-04-04T13:28:00.836Z</time></trkpt><trkpt lat="44.2622153" lon="11.273004"><ele>701.5</ele><time>2026-04-04T13:28:01.836Z</time></trkpt><trkpt lat="44.2623233" lon="11.2730154"><ele>698.0</ele><time>2026-04-04T13:28:02.836Z</time></trkpt><trkpt lat="44.262418" lon="11.2730185"><ele>694.5</ele><time>2026-04-04T13:28:03.837Z</time></trkpt><trkpt lat="44.2624992" lon="11.2729901"><ele>691.0</ele><time>2026-04-04T13:28:04.837Z</time></trkpt><trkpt lat="44.262565" lon="11.2729297"><ele>687.5</ele><time>2026-04-04T13:28:05.836Z</time></trkpt><trkpt lat="44.262608" lon="11.2728384"><ele>684.0</ele><time>2026-04-04T13:28:06.837Z</time></trkpt><trkpt lat="44.2626221" lon="11.2727377"><ele>684.0</ele><time>2026-04-04T13:28:07.836Z</time></trkpt><trkpt lat="44.2626202" lon="11.2726237"><ele>684.0</ele><time>2026-04-04T13:28:08.836Z</time></trkpt><trkpt lat="44.2626056" lon="11.2724892"><ele>684.0</ele><time>2026-04-04T13:28:09.837Z</time></trkpt><trkpt lat="44.2625835" lon="11.2723508"><ele>684.0</ele><time>2026-04-04T13:28:10.837Z</time></trkpt><trkpt lat="44.2625631" lon="11.2722053"><ele>684.0</ele><time>2026-04-04T13:28:11.836Z</time></trkpt><trkpt lat="44.2625404" lon="11.2720523"><ele>682.75</ele><time>2026-04-04T13:28:12.837Z</time></trkpt><trkpt lat="44.2625185" lon="11.2718932"><ele>681.5</ele><time>2026-04-04T13:28:13.836Z</time></trkpt><trkpt lat="44.2624949" lon="11.2717328"><ele>680.25</ele><time>2026-04-04T13:28:14.836Z</time></trkpt><trkpt lat="44.2624722" lon="11.2715698"><ele>679.0</ele><time>2026-04-04T13:28:15.836Z</time></trkpt><trkpt lat="44.2624534" lon="11.2714066"><ele>679.0</ele><time>2026-04-04T13:28:16.837Z</time></trkpt><trkpt lat="44.2624419" lon="11.2712438"><ele>679.0</ele><time>2026-04-04T13:28:17.837Z</time></trkpt><trkpt lat="44.262445" lon="11.271085"><ele>679.0</ele><time>2026-04-04T13:28:18.836Z</time></trkpt><trkpt lat="44.2624592" lon="11.2709352"><ele>679.0</ele><time>2026-04-04T13:28:19.837Z</time></trkpt><trkpt lat="44.2624847" lon="11.2707954"><ele>679.0</ele><time>2026-04-04T13:28:20.837Z</time></trkpt><trkpt lat="44.2625263" lon="11.2706638"><ele>680.0</ele><time>2026-04-04T13:28:21.837Z</time></trkpt><trkpt lat="44.2625889" lon="11.2705476"><ele>681.0</ele><time>2026-04-04T13:28:22.836Z</time></trkpt><trkpt lat="44.2626638" lon="11.2704469"><ele>682.0</ele><time>2026-04-04T13:28:23.836Z</time></trkpt><trkpt lat="44.2627373" lon="11.2703443"><ele>683.0</ele><time>2026-04-04T13:28:24.836Z</time></trkpt><trkpt lat="44.2627922" lon="11.2702172"><ele>684.0</ele><time>2026-04-04T13:28:25.837Z</time></trkpt><trkpt lat="44.2628306" lon="11.2700835"><ele>684.0</ele><time>2026-04-04T13:28:26.835Z</time></trkpt><trkpt lat="44.2628868" lon="11.269979"><ele>684.0</ele><time>2026-04-04T13:28:27.838Z</time></trkpt><trkpt lat="44.2629602" lon="11.2699147"><ele>684.0</ele><time>2026-04-04T13:28:28.836Z</time></trkpt><trkpt lat="44.2630417" lon="11.2698947"><ele>684.0</ele><time>2026-04-04T13:28:29.837Z</time></trkpt><trkpt lat="44.2631263" lon="11.2699124"><ele>684.0</ele><time>2026-04-04T13:28:30.837Z</time></trkpt><trkpt lat="44.263218" lon="11.2699478"><ele>684.0</ele><time>2026-04-04T13:28:31.837Z</time></trkpt><trkpt lat="44.263321" lon="11.2699796"><ele>680.5</ele><time>2026-04-04T13:28:32.837Z</time></trkpt><trkpt lat="44.2634341" lon="11.2699908"><ele>677.0</ele><time>2026-04-04T13:28:33.836Z</time></trkpt><trkpt lat="44.2635594" lon="11.2699858"><ele>673.5</ele><time>2026-04-04T13:28:34.835Z</time></trkpt><trkpt lat="44.2636908" lon="11.2699959"><ele>670.0</ele><time>2026-04-04T13:28:35.836Z</time></trkpt><trkpt lat="44.2638199" lon="11.270025"><ele>670.0</ele><time>2026-04-04T13:28:36.836Z</time></trkpt><trkpt lat="44.2639452" lon="11.2700335"><ele>670.0</ele><time>2026-04-04T13:28:37.836Z</time></trkpt><trkpt lat="44.264065" lon="11.2700247"><ele>670.0</ele><time>2026-04-04T13:28:38.836Z</time></trkpt><trkpt lat="44.2641749" lon="11.2700007"><ele>670.0</ele><time>2026-04-04T13:28:39.837Z</time></trkpt><trkpt lat="44.264278" lon="11.2699405"><ele>670.0</ele><time>2026-04-04T13:28:40.837Z</time></trkpt><trkpt lat="44.264359" lon="11.2698505"><ele>670.0</ele><time>2026-04-04T13:28:41.837Z</time></trkpt><trkpt lat="44.2644492" lon="11.2697567"><ele>670.0</ele><time>2026-04-04T13:28:42.837Z</time></trkpt><trkpt lat="44.2645621" lon="11.2696903"><ele>670.0</ele><time>2026-04-04T13:28:43.837Z</time></trkpt><trkpt lat="44.2646823" lon="11.2696465"><ele>673.8</ele><time>2026-04-04T13:28:44.837Z</time></trkpt><trkpt lat="44.2647966" lon="11.2696139"><ele>677.6</ele><time>2026-04-04T13:28:45.836Z</time></trkpt><trkpt lat="44.2649056" lon="11.2695955"><ele>681.4000000000001</ele><time>2026-04-04T13:28:46.836Z</time></trkpt><trkpt lat="44.2650099" lon="11.2696026"><ele>685.2</ele><time>2026-04-04T13:28:47.836Z</time></trkpt><trkpt lat="44.2651027" lon="11.2696498"><ele>689.0</ele><time>2026-04-04T13:28:48.836Z</time></trkpt><trkpt lat="44.2651715" lon="11.269743"><ele>685.8000000000001</ele><time>2026-04-04T13:28:49.836Z</time></trkpt><trkpt lat="44.2652092" lon="11.2698676"><ele>682.6</ele><time>2026-04-04T13:28:50.836Z</time></trkpt><trkpt lat="44.265226" lon="11.270001"><ele>679.4</ele><time>2026-04-04T13:28:51.836Z</time></trkpt><trkpt lat="44.2652484" lon="11.2701327"><ele>676.2</ele><time>2026-04-04T13:28:52.837Z</time></trkpt><trkpt lat="44.2653117" lon="11.2702403"><ele>673.0</ele><time>2026-04-04T13:28:53.836Z</time></trkpt><trkpt lat="44.2653967" lon="11.2703446"><ele>673.0</ele><time>2026-04-04T13:28:54.837Z</time></trkpt><trkpt lat="44.2654877" lon="11.2704376"><ele>673.0</ele><time>2026-04-04T13:28:55.837Z</time></trkpt><trkpt lat="44.265572" lon="11.2705228"><ele>673.0</ele><time>2026-04-04T13:28:56.836Z</time></trkpt><trkpt lat="44.2656584" lon="11.2706141"><ele>673.0</ele><time>2026-04-04T13:28:57.837Z</time></trkpt><trkpt lat="44.2657428" lon="11.2707111"><ele>673.0</ele><time>2026-04-04T13:28:58.835Z</time></trkpt><trkpt lat="44.2658216" lon="11.270824"><ele>673.25</ele><time>2026-04-04T13:28:59.836Z</time></trkpt><trkpt lat="44.2658971" lon="11.2709526"><ele>673.5</ele><time>2026-04-04T13:29:00.836Z</time></trkpt><trkpt lat="44.2659702" lon="11.2710962"><ele>673.75</ele><time>2026-04-04T13:29:01.837Z</time></trkpt><trkpt lat="44.2660397" lon="11.2712506"><ele>674.0</ele><time>2026-04-04T13:29:02.837Z</time></trkpt><trkpt lat="44.2661067" lon="11.271399"><ele>674.0</ele><time>2026-04-04T13:29:03.837Z</time></trkpt><trkpt lat="44.2661817" lon="11.2715343"><ele>674.0</ele><time>2026-04-04T13:29:04.837Z</time></trkpt><trkpt lat="44.2662781" lon="11.2716487"><ele>674.0</ele><time>2026-04-04T13:29:05.836Z</time></trkpt><trkpt lat="44.2663944" lon="11.2717416"><ele>674.0</ele><time>2026-04-04T13:29:06.837Z</time></trkpt><trkpt lat="44.2665221" lon="11.271828"><ele>674.0</ele><time>2026-04-04T13:29:07.837Z</time></trkpt><trkpt lat="44.2666562" lon="11.2719164"><ele>674.0</ele><time>2026-04-04T13:29:08.837Z</time></trkpt><trkpt lat="44.2667898" lon="11.2720069"><ele>674.0</ele><time>2026-04-04T13:29:09.837Z</time></trkpt><trkpt lat="44.2669248" lon="11.2720923"><ele>674.0</ele><time>2026-04-04T13:29:10.837Z</time></trkpt><trkpt lat="44.2670602" lon="11.272174"><ele>674.0</ele><time>2026-04-04T13:29:11.837Z</time></trkpt><trkpt lat="44.2671967" lon="11.2722573"><ele>674.0</ele><time>2026-04-04T13:29:12.837Z</time></trkpt><trkpt lat="44.2673297" lon="11.2723471"><ele>674.0</ele><time>2026-04-04T13:29:13.836Z</time></trkpt><trkpt lat="44.2674557" lon="11.2724396"><ele>674.0</ele><time>2026-04-04T13:29:14.837Z</time></trkpt><trkpt lat="44.2675745" lon="11.2725306"><ele>670.25</ele><time>2026-04-04T13:29:15.835Z</time></trkpt><trkpt lat="44.2676841" lon="11.2726134"><ele>666.5</ele><time>2026-04-04T13:29:16.837Z</time></trkpt><trkpt lat="44.2677924" lon="11.2726754"><ele>662.75</ele><time>2026-04-04T13:29:17.837Z</time></trkpt><trkpt lat="44.2679074" lon="11.2727135"><ele>659.0</ele><time>2026-04-04T13:29:18.837Z</time></trkpt><trkpt lat="44.2680281" lon="11.2727388"><ele>660.25</ele><time>2026-04-04T13:29:19.837Z</time></trkpt><trkpt lat="44.268151" lon="11.2727611"><ele>661.5</ele><time>2026-04-04T13:29:20.836Z</time></trkpt><trkpt lat="44.2682796" lon="11.272791"><ele>662.75</ele><time>2026-04-04T13:29:21.837Z</time></trkpt><trkpt lat="44.2684078" lon="11.2728261"><ele>664.0</ele><time>2026-04-04T13:29:22.837Z</time></trkpt><trkpt lat="44.2685361" lon="11.2728632"><ele>664.0</ele><time>2026-04-04T13:29:23.836Z</time></trkpt><trkpt lat="44.2686643" lon="11.2729063"><ele>664.0</ele><time>2026-04-04T13:29:24.836Z</time></trkpt><trkpt lat="44.2687953" lon="11.2729571"><ele>664.0</ele><time>2026-04-04T13:29:25.837Z</time></trkpt><trkpt lat="44.2689202" lon="11.2730127"><ele>664.0</ele><time>2026-04-04T13:29:26.836Z</time></trkpt><trkpt lat="44.2690416" lon="11.2730798"><ele>661.25</ele><time>2026-04-04T13:29:27.836Z</time></trkpt><trkpt lat="44.2691529" lon="11.273149"><ele>658.5</ele><time>2026-04-04T13:29:28.836Z</time></trkpt><trkpt lat="44.2692595" lon="11.2732133"><ele>655.75</ele><time>2026-04-04T13:29:29.836Z</time></trkpt><trkpt lat="44.2693694" lon="11.2732423"><ele>653.0</ele><time>2026-04-04T13:29:30.836Z</time></trkpt><trkpt lat="44.2694763" lon="11.2732357"><ele>653.0</ele><time>2026-04-04T13:29:31.835Z</time></trkpt><trkpt lat="44.2695747" lon="11.2732034"><ele>653.0</ele><time>2026-04-04T13:29:32.836Z</time></trkpt><trkpt lat="44.2696746" lon="11.2731506"><ele>653.0</ele><time>2026-04-04T13:29:33.836Z</time></trkpt><trkpt lat="44.2697657" lon="11.2730895"><ele>653.0</ele><time>2026-04-04T13:29:34.835Z</time></trkpt><trkpt lat="44.2698593" lon="11.2730305"><ele>653.0</ele><time>2026-04-04T13:29:35.837Z</time></trkpt><trkpt lat="44.2699447" lon="11.2729729"><ele>654.0</ele><time>2026-04-04T13:29:36.837Z</time></trkpt><trkpt lat="44.2700356" lon="11.2729145"><ele>655.0</ele><time>2026-04-04T13:29:37.837Z</time></trkpt><trkpt lat="44.2701309" lon="11.2728655"><ele>656.0</ele><time>2026-04-04T13:29:38.837Z</time></trkpt><trkpt lat="44.2702295" lon="11.2728275"><ele>657.0</ele><time>2026-04-04T13:29:39.836Z</time></trkpt><trkpt lat="44.270327" lon="11.2727939"><ele>658.0</ele><time>2026-04-04T13:29:40.836Z</time></trkpt><trkpt lat="44.2704223" lon="11.2727632"><ele>658.0</ele><time>2026-04-04T13:29:41.836Z</time></trkpt><trkpt lat="44.270518" lon="11.2727364"><ele>658.0</ele><time>2026-04-04T13:29:42.837Z</time></trkpt><trkpt lat="44.2706093" lon="11.2727053"><ele>658.0</ele><time>2026-04-04T13:29:43.836Z</time></trkpt><trkpt lat="44.2706927" lon="11.272659"><ele>658.0</ele><time>2026-04-04T13:29:44.836Z</time></trkpt><trkpt lat="44.2707698" lon="11.2725957"><ele>658.0</ele><time>2026-04-04T13:29:45.836Z</time></trkpt><trkpt lat="44.2708355" lon="11.2725161"><ele>655.6666666666667</ele><time>2026-04-04T13:29:46.837Z</time></trkpt><trkpt lat="44.2708993" lon="11.2724289"><ele>653.3333333333334</ele><time>2026-04-04T13:29:47.835Z</time></trkpt><trkpt lat="44.270949" lon="11.2723301"><ele>651.0</ele><time>2026-04-04T13:29:48.836Z</time></trkpt><trkpt lat="44.2709759" lon="11.2722195"><ele>648.6666666666666</ele><time>2026-04-04T13:29:49.837Z</time></trkpt><trkpt lat="44.2709782" lon="11.2720944"><ele>646.3333333333333</ele><time>2026-04-04T13:29:50.837Z</time></trkpt><trkpt lat="44.2709618" lon="11.271961"><ele>644.0</ele><time>2026-04-04T13:29:51.837Z</time></trkpt><trkpt lat="44.2709515" lon="11.2718214"><ele>644.0</ele><time>2026-04-04T13:29:52.836Z</time></trkpt><trkpt lat="44.270961" lon="11.2716822"><ele>644.0</ele><time>2026-04-04T13:29:53.836Z</time></trkpt><trkpt lat="44.2709948" lon="11.2715493"><ele>644.0</ele><time>2026-04-04T13:29:54.836Z</time></trkpt><trkpt lat="44.2710528" lon="11.2714291"><ele>644.0</ele><time>2026-04-04T13:29:55.837Z</time></trkpt><trkpt lat="44.27113" lon="11.2713351"><ele>644.0</ele><time>2026-04-04T13:29:56.837Z</time></trkpt><trkpt lat="44.2712298" lon="11.271275"><ele>642.8000000000001</ele><time>2026-04-04T13:29:57.837Z</time></trkpt><trkpt lat="44.2713373" lon="11.2712534"><ele>641.6</ele><time>2026-04-04T13:29:58.836Z</time></trkpt><trkpt lat="44.271437" lon="11.2712313"><ele>640.4</ele><time>2026-04-04T13:29:59.837Z</time></trkpt><trkpt lat="44.2715209" lon="11.2711788"><ele>639.2</ele><time>2026-04-04T13:30:00.837Z</time></trkpt><trkpt lat="44.2715949" lon="11.2710991"><ele>638.0</ele><time>2026-04-04T13:30:01.837Z</time></trkpt><trkpt lat="44.2716685" lon="11.2709969"><ele>638.0</ele><time>2026-04-04T13:30:02.837Z</time></trkpt><trkpt lat="44.2717397" lon="11.2708768"><ele>638.0</ele><time>2026-04-04T13:30:03.837Z</time></trkpt><trkpt lat="44.2718192" lon="11.2707592"><ele>638.0</ele><time>2026-04-04T13:30:04.837Z</time></trkpt><trkpt lat="44.2719214" lon="11.2706816"><ele>638.0</ele><time>2026-04-04T13:30:05.836Z</time></trkpt><trkpt lat="44.2720344" lon="11.2706493"><ele>638.0</ele><time>2026-04-04T13:30:06.836Z</time></trkpt><trkpt lat="44.2721522" lon="11.2706445"><ele>638.0</ele><time>2026-04-04T13:30:07.837Z</time></trkpt><trkpt lat="44.2722716" lon="11.2706166"><ele>638.0</ele><time>2026-04-04T13:30:08.837Z</time></trkpt><trkpt lat="44.2723959" lon="11.2705807"><ele>638.0</ele><time>2026-04-04T13:30:09.837Z</time></trkpt><trkpt lat="44.2725177" lon="11.2705394"><ele>638.0</ele><time>2026-04-04T13:30:10.836Z</time></trkpt><trkpt lat="44.2726307" lon="11.2704901"><ele>638.0</ele><time>2026-04-04T13:30:11.836Z</time></trkpt><trkpt lat="44.2727411" lon="11.2704394"><ele>638.0</ele><time>2026-04-04T13:30:12.836Z</time></trkpt><trkpt lat="44.2728431" lon="11.2703853"><ele>638.0</ele><time>2026-04-04T13:30:13.837Z</time></trkpt><trkpt lat="44.2729427" lon="11.2703375"><ele>638.0</ele><time>2026-04-04T13:30:14.836Z</time></trkpt><trkpt lat="44.2730438" lon="11.270311"><ele>636.6</ele><time>2026-04-04T13:30:15.837Z</time></trkpt><trkpt lat="44.2731517" lon="11.2702938"><ele>635.1999999999999</ele><time>2026-04-04T13:30:16.836Z</time></trkpt><trkpt lat="44.2732608" lon="11.2702883"><ele>633.8</ele><time>2026-04-04T13:30:17.836Z</time></trkpt><trkpt lat="44.273367" lon="11.2703084"><ele>632.4</ele><time>2026-04-04T13:30:18.837Z</time></trkpt><trkpt lat="44.2734637" lon="11.2703532"><ele>631.0</ele><time>2026-04-04T13:30:19.836Z</time></trkpt><trkpt lat="44.2735547" lon="11.2704241"><ele>631.0</ele><time>2026-04-04T13:30:20.837Z</time></trkpt><trkpt lat="44.273636" lon="11.2705051"><ele>631.0</ele><time>2026-04-04T13:30:21.837Z</time></trkpt><trkpt lat="44.273717" lon="11.2705827"><ele>631.0</ele><time>2026-04-04T13:30:22.837Z</time></trkpt><trkpt lat="44.2738024" lon="11.270648"><ele>631.0</ele><time>2026-04-04T13:30:23.836Z</time></trkpt><trkpt lat="44.2738886" lon="11.2706925"><ele>631.0</ele><time>2026-04-04T13:30:24.835Z</time></trkpt><trkpt lat="44.2739572" lon="11.2707352"><ele>628.8333333333334</ele><time>2026-04-04T13:30:25.837Z</time></trkpt><trkpt lat="44.2740148" lon="11.270776"><ele>626.6666666666667</ele><time>2026-04-04T13:30:26.837Z</time></trkpt><trkpt lat="44.2740779" lon="11.2708142"><ele>624.5</ele><time>2026-04-04T13:30:27.836Z</time></trkpt><trkpt lat="44.2741606" lon="11.270859"><ele>622.3333333333334</ele><time>2026-04-04T13:30:28.836Z</time></trkpt><trkpt lat="44.274263" lon="11.2708988"><ele>620.1666666666666</ele><time>2026-04-04T13:30:29.837Z</time></trkpt><trkpt lat="44.2743795" lon="11.2709349"><ele>618.0</ele><time>2026-04-04T13:30:30.835Z</time></trkpt><trkpt lat="44.274508" lon="11.2709702"><ele>618.0</ele><time>2026-04-04T13:30:31.836Z</time></trkpt><trkpt lat="44.2746432" lon="11.2710262"><ele>618.0</ele><time>2026-04-04T13:30:32.837Z</time></trkpt><trkpt lat="44.2747741" lon="11.2711026"><ele>618.0</ele><time>2026-04-04T13:30:33.836Z</time></trkpt><trkpt lat="44.2749148" lon="11.2711962"><ele>618.0</ele><time>2026-04-04T13:30:34.836Z</time></trkpt><trkpt lat="44.2750489" lon="11.2712747"><ele>618.75</ele><time>2026-04-04T13:30:35.837Z</time></trkpt><trkpt lat="44.2751803" lon="11.2713323"><ele>619.5</ele><time>2026-04-04T13:30:36.837Z</time></trkpt><trkpt lat="44.2753034" lon="11.2713766"><ele>620.25</ele><time>2026-04-04T13:30:37.836Z</time></trkpt><trkpt lat="44.275426" lon="11.2714151"><ele>621.0</ele><time>2026-04-04T13:30:38.836Z</time></trkpt><trkpt lat="44.2755477" lon="11.2714512"><ele>619.25</ele><time>2026-04-04T13:30:39.835Z</time></trkpt><trkpt lat="44.2756646" lon="11.2714913"><ele>617.5</ele><time>2026-04-04T13:30:40.836Z</time></trkpt><trkpt lat="44.2757796" lon="11.27153"><ele>615.75</ele><time>2026-04-04T13:30:41.836Z</time></trkpt><trkpt lat="44.2758855" lon="11.2715629"><ele>614.0</ele><time>2026-04-04T13:30:42.836Z</time></trkpt><trkpt lat="44.2759923" lon="11.2715934"><ele>614.0</ele><time>2026-04-04T13:30:43.835Z</time></trkpt><trkpt lat="44.2761028" lon="11.271615"><ele>614.0</ele><time>2026-04-04T13:30:44.836Z</time></trkpt><trkpt lat="44.2762138" lon="11.2716331"><ele>614.0</ele><time>2026-04-04T13:30:45.836Z</time></trkpt><trkpt lat="44.2763206" lon="11.2716497"><ele>614.0</ele><time>2026-04-04T13:30:46.836Z</time></trkpt><trkpt lat="44.2764232" lon="11.2716625"><ele>614.0</ele><time>2026-04-04T13:30:47.836Z</time></trkpt><trkpt lat="44.276518" lon="11.2716703"><ele>615.0</ele><time>2026-04-04T13:30:48.836Z</time></trkpt><trkpt lat="44.2766088" lon="11.2716706"><ele>616.0</ele><time>2026-04-04T13:30:49.835Z</time></trkpt><trkpt lat="44.2767016" lon="11.27166"><ele>617.0</ele><time>2026-04-04T13:30:50.837Z</time></trkpt><trkpt lat="44.2767968" lon="11.2716415"><ele>618.0</ele><time>2026-04-04T13:30:51.835Z</time></trkpt><trkpt lat="44.2768889" lon="11.2716114"><ele>619.0</ele><time>2026-04-04T13:30:52.836Z</time></trkpt><trkpt lat="44.276979" lon="11.2715733"><ele>619.0</ele><time>2026-04-04T13:30:53.835Z</time></trkpt><trkpt lat="44.2770722" lon="11.2715322"><ele>619.0</ele><time>2026-04-04T13:30:54.835Z</time></trkpt><trkpt lat="44.2771627" lon="11.2714906"><ele>619.0</ele><time>2026-04-04T13:30:55.836Z</time></trkpt><trkpt lat="44.2772519" lon="11.2714449"><ele>619.0</ele><time>2026-04-04T13:30:56.835Z</time></trkpt><trkpt lat="44.2773347" lon="11.2714007"><ele>619.0</ele><time>2026-04-04T13:30:57.836Z</time></trkpt><trkpt lat="44.2773957" lon="11.2713698"><ele>619.0</ele><time>2026-04-04T13:30:58.836Z</time></trkpt><trkpt lat="44.2774926" lon="11.2713515"><ele>622.0</ele><time>2026-04-04T13:31:25.836Z</time></trkpt><trkpt lat="44.2775499" lon="11.2713145"><ele>625.0</ele><time>2026-04-04T13:31:26.836Z</time></trkpt><trkpt lat="44.277646" lon="11.2712676"><ele>628.0</ele><time>2026-04-04T13:31:27.835Z</time></trkpt><trkpt lat="44.2777611" lon="11.2712156"><ele>631.0</ele><time>2026-04-04T13:31:28.836Z</time></trkpt><trkpt lat="44.2778675" lon="11.2711494"><ele>634.0</ele><time>2026-04-04T13:31:29.836Z</time></trkpt><trkpt lat="44.2779719" lon="11.271071"><ele>634.0</ele><time>2026-04-04T13:31:30.836Z</time></trkpt><trkpt lat="44.278055" lon="11.2709863"><ele>634.0</ele><time>2026-04-04T13:31:31.835Z</time></trkpt><trkpt lat="44.2781362" lon="11.2708947"><ele>634.0</ele><time>2026-04-04T13:31:32.835Z</time></trkpt><trkpt lat="44.2782091" lon="11.2708119"><ele>634.0</ele><time>2026-04-04T13:31:33.837Z</time></trkpt><trkpt lat="44.2782757" lon="11.2707428"><ele>634.0</ele><time>2026-04-04T13:31:34.835Z</time></trkpt><trkpt lat="44.2783358" lon="11.2706784"><ele>633.2857142857143</ele><time>2026-04-04T13:31:35.836Z</time></trkpt><trkpt lat="44.2783989" lon="11.2706285"><ele>632.5714285714286</ele><time>2026-04-04T13:31:36.836Z</time></trkpt><trkpt lat="44.2784637" lon="11.2705954"><ele>631.8571428571429</ele><time>2026-04-04T13:31:37.837Z</time></trkpt><trkpt lat="44.2785304" lon="11.27057"><ele>631.1428571428571</ele><time>2026-04-04T13:31:38.835Z</time></trkpt><trkpt lat="44.2785968" lon="11.2705497"><ele>630.4285714285714</ele><time>2026-04-04T13:31:39.836Z</time></trkpt><trkpt lat="44.2786661" lon="11.2705222"><ele>629.7142857142857</ele><time>2026-04-04T13:31:40.836Z</time></trkpt><trkpt lat="44.2787341" lon="11.2705085"><ele>629.0</ele><time>2026-04-04T13:31:41.836Z</time></trkpt><trkpt lat="44.2788001" lon="11.2705219"><ele>629.0</ele><time>2026-04-04T13:31:42.836Z</time></trkpt><trkpt lat="44.2788594" lon="11.2705556"><ele>629.0</ele><time>2026-04-04T13:31:43.836Z</time></trkpt><trkpt lat="44.2789421" lon="11.2706602"><ele>629.0</ele><time>2026-04-04T13:31:45.837Z</time></trkpt><trkpt lat="44.2790383" lon="11.2707972"><ele>629.0</ele><time>2026-04-04T13:31:47.836Z</time></trkpt><trkpt lat="44.2790972" lon="11.27088"><ele>629.0</ele><time>2026-04-04T13:31:48.836Z</time></trkpt><trkpt lat="44.2791585" lon="11.2709688"><ele>627.5</ele><time>2026-04-04T13:31:49.837Z</time></trkpt><trkpt lat="44.2792258" lon="11.2710478"><ele>626.0</ele><time>2026-04-04T13:31:50.836Z</time></trkpt><trkpt lat="44.2792915" lon="11.2711153"><ele>624.5</ele><time>2026-04-04T13:31:51.837Z</time></trkpt><trkpt lat="44.2793618" lon="11.2711641"><ele>623.0</ele><time>2026-04-04T13:31:52.836Z</time></trkpt><trkpt lat="44.2794343" lon="11.2711913"><ele>621.5</ele><time>2026-04-04T13:31:53.835Z</time></trkpt><trkpt lat="44.2795147" lon="11.2711861"><ele>620.0</ele><time>2026-04-04T13:31:54.836Z</time></trkpt><trkpt lat="44.2795951" lon="11.2711773"><ele>620.0</ele><time>2026-04-04T13:31:55.837Z</time></trkpt><trkpt lat="44.2796768" lon="11.2711459"><ele>620.0</ele><time>2026-04-04T13:31:56.836Z</time></trkpt><trkpt lat="44.2797565" lon="11.2711169"><ele>620.0</ele><time>2026-04-04T13:31:57.837Z</time></trkpt><trkpt lat="44.2798357" lon="11.2711007"><ele>620.0</ele><time>2026-04-04T13:31:58.836Z</time></trkpt><trkpt lat="44.2799234" lon="11.2710984"><ele>620.0</ele><time>2026-04-04T13:31:59.837Z</time></trkpt><trkpt lat="44.2800138" lon="11.2711204"><ele>620.0</ele><time>2026-04-04T13:32:00.836Z</time></trkpt><trkpt lat="44.2801022" lon="11.271162"><ele>620.6</ele><time>2026-04-04T13:32:01.835Z</time></trkpt><trkpt lat="44.2801889" lon="11.2712128"><ele>621.2</ele><time>2026-04-04T13:32:02.835Z</time></trkpt><trkpt lat="44.2802765" lon="11.271272"><ele>621.8</ele><time>2026-04-04T13:32:03.836Z</time></trkpt><trkpt lat="44.2803645" lon="11.2713381"><ele>622.4</ele><time>2026-04-04T13:32:04.835Z</time></trkpt><trkpt lat="44.2804533" lon="11.2714071"><ele>623.0</ele><time>2026-04-04T13:32:05.836Z</time></trkpt><trkpt lat="44.2805422" lon="11.2714689"><ele>621.3333333333333</ele><time>2026-04-04T13:32:06.836Z</time></trkpt><trkpt lat="44.280636" lon="11.2715095"><ele>619.6666666666666</ele><time>2026-04-04T13:32:07.836Z</time></trkpt><trkpt lat="44.2807308" lon="11.2715231"><ele>618.0</ele><time>2026-04-04T13:32:08.835Z</time></trkpt><trkpt lat="44.2808186" lon="11.2715231"><ele>616.3333333333334</ele><time>2026-04-04T13:32:09.836Z</time></trkpt><trkpt lat="44.2808937" lon="11.2715368"><ele>614.6666666666667</ele><time>2026-04-04T13:32:10.834Z</time></trkpt><trkpt lat="44.280953" lon="11.2715761"><ele>613.0</ele><time>2026-04-04T13:32:11.836Z</time></trkpt><trkpt lat="44.2809919" lon="11.2716468"><ele>613.0</ele><time>2026-04-04T13:32:12.836Z</time></trkpt><trkpt lat="44.2810152" lon="11.2717438"><ele>613.0</ele><time>2026-04-04T13:32:13.835Z</time></trkpt><trkpt lat="44.2810141" lon="11.2718458"><ele>613.0</ele><time>2026-04-04T13:32:14.834Z</time></trkpt><trkpt lat="44.2809894" lon="11.2720026"><ele>613.0</ele><time>2026-04-04T13:32:16.836Z</time></trkpt><trkpt lat="44.2809871" lon="11.2721171"><ele>613.0</ele><time>2026-04-04T13:32:18.835Z</time></trkpt><trkpt lat="44.2810243" lon="11.2721943"><ele>613.0</ele><time>2026-04-04T13:32:20.835Z</time></trkpt><trkpt lat="44.2810561" lon="11.272292"><ele>613.5</ele><time>2026-04-04T13:32:23.835Z</time></trkpt><trkpt lat="44.281016" lon="11.272371"><ele>614.0</ele><time>2026-04-04T13:38:02.833Z</time></trkpt><trkpt lat="44.2809927" lon="11.2724763"><ele>614.5</ele><time>2026-04-04T13:38:05.834Z</time></trkpt><trkpt lat="44.280941" lon="11.2725771"><ele>615.0</ele><time>2026-04-04T13:38:08.833Z</time></trkpt><trkpt lat="44.2809186" lon="11.272667"><ele>615.5</ele><time>2026-04-04T13:38:09.833Z</time></trkpt><trkpt lat="44.2809062" lon="11.2727743"><ele>616.0</ele><time>2026-04-04T13:38:10.833Z</time></trkpt><trkpt lat="44.2809041" lon="11.2728927"><ele>616.0</ele><time>2026-04-04T13:38:11.834Z</time></trkpt><trkpt lat="44.2809174" lon="11.2730054"><ele>616.0</ele><time>2026-04-04T13:38:12.832Z</time></trkpt><trkpt lat="44.2809561" lon="11.2731145"><ele>616.0</ele><time>2026-04-04T13:38:13.832Z</time></trkpt><trkpt lat="44.2810244" lon="11.2732132"><ele>616.0</ele><time>2026-04-04T13:38:14.832Z</time></trkpt><trkpt lat="44.2811105" lon="11.2733011"><ele>616.0</ele><time>2026-04-04T13:38:15.833Z</time></trkpt><trkpt lat="44.2811967" lon="11.2733853"><ele>615.8</ele><time>2026-04-04T13:38:16.833Z</time></trkpt><trkpt lat="44.2812768" lon="11.2734687"><ele>615.6</ele><time>2026-04-04T13:38:17.832Z</time></trkpt><trkpt lat="44.2813532" lon="11.2735566"><ele>615.4</ele><time>2026-04-04T13:38:18.834Z</time></trkpt><trkpt lat="44.2814231" lon="11.2736505"><ele>615.2</ele><time>2026-04-04T13:38:19.833Z</time></trkpt><trkpt lat="44.2814826" lon="11.2737557"><ele>615.0</ele><time>2026-04-04T13:38:20.834Z</time></trkpt><trkpt lat="44.2815298" lon="11.2738818"><ele>610.25</ele><time>2026-04-04T13:38:21.833Z</time></trkpt><trkpt lat="44.2815668" lon="11.2740277"><ele>605.5</ele><time>2026-04-04T13:38:22.833Z</time></trkpt><trkpt lat="44.2816106" lon="11.2741826"><ele>600.75</ele><time>2026-04-04T13:38:23.833Z</time></trkpt><trkpt lat="44.2816768" lon="11.2743338"><ele>596.0</ele><time>2026-04-04T13:38:24.833Z</time></trkpt><trkpt lat="44.281752" lon="11.2744771"><ele>596.0</ele><time>2026-04-04T13:38:25.833Z</time></trkpt><trkpt lat="44.2818244" lon="11.2746192"><ele>596.0</ele><time>2026-04-04T13:38:26.834Z</time></trkpt><trkpt lat="44.2818918" lon="11.2747638"><ele>596.0</ele><time>2026-04-04T13:38:27.834Z</time></trkpt><trkpt lat="44.2819636" lon="11.274901"><ele>596.0</ele><time>2026-04-04T13:38:28.834Z</time></trkpt><trkpt lat="44.2820507" lon="11.275019"><ele>596.25</ele><time>2026-04-04T13:38:29.834Z</time></trkpt><trkpt lat="44.2821566" lon="11.2751083"><ele>596.5</ele><time>2026-04-04T13:38:30.832Z</time></trkpt><trkpt lat="44.2822791" lon="11.2751632"><ele>596.75</ele><time>2026-04-04T13:38:31.833Z</time></trkpt><trkpt lat="44.2824086" lon="11.275189"><ele>597.0</ele><time>2026-04-04T13:38:32.833Z</time></trkpt><trkpt lat="44.2825348" lon="11.2752056"><ele>593.2</ele><time>2026-04-04T13:38:33.833Z</time></trkpt><trkpt lat="44.2826527" lon="11.275214"><ele>589.4000000000001</ele><time>2026-04-04T13:38:34.834Z</time></trkpt><trkpt lat="44.2827558" lon="11.2752453"><ele>585.5999999999999</ele><time>2026-04-04T13:38:35.833Z</time></trkpt><trkpt lat="44.2828271" lon="11.2753236"><ele>581.8</ele><time>2026-04-04T13:38:36.833Z</time></trkpt><trkpt lat="44.2828657" lon="11.2754291"><ele>578.0</ele><time>2026-04-04T13:38:37.832Z</time></trkpt><trkpt lat="44.2828693" lon="11.2755509"><ele>580.25</ele><time>2026-04-04T13:38:38.834Z</time></trkpt><trkpt lat="44.282841" lon="11.2756836"><ele>582.5</ele><time>2026-04-04T13:38:39.833Z</time></trkpt><trkpt lat="44.2827934" lon="11.2758322"><ele>584.75</ele><time>2026-04-04T13:38:40.834Z</time></trkpt><trkpt lat="44.2827419" lon="11.2760016"><ele>587.0</ele><time>2026-04-04T13:38:41.833Z</time></trkpt><trkpt lat="44.2826956" lon="11.2761864"><ele>587.0</ele><time>2026-04-04T13:38:42.834Z</time></trkpt><trkpt lat="44.2826604" lon="11.2763695"><ele>587.0</ele><time>2026-04-04T13:38:43.834Z</time></trkpt><trkpt lat="44.2826339" lon="11.2765526"><ele>587.0</ele><time>2026-04-04T13:38:44.834Z</time></trkpt><trkpt lat="44.2826073" lon="11.2767315"><ele>587.0</ele><time>2026-04-04T13:38:45.834Z</time></trkpt><trkpt lat="44.2825758" lon="11.2769012"><ele>582.75</ele><time>2026-04-04T13:38:46.834Z</time></trkpt><trkpt lat="44.2825499" lon="11.2770641"><ele>578.5</ele><time>2026-04-04T13:38:47.834Z</time></trkpt><trkpt lat="44.2825247" lon="11.2772222"><ele>574.25</ele><time>2026-04-04T13:38:48.833Z</time></trkpt><trkpt lat="44.2825011" lon="11.2773783"><ele>570.0</ele><time>2026-04-04T13:38:49.833Z</time></trkpt><trkpt lat="44.2824736" lon="11.2775174"><ele>568.0</ele><time>2026-04-04T13:38:50.833Z</time></trkpt><trkpt lat="44.2824328" lon="11.277631"><ele>566.0</ele><time>2026-04-04T13:38:51.834Z</time></trkpt><trkpt lat="44.2823758" lon="11.2777219"><ele>564.0</ele><time>2026-04-04T13:38:52.833Z</time></trkpt><trkpt lat="44.2823043" lon="11.2777778"><ele>562.0</ele><time>2026-04-04T13:38:53.833Z</time></trkpt><trkpt lat="44.282253" lon="11.2778453"><ele>560.0</ele><time>2026-04-04T13:38:54.834Z</time></trkpt><trkpt lat="44.2822427" lon="11.2779512"><ele>558.0</ele><time>2026-04-04T13:38:55.833Z</time></trkpt><trkpt lat="44.2822624" lon="11.2780682"><ele>557.25</ele><time>2026-04-04T13:38:56.833Z</time></trkpt><trkpt lat="44.2823048" lon="11.2781968"><ele>556.5</ele><time>2026-04-04T13:38:57.834Z</time></trkpt><trkpt lat="44.2823443" lon="11.2783498"><ele>555.75</ele><time>2026-04-04T13:38:58.834Z</time></trkpt><trkpt lat="44.2823804" lon="11.2785251"><ele>555.0</ele><time>2026-04-04T13:38:59.833Z</time></trkpt><trkpt lat="44.2824402" lon="11.2786991"><ele>555.0</ele><time>2026-04-04T13:39:00.834Z</time></trkpt><trkpt lat="44.2825247" lon="11.2788583"><ele>555.0</ele><time>2026-04-04T13:39:01.832Z</time></trkpt><trkpt lat="44.2826335" lon="11.2789881"><ele>555.0</ele><time>2026-04-04T13:39:02.834Z</time></trkpt><trkpt lat="44.2827621" lon="11.279093"><ele>555.0</ele><time>2026-04-04T13:39:03.833Z</time></trkpt><trkpt lat="44.2829088" lon="11.2791647"><ele>551.3333333333334</ele><time>2026-04-04T13:39:04.834Z</time></trkpt><trkpt lat="44.2830533" lon="11.2792129"><ele>547.6666666666667</ele><time>2026-04-04T13:39:05.833Z</time></trkpt><trkpt lat="44.2832001" lon="11.2792495"><ele>544.0</ele><time>2026-04-04T13:39:06.834Z</time></trkpt><trkpt lat="44.283354" lon="11.2792555"><ele>543.6666666666667</ele><time>2026-04-04T13:39:07.834Z</time></trkpt><trkpt lat="44.2835116" lon="11.27923"><ele>543.3333333333334</ele><time>2026-04-04T13:39:08.834Z</time></trkpt><trkpt lat="44.2836776" lon="11.2792104"><ele>543.0</ele><time>2026-04-04T13:39:09.834Z</time></trkpt><trkpt lat="44.2838513" lon="11.2792214"><ele>538.6666666666666</ele><time>2026-04-04T13:39:10.833Z</time></trkpt><trkpt lat="44.2840328" lon="11.2792196"><ele>534.3333333333333</ele><time>2026-04-04T13:39:11.834Z</time></trkpt><trkpt lat="44.2842262" lon="11.2791819"><ele>530.0</ele><time>2026-04-04T13:39:12.834Z</time></trkpt><trkpt lat="44.2844396" lon="11.2791321"><ele>530.0</ele><time>2026-04-04T13:39:13.834Z</time></trkpt><trkpt lat="44.2846673" lon="11.2790905"><ele>530.0</ele><time>2026-04-04T13:39:14.834Z</time></trkpt><trkpt lat="44.2848906" lon="11.2790696"><ele>530.0</ele><time>2026-04-04T13:39:15.832Z</time></trkpt><trkpt lat="44.2851064" lon="11.279058"><ele>530.0</ele><time>2026-04-04T13:39:16.833Z</time></trkpt><trkpt lat="44.2853113" lon="11.2790564"><ele>530.0</ele><time>2026-04-04T13:39:17.834Z</time></trkpt><trkpt lat="44.2854928" lon="11.2790583"><ele>528.25</ele><time>2026-04-04T13:39:18.834Z</time></trkpt><trkpt lat="44.2856461" lon="11.2790762"><ele>526.5</ele><time>2026-04-04T13:39:19.833Z</time></trkpt><trkpt lat="44.2857906" lon="11.2791254"><ele>524.75</ele><time>2026-04-04T13:39:20.834Z</time></trkpt><trkpt lat="44.2859078" lon="11.2792209"><ele>523.0</ele><time>2026-04-04T13:39:21.834Z</time></trkpt><trkpt lat="44.2860206" lon="11.2793216"><ele>523.0</ele><time>2026-04-04T13:39:22.834Z</time></trkpt><trkpt lat="44.2861347" lon="11.2793932"><ele>523.0</ele><time>2026-04-04T13:39:23.834Z</time></trkpt><trkpt lat="44.2862527" lon="11.2794079"><ele>523.0</ele><time>2026-04-04T13:39:24.834Z</time></trkpt><trkpt lat="44.2863561" lon="11.2793632"><ele>523.0</ele><time>2026-04-04T13:39:25.833Z</time></trkpt><trkpt lat="44.2864537" lon="11.2792615"><ele>522.75</ele><time>2026-04-04T13:39:26.833Z</time></trkpt><trkpt lat="44.2865326" lon="11.2791113"><ele>522.5</ele><time>2026-04-04T13:39:27.833Z</time></trkpt><trkpt lat="44.2866093" lon="11.2789429"><ele>522.25</ele><time>2026-04-04T13:39:28.833Z</time></trkpt><trkpt lat="44.2866937" lon="11.2787698"><ele>522.0</ele><time>2026-04-04T13:39:29.833Z</time></trkpt><trkpt lat="44.286791" lon="11.2785989"><ele>518.5</ele><time>2026-04-04T13:39:30.833Z</time></trkpt><trkpt lat="44.2868935" lon="11.2784491"><ele>515.0</ele><time>2026-04-04T13:39:31.833Z</time></trkpt><trkpt lat="44.2870028" lon="11.2783194"><ele>511.5</ele><time>2026-04-04T13:39:32.834Z</time></trkpt><trkpt lat="44.2871112" lon="11.2781998"><ele>508.0</ele><time>2026-04-04T13:39:33.834Z</time></trkpt><trkpt lat="44.2872216" lon="11.2780936"><ele>507.25</ele><time>2026-04-04T13:39:34.832Z</time></trkpt><trkpt lat="44.2873261" lon="11.2779915"><ele>506.5</ele><time>2026-04-04T13:39:35.833Z</time></trkpt><trkpt lat="44.2874298" lon="11.2778883"><ele>505.75</ele><time>2026-04-04T13:39:36.833Z</time></trkpt><trkpt lat="44.287533" lon="11.2777891"><ele>505.0</ele><time>2026-04-04T13:39:37.833Z</time></trkpt><trkpt lat="44.2876391" lon="11.2776993"><ele>505.0</ele><time>2026-04-04T13:39:38.833Z</time></trkpt><trkpt lat="44.2877633" lon="11.2776314"><ele>505.0</ele><time>2026-04-04T13:39:39.834Z</time></trkpt><trkpt lat="44.2879075" lon="11.2775801"><ele>505.0</ele><time>2026-04-04T13:39:40.834Z</time></trkpt><trkpt lat="44.2880599" lon="11.2775302"><ele>505.0</ele><time>2026-04-04T13:39:41.832Z</time></trkpt><trkpt lat="44.2882167" lon="11.2774708"><ele>505.33333333333337</ele><time>2026-04-04T13:39:42.833Z</time></trkpt><trkpt lat="44.2883731" lon="11.2773933"><ele>505.66666666666663</ele><time>2026-04-04T13:39:43.832Z</time></trkpt><trkpt lat="44.2885182" lon="11.2773076"><ele>506.0</ele><time>2026-04-04T13:39:44.833Z</time></trkpt><trkpt lat="44.2886518" lon="11.277219"><ele>506.0</ele><time>2026-04-04T13:39:45.834Z</time></trkpt><trkpt lat="44.2887854" lon="11.2771442"><ele>506.0</ele><time>2026-04-04T13:39:46.833Z</time></trkpt><trkpt lat="44.2889238" lon="11.2771064"><ele>506.0</ele><time>2026-04-04T13:39:47.833Z</time></trkpt><trkpt lat="44.2890663" lon="11.2770745"><ele>506.0</ele><time>2026-04-04T13:39:48.834Z</time></trkpt><trkpt lat="44.2892095" lon="11.277033"><ele>506.0</ele><time>2026-04-04T13:39:49.834Z</time></trkpt><trkpt lat="44.2893456" lon="11.2769942"><ele>506.0</ele><time>2026-04-04T13:39:50.834Z</time></trkpt><trkpt lat="44.2894792" lon="11.2769549"><ele>506.0</ele><time>2026-04-04T13:39:51.833Z</time></trkpt><trkpt lat="44.2896193" lon="11.2769165"><ele>506.0</ele><time>2026-04-04T13:39:52.833Z</time></trkpt><trkpt lat="44.2897631" lon="11.2768961"><ele>505.3333333333333</ele><time>2026-04-04T13:39:53.833Z</time></trkpt><trkpt lat="44.2899108" lon="11.2768837"><ele>504.66666666666663</ele><time>2026-04-04T13:39:54.832Z</time></trkpt><trkpt lat="44.2900639" lon="11.2768777"><ele>504.0</ele><time>2026-04-04T13:39:55.833Z</time></trkpt><trkpt lat="44.2902261" lon="11.2768758"><ele>504.0</ele><time>2026-04-04T13:39:56.834Z</time></trkpt><trkpt lat="44.290394" lon="11.2768765"><ele>504.0</ele><time>2026-04-04T13:39:57.834Z</time></trkpt><trkpt lat="44.290566" lon="11.2768832"><ele>504.0</ele><time>2026-04-04T13:39:58.833Z</time></trkpt><trkpt lat="44.2907398" lon="11.2768962"><ele>505.0</ele><time>2026-04-04T13:39:59.834Z</time></trkpt><trkpt lat="44.2909133" lon="11.2769074"><ele>506.0</ele><time>2026-04-04T13:40:00.833Z</time></trkpt><trkpt lat="44.2910805" lon="11.2769101"><ele>507.0</ele><time>2026-04-04T13:40:01.833Z</time></trkpt><trkpt lat="44.2912435" lon="11.2769032"><ele>507.0</ele><time>2026-04-04T13:40:02.834Z</time></trkpt><trkpt lat="44.2914" lon="11.2769062"><ele>507.0</ele><time>2026-04-04T13:40:03.834Z</time></trkpt><trkpt lat="44.2915523" lon="11.2769426"><ele>507.0</ele><time>2026-04-04T13:40:04.832Z</time></trkpt><trkpt lat="44.2917021" lon="11.2770107"><ele>508.0</ele><time>2026-04-04T13:40:05.833Z</time></trkpt><trkpt lat="44.2918488" lon="11.277098"><ele>509.0</ele><time>2026-04-04T13:40:06.832Z</time></trkpt><trkpt lat="44.2919895" lon="11.2771958"><ele>510.0</ele><time>2026-04-04T13:40:07.832Z</time></trkpt><trkpt lat="44.2921282" lon="11.2772936"><ele>507.25</ele><time>2026-04-04T13:40:08.832Z</time></trkpt><trkpt lat="44.2922582" lon="11.2773738"><ele>504.5</ele><time>2026-04-04T13:40:09.832Z</time></trkpt><trkpt lat="44.2923788" lon="11.2774423"><ele>501.75</ele><time>2026-04-04T13:40:10.832Z</time></trkpt><trkpt lat="44.2924906" lon="11.2775127"><ele>499.0</ele><time>2026-04-04T13:40:11.832Z</time></trkpt><trkpt lat="44.2925905" lon="11.2775965"><ele>499.0</ele><time>2026-04-04T13:40:12.832Z</time></trkpt><trkpt lat="44.2926848" lon="11.2776892"><ele>499.0</ele><time>2026-04-04T13:40:13.833Z</time></trkpt><trkpt lat="44.2927739" lon="11.2777921"><ele>499.0</ele><time>2026-04-04T13:40:14.832Z</time></trkpt><trkpt lat="44.2928568" lon="11.2779008"><ele>499.0</ele><time>2026-04-04T13:40:15.833Z</time></trkpt><trkpt lat="44.2929433" lon="11.2780145"><ele>496.75</ele><time>2026-04-04T13:40:16.833Z</time></trkpt><trkpt lat="44.2930327" lon="11.2781346"><ele>494.5</ele><time>2026-04-04T13:40:17.833Z</time></trkpt><trkpt lat="44.2931284" lon="11.2782647"><ele>492.25</ele><time>2026-04-04T13:40:18.833Z</time></trkpt><trkpt lat="44.2932278" lon="11.2784052"><ele>490.0</ele><time>2026-04-04T13:40:19.833Z</time></trkpt><trkpt lat="44.2933372" lon="11.2785549"><ele>490.0</ele><time>2026-04-04T13:40:20.832Z</time></trkpt><trkpt lat="44.2934428" lon="11.2787131"><ele>490.0</ele><time>2026-04-04T13:40:21.831Z</time></trkpt><trkpt lat="44.2935384" lon="11.2788674"><ele>490.0</ele><time>2026-04-04T13:40:22.831Z</time></trkpt><trkpt lat="44.29362" lon="11.2790249"><ele>490.0</ele><time>2026-04-04T13:40:23.831Z</time></trkpt><trkpt lat="44.2937034" lon="11.2791797"><ele>489.0</ele><time>2026-04-04T13:40:24.833Z</time></trkpt><trkpt lat="44.2938109" lon="11.2793269"><ele>488.0</ele><time>2026-04-04T13:40:25.833Z</time></trkpt><trkpt lat="44.2939418" lon="11.2794534"><ele>487.0</ele><time>2026-04-04T13:40:26.833Z</time></trkpt><trkpt lat="44.294081" lon="11.2795517"><ele>487.0</ele><time>2026-04-04T13:40:27.832Z</time></trkpt><trkpt lat="44.2942294" lon="11.27962"><ele>487.0</ele><time>2026-04-04T13:40:28.833Z</time></trkpt><trkpt lat="44.294379" lon="11.2796584"><ele>487.0</ele><time>2026-04-04T13:40:29.832Z</time></trkpt><trkpt lat="44.294527" lon="11.2796664"><ele>487.0</ele><time>2026-04-04T13:40:30.833Z</time></trkpt><trkpt lat="44.2946691" lon="11.2796546"><ele>487.0</ele><time>2026-04-04T13:40:31.833Z</time></trkpt><trkpt lat="44.2947618" lon="11.2796187"><ele>487.0</ele><time>2026-04-04T13:40:32.832Z</time></trkpt><trkpt lat="44.2948583" lon="11.2795528"><ele>487.0</ele><time>2026-04-04T13:40:33.833Z</time></trkpt><trkpt lat="44.2949609" lon="11.2795317"><ele>486.75</ele><time>2026-04-04T13:40:34.833Z</time></trkpt><trkpt lat="44.295063" lon="11.2795638"><ele>486.5</ele><time>2026-04-04T13:40:35.833Z</time></trkpt><trkpt lat="44.2951656" lon="11.2796506"><ele>486.25</ele><time>2026-04-04T13:40:36.832Z</time></trkpt><trkpt lat="44.2952532" lon="11.2797764"><ele>486.0</ele><time>2026-04-04T13:40:37.833Z</time></trkpt><trkpt lat="44.295315" lon="11.2799198"><ele>486.0</ele><time>2026-04-04T13:40:38.833Z</time></trkpt><trkpt lat="44.2953333" lon="11.2800834"><ele>486.0</ele><time>2026-04-04T13:40:39.833Z</time></trkpt><trkpt lat="44.2953229" lon="11.2802424"><ele>486.0</ele><time>2026-04-04T13:40:40.833Z</time></trkpt><trkpt lat="44.295343" lon="11.2803945"><ele>486.0</ele><time>2026-04-04T13:40:41.832Z</time></trkpt><trkpt lat="44.2954023" lon="11.2805322"><ele>487.0</ele><time>2026-04-04T13:40:42.832Z</time></trkpt><trkpt lat="44.2954972" lon="11.2806472"><ele>488.0</ele><time>2026-04-04T13:40:43.832Z</time></trkpt><trkpt lat="44.2956109" lon="11.2807382"><ele>489.0</ele><time>2026-04-04T13:40:44.832Z</time></trkpt><trkpt lat="44.2957218" lon="11.28085"><ele>490.0</ele><time>2026-04-04T13:40:45.832Z</time></trkpt><trkpt lat="44.2958287" lon="11.2809834"><ele>484.5</ele><time>2026-04-04T13:40:46.831Z</time></trkpt><trkpt lat="44.2959551" lon="11.2810849"><ele>479.0</ele><time>2026-04-04T13:40:47.833Z</time></trkpt><trkpt lat="44.2960972" lon="11.2811342"><ele>473.5</ele><time>2026-04-04T13:40:48.832Z</time></trkpt><trkpt lat="44.2962469" lon="11.2811474"><ele>468.0</ele><time>2026-04-04T13:40:49.833Z</time></trkpt><trkpt lat="44.2963876" lon="11.2811436"><ele>469.5</ele><time>2026-04-04T13:40:50.832Z</time></trkpt><trkpt lat="44.2965292" lon="11.281116"><ele>471.0</ele><time>2026-04-04T13:40:51.833Z</time></trkpt><trkpt lat="44.2966491" lon="11.2810533"><ele>472.5</ele><time>2026-04-04T13:40:52.833Z</time></trkpt><trkpt lat="44.2967607" lon="11.2809531"><ele>474.0</ele><time>2026-04-04T13:40:53.833Z</time></trkpt><trkpt lat="44.2968423" lon="11.2807982"><ele>474.0</ele><time>2026-04-04T13:40:54.833Z</time></trkpt><trkpt lat="44.2968903" lon="11.2806113"><ele>474.0</ele><time>2026-04-04T13:40:55.833Z</time></trkpt><trkpt lat="44.2968944" lon="11.2804058"><ele>474.0</ele><time>2026-04-04T13:40:56.833Z</time></trkpt><trkpt lat="44.2968548" lon="11.2801943"><ele>474.0</ele><time>2026-04-04T13:40:57.832Z</time></trkpt><trkpt lat="44.2968145" lon="11.2800099"><ele>473.0</ele><time>2026-04-04T13:40:58.832Z</time></trkpt><trkpt lat="44.296817" lon="11.2798313"><ele>472.0</ele><time>2026-04-04T13:40:59.832Z</time></trkpt><trkpt lat="44.2968548" lon="11.2796464"><ele>471.0</ele><time>2026-04-04T13:41:00.832Z</time></trkpt><trkpt lat="44.296933" lon="11.2794859"><ele>470.0</ele><time>2026-04-04T13:41:01.832Z</time></trkpt><trkpt lat="44.29703" lon="11.27938"><ele>470.75</ele><time>2026-04-04T13:41:02.832Z</time></trkpt><trkpt lat="44.2971298" lon="11.2793148"><ele>471.5</ele><time>2026-04-04T13:41:03.832Z</time></trkpt><trkpt lat="44.2972558" lon="11.2793421"><ele>472.25</ele><time>2026-04-04T13:41:04.833Z</time></trkpt><trkpt lat="44.2973788" lon="11.2794021"><ele>473.0</ele><time>2026-04-04T13:41:05.833Z</time></trkpt><trkpt lat="44.2975079" lon="11.2794938"><ele>473.0</ele><time>2026-04-04T13:41:06.833Z</time></trkpt><trkpt lat="44.2976495" lon="11.27959"><ele>473.0</ele><time>2026-04-04T13:41:07.833Z</time></trkpt><trkpt lat="44.2978064" lon="11.2796812"><ele>473.0</ele><time>2026-04-04T13:41:08.833Z</time></trkpt><trkpt lat="44.297966" lon="11.2797541"><ele>471.0</ele><time>2026-04-04T13:41:09.831Z</time></trkpt><trkpt lat="44.2981236" lon="11.2797866"><ele>469.0</ele><time>2026-04-04T13:41:10.832Z</time></trkpt><trkpt lat="44.2982941" lon="11.279768"><ele>467.0</ele><time>2026-04-04T13:41:11.833Z</time></trkpt><trkpt lat="44.298472" lon="11.2796958"><ele>467.0</ele><time>2026-04-04T13:41:12.833Z</time></trkpt><trkpt lat="44.298657" lon="11.2796065"><ele>467.0</ele><time>2026-04-04T13:41:13.831Z</time></trkpt><trkpt lat="44.2988495" lon="11.2795522"><ele>467.0</ele><time>2026-04-04T13:41:14.832Z</time></trkpt><trkpt lat="44.2990546" lon="11.2795178"><ele>471.66666666666663</ele><time>2026-04-04T13:41:15.832Z</time></trkpt><trkpt lat="44.2992381" lon="11.2794869"><ele>476.33333333333337</ele><time>2026-04-04T13:41:16.831Z</time></trkpt><trkpt lat="44.2994067" lon="11.2794396"><ele>481.0</ele><time>2026-04-04T13:41:17.832Z</time></trkpt><trkpt lat="44.299562" lon="11.2793707"><ele>481.0</ele><time>2026-04-04T13:41:18.833Z</time></trkpt><trkpt lat="44.2997117" lon="11.2792958"><ele>481.0</ele><time>2026-04-04T13:41:19.832Z</time></trkpt><trkpt lat="44.29987" lon="11.2792659"><ele>481.0</ele><time>2026-04-04T13:41:20.832Z</time></trkpt><trkpt lat="44.3000502" lon="11.2792772"><ele>481.0</ele><time>2026-04-04T13:41:21.832Z</time></trkpt><trkpt lat="44.3002496" lon="11.2793133"><ele>481.0</ele><time>2026-04-04T13:41:22.832Z</time></trkpt><trkpt lat="44.3004631" lon="11.2793174"><ele>481.0</ele><time>2026-04-04T13:41:23.833Z</time></trkpt><trkpt lat="44.3006945" lon="11.2792925"><ele>477.6666666666667</ele><time>2026-04-04T13:41:24.832Z</time></trkpt><trkpt lat="44.3009202" lon="11.2792681"><ele>474.33333333333337</ele><time>2026-04-04T13:41:25.832Z</time></trkpt><trkpt lat="44.3011305" lon="11.279228"><ele>471.0</ele><time>2026-04-04T13:41:26.833Z</time></trkpt><trkpt lat="44.301326" lon="11.279165"><ele>470.0</ele><time>2026-04-04T13:41:27.833Z</time></trkpt><trkpt lat="44.301509" lon="11.2791001"><ele>469.0</ele><time>2026-04-04T13:41:28.832Z</time></trkpt><trkpt lat="44.3016791" lon="11.2790566"><ele>468.0</ele><time>2026-04-04T13:41:29.833Z</time></trkpt><trkpt lat="44.3018521" lon="11.2790597"><ele>468.0</ele><time>2026-04-04T13:41:30.832Z</time></trkpt><trkpt lat="44.3020228" lon="11.2791125"><ele>468.0</ele><time>2026-04-04T13:41:31.833Z</time></trkpt><trkpt lat="44.3021893" lon="11.2791948"><ele>468.0</ele><time>2026-04-04T13:41:32.832Z</time></trkpt><trkpt lat="44.3023652" lon="11.2792329"><ele>468.66666666666663</ele><time>2026-04-04T13:41:33.833Z</time></trkpt><trkpt lat="44.3025478" lon="11.2792139"><ele>469.3333333333333</ele><time>2026-04-04T13:41:34.832Z</time></trkpt><trkpt lat="44.3027341" lon="11.2792191"><ele>470.0</ele><time>2026-04-04T13:41:35.833Z</time></trkpt><trkpt lat="44.3029221" lon="11.2792785"><ele>471.0</ele><time>2026-04-04T13:41:36.832Z</time></trkpt><trkpt lat="44.3031186" lon="11.2793583"><ele>472.0</ele><time>2026-04-04T13:41:37.832Z</time></trkpt><trkpt lat="44.3033275" lon="11.2794324"><ele>473.0</ele><time>2026-04-04T13:41:38.832Z</time></trkpt><trkpt lat="44.3035267" lon="11.2795116"><ele>473.0</ele><time>2026-04-04T13:41:39.832Z</time></trkpt><trkpt lat="44.3037153" lon="11.2795841"><ele>473.0</ele><time>2026-04-04T13:41:40.832Z</time></trkpt><trkpt lat="44.3038976" lon="11.279635"><ele>473.0</ele><time>2026-04-04T13:41:41.833Z</time></trkpt><trkpt lat="44.3040795" lon="11.2796465"><ele>471.0</ele><time>2026-04-04T13:41:42.833Z</time></trkpt><trkpt lat="44.3042682" lon="11.2796132"><ele>469.0</ele><time>2026-04-04T13:41:43.833Z</time></trkpt><trkpt lat="44.3044579" lon="11.2795388"><ele>467.0</ele><time>2026-04-04T13:41:44.832Z</time></trkpt><trkpt lat="44.304638" lon="11.2794522"><ele>463.66666666666663</ele><time>2026-04-04T13:41:45.832Z</time></trkpt><trkpt lat="44.3048048" lon="11.2793582"><ele>460.33333333333337</ele><time>2026-04-04T13:41:46.831Z</time></trkpt><trkpt lat="44.3049665" lon="11.2792635"><ele>457.0</ele><time>2026-04-04T13:41:47.833Z</time></trkpt><trkpt lat="44.3051321" lon="11.279212"><ele>457.0</ele><time>2026-04-04T13:41:48.832Z</time></trkpt><trkpt lat="44.3053119" lon="11.2791957"><ele>457.0</ele><time>2026-04-04T13:41:49.831Z</time></trkpt><trkpt lat="44.3055021" lon="11.2792065"><ele>457.0</ele><time>2026-04-04T13:41:50.832Z</time></trkpt><trkpt lat="44.3056916" lon="11.2792164"><ele>455.33333333333337</ele><time>2026-04-04T13:41:51.833Z</time></trkpt><trkpt lat="44.3058876" lon="11.2791935"><ele>453.66666666666663</ele><time>2026-04-04T13:41:52.832Z</time></trkpt><trkpt lat="44.3060904" lon="11.2791369"><ele>452.0</ele><time>2026-04-04T13:41:53.832Z</time></trkpt><trkpt lat="44.3062935" lon="11.279114"><ele>451.3333333333333</ele><time>2026-04-04T13:41:54.833Z</time></trkpt><trkpt lat="44.3064963" lon="11.2791356"><ele>450.66666666666663</ele><time>2026-04-04T13:41:55.833Z</time></trkpt><trkpt lat="44.3066877" lon="11.2791576"><ele>450.0</ele><time>2026-04-04T13:41:56.833Z</time></trkpt><trkpt lat="44.3068691" lon="11.2791752"><ele>450.0</ele><time>2026-04-04T13:41:57.833Z</time></trkpt><trkpt lat="44.3070425" lon="11.2791917"><ele>450.0</ele><time>2026-04-04T13:41:58.833Z</time></trkpt><trkpt lat="44.3072074" lon="11.2791921"><ele>450.0</ele><time>2026-04-04T13:41:59.831Z</time></trkpt><trkpt lat="44.3073698" lon="11.2791375"><ele>447.0</ele><time>2026-04-04T13:42:00.832Z</time></trkpt><trkpt lat="44.3075157" lon="11.2790364"><ele>444.0</ele><time>2026-04-04T13:42:01.833Z</time></trkpt><trkpt lat="44.307654" lon="11.2789331"><ele>441.0</ele><time>2026-04-04T13:42:02.832Z</time></trkpt><trkpt lat="44.3077996" lon="11.2788604"><ele>439.0</ele><time>2026-04-04T13:42:03.833Z</time></trkpt><trkpt lat="44.3079469" lon="11.278844"><ele>437.0</ele><time>2026-04-04T13:42:04.833Z</time></trkpt><trkpt lat="44.3080999" lon="11.2788887"><ele>435.0</ele><time>2026-04-04T13:42:05.832Z</time></trkpt><trkpt lat="44.3082596" lon="11.2789654"><ele>433.66666666666663</ele><time>2026-04-04T13:42:06.832Z</time></trkpt><trkpt lat="44.3084393" lon="11.2790126"><ele>432.3333333333333</ele><time>2026-04-04T13:42:07.832Z</time></trkpt><trkpt lat="44.3086333" lon="11.2790407"><ele>431.0</ele><time>2026-04-04T13:42:08.832Z</time></trkpt><trkpt lat="44.3088345" lon="11.2790631"><ele>430.0</ele><time>2026-04-04T13:42:09.831Z</time></trkpt><trkpt lat="44.3090271" lon="11.2790643"><ele>429.0</ele><time>2026-04-04T13:42:10.833Z</time></trkpt><trkpt lat="44.3092065" lon="11.2790238"><ele>428.0</ele><time>2026-04-04T13:42:11.832Z</time></trkpt><trkpt lat="44.309392" lon="11.2789335"><ele>428.0</ele><time>2026-04-04T13:42:12.832Z</time></trkpt><trkpt lat="44.3095732" lon="11.2788221"><ele>428.0</ele><time>2026-04-04T13:42:13.832Z</time></trkpt><trkpt lat="44.3097367" lon="11.2787299"><ele>428.0</ele><time>2026-04-04T13:42:14.833Z</time></trkpt><trkpt lat="44.3098907" lon="11.2786505"><ele>430.66666666666663</ele><time>2026-04-04T13:42:15.833Z</time></trkpt><trkpt lat="44.3100364" lon="11.2785957"><ele>433.33333333333337</ele><time>2026-04-04T13:42:16.833Z</time></trkpt><trkpt lat="44.3101875" lon="11.2785659"><ele>436.0</ele><time>2026-04-04T13:42:17.833Z</time></trkpt><trkpt lat="44.310351" lon="11.2785545"><ele>436.0</ele><time>2026-04-04T13:42:18.832Z</time></trkpt><trkpt lat="44.3105183" lon="11.2785553"><ele>436.0</ele><time>2026-04-04T13:42:19.833Z</time></trkpt><trkpt lat="44.3106893" lon="11.2785626"><ele>436.0</ele><time>2026-04-04T13:42:20.833Z</time></trkpt><trkpt lat="44.3108645" lon="11.2785852"><ele>436.6666666666667</ele><time>2026-04-04T13:42:21.832Z</time></trkpt><trkpt lat="44.3110367" lon="11.278634"><ele>437.33333333333337</ele><time>2026-04-04T13:42:22.832Z</time></trkpt><trkpt lat="44.3112083" lon="11.2787118"><ele>438.0</ele><time>2026-04-04T13:42:23.833Z</time></trkpt><trkpt lat="44.3113831" lon="11.2787974"><ele>437.66666666666663</ele><time>2026-04-04T13:42:24.833Z</time></trkpt><trkpt lat="44.3115468" lon="11.2788874"><ele>437.3333333333333</ele><time>2026-04-04T13:42:25.833Z</time></trkpt><trkpt lat="44.3116967" lon="11.2789906"><ele>437.0</ele><time>2026-04-04T13:42:26.833Z</time></trkpt><trkpt lat="44.3118355" lon="11.2791069"><ele>437.0</ele><time>2026-04-04T13:42:27.833Z</time></trkpt><trkpt lat="44.311956" lon="11.2792276"><ele>437.0</ele><time>2026-04-04T13:42:28.833Z</time></trkpt><trkpt lat="44.3120713" lon="11.2793037"><ele>437.0</ele><time>2026-04-04T13:42:29.833Z</time></trkpt><trkpt lat="44.3121863" lon="11.2793151"><ele>437.0</ele><time>2026-04-04T13:42:30.833Z</time></trkpt><trkpt lat="44.3122903" lon="11.2792657"><ele>436.5</ele><time>2026-04-04T13:42:31.833Z</time></trkpt><trkpt lat="44.3123649" lon="11.2791654"><ele>436.0</ele><time>2026-04-04T13:42:32.833Z</time></trkpt><trkpt lat="44.312422" lon="11.2790111"><ele>435.5</ele><time>2026-04-04T13:42:33.832Z</time></trkpt><trkpt lat="44.3125006" lon="11.2788463"><ele>435.0</ele><time>2026-04-04T13:42:34.833Z</time></trkpt><trkpt lat="44.3125972" lon="11.2786763"><ele>435.0</ele><time>2026-04-04T13:42:35.833Z</time></trkpt><trkpt lat="44.3126901" lon="11.2785164"><ele>435.0</ele><time>2026-04-04T13:42:36.833Z</time></trkpt><trkpt lat="44.3127594" lon="11.2783497"><ele>435.0</ele><time>2026-04-04T13:42:37.833Z</time></trkpt><trkpt lat="44.3127915" lon="11.2781758"><ele>435.0</ele><time>2026-04-04T13:42:38.833Z</time></trkpt><trkpt lat="44.312775" lon="11.2780015"><ele>434.0</ele><time>2026-04-04T13:42:39.833Z</time></trkpt><trkpt lat="44.3127077" lon="11.2778327"><ele>433.0</ele><time>2026-04-04T13:42:40.831Z</time></trkpt><trkpt lat="44.3126063" lon="11.2776844"><ele>432.0</ele><time>2026-04-04T13:42:41.833Z</time></trkpt><trkpt lat="44.3125101" lon="11.2775442"><ele>431.0</ele><time>2026-04-04T13:42:42.833Z</time></trkpt><trkpt lat="44.3124403" lon="11.2773675"><ele>430.0</ele><time>2026-04-04T13:42:43.833Z</time></trkpt><trkpt lat="44.3124064" lon="11.2771647"><ele>429.0</ele><time>2026-04-04T13:42:44.833Z</time></trkpt><trkpt lat="44.3124085" lon="11.2769433"><ele>428.0</ele><time>2026-04-04T13:42:45.833Z</time></trkpt><trkpt lat="44.3124322" lon="11.2766958"><ele>426.3333333333333</ele><time>2026-04-04T13:42:46.833Z</time></trkpt><trkpt lat="44.3124747" lon="11.2764322"><ele>424.66666666666663</ele><time>2026-04-04T13:42:47.832Z</time></trkpt><trkpt lat="44.3125162" lon="11.2761566"><ele>423.0</ele><time>2026-04-04T13:42:48.832Z</time></trkpt><trkpt lat="44.3125379" lon="11.2758831"><ele>423.0</ele><time>2026-04-04T13:42:49.832Z</time></trkpt><trkpt lat="44.3125724" lon="11.2756123"><ele>423.0</ele><time>2026-04-04T13:42:50.832Z</time></trkpt><trkpt lat="44.3126365" lon="11.2753655"><ele>423.0</ele><time>2026-04-04T13:42:51.832Z</time></trkpt><trkpt lat="44.3127002" lon="11.2751393"><ele>421.33333333333337</ele><time>2026-04-04T13:42:52.832Z</time></trkpt><trkpt lat="44.3127285" lon="11.2749147"><ele>419.6666666666667</ele><time>2026-04-04T13:42:53.832Z</time></trkpt><trkpt lat="44.3127232" lon="11.2746934"><ele>418.0</ele><time>2026-04-04T13:42:54.832Z</time></trkpt><trkpt lat="44.3126734" lon="11.2744721"><ele>418.0</ele><time>2026-04-04T13:42:55.832Z</time></trkpt><trkpt lat="44.3125972" lon="11.2742775"><ele>418.0</ele><time>2026-04-04T13:42:56.833Z</time></trkpt><trkpt lat="44.3125262" lon="11.2741186"><ele>418.0</ele><time>2026-04-04T13:42:57.833Z</time></trkpt><trkpt lat="44.3124939" lon="11.273965"><ele>418.0</ele><time>2026-04-04T13:42:58.832Z</time></trkpt><trkpt lat="44.3125031" lon="11.2738019"><ele>418.25</ele><time>2026-04-04T13:42:59.833Z</time></trkpt><trkpt lat="44.3125557" lon="11.2736467"><ele>418.5</ele><time>2026-04-04T13:43:00.833Z</time></trkpt><trkpt lat="44.3126214" lon="11.2734836"><ele>418.75</ele><time>2026-04-04T13:43:01.833Z</time></trkpt><trkpt lat="44.3126616" lon="11.2732892"><ele>419.0</ele><time>2026-04-04T13:43:02.833Z</time></trkpt><trkpt lat="44.3126758" lon="11.2730753"><ele>417.3333333333333</ele><time>2026-04-04T13:43:03.832Z</time></trkpt><trkpt lat="44.3126556" lon="11.2728543"><ele>415.66666666666663</ele><time>2026-04-04T13:43:04.833Z</time></trkpt><trkpt lat="44.312605" lon="11.2726379"><ele>414.0</ele><time>2026-04-04T13:43:05.833Z</time></trkpt><trkpt lat="44.3125162" lon="11.2724192"><ele>412.66666666666663</ele><time>2026-04-04T13:43:06.833Z</time></trkpt><trkpt lat="44.3124123" lon="11.2722221"><ele>411.3333333333333</ele><time>2026-04-04T13:43:07.832Z</time></trkpt><trkpt lat="44.3123133" lon="11.27202"><ele>410.0</ele><time>2026-04-04T13:43:08.833Z</time></trkpt><trkpt lat="44.3122277" lon="11.2717912"><ele>404.66666666666663</ele><time>2026-04-04T13:43:09.833Z</time></trkpt><trkpt lat="44.3121524" lon="11.271539"><ele>399.33333333333337</ele><time>2026-04-04T13:43:10.833Z</time></trkpt><trkpt lat="44.312087" lon="11.2712685"><ele>394.0</ele><time>2026-04-04T13:43:11.832Z</time></trkpt><trkpt lat="44.312019" lon="11.2709757"><ele>394.0</ele><time>2026-04-04T13:43:12.832Z</time></trkpt><trkpt lat="44.3119443" lon="11.2706745"><ele>394.0</ele><time>2026-04-04T13:43:13.831Z</time></trkpt><trkpt lat="44.3118611" lon="11.2703775"><ele>395.6666666666667</ele><time>2026-04-04T13:43:14.831Z</time></trkpt><trkpt lat="44.3117593" lon="11.2700968"><ele>397.33333333333337</ele><time>2026-04-04T13:43:15.832Z</time></trkpt><trkpt lat="44.3116552" lon="11.2698527"><ele>399.0</ele><time>2026-04-04T13:43:16.831Z</time></trkpt><trkpt lat="44.3115691" lon="11.2696389"><ele>399.75</ele><time>2026-04-04T13:43:17.832Z</time></trkpt><trkpt lat="44.3115045" lon="11.2694447"><ele>400.5</ele><time>2026-04-04T13:43:18.832Z</time></trkpt><trkpt lat="44.3114642" lon="11.269279"><ele>401.25</ele><time>2026-04-04T13:43:19.832Z</time></trkpt><trkpt lat="44.3114526" lon="11.2691362"><ele>402.0</ele><time>2026-04-04T13:43:20.832Z</time></trkpt><trkpt lat="44.311486" lon="11.269018"><ele>400.20000000000005</ele><time>2026-04-04T13:43:21.832Z</time></trkpt><trkpt lat="44.31155" lon="11.2689364"><ele>398.4</ele><time>2026-04-04T13:43:22.83Z</time></trkpt><trkpt lat="44.3116369" lon="11.2688968"><ele>396.6</ele><time>2026-04-04T13:43:23.832Z</time></trkpt><trkpt lat="44.3117424" lon="11.2688684"><ele>394.79999999999995</ele><time>2026-04-04T13:43:24.83Z</time></trkpt><trkpt lat="44.3118577" lon="11.2688343"><ele>393.0</ele><time>2026-04-04T13:43:25.831Z</time></trkpt><trkpt lat="44.3119684" lon="11.2688045"><ele>393.0</ele><time>2026-04-04T13:43:26.831Z</time></trkpt><trkpt lat="44.3120792" lon="11.2687765"><ele>393.0</ele><time>2026-04-04T13:43:27.832Z</time></trkpt><trkpt lat="44.3121998" lon="11.268749"><ele>393.0</ele><time>2026-04-04T13:43:28.831Z</time></trkpt><trkpt lat="44.3123274" lon="11.2687409"><ele>393.0</ele><time>2026-04-04T13:43:29.832Z</time></trkpt><trkpt lat="44.3124572" lon="11.2687361"><ele>392.5</ele><time>2026-04-04T13:43:30.832Z</time></trkpt><trkpt lat="44.3125828" lon="11.2687392"><ele>392.0</ele><time>2026-04-04T13:43:31.832Z</time></trkpt><trkpt lat="44.3126998" lon="11.2687359"><ele>391.5</ele><time>2026-04-04T13:43:32.832Z</time></trkpt><trkpt lat="44.3128076" lon="11.2687326"><ele>391.0</ele><time>2026-04-04T13:43:33.832Z</time></trkpt><trkpt lat="44.3129115" lon="11.268731"><ele>391.0</ele><time>2026-04-04T13:43:34.832Z</time></trkpt><trkpt lat="44.3130117" lon="11.2687589"><ele>391.0</ele><time>2026-04-04T13:43:35.831Z</time></trkpt><trkpt lat="44.313101" lon="11.2688418"><ele>391.0</ele><time>2026-04-04T13:43:36.832Z</time></trkpt><trkpt lat="44.3131803" lon="11.2689191"><ele>391.0</ele><time>2026-04-04T13:43:37.831Z</time></trkpt><trkpt lat="44.3132468" lon="11.2690174"><ele>391.0</ele><time>2026-04-04T13:43:38.832Z</time></trkpt><trkpt lat="44.3132916" lon="11.2691426"><ele>389.0</ele><time>2026-04-04T13:43:39.832Z</time></trkpt><trkpt lat="44.3133042" lon="11.2692795"><ele>387.0</ele><time>2026-04-04T13:43:40.832Z</time></trkpt><trkpt lat="44.3132771" lon="11.2694074"><ele>385.0</ele><time>2026-04-04T13:43:41.832Z</time></trkpt><trkpt lat="44.3132201" lon="11.2695099"><ele>383.0</ele><time>2026-04-04T13:43:42.831Z</time></trkpt><trkpt lat="44.3131527" lon="11.2695955"><ele>381.0</ele><time>2026-04-04T13:43:43.831Z</time></trkpt><trkpt lat="44.3130912" lon="11.2696868"><ele>380.20000000000005</ele><time>2026-04-04T13:43:44.831Z</time></trkpt><trkpt lat="44.3130492" lon="11.2698049"><ele>379.40000000000003</ele><time>2026-04-04T13:43:45.831Z</time></trkpt><trkpt lat="44.3130323" lon="11.2699337"><ele>378.6</ele><time>2026-04-04T13:43:46.831Z</time></trkpt><trkpt lat="44.3130425" lon="11.2700589"><ele>377.8</ele><time>2026-04-04T13:43:47.831Z</time></trkpt><trkpt lat="44.3130705" lon="11.2701815"><ele>377.0</ele><time>2026-04-04T13:43:48.831Z</time></trkpt><trkpt lat="44.3131168" lon="11.2703098"><ele>377.0</ele><time>2026-04-04T13:43:49.831Z</time></trkpt><trkpt lat="44.3131856" lon="11.2704282"><ele>377.0</ele><time>2026-04-04T13:43:50.831Z</time></trkpt><trkpt lat="44.3132705" lon="11.2705328"><ele>377.0</ele><time>2026-04-04T13:43:51.831Z</time></trkpt><trkpt lat="44.3133644" lon="11.2706234"><ele>377.0</ele><time>2026-04-04T13:43:52.831Z</time></trkpt><trkpt lat="44.3134752" lon="11.2707035"><ele>373.6666666666667</ele><time>2026-04-04T13:43:53.832Z</time></trkpt><trkpt lat="44.3136523" lon="11.2707493"><ele>370.3333333333333</ele><time>2026-04-04T13:43:54.832Z</time></trkpt><trkpt lat="44.3138388" lon="11.2708171"><ele>367.0</ele><time>2026-04-04T13:43:55.832Z</time></trkpt><trkpt lat="44.3140491" lon="11.2709117"><ele>367.0</ele><time>2026-04-04T13:43:56.832Z</time></trkpt><trkpt lat="44.3142793" lon="11.2709824"><ele>367.0</ele><time>2026-04-04T13:43:57.832Z</time></trkpt><trkpt lat="44.3145056" lon="11.2710351"><ele>367.0</ele><time>2026-04-04T13:43:58.832Z</time></trkpt><trkpt lat="44.3147281" lon="11.2710652"><ele>367.0</ele><time>2026-04-04T13:43:59.831Z</time></trkpt><trkpt lat="44.3149581" lon="11.2710647"><ele>360.0</ele><time>2026-04-04T13:44:00.832Z</time></trkpt><trkpt lat="44.3152066" lon="11.2710441"><ele>353.0</ele><time>2026-04-04T13:44:01.832Z</time></trkpt><trkpt lat="44.3154637" lon="11.2710188"><ele>349.5</ele><time>2026-04-04T13:44:02.831Z</time></trkpt><trkpt lat="44.315728" lon="11.2709813"><ele>346.0</ele><time>2026-04-04T13:44:03.832Z</time></trkpt><trkpt lat="44.3159804" lon="11.2709415"><ele>346.0</ele><time>2026-04-04T13:44:04.831Z</time></trkpt><trkpt lat="44.3162236" lon="11.2709148"><ele>346.0</ele><time>2026-04-04T13:44:05.831Z</time></trkpt><trkpt lat="44.3164428" lon="11.2708969"><ele>343.0</ele><time>2026-04-04T13:44:06.831Z</time></trkpt><trkpt lat="44.3166379" lon="11.2708828"><ele>340.0</ele><time>2026-04-04T13:44:07.832Z</time></trkpt><trkpt lat="44.3167975" lon="11.2708759"><ele>337.0</ele><time>2026-04-04T13:44:08.831Z</time></trkpt><trkpt lat="44.3169265" lon="11.2708878"><ele>337.0</ele><time>2026-04-04T13:44:09.832Z</time></trkpt><trkpt lat="44.3170218" lon="11.2709513"><ele>337.0</ele><time>2026-04-04T13:44:10.833Z</time></trkpt><trkpt lat="44.3170915" lon="11.2710625"><ele>337.0</ele><time>2026-04-04T13:44:11.832Z</time></trkpt><trkpt lat="44.3171282" lon="11.2712222"><ele>337.0</ele><time>2026-04-04T13:44:12.83Z</time></trkpt><trkpt lat="44.3171377" lon="11.2714195"><ele>341.3333333333333</ele><time>2026-04-04T13:44:13.832Z</time></trkpt><trkpt lat="44.3171705" lon="11.2716472"><ele>345.6666666666667</ele><time>2026-04-04T13:44:14.832Z</time></trkpt><trkpt lat="44.3172193" lon="11.2718916"><ele>350.0</ele><time>2026-04-04T13:44:15.832Z</time></trkpt><trkpt lat="44.3172299" lon="11.2721634"><ele>351.0</ele><time>2026-04-04T13:44:16.832Z</time></trkpt><trkpt lat="44.3172285" lon="11.2724331"><ele>352.0</ele><time>2026-04-04T13:44:17.83Z</time></trkpt><trkpt lat="44.3172405" lon="11.2726702"><ele>353.0</ele><time>2026-04-04T13:44:18.83Z</time></trkpt><trkpt lat="44.3172651" lon="11.2728689"><ele>349.79999999999995</ele><time>2026-04-04T13:44:19.832Z</time></trkpt><trkpt lat="44.3173064" lon="11.2730371"><ele>346.6</ele><time>2026-04-04T13:44:20.832Z</time></trkpt><trkpt lat="44.3173728" lon="11.2731521"><ele>343.4</ele><time>2026-04-04T13:44:21.832Z</time></trkpt><trkpt lat="44.317452" lon="11.2732077"><ele>340.20000000000005</ele><time>2026-04-04T13:44:22.83Z</time></trkpt><trkpt lat="44.3175321" lon="11.2731994"><ele>337.0</ele><time>2026-04-04T13:44:23.831Z</time></trkpt><trkpt lat="44.3175952" lon="11.2731278"><ele>335.75</ele><time>2026-04-04T13:44:24.83Z</time></trkpt><trkpt lat="44.3176377" lon="11.2730028"><ele>334.5</ele><time>2026-04-04T13:44:25.832Z</time></trkpt><trkpt lat="44.3176487" lon="11.2728355"><ele>333.25</ele><time>2026-04-04T13:44:26.832Z</time></trkpt><trkpt lat="44.3176601" lon="11.2726595"><ele>332.0</ele><time>2026-04-04T13:44:27.832Z</time></trkpt><trkpt lat="44.3176968" lon="11.2724962"><ele>332.0</ele><time>2026-04-04T13:44:28.832Z</time></trkpt><trkpt lat="44.3177582" lon="11.2723406"><ele>332.0</ele><time>2026-04-04T13:44:29.832Z</time></trkpt><trkpt lat="44.3178401" lon="11.2722157"><ele>332.0</ele><time>2026-04-04T13:44:30.832Z</time></trkpt><trkpt lat="44.3179585" lon="11.2721416"><ele>332.0</ele><time>2026-04-04T13:44:31.832Z</time></trkpt><trkpt lat="44.3181005" lon="11.2720802"><ele>326.75</ele><time>2026-04-04T13:44:32.832Z</time></trkpt><trkpt lat="44.3182466" lon="11.2720273"><ele>321.5</ele><time>2026-04-04T13:44:33.831Z</time></trkpt><trkpt lat="44.3183892" lon="11.2720248"><ele>316.25</ele><time>2026-04-04T13:44:34.832Z</time></trkpt><trkpt lat="44.3185213" lon="11.2720572"><ele>311.0</ele><time>2026-04-04T13:44:35.831Z</time></trkpt><trkpt lat="44.3186295" lon="11.2720907"><ele>311.0</ele><time>2026-04-04T13:44:36.831Z</time></trkpt><trkpt lat="44.3186975" lon="11.2721796"><ele>311.0</ele><time>2026-04-04T13:44:37.832Z</time></trkpt><trkpt lat="44.3187465" lon="11.2723072"><ele>311.0</ele><time>2026-04-04T13:44:38.831Z</time></trkpt><trkpt lat="44.3187768" lon="11.2724678"><ele>311.0</ele><time>2026-04-04T13:44:39.831Z</time></trkpt><trkpt lat="44.3188336" lon="11.2726126"><ele>311.0</ele><time>2026-04-04T13:44:40.832Z</time></trkpt><trkpt lat="44.3189322" lon="11.2727493"><ele>311.75</ele><time>2026-04-04T13:44:41.831Z</time></trkpt><trkpt lat="44.3190484" lon="11.2728427"><ele>312.5</ele><time>2026-04-04T13:44:42.83Z</time></trkpt><trkpt lat="44.3191693" lon="11.272898"><ele>313.25</ele><time>2026-04-04T13:44:43.831Z</time></trkpt><trkpt lat="44.3192812" lon="11.2728925"><ele>314.0</ele><time>2026-04-04T13:44:44.831Z</time></trkpt><trkpt lat="44.3193899" lon="11.2728216"><ele>314.0</ele><time>2026-04-04T13:44:45.832Z</time></trkpt><trkpt lat="44.319495" lon="11.2726974"><ele>314.0</ele><time>2026-04-04T13:44:46.832Z</time></trkpt><trkpt lat="44.3196092" lon="11.2725512"><ele>314.0</ele><time>2026-04-04T13:44:47.832Z</time></trkpt><trkpt lat="44.319738" lon="11.2724172"><ele>314.0</ele><time>2026-04-04T13:44:48.832Z</time></trkpt><trkpt lat="44.3198833" lon="11.2723072"><ele>314.0</ele><time>2026-04-04T13:44:49.831Z</time></trkpt><trkpt lat="44.3200424" lon="11.27223"><ele>314.0</ele><time>2026-04-04T13:44:50.831Z</time></trkpt><trkpt lat="44.3202023" lon="11.2722014"><ele>314.0</ele><time>2026-04-04T13:44:51.831Z</time></trkpt><trkpt lat="44.3203572" lon="11.27223"><ele>314.0</ele><time>2026-04-04T13:44:52.831Z</time></trkpt><trkpt lat="44.3205006" lon="11.2722934"><ele>314.0</ele><time>2026-04-04T13:44:53.831Z</time></trkpt><trkpt lat="44.3206413" lon="11.272316"><ele>314.0</ele><time>2026-04-04T13:44:54.83Z</time></trkpt><trkpt lat="44.3207911" lon="11.2722891"><ele>307.0</ele><time>2026-04-04T13:44:55.83Z</time></trkpt><trkpt lat="44.3209343" lon="11.2722005"><ele>300.0</ele><time>2026-04-04T13:44:56.831Z</time></trkpt><trkpt lat="44.3210637" lon="11.2720654"><ele>293.0</ele><time>2026-04-04T13:44:57.832Z</time></trkpt><trkpt lat="44.3211764" lon="11.2719146"><ele>293.0</ele><time>2026-04-04T13:44:58.831Z</time></trkpt><trkpt lat="44.3212742" lon="11.271772"><ele>293.0</ele><time>2026-04-04T13:44:59.831Z</time></trkpt><trkpt lat="44.3213896" lon="11.2716751"><ele>293.0</ele><time>2026-04-04T13:45:00.831Z</time></trkpt><trkpt lat="44.321532" lon="11.2716075"><ele>293.0</ele><time>2026-04-04T13:45:01.831Z</time></trkpt><trkpt lat="44.321696" lon="11.271565"><ele>297.0</ele><time>2026-04-04T13:45:02.831Z</time></trkpt><trkpt lat="44.3218623" lon="11.2715199"><ele>301.0</ele><time>2026-04-04T13:45:03.831Z</time></trkpt><trkpt lat="44.3220206" lon="11.2714283"><ele>305.0</ele><time>2026-04-04T13:45:04.831Z</time></trkpt><trkpt lat="44.3221752" lon="11.2712851"><ele>300.33333333333337</ele><time>2026-04-04T13:45:05.831Z</time></trkpt><trkpt lat="44.3223191" lon="11.2711175"><ele>295.6666666666667</ele><time>2026-04-04T13:45:06.831Z</time></trkpt><trkpt lat="44.3224426" lon="11.2709473"><ele>291.0</ele><time>2026-04-04T13:45:07.831Z</time></trkpt><trkpt lat="44.322554" lon="11.2707881"><ele>291.0</ele><time>2026-04-04T13:45:08.832Z</time></trkpt><trkpt lat="44.3226757" lon="11.2706727"><ele>291.0</ele><time>2026-04-04T13:45:09.832Z</time></trkpt><trkpt lat="44.3228105" lon="11.2706088"><ele>291.0</ele><time>2026-04-04T13:45:10.831Z</time></trkpt><trkpt lat="44.322941" lon="11.2705623"><ele>291.0</ele><time>2026-04-04T13:45:11.832Z</time></trkpt><trkpt lat="44.3230653" lon="11.2704761"><ele>286.75</ele><time>2026-04-04T13:45:12.832Z</time></trkpt><trkpt lat="44.3231779" lon="11.2703665"><ele>282.5</ele><time>2026-04-04T13:45:13.831Z</time></trkpt><trkpt lat="44.3232825" lon="11.2702571"><ele>278.25</ele><time>2026-04-04T13:45:14.832Z</time></trkpt><trkpt lat="44.3233874" lon="11.2701535"><ele>274.0</ele><time>2026-04-04T13:45:15.831Z</time></trkpt><trkpt lat="44.3234841" lon="11.2700453"><ele>274.0</ele><time>2026-04-04T13:45:16.831Z</time></trkpt><trkpt lat="44.3235642" lon="11.2699184"><ele>274.0</ele><time>2026-04-04T13:45:17.832Z</time></trkpt><trkpt lat="44.3236229" lon="11.2697634"><ele>274.0</ele><time>2026-04-04T13:45:18.831Z</time></trkpt><trkpt lat="44.323666" lon="11.2696044"><ele>274.0</ele><time>2026-04-04T13:45:19.831Z</time></trkpt><trkpt lat="44.323697" lon="11.2694432"><ele>272.2</ele><time>2026-04-04T13:45:20.83Z</time></trkpt><trkpt lat="44.3237118" lon="11.2692744"><ele>270.4</ele><time>2026-04-04T13:45:21.832Z</time></trkpt><trkpt lat="44.3237074" lon="11.2691131"><ele>268.6</ele><time>2026-04-04T13:45:22.83Z</time></trkpt><trkpt lat="44.3236891" lon="11.2689872"><ele>266.8</ele><time>2026-04-04T13:45:23.83Z</time></trkpt><trkpt lat="44.3236552" lon="11.2689006"><ele>265.0</ele><time>2026-04-04T13:45:24.832Z</time></trkpt><trkpt lat="44.3235972" lon="11.2688446"><ele>265.0</ele><time>2026-04-04T13:45:25.832Z</time></trkpt><trkpt lat="44.3235284" lon="11.2688289"><ele>265.0</ele><time>2026-04-04T13:45:26.831Z</time></trkpt><trkpt lat="44.3234456" lon="11.2688622"><ele>265.0</ele><time>2026-04-04T13:45:27.832Z</time></trkpt><trkpt lat="44.3233646" lon="11.2689352"><ele>265.0</ele><time>2026-04-04T13:45:28.832Z</time></trkpt><trkpt lat="44.3232899" lon="11.2690323"><ele>265.0</ele><time>2026-04-04T13:45:29.832Z</time></trkpt><trkpt lat="44.3232236" lon="11.2691356"><ele>265.0</ele><time>2026-04-04T13:45:30.832Z</time></trkpt><trkpt lat="44.3231598" lon="11.269241"><ele>265.0</ele><time>2026-04-04T13:45:31.832Z</time></trkpt><trkpt lat="44.3230925" lon="11.2693418"><ele>265.0</ele><time>2026-04-04T13:45:32.83Z</time></trkpt><trkpt lat="44.3230146" lon="11.2694309"><ele>265.0</ele><time>2026-04-04T13:45:33.83Z</time></trkpt><trkpt lat="44.3229207" lon="11.2694997"><ele>265.0</ele><time>2026-04-04T13:45:34.832Z</time></trkpt><trkpt lat="44.3228216" lon="11.2695493"><ele>263.4285714285714</ele><time>2026-04-04T13:45:35.832Z</time></trkpt><trkpt lat="44.3227292" lon="11.2695892"><ele>261.85714285714283</ele><time>2026-04-04T13:45:36.831Z</time></trkpt><trkpt lat="44.3226477" lon="11.2696111"><ele>260.2857142857143</ele><time>2026-04-04T13:45:37.832Z</time></trkpt><trkpt lat="44.3225786" lon="11.2696054"><ele>258.71428571428567</ele><time>2026-04-04T13:45:38.832Z</time></trkpt><trkpt lat="44.3225282" lon="11.2695504"><ele>257.1428571428571</ele><time>2026-04-04T13:45:39.832Z</time></trkpt><trkpt lat="44.3225086" lon="11.2694665"><ele>255.57142857142858</ele><time>2026-04-04T13:45:40.832Z</time></trkpt><trkpt lat="44.3225312" lon="11.269377"><ele>254.0</ele><time>2026-04-04T13:45:41.831Z</time></trkpt><trkpt lat="44.3225868" lon="11.269291"><ele>254.0</ele><time>2026-04-04T13:45:42.831Z</time></trkpt><trkpt lat="44.3226648" lon="11.2691996"><ele>253.99999999999997</ele><time>2026-04-04T13:45:43.831Z</time></trkpt><trkpt lat="44.3227522" lon="11.2691017"><ele>253.99999999999997</ele><time>2026-04-04T13:45:44.832Z</time></trkpt><trkpt lat="44.3228349" lon="11.2689879"><ele>254.0</ele><time>2026-04-04T13:45:45.831Z</time></trkpt><trkpt lat="44.3229015" lon="11.2688509"><ele>254.0</ele><time>2026-04-04T13:45:46.831Z</time></trkpt><trkpt lat="44.3229465" lon="11.2686998"><ele>253.5</ele><time>2026-04-04T13:45:47.831Z</time></trkpt><trkpt lat="44.3229772" lon="11.2685466"><ele>253.0</ele><time>2026-04-04T13:45:48.83Z</time></trkpt><trkpt lat="44.3230126" lon="11.2683956"><ele>252.5</ele><time>2026-04-04T13:45:49.831Z</time></trkpt><trkpt lat="44.3230702" lon="11.2682593"><ele>252.0</ele><time>2026-04-04T13:45:50.832Z</time></trkpt><trkpt lat="44.3231524" lon="11.2681286"><ele>247.5</ele><time>2026-04-04T13:45:51.832Z</time></trkpt><trkpt lat="44.3232536" lon="11.268009"><ele>243.0</ele><time>2026-04-04T13:45:52.832Z</time></trkpt><trkpt lat="44.3233658" lon="11.267903"><ele>238.5</ele><time>2026-04-04T13:45:53.832Z</time></trkpt><trkpt lat="44.3234721" lon="11.2678008"><ele>234.0</ele><time>2026-04-04T13:45:54.832Z</time></trkpt><trkpt lat="44.3235891" lon="11.2676931"><ele>234.0</ele><time>2026-04-04T13:45:55.832Z</time></trkpt><trkpt lat="44.3236976" lon="11.2675885"><ele>234.0</ele><time>2026-04-04T13:45:56.832Z</time></trkpt><trkpt lat="44.32381" lon="11.2675029"><ele>234.0</ele><time>2026-04-04T13:45:57.831Z</time></trkpt><trkpt lat="44.3239295" lon="11.2674717"><ele>234.0</ele><time>2026-04-04T13:45:58.831Z</time></trkpt><trkpt lat="44.3240593" lon="11.2674965"><ele>231.5</ele><time>2026-04-04T13:45:59.832Z</time></trkpt><trkpt lat="44.3241868" lon="11.2675133"><ele>229.0</ele><time>2026-04-04T13:46:00.832Z</time></trkpt><trkpt lat="44.3243276" lon="11.2674763"><ele>226.5</ele><time>2026-04-04T13:46:01.831Z</time></trkpt><trkpt lat="44.3244686" lon="11.2673815"><ele>224.0</ele><time>2026-04-04T13:46:02.831Z</time></trkpt><trkpt lat="44.3246016" lon="11.2672376"><ele>221.75</ele><time>2026-04-04T13:46:03.832Z</time></trkpt><trkpt lat="44.3247117" lon="11.2670943"><ele>219.5</ele><time>2026-04-04T13:46:04.83Z</time></trkpt><trkpt lat="44.3247994" lon="11.2669542"><ele>217.25</ele><time>2026-04-04T13:46:05.831Z</time></trkpt><trkpt lat="44.3248494" lon="11.2668145"><ele>215.0</ele><time>2026-04-04T13:46:06.831Z</time></trkpt><trkpt lat="44.324852" lon="11.2666664"><ele>212.75</ele><time>2026-04-04T13:46:07.831Z</time></trkpt><trkpt lat="44.3248095" lon="11.2665299"><ele>210.5</ele><time>2026-04-04T13:46:08.831Z</time></trkpt><trkpt lat="44.3247269" lon="11.2663872"><ele>208.25</ele><time>2026-04-04T13:46:09.832Z</time></trkpt><trkpt lat="44.3246089" lon="11.2662338"><ele>206.0</ele><time>2026-04-04T13:46:10.83Z</time></trkpt><trkpt lat="44.3244662" lon="11.2660677"><ele>206.0</ele><time>2026-04-04T13:46:11.832Z</time></trkpt><trkpt lat="44.3243088" lon="11.2658839"><ele>206.0</ele><time>2026-04-04T13:46:12.831Z</time></trkpt><trkpt lat="44.3241517" lon="11.2657001"><ele>206.0</ele><time>2026-04-04T13:46:13.83Z</time></trkpt><trkpt lat="44.323998" lon="11.265525"><ele>204.0</ele><time>2026-04-04T13:46:14.83Z</time></trkpt><trkpt lat="44.3238755" lon="11.2653491"><ele>202.0</ele><time>2026-04-04T13:46:15.831Z</time></trkpt><trkpt lat="44.3237961" lon="11.2651595"><ele>200.0</ele><time>2026-04-04T13:46:16.831Z</time></trkpt><trkpt lat="44.3237506" lon="11.2649587"><ele>200.0</ele><time>2026-04-04T13:46:17.831Z</time></trkpt><trkpt lat="44.3237417" lon="11.2647895"><ele>200.0</ele><time>2026-04-04T13:46:18.831Z</time></trkpt><trkpt lat="44.3237744" lon="11.2646449"><ele>200.0</ele><time>2026-04-04T13:46:19.831Z</time></trkpt><trkpt lat="44.3238438" lon="11.2645356"><ele>200.0</ele><time>2026-04-04T13:46:20.831Z</time></trkpt><trkpt lat="44.3239416" lon="11.2644608"><ele>200.0</ele><time>2026-04-04T13:46:21.829Z</time></trkpt><trkpt lat="44.3240518" lon="11.264447"><ele>199.5</ele><time>2026-04-04T13:46:22.83Z</time></trkpt><trkpt lat="44.3241601" lon="11.2644941"><ele>199.0</ele><time>2026-04-04T13:46:23.831Z</time></trkpt><trkpt lat="44.3242563" lon="11.2646002"><ele>198.5</ele><time>2026-04-04T13:46:24.831Z</time></trkpt><trkpt lat="44.3243671" lon="11.2647488"><ele>198.0</ele><time>2026-04-04T13:46:25.831Z</time></trkpt><trkpt lat="44.3244969" lon="11.2649208"><ele>198.0</ele><time>2026-04-04T13:46:26.831Z</time></trkpt><trkpt lat="44.3246504" lon="11.2651159"><ele>198.0</ele><time>2026-04-04T13:46:27.831Z</time></trkpt><trkpt lat="44.3248025" lon="11.2653079"><ele>198.0</ele><time>2026-04-04T13:46:28.831Z</time></trkpt><trkpt lat="44.3249499" lon="11.2654818"><ele>197.33333333333331</ele><time>2026-04-04T13:46:29.831Z</time></trkpt><trkpt lat="44.3250899" lon="11.2656357"><ele>196.66666666666666</ele><time>2026-04-04T13:46:30.831Z</time></trkpt><trkpt lat="44.3252214" lon="11.2657699"><ele>196.0</ele><time>2026-04-04T13:46:31.831Z</time></trkpt><trkpt lat="44.3253736" lon="11.2659002"><ele>196.0</ele><time>2026-04-04T13:46:32.83Z</time></trkpt><trkpt lat="44.3255317" lon="11.2660177"><ele>196.0</ele><time>2026-04-04T13:46:33.83Z</time></trkpt><trkpt lat="44.3256848" lon="11.2660859"><ele>196.0</ele><time>2026-04-04T13:46:34.831Z</time></trkpt><trkpt lat="44.3258384" lon="11.2660925"><ele>192.5</ele><time>2026-04-04T13:46:35.83Z</time></trkpt><trkpt lat="44.3259795" lon="11.2660535"><ele>189.0</ele><time>2026-04-04T13:46:36.831Z</time></trkpt><trkpt lat="44.3261186" lon="11.2660691"><ele>185.5</ele><time>2026-04-04T13:46:37.83Z</time></trkpt><trkpt lat="44.3262345" lon="11.2661446"><ele>182.0</ele><time>2026-04-04T13:46:38.83Z</time></trkpt><trkpt lat="44.326338" lon="11.2662272"><ele>179.8</ele><time>2026-04-04T13:46:39.83Z</time></trkpt><trkpt lat="44.3264511" lon="11.2662455"><ele>177.6</ele><time>2026-04-04T13:46:40.831Z</time></trkpt><trkpt lat="44.326546" lon="11.2661991"><ele>175.4</ele><time>2026-04-04T13:46:41.829Z</time></trkpt><trkpt lat="44.3266064" lon="11.2660973"><ele>173.20000000000002</ele><time>2026-04-04T13:46:42.831Z</time></trkpt><trkpt lat="44.3266136" lon="11.2659783"><ele>171.0</ele><time>2026-04-04T13:46:43.831Z</time></trkpt><trkpt lat="44.3265728" lon="11.2658583"><ele>171.0</ele><time>2026-04-04T13:46:44.831Z</time></trkpt><trkpt lat="44.3264912" lon="11.2657412"><ele>171.0</ele><time>2026-04-04T13:46:45.829Z</time></trkpt><trkpt lat="44.3263728" lon="11.2656135"><ele>171.0</ele><time>2026-04-04T13:46:46.831Z</time></trkpt><trkpt lat="44.326242" lon="11.265472"><ele>171.0</ele><time>2026-04-04T13:46:47.831Z</time></trkpt><trkpt lat="44.3261182" lon="11.2653612"><ele>171.20000000000002</ele><time>2026-04-04T13:46:48.831Z</time></trkpt><trkpt lat="44.3259994" lon="11.2652638"><ele>171.4</ele><time>2026-04-04T13:46:49.83Z</time></trkpt><trkpt lat="44.3259053" lon="11.2651519"><ele>171.6</ele><time>2026-04-04T13:46:50.83Z</time></trkpt><trkpt lat="44.3259015" lon="11.2650217"><ele>171.8</ele><time>2026-04-04T13:46:51.83Z</time></trkpt><trkpt lat="44.3259164" lon="11.2648961"><ele>172.0</ele><time>2026-04-04T13:46:52.83Z</time></trkpt><trkpt lat="44.3259395" lon="11.2647584"><ele>172.0</ele><time>2026-04-04T13:46:53.83Z</time></trkpt><trkpt lat="44.3260006" lon="11.2646094"><ele>172.0</ele><time>2026-04-04T13:46:54.83Z</time></trkpt><trkpt lat="44.326068" lon="11.2645035"><ele>172.0</ele><time>2026-04-04T13:46:55.83Z</time></trkpt><trkpt lat="44.3260951" lon="11.2643429"><ele>172.0</ele><time>2026-04-04T13:46:56.83Z</time></trkpt><trkpt lat="44.3260982" lon="11.264166"><ele>172.0</ele><time>2026-04-04T13:46:57.831Z</time></trkpt><trkpt lat="44.326126" lon="11.2639866"><ele>172.0</ele><time>2026-04-04T13:46:58.831Z</time></trkpt><trkpt lat="44.3261876" lon="11.2638008"><ele>172.0</ele><time>2026-04-04T13:46:59.83Z</time></trkpt><trkpt lat="44.3262403" lon="11.2636361"><ele>172.0</ele><time>2026-04-04T13:47:00.829Z</time></trkpt><trkpt lat="44.3262411" lon="11.2634676"><ele>171.16666666666669</ele><time>2026-04-04T13:47:01.831Z</time></trkpt><trkpt lat="44.3262129" lon="11.2633249"><ele>170.33333333333334</ele><time>2026-04-04T13:47:02.831Z</time></trkpt><trkpt lat="44.3262136" lon="11.2632105"><ele>169.5</ele><time>2026-04-04T13:47:03.83Z</time></trkpt><trkpt lat="44.3262589" lon="11.263126"><ele>168.66666666666666</ele><time>2026-04-04T13:47:04.83Z</time></trkpt><trkpt lat="44.3263319" lon="11.2630941"><ele>167.83333333333331</ele><time>2026-04-04T13:47:05.831Z</time></trkpt><trkpt lat="44.3264339" lon="11.2630968"><ele>167.0</ele><time>2026-04-04T13:47:06.83Z</time></trkpt><trkpt lat="44.3265449" lon="11.2630937"><ele>164.66666666666666</ele><time>2026-04-04T13:47:07.831Z</time></trkpt><trkpt lat="44.3266323" lon="11.2630697"><ele>162.33333333333331</ele><time>2026-04-04T13:47:08.831Z</time></trkpt><trkpt lat="44.3267078" lon="11.2630505"><ele>160.0</ele><time>2026-04-04T13:47:09.831Z</time></trkpt><trkpt lat="44.3268088" lon="11.2630789"><ele>157.66666666666666</ele><time>2026-04-04T13:47:11.829Z</time></trkpt><trkpt lat="44.3268601" lon="11.2631466"><ele>155.33333333333334</ele><time>2026-04-04T13:47:12.83Z</time></trkpt><trkpt lat="44.3269127" lon="11.2632526"><ele>153.0</ele><time>2026-04-04T13:47:13.831Z</time></trkpt><trkpt lat="44.3269659" lon="11.2633678"><ele>153.0</ele><time>2026-04-04T13:47:14.83Z</time></trkpt><trkpt lat="44.3270121" lon="11.2634659"><ele>153.0</ele><time>2026-04-04T13:47:15.831Z</time></trkpt><trkpt lat="44.3270527" lon="11.2635444"><ele>153.0</ele><time>2026-04-04T13:47:16.83Z</time></trkpt><trkpt lat="44.3271105" lon="11.2635962"><ele>153.0</ele><time>2026-04-04T13:47:17.83Z</time></trkpt><trkpt lat="44.3271952" lon="11.2636316"><ele>153.0</ele><time>2026-04-04T13:47:18.831Z</time></trkpt><trkpt lat="44.3272942" lon="11.2636636"><ele>153.0</ele><time>2026-04-04T13:47:19.83Z</time></trkpt><trkpt lat="44.3273872" lon="11.2637286"><ele>151.5</ele><time>2026-04-04T13:47:20.831Z</time></trkpt><trkpt lat="44.3274704" lon="11.2638473"><ele>150.0</ele><time>2026-04-04T13:47:21.831Z</time></trkpt><trkpt lat="44.3275559" lon="11.2640085"><ele>148.5</ele><time>2026-04-04T13:47:22.831Z</time></trkpt><trkpt lat="44.3276495" lon="11.2642061"><ele>147.0</ele><time>2026-04-04T13:47:23.831Z</time></trkpt><trkpt lat="44.3277597" lon="11.264434"><ele>147.0</ele><time>2026-04-04T13:47:24.831Z</time></trkpt><trkpt lat="44.3278822" lon="11.2646921"><ele>147.0</ele><time>2026-04-04T13:47:25.831Z</time></trkpt><trkpt lat="44.3280111" lon="11.2649664"><ele>147.5</ele><time>2026-04-04T13:47:26.831Z</time></trkpt><trkpt lat="44.3281486" lon="11.2652582"><ele>148.0</ele><time>2026-04-04T13:47:27.831Z</time></trkpt><trkpt lat="44.3282922" lon="11.2655647"><ele>148.5</ele><time>2026-04-04T13:47:28.831Z</time></trkpt><trkpt lat="44.328445" lon="11.2658828"><ele>149.0</ele><time>2026-04-04T13:47:29.831Z</time></trkpt><trkpt lat="44.3286016" lon="11.2662131"><ele>147.5</ele><time>2026-04-04T13:47:30.831Z</time></trkpt><trkpt lat="44.3287627" lon="11.266556"><ele>146.0</ele><time>2026-04-04T13:47:31.831Z</time></trkpt><trkpt lat="44.3289269" lon="11.266906"><ele>146.0</ele><time>2026-04-04T13:47:32.83Z</time></trkpt><trkpt lat="44.3290978" lon="11.267262"><ele>146.0</ele><time>2026-04-04T13:47:33.829Z</time></trkpt><trkpt lat="44.3292683" lon="11.2676228"><ele>150.0</ele><time>2026-04-04T13:47:34.83Z</time></trkpt><trkpt lat="44.3294339" lon="11.2679746"><ele>154.0</ele><time>2026-04-04T13:47:35.831Z</time></trkpt><trkpt lat="44.3295871" lon="11.2682971"><ele>148.5</ele><time>2026-04-04T13:47:36.831Z</time></trkpt><trkpt lat="44.3297357" lon="11.2685915"><ele>143.0</ele><time>2026-04-04T13:47:37.83Z</time></trkpt><trkpt lat="44.3298922" lon="11.2688539"><ele>145.5</ele><time>2026-04-04T13:47:38.831Z</time></trkpt><trkpt lat="44.3300687" lon="11.2691009"><ele>148.0</ele><time>2026-04-04T13:47:39.831Z</time></trkpt><trkpt lat="44.3302593" lon="11.269329"><ele>148.0</ele><time>2026-04-04T13:47:40.83Z</time></trkpt><trkpt lat="44.3304643" lon="11.2695312"><ele>148.0</ele><time>2026-04-04T13:47:41.829Z</time></trkpt><trkpt lat="44.3306857" lon="11.2697133"><ele>149.0</ele><time>2026-04-04T13:47:42.83Z</time></trkpt><trkpt lat="44.330919" lon="11.2698668"><ele>150.0</ele><time>2026-04-04T13:47:43.83Z</time></trkpt><trkpt lat="44.3311648" lon="11.2699926"><ele>148.0</ele><time>2026-04-04T13:47:44.831Z</time></trkpt><trkpt lat="44.331421" lon="11.2700815"><ele>146.0</ele><time>2026-04-04T13:47:45.83Z</time></trkpt><trkpt lat="44.3316794" lon="11.2701352"><ele>146.0</ele><time>2026-04-04T13:47:46.83Z</time></trkpt><trkpt lat="44.3319376" lon="11.2701522"><ele>146.0</ele><time>2026-04-04T13:47:47.831Z</time></trkpt><trkpt lat="44.3322026" lon="11.2701327"><ele>147.0</ele><time>2026-04-04T13:47:48.831Z</time></trkpt><trkpt lat="44.3324749" lon="11.2700829"><ele>148.0</ele><time>2026-04-04T13:47:49.83Z</time></trkpt><trkpt lat="44.3327505" lon="11.2700058"><ele>148.0</ele><time>2026-04-04T13:47:50.831Z</time></trkpt><trkpt lat="44.333031" lon="11.2699143"><ele>148.0</ele><time>2026-04-04T13:47:51.831Z</time></trkpt><trkpt lat="44.3333127" lon="11.2698245"><ele>142.5</ele><time>2026-04-04T13:47:52.83Z</time></trkpt><trkpt lat="44.3335745" lon="11.2697441"><ele>137.0</ele><time>2026-04-04T13:47:53.83Z</time></trkpt><trkpt lat="44.3338126" lon="11.2696623"><ele>137.66666666666666</ele><time>2026-04-04T13:47:54.83Z</time></trkpt><trkpt lat="44.3340183" lon="11.269592"><ele>138.33333333333334</ele><time>2026-04-04T13:47:55.831Z</time></trkpt><trkpt lat="44.3341814" lon="11.2695427"><ele>139.0</ele><time>2026-04-04T13:47:56.831Z</time></trkpt><trkpt lat="44.3343245" lon="11.2695419"><ele>139.0</ele><time>2026-04-04T13:47:57.83Z</time></trkpt><trkpt lat="44.3344789" lon="11.2695866"><ele>139.0</ele><time>2026-04-04T13:47:58.83Z</time></trkpt><trkpt lat="44.3346473" lon="11.269605"><ele>139.0</ele><time>2026-04-04T13:47:59.831Z</time></trkpt><trkpt lat="44.3348362" lon="11.2695884"><ele>140.0</ele><time>2026-04-04T13:48:00.831Z</time></trkpt><trkpt lat="44.3350407" lon="11.2695699"><ele>141.0</ele><time>2026-04-04T13:48:01.83Z</time></trkpt><trkpt lat="44.3352616" lon="11.2695555"><ele>142.0</ele><time>2026-04-04T13:48:02.829Z</time></trkpt><trkpt lat="44.3354976" lon="11.2695385"><ele>142.0</ele><time>2026-04-04T13:48:03.831Z</time></trkpt><trkpt lat="44.3357445" lon="11.2694978"><ele>142.0</ele><time>2026-04-04T13:48:04.831Z</time></trkpt><trkpt lat="44.3360025" lon="11.2694284"><ele>142.0</ele><time>2026-04-04T13:48:05.83Z</time></trkpt><trkpt lat="44.3362644" lon="11.2693269"><ele>142.0</ele><time>2026-04-04T13:48:06.83Z</time></trkpt><trkpt lat="44.336528" lon="11.2692035"><ele>142.0</ele><time>2026-04-04T13:48:07.83Z</time></trkpt><trkpt lat="44.3367917" lon="11.2690669"><ele>142.0</ele><time>2026-04-04T13:48:08.83Z</time></trkpt><trkpt lat="44.3370539" lon="11.2689275"><ele>140.5</ele><time>2026-04-04T13:48:09.829Z</time></trkpt><trkpt lat="44.3373012" lon="11.2687952"><ele>139.0</ele><time>2026-04-04T13:48:10.83Z</time></trkpt><trkpt lat="44.3375332" lon="11.2686757"><ele>139.0</ele><time>2026-04-04T13:48:11.831Z</time></trkpt><trkpt lat="44.3377599" lon="11.268569"><ele>139.0</ele><time>2026-04-04T13:48:12.83Z</time></trkpt><trkpt lat="44.3379785" lon="11.2684771"><ele>140.33333333333334</ele><time>2026-04-04T13:48:13.83Z</time></trkpt><trkpt lat="44.3381873" lon="11.2683961"><ele>141.66666666666666</ele><time>2026-04-04T13:48:14.83Z</time></trkpt><trkpt lat="44.3383987" lon="11.2683302"><ele>143.0</ele><time>2026-04-04T13:48:15.831Z</time></trkpt><trkpt lat="44.3386151" lon="11.268289"><ele>143.0</ele><time>2026-04-04T13:48:16.831Z</time></trkpt><trkpt lat="44.3388343" lon="11.268261"><ele>143.0</ele><time>2026-04-04T13:48:17.831Z</time></trkpt><trkpt lat="44.3390535" lon="11.268239"><ele>143.0</ele><time>2026-04-04T13:48:18.83Z</time></trkpt><trkpt lat="44.33927" lon="11.2682286"><ele>143.0</ele><time>2026-04-04T13:48:19.83Z</time></trkpt><trkpt lat="44.3394823" lon="11.2682374"><ele>143.0</ele><time>2026-04-04T13:48:20.83Z</time></trkpt><trkpt lat="44.3396929" lon="11.2682791"><ele>143.0</ele><time>2026-04-04T13:48:21.831Z</time></trkpt><trkpt lat="44.3399062" lon="11.2683547"><ele>140.5</ele><time>2026-04-04T13:48:22.83Z</time></trkpt><trkpt lat="44.3401225" lon="11.2684549"><ele>138.0</ele><time>2026-04-04T13:48:23.831Z</time></trkpt><trkpt lat="44.340341" lon="11.2685626"><ele>136.0</ele><time>2026-04-04T13:48:24.83Z</time></trkpt><trkpt lat="44.3405692" lon="11.2686683"><ele>134.0</ele><time>2026-04-04T13:48:25.83Z</time></trkpt><trkpt lat="44.3408106" lon="11.2687621"><ele>134.0</ele><time>2026-04-04T13:48:26.829Z</time></trkpt><trkpt lat="44.3410652" lon="11.2688411"><ele>134.0</ele><time>2026-04-04T13:48:27.83Z</time></trkpt><trkpt lat="44.3413268" lon="11.2689042"><ele>133.5</ele><time>2026-04-04T13:48:28.83Z</time></trkpt><trkpt lat="44.3416046" lon="11.2689549"><ele>133.0</ele><time>2026-04-04T13:48:29.829Z</time></trkpt><trkpt lat="44.3418867" lon="11.2689888"><ele>133.0</ele><time>2026-04-04T13:48:30.831Z</time></trkpt><trkpt lat="44.3421758" lon="11.2690071"><ele>133.0</ele><time>2026-04-04T13:48:31.831Z</time></trkpt><trkpt lat="44.342474" lon="11.2690051"><ele>132.5</ele><time>2026-04-04T13:48:32.83Z</time></trkpt><trkpt lat="44.3427723" lon="11.2689908"><ele>132.0</ele><time>2026-04-04T13:48:33.831Z</time></trkpt><trkpt lat="44.343076" lon="11.2689599"><ele>131.0</ele><time>2026-04-04T13:48:34.83Z</time></trkpt><trkpt lat="44.343384" lon="11.2689182"><ele>130.0</ele><time>2026-04-04T13:48:35.83Z</time></trkpt><trkpt lat="44.3436912" lon="11.2688753"><ele>130.0</ele><time>2026-04-04T13:48:36.831Z</time></trkpt><trkpt lat="44.3440047" lon="11.268829"><ele>130.0</ele><time>2026-04-04T13:48:37.831Z</time></trkpt><trkpt lat="44.3443205" lon="11.2687791"><ele>130.0</ele><time>2026-04-04T13:48:38.829Z</time></trkpt><trkpt lat="44.3446401" lon="11.2687339"><ele>130.0</ele><time>2026-04-04T13:48:39.831Z</time></trkpt><trkpt lat="44.3449616" lon="11.2686886"><ele>130.0</ele><time>2026-04-04T13:48:40.831Z</time></trkpt><trkpt lat="44.3452885" lon="11.2686468"><ele>130.0</ele><time>2026-04-04T13:48:41.83Z</time></trkpt><trkpt lat="44.345617" lon="11.2686069"><ele>129.5</ele><time>2026-04-04T13:48:42.83Z</time></trkpt><trkpt lat="44.3459463" lon="11.2685694"><ele>129.0</ele><time>2026-04-04T13:48:43.831Z</time></trkpt><trkpt lat="44.3462796" lon="11.2685284"><ele>129.5</ele><time>2026-04-04T13:48:44.83Z</time></trkpt><trkpt lat="44.3466147" lon="11.2684794"><ele>130.0</ele><time>2026-04-04T13:48:45.83Z</time></trkpt><trkpt lat="44.3469486" lon="11.2684232"><ele>130.5</ele><time>2026-04-04T13:48:46.831Z</time></trkpt><trkpt lat="44.3472815" lon="11.2683681"><ele>131.0</ele><time>2026-04-04T13:48:47.831Z</time></trkpt><trkpt lat="44.3476151" lon="11.2683143"><ele>131.0</ele><time>2026-04-04T13:48:48.83Z</time></trkpt><trkpt lat="44.3479475" lon="11.2682598"><ele>131.0</ele><time>2026-04-04T13:48:49.831Z</time></trkpt><trkpt lat="44.3482825" lon="11.2681984"><ele>128.5</ele><time>2026-04-04T13:48:50.829Z</time></trkpt><trkpt lat="44.3486156" lon="11.2681282"><ele>126.0</ele><time>2026-04-04T13:48:51.831Z</time></trkpt><trkpt lat="44.348947" lon="11.2680489"><ele>126.0</ele><time>2026-04-04T13:48:52.831Z</time></trkpt><trkpt lat="44.3492773" lon="11.2679622"><ele>126.0</ele><time>2026-04-04T13:48:53.831Z</time></trkpt><trkpt lat="44.3496075" lon="11.2678735"><ele>126.5</ele><time>2026-04-04T13:48:54.83Z</time></trkpt><trkpt lat="44.3499142" lon="11.2677917"><ele>127.0</ele><time>2026-04-04T13:48:55.831Z</time></trkpt><trkpt lat="44.3501911" lon="11.2677121"><ele>127.0</ele><time>2026-04-04T13:48:56.831Z</time></trkpt><trkpt lat="44.3504331" lon="11.2676276"><ele>127.0</ele><time>2026-04-04T13:48:57.83Z</time></trkpt><trkpt lat="44.350648" lon="11.2675277"><ele>126.66666666666667</ele><time>2026-04-04T13:48:58.83Z</time></trkpt><trkpt lat="44.3508464" lon="11.2674076"><ele>126.33333333333334</ele><time>2026-04-04T13:48:59.83Z</time></trkpt><trkpt lat="44.3510397" lon="11.2672683"><ele>126.0</ele><time>2026-04-04T13:49:00.83Z</time></trkpt><trkpt lat="44.3512323" lon="11.2671356"><ele>127.0</ele><time>2026-04-04T13:49:01.83Z</time></trkpt><trkpt lat="44.351436" lon="11.2670191"><ele>128.0</ele><time>2026-04-04T13:49:02.83Z</time></trkpt><trkpt lat="44.351663" lon="11.2669249"><ele>128.0</ele><time>2026-04-04T13:49:03.831Z</time></trkpt><trkpt lat="44.3519028" lon="11.2668575"><ele>128.0</ele><time>2026-04-04T13:49:04.831Z</time></trkpt><trkpt lat="44.3521515" lon="11.2667979"><ele>130.0</ele><time>2026-04-04T13:49:05.831Z</time></trkpt><trkpt lat="44.3524125" lon="11.26672"><ele>132.0</ele><time>2026-04-04T13:49:06.831Z</time></trkpt><trkpt lat="44.3526763" lon="11.2666189"><ele>132.0</ele><time>2026-04-04T13:49:07.83Z</time></trkpt><trkpt lat="44.3529439" lon="11.2665001"><ele>132.0</ele><time>2026-04-04T13:49:08.83Z</time></trkpt><trkpt lat="44.353214" lon="11.2663663"><ele>127.5</ele><time>2026-04-04T13:49:09.83Z</time></trkpt><trkpt lat="44.3534885" lon="11.2662226"><ele>123.0</ele><time>2026-04-04T13:49:10.829Z</time></trkpt><trkpt lat="44.3537736" lon="11.2660961"><ele>122.0</ele><time>2026-04-04T13:49:11.829Z</time></trkpt><trkpt lat="44.3540632" lon="11.2659667"><ele>121.0</ele><time>2026-04-04T13:49:12.83Z</time></trkpt><trkpt lat="44.3543531" lon="11.2658144"><ele>121.0</ele><time>2026-04-04T13:49:13.829Z</time></trkpt><trkpt lat="44.3546462" lon="11.2656587"><ele>121.0</ele><time>2026-04-04T13:49:14.831Z</time></trkpt><trkpt lat="44.3549429" lon="11.2654979"><ele>121.0</ele><time>2026-04-04T13:49:15.831Z</time></trkpt><trkpt lat="44.3552434" lon="11.2653394"><ele>121.0</ele><time>2026-04-04T13:49:16.831Z</time></trkpt><trkpt lat="44.3555463" lon="11.2651838"><ele>121.0</ele><time>2026-04-04T13:49:17.83Z</time></trkpt><trkpt lat="44.3558491" lon="11.2650282"><ele>121.0</ele><time>2026-04-04T13:49:18.831Z</time></trkpt><trkpt lat="44.3561555" lon="11.264872"><ele>119.5</ele><time>2026-04-04T13:49:19.83Z</time></trkpt><trkpt lat="44.3564624" lon="11.2647114"><ele>118.0</ele><time>2026-04-04T13:49:20.83Z</time></trkpt><trkpt lat="44.3567693" lon="11.2645499"><ele>118.0</ele><time>2026-04-04T13:49:21.831Z</time></trkpt><trkpt lat="44.3570772" lon="11.2643859"><ele>118.0</ele><time>2026-04-04T13:49:22.83Z</time></trkpt><trkpt lat="44.3573749" lon="11.2642228"><ele>122.0</ele><time>2026-04-04T13:49:23.831Z</time></trkpt><trkpt lat="44.3576415" lon="11.2640789"><ele>126.0</ele><time>2026-04-04T13:49:24.83Z</time></trkpt><trkpt lat="44.357886" lon="11.2639528"><ele>124.0</ele><time>2026-04-04T13:49:25.83Z</time></trkpt><trkpt lat="44.3581059" lon="11.2638439"><ele>122.0</ele><time>2026-04-04T13:49:26.829Z</time></trkpt><trkpt lat="44.3582991" lon="11.2637474"><ele>120.0</ele><time>2026-04-04T13:49:27.83Z</time></trkpt><trkpt lat="44.3584657" lon="11.2636651"><ele>120.0</ele><time>2026-04-04T13:49:28.83Z</time></trkpt><trkpt lat="44.3586095" lon="11.2635968"><ele>120.0</ele><time>2026-04-04T13:49:29.828Z</time></trkpt><trkpt lat="44.3587527" lon="11.2635414"><ele>120.0</ele><time>2026-04-04T13:49:30.829Z</time></trkpt><trkpt lat="44.3589062" lon="11.2635059"><ele>120.33333333333334</ele><time>2026-04-04T13:49:31.829Z</time></trkpt><trkpt lat="44.3590719" lon="11.2634894"><ele>120.66666666666667</ele><time>2026-04-04T13:49:32.829Z</time></trkpt><trkpt lat="44.3592451" lon="11.2634821"><ele>121.0</ele><time>2026-04-04T13:49:33.829Z</time></trkpt><trkpt lat="44.3594205" lon="11.2634809"><ele>121.0</ele><time>2026-04-04T13:49:34.829Z</time></trkpt><trkpt lat="44.3596003" lon="11.2634853"><ele>121.0</ele><time>2026-04-04T13:49:35.828Z</time></trkpt><trkpt lat="44.3597912" lon="11.2634985"><ele>121.0</ele><time>2026-04-04T13:49:36.829Z</time></trkpt><trkpt lat="44.3599963" lon="11.2635195"><ele>120.33333333333334</ele><time>2026-04-04T13:49:37.828Z</time></trkpt><trkpt lat="44.3602066" lon="11.2635407"><ele>119.66666666666666</ele><time>2026-04-04T13:49:38.829Z</time></trkpt><trkpt lat="44.3604092" lon="11.2635573"><ele>119.0</ele><time>2026-04-04T13:49:39.829Z</time></trkpt><trkpt lat="44.360614" lon="11.2635717"><ele>118.66666666666666</ele><time>2026-04-04T13:49:40.828Z</time></trkpt><trkpt lat="44.3608153" lon="11.2635853"><ele>118.33333333333334</ele><time>2026-04-04T13:49:41.829Z</time></trkpt><trkpt lat="44.3610102" lon="11.2635839"><ele>118.0</ele><time>2026-04-04T13:49:42.828Z</time></trkpt><trkpt lat="44.3611908" lon="11.2635485"><ele>118.0</ele><time>2026-04-04T13:49:43.828Z</time></trkpt><trkpt lat="44.361358" lon="11.2634816"><ele>118.0</ele><time>2026-04-04T13:49:44.829Z</time></trkpt><trkpt lat="44.3615155" lon="11.2633855"><ele>118.0</ele><time>2026-04-04T13:49:45.829Z</time></trkpt><trkpt lat="44.3616599" lon="11.2632737"><ele>118.66666666666667</ele><time>2026-04-04T13:49:46.828Z</time></trkpt><trkpt lat="44.361802" lon="11.2631738"><ele>119.33333333333334</ele><time>2026-04-04T13:49:47.83Z</time></trkpt><trkpt lat="44.3619496" lon="11.2630946"><ele>120.0</ele><time>2026-04-04T13:49:48.83Z</time></trkpt><trkpt lat="44.3620956" lon="11.2630283"><ele>119.25</ele><time>2026-04-04T13:49:49.83Z</time></trkpt><trkpt lat="44.3622392" lon="11.2629682"><ele>118.5</ele><time>2026-04-04T13:49:50.83Z</time></trkpt><trkpt lat="44.3623846" lon="11.26292"><ele>117.75</ele><time>2026-04-04T13:49:51.83Z</time></trkpt><trkpt lat="44.362528" lon="11.2628832"><ele>117.0</ele><time>2026-04-04T13:49:52.83Z</time></trkpt><trkpt lat="44.36267" lon="11.2628512"><ele>117.0</ele><time>2026-04-04T13:49:53.83Z</time></trkpt><trkpt lat="44.362816" lon="11.2628113"><ele>117.0</ele><time>2026-04-04T13:49:54.83Z</time></trkpt><trkpt lat="44.3629694" lon="11.2627671"><ele>117.0</ele><time>2026-04-04T13:49:55.828Z</time></trkpt><trkpt lat="44.3631312" lon="11.2627183"><ele>118.0</ele><time>2026-04-04T13:49:56.829Z</time></trkpt><trkpt lat="44.3632856" lon="11.2626745"><ele>119.0</ele><time>2026-04-04T13:49:57.828Z</time></trkpt><trkpt lat="44.3634317" lon="11.2626309"><ele>120.0</ele><time>2026-04-04T13:49:58.828Z</time></trkpt><trkpt lat="44.3635801" lon="11.262592"><ele>120.0</ele><time>2026-04-04T13:49:59.829Z</time></trkpt><trkpt lat="44.3637267" lon="11.2625518"><ele>120.0</ele><time>2026-04-04T13:50:00.829Z</time></trkpt><trkpt lat="44.3638658" lon="11.2624849"><ele>120.0</ele><time>2026-04-04T13:50:01.829Z</time></trkpt><trkpt lat="44.3639936" lon="11.2623696"><ele>120.0</ele><time>2026-04-04T13:50:02.829Z</time></trkpt><trkpt lat="44.3641097" lon="11.2622261"><ele>118.33333333333334</ele><time>2026-04-04T13:50:03.83Z</time></trkpt><trkpt lat="44.3642217" lon="11.2620891"><ele>116.66666666666667</ele><time>2026-04-04T13:50:04.829Z</time></trkpt><trkpt lat="44.3643442" lon="11.2619645"><ele>115.0</ele><time>2026-04-04T13:50:05.83Z</time></trkpt><trkpt lat="44.3644793" lon="11.2618617"><ele>115.0</ele><time>2026-04-04T13:50:06.828Z</time></trkpt><trkpt lat="44.3646205" lon="11.2617668"><ele>115.0</ele><time>2026-04-04T13:50:07.828Z</time></trkpt><trkpt lat="44.3647609" lon="11.2616732"><ele>115.0</ele><time>2026-04-04T13:50:08.829Z</time></trkpt><trkpt lat="44.3648973" lon="11.2615846"><ele>115.25</ele><time>2026-04-04T13:50:09.83Z</time></trkpt><trkpt lat="44.3650304" lon="11.2614999"><ele>115.5</ele><time>2026-04-04T13:50:10.831Z</time></trkpt><trkpt lat="44.3651565" lon="11.2614216"><ele>115.75</ele><time>2026-04-04T13:50:11.83Z</time></trkpt><trkpt lat="44.3652824" lon="11.2613374"><ele>116.0</ele><time>2026-04-04T13:50:12.83Z</time></trkpt><trkpt lat="44.3654048" lon="11.2612418"><ele>116.0</ele><time>2026-04-04T13:50:13.83Z</time></trkpt><trkpt lat="44.3655242" lon="11.2611313"><ele>116.0</ele><time>2026-04-04T13:50:14.829Z</time></trkpt><trkpt lat="44.3656415" lon="11.2610107"><ele>116.0</ele><time>2026-04-04T13:50:15.829Z</time></trkpt><trkpt lat="44.3657519" lon="11.2608767"><ele>116.0</ele><time>2026-04-04T13:50:16.828Z</time></trkpt><trkpt lat="44.3658511" lon="11.2607343"><ele>114.75</ele><time>2026-04-04T13:50:17.828Z</time></trkpt><trkpt lat="44.3659428" lon="11.260593"><ele>113.5</ele><time>2026-04-04T13:50:18.829Z</time></trkpt><trkpt lat="44.3660216" lon="11.2604601"><ele>112.25</ele><time>2026-04-04T13:50:19.829Z</time></trkpt><trkpt lat="44.3660907" lon="11.2603422"><ele>111.0</ele><time>2026-04-04T13:50:20.829Z</time></trkpt><trkpt lat="44.3661512" lon="11.260239"><ele>111.0</ele><time>2026-04-04T13:50:21.828Z</time></trkpt><trkpt lat="44.3662041" lon="11.2601404"><ele>111.0</ele><time>2026-04-04T13:50:22.829Z</time></trkpt><trkpt lat="44.3662484" lon="11.260044"><ele>111.0</ele><time>2026-04-04T13:50:23.83Z</time></trkpt><trkpt lat="44.3662848" lon="11.2599573"><ele>111.0</ele><time>2026-04-04T13:50:24.829Z</time></trkpt><trkpt lat="44.3663283" lon="11.2598809"><ele>111.0</ele><time>2026-04-04T13:50:25.83Z</time></trkpt><trkpt lat="44.3663959" lon="11.2598355"><ele>111.0</ele><time>2026-04-04T13:50:26.83Z</time></trkpt><trkpt lat="44.3664734" lon="11.2598261"><ele>111.75</ele><time>2026-04-04T13:50:27.83Z</time></trkpt><trkpt lat="44.3665596" lon="11.2598605"><ele>112.5</ele><time>2026-04-04T13:50:28.83Z</time></trkpt><trkpt lat="44.366657" lon="11.2599356"><ele>113.25</ele><time>2026-04-04T13:50:29.83Z</time></trkpt><trkpt lat="44.3667719" lon="11.2600354"><ele>114.0</ele><time>2026-04-04T13:50:30.83Z</time></trkpt><trkpt lat="44.3669057" lon="11.2601346"><ele>114.0</ele><time>2026-04-04T13:50:31.829Z</time></trkpt><trkpt lat="44.3670622" lon="11.2602009"><ele>114.0</ele><time>2026-04-04T13:50:32.829Z</time></trkpt><trkpt lat="44.3672328" lon="11.2602157"><ele>114.0</ele><time>2026-04-04T13:50:33.83Z</time></trkpt><trkpt lat="44.3674088" lon="11.2601808"><ele>115.66666666666666</ele><time>2026-04-04T13:50:34.83Z</time></trkpt><trkpt lat="44.3675979" lon="11.2600938"><ele>117.33333333333333</ele><time>2026-04-04T13:50:35.83Z</time></trkpt><trkpt lat="44.3677892" lon="11.259971"><ele>119.0</ele><time>2026-04-04T13:50:36.829Z</time></trkpt><trkpt lat="44.3679935" lon="11.2598522"><ele>118.0</ele><time>2026-04-04T13:50:37.829Z</time></trkpt><trkpt lat="44.3682034" lon="11.259762"><ele>117.0</ele><time>2026-04-04T13:50:38.829Z</time></trkpt><trkpt lat="44.3683973" lon="11.2596956"><ele>116.0</ele><time>2026-04-04T13:50:39.83Z</time></trkpt><trkpt lat="44.3685808" lon="11.2596293"><ele>116.0</ele><time>2026-04-04T13:50:40.831Z</time></trkpt><trkpt lat="44.3687473" lon="11.2595568"><ele>116.0</ele><time>2026-04-04T13:50:41.829Z</time></trkpt><trkpt lat="44.3688906" lon="11.2594717"><ele>116.0</ele><time>2026-04-04T13:50:42.829Z</time></trkpt><trkpt lat="44.3690102" lon="11.2593752"><ele>116.83333333333333</ele><time>2026-04-04T13:50:43.829Z</time></trkpt><trkpt lat="44.3691076" lon="11.2592544"><ele>117.66666666666666</ele><time>2026-04-04T13:50:44.829Z</time></trkpt><trkpt lat="44.3691601" lon="11.2591432"><ele>118.5</ele><time>2026-04-04T13:50:45.83Z</time></trkpt><trkpt lat="44.3691818" lon="11.2590476"><ele>119.33333333333334</ele><time>2026-04-04T13:50:47.83Z</time></trkpt><trkpt lat="44.3692062" lon="11.2589629"><ele>120.16666666666667</ele><time>2026-04-04T13:50:53.829Z</time></trkpt><trkpt lat="44.3691471" lon="11.2590506"><ele>121.0</ele><time>2026-04-04T13:50:58.829Z</time></trkpt><trkpt lat="44.3691154" lon="11.259165"><ele>121.0</ele><time>2026-04-04T13:50:59.829Z</time></trkpt><trkpt lat="44.3690921" lon="11.259263"><ele>121.0</ele><time>2026-04-04T13:51:00.83Z</time></trkpt><trkpt lat="44.369107" lon="11.2593854"><ele>121.0</ele><time>2026-04-04T13:51:01.828Z</time></trkpt><trkpt lat="44.3691537" lon="11.2595092"><ele>121.0</ele><time>2026-04-04T13:51:02.83Z</time></trkpt><trkpt lat="44.3692291" lon="11.2596406"><ele>121.0</ele><time>2026-04-04T13:51:03.829Z</time></trkpt><trkpt lat="44.3693128" lon="11.2597955"><ele>121.0</ele><time>2026-04-04T13:51:04.83Z</time></trkpt><trkpt lat="44.3693813" lon="11.2599785"><ele>121.0</ele><time>2026-04-04T13:51:05.83Z</time></trkpt><trkpt lat="44.3694308" lon="11.2601646"><ele>121.0</ele><time>2026-04-04T13:51:06.83Z</time></trkpt><trkpt lat="44.3694729" lon="11.2603183"><ele>121.0</ele><time>2026-04-04T13:51:07.83Z</time></trkpt><trkpt lat="44.3695319" lon="11.2604323"><ele>121.00000000000001</ele><time>2026-04-04T13:51:08.83Z</time></trkpt><trkpt lat="44.3695995" lon="11.2604968"><ele>121.0</ele><time>2026-04-04T13:51:09.83Z</time></trkpt><trkpt lat="44.3696691" lon="11.2604995"><ele>121.0</ele><time>2026-04-04T13:51:10.829Z</time></trkpt><trkpt lat="44.3697296" lon="11.2604454"><ele>121.0</ele><time>2026-04-04T13:51:11.829Z</time></trkpt><trkpt lat="44.3697654" lon="11.2603471"><ele>121.00000000000001</ele><time>2026-04-04T13:51:12.829Z</time></trkpt><trkpt lat="44.3697657" lon="11.2602171"><ele>121.0</ele><time>2026-04-04T13:51:13.829Z</time></trkpt><trkpt lat="44.3697468" lon="11.2600558"><ele>124.0</ele><time>2026-04-04T13:51:14.829Z</time></trkpt><trkpt lat="44.3697448" lon="11.2598621"><ele>127.0</ele><time>2026-04-04T13:51:15.829Z</time></trkpt><trkpt lat="44.3697511" lon="11.2596921"><ele>130.0</ele><time>2026-04-04T13:51:16.829Z</time></trkpt><trkpt lat="44.3697624" lon="11.2595346"><ele>133.0</ele><time>2026-04-04T13:51:17.83Z</time></trkpt><trkpt lat="44.3698006" lon="11.259378"><ele>133.0</ele><time>2026-04-04T13:51:18.83Z</time></trkpt><trkpt lat="44.3698666" lon="11.2592171"><ele>133.0</ele><time>2026-04-04T13:51:19.829Z</time></trkpt><trkpt lat="44.3699616" lon="11.2590558"><ele>133.0</ele><time>2026-04-04T13:51:20.828Z</time></trkpt><trkpt lat="44.3700776" lon="11.2588985"><ele>133.0</ele><time>2026-04-04T13:51:21.829Z</time></trkpt><trkpt lat="44.3702077" lon="11.2587347"><ele>132.0</ele><time>2026-04-04T13:51:22.83Z</time></trkpt><trkpt lat="44.3703432" lon="11.2585679"><ele>131.0</ele><time>2026-04-04T13:51:23.829Z</time></trkpt><trkpt lat="44.3704667" lon="11.2584136"><ele>130.0</ele><time>2026-04-04T13:51:24.829Z</time></trkpt><trkpt lat="44.3705743" lon="11.2582854"><ele>133.75</ele><time>2026-04-04T13:51:25.829Z</time></trkpt><trkpt lat="44.3706802" lon="11.2582164"><ele>137.5</ele><time>2026-04-04T13:51:26.83Z</time></trkpt><trkpt lat="44.3707841" lon="11.2582234"><ele>141.25</ele><time>2026-04-04T13:51:27.83Z</time></trkpt><trkpt lat="44.3708851" lon="11.2582922"><ele>145.0</ele><time>2026-04-04T13:51:28.829Z</time></trkpt><trkpt lat="44.3709725" lon="11.2584204"><ele>145.0</ele><time>2026-04-04T13:51:29.829Z</time></trkpt><trkpt lat="44.371062" lon="11.2585583"><ele>145.0</ele><time>2026-04-04T13:51:30.829Z</time></trkpt><trkpt lat="44.3711564" lon="11.25864"><ele>145.0</ele><time>2026-04-04T13:51:31.83Z</time></trkpt><trkpt lat="44.3712509" lon="11.2586873"><ele>145.0</ele><time>2026-04-04T13:51:32.83Z</time></trkpt><trkpt lat="44.371381" lon="11.2585864"><ele>148.66666666666669</ele><time>2026-04-04T13:51:33.829Z</time></trkpt><trkpt lat="44.3714819" lon="11.2584824"><ele>152.33333333333334</ele><time>2026-04-04T13:51:34.828Z</time></trkpt><trkpt lat="44.3715893" lon="11.2583315"><ele>156.0</ele><time>2026-04-04T13:51:35.83Z</time></trkpt><trkpt lat="44.3716958" lon="11.2581404"><ele>153.66666666666666</ele><time>2026-04-04T13:51:36.83Z</time></trkpt><trkpt lat="44.3718216" lon="11.2579363"><ele>151.33333333333331</ele><time>2026-04-04T13:51:37.829Z</time></trkpt><trkpt lat="44.3719742" lon="11.25772"><ele>149.0</ele><time>2026-04-04T13:51:38.83Z</time></trkpt><trkpt lat="44.3721489" lon="11.2575018"><ele>152.5</ele><time>2026-04-04T13:51:39.828Z</time></trkpt><trkpt lat="44.3723254" lon="11.257276"><ele>156.0</ele><time>2026-04-04T13:51:40.83Z</time></trkpt><trkpt lat="44.3725128" lon="11.2570414"><ele>156.0</ele><time>2026-04-04T13:51:41.829Z</time></trkpt><trkpt lat="44.3726791" lon="11.2568168"><ele>156.0</ele><time>2026-04-04T13:51:42.83Z</time></trkpt><trkpt lat="44.3728343" lon="11.2566147"><ele>156.0</ele><time>2026-04-04T13:51:43.83Z</time></trkpt><trkpt lat="44.3729779" lon="11.2564306"><ele>157.66666666666666</ele><time>2026-04-04T13:51:44.83Z</time></trkpt><trkpt lat="44.3731126" lon="11.2562593"><ele>159.33333333333331</ele><time>2026-04-04T13:51:45.83Z</time></trkpt><trkpt lat="44.3732427" lon="11.256097"><ele>161.0</ele><time>2026-04-04T13:51:46.828Z</time></trkpt><trkpt lat="44.3733633" lon="11.255955"><ele>161.0</ele><time>2026-04-04T13:51:47.829Z</time></trkpt><trkpt lat="44.3734793" lon="11.2558369"><ele>161.0</ele><time>2026-04-04T13:51:48.83Z</time></trkpt><trkpt lat="44.3735905" lon="11.2557445"><ele>161.0</ele><time>2026-04-04T13:51:49.83Z</time></trkpt><trkpt lat="44.3737131" lon="11.2556567"><ele>161.0</ele><time>2026-04-04T13:51:50.829Z</time></trkpt><trkpt lat="44.3738275" lon="11.2555861"><ele>161.0</ele><time>2026-04-04T13:51:51.829Z</time></trkpt><trkpt lat="44.3739631" lon="11.2555015"><ele>161.0</ele><time>2026-04-04T13:51:52.829Z</time></trkpt><trkpt lat="44.3741007" lon="11.2553987"><ele>161.0</ele><time>2026-04-04T13:51:53.83Z</time></trkpt><trkpt lat="44.374216" lon="11.2553058"><ele>161.0</ele><time>2026-04-04T13:51:54.83Z</time></trkpt><trkpt lat="44.3743174" lon="11.2552341"><ele>161.0</ele><time>2026-04-04T13:51:55.83Z</time></trkpt><trkpt lat="44.3744093" lon="11.255187"><ele>161.0</ele><time>2026-04-04T13:51:56.83Z</time></trkpt><trkpt lat="44.3745056" lon="11.2551619"><ele>161.0</ele><time>2026-04-04T13:51:57.83Z</time></trkpt><trkpt lat="44.3745957" lon="11.2551571"><ele>161.0</ele><time>2026-04-04T13:51:58.829Z</time></trkpt><trkpt lat="44.374687" lon="11.2551632"><ele>161.0</ele><time>2026-04-04T13:51:59.829Z</time></trkpt><trkpt lat="44.3747821" lon="11.2551608"><ele>162.8</ele><time>2026-04-04T13:52:00.829Z</time></trkpt><trkpt lat="44.3748735" lon="11.255117"><ele>164.60000000000002</ele><time>2026-04-04T13:52:01.83Z</time></trkpt><trkpt lat="44.3749622" lon="11.2550336"><ele>166.4</ele><time>2026-04-04T13:52:02.83Z</time></trkpt><trkpt lat="44.3750498" lon="11.2549483"><ele>168.2</ele><time>2026-04-04T13:52:03.829Z</time></trkpt><trkpt lat="44.3751446" lon="11.2548766"><ele>170.0</ele><time>2026-04-04T13:52:04.83Z</time></trkpt><trkpt lat="44.3752392" lon="11.2548183"><ele>170.0</ele><time>2026-04-04T13:52:05.829Z</time></trkpt><trkpt lat="44.3753275" lon="11.2547762"><ele>170.0</ele><time>2026-04-04T13:52:06.829Z</time></trkpt><trkpt lat="44.3753972" lon="11.2547496"><ele>170.0</ele><time>2026-04-04T13:52:07.83Z</time></trkpt><trkpt lat="44.3754926" lon="11.2547673"><ele>170.0</ele><time>2026-04-04T13:52:09.829Z</time></trkpt><trkpt lat="44.3754878" lon="11.2548743"><ele>170.0</ele><time>2026-04-04T13:52:11.83Z</time></trkpt><trkpt lat="44.3753434" lon="11.2549573"><ele>170.0</ele><time>2026-04-04T13:52:13.83Z</time></trkpt><trkpt lat="44.3752535" lon="11.255013"><ele>170.0</ele><time>2026-04-04T13:52:14.83Z</time></trkpt><trkpt lat="44.3751842" lon="11.2550822"><ele>170.0</ele><time>2026-04-04T13:52:15.83Z</time></trkpt><trkpt lat="44.3751085" lon="11.255167"><ele>170.0</ele><time>2026-04-04T13:52:16.829Z</time></trkpt><trkpt lat="44.3750352" lon="11.2552768"><ele>170.0</ele><time>2026-04-04T13:52:17.829Z</time></trkpt><trkpt lat="44.3749756" lon="11.2554015"><ele>170.0</ele><time>2026-04-04T13:52:18.83Z</time></trkpt><trkpt lat="44.3749463" lon="11.2555406"><ele>170.0</ele><time>2026-04-04T13:52:19.829Z</time></trkpt><trkpt lat="44.3749459" lon="11.2557228"><ele>170.0</ele><time>2026-04-04T13:52:20.83Z</time></trkpt><trkpt lat="44.3749487" lon="11.2559213"><ele>170.0</ele><time>2026-04-04T13:52:21.83Z</time></trkpt><trkpt lat="44.3749219" lon="11.2561301"><ele>172.5</ele><time>2026-04-04T13:52:22.83Z</time></trkpt><trkpt lat="44.3748562" lon="11.2563235"><ele>175.0</ele><time>2026-04-04T13:52:23.83Z</time></trkpt><trkpt lat="44.374767" lon="11.2564642"><ele>177.5</ele><time>2026-04-04T13:52:24.829Z</time></trkpt><trkpt lat="44.3746928" lon="11.2565665"><ele>180.0</ele><time>2026-04-04T13:52:25.83Z</time></trkpt><trkpt lat="44.3746717" lon="11.2566683"><ele>180.0</ele><time>2026-04-04T13:52:26.829Z</time></trkpt><trkpt lat="44.3746942" lon="11.2567546"><ele>180.0</ele><time>2026-04-04T13:52:27.828Z</time></trkpt><trkpt lat="44.3748271" lon="11.2567683"><ele>180.0</ele><time>2026-04-04T13:52:29.829Z</time></trkpt><trkpt lat="44.3749163" lon="11.256681"><ele>180.0</ele><time>2026-04-04T13:52:30.829Z</time></trkpt><trkpt lat="44.3750201" lon="11.2565536"><ele>180.0</ele><time>2026-04-04T13:52:31.829Z</time></trkpt><trkpt lat="44.3751083" lon="11.2564291"><ele>180.0</ele><time>2026-04-04T13:52:32.828Z</time></trkpt><trkpt lat="44.3751848" lon="11.2563419"><ele>180.0</ele><time>2026-04-04T13:52:33.829Z</time></trkpt><trkpt lat="44.3752487" lon="11.2563307"><ele>180.0</ele><time>2026-04-04T13:52:34.828Z</time></trkpt><trkpt lat="44.3752983" lon="11.2564506"><ele>180.0</ele><time>2026-04-04T13:52:36.829Z</time></trkpt><trkpt lat="44.3752657" lon="11.2565335"><ele>180.0</ele><time>2026-04-04T13:52:37.829Z</time></trkpt><trkpt lat="44.3752079" lon="11.2566374"><ele>180.0</ele><time>2026-04-04T13:52:38.829Z</time></trkpt><trkpt lat="44.3751317" lon="11.2567645"><ele>184.0</ele><time>2026-04-04T13:52:39.829Z</time></trkpt><trkpt lat="44.3750736" lon="11.2569405"><ele>188.0</ele><time>2026-04-04T13:52:40.829Z</time></trkpt><trkpt lat="44.3750365" lon="11.2571702"><ele>192.0</ele><time>2026-04-04T13:52:41.829Z</time></trkpt><trkpt lat="44.375004" lon="11.2574104"><ele>195.0</ele><time>2026-04-04T13:52:42.828Z</time></trkpt><trkpt lat="44.3749486" lon="11.2576504"><ele>198.0</ele><time>2026-04-04T13:52:43.828Z</time></trkpt><trkpt lat="44.3748644" lon="11.2578987"><ele>201.0</ele><time>2026-04-04T13:52:44.828Z</time></trkpt><trkpt lat="44.3747854" lon="11.2581174"><ele>202.5</ele><time>2026-04-04T13:52:45.829Z</time></trkpt><trkpt lat="44.3747086" lon="11.2583136"><ele>204.0</ele><time>2026-04-04T13:52:46.829Z</time></trkpt><trkpt lat="44.3746185" lon="11.2584656"><ele>205.5</ele><time>2026-04-04T13:52:47.828Z</time></trkpt><trkpt lat="44.3745275" lon="11.2585583"><ele>207.0</ele><time>2026-04-04T13:52:48.828Z</time></trkpt><trkpt lat="44.374453" lon="11.2586212"><ele>207.0</ele><time>2026-04-04T13:52:49.828Z</time></trkpt><trkpt lat="44.3744219" lon="11.2586991"><ele>207.0</ele><time>2026-04-04T13:52:50.829Z</time></trkpt><trkpt lat="44.3744826" lon="11.2588284"><ele>207.0</ele><time>2026-04-04T13:52:52.829Z</time></trkpt><trkpt lat="44.3745565" lon="11.2588229"><ele>207.0</ele><time>2026-04-04T13:52:53.829Z</time></trkpt><trkpt lat="44.3746454" lon="11.2587928"><ele>207.0</ele><time>2026-04-04T13:52:54.827Z</time></trkpt><trkpt lat="44.374755" lon="11.2587621"><ele>207.0</ele><time>2026-04-04T13:52:55.827Z</time></trkpt><trkpt lat="44.3748868" lon="11.2587248"><ele>207.0</ele><time>2026-04-04T13:52:56.828Z</time></trkpt><trkpt lat="44.3750326" lon="11.2586886"><ele>207.0</ele><time>2026-04-04T13:52:57.829Z</time></trkpt><trkpt lat="44.3751611" lon="11.2586468"><ele>207.0</ele><time>2026-04-04T13:52:58.828Z</time></trkpt><trkpt lat="44.375267" lon="11.2586046"><ele>207.0</ele><time>2026-04-04T13:52:59.829Z</time></trkpt><trkpt lat="44.375352" lon="11.2585745"><ele>207.0</ele><time>2026-04-04T13:53:00.828Z</time></trkpt><trkpt lat="44.3754162" lon="11.2585824"><ele>207.0</ele><time>2026-04-04T13:53:01.828Z</time></trkpt><trkpt lat="44.3754593" lon="11.2586863"><ele>207.0</ele><time>2026-04-04T13:53:03.828Z</time></trkpt><trkpt lat="44.3754037" lon="11.2588108"><ele>207.0</ele><time>2026-04-04T13:53:05.829Z</time></trkpt><trkpt lat="44.3753172" lon="11.258909"><ele>210.75</ele><time>2026-04-04T13:53:07.828Z</time></trkpt><trkpt lat="44.375216" lon="11.2589834"><ele>214.5</ele><time>2026-04-04T13:53:09.828Z</time></trkpt><trkpt lat="44.3751104" lon="11.2590715"><ele>218.25</ele><time>2026-04-04T13:53:11.828Z</time></trkpt><trkpt lat="44.3750157" lon="11.2591688"><ele>222.0</ele><time>2026-04-04T13:53:13.828Z</time></trkpt><trkpt lat="44.3749543" lon="11.2593001"><ele>222.0</ele><time>2026-04-04T13:53:15.829Z</time></trkpt><trkpt lat="44.3749419" lon="11.259402"><ele>222.0</ele><time>2026-04-04T13:53:16.828Z</time></trkpt><trkpt lat="44.3749518" lon="11.2595343"><ele>222.0</ele><time>2026-04-04T13:53:17.829Z</time></trkpt><trkpt lat="44.3749723" lon="11.2597122"><ele>222.0</ele><time>2026-04-04T13:53:18.828Z</time></trkpt><trkpt lat="44.3749803" lon="11.2599158"><ele>222.0</ele><time>2026-04-04T13:53:19.828Z</time></trkpt><trkpt lat="44.3749717" lon="11.260076"><ele>224.5</ele><time>2026-04-04T13:53:20.829Z</time></trkpt><trkpt lat="44.3749456" lon="11.2602245"><ele>227.0</ele><time>2026-04-04T13:53:21.828Z</time></trkpt><trkpt lat="44.3748996" lon="11.2603554"><ele>229.5</ele><time>2026-04-04T13:53:22.828Z</time></trkpt><trkpt lat="44.3748256" lon="11.2604817"><ele>232.0</ele><time>2026-04-04T13:53:23.828Z</time></trkpt><trkpt lat="44.3747198" lon="11.2606125"><ele>231.66666666666666</ele><time>2026-04-04T13:53:24.829Z</time></trkpt><trkpt lat="44.3745962" lon="11.2607569"><ele>231.33333333333331</ele><time>2026-04-04T13:53:25.829Z</time></trkpt><trkpt lat="44.3744754" lon="11.2609042"><ele>231.0</ele><time>2026-04-04T13:53:26.829Z</time></trkpt><trkpt lat="44.3743548" lon="11.2610664"><ele>231.0</ele><time>2026-04-04T13:53:27.828Z</time></trkpt><trkpt lat="44.3742409" lon="11.2612545"><ele>231.0</ele><time>2026-04-04T13:53:28.829Z</time></trkpt><trkpt lat="44.3741276" lon="11.26146"><ele>231.0</ele><time>2026-04-04T13:53:29.829Z</time></trkpt><trkpt lat="44.3740113" lon="11.2616365"><ele>228.25</ele><time>2026-04-04T13:53:30.829Z</time></trkpt><trkpt lat="44.3738935" lon="11.2617948"><ele>225.5</ele><time>2026-04-04T13:53:31.829Z</time></trkpt><trkpt lat="44.3737872" lon="11.2619267"><ele>222.75</ele><time>2026-04-04T13:53:32.828Z</time></trkpt><trkpt lat="44.3737111" lon="11.2620529"><ele>220.0</ele><time>2026-04-04T13:53:33.828Z</time></trkpt><trkpt lat="44.3736739" lon="11.2621969"><ele>221.25</ele><time>2026-04-04T13:53:34.829Z</time></trkpt><trkpt lat="44.3736753" lon="11.2623521"><ele>222.5</ele><time>2026-04-04T13:53:35.828Z</time></trkpt><trkpt lat="44.3737068" lon="11.2625238"><ele>223.75</ele><time>2026-04-04T13:53:36.828Z</time></trkpt><trkpt lat="44.3737476" lon="11.2627167"><ele>225.0</ele><time>2026-04-04T13:53:37.829Z</time></trkpt><trkpt lat="44.3738121" lon="11.2629314"><ele>232.0</ele><time>2026-04-04T13:53:38.829Z</time></trkpt><trkpt lat="44.3738885" lon="11.2631748"><ele>239.0</ele><time>2026-04-04T13:53:39.829Z</time></trkpt><trkpt lat="44.373976" lon="11.2634344"><ele>246.0</ele><time>2026-04-04T13:53:40.829Z</time></trkpt><trkpt lat="44.3740634" lon="11.2636788"><ele>246.0</ele><time>2026-04-04T13:53:41.828Z</time></trkpt><trkpt lat="44.3741546" lon="11.2638987"><ele>246.0</ele><time>2026-04-04T13:53:42.828Z</time></trkpt><trkpt lat="44.37425" lon="11.264094"><ele>246.0</ele><time>2026-04-04T13:53:43.828Z</time></trkpt><trkpt lat="44.3743456" lon="11.2642684"><ele>243.0</ele><time>2026-04-04T13:53:44.829Z</time></trkpt><trkpt lat="44.3744218" lon="11.2644467"><ele>240.0</ele><time>2026-04-04T13:53:45.829Z</time></trkpt><trkpt lat="44.3744691" lon="11.2646505"><ele>237.0</ele><time>2026-04-04T13:53:46.828Z</time></trkpt><trkpt lat="44.3745103" lon="11.2648721"><ele>235.33333333333331</ele><time>2026-04-04T13:53:47.829Z</time></trkpt><trkpt lat="44.3745505" lon="11.2651032"><ele>233.66666666666666</ele><time>2026-04-04T13:53:48.828Z</time></trkpt><trkpt lat="44.3745779" lon="11.2653322"><ele>232.0</ele><time>2026-04-04T13:53:49.829Z</time></trkpt><trkpt lat="44.3745819" lon="11.2655702"><ele>232.33333333333331</ele><time>2026-04-04T13:53:50.828Z</time></trkpt><trkpt lat="44.3745662" lon="11.2658198"><ele>232.66666666666669</ele><time>2026-04-04T13:53:51.829Z</time></trkpt><trkpt lat="44.3745268" lon="11.2660782"><ele>233.0</ele><time>2026-04-04T13:53:52.827Z</time></trkpt><trkpt lat="44.3744691" lon="11.2663465"><ele>233.66666666666669</ele><time>2026-04-04T13:53:53.829Z</time></trkpt><trkpt lat="44.3744111" lon="11.266602"><ele>234.33333333333331</ele><time>2026-04-04T13:53:54.829Z</time></trkpt><trkpt lat="44.374354" lon="11.2668339"><ele>235.0</ele><time>2026-04-04T13:53:55.828Z</time></trkpt><trkpt lat="44.3742984" lon="11.2670496"><ele>235.0</ele><time>2026-04-04T13:53:56.829Z</time></trkpt><trkpt lat="44.374241" lon="11.2672486"><ele>235.0</ele><time>2026-04-04T13:53:57.829Z</time></trkpt><trkpt lat="44.374192" lon="11.2674454"><ele>235.0</ele><time>2026-04-04T13:53:58.829Z</time></trkpt><trkpt lat="44.3741617" lon="11.2676522"><ele>237.5</ele><time>2026-04-04T13:53:59.828Z</time></trkpt><trkpt lat="44.3741382" lon="11.2678431"><ele>240.0</ele><time>2026-04-04T13:54:00.828Z</time></trkpt><trkpt lat="44.3741101" lon="11.2680265"><ele>242.5</ele><time>2026-04-04T13:54:01.829Z</time></trkpt><trkpt lat="44.3740764" lon="11.2682091"><ele>245.0</ele><time>2026-04-04T13:54:02.828Z</time></trkpt><trkpt lat="44.3740281" lon="11.2683959"><ele>248.0</ele><time>2026-04-04T13:54:03.827Z</time></trkpt><trkpt lat="44.3739544" lon="11.2685715"><ele>251.0</ele><time>2026-04-04T13:54:04.829Z</time></trkpt><trkpt lat="44.3738596" lon="11.2687371"><ele>254.0</ele><time>2026-04-04T13:54:05.828Z</time></trkpt><trkpt lat="44.3737476" lon="11.2689076"><ele>246.66666666666669</ele><time>2026-04-04T13:54:06.828Z</time></trkpt><trkpt lat="44.3736224" lon="11.2690623"><ele>239.33333333333331</ele><time>2026-04-04T13:54:07.828Z</time></trkpt><trkpt lat="44.3734991" lon="11.2692281"><ele>232.0</ele><time>2026-04-04T13:54:08.828Z</time></trkpt><trkpt lat="44.3733901" lon="11.2694219"><ele>232.0</ele><time>2026-04-04T13:54:09.828Z</time></trkpt><trkpt lat="44.3732887" lon="11.2696312"><ele>232.0</ele><time>2026-04-04T13:54:10.827Z</time></trkpt><trkpt lat="44.373191" lon="11.2698283"><ele>232.0</ele><time>2026-04-04T13:54:11.829Z</time></trkpt><trkpt lat="44.3730959" lon="11.2700114"><ele>229.33333333333331</ele><time>2026-04-04T13:54:12.828Z</time></trkpt><trkpt lat="44.3729893" lon="11.2701718"><ele>226.66666666666669</ele><time>2026-04-04T13:54:13.828Z</time></trkpt><trkpt lat="44.3728638" lon="11.2703074"><ele>224.0</ele><time>2026-04-04T13:54:14.828Z</time></trkpt><trkpt lat="44.3727335" lon="11.270443"><ele>224.0</ele><time>2026-04-04T13:54:15.829Z</time></trkpt><trkpt lat="44.3726117" lon="11.2705827"><ele>224.0</ele><time>2026-04-04T13:54:16.828Z</time></trkpt><trkpt lat="44.3724934" lon="11.2707281"><ele>224.0</ele><time>2026-04-04T13:54:17.828Z</time></trkpt><trkpt lat="44.3723808" lon="11.2708858"><ele>224.33333333333334</ele><time>2026-04-04T13:54:18.827Z</time></trkpt><trkpt lat="44.3722752" lon="11.2710533"><ele>224.66666666666669</ele><time>2026-04-04T13:54:19.829Z</time></trkpt><trkpt lat="44.372173" lon="11.2712319"><ele>225.0</ele><time>2026-04-04T13:54:20.827Z</time></trkpt><trkpt lat="44.3720761" lon="11.271423"><ele>226.66666666666669</ele><time>2026-04-04T13:54:21.828Z</time></trkpt><trkpt lat="44.37199" lon="11.271629"><ele>228.33333333333334</ele><time>2026-04-04T13:54:22.829Z</time></trkpt><trkpt lat="44.3719105" lon="11.2718557"><ele>230.0</ele><time>2026-04-04T13:54:23.829Z</time></trkpt><trkpt lat="44.3718413" lon="11.2720906"><ele>233.66666666666669</ele><time>2026-04-04T13:54:24.828Z</time></trkpt><trkpt lat="44.3717794" lon="11.2723103"><ele>237.33333333333331</ele><time>2026-04-04T13:54:25.828Z</time></trkpt><trkpt lat="44.3717193" lon="11.2725079"><ele>241.0</ele><time>2026-04-04T13:54:26.829Z</time></trkpt><trkpt lat="44.3716605" lon="11.2726897"><ele>241.0</ele><time>2026-04-04T13:54:27.827Z</time></trkpt><trkpt lat="44.3716174" lon="11.2728706"><ele>241.0</ele><time>2026-04-04T13:54:28.828Z</time></trkpt><trkpt lat="44.3715961" lon="11.2730609"><ele>241.0</ele><time>2026-04-04T13:54:29.829Z</time></trkpt><trkpt lat="44.3715917" lon="11.2732506"><ele>241.0</ele><time>2026-04-04T13:54:30.827Z</time></trkpt><trkpt lat="44.3715899" lon="11.2734293"><ele>243.20000000000002</ele><time>2026-04-04T13:54:31.827Z</time></trkpt><trkpt lat="44.3715895" lon="11.2735941"><ele>245.40000000000003</ele><time>2026-04-04T13:54:32.828Z</time></trkpt><trkpt lat="44.3715738" lon="11.2737336"><ele>247.6</ele><time>2026-04-04T13:54:33.828Z</time></trkpt><trkpt lat="44.3715323" lon="11.2738508"><ele>249.8</ele><time>2026-04-04T13:54:34.827Z</time></trkpt><trkpt lat="44.3714629" lon="11.2739364"><ele>252.0</ele><time>2026-04-04T13:54:35.828Z</time></trkpt><trkpt lat="44.3713677" lon="11.2740065"><ele>257.0</ele><time>2026-04-04T13:54:36.828Z</time></trkpt><trkpt lat="44.371254" lon="11.2740679"><ele>262.0</ele><time>2026-04-04T13:54:37.827Z</time></trkpt><trkpt lat="44.3711402" lon="11.2741084"><ele>267.0</ele><time>2026-04-04T13:54:38.828Z</time></trkpt><trkpt lat="44.371031" lon="11.2740832"><ele>272.0</ele><time>2026-04-04T13:54:39.828Z</time></trkpt><trkpt lat="44.3709359" lon="11.2740039"><ele>265.25</ele><time>2026-04-04T13:54:40.828Z</time></trkpt><trkpt lat="44.3708513" lon="11.2738701"><ele>258.5</ele><time>2026-04-04T13:54:41.829Z</time></trkpt><trkpt lat="44.3707684" lon="11.2737019"><ele>251.75</ele><time>2026-04-04T13:54:42.828Z</time></trkpt><trkpt lat="44.3706685" lon="11.2735122"><ele>245.0</ele><time>2026-04-04T13:54:43.827Z</time></trkpt><trkpt lat="44.3705664" lon="11.2733292"><ele>249.5</ele><time>2026-04-04T13:54:44.829Z</time></trkpt><trkpt lat="44.3704846" lon="11.2731699"><ele>254.0</ele><time>2026-04-04T13:54:45.827Z</time></trkpt><trkpt lat="44.3704359" lon="11.2730032"><ele>258.5</ele><time>2026-04-04T13:54:46.828Z</time></trkpt><trkpt lat="44.3704147" lon="11.2728227"><ele>263.0</ele><time>2026-04-04T13:54:47.829Z</time></trkpt><trkpt lat="44.3703984" lon="11.2726551"><ele>263.0</ele><time>2026-04-04T13:54:48.829Z</time></trkpt><trkpt lat="44.3703567" lon="11.2725156"><ele>263.0</ele><time>2026-04-04T13:54:49.828Z</time></trkpt><trkpt lat="44.3702743" lon="11.2723977"><ele>263.0</ele><time>2026-04-04T13:54:50.828Z</time></trkpt><trkpt lat="44.3701486" lon="11.2723035"><ele>263.0</ele><time>2026-04-04T13:54:51.829Z</time></trkpt><trkpt lat="44.3699974" lon="11.2722125"><ele>260.0</ele><time>2026-04-04T13:54:52.829Z</time></trkpt><trkpt lat="44.3698412" lon="11.2721206"><ele>257.0</ele><time>2026-04-04T13:54:53.828Z</time></trkpt><trkpt lat="44.3696363" lon="11.2720251"><ele>254.0</ele><time>2026-04-04T13:54:54.829Z</time></trkpt><trkpt lat="44.3694549" lon="11.2719424"><ele>254.0</ele><time>2026-04-04T13:54:55.828Z</time></trkpt><trkpt lat="44.3692819" lon="11.271852"><ele>254.0</ele><time>2026-04-04T13:54:56.827Z</time></trkpt><trkpt lat="44.3691122" lon="11.2717406"><ele>254.0</ele><time>2026-04-04T13:54:57.829Z</time></trkpt><trkpt lat="44.3689325" lon="11.2716039"><ele>253.0</ele><time>2026-04-04T13:54:58.829Z</time></trkpt><trkpt lat="44.3687524" lon="11.2714506"><ele>252.0</ele><time>2026-04-04T13:54:59.828Z</time></trkpt><trkpt lat="44.368568" lon="11.2712756"><ele>251.0</ele><time>2026-04-04T13:55:00.829Z</time></trkpt><trkpt lat="44.3684006" lon="11.271092"><ele>251.0</ele><time>2026-04-04T13:55:01.829Z</time></trkpt><trkpt lat="44.3682591" lon="11.2709058"><ele>251.0</ele><time>2026-04-04T13:55:02.828Z</time></trkpt><trkpt lat="44.3681195" lon="11.2707319"><ele>251.0</ele><time>2026-04-04T13:55:03.828Z</time></trkpt><trkpt lat="44.3679629" lon="11.2705831"><ele>251.66666666666669</ele><time>2026-04-04T13:55:04.829Z</time></trkpt><trkpt lat="44.3677841" lon="11.2704621"><ele>252.33333333333331</ele><time>2026-04-04T13:55:05.827Z</time></trkpt><trkpt lat="44.3675922" lon="11.2703429"><ele>253.0</ele><time>2026-04-04T13:55:06.828Z</time></trkpt><trkpt lat="44.3673933" lon="11.270209"><ele>253.0</ele><time>2026-04-04T13:55:07.828Z</time></trkpt><trkpt lat="44.3672118" lon="11.2700897"><ele>253.0</ele><time>2026-04-04T13:55:08.829Z</time></trkpt><trkpt lat="44.3670503" lon="11.2699887"><ele>253.0</ele><time>2026-04-04T13:55:09.829Z</time></trkpt><trkpt lat="44.3669134" lon="11.2698993"><ele>254.5</ele><time>2026-04-04T13:55:10.828Z</time></trkpt><trkpt lat="44.3667998" lon="11.269814"><ele>256.0</ele><time>2026-04-04T13:55:11.828Z</time></trkpt><trkpt lat="44.3666936" lon="11.2697027"><ele>257.5</ele><time>2026-04-04T13:55:12.828Z</time></trkpt><trkpt lat="44.3666252" lon="11.2695366"><ele>259.0</ele><time>2026-04-04T13:55:13.829Z</time></trkpt><trkpt lat="44.3665547" lon="11.2693528"><ele>259.0</ele><time>2026-04-04T13:55:14.829Z</time></trkpt><trkpt lat="44.3664863" lon="11.2691999"><ele>259.0</ele><time>2026-04-04T13:55:15.827Z</time></trkpt><trkpt lat="44.3663959" lon="11.2690718"><ele>259.0</ele><time>2026-04-04T13:55:16.828Z</time></trkpt><trkpt lat="44.3662933" lon="11.2689919"><ele>259.0</ele><time>2026-04-04T13:55:17.828Z</time></trkpt><trkpt lat="44.3661804" lon="11.2689604"><ele>261.5</ele><time>2026-04-04T13:55:18.828Z</time></trkpt><trkpt lat="44.3660607" lon="11.2689849"><ele>264.0</ele><time>2026-04-04T13:55:19.829Z</time></trkpt><trkpt lat="44.365939" lon="11.2690689"><ele>266.5</ele><time>2026-04-04T13:55:20.829Z</time></trkpt><trkpt lat="44.3658037" lon="11.2691591"><ele>269.0</ele><time>2026-04-04T13:55:21.829Z</time></trkpt><trkpt lat="44.3656553" lon="11.2692133"><ele>269.0</ele><time>2026-04-04T13:55:22.829Z</time></trkpt><trkpt lat="44.3654976" lon="11.269253"><ele>269.0</ele><time>2026-04-04T13:55:23.827Z</time></trkpt><trkpt lat="44.3653392" lon="11.2693297"><ele>269.0</ele><time>2026-04-04T13:55:24.827Z</time></trkpt><trkpt lat="44.3651722" lon="11.2694448"><ele>269.0</ele><time>2026-04-04T13:55:25.827Z</time></trkpt><trkpt lat="44.3650088" lon="11.2695601"><ele>269.0</ele><time>2026-04-04T13:55:26.827Z</time></trkpt><trkpt lat="44.3648696" lon="11.2696592"><ele>269.0</ele><time>2026-04-04T13:55:27.826Z</time></trkpt><trkpt lat="44.364742" lon="11.2697466"><ele>270.5</ele><time>2026-04-04T13:55:28.827Z</time></trkpt><trkpt lat="44.3646482" lon="11.2698172"><ele>272.0</ele><time>2026-04-04T13:55:29.828Z</time></trkpt><trkpt lat="44.364592" lon="11.2698982"><ele>273.5</ele><time>2026-04-04T13:55:30.828Z</time></trkpt><trkpt lat="44.3645861" lon="11.2699881"><ele>275.0</ele><time>2026-04-04T13:55:31.828Z</time></trkpt><trkpt lat="44.3646283" lon="11.2700673"><ele>276.5</ele><time>2026-04-04T13:55:32.827Z</time></trkpt><trkpt lat="44.3647195" lon="11.2701148"><ele>278.0</ele><time>2026-04-04T13:55:33.828Z</time></trkpt><trkpt lat="44.3648466" lon="11.2701215"><ele>278.0</ele><time>2026-04-04T13:55:34.828Z</time></trkpt><trkpt lat="44.3650004" lon="11.2701291"><ele>278.0</ele><time>2026-04-04T13:55:35.827Z</time></trkpt><trkpt lat="44.3651816" lon="11.2701588"><ele>278.0</ele><time>2026-04-04T13:55:36.828Z</time></trkpt><trkpt lat="44.3653793" lon="11.2701943"><ele>280.0</ele><time>2026-04-04T13:55:37.828Z</time></trkpt><trkpt lat="44.3655572" lon="11.2702123"><ele>282.0</ele><time>2026-04-04T13:55:38.828Z</time></trkpt><trkpt lat="44.3657105" lon="11.2702059"><ele>284.0</ele><time>2026-04-04T13:55:39.828Z</time></trkpt><trkpt lat="44.3658309" lon="11.2702129"><ele>284.0</ele><time>2026-04-04T13:55:40.828Z</time></trkpt><trkpt lat="44.3658969" lon="11.270247"><ele>284.0</ele><time>2026-04-04T13:55:41.827Z</time></trkpt><trkpt lat="44.3659327" lon="11.2703631"><ele>284.0</ele><time>2026-04-04T13:55:43.828Z</time></trkpt><trkpt lat="44.3658525" lon="11.2704726"><ele>284.0</ele><time>2026-04-04T13:55:45.828Z</time></trkpt><trkpt lat="44.3657635" lon="11.2704937"><ele>284.0</ele><time>2026-04-04T13:55:46.827Z</time></trkpt><trkpt lat="44.3656456" lon="11.2705108"><ele>282.0</ele><time>2026-04-04T13:55:47.827Z</time></trkpt><trkpt lat="44.3654989" lon="11.2705527"><ele>280.0</ele><time>2026-04-04T13:55:48.827Z</time></trkpt><trkpt lat="44.3653354" lon="11.2706078"><ele>278.0</ele><time>2026-04-04T13:55:49.827Z</time></trkpt><trkpt lat="44.3651556" lon="11.2706651"><ele>284.0</ele><time>2026-04-04T13:55:50.827Z</time></trkpt><trkpt lat="44.3649807" lon="11.2707193"><ele>290.0</ele><time>2026-04-04T13:55:51.828Z</time></trkpt><trkpt lat="44.3648128" lon="11.2707554"><ele>296.0</ele><time>2026-04-04T13:55:52.828Z</time></trkpt><trkpt lat="44.3646532" lon="11.2707497"><ele>297.25</ele><time>2026-04-04T13:55:53.828Z</time></trkpt><trkpt lat="44.3645034" lon="11.2707117"><ele>298.5</ele><time>2026-04-04T13:55:54.826Z</time></trkpt><trkpt lat="44.3643638" lon="11.2706423"><ele>299.75</ele><time>2026-04-04T13:55:55.827Z</time></trkpt><trkpt lat="44.3642425" lon="11.2705493"><ele>301.0</ele><time>2026-04-04T13:55:56.827Z</time></trkpt><trkpt lat="44.3641461" lon="11.2704629"><ele>301.0</ele><time>2026-04-04T13:55:57.827Z</time></trkpt><trkpt lat="44.3640655" lon="11.2704291"><ele>301.0</ele><time>2026-04-04T13:55:58.828Z</time></trkpt><trkpt lat="44.3639948" lon="11.270443"><ele>301.0</ele><time>2026-04-04T13:55:59.828Z</time></trkpt><trkpt lat="44.3639521" lon="11.2705099"><ele>301.0</ele><time>2026-04-04T13:56:00.828Z</time></trkpt><trkpt lat="44.3639534" lon="11.270606"><ele>301.0</ele><time>2026-04-04T13:56:01.828Z</time></trkpt><trkpt lat="44.363999" lon="11.2706915"><ele>301.0</ele><time>2026-04-04T13:56:02.828Z</time></trkpt><trkpt lat="44.3640884" lon="11.2707595"><ele>301.0</ele><time>2026-04-04T13:56:03.827Z</time></trkpt><trkpt lat="44.3642092" lon="11.2708295"><ele>301.0</ele><time>2026-04-04T13:56:04.828Z</time></trkpt><trkpt lat="44.364351" lon="11.2709161"><ele>301.0</ele><time>2026-04-04T13:56:05.828Z</time></trkpt><trkpt lat="44.3645132" lon="11.2710171"><ele>301.0</ele><time>2026-04-04T13:56:06.827Z</time></trkpt><trkpt lat="44.3646781" lon="11.2711074"><ele>301.0</ele><time>2026-04-04T13:56:07.827Z</time></trkpt><trkpt lat="44.3648396" lon="11.2711863"><ele>301.0</ele><time>2026-04-04T13:56:08.827Z</time></trkpt><trkpt lat="44.3649929" lon="11.2712741"><ele>299.75</ele><time>2026-04-04T13:56:09.828Z</time></trkpt><trkpt lat="44.3651412" lon="11.2713847"><ele>298.5</ele><time>2026-04-04T13:56:10.828Z</time></trkpt><trkpt lat="44.3652749" lon="11.27147"><ele>297.25</ele><time>2026-04-04T13:56:11.828Z</time></trkpt><trkpt lat="44.3654003" lon="11.2715239"><ele>296.0</ele><time>2026-04-04T13:56:12.827Z</time></trkpt><trkpt lat="44.3655104" lon="11.2715621"><ele>299.0</ele><time>2026-04-04T13:56:13.828Z</time></trkpt><trkpt lat="44.3656019" lon="11.2715935"><ele>302.0</ele><time>2026-04-04T13:56:14.828Z</time></trkpt><trkpt lat="44.3656736" lon="11.2716394"><ele>305.0</ele><time>2026-04-04T13:56:15.828Z</time></trkpt><trkpt lat="44.3657109" lon="11.271714"><ele>308.0</ele><time>2026-04-04T13:56:16.827Z</time></trkpt><trkpt lat="44.3656774" lon="11.2718741"><ele>311.0</ele><time>2026-04-04T13:56:18.828Z</time></trkpt><trkpt lat="44.3656086" lon="11.2719069"><ele>314.0</ele><time>2026-04-04T13:56:19.826Z</time></trkpt><trkpt lat="44.3655152" lon="11.2719058"><ele>315.0</ele><time>2026-04-04T13:56:20.828Z</time></trkpt><trkpt lat="44.3653944" lon="11.2718921"><ele>316.0</ele><time>2026-04-04T13:56:21.827Z</time></trkpt><trkpt lat="44.365246" lon="11.2718828"><ele>317.0</ele><time>2026-04-04T13:56:22.828Z</time></trkpt><trkpt lat="44.3650759" lon="11.2718526"><ele>318.0</ele><time>2026-04-04T13:56:23.828Z</time></trkpt><trkpt lat="44.3648998" lon="11.2718013"><ele>318.0</ele><time>2026-04-04T13:56:24.828Z</time></trkpt><trkpt lat="44.3647447" lon="11.2717481"><ele>318.0</ele><time>2026-04-04T13:56:25.828Z</time></trkpt><trkpt lat="44.3646038" lon="11.2717117"><ele>318.0</ele><time>2026-04-04T13:56:26.828Z</time></trkpt><trkpt lat="44.364476" lon="11.271698"><ele>318.0</ele><time>2026-04-04T13:56:27.827Z</time></trkpt><trkpt lat="44.3643647" lon="11.2717194"><ele>318.2</ele><time>2026-04-04T13:56:28.826Z</time></trkpt><trkpt lat="44.3642652" lon="11.2717855"><ele>318.4</ele><time>2026-04-04T13:56:29.828Z</time></trkpt><trkpt lat="44.3641777" lon="11.2718933"><ele>318.59999999999997</ele><time>2026-04-04T13:56:30.827Z</time></trkpt><trkpt lat="44.3641087" lon="11.2720185"><ele>318.8</ele><time>2026-04-04T13:56:31.828Z</time></trkpt><trkpt lat="44.3640675" lon="11.2721421"><ele>319.0</ele><time>2026-04-04T13:56:32.828Z</time></trkpt><trkpt lat="44.3640624" lon="11.2722467"><ele>319.0</ele><time>2026-04-04T13:56:33.828Z</time></trkpt><trkpt lat="44.3641377" lon="11.2723374"><ele>319.0</ele><time>2026-04-04T13:56:35.827Z</time></trkpt><trkpt lat="44.3642333" lon="11.2722279"><ele>319.0</ele><time>2026-04-04T13:56:37.827Z</time></trkpt><trkpt lat="44.364282" lon="11.2721132"><ele>319.0</ele><time>2026-04-04T13:56:38.828Z</time></trkpt><trkpt lat="44.3643438" lon="11.2720305"><ele>319.0</ele><time>2026-04-04T13:56:39.828Z</time></trkpt><trkpt lat="44.3644169" lon="11.2719905"><ele>319.0</ele><time>2026-04-04T13:56:40.828Z</time></trkpt><trkpt lat="44.3644966" lon="11.2720024"><ele>319.0</ele><time>2026-04-04T13:56:41.827Z</time></trkpt><trkpt lat="44.3645896" lon="11.2720472"><ele>319.0</ele><time>2026-04-04T13:56:42.828Z</time></trkpt><trkpt lat="44.364707" lon="11.2721048"><ele>319.0</ele><time>2026-04-04T13:56:43.828Z</time></trkpt><trkpt lat="44.3648396" lon="11.2721734"><ele>319.0</ele><time>2026-04-04T13:56:44.828Z</time></trkpt><trkpt lat="44.3649903" lon="11.2722525"><ele>325.0</ele><time>2026-04-04T13:56:45.828Z</time></trkpt><trkpt lat="44.3651259" lon="11.2723285"><ele>331.0</ele><time>2026-04-04T13:56:46.828Z</time></trkpt><trkpt lat="44.3652475" lon="11.272388"><ele>337.0</ele><time>2026-04-04T13:56:47.827Z</time></trkpt><trkpt lat="44.3653614" lon="11.2724288"><ele>343.0</ele><time>2026-04-04T13:56:48.828Z</time></trkpt><trkpt lat="44.3654676" lon="11.2724473"><ele>342.16666666666663</ele><time>2026-04-04T13:56:49.828Z</time></trkpt><trkpt lat="44.3655667" lon="11.2724487"><ele>341.3333333333333</ele><time>2026-04-04T13:56:50.826Z</time></trkpt><trkpt lat="44.3656508" lon="11.2724531"><ele>340.5</ele><time>2026-04-04T13:56:51.827Z</time></trkpt><trkpt lat="44.3657097" lon="11.2725143"><ele>339.6666666666667</ele><time>2026-04-04T13:56:52.827Z</time></trkpt><trkpt lat="44.3656969" lon="11.272667"><ele>338.83333333333337</ele><time>2026-04-04T13:56:54.828Z</time></trkpt><trkpt lat="44.365633" lon="11.2727057"><ele>338.0</ele><time>2026-04-04T13:56:55.828Z</time></trkpt><trkpt lat="44.3655381" lon="11.2727168"><ele>339.25</ele><time>2026-04-04T13:56:56.828Z</time></trkpt><trkpt lat="44.3654143" lon="11.272716"><ele>340.5</ele><time>2026-04-04T13:56:57.827Z</time></trkpt><trkpt lat="44.365277" lon="11.2726969"><ele>341.75</ele><time>2026-04-04T13:56:58.827Z</time></trkpt><trkpt lat="44.3651401" lon="11.2726577"><ele>343.0</ele><time>2026-04-04T13:56:59.828Z</time></trkpt><trkpt lat="44.3650162" lon="11.2725999"><ele>343.0</ele><time>2026-04-04T13:57:00.828Z</time></trkpt><trkpt lat="44.3648993" lon="11.2725524"><ele>343.0</ele><time>2026-04-04T13:57:01.827Z</time></trkpt><trkpt lat="44.3647822" lon="11.272544"><ele>343.0</ele><time>2026-04-04T13:57:02.827Z</time></trkpt><trkpt lat="44.364669" lon="11.2725896"><ele>343.0</ele><time>2026-04-04T13:57:03.826Z</time></trkpt><trkpt lat="44.3645623" lon="11.272698"><ele>344.3333333333333</ele><time>2026-04-04T13:57:04.828Z</time></trkpt><trkpt lat="44.3644569" lon="11.2728648"><ele>345.6666666666667</ele><time>2026-04-04T13:57:05.826Z</time></trkpt><trkpt lat="44.3643418" lon="11.2730621"><ele>347.0</ele><time>2026-04-04T13:57:06.828Z</time></trkpt><trkpt lat="44.3642185" lon="11.2732761"><ele>347.0</ele><time>2026-04-04T13:57:07.826Z</time></trkpt><trkpt lat="44.3641161" lon="11.2734724"><ele>347.0</ele><time>2026-04-04T13:57:08.827Z</time></trkpt><trkpt lat="44.3640172" lon="11.2736517"><ele>347.0</ele><time>2026-04-04T13:57:09.827Z</time></trkpt><trkpt lat="44.3639049" lon="11.2737895"><ele>349.0</ele><time>2026-04-04T13:57:10.828Z</time></trkpt><trkpt lat="44.3637713" lon="11.273898"><ele>351.0</ele><time>2026-04-04T13:57:11.828Z</time></trkpt><trkpt lat="44.3636219" lon="11.2739919"><ele>353.0</ele><time>2026-04-04T13:57:12.828Z</time></trkpt><trkpt lat="44.3634724" lon="11.2740754"><ele>353.0</ele><time>2026-04-04T13:57:13.828Z</time></trkpt><trkpt lat="44.3633469" lon="11.274155"><ele>353.0</ele><time>2026-04-04T13:57:14.826Z</time></trkpt><trkpt lat="44.3632546" lon="11.274248"><ele>353.0</ele><time>2026-04-04T13:57:15.827Z</time></trkpt><trkpt lat="44.3631969" lon="11.2743758"><ele>353.0</ele><time>2026-04-04T13:57:16.828Z</time></trkpt><trkpt lat="44.363177" lon="11.2745465"><ele>353.0</ele><time>2026-04-04T13:57:17.828Z</time></trkpt><trkpt lat="44.363168" lon="11.2747233"><ele>353.0</ele><time>2026-04-04T13:57:18.827Z</time></trkpt><trkpt lat="44.363135" lon="11.2748972"><ele>353.0</ele><time>2026-04-04T13:57:19.828Z</time></trkpt><trkpt lat="44.3630761" lon="11.2750641"><ele>353.0</ele><time>2026-04-04T13:57:20.828Z</time></trkpt><trkpt lat="44.3629934" lon="11.2752288"><ele>351.5</ele><time>2026-04-04T13:57:21.826Z</time></trkpt><trkpt lat="44.3629055" lon="11.2753786"><ele>350.0</ele><time>2026-04-04T13:57:22.828Z</time></trkpt><trkpt lat="44.3628204" lon="11.2755111"><ele>348.5</ele><time>2026-04-04T13:57:23.828Z</time></trkpt><trkpt lat="44.3627458" lon="11.2756434"><ele>347.0</ele><time>2026-04-04T13:57:24.827Z</time></trkpt><trkpt lat="44.3626819" lon="11.2757899"><ele>350.75</ele><time>2026-04-04T13:57:25.827Z</time></trkpt><trkpt lat="44.362632" lon="11.2759391"><ele>354.5</ele><time>2026-04-04T13:57:26.828Z</time></trkpt><trkpt lat="44.3625744" lon="11.2760615"><ele>358.25</ele><time>2026-04-04T13:57:27.828Z</time></trkpt><trkpt lat="44.3624896" lon="11.2761771"><ele>362.0</ele><time>2026-04-04T13:57:28.828Z</time></trkpt><trkpt lat="44.3623805" lon="11.2762776"><ele>362.0</ele><time>2026-04-04T13:57:29.828Z</time></trkpt><trkpt lat="44.3622623" lon="11.2763855"><ele>362.0</ele><time>2026-04-04T13:57:30.827Z</time></trkpt><trkpt lat="44.3621395" lon="11.2765142"><ele>362.0</ele><time>2026-04-04T13:57:31.827Z</time></trkpt><trkpt lat="44.3620253" lon="11.2766463"><ele>362.0</ele><time>2026-04-04T13:57:32.827Z</time></trkpt><trkpt lat="44.3619216" lon="11.2767767"><ele>363.0</ele><time>2026-04-04T13:57:33.827Z</time></trkpt><trkpt lat="44.3618284" lon="11.2769051"><ele>364.0</ele><time>2026-04-04T13:57:34.827Z</time></trkpt><trkpt lat="44.3617495" lon="11.2770255"><ele>365.0</ele><time>2026-04-04T13:57:35.827Z</time></trkpt><trkpt lat="44.3616808" lon="11.2771464"><ele>366.0</ele><time>2026-04-04T13:57:36.827Z</time></trkpt><trkpt lat="44.3616155" lon="11.2772722"><ele>367.8</ele><time>2026-04-04T13:57:37.828Z</time></trkpt><trkpt lat="44.3615511" lon="11.2773992"><ele>369.6</ele><time>2026-04-04T13:57:38.827Z</time></trkpt><trkpt lat="44.3614853" lon="11.2775244"><ele>371.4</ele><time>2026-04-04T13:57:39.827Z</time></trkpt><trkpt lat="44.3614168" lon="11.2776402"><ele>373.2</ele><time>2026-04-04T13:57:40.827Z</time></trkpt><trkpt lat="44.3613413" lon="11.2777473"><ele>375.0</ele><time>2026-04-04T13:57:41.828Z</time></trkpt><trkpt lat="44.3612596" lon="11.2778505"><ele>375.4</ele><time>2026-04-04T13:57:42.828Z</time></trkpt><trkpt lat="44.3611705" lon="11.2779434"><ele>375.8</ele><time>2026-04-04T13:57:43.827Z</time></trkpt><trkpt lat="44.3610809" lon="11.278029"><ele>376.20000000000005</ele><time>2026-04-04T13:57:44.828Z</time></trkpt><trkpt lat="44.360988" lon="11.278098"><ele>376.6</ele><time>2026-04-04T13:57:45.827Z</time></trkpt><trkpt lat="44.3608888" lon="11.2781499"><ele>377.0</ele><time>2026-04-04T13:57:46.828Z</time></trkpt><trkpt lat="44.3607878" lon="11.2781802"><ele>377.40000000000003</ele><time>2026-04-04T13:57:47.828Z</time></trkpt><trkpt lat="44.3606844" lon="11.2781902"><ele>377.8</ele><time>2026-04-04T13:57:48.827Z</time></trkpt><trkpt lat="44.3605807" lon="11.2781848"><ele>378.2</ele><time>2026-04-04T13:57:49.827Z</time></trkpt><trkpt lat="44.3604822" lon="11.2781811"><ele>378.6</ele><time>2026-04-04T13:57:50.828Z</time></trkpt><trkpt lat="44.3603807" lon="11.2781669"><ele>379.0</ele><time>2026-04-04T13:57:51.827Z</time></trkpt><trkpt lat="44.3602828" lon="11.278143"><ele>378.0</ele><time>2026-04-04T13:57:52.828Z</time></trkpt><trkpt lat="44.3601872" lon="11.2780999"><ele>377.0</ele><time>2026-04-04T13:57:53.828Z</time></trkpt><trkpt lat="44.360104" lon="11.2780507"><ele>376.0</ele><time>2026-04-04T13:57:54.827Z</time></trkpt><trkpt lat="44.3600215" lon="11.2780182"><ele>375.0</ele><time>2026-04-04T13:57:55.828Z</time></trkpt><trkpt lat="44.3599404" lon="11.2780118"><ele>374.0</ele><time>2026-04-04T13:57:56.828Z</time></trkpt><trkpt lat="44.3598692" lon="11.2780304"><ele>373.0</ele><time>2026-04-04T13:57:57.828Z</time></trkpt><trkpt lat="44.3598047" lon="11.2780609"><ele>373.0</ele><time>2026-04-04T13:57:58.828Z</time></trkpt><trkpt lat="44.3597473" lon="11.2780982"><ele>373.0</ele><time>2026-04-04T13:57:59.828Z</time></trkpt><trkpt lat="44.3596471" lon="11.2781839"><ele>373.0</ele><time>2026-04-04T13:58:01.827Z</time></trkpt><trkpt lat="44.3595482" lon="11.27817"><ele>373.0</ele><time>2026-04-04T13:58:03.827Z</time></trkpt><trkpt lat="44.3594319" lon="11.2781622"><ele>373.0</ele><time>2026-04-04T13:58:05.827Z</time></trkpt><trkpt lat="44.3593129" lon="11.2781781"><ele>373.79999999999995</ele><time>2026-04-04T13:58:07.827Z</time></trkpt><trkpt lat="44.3592013" lon="11.2782231"><ele>374.6</ele><time>2026-04-04T13:58:09.826Z</time></trkpt><trkpt lat="44.359103" lon="11.2782874"><ele>375.4</ele><time>2026-04-04T13:58:11.828Z</time></trkpt><trkpt lat="44.3590023" lon="11.2783924"><ele>376.20000000000005</ele><time>2026-04-04T13:58:13.828Z</time></trkpt><trkpt lat="44.3589462" lon="11.2784563"><ele>377.0</ele><time>2026-04-04T13:58:14.827Z</time></trkpt><trkpt lat="44.3588895" lon="11.2785271"><ele>375.33333333333337</ele><time>2026-04-04T13:58:15.828Z</time></trkpt><trkpt lat="44.3588343" lon="11.2786024"><ele>373.6666666666667</ele><time>2026-04-04T13:58:16.828Z</time></trkpt><trkpt lat="44.3587785" lon="11.278678"><ele>372.0</ele><time>2026-04-04T13:58:17.827Z</time></trkpt><trkpt lat="44.3587268" lon="11.2787581"><ele>370.3333333333333</ele><time>2026-04-04T13:58:18.827Z</time></trkpt><trkpt lat="44.3586776" lon="11.2788367"><ele>368.66666666666663</ele><time>2026-04-04T13:58:19.825Z</time></trkpt><trkpt lat="44.3586309" lon="11.2789183"><ele>367.0</ele><time>2026-04-04T13:58:20.826Z</time></trkpt><trkpt lat="44.3585873" lon="11.2789979"><ele>367.0</ele><time>2026-04-04T13:58:21.827Z</time></trkpt><trkpt lat="44.3585454" lon="11.2790719"><ele>367.0</ele><time>2026-04-04T13:58:22.827Z</time></trkpt><trkpt lat="44.3585038" lon="11.2791395"><ele>367.0</ele><time>2026-04-04T13:58:23.826Z</time></trkpt><trkpt lat="44.3584181" lon="11.2792532"><ele>367.0</ele><time>2026-04-04T13:58:25.826Z</time></trkpt><trkpt lat="44.3583375" lon="11.2793452"><ele>367.0</ele><time>2026-04-04T13:58:27.826Z</time></trkpt><trkpt lat="44.3582627" lon="11.2794487"><ele>367.0</ele><time>2026-04-04T13:58:29.826Z</time></trkpt><trkpt lat="44.3581605" lon="11.2795706"><ele>367.0</ele><time>2026-04-04T13:58:31.827Z</time></trkpt><trkpt lat="44.3580918" lon="11.2796508"><ele>367.0</ele><time>2026-04-04T13:58:32.827Z</time></trkpt><trkpt lat="44.3580171" lon="11.27974"><ele>367.0</ele><time>2026-04-04T13:58:33.827Z</time></trkpt><trkpt lat="44.3579385" lon="11.2798339"><ele>367.0</ele><time>2026-04-04T13:58:34.827Z</time></trkpt><trkpt lat="44.357858" lon="11.2799412"><ele>365.0</ele><time>2026-04-04T13:58:35.827Z</time></trkpt><trkpt lat="44.3577813" lon="11.2800678"><ele>363.0</ele><time>2026-04-04T13:58:36.827Z</time></trkpt><trkpt lat="44.3577015" lon="11.2802114"><ele>361.0</ele><time>2026-04-04T13:58:37.827Z</time></trkpt><trkpt lat="44.3576182" lon="11.2803664"><ele>359.0</ele><time>2026-04-04T13:58:38.826Z</time></trkpt><trkpt lat="44.3575301" lon="11.280532"><ele>363.6666666666667</ele><time>2026-04-04T13:58:39.825Z</time></trkpt><trkpt lat="44.3574415" lon="11.2807056"><ele>368.3333333333333</ele><time>2026-04-04T13:58:40.826Z</time></trkpt><trkpt lat="44.3573479" lon="11.2808875"><ele>373.0</ele><time>2026-04-04T13:58:41.826Z</time></trkpt><trkpt lat="44.3572603" lon="11.281063"><ele>368.75</ele><time>2026-04-04T13:58:42.827Z</time></trkpt><trkpt lat="44.3571807" lon="11.2812322"><ele>364.5</ele><time>2026-04-04T13:58:43.826Z</time></trkpt><trkpt lat="44.3571107" lon="11.2813918"><ele>360.25</ele><time>2026-04-04T13:58:44.826Z</time></trkpt><trkpt lat="44.3570497" lon="11.2815368"><ele>356.0</ele><time>2026-04-04T13:58:45.826Z</time></trkpt><trkpt lat="44.3569852" lon="11.2816663"><ele>356.0</ele><time>2026-04-04T13:58:46.826Z</time></trkpt><trkpt lat="44.3569022" lon="11.2817595"><ele>356.0</ele><time>2026-04-04T13:58:47.826Z</time></trkpt><trkpt lat="44.3568073" lon="11.2818301"><ele>356.0</ele><time>2026-04-04T13:58:48.825Z</time></trkpt><trkpt lat="44.3567057" lon="11.2818978"><ele>356.0</ele><time>2026-04-04T13:58:49.827Z</time></trkpt><trkpt lat="44.3565961" lon="11.2819669"><ele>356.0</ele><time>2026-04-04T13:58:50.826Z</time></trkpt><trkpt lat="44.3564822" lon="11.2820433"><ele>356.0</ele><time>2026-04-04T13:58:51.827Z</time></trkpt><trkpt lat="44.3563718" lon="11.2821134"><ele>356.0</ele><time>2026-04-04T13:58:52.827Z</time></trkpt><trkpt lat="44.3562634" lon="11.2821804"><ele>356.0</ele><time>2026-04-04T13:58:53.827Z</time></trkpt><trkpt lat="44.3561626" lon="11.2822578"><ele>356.0</ele><time>2026-04-04T13:58:54.826Z</time></trkpt><trkpt lat="44.3560753" lon="11.2823543"><ele>353.25</ele><time>2026-04-04T13:58:55.827Z</time></trkpt><trkpt lat="44.3559908" lon="11.2824653"><ele>350.5</ele><time>2026-04-04T13:58:56.826Z</time></trkpt><trkpt lat="44.3559256" lon="11.2825825"><ele>347.75</ele><time>2026-04-04T13:58:57.825Z</time></trkpt><trkpt lat="44.3558409" lon="11.2826908"><ele>345.0</ele><time>2026-04-04T13:58:58.825Z</time></trkpt><trkpt lat="44.355746" lon="11.2827974"><ele>345.0</ele><time>2026-04-04T13:58:59.826Z</time></trkpt><trkpt lat="44.3556405" lon="11.2829"><ele>345.0</ele><time>2026-04-04T13:59:00.826Z</time></trkpt><trkpt lat="44.3555307" lon="11.2830044"><ele>345.0</ele><time>2026-04-04T13:59:01.827Z</time></trkpt><trkpt lat="44.3554204" lon="11.2831031"><ele>345.0</ele><time>2026-04-04T13:59:02.827Z</time></trkpt><trkpt lat="44.355308" lon="11.2831872"><ele>344.25</ele><time>2026-04-04T13:59:03.827Z</time></trkpt><trkpt lat="44.3551919" lon="11.2832525"><ele>343.5</ele><time>2026-04-04T13:59:04.825Z</time></trkpt><trkpt lat="44.3550735" lon="11.2832943"><ele>342.75</ele><time>2026-04-04T13:59:05.826Z</time></trkpt><trkpt lat="44.3549567" lon="11.283345"><ele>342.0</ele><time>2026-04-04T13:59:06.826Z</time></trkpt><trkpt lat="44.3548505" lon="11.2834249"><ele>342.0</ele><time>2026-04-04T13:59:07.826Z</time></trkpt><trkpt lat="44.354738" lon="11.2835215"><ele>342.0</ele><time>2026-04-04T13:59:08.827Z</time></trkpt><trkpt lat="44.3546614" lon="11.283707"><ele>342.0</ele><time>2026-04-04T13:59:09.827Z</time></trkpt><trkpt lat="44.3545583" lon="11.2838342"><ele>342.0</ele><time>2026-04-04T13:59:10.826Z</time></trkpt><trkpt lat="44.3544613" lon="11.2839639"><ele>338.5</ele><time>2026-04-04T13:59:11.826Z</time></trkpt><trkpt lat="44.354364" lon="11.2840889"><ele>335.0</ele><time>2026-04-04T13:59:12.826Z</time></trkpt><trkpt lat="44.3542674" lon="11.2842212"><ele>331.5</ele><time>2026-04-04T13:59:13.826Z</time></trkpt><trkpt lat="44.3541741" lon="11.2843545"><ele>328.0</ele><time>2026-04-04T13:59:14.826Z</time></trkpt><trkpt lat="44.3540784" lon="11.2844774"><ele>328.0</ele><time>2026-04-04T13:59:15.827Z</time></trkpt><trkpt lat="44.3539872" lon="11.28459"><ele>328.0</ele><time>2026-04-04T13:59:16.826Z</time></trkpt><trkpt lat="44.3539044" lon="11.2846861"><ele>328.0</ele><time>2026-04-04T13:59:17.827Z</time></trkpt><trkpt lat="44.3538297" lon="11.2847753"><ele>328.0</ele><time>2026-04-04T13:59:18.827Z</time></trkpt><trkpt lat="44.3537649" lon="11.2848526"><ele>328.0</ele><time>2026-04-04T13:59:19.827Z</time></trkpt><trkpt lat="44.3536937" lon="11.2849232"><ele>328.79999999999995</ele><time>2026-04-04T13:59:20.827Z</time></trkpt><trkpt lat="44.3536131" lon="11.2849631"><ele>329.6</ele><time>2026-04-04T13:59:21.827Z</time></trkpt><trkpt lat="44.3535107" lon="11.2850096"><ele>330.4</ele><time>2026-04-04T13:59:22.826Z</time></trkpt><trkpt lat="44.3533846" lon="11.2850464"><ele>331.20000000000005</ele><time>2026-04-04T13:59:23.826Z</time></trkpt><trkpt lat="44.3532606" lon="11.285081"><ele>332.0</ele><time>2026-04-04T13:59:24.826Z</time></trkpt><trkpt lat="44.3531373" lon="11.2851138"><ele>328.75</ele><time>2026-04-04T13:59:25.826Z</time></trkpt><trkpt lat="44.3530161" lon="11.2851405"><ele>325.5</ele><time>2026-04-04T13:59:26.825Z</time></trkpt><trkpt lat="44.3528993" lon="11.2851573"><ele>322.25</ele><time>2026-04-04T13:59:27.825Z</time></trkpt><trkpt lat="44.3527843" lon="11.2851629"><ele>319.0</ele><time>2026-04-04T13:59:28.826Z</time></trkpt><trkpt lat="44.3526687" lon="11.2851667"><ele>319.0</ele><time>2026-04-04T13:59:29.826Z</time></trkpt><trkpt lat="44.3525549" lon="11.2851674"><ele>319.0</ele><time>2026-04-04T13:59:30.827Z</time></trkpt><trkpt lat="44.3524327" lon="11.2851695"><ele>319.0</ele><time>2026-04-04T13:59:31.827Z</time></trkpt><trkpt lat="44.3523051" lon="11.2851694"><ele>319.0</ele><time>2026-04-04T13:59:32.827Z</time></trkpt><trkpt lat="44.3521843" lon="11.2852523"><ele>318.8</ele><time>2026-04-04T13:59:33.826Z</time></trkpt><trkpt lat="44.3520813" lon="11.2853603"><ele>318.59999999999997</ele><time>2026-04-04T13:59:34.827Z</time></trkpt><trkpt lat="44.3519842" lon="11.2854447"><ele>318.4</ele><time>2026-04-04T13:59:35.827Z</time></trkpt><trkpt lat="44.351899" lon="11.2855285"><ele>318.2</ele><time>2026-04-04T13:59:36.826Z</time></trkpt><trkpt lat="44.3518265" lon="11.2856058"><ele>318.0</ele><time>2026-04-04T13:59:37.826Z</time></trkpt><trkpt lat="44.3517607" lon="11.2856721"><ele>320.4285714285714</ele><time>2026-04-04T13:59:38.826Z</time></trkpt><trkpt lat="44.3517059" lon="11.2857364"><ele>322.8571428571429</ele><time>2026-04-04T13:59:39.826Z</time></trkpt><trkpt lat="44.3516549" lon="11.2858046"><ele>325.2857142857143</ele><time>2026-04-04T13:59:40.826Z</time></trkpt><trkpt lat="44.3516049" lon="11.2858692"><ele>327.71428571428567</ele><time>2026-04-04T13:59:41.827Z</time></trkpt><trkpt lat="44.3515513" lon="11.285921"><ele>330.1428571428571</ele><time>2026-04-04T13:59:42.826Z</time></trkpt><trkpt lat="44.3514958" lon="11.2859799"><ele>332.57142857142856</ele><time>2026-04-04T13:59:43.827Z</time></trkpt><trkpt lat="44.3514343" lon="11.2860386"><ele>335.0</ele><time>2026-04-04T13:59:44.827Z</time></trkpt><trkpt lat="44.3513728" lon="11.2860882"><ele>336.6666666666667</ele><time>2026-04-04T13:59:45.827Z</time></trkpt><trkpt lat="44.3513104" lon="11.2861305"><ele>338.33333333333337</ele><time>2026-04-04T13:59:46.827Z</time></trkpt><trkpt lat="44.3512453" lon="11.2861591"><ele>340.0</ele><time>2026-04-04T13:59:47.826Z</time></trkpt><trkpt lat="44.3511722" lon="11.286181"><ele>341.6666666666667</ele><time>2026-04-04T13:59:48.826Z</time></trkpt><trkpt lat="44.3510999" lon="11.28618"><ele>343.3333333333333</ele><time>2026-04-04T13:59:49.826Z</time></trkpt><trkpt lat="44.3509998" lon="11.2860875"><ele>345.0</ele><time>2026-04-04T13:59:51.826Z</time></trkpt><trkpt lat="44.350967" lon="11.2860016"><ele>345.0</ele><time>2026-04-04T13:59:52.826Z</time></trkpt><trkpt lat="44.3509569" lon="11.285896"><ele>345.0</ele><time>2026-04-04T13:59:53.827Z</time></trkpt><trkpt lat="44.3509487" lon="11.285766"><ele>345.0</ele><time>2026-04-04T13:59:54.826Z</time></trkpt><trkpt lat="44.3509418" lon="11.2856122"><ele>345.0</ele><time>2026-04-04T13:59:55.826Z</time></trkpt><trkpt lat="44.3509262" lon="11.2854544"><ele>345.0</ele><time>2026-04-04T13:59:56.827Z</time></trkpt><trkpt lat="44.3509045" lon="11.2852943"><ele>345.75</ele><time>2026-04-04T13:59:57.825Z</time></trkpt><trkpt lat="44.3508708" lon="11.2851325"><ele>346.5</ele><time>2026-04-04T13:59:58.826Z</time></trkpt><trkpt lat="44.3508229" lon="11.2849718"><ele>347.25</ele><time>2026-04-04T13:59:59.827Z</time></trkpt><trkpt lat="44.3507775" lon="11.2848004"><ele>348.0</ele><time>2026-04-04T14:00:00.826Z</time></trkpt><trkpt lat="44.3507355" lon="11.28464"><ele>346.0</ele><time>2026-04-04T14:00:01.826Z</time></trkpt><trkpt lat="44.3506931" lon="11.2844891"><ele>344.0</ele><time>2026-04-04T14:00:02.827Z</time></trkpt><trkpt lat="44.3506436" lon="11.284359"><ele>342.0</ele><time>2026-04-04T14:00:03.826Z</time></trkpt><trkpt lat="44.3505881" lon="11.2842425"><ele>340.0</ele><time>2026-04-04T14:00:04.827Z</time></trkpt><trkpt lat="44.3505332" lon="11.2841311"><ele>338.0</ele><time>2026-04-04T14:00:05.827Z</time></trkpt><trkpt lat="44.3504684" lon="11.2840259"><ele>337.79999999999995</ele><time>2026-04-04T14:00:06.826Z</time></trkpt><trkpt lat="44.3503999" lon="11.2839402"><ele>337.6</ele><time>2026-04-04T14:00:07.826Z</time></trkpt><trkpt lat="44.3503338" lon="11.2838798"><ele>337.4</ele><time>2026-04-04T14:00:08.827Z</time></trkpt><trkpt lat="44.3502507" lon="11.2838439"><ele>337.20000000000005</ele><time>2026-04-04T14:00:09.826Z</time></trkpt><trkpt lat="44.3501411" lon="11.2838259"><ele>337.0</ele><time>2026-04-04T14:00:10.827Z</time></trkpt><trkpt lat="44.3500176" lon="11.2838282"><ele>337.0</ele><time>2026-04-04T14:00:11.827Z</time></trkpt><trkpt lat="44.3498898" lon="11.2838326"><ele>337.0</ele><time>2026-04-04T14:00:12.826Z</time></trkpt><trkpt lat="44.3497727" lon="11.2838306"><ele>337.0</ele><time>2026-04-04T14:00:13.827Z</time></trkpt><trkpt lat="44.3496615" lon="11.2838319"><ele>337.0</ele><time>2026-04-04T14:00:14.827Z</time></trkpt><trkpt lat="44.3495649" lon="11.2838311"><ele>339.8333333333333</ele><time>2026-04-04T14:00:15.827Z</time></trkpt><trkpt lat="44.3494781" lon="11.2838284"><ele>342.66666666666663</ele><time>2026-04-04T14:00:16.827Z</time></trkpt><trkpt lat="44.3493869" lon="11.283825"><ele>345.5</ele><time>2026-04-04T14:00:17.826Z</time></trkpt><trkpt lat="44.3493033" lon="11.283818"><ele>348.3333333333333</ele><time>2026-04-04T14:00:18.827Z</time></trkpt><trkpt lat="44.3491985" lon="11.2838312"><ele>351.1666666666667</ele><time>2026-04-04T14:00:20.827Z</time></trkpt><trkpt lat="44.3491268" lon="11.2837971"><ele>354.0</ele><time>2026-04-04T14:00:23.826Z</time></trkpt><trkpt lat="44.3490657" lon="11.2837546"><ele>354.0</ele><time>2026-04-04T14:00:29.826Z</time></trkpt><trkpt lat="44.3489557" lon="11.283733"><ele>354.0</ele><time>2026-04-04T14:00:31.827Z</time></trkpt><trkpt lat="44.3488739" lon="11.283681"><ele>354.0</ele><time>2026-04-04T14:00:32.826Z</time></trkpt><trkpt lat="44.3487848" lon="11.2836048"><ele>354.0</ele><time>2026-04-04T14:00:33.826Z</time></trkpt><trkpt lat="44.348692" lon="11.2835379"><ele>354.0</ele><time>2026-04-04T14:00:34.826Z</time></trkpt><trkpt lat="44.3486017" lon="11.2834647"><ele>357.1666666666667</ele><time>2026-04-04T14:00:35.827Z</time></trkpt><trkpt lat="44.3485126" lon="11.2834017"><ele>360.3333333333333</ele><time>2026-04-04T14:00:36.827Z</time></trkpt><trkpt lat="44.3484296" lon="11.2833528"><ele>363.5</ele><time>2026-04-04T14:00:37.826Z</time></trkpt><trkpt lat="44.3483516" lon="11.2833134"><ele>366.66666666666663</ele><time>2026-04-04T14:00:38.827Z</time></trkpt><trkpt lat="44.348266" lon="11.2832946"><ele>369.8333333333333</ele><time>2026-04-04T14:00:39.826Z</time></trkpt><trkpt lat="44.3481838" lon="11.2833099"><ele>373.0</ele><time>2026-04-04T14:00:40.826Z</time></trkpt><trkpt lat="44.3481033" lon="11.2833497"><ele>371.4</ele><time>2026-04-04T14:00:41.826Z</time></trkpt><trkpt lat="44.3480199" lon="11.2834167"><ele>369.79999999999995</ele><time>2026-04-04T14:00:42.827Z</time></trkpt><trkpt lat="44.347941" lon="11.2835055"><ele>368.2</ele><time>2026-04-04T14:00:43.826Z</time></trkpt><trkpt lat="44.3478826" lon="11.2835963"><ele>366.6</ele><time>2026-04-04T14:00:44.826Z</time></trkpt><trkpt lat="44.3478396" lon="11.2836789"><ele>365.0</ele><time>2026-04-04T14:00:45.826Z</time></trkpt><trkpt lat="44.3477788" lon="11.2838177"><ele>368.0</ele><time>2026-04-04T14:00:47.826Z</time></trkpt><trkpt lat="44.3477185" lon="11.2839779"><ele>371.0</ele><time>2026-04-04T14:00:49.826Z</time></trkpt><trkpt lat="44.3476865" lon="11.2840639"><ele>374.0</ele><time>2026-04-04T14:00:50.826Z</time></trkpt><trkpt lat="44.3476542" lon="11.2841455"><ele>377.0</ele><time>2026-04-04T14:00:51.826Z</time></trkpt><trkpt lat="44.3476226" lon="11.2842317"><ele>380.0</ele><time>2026-04-04T14:00:52.825Z</time></trkpt><trkpt lat="44.34759" lon="11.284318"><ele>383.0</ele><time>2026-04-04T14:00:53.826Z</time></trkpt><trkpt lat="44.3475501" lon="11.2844055"><ele>383.0</ele><time>2026-04-04T14:00:54.827Z</time></trkpt><trkpt lat="44.3474998" lon="11.2844976"><ele>383.0</ele><time>2026-04-04T14:00:55.827Z</time></trkpt><trkpt lat="44.3474376" lon="11.2845884"><ele>383.0</ele><time>2026-04-04T14:00:56.827Z</time></trkpt><trkpt lat="44.3473642" lon="11.2846765"><ele>383.0</ele><time>2026-04-04T14:00:57.826Z</time></trkpt><trkpt lat="44.3472842" lon="11.2847592"><ele>383.0</ele><time>2026-04-04T14:00:58.827Z</time></trkpt><trkpt lat="44.3472103" lon="11.2848302"><ele>382.6666666666667</ele><time>2026-04-04T14:00:59.826Z</time></trkpt><trkpt lat="44.3471447" lon="11.2848879"><ele>382.33333333333337</ele><time>2026-04-04T14:01:00.826Z</time></trkpt><trkpt lat="44.3470796" lon="11.2849361"><ele>382.0</ele><time>2026-04-04T14:01:01.826Z</time></trkpt><trkpt lat="44.3470215" lon="11.2849826"><ele>381.6666666666667</ele><time>2026-04-04T14:01:02.825Z</time></trkpt><trkpt lat="44.3469259" lon="11.2850558"><ele>381.3333333333333</ele><time>2026-04-04T14:01:04.826Z</time></trkpt><trkpt lat="44.3468598" lon="11.285099"><ele>381.0</ele><time>2026-04-04T14:01:07.827Z</time></trkpt><trkpt lat="44.3467998" lon="11.2852076"><ele>381.0</ele><time>2026-04-04T14:01:11.826Z</time></trkpt><trkpt lat="44.3467118" lon="11.2853141"><ele>381.0</ele><time>2026-04-04T14:01:13.826Z</time></trkpt><trkpt lat="44.346626" lon="11.2854106"><ele>381.0</ele><time>2026-04-04T14:01:15.826Z</time></trkpt><trkpt lat="44.3465287" lon="11.2855157"><ele>381.0</ele><time>2026-04-04T14:01:17.825Z</time></trkpt><trkpt lat="44.3464551" lon="11.285654"><ele>381.20000000000005</ele><time>2026-04-04T14:01:19.825Z</time></trkpt><trkpt lat="44.3463864" lon="11.2857911"><ele>381.40000000000003</ele><time>2026-04-04T14:01:21.826Z</time></trkpt><trkpt lat="44.3463208" lon="11.2858695"><ele>381.6</ele><time>2026-04-04T14:01:23.825Z</time></trkpt><trkpt lat="44.3462657" lon="11.2859403"><ele>381.8</ele><time>2026-04-04T14:01:26.826Z</time></trkpt><trkpt lat="44.3461789" lon="11.2860603"><ele>382.0</ele><time>2026-04-04T14:01:28.825Z</time></trkpt><trkpt lat="44.3460972" lon="11.2861476"><ele>382.0</ele><time>2026-04-04T14:01:29.826Z</time></trkpt><trkpt lat="44.3459964" lon="11.2862373"><ele>382.0</ele><time>2026-04-04T14:01:30.825Z</time></trkpt><trkpt lat="44.3458769" lon="11.2863188"><ele>382.0</ele><time>2026-04-04T14:01:31.825Z</time></trkpt><trkpt lat="44.345749" lon="11.286382"><ele>382.0</ele><time>2026-04-04T14:01:32.825Z</time></trkpt><trkpt lat="44.3456252" lon="11.2864421"><ele>385.6</ele><time>2026-04-04T14:01:33.825Z</time></trkpt><trkpt lat="44.3455184" lon="11.2864807"><ele>389.20000000000005</ele><time>2026-04-04T14:01:34.825Z</time></trkpt><trkpt lat="44.3454146" lon="11.2865245"><ele>392.8</ele><time>2026-04-04T14:01:35.825Z</time></trkpt><trkpt lat="44.3453063" lon="11.2865571"><ele>396.4</ele><time>2026-04-04T14:01:36.825Z</time></trkpt><trkpt lat="44.3452018" lon="11.2865856"><ele>400.0</ele><time>2026-04-04T14:01:37.826Z</time></trkpt><trkpt lat="44.3451068" lon="11.2866047"><ele>400.00000000000006</ele><time>2026-04-04T14:01:38.826Z</time></trkpt><trkpt lat="44.3450234" lon="11.286623"><ele>400.0</ele><time>2026-04-04T14:01:39.826Z</time></trkpt><trkpt lat="44.3449481" lon="11.2866541"><ele>400.0</ele><time>2026-04-04T14:01:40.825Z</time></trkpt><trkpt lat="44.3448791" lon="11.2867211"><ele>400.0</ele><time>2026-04-04T14:01:41.825Z</time></trkpt><trkpt lat="44.3448203" lon="11.2868149"><ele>400.00000000000006</ele><time>2026-04-04T14:01:42.824Z</time></trkpt><trkpt lat="44.3447724" lon="11.2869416"><ele>400.0</ele><time>2026-04-04T14:01:43.825Z</time></trkpt><trkpt lat="44.3447173" lon="11.2870814"><ele>398.25</ele><time>2026-04-04T14:01:44.826Z</time></trkpt><trkpt lat="44.3446577" lon="11.2872398"><ele>396.5</ele><time>2026-04-04T14:01:45.826Z</time></trkpt><trkpt lat="44.344588" lon="11.2874134"><ele>394.75</ele><time>2026-04-04T14:01:46.826Z</time></trkpt><trkpt lat="44.3445158" lon="11.287586"><ele>393.0</ele><time>2026-04-04T14:01:47.825Z</time></trkpt><trkpt lat="44.3444341" lon="11.2877515"><ele>393.0</ele><time>2026-04-04T14:01:48.826Z</time></trkpt><trkpt lat="44.3443491" lon="11.2879035"><ele>393.0</ele><time>2026-04-04T14:01:49.826Z</time></trkpt><trkpt lat="44.3442639" lon="11.2880417"><ele>393.0</ele><time>2026-04-04T14:01:50.825Z</time></trkpt><trkpt lat="44.3441754" lon="11.2881625"><ele>393.0</ele><time>2026-04-04T14:01:51.826Z</time></trkpt><trkpt lat="44.3440716" lon="11.2882575"><ele>396.0</ele><time>2026-04-04T14:01:52.826Z</time></trkpt><trkpt lat="44.3439536" lon="11.2883354"><ele>399.0</ele><time>2026-04-04T14:01:53.826Z</time></trkpt><trkpt lat="44.3438205" lon="11.2884094"><ele>402.0</ele><time>2026-04-04T14:01:54.826Z</time></trkpt><trkpt lat="44.3436797" lon="11.2884759"><ele>405.0</ele><time>2026-04-04T14:01:55.826Z</time></trkpt><trkpt lat="44.3435382" lon="11.2885281"><ele>405.0</ele><time>2026-04-04T14:01:56.826Z</time></trkpt><trkpt lat="44.3434006" lon="11.2885673"><ele>405.0</ele><time>2026-04-04T14:01:57.825Z</time></trkpt><trkpt lat="44.3432686" lon="11.2885916"><ele>405.0</ele><time>2026-04-04T14:01:58.826Z</time></trkpt><trkpt lat="44.3431485" lon="11.2886339"><ele>405.0</ele><time>2026-04-04T14:01:59.826Z</time></trkpt><trkpt lat="44.3430294" lon="11.2886945"><ele>403.0</ele><time>2026-04-04T14:02:00.826Z</time></trkpt><trkpt lat="44.3428887" lon="11.28877"><ele>401.0</ele><time>2026-04-04T14:02:01.826Z</time></trkpt><trkpt lat="44.3427378" lon="11.2888482"><ele>399.0</ele><time>2026-04-04T14:02:02.826Z</time></trkpt><trkpt lat="44.3425956" lon="11.2889417"><ele>405.66666666666663</ele><time>2026-04-04T14:02:03.825Z</time></trkpt><trkpt lat="44.3424566" lon="11.289046"><ele>412.3333333333333</ele><time>2026-04-04T14:02:04.825Z</time></trkpt><trkpt lat="44.3423149" lon="11.2891456"><ele>419.0</ele><time>2026-04-04T14:02:05.825Z</time></trkpt><trkpt lat="44.3421712" lon="11.2892301"><ele>419.0</ele><time>2026-04-04T14:02:06.825Z</time></trkpt><trkpt lat="44.3420294" lon="11.289304"><ele>419.0</ele><time>2026-04-04T14:02:07.825Z</time></trkpt><trkpt lat="44.341891" lon="11.2893687"><ele>419.0</ele><time>2026-04-04T14:02:08.825Z</time></trkpt><trkpt lat="44.3417564" lon="11.2894076"><ele>419.0</ele><time>2026-04-04T14:02:09.825Z</time></trkpt><trkpt lat="44.3416239" lon="11.2894265"><ele>419.0</ele><time>2026-04-04T14:02:10.826Z</time></trkpt><trkpt lat="44.3414865" lon="11.2894236"><ele>419.0</ele><time>2026-04-04T14:02:11.826Z</time></trkpt><trkpt lat="44.3413562" lon="11.2894164"><ele>419.0</ele><time>2026-04-04T14:02:12.826Z</time></trkpt><trkpt lat="44.3412414" lon="11.2894197"><ele>419.0</ele><time>2026-04-04T14:02:13.825Z</time></trkpt><trkpt lat="44.341145" lon="11.2894286"><ele>417.6</ele><time>2026-04-04T14:02:14.825Z</time></trkpt><trkpt lat="44.3410657" lon="11.2894545"><ele>416.2</ele><time>2026-04-04T14:02:15.825Z</time></trkpt><trkpt lat="44.3410154" lon="11.2895094"><ele>414.8</ele><time>2026-04-04T14:02:16.825Z</time></trkpt><trkpt lat="44.3410263" lon="11.2896143"><ele>413.40000000000003</ele><time>2026-04-04T14:02:18.825Z</time></trkpt><trkpt lat="44.3411545" lon="11.289621"><ele>412.0</ele><time>2026-04-04T14:02:20.826Z</time></trkpt><trkpt lat="44.3412548" lon="11.2896215"><ele>412.0</ele><time>2026-04-04T14:02:21.826Z</time></trkpt><trkpt lat="44.341367" lon="11.2896533"><ele>412.0</ele><time>2026-04-04T14:02:22.825Z</time></trkpt><trkpt lat="44.3414743" lon="11.2897192"><ele>412.0</ele><time>2026-04-04T14:02:23.825Z</time></trkpt><trkpt lat="44.3415991" lon="11.2897938"><ele>412.0</ele><time>2026-04-04T14:02:24.825Z</time></trkpt><trkpt lat="44.3417297" lon="11.2898248"><ele>424.33333333333337</ele><time>2026-04-04T14:02:25.825Z</time></trkpt><trkpt lat="44.3418759" lon="11.2898177"><ele>436.66666666666663</ele><time>2026-04-04T14:02:26.826Z</time></trkpt><trkpt lat="44.3420329" lon="11.289792"><ele>449.0</ele><time>2026-04-04T14:02:27.826Z</time></trkpt><trkpt lat="44.3421857" lon="11.2897804"><ele>450.25</ele><time>2026-04-04T14:02:28.826Z</time></trkpt><trkpt lat="44.3423282" lon="11.2897875"><ele>451.5</ele><time>2026-04-04T14:02:29.825Z</time></trkpt><trkpt lat="44.3424628" lon="11.289809"><ele>452.75</ele><time>2026-04-04T14:02:30.826Z</time></trkpt><trkpt lat="44.3425901" lon="11.2898372"><ele>454.0</ele><time>2026-04-04T14:02:31.826Z</time></trkpt><trkpt lat="44.3426998" lon="11.2898868"><ele>454.0</ele><time>2026-04-04T14:02:32.824Z</time></trkpt><trkpt lat="44.3427895" lon="11.2899598"><ele>454.0</ele><time>2026-04-04T14:02:33.825Z</time></trkpt><trkpt lat="44.3428792" lon="11.290003"><ele>454.0</ele><time>2026-04-04T14:02:34.825Z</time></trkpt><trkpt lat="44.3429681" lon="11.2900116"><ele>454.0</ele><time>2026-04-04T14:02:35.824Z</time></trkpt><trkpt lat="44.3430568" lon="11.289899"><ele>454.0</ele><time>2026-04-04T14:02:36.825Z</time></trkpt><trkpt lat="44.3431249" lon="11.2898566"><ele>456.1666666666667</ele><time>2026-04-04T14:02:37.826Z</time></trkpt><trkpt lat="44.3431954" lon="11.2898527"><ele>458.33333333333337</ele><time>2026-04-04T14:02:38.826Z</time></trkpt><trkpt lat="44.3432508" lon="11.2899017"><ele>460.5</ele><time>2026-04-04T14:02:39.826Z</time></trkpt><trkpt lat="44.3432933" lon="11.2899853"><ele>462.66666666666663</ele><time>2026-04-04T14:02:40.826Z</time></trkpt><trkpt lat="44.343294" lon="11.2900895"><ele>464.8333333333333</ele><time>2026-04-04T14:02:41.826Z</time></trkpt><trkpt lat="44.3432505" lon="11.2901809"><ele>467.0</ele><time>2026-04-04T14:02:42.825Z</time></trkpt><trkpt lat="44.3431738" lon="11.290247"><ele>467.0</ele><time>2026-04-04T14:02:43.825Z</time></trkpt><trkpt lat="44.3430721" lon="11.2903061"><ele>467.0</ele><time>2026-04-04T14:02:44.825Z</time></trkpt><trkpt lat="44.3429465" lon="11.290362"><ele>467.0</ele><time>2026-04-04T14:02:45.826Z</time></trkpt><trkpt lat="44.3428099" lon="11.2903944"><ele>467.0</ele><time>2026-04-04T14:02:46.825Z</time></trkpt><trkpt lat="44.3426577" lon="11.2903778"><ele>463.75</ele><time>2026-04-04T14:02:47.826Z</time></trkpt><trkpt lat="44.3425227" lon="11.2903402"><ele>460.5</ele><time>2026-04-04T14:02:48.825Z</time></trkpt><trkpt lat="44.3423998" lon="11.2903065"><ele>457.25</ele><time>2026-04-04T14:02:49.826Z</time></trkpt><trkpt lat="44.3422863" lon="11.290292"><ele>454.0</ele><time>2026-04-04T14:02:50.825Z</time></trkpt><trkpt lat="44.3421696" lon="11.29028"><ele>452.75</ele><time>2026-04-04T14:02:51.826Z</time></trkpt><trkpt lat="44.3420645" lon="11.2904135"><ele>451.5</ele><time>2026-04-04T14:02:52.826Z</time></trkpt><trkpt lat="44.3419644" lon="11.2905166"><ele>450.25</ele><time>2026-04-04T14:02:53.824Z</time></trkpt><trkpt lat="44.341868" lon="11.2906243"><ele>449.0</ele><time>2026-04-04T14:02:54.825Z</time></trkpt><trkpt lat="44.3417537" lon="11.2906823"><ele>450.75</ele><time>2026-04-04T14:02:55.825Z</time></trkpt><trkpt lat="44.3416398" lon="11.2907461"><ele>452.5</ele><time>2026-04-04T14:02:56.825Z</time></trkpt><trkpt lat="44.3415045" lon="11.2906824"><ele>454.25</ele><time>2026-04-04T14:02:57.824Z</time></trkpt><trkpt lat="44.3413979" lon="11.2906621"><ele>456.0</ele><time>2026-04-04T14:02:58.826Z</time></trkpt><trkpt lat="44.3412917" lon="11.2906588"><ele>456.0</ele><time>2026-04-04T14:02:59.826Z</time></trkpt><trkpt lat="44.3411966" lon="11.2907017"><ele>456.0</ele><time>2026-04-04T14:03:00.826Z</time></trkpt><trkpt lat="44.3411065" lon="11.2907895"><ele>456.0</ele><time>2026-04-04T14:03:01.825Z</time></trkpt><trkpt lat="44.3410369" lon="11.2909174"><ele>456.0</ele><time>2026-04-04T14:03:02.826Z</time></trkpt><trkpt lat="44.3409879" lon="11.2910798"><ele>456.0</ele><time>2026-04-04T14:03:03.826Z</time></trkpt><trkpt lat="44.3409442" lon="11.2912583"><ele>456.0</ele><time>2026-04-04T14:03:04.825Z</time></trkpt><trkpt lat="44.340871" lon="11.291427"><ele>456.0</ele><time>2026-04-04T14:03:05.825Z</time></trkpt><trkpt lat="44.3407771" lon="11.2915795"><ele>456.0</ele><time>2026-04-04T14:03:06.826Z</time></trkpt><trkpt lat="44.3406589" lon="11.2917141"><ele>457.0</ele><time>2026-04-04T14:03:07.825Z</time></trkpt><trkpt lat="44.340541" lon="11.2918294"><ele>458.0</ele><time>2026-04-04T14:03:08.825Z</time></trkpt><trkpt lat="44.3404422" lon="11.2919387"><ele>459.0</ele><time>2026-04-04T14:03:09.826Z</time></trkpt><trkpt lat="44.3403555" lon="11.2920479"><ele>460.0</ele><time>2026-04-04T14:03:10.825Z</time></trkpt><trkpt lat="44.3402975" lon="11.2921545"><ele>460.0</ele><time>2026-04-04T14:03:11.825Z</time></trkpt><trkpt lat="44.3402374" lon="11.2922514"><ele>460.0</ele><time>2026-04-04T14:03:12.825Z</time></trkpt><trkpt lat="44.3401826" lon="11.2923486"><ele>460.0</ele><time>2026-04-04T14:03:13.826Z</time></trkpt><trkpt lat="44.3401351" lon="11.2924335"><ele>460.0</ele><time>2026-04-04T14:03:14.826Z</time></trkpt><trkpt lat="44.3400798" lon="11.2925207"><ele>460.0</ele><time>2026-04-04T14:03:16.826Z</time></trkpt><trkpt lat="44.3400046" lon="11.2926546"><ele>462.25</ele><time>2026-04-04T14:03:32.825Z</time></trkpt><trkpt lat="44.339947" lon="11.2927494"><ele>464.5</ele><time>2026-04-04T14:03:33.826Z</time></trkpt><trkpt lat="44.3398633" lon="11.2928598"><ele>466.75</ele><time>2026-04-04T14:03:34.826Z</time></trkpt><trkpt lat="44.3397697" lon="11.2929631"><ele>469.0</ele><time>2026-04-04T14:03:35.826Z</time></trkpt><trkpt lat="44.3396557" lon="11.293058"><ele>474.25</ele><time>2026-04-04T14:03:36.825Z</time></trkpt><trkpt lat="44.3395286" lon="11.2931378"><ele>479.5</ele><time>2026-04-04T14:03:37.825Z</time></trkpt><trkpt lat="44.3394025" lon="11.2931994"><ele>484.75</ele><time>2026-04-04T14:03:38.826Z</time></trkpt><trkpt lat="44.3392748" lon="11.29325"><ele>490.0</ele><time>2026-04-04T14:03:39.825Z</time></trkpt><trkpt lat="44.3391472" lon="11.2932907"><ele>490.0</ele><time>2026-04-04T14:03:40.825Z</time></trkpt><trkpt lat="44.3390254" lon="11.2933266"><ele>490.0</ele><time>2026-04-04T14:03:41.824Z</time></trkpt><trkpt lat="44.33891" lon="11.2933571"><ele>490.0</ele><time>2026-04-04T14:03:42.826Z</time></trkpt><trkpt lat="44.3387987" lon="11.2933821"><ele>490.0</ele><time>2026-04-04T14:03:43.825Z</time></trkpt><trkpt lat="44.3386867" lon="11.2933957"><ele>487.33333333333337</ele><time>2026-04-04T14:03:44.825Z</time></trkpt><trkpt lat="44.3385835" lon="11.2934068"><ele>484.6666666666667</ele><time>2026-04-04T14:03:45.826Z</time></trkpt><trkpt lat="44.3385025" lon="11.2934168"><ele>482.0</ele><time>2026-04-04T14:03:46.826Z</time></trkpt><trkpt lat="44.338431" lon="11.2934367"><ele>479.33333333333337</ele><time>2026-04-04T14:03:47.826Z</time></trkpt><trkpt lat="44.3383628" lon="11.2934677"><ele>476.6666666666667</ele><time>2026-04-04T14:03:48.826Z</time></trkpt><trkpt lat="44.3382995" lon="11.293511"><ele>474.0</ele><time>2026-04-04T14:03:49.826Z</time></trkpt><trkpt lat="44.3382405" lon="11.2935557"><ele>474.0</ele><time>2026-04-04T14:03:50.825Z</time></trkpt><trkpt lat="44.3381335" lon="11.2936434"><ele>474.0</ele><time>2026-04-04T14:03:52.825Z</time></trkpt><trkpt lat="44.3380363" lon="11.2937447"><ele>474.0</ele><time>2026-04-04T14:03:54.825Z</time></trkpt><trkpt lat="44.3379429" lon="11.2938365"><ele>474.0</ele><time>2026-04-04T14:03:56.825Z</time></trkpt><trkpt lat="44.3378588" lon="11.2939213"><ele>473.42857142857133</ele><time>2026-04-04T14:03:58.826Z</time></trkpt><trkpt lat="44.3377846" lon="11.2939776"><ele>472.85714285714283</ele><time>2026-04-04T14:04:00.825Z</time></trkpt><trkpt lat="44.3377324" lon="11.2940321"><ele>472.2857142857142</ele><time>2026-04-04T14:04:33.825Z</time></trkpt><trkpt lat="44.3376913" lon="11.294108"><ele>471.71428571428567</ele><time>2026-04-04T14:04:41.825Z</time></trkpt><trkpt lat="44.3376462" lon="11.2941716"><ele>471.1428571428571</ele><time>2026-04-04T14:05:07.824Z</time></trkpt><trkpt lat="44.3377068" lon="11.2941436"><ele>470.57142857142856</ele><time>2026-04-04T14:05:25.828Z</time></trkpt><trkpt lat="44.3377193" lon="11.2940522"><ele>470.0</ele><time>2026-04-04T14:05:35.793Z</time></trkpt><trkpt lat="44.3375681" lon="11.2941956"><ele>470.0</ele><time>2026-04-04T14:11:53.823Z</time></trkpt><trkpt lat="44.3374829" lon="11.2942706"><ele>470.0</ele><time>2026-04-04T14:11:54.823Z</time></trkpt><trkpt lat="44.3373965" lon="11.2943426"><ele>470.0</ele><time>2026-04-04T14:11:55.823Z</time></trkpt><trkpt lat="44.3373114" lon="11.2944178"><ele>470.0</ele><time>2026-04-04T14:11:56.822Z</time></trkpt><trkpt lat="44.3372331" lon="11.2944916"><ele>470.0</ele><time>2026-04-04T14:11:57.823Z</time></trkpt><trkpt lat="44.3371646" lon="11.2945752"><ele>466.4</ele><time>2026-04-04T14:11:58.823Z</time></trkpt><trkpt lat="44.3371097" lon="11.2946772"><ele>462.8</ele><time>2026-04-04T14:11:59.822Z</time></trkpt><trkpt lat="44.3370791" lon="11.2948063"><ele>459.20000000000005</ele><time>2026-04-04T14:12:00.823Z</time></trkpt><trkpt lat="44.3370754" lon="11.2949518"><ele>455.6</ele><time>2026-04-04T14:12:01.822Z</time></trkpt><trkpt lat="44.3370989" lon="11.2951064"><ele>452.0</ele><time>2026-04-04T14:12:02.822Z</time></trkpt><trkpt lat="44.3371475" lon="11.2952448"><ele>452.0</ele><time>2026-04-04T14:12:03.823Z</time></trkpt><trkpt lat="44.3372065" lon="11.2953648"><ele>452.00000000000006</ele><time>2026-04-04T14:12:04.823Z</time></trkpt><trkpt lat="44.3372418" lon="11.2954692"><ele>452.00000000000006</ele><time>2026-04-04T14:12:05.823Z</time></trkpt><trkpt lat="44.3371965" lon="11.2956031"><ele>452.0</ele><time>2026-04-04T14:12:07.823Z</time></trkpt><trkpt lat="44.3370892" lon="11.295619"><ele>452.0</ele><time>2026-04-04T14:12:09.821Z</time></trkpt><trkpt lat="44.336987" lon="11.2954904"><ele>451.99999999999994</ele><time>2026-04-04T14:12:11.823Z</time></trkpt><trkpt lat="44.336952" lon="11.2953908"><ele>452.0</ele><time>2026-04-04T14:12:12.823Z</time></trkpt><trkpt lat="44.3369226" lon="11.2952873"><ele>452.0</ele><time>2026-04-04T14:12:13.823Z</time></trkpt><trkpt lat="44.3369006" lon="11.2951847"><ele>452.0</ele><time>2026-04-04T14:12:14.822Z</time></trkpt><trkpt lat="44.3368855" lon="11.2950802"><ele>451.99999999999994</ele><time>2026-04-04T14:12:15.821Z</time></trkpt><trkpt lat="44.3368717" lon="11.2949812"><ele>452.0</ele><time>2026-04-04T14:12:16.823Z</time></trkpt><trkpt lat="44.3368559" lon="11.2948817"><ele>452.0</ele><time>2026-04-04T14:12:17.823Z</time></trkpt><trkpt lat="44.3368219" lon="11.2947931"><ele>452.0</ele><time>2026-04-04T14:12:18.823Z</time></trkpt><trkpt lat="44.336771" lon="11.2947286"><ele>452.0</ele><time>2026-04-04T14:12:19.823Z</time></trkpt><trkpt lat="44.3367054" lon="11.2947093"><ele>452.0</ele><time>2026-04-04T14:12:20.823Z</time></trkpt><trkpt lat="44.3366386" lon="11.2947195"><ele>452.0</ele><time>2026-04-04T14:12:21.822Z</time></trkpt><trkpt lat="44.3365754" lon="11.2947516"><ele>452.0</ele><time>2026-04-04T14:12:22.823Z</time></trkpt><trkpt lat="44.3365226" lon="11.2948646"><ele>452.0</ele><time>2026-04-04T14:12:24.823Z</time></trkpt><trkpt lat="44.33655" lon="11.2949698"><ele>452.0</ele><time>2026-04-04T14:12:26.822Z</time></trkpt><trkpt lat="44.3366056" lon="11.2950907"><ele>452.00000000000006</ele><time>2026-04-04T14:12:28.823Z</time></trkpt><trkpt lat="44.3366475" lon="11.2952294"><ele>452.00000000000006</ele><time>2026-04-04T14:12:30.822Z</time></trkpt><trkpt lat="44.3366623" lon="11.2953638"><ele>452.0</ele><time>2026-04-04T14:12:32.822Z</time></trkpt><trkpt lat="44.3367069" lon="11.2955126"><ele>452.0</ele><time>2026-04-04T14:12:35.823Z</time></trkpt><trkpt lat="44.3367474" lon="11.2955948"><ele>450.0</ele><time>2026-04-04T14:12:36.822Z</time></trkpt><trkpt lat="44.3368009" lon="11.2956931"><ele>448.00000000000006</ele><time>2026-04-04T14:12:37.821Z</time></trkpt><trkpt lat="44.3368618" lon="11.2958061"><ele>446.00000000000006</ele><time>2026-04-04T14:12:38.821Z</time></trkpt><trkpt lat="44.336937" lon="11.2959264"><ele>444.0</ele><time>2026-04-04T14:12:39.822Z</time></trkpt><trkpt lat="44.3370323" lon="11.2960402"><ele>442.0</ele><time>2026-04-04T14:12:40.822Z</time></trkpt><trkpt lat="44.3371219" lon="11.2961373"><ele>442.00000000000006</ele><time>2026-04-04T14:12:41.822Z</time></trkpt><trkpt lat="44.3372053" lon="11.2962154"><ele>442.0</ele><time>2026-04-04T14:12:42.822Z</time></trkpt><trkpt lat="44.3372759" lon="11.2962835"><ele>442.0</ele><time>2026-04-04T14:12:43.822Z</time></trkpt><trkpt lat="44.337334" lon="11.2963354"><ele>442.0</ele><time>2026-04-04T14:12:44.823Z</time></trkpt><trkpt lat="44.3374018" lon="11.2963952"><ele>442.00000000000006</ele><time>2026-04-04T14:12:46.823Z</time></trkpt><trkpt lat="44.3374651" lon="11.2964577"><ele>442.0</ele><time>2026-04-04T14:13:20.821Z</time></trkpt><trkpt lat="44.3375237" lon="11.2965067"><ele>445.50000000000006</ele><time>2026-04-04T14:13:21.822Z</time></trkpt><trkpt lat="44.3375842" lon="11.2965699"><ele>449.0</ele><time>2026-04-04T14:13:22.822Z</time></trkpt><trkpt lat="44.3376345" lon="11.2966503"><ele>452.5</ele><time>2026-04-04T14:13:23.822Z</time></trkpt><trkpt lat="44.337669" lon="11.2967506"><ele>456.0</ele><time>2026-04-04T14:13:24.822Z</time></trkpt><trkpt lat="44.3376852" lon="11.2968767"><ele>459.50000000000006</ele><time>2026-04-04T14:13:25.822Z</time></trkpt><trkpt lat="44.3376884" lon="11.2970236"><ele>463.0</ele><time>2026-04-04T14:13:26.822Z</time></trkpt><trkpt lat="44.3376917" lon="11.2971985"><ele>456.5</ele><time>2026-04-04T14:13:27.821Z</time></trkpt><trkpt lat="44.3377012" lon="11.2973744"><ele>450.0</ele><time>2026-04-04T14:13:28.822Z</time></trkpt><trkpt lat="44.3377079" lon="11.2975555"><ele>443.5</ele><time>2026-04-04T14:13:29.821Z</time></trkpt><trkpt lat="44.3377214" lon="11.2977339"><ele>437.0</ele><time>2026-04-04T14:13:30.822Z</time></trkpt><trkpt lat="44.3377457" lon="11.2979168"><ele>435.75</ele><time>2026-04-04T14:13:31.821Z</time></trkpt><trkpt lat="44.3377844" lon="11.2980896"><ele>434.5</ele><time>2026-04-04T14:13:32.821Z</time></trkpt><trkpt lat="44.3378388" lon="11.2982289"><ele>433.25</ele><time>2026-04-04T14:13:33.821Z</time></trkpt><trkpt lat="44.3379195" lon="11.2983419"><ele>432.0</ele><time>2026-04-04T14:13:34.821Z</time></trkpt><trkpt lat="44.338023" lon="11.2984175"><ele>443.0</ele><time>2026-04-04T14:13:35.822Z</time></trkpt><trkpt lat="44.3381317" lon="11.2984743"><ele>454.0</ele><time>2026-04-04T14:13:36.821Z</time></trkpt><trkpt lat="44.3382299" lon="11.2985543"><ele>465.0</ele><time>2026-04-04T14:13:37.82Z</time></trkpt><trkpt lat="44.3383165" lon="11.2986776"><ele>476.0</ele><time>2026-04-04T14:13:38.822Z</time></trkpt><trkpt lat="44.3383982" lon="11.2988231"><ele>470.25</ele><time>2026-04-04T14:13:39.821Z</time></trkpt><trkpt lat="44.3384717" lon="11.2989806"><ele>464.5</ele><time>2026-04-04T14:13:40.822Z</time></trkpt><trkpt lat="44.3385462" lon="11.2991321"><ele>458.75</ele><time>2026-04-04T14:13:41.821Z</time></trkpt><trkpt lat="44.3386267" lon="11.2992495"><ele>453.0</ele><time>2026-04-04T14:13:42.82Z</time></trkpt><trkpt lat="44.3387214" lon="11.299346"><ele>453.0</ele><time>2026-04-04T14:13:43.822Z</time></trkpt><trkpt lat="44.3388318" lon="11.2994237"><ele>453.0</ele><time>2026-04-04T14:13:44.822Z</time></trkpt><trkpt lat="44.3389516" lon="11.2994889"><ele>453.0</ele><time>2026-04-04T14:13:45.821Z</time></trkpt><trkpt lat="44.3390837" lon="11.2995662"><ele>453.0</ele><time>2026-04-04T14:13:46.821Z</time></trkpt><trkpt lat="44.3392268" lon="11.2996388"><ele>454.5</ele><time>2026-04-04T14:13:47.821Z</time></trkpt><trkpt lat="44.3393627" lon="11.2997399"><ele>456.0</ele><time>2026-04-04T14:13:48.821Z</time></trkpt><trkpt lat="44.3394985" lon="11.2998188"><ele>457.5</ele><time>2026-04-04T14:13:49.822Z</time></trkpt><trkpt lat="44.3396103" lon="11.2998901"><ele>459.0</ele><time>2026-04-04T14:13:50.822Z</time></trkpt><trkpt lat="44.339706" lon="11.2999843"><ele>467.25</ele><time>2026-04-04T14:13:51.822Z</time></trkpt><trkpt lat="44.3397946" lon="11.3000838"><ele>475.5</ele><time>2026-04-04T14:13:52.821Z</time></trkpt><trkpt lat="44.3398814" lon="11.3002105"><ele>483.75</ele><time>2026-04-04T14:13:53.821Z</time></trkpt><trkpt lat="44.3399632" lon="11.3003568"><ele>492.0</ele><time>2026-04-04T14:13:54.822Z</time></trkpt><trkpt lat="44.3400368" lon="11.3005317"><ele>483.33333333333337</ele><time>2026-04-04T14:13:55.822Z</time></trkpt><trkpt lat="44.3401114" lon="11.3007272"><ele>474.6666666666667</ele><time>2026-04-04T14:13:56.822Z</time></trkpt><trkpt lat="44.3401708" lon="11.3009253"><ele>466.0</ele><time>2026-04-04T14:13:57.82Z</time></trkpt><trkpt lat="44.3402107" lon="11.3011368"><ele>466.0</ele><time>2026-04-04T14:13:58.82Z</time></trkpt><trkpt lat="44.3402389" lon="11.3013358"><ele>466.0</ele><time>2026-04-04T14:13:59.82Z</time></trkpt><trkpt lat="44.3402459" lon="11.3015343"><ele>466.0</ele><time>2026-04-04T14:14:00.822Z</time></trkpt><trkpt lat="44.3402298" lon="11.301726"><ele>466.0</ele><time>2026-04-04T14:14:01.822Z</time></trkpt><trkpt lat="44.3402025" lon="11.3019055"><ele>464.0</ele><time>2026-04-04T14:14:02.821Z</time></trkpt><trkpt lat="44.3401755" lon="11.3020737"><ele>462.0</ele><time>2026-04-04T14:14:03.822Z</time></trkpt><trkpt lat="44.3401641" lon="11.3022333"><ele>460.0</ele><time>2026-04-04T14:14:04.821Z</time></trkpt><trkpt lat="44.3401662" lon="11.3023707"><ele>458.0</ele><time>2026-04-04T14:14:05.82Z</time></trkpt><trkpt lat="44.3401855" lon="11.3024896"><ele>456.0</ele><time>2026-04-04T14:14:06.822Z</time></trkpt><trkpt lat="44.3402357" lon="11.3025807"><ele>456.0</ele><time>2026-04-04T14:14:07.823Z</time></trkpt><trkpt lat="44.3403058" lon="11.3026336"><ele>456.0</ele><time>2026-04-04T14:14:08.822Z</time></trkpt><trkpt lat="44.3403771" lon="11.3026806"><ele>456.0</ele><time>2026-04-04T14:14:09.82Z</time></trkpt><trkpt lat="44.3404496" lon="11.3027414"><ele>456.0</ele><time>2026-04-04T14:14:10.82Z</time></trkpt><trkpt lat="44.3405348" lon="11.302785"><ele>456.0</ele><time>2026-04-04T14:14:11.823Z</time></trkpt><trkpt lat="44.3406249" lon="11.3028029"><ele>456.0</ele><time>2026-04-04T14:14:12.821Z</time></trkpt><trkpt lat="44.3407169" lon="11.3028107"><ele>457.8</ele><time>2026-04-04T14:14:13.821Z</time></trkpt><trkpt lat="44.3408083" lon="11.3028113"><ele>459.6</ele><time>2026-04-04T14:14:14.823Z</time></trkpt><trkpt lat="44.3409042" lon="11.3028154"><ele>461.4</ele><time>2026-04-04T14:14:15.821Z</time></trkpt><trkpt lat="44.3410121" lon="11.302817"><ele>463.2</ele><time>2026-04-04T14:14:16.822Z</time></trkpt><trkpt lat="44.3411216" lon="11.3028161"><ele>465.0</ele><time>2026-04-04T14:14:17.821Z</time></trkpt><trkpt lat="44.3412258" lon="11.3028332"><ele>465.0</ele><time>2026-04-04T14:14:18.821Z</time></trkpt><trkpt lat="44.3413313" lon="11.3028829"><ele>465.0</ele><time>2026-04-04T14:14:19.821Z</time></trkpt><trkpt lat="44.3414347" lon="11.3029567"><ele>465.0</ele><time>2026-04-04T14:14:20.821Z</time></trkpt><trkpt lat="44.3415362" lon="11.3030416"><ele>465.0</ele><time>2026-04-04T14:14:21.822Z</time></trkpt><trkpt lat="44.3416348" lon="11.3031322"><ele>463.4</ele><time>2026-04-04T14:14:22.822Z</time></trkpt><trkpt lat="44.3417282" lon="11.3032327"><ele>461.8</ele><time>2026-04-04T14:14:23.821Z</time></trkpt><trkpt lat="44.3418096" lon="11.3033407"><ele>460.20000000000005</ele><time>2026-04-04T14:14:24.822Z</time></trkpt><trkpt lat="44.3418837" lon="11.3034517"><ele>458.6</ele><time>2026-04-04T14:14:25.822Z</time></trkpt><trkpt lat="44.3419518" lon="11.3035736"><ele>457.0</ele><time>2026-04-04T14:14:26.821Z</time></trkpt><trkpt lat="44.3420178" lon="11.3037078"><ele>457.0</ele><time>2026-04-04T14:14:27.823Z</time></trkpt><trkpt lat="44.3420739" lon="11.3038559"><ele>457.0</ele><time>2026-04-04T14:14:28.821Z</time></trkpt><trkpt lat="44.3421122" lon="11.3040079"><ele>457.0</ele><time>2026-04-04T14:14:29.821Z</time></trkpt><trkpt lat="44.3421525" lon="11.3041614"><ele>457.0</ele><time>2026-04-04T14:14:30.821Z</time></trkpt><trkpt lat="44.342192" lon="11.3043034"><ele>456.8</ele><time>2026-04-04T14:14:31.822Z</time></trkpt><trkpt lat="44.3422539" lon="11.3044141"><ele>456.6</ele><time>2026-04-04T14:14:32.822Z</time></trkpt><trkpt lat="44.3423365" lon="11.304496"><ele>456.40000000000003</ele><time>2026-04-04T14:14:33.822Z</time></trkpt><trkpt lat="44.3424317" lon="11.3045651"><ele>456.20000000000005</ele><time>2026-04-04T14:14:34.822Z</time></trkpt><trkpt lat="44.3425245" lon="11.3046378"><ele>456.0</ele><time>2026-04-04T14:14:35.821Z</time></trkpt><trkpt lat="44.342612" lon="11.3047224"><ele>453.0</ele><time>2026-04-04T14:14:36.822Z</time></trkpt><trkpt lat="44.3426812" lon="11.3048347"><ele>450.0</ele><time>2026-04-04T14:14:37.821Z</time></trkpt><trkpt lat="44.3427286" lon="11.3049656"><ele>447.0</ele><time>2026-04-04T14:14:38.822Z</time></trkpt><trkpt lat="44.3427356" lon="11.3051081"><ele>444.0</ele><time>2026-04-04T14:14:39.822Z</time></trkpt><trkpt lat="44.3427083" lon="11.3052486"><ele>441.0</ele><time>2026-04-04T14:14:40.821Z</time></trkpt><trkpt lat="44.3426776" lon="11.3053922"><ele>441.0</ele><time>2026-04-04T14:14:41.822Z</time></trkpt><trkpt lat="44.3426679" lon="11.3055511"><ele>441.0</ele><time>2026-04-04T14:14:42.822Z</time></trkpt><trkpt lat="44.3426924" lon="11.3057091"><ele>441.0</ele><time>2026-04-04T14:14:43.822Z</time></trkpt><trkpt lat="44.3427493" lon="11.3058471"><ele>441.0</ele><time>2026-04-04T14:14:44.822Z</time></trkpt><trkpt lat="44.3428198" lon="11.3059854"><ele>438.6</ele><time>2026-04-04T14:14:45.821Z</time></trkpt><trkpt lat="44.342865" lon="11.3060896"><ele>436.20000000000005</ele><time>2026-04-04T14:14:46.821Z</time></trkpt><trkpt lat="44.3428724" lon="11.3062127"><ele>433.79999999999995</ele><time>2026-04-04T14:14:47.822Z</time></trkpt><trkpt lat="44.3428484" lon="11.3063347"><ele>431.4</ele><time>2026-04-04T14:14:48.822Z</time></trkpt><trkpt lat="44.3428021" lon="11.3064423"><ele>429.0</ele><time>2026-04-04T14:14:49.82Z</time></trkpt><trkpt lat="44.3427478" lon="11.3065592"><ele>427.5</ele><time>2026-04-04T14:14:50.821Z</time></trkpt><trkpt lat="44.3427055" lon="11.3066961"><ele>426.0</ele><time>2026-04-04T14:14:51.822Z</time></trkpt><trkpt lat="44.3426845" lon="11.306861"><ele>424.5</ele><time>2026-04-04T14:14:52.822Z</time></trkpt><trkpt lat="44.3426914" lon="11.3070422"><ele>423.0</ele><time>2026-04-04T14:14:53.822Z</time></trkpt><trkpt lat="44.342717" lon="11.3072439"><ele>420.5</ele><time>2026-04-04T14:14:54.82Z</time></trkpt><trkpt lat="44.3427443" lon="11.3074482"><ele>418.0</ele><time>2026-04-04T14:14:55.821Z</time></trkpt><trkpt lat="44.3427657" lon="11.3076542"><ele>415.5</ele><time>2026-04-04T14:14:56.821Z</time></trkpt><trkpt lat="44.3427697" lon="11.307856"><ele>413.0</ele><time>2026-04-04T14:14:57.82Z</time></trkpt><trkpt lat="44.3427647" lon="11.3080333"><ele>412.3333333333333</ele><time>2026-04-04T14:14:58.822Z</time></trkpt><trkpt lat="44.3427711" lon="11.3081775"><ele>411.66666666666663</ele><time>2026-04-04T14:14:59.822Z</time></trkpt><trkpt lat="44.3428115" lon="11.3082809"><ele>411.0</ele><time>2026-04-04T14:15:00.821Z</time></trkpt><trkpt lat="44.3428729" lon="11.3083397"><ele>410.33333333333337</ele><time>2026-04-04T14:15:01.822Z</time></trkpt><trkpt lat="44.3429383" lon="11.3083735"><ele>409.6666666666667</ele><time>2026-04-04T14:15:02.822Z</time></trkpt><trkpt lat="44.3430208" lon="11.3083982"><ele>409.0</ele><time>2026-04-04T14:15:03.821Z</time></trkpt><trkpt lat="44.3431117" lon="11.3083709"><ele>409.0</ele><time>2026-04-04T14:15:04.821Z</time></trkpt><trkpt lat="44.3432939" lon="11.3082538"><ele>409.0</ele><time>2026-04-04T14:15:05.822Z</time></trkpt><trkpt lat="44.3434068" lon="11.3082021"><ele>409.0</ele><time>2026-04-04T14:15:06.822Z</time></trkpt><trkpt lat="44.3434968" lon="11.3081407"><ele>409.0</ele><time>2026-04-04T14:15:07.822Z</time></trkpt><trkpt lat="44.3435891" lon="11.3080995"><ele>409.0</ele><time>2026-04-04T14:15:08.821Z</time></trkpt><trkpt lat="44.343668" lon="11.3082091"><ele>409.0</ele><time>2026-04-04T14:15:10.821Z</time></trkpt><trkpt lat="44.3436695" lon="11.3083001"><ele>409.0</ele><time>2026-04-04T14:15:11.822Z</time></trkpt><trkpt lat="44.3436203" lon="11.3083939"><ele>409.0</ele><time>2026-04-04T14:15:12.821Z</time></trkpt><trkpt lat="44.3435585" lon="11.3085139"><ele>409.0</ele><time>2026-04-04T14:15:13.822Z</time></trkpt><trkpt lat="44.3434886" lon="11.3086646"><ele>409.0</ele><time>2026-04-04T14:15:14.822Z</time></trkpt><trkpt lat="44.3434225" lon="11.3088178"><ele>409.0</ele><time>2026-04-04T14:15:15.822Z</time></trkpt><trkpt lat="44.3433709" lon="11.3089713"><ele>409.0</ele><time>2026-04-04T14:15:16.82Z</time></trkpt><trkpt lat="44.3433432" lon="11.3091348"><ele>409.0</ele><time>2026-04-04T14:15:17.821Z</time></trkpt><trkpt lat="44.3433454" lon="11.3093112"><ele>406.75</ele><time>2026-04-04T14:15:18.821Z</time></trkpt><trkpt lat="44.3433765" lon="11.3094954"><ele>404.5</ele><time>2026-04-04T14:15:19.822Z</time></trkpt><trkpt lat="44.3434186" lon="11.3096807"><ele>402.25</ele><time>2026-04-04T14:15:20.82Z</time></trkpt><trkpt lat="44.3434617" lon="11.3098691"><ele>400.0</ele><time>2026-04-04T14:15:21.822Z</time></trkpt><trkpt lat="44.3435296" lon="11.3100531"><ele>393.33333333333337</ele><time>2026-04-04T14:15:22.822Z</time></trkpt><trkpt lat="44.343623" lon="11.3102288"><ele>386.6666666666667</ele><time>2026-04-04T14:15:23.822Z</time></trkpt><trkpt lat="44.3437415" lon="11.3103921"><ele>380.0</ele><time>2026-04-04T14:15:24.82Z</time></trkpt><trkpt lat="44.3438755" lon="11.3105434"><ele>383.33333333333337</ele><time>2026-04-04T14:15:25.82Z</time></trkpt><trkpt lat="44.3440031" lon="11.3106928"><ele>386.6666666666667</ele><time>2026-04-04T14:15:26.822Z</time></trkpt><trkpt lat="44.3441187" lon="11.3108488"><ele>390.0</ele><time>2026-04-04T14:15:27.821Z</time></trkpt><trkpt lat="44.3442222" lon="11.3110139"><ele>390.0</ele><time>2026-04-04T14:15:28.822Z</time></trkpt><trkpt lat="44.344329" lon="11.3111637"><ele>390.0</ele><time>2026-04-04T14:15:29.822Z</time></trkpt><trkpt lat="44.3444448" lon="11.3112913"><ele>390.0</ele><time>2026-04-04T14:15:30.822Z</time></trkpt><trkpt lat="44.3445652" lon="11.3114027"><ele>390.0</ele><time>2026-04-04T14:15:31.822Z</time></trkpt><trkpt lat="44.3446857" lon="11.3115082"><ele>384.4</ele><time>2026-04-04T14:15:32.822Z</time></trkpt><trkpt lat="44.3448033" lon="11.3116006"><ele>378.8</ele><time>2026-04-04T14:15:33.821Z</time></trkpt><trkpt lat="44.3449063" lon="11.3116572"><ele>373.20000000000005</ele><time>2026-04-04T14:15:34.822Z</time></trkpt><trkpt lat="44.3449857" lon="11.311638"><ele>367.6</ele><time>2026-04-04T14:15:35.82Z</time></trkpt><trkpt lat="44.3450622" lon="11.3115727"><ele>362.0</ele><time>2026-04-04T14:15:36.821Z</time></trkpt><trkpt lat="44.3451254" lon="11.3114691"><ele>369.0</ele><time>2026-04-04T14:15:37.822Z</time></trkpt><trkpt lat="44.3451855" lon="11.3113449"><ele>376.0</ele><time>2026-04-04T14:15:38.822Z</time></trkpt><trkpt lat="44.3452656" lon="11.3112326"><ele>383.0</ele><time>2026-04-04T14:15:39.822Z</time></trkpt><trkpt lat="44.3453628" lon="11.3111398"><ele>390.0</ele><time>2026-04-04T14:15:40.821Z</time></trkpt><trkpt lat="44.3454756" lon="11.3110627"><ele>386.25</ele><time>2026-04-04T14:15:41.821Z</time></trkpt><trkpt lat="44.3455965" lon="11.3110081"><ele>382.5</ele><time>2026-04-04T14:15:42.821Z</time></trkpt><trkpt lat="44.3457248" lon="11.3109904"><ele>378.75</ele><time>2026-04-04T14:15:43.821Z</time></trkpt><trkpt lat="44.3458536" lon="11.3110152"><ele>375.0</ele><time>2026-04-04T14:15:44.821Z</time></trkpt><trkpt lat="44.3459792" lon="11.3110843"><ele>375.0</ele><time>2026-04-04T14:15:45.822Z</time></trkpt><trkpt lat="44.3461057" lon="11.3111858"><ele>375.0</ele><time>2026-04-04T14:15:46.821Z</time></trkpt><trkpt lat="44.3462251" lon="11.3112953"><ele>375.0</ele><time>2026-04-04T14:15:47.821Z</time></trkpt><trkpt lat="44.3463355" lon="11.3114163"><ele>375.0</ele><time>2026-04-04T14:15:48.821Z</time></trkpt><trkpt lat="44.3464265" lon="11.3115613"><ele>368.0</ele><time>2026-04-04T14:15:49.822Z</time></trkpt><trkpt lat="44.346498" lon="11.3117169"><ele>361.0</ele><time>2026-04-04T14:15:50.822Z</time></trkpt><trkpt lat="44.3465759" lon="11.3118422"><ele>354.0</ele><time>2026-04-04T14:15:51.821Z</time></trkpt><trkpt lat="44.3466762" lon="11.3119298"><ele>347.0</ele><time>2026-04-04T14:15:52.821Z</time></trkpt><trkpt lat="44.3467858" lon="11.311964"><ele>347.0</ele><time>2026-04-04T14:15:53.821Z</time></trkpt><trkpt lat="44.346896" lon="11.3119403"><ele>347.0</ele><time>2026-04-04T14:15:54.82Z</time></trkpt><trkpt lat="44.3470111" lon="11.3118954"><ele>347.0</ele><time>2026-04-04T14:15:55.821Z</time></trkpt><trkpt lat="44.3471343" lon="11.3118683"><ele>347.0</ele><time>2026-04-04T14:15:56.822Z</time></trkpt><trkpt lat="44.3472613" lon="11.3118726"><ele>347.25</ele><time>2026-04-04T14:15:57.821Z</time></trkpt><trkpt lat="44.3473956" lon="11.3118975"><ele>347.5</ele><time>2026-04-04T14:15:58.822Z</time></trkpt><trkpt lat="44.3475296" lon="11.3119392"><ele>347.75</ele><time>2026-04-04T14:15:59.821Z</time></trkpt><trkpt lat="44.3476577" lon="11.3119945"><ele>348.0</ele><time>2026-04-04T14:16:00.822Z</time></trkpt><trkpt lat="44.347789" lon="11.3120701"><ele>348.0</ele><time>2026-04-04T14:16:01.821Z</time></trkpt><trkpt lat="44.3479296" lon="11.3121721"><ele>348.0</ele><time>2026-04-04T14:16:02.821Z</time></trkpt><trkpt lat="44.3480886" lon="11.3122973"><ele>348.0</ele><time>2026-04-04T14:16:03.82Z</time></trkpt><trkpt lat="44.3482648" lon="11.3124182"><ele>340.6666666666667</ele><time>2026-04-04T14:16:04.82Z</time></trkpt><trkpt lat="44.3484373" lon="11.3125238"><ele>333.33333333333337</ele><time>2026-04-04T14:16:05.821Z</time></trkpt><trkpt lat="44.3486032" lon="11.312616"><ele>326.0</ele><time>2026-04-04T14:16:06.82Z</time></trkpt><trkpt lat="44.3487417" lon="11.3127047"><ele>326.0</ele><time>2026-04-04T14:16:07.821Z</time></trkpt><trkpt lat="44.348845" lon="11.3128155"><ele>326.0</ele><time>2026-04-04T14:16:08.82Z</time></trkpt><trkpt lat="44.3489189" lon="11.3129537"><ele>326.0</ele><time>2026-04-04T14:16:09.82Z</time></trkpt><trkpt lat="44.3489604" lon="11.3131208"><ele>326.0</ele><time>2026-04-04T14:16:10.821Z</time></trkpt><trkpt lat="44.3489765" lon="11.3133164"><ele>325.5</ele><time>2026-04-04T14:16:11.82Z</time></trkpt><trkpt lat="44.3489728" lon="11.3135056"><ele>325.0</ele><time>2026-04-04T14:16:12.819Z</time></trkpt><trkpt lat="44.3489688" lon="11.3136709"><ele>324.5</ele><time>2026-04-04T14:16:13.82Z</time></trkpt><trkpt lat="44.3489922" lon="11.3138329"><ele>324.0</ele><time>2026-04-04T14:16:14.82Z</time></trkpt><trkpt lat="44.3490485" lon="11.3140004"><ele>324.0</ele><time>2026-04-04T14:16:15.821Z</time></trkpt><trkpt lat="44.3491372" lon="11.3141435"><ele>324.0</ele><time>2026-04-04T14:16:16.821Z</time></trkpt><trkpt lat="44.3492536" lon="11.3142575"><ele>324.0</ele><time>2026-04-04T14:16:17.819Z</time></trkpt><trkpt lat="44.3494062" lon="11.3143547"><ele>324.0</ele><time>2026-04-04T14:16:18.821Z</time></trkpt><trkpt lat="44.3495684" lon="11.3144672"><ele>321.3333333333333</ele><time>2026-04-04T14:16:19.82Z</time></trkpt><trkpt lat="44.3497373" lon="11.3146135"><ele>318.66666666666663</ele><time>2026-04-04T14:16:20.821Z</time></trkpt><trkpt lat="44.3498934" lon="11.3147463"><ele>316.0</ele><time>2026-04-04T14:16:21.821Z</time></trkpt><trkpt lat="44.3500449" lon="11.3148725"><ele>316.0</ele><time>2026-04-04T14:16:22.82Z</time></trkpt><trkpt lat="44.3501844" lon="11.3149942"><ele>316.0</ele><time>2026-04-04T14:16:23.821Z</time></trkpt><trkpt lat="44.3503003" lon="11.3151222"><ele>316.0</ele><time>2026-04-04T14:16:24.82Z</time></trkpt><trkpt lat="44.3503992" lon="11.3152501"><ele>316.0</ele><time>2026-04-04T14:16:25.821Z</time></trkpt><trkpt lat="44.3504964" lon="11.3153553"><ele>317.8</ele><time>2026-04-04T14:16:26.821Z</time></trkpt><trkpt lat="44.3505942" lon="11.3154191"><ele>319.6</ele><time>2026-04-04T14:16:27.82Z</time></trkpt><trkpt lat="44.3506893" lon="11.315454"><ele>321.4</ele><time>2026-04-04T14:16:28.821Z</time></trkpt><trkpt lat="44.3507772" lon="11.3154873"><ele>323.2</ele><time>2026-04-04T14:16:29.821Z</time></trkpt><trkpt lat="44.3508581" lon="11.3155445"><ele>325.0</ele><time>2026-04-04T14:16:30.821Z</time></trkpt><trkpt lat="44.3509209" lon="11.315625"><ele>321.2</ele><time>2026-04-04T14:16:31.821Z</time></trkpt><trkpt lat="44.3509672" lon="11.3157183"><ele>317.4</ele><time>2026-04-04T14:16:32.821Z</time></trkpt><trkpt lat="44.3510107" lon="11.3158413"><ele>313.6</ele><time>2026-04-04T14:16:33.821Z</time></trkpt><trkpt lat="44.3510385" lon="11.3159818"><ele>309.8</ele><time>2026-04-04T14:16:34.82Z</time></trkpt><trkpt lat="44.3510356" lon="11.3161307"><ele>306.0</ele><time>2026-04-04T14:16:35.821Z</time></trkpt><trkpt lat="44.3509982" lon="11.3162763"><ele>306.0</ele><time>2026-04-04T14:16:36.82Z</time></trkpt><trkpt lat="44.3509315" lon="11.3163997"><ele>306.0</ele><time>2026-04-04T14:16:37.82Z</time></trkpt><trkpt lat="44.3508381" lon="11.3164921"><ele>306.0</ele><time>2026-04-04T14:16:38.82Z</time></trkpt><trkpt lat="44.3507089" lon="11.3165654"><ele>306.0</ele><time>2026-04-04T14:16:39.821Z</time></trkpt><trkpt lat="44.3505692" lon="11.3166133"><ele>301.5</ele><time>2026-04-04T14:16:40.82Z</time></trkpt><trkpt lat="44.3504461" lon="11.3166894"><ele>297.0</ele><time>2026-04-04T14:16:41.821Z</time></trkpt><trkpt lat="44.3503231" lon="11.3168179"><ele>292.5</ele><time>2026-04-04T14:16:42.82Z</time></trkpt><trkpt lat="44.3501942" lon="11.3169471"><ele>288.0</ele><time>2026-04-04T14:16:43.821Z</time></trkpt><trkpt lat="44.3501001" lon="11.3171863"><ele>286.75</ele><time>2026-04-04T14:16:44.821Z</time></trkpt><trkpt lat="44.3499969" lon="11.3173549"><ele>285.5</ele><time>2026-04-04T14:16:45.821Z</time></trkpt><trkpt lat="44.3499232" lon="11.3175004"><ele>284.25</ele><time>2026-04-04T14:16:46.821Z</time></trkpt><trkpt lat="44.3498892" lon="11.3176314"><ele>283.0</ele><time>2026-04-04T14:16:47.82Z</time></trkpt><trkpt lat="44.3498998" lon="11.3177546"><ele>283.0</ele><time>2026-04-04T14:16:48.82Z</time></trkpt><trkpt lat="44.3499599" lon="11.3178565"><ele>283.0</ele><time>2026-04-04T14:16:49.82Z</time></trkpt><trkpt lat="44.3500592" lon="11.3179518"><ele>283.0</ele><time>2026-04-04T14:16:50.82Z</time></trkpt><trkpt lat="44.3501886" lon="11.3180358"><ele>283.0</ele><time>2026-04-04T14:16:51.821Z</time></trkpt><trkpt lat="44.3503445" lon="11.3180848"><ele>279.66666666666663</ele><time>2026-04-04T14:16:52.821Z</time></trkpt><trkpt lat="44.3505025" lon="11.3181087"><ele>276.3333333333333</ele><time>2026-04-04T14:16:53.821Z</time></trkpt><trkpt lat="44.3506525" lon="11.318156"><ele>273.0</ele><time>2026-04-04T14:16:54.821Z</time></trkpt><trkpt lat="44.3507952" lon="11.318262"><ele>273.0</ele><time>2026-04-04T14:16:55.821Z</time></trkpt><trkpt lat="44.350934" lon="11.3183874"><ele>273.0</ele><time>2026-04-04T14:16:56.821Z</time></trkpt><trkpt lat="44.3510842" lon="11.3184836"><ele>273.0</ele><time>2026-04-04T14:16:57.82Z</time></trkpt><trkpt lat="44.3512447" lon="11.3185529"><ele>273.3333333333333</ele><time>2026-04-04T14:16:58.82Z</time></trkpt><trkpt lat="44.3514123" lon="11.3186054"><ele>273.66666666666663</ele><time>2026-04-04T14:16:59.821Z</time></trkpt><trkpt lat="44.3515933" lon="11.3186461"><ele>274.0</ele><time>2026-04-04T14:17:00.821Z</time></trkpt><trkpt lat="44.3517774" lon="11.3186968"><ele>274.0</ele><time>2026-04-04T14:17:01.82Z</time></trkpt><trkpt lat="44.3519716" lon="11.3187841"><ele>274.0</ele><time>2026-04-04T14:17:02.821Z</time></trkpt><trkpt lat="44.3521618" lon="11.3188871"><ele>274.0</ele><time>2026-04-04T14:17:03.821Z</time></trkpt><trkpt lat="44.352343" lon="11.3189875"><ele>267.3333333333333</ele><time>2026-04-04T14:17:04.821Z</time></trkpt><trkpt lat="44.35252" lon="11.3190849"><ele>260.6666666666667</ele><time>2026-04-04T14:17:05.82Z</time></trkpt><trkpt lat="44.3526923" lon="11.3191786"><ele>254.0</ele><time>2026-04-04T14:17:06.82Z</time></trkpt><trkpt lat="44.3528601" lon="11.3192694"><ele>254.0</ele><time>2026-04-04T14:17:07.821Z</time></trkpt><trkpt lat="44.3530182" lon="11.3193677"><ele>254.0</ele><time>2026-04-04T14:17:08.821Z</time></trkpt><trkpt lat="44.353157" lon="11.3195115"><ele>254.0</ele><time>2026-04-04T14:17:09.821Z</time></trkpt><trkpt lat="44.3532754" lon="11.3196996"><ele>248.66666666666669</ele><time>2026-04-04T14:17:10.821Z</time></trkpt><trkpt lat="44.353379" lon="11.3199092"><ele>243.33333333333331</ele><time>2026-04-04T14:17:11.821Z</time></trkpt><trkpt lat="44.3534784" lon="11.320103"><ele>238.0</ele><time>2026-04-04T14:17:12.821Z</time></trkpt><trkpt lat="44.3535588" lon="11.3203006"><ele>238.0</ele><time>2026-04-04T14:17:13.821Z</time></trkpt><trkpt lat="44.3535972" lon="11.3205221"><ele>238.0</ele><time>2026-04-04T14:17:14.821Z</time></trkpt><trkpt lat="44.3536027" lon="11.3207625"><ele>238.0</ele><time>2026-04-04T14:17:15.821Z</time></trkpt><trkpt lat="44.3535839" lon="11.3210103"><ele>238.0</ele><time>2026-04-04T14:17:16.819Z</time></trkpt><trkpt lat="44.3535742" lon="11.3212199"><ele>238.0</ele><time>2026-04-04T14:17:17.82Z</time></trkpt><trkpt lat="44.3535693" lon="11.3213944"><ele>238.0</ele><time>2026-04-04T14:17:18.821Z</time></trkpt><trkpt lat="44.3535514" lon="11.3215445"><ele>238.0</ele><time>2026-04-04T14:17:19.821Z</time></trkpt><trkpt lat="44.3534903" lon="11.3216573"><ele>237.75</ele><time>2026-04-04T14:17:20.821Z</time></trkpt><trkpt lat="44.3533925" lon="11.3217625"><ele>237.5</ele><time>2026-04-04T14:17:21.821Z</time></trkpt><trkpt lat="44.3532548" lon="11.3218387"><ele>237.25</ele><time>2026-04-04T14:17:22.82Z</time></trkpt><trkpt lat="44.3531202" lon="11.3218649"><ele>237.0</ele><time>2026-04-04T14:17:23.82Z</time></trkpt><trkpt lat="44.3529992" lon="11.3218943"><ele>235.83333333333334</ele><time>2026-04-04T14:17:24.82Z</time></trkpt><trkpt lat="44.3529074" lon="11.321966"><ele>234.66666666666669</ele><time>2026-04-04T14:17:25.82Z</time></trkpt><trkpt lat="44.3528597" lon="11.3220725"><ele>233.5</ele><time>2026-04-04T14:17:26.821Z</time></trkpt><trkpt lat="44.352864" lon="11.3221811"><ele>232.33333333333334</ele><time>2026-04-04T14:17:27.82Z</time></trkpt><trkpt lat="44.3529095" lon="11.3222538"><ele>231.16666666666669</ele><time>2026-04-04T14:17:28.82Z</time></trkpt><trkpt lat="44.3529727" lon="11.3222875"><ele>230.0</ele><time>2026-04-04T14:17:29.82Z</time></trkpt><trkpt lat="44.3530501" lon="11.3223029"><ele>229.0</ele><time>2026-04-04T14:17:30.819Z</time></trkpt><trkpt lat="44.3531537" lon="11.3223156"><ele>228.0</ele><time>2026-04-04T14:17:31.821Z</time></trkpt><trkpt lat="44.3532796" lon="11.3223291"><ele>227.0</ele><time>2026-04-04T14:17:32.82Z</time></trkpt><trkpt lat="44.3534256" lon="11.3223381"><ele>226.0</ele><time>2026-04-04T14:17:33.82Z</time></trkpt><trkpt lat="44.3535983" lon="11.3223458"><ele>226.0</ele><time>2026-04-04T14:17:34.821Z</time></trkpt><trkpt lat="44.3537826" lon="11.322352"><ele>226.0</ele><time>2026-04-04T14:17:35.821Z</time></trkpt><trkpt lat="44.353989" lon="11.3223554"><ele>226.0</ele><time>2026-04-04T14:17:36.821Z</time></trkpt><trkpt lat="44.3541972" lon="11.3223614"><ele>225.0</ele><time>2026-04-04T14:17:37.821Z</time></trkpt><trkpt lat="44.3543968" lon="11.3223708"><ele>224.0</ele><time>2026-04-04T14:17:38.821Z</time></trkpt><trkpt lat="44.3545906" lon="11.3223776"><ele>223.0</ele><time>2026-04-04T14:17:39.82Z</time></trkpt><trkpt lat="44.3547625" lon="11.3223876"><ele>221.5</ele><time>2026-04-04T14:17:40.819Z</time></trkpt><trkpt lat="44.3549135" lon="11.3224029"><ele>220.0</ele><time>2026-04-04T14:17:41.821Z</time></trkpt><trkpt lat="44.3550366" lon="11.3224594"><ele>218.5</ele><time>2026-04-04T14:17:42.82Z</time></trkpt><trkpt lat="44.3551213" lon="11.322561"><ele>217.0</ele><time>2026-04-04T14:17:43.821Z</time></trkpt><trkpt lat="44.3551811" lon="11.3226909"><ele>217.0</ele><time>2026-04-04T14:17:44.82Z</time></trkpt><trkpt lat="44.3552379" lon="11.3228411"><ele>217.0</ele><time>2026-04-04T14:17:45.82Z</time></trkpt><trkpt lat="44.3553042" lon="11.322987"><ele>217.0</ele><time>2026-04-04T14:17:46.82Z</time></trkpt><trkpt lat="44.3553604" lon="11.3231276"><ele>217.0</ele><time>2026-04-04T14:17:47.82Z</time></trkpt><trkpt lat="44.3553974" lon="11.3232673"><ele>216.25</ele><time>2026-04-04T14:17:48.82Z</time></trkpt><trkpt lat="44.3554004" lon="11.3234123"><ele>215.5</ele><time>2026-04-04T14:17:49.82Z</time></trkpt><trkpt lat="44.3553656" lon="11.323569"><ele>214.75</ele><time>2026-04-04T14:17:50.82Z</time></trkpt><trkpt lat="44.3553173" lon="11.3237227"><ele>214.0</ele><time>2026-04-04T14:17:51.82Z</time></trkpt><trkpt lat="44.3553047" lon="11.3238922"><ele>212.75</ele><time>2026-04-04T14:17:52.82Z</time></trkpt><trkpt lat="44.355325" lon="11.3240823"><ele>211.5</ele><time>2026-04-04T14:17:53.821Z</time></trkpt><trkpt lat="44.3553828" lon="11.3242703"><ele>210.25</ele><time>2026-04-04T14:17:54.821Z</time></trkpt><trkpt lat="44.3554713" lon="11.3244581"><ele>209.0</ele><time>2026-04-04T14:17:55.819Z</time></trkpt><trkpt lat="44.3555712" lon="11.3246197"><ele>207.75</ele><time>2026-04-04T14:17:56.82Z</time></trkpt><trkpt lat="44.3556762" lon="11.32476"><ele>206.5</ele><time>2026-04-04T14:17:57.82Z</time></trkpt><trkpt lat="44.3557884" lon="11.3248755"><ele>205.25</ele><time>2026-04-04T14:17:58.821Z</time></trkpt><trkpt lat="44.3559199" lon="11.3249625"><ele>204.0</ele><time>2026-04-04T14:17:59.821Z</time></trkpt><trkpt lat="44.3560666" lon="11.325028"><ele>204.0</ele><time>2026-04-04T14:18:00.821Z</time></trkpt><trkpt lat="44.35621" lon="11.3251121"><ele>204.0</ele><time>2026-04-04T14:18:01.821Z</time></trkpt><trkpt lat="44.3563531" lon="11.3252328"><ele>204.0</ele><time>2026-04-04T14:18:02.821Z</time></trkpt><trkpt lat="44.3565134" lon="11.3253586"><ele>203.33333333333331</ele><time>2026-04-04T14:18:03.821Z</time></trkpt><trkpt lat="44.3566875" lon="11.3254786"><ele>202.66666666666666</ele><time>2026-04-04T14:18:04.82Z</time></trkpt><trkpt lat="44.3568719" lon="11.3256072"><ele>202.0</ele><time>2026-04-04T14:18:05.821Z</time></trkpt><trkpt lat="44.3570681" lon="11.3257607"><ele>207.0</ele><time>2026-04-04T14:18:06.821Z</time></trkpt><trkpt lat="44.3572696" lon="11.3259422"><ele>212.0</ele><time>2026-04-04T14:18:07.821Z</time></trkpt><trkpt lat="44.357467" lon="11.3261263"><ele>212.0</ele><time>2026-04-04T14:18:08.821Z</time></trkpt><trkpt lat="44.357646" lon="11.3263021"><ele>212.0</ele><time>2026-04-04T14:18:09.821Z</time></trkpt><trkpt lat="44.3577966" lon="11.3264834"><ele>212.0</ele><time>2026-04-04T14:18:10.821Z</time></trkpt><trkpt lat="44.357919" lon="11.3266694"><ele>212.5</ele><time>2026-04-04T14:18:11.821Z</time></trkpt><trkpt lat="44.3580265" lon="11.3268402"><ele>213.0</ele><time>2026-04-04T14:18:12.82Z</time></trkpt><trkpt lat="44.3581227" lon="11.326997"><ele>213.5</ele><time>2026-04-04T14:18:13.82Z</time></trkpt><trkpt lat="44.3582129" lon="11.3271278"><ele>214.0</ele><time>2026-04-04T14:18:14.82Z</time></trkpt><trkpt lat="44.3582995" lon="11.3272361"><ele>210.75</ele><time>2026-04-04T14:18:15.821Z</time></trkpt><trkpt lat="44.3583926" lon="11.3273342"><ele>207.5</ele><time>2026-04-04T14:18:16.821Z</time></trkpt><trkpt lat="44.3584983" lon="11.3274143"><ele>204.25</ele><time>2026-04-04T14:18:17.821Z</time></trkpt><trkpt lat="44.3586107" lon="11.3274444"><ele>201.0</ele><time>2026-04-04T14:18:18.82Z</time></trkpt><trkpt lat="44.3587197" lon="11.3274264"><ele>201.0</ele><time>2026-04-04T14:18:19.82Z</time></trkpt><trkpt lat="44.3588156" lon="11.3273555"><ele>201.0</ele><time>2026-04-04T14:18:20.82Z</time></trkpt><trkpt lat="44.3588952" lon="11.3272443"><ele>201.0</ele><time>2026-04-04T14:18:21.82Z</time></trkpt><trkpt lat="44.3589739" lon="11.3271087"><ele>201.0</ele><time>2026-04-04T14:18:22.821Z</time></trkpt><trkpt lat="44.359054" lon="11.3269609"><ele>202.75</ele><time>2026-04-04T14:18:23.821Z</time></trkpt><trkpt lat="44.3591416" lon="11.3268095"><ele>204.5</ele><time>2026-04-04T14:18:24.82Z</time></trkpt><trkpt lat="44.3592219" lon="11.3266715"><ele>206.25</ele><time>2026-04-04T14:18:25.821Z</time></trkpt><trkpt lat="44.3593037" lon="11.3265423"><ele>208.0</ele><time>2026-04-04T14:18:26.82Z</time></trkpt><trkpt lat="44.3593904" lon="11.3264269"><ele>209.25</ele><time>2026-04-04T14:18:27.82Z</time></trkpt><trkpt lat="44.3594906" lon="11.3263311"><ele>210.5</ele><time>2026-04-04T14:18:28.82Z</time></trkpt><trkpt lat="44.3596143" lon="11.3262777"><ele>211.75</ele><time>2026-04-04T14:18:29.821Z</time></trkpt><trkpt lat="44.3597593" lon="11.3262818"><ele>213.0</ele><time>2026-04-04T14:18:30.82Z</time></trkpt><trkpt lat="44.3599247" lon="11.3263164"><ele>213.0</ele><time>2026-04-04T14:18:31.82Z</time></trkpt><trkpt lat="44.3601041" lon="11.3263395"><ele>213.0</ele><time>2026-04-04T14:18:32.82Z</time></trkpt><trkpt lat="44.3602688" lon="11.3263487"><ele>213.0</ele><time>2026-04-04T14:18:33.82Z</time></trkpt><trkpt lat="44.360428" lon="11.3263611"><ele>209.66666666666669</ele><time>2026-04-04T14:18:34.82Z</time></trkpt><trkpt lat="44.3605819" lon="11.32639"><ele>206.33333333333334</ele><time>2026-04-04T14:18:35.82Z</time></trkpt><trkpt lat="44.36073" lon="11.3264584"><ele>203.0</ele><time>2026-04-04T14:18:36.821Z</time></trkpt><trkpt lat="44.3608659" lon="11.3265522"><ele>203.0</ele><time>2026-04-04T14:18:37.821Z</time></trkpt><trkpt lat="44.3609809" lon="11.326658"><ele>203.0</ele><time>2026-04-04T14:18:38.821Z</time></trkpt><trkpt lat="44.3610639" lon="11.3267943"><ele>203.0</ele><time>2026-04-04T14:18:39.821Z</time></trkpt><trkpt lat="44.3611125" lon="11.3269532"><ele>203.0</ele><time>2026-04-04T14:18:40.821Z</time></trkpt><trkpt lat="44.3611237" lon="11.3271323"><ele>200.66666666666669</ele><time>2026-04-04T14:18:41.82Z</time></trkpt><trkpt lat="44.3611015" lon="11.327325"><ele>198.33333333333331</ele><time>2026-04-04T14:18:42.82Z</time></trkpt><trkpt lat="44.3610609" lon="11.3275351"><ele>196.0</ele><time>2026-04-04T14:18:43.821Z</time></trkpt><trkpt lat="44.3610218" lon="11.3277673"><ele>196.0</ele><time>2026-04-04T14:18:44.821Z</time></trkpt><trkpt lat="44.3609781" lon="11.3280201"><ele>196.0</ele><time>2026-04-04T14:18:45.819Z</time></trkpt><trkpt lat="44.3609327" lon="11.3282957"><ele>196.0</ele><time>2026-04-04T14:18:46.819Z</time></trkpt><trkpt lat="44.3608846" lon="11.3285806"><ele>195.0</ele><time>2026-04-04T14:18:47.821Z</time></trkpt><trkpt lat="44.360836" lon="11.328854"><ele>194.0</ele><time>2026-04-04T14:18:48.821Z</time></trkpt><trkpt lat="44.3607922" lon="11.329111"><ele>193.0</ele><time>2026-04-04T14:18:49.821Z</time></trkpt><trkpt lat="44.3607508" lon="11.3293569"><ele>193.0</ele><time>2026-04-04T14:18:50.821Z</time></trkpt><trkpt lat="44.3607082" lon="11.3296025"><ele>193.0</ele><time>2026-04-04T14:18:51.821Z</time></trkpt><trkpt lat="44.3606666" lon="11.3298358"><ele>193.0</ele><time>2026-04-04T14:18:52.821Z</time></trkpt><trkpt lat="44.3606285" lon="11.3300565"><ele>192.8</ele><time>2026-04-04T14:18:53.821Z</time></trkpt><trkpt lat="44.3605938" lon="11.3302567"><ele>192.60000000000002</ele><time>2026-04-04T14:18:54.821Z</time></trkpt><trkpt lat="44.3605644" lon="11.3304172"><ele>192.39999999999998</ele><time>2026-04-04T14:18:55.821Z</time></trkpt><trkpt lat="44.3605368" lon="11.3305471"><ele>192.2</ele><time>2026-04-04T14:18:56.82Z</time></trkpt><trkpt lat="44.3605186" lon="11.3306326"><ele>192.0</ele><time>2026-04-04T14:18:57.819Z</time></trkpt><trkpt lat="44.3605515" lon="11.3307777"><ele>192.0</ele><time>2026-04-04T14:19:00.819Z</time></trkpt><trkpt lat="44.360622" lon="11.330833"><ele>192.0</ele><time>2026-04-04T14:19:01.818Z</time></trkpt><trkpt lat="44.3607308" lon="11.3308814"><ele>192.0</ele><time>2026-04-04T14:19:02.818Z</time></trkpt><trkpt lat="44.3608469" lon="11.3309608"><ele>192.0</ele><time>2026-04-04T14:19:03.819Z</time></trkpt><trkpt lat="44.3609731" lon="11.3310823"><ele>192.0</ele><time>2026-04-04T14:19:04.819Z</time></trkpt><trkpt lat="44.361087" lon="11.3312551"><ele>192.0</ele><time>2026-04-04T14:19:05.82Z</time></trkpt><trkpt lat="44.3611745" lon="11.3314712"><ele>192.0</ele><time>2026-04-04T14:19:06.819Z</time></trkpt><trkpt lat="44.3612324" lon="11.3317269"><ele>193.0</ele><time>2026-04-04T14:19:07.819Z</time></trkpt><trkpt lat="44.3612634" lon="11.3320244"><ele>194.0</ele><time>2026-04-04T14:19:08.82Z</time></trkpt><trkpt lat="44.3612834" lon="11.3323549"><ele>194.0</ele><time>2026-04-04T14:19:09.819Z</time></trkpt><trkpt lat="44.3613113" lon="11.3327065"><ele>194.0</ele><time>2026-04-04T14:19:10.82Z</time></trkpt><trkpt lat="44.3613424" lon="11.3330703"><ele>191.5</ele><time>2026-04-04T14:19:11.82Z</time></trkpt><trkpt lat="44.3613727" lon="11.3334494"><ele>189.0</ele><time>2026-04-04T14:19:12.82Z</time></trkpt><trkpt lat="44.3613978" lon="11.3338068"><ele>188.5</ele><time>2026-04-04T14:19:13.82Z</time></trkpt><trkpt lat="44.3614213" lon="11.3341421"><ele>188.0</ele><time>2026-04-04T14:19:14.82Z</time></trkpt><trkpt lat="44.3614483" lon="11.3344552"><ele>188.66666666666666</ele><time>2026-04-04T14:19:15.819Z</time></trkpt><trkpt lat="44.3615014" lon="11.3347299"><ele>189.33333333333334</ele><time>2026-04-04T14:19:16.82Z</time></trkpt><trkpt lat="44.3615906" lon="11.334972"><ele>190.0</ele><time>2026-04-04T14:19:17.82Z</time></trkpt><trkpt lat="44.3617124" lon="11.3352014"><ele>190.0</ele><time>2026-04-04T14:19:18.819Z</time></trkpt><trkpt lat="44.3618582" lon="11.3354111"><ele>190.0</ele><time>2026-04-04T14:19:19.82Z</time></trkpt><trkpt lat="44.3620293" lon="11.3356011"><ele>190.0</ele><time>2026-04-04T14:19:20.82Z</time></trkpt><trkpt lat="44.3622229" lon="11.3357695"><ele>190.5</ele><time>2026-04-04T14:19:21.82Z</time></trkpt><trkpt lat="44.3624252" lon="11.3359262"><ele>191.0</ele><time>2026-04-04T14:19:22.819Z</time></trkpt><trkpt lat="44.3626304" lon="11.3360773"><ele>191.0</ele><time>2026-04-04T14:19:23.819Z</time></trkpt><trkpt lat="44.3628348" lon="11.3362235"><ele>191.0</ele><time>2026-04-04T14:19:24.819Z</time></trkpt><trkpt lat="44.3630272" lon="11.3363643"><ele>191.0</ele><time>2026-04-04T14:19:25.82Z</time></trkpt><trkpt lat="44.3632094" lon="11.3364945"><ele>192.33333333333331</ele><time>2026-04-04T14:19:26.82Z</time></trkpt><trkpt lat="44.3633864" lon="11.3366092"><ele>193.66666666666666</ele><time>2026-04-04T14:19:27.819Z</time></trkpt><trkpt lat="44.3635542" lon="11.3367214"><ele>195.0</ele><time>2026-04-04T14:19:28.818Z</time></trkpt><trkpt lat="44.363722" lon="11.3368372"><ele>190.0</ele><time>2026-04-04T14:19:29.819Z</time></trkpt><trkpt lat="44.3638972" lon="11.3369664"><ele>185.0</ele><time>2026-04-04T14:19:30.82Z</time></trkpt><trkpt lat="44.3640814" lon="11.3371018"><ele>180.0</ele><time>2026-04-04T14:19:31.82Z</time></trkpt><trkpt lat="44.3642746" lon="11.3372424"><ele>180.0</ele><time>2026-04-04T14:19:32.82Z</time></trkpt><trkpt lat="44.3644683" lon="11.3373765"><ele>180.0</ele><time>2026-04-04T14:19:33.819Z</time></trkpt><trkpt lat="44.3646508" lon="11.3375005"><ele>180.0</ele><time>2026-04-04T14:19:34.82Z</time></trkpt><trkpt lat="44.3648126" lon="11.33761"><ele>180.0</ele><time>2026-04-04T14:19:35.82Z</time></trkpt><trkpt lat="44.3649501" lon="11.3377172"><ele>180.0</ele><time>2026-04-04T14:19:36.819Z</time></trkpt><trkpt lat="44.3650574" lon="11.3378557"><ele>180.0</ele><time>2026-04-04T14:19:37.819Z</time></trkpt><trkpt lat="44.365134" lon="11.3380368"><ele>179.0</ele><time>2026-04-04T14:19:38.82Z</time></trkpt><trkpt lat="44.3651859" lon="11.3382593"><ele>178.0</ele><time>2026-04-04T14:19:39.82Z</time></trkpt><trkpt lat="44.3652189" lon="11.3385068"><ele>177.0</ele><time>2026-04-04T14:19:40.82Z</time></trkpt><trkpt lat="44.365256" lon="11.3387795"><ele>177.0</ele><time>2026-04-04T14:19:41.82Z</time></trkpt><trkpt lat="44.3652937" lon="11.3390442"><ele>177.0</ele><time>2026-04-04T14:19:42.819Z</time></trkpt><trkpt lat="44.3653391" lon="11.3393028"><ele>177.0</ele><time>2026-04-04T14:19:43.819Z</time></trkpt><trkpt lat="44.3654123" lon="11.3395477"><ele>176.66666666666666</ele><time>2026-04-04T14:19:44.82Z</time></trkpt><trkpt lat="44.3655183" lon="11.3397848"><ele>176.33333333333331</ele><time>2026-04-04T14:19:45.82Z</time></trkpt><trkpt lat="44.3656443" lon="11.3400016"><ele>176.0</ele><time>2026-04-04T14:19:46.818Z</time></trkpt><trkpt lat="44.3657826" lon="11.3401845"><ele>176.0</ele><time>2026-04-04T14:19:47.819Z</time></trkpt><trkpt lat="44.3659416" lon="11.3403285"><ele>176.0</ele><time>2026-04-04T14:19:48.819Z</time></trkpt><trkpt lat="44.3661155" lon="11.3404376"><ele>176.0</ele><time>2026-04-04T14:19:49.82Z</time></trkpt><trkpt lat="44.3663027" lon="11.3405054"><ele>177.33333333333331</ele><time>2026-04-04T14:19:50.819Z</time></trkpt><trkpt lat="44.3664949" lon="11.3405348"><ele>178.66666666666666</ele><time>2026-04-04T14:19:51.819Z</time></trkpt><trkpt lat="44.3666951" lon="11.3405134"><ele>180.0</ele><time>2026-04-04T14:19:52.82Z</time></trkpt><trkpt lat="44.366904" lon="11.3404509"><ele>180.0</ele><time>2026-04-04T14:19:53.819Z</time></trkpt><trkpt lat="44.3671232" lon="11.3403702"><ele>180.0</ele><time>2026-04-04T14:19:54.819Z</time></trkpt><trkpt lat="44.3673524" lon="11.3402816"><ele>180.5</ele><time>2026-04-04T14:19:55.818Z</time></trkpt><trkpt lat="44.3675851" lon="11.3401838"><ele>181.0</ele><time>2026-04-04T14:19:56.82Z</time></trkpt><trkpt lat="44.3677983" lon="11.3400876"><ele>181.0</ele><time>2026-04-04T14:19:57.82Z</time></trkpt><trkpt lat="44.3679935" lon="11.3399812"><ele>181.0</ele><time>2026-04-04T14:19:58.82Z</time></trkpt><trkpt lat="44.368175" lon="11.3398425"><ele>181.0</ele><time>2026-04-04T14:19:59.819Z</time></trkpt><trkpt lat="44.3683489" lon="11.3396693"><ele>179.33333333333334</ele><time>2026-04-04T14:20:00.82Z</time></trkpt><trkpt lat="44.3685255" lon="11.3394831"><ele>177.66666666666666</ele><time>2026-04-04T14:20:01.819Z</time></trkpt><trkpt lat="44.368697" lon="11.339301"><ele>176.0</ele><time>2026-04-04T14:20:02.818Z</time></trkpt><trkpt lat="44.3688569" lon="11.3391269"><ele>175.66666666666666</ele><time>2026-04-04T14:20:03.819Z</time></trkpt><trkpt lat="44.3690066" lon="11.338963"><ele>175.33333333333334</ele><time>2026-04-04T14:20:04.819Z</time></trkpt><trkpt lat="44.3691514" lon="11.3388066"><ele>175.0</ele><time>2026-04-04T14:20:05.819Z</time></trkpt><trkpt lat="44.3692872" lon="11.3386574"><ele>175.66666666666669</ele><time>2026-04-04T14:20:06.819Z</time></trkpt><trkpt lat="44.3694214" lon="11.3385265"><ele>176.33333333333334</ele><time>2026-04-04T14:20:07.819Z</time></trkpt><trkpt lat="44.3695522" lon="11.3384203"><ele>177.0</ele><time>2026-04-04T14:20:08.819Z</time></trkpt><trkpt lat="44.3696897" lon="11.3383568"><ele>177.33333333333334</ele><time>2026-04-04T14:20:09.82Z</time></trkpt><trkpt lat="44.3698399" lon="11.3383514"><ele>177.66666666666669</ele><time>2026-04-04T14:20:10.82Z</time></trkpt><trkpt lat="44.3699891" lon="11.3384064"><ele>178.0</ele><time>2026-04-04T14:20:11.82Z</time></trkpt><trkpt lat="44.3701172" lon="11.3385105"><ele>178.0</ele><time>2026-04-04T14:20:12.819Z</time></trkpt><trkpt lat="44.3702218" lon="11.3386444"><ele>178.0</ele><time>2026-04-04T14:20:13.82Z</time></trkpt><trkpt lat="44.3703037" lon="11.3387905"><ele>178.0</ele><time>2026-04-04T14:20:14.819Z</time></trkpt><trkpt lat="44.3703791" lon="11.3389293"><ele>178.0</ele><time>2026-04-04T14:20:15.82Z</time></trkpt><trkpt lat="44.3704468" lon="11.339065"><ele>177.25</ele><time>2026-04-04T14:20:16.82Z</time></trkpt><trkpt lat="44.3705161" lon="11.3392004"><ele>176.5</ele><time>2026-04-04T14:20:17.82Z</time></trkpt><trkpt lat="44.3705882" lon="11.339328"><ele>175.75</ele><time>2026-04-04T14:20:18.82Z</time></trkpt><trkpt lat="44.3706587" lon="11.3394574"><ele>175.0</ele><time>2026-04-04T14:20:19.819Z</time></trkpt><trkpt lat="44.3707246" lon="11.3395922"><ele>174.4</ele><time>2026-04-04T14:20:20.82Z</time></trkpt><trkpt lat="44.3707866" lon="11.3397238"><ele>173.8</ele><time>2026-04-04T14:20:21.819Z</time></trkpt><trkpt lat="44.3708501" lon="11.339841"><ele>173.2</ele><time>2026-04-04T14:20:22.82Z</time></trkpt><trkpt lat="44.370909" lon="11.3399483"><ele>172.6</ele><time>2026-04-04T14:20:23.82Z</time></trkpt><trkpt lat="44.3709638" lon="11.3400465"><ele>172.0</ele><time>2026-04-04T14:20:24.819Z</time></trkpt><trkpt lat="44.3710108" lon="11.3401273"><ele>172.0</ele><time>2026-04-04T14:20:25.82Z</time></trkpt><trkpt lat="44.3710192" lon="11.3402244"><ele>172.0</ele><time>2026-04-04T14:20:26.82Z</time></trkpt><trkpt lat="44.3710053" lon="11.3403369"><ele>172.0</ele><time>2026-04-04T14:20:27.82Z</time></trkpt><trkpt lat="44.370976" lon="11.3404271"><ele>172.0</ele><time>2026-04-04T14:20:28.819Z</time></trkpt><trkpt lat="44.3709195" lon="11.3405557"><ele>172.0</ele><time>2026-04-04T14:20:30.819Z</time></trkpt><trkpt lat="44.3708926" lon="11.3406471"><ele>172.0</ele><time>2026-04-04T14:20:32.819Z</time></trkpt><trkpt lat="44.3708661" lon="11.3407326"><ele>172.6</ele><time>2026-04-04T14:20:38.818Z</time></trkpt><trkpt lat="44.3708948" lon="11.3408627"><ele>173.2</ele><time>2026-04-04T14:20:43.819Z</time></trkpt><trkpt lat="44.3709645" lon="11.340924"><ele>173.8</ele><time>2026-04-04T14:20:44.82Z</time></trkpt><trkpt lat="44.3710591" lon="11.3409873"><ele>174.4</ele><time>2026-04-04T14:20:45.82Z</time></trkpt><trkpt lat="44.3711797" lon="11.3410655"><ele>175.0</ele><time>2026-04-04T14:20:46.82Z</time></trkpt><trkpt lat="44.3713097" lon="11.341172"><ele>175.0</ele><time>2026-04-04T14:20:47.82Z</time></trkpt><trkpt lat="44.3714301" lon="11.3412821"><ele>175.0</ele><time>2026-04-04T14:20:48.818Z</time></trkpt><trkpt lat="44.3715481" lon="11.3413865"><ele>175.0</ele><time>2026-04-04T14:20:49.819Z</time></trkpt><trkpt lat="44.3716566" lon="11.3414902"><ele>175.0</ele><time>2026-04-04T14:20:50.819Z</time></trkpt><trkpt lat="44.3717693" lon="11.3415949"><ele>175.0</ele><time>2026-04-04T14:20:51.818Z</time></trkpt><trkpt lat="44.3718871" lon="11.3417093"><ele>175.0</ele><time>2026-04-04T14:20:52.819Z</time></trkpt><trkpt lat="44.3720123" lon="11.341838"><ele>175.0</ele><time>2026-04-04T14:20:53.819Z</time></trkpt><trkpt lat="44.3721302" lon="11.3419486"><ele>175.0</ele><time>2026-04-04T14:20:54.819Z</time></trkpt><trkpt lat="44.3722504" lon="11.3420022"><ele>175.5</ele><time>2026-04-04T14:20:55.82Z</time></trkpt><trkpt lat="44.3723779" lon="11.3419996"><ele>176.0</ele><time>2026-04-04T14:20:56.82Z</time></trkpt><trkpt lat="44.3725018" lon="11.3419388"><ele>176.5</ele><time>2026-04-04T14:20:57.82Z</time></trkpt><trkpt lat="44.3726214" lon="11.3418177"><ele>177.0</ele><time>2026-04-04T14:20:58.82Z</time></trkpt><trkpt lat="44.3727527" lon="11.3416717"><ele>177.0</ele><time>2026-04-04T14:20:59.819Z</time></trkpt><trkpt lat="44.3728947" lon="11.3415693"><ele>177.0</ele><time>2026-04-04T14:21:00.82Z</time></trkpt><trkpt lat="44.3730554" lon="11.3414767"><ele>177.0</ele><time>2026-04-04T14:21:01.82Z</time></trkpt><trkpt lat="44.3732194" lon="11.3413465"><ele>177.0</ele><time>2026-04-04T14:21:02.82Z</time></trkpt><trkpt lat="44.3733758" lon="11.3411973"><ele>177.0</ele><time>2026-04-04T14:21:03.82Z</time></trkpt><trkpt lat="44.3735106" lon="11.3410638"><ele>177.0</ele><time>2026-04-04T14:21:04.82Z</time></trkpt><trkpt lat="44.3736457" lon="11.3409561"><ele>177.0</ele><time>2026-04-04T14:21:05.818Z</time></trkpt><trkpt lat="44.3737826" lon="11.340867"><ele>177.0</ele><time>2026-04-04T14:21:06.82Z</time></trkpt><trkpt lat="44.3739233" lon="11.3407961"><ele>177.0</ele><time>2026-04-04T14:21:07.818Z</time></trkpt><trkpt lat="44.3740752" lon="11.3407378"><ele>178.33333333333334</ele><time>2026-04-04T14:21:08.82Z</time></trkpt><trkpt lat="44.3742336" lon="11.3406885"><ele>179.66666666666669</ele><time>2026-04-04T14:21:09.821Z</time></trkpt><trkpt lat="44.3743888" lon="11.3406333"><ele>181.0</ele><time>2026-04-04T14:21:10.82Z</time></trkpt><trkpt lat="44.374543" lon="11.3405764"><ele>180.33333333333334</ele><time>2026-04-04T14:21:11.819Z</time></trkpt><trkpt lat="44.3746948" lon="11.340516"><ele>179.66666666666666</ele><time>2026-04-04T14:21:12.819Z</time></trkpt><trkpt lat="44.3748453" lon="11.3404549"><ele>179.0</ele><time>2026-04-04T14:21:13.819Z</time></trkpt><trkpt lat="44.3749923" lon="11.3403972"><ele>179.0</ele><time>2026-04-04T14:21:14.819Z</time></trkpt><trkpt lat="44.3751402" lon="11.340337"><ele>179.0</ele><time>2026-04-04T14:21:15.818Z</time></trkpt><trkpt lat="44.3752876" lon="11.3402792"><ele>179.0</ele><time>2026-04-04T14:21:16.819Z</time></trkpt><trkpt lat="44.3754262" lon="11.3402216"><ele>179.25</ele><time>2026-04-04T14:21:17.819Z</time></trkpt><trkpt lat="44.3755562" lon="11.3401676"><ele>179.5</ele><time>2026-04-04T14:21:18.82Z</time></trkpt><trkpt lat="44.3756794" lon="11.3401142"><ele>179.75</ele><time>2026-04-04T14:21:19.82Z</time></trkpt><trkpt lat="44.3757962" lon="11.3400554"><ele>180.0</ele><time>2026-04-04T14:21:20.819Z</time></trkpt><trkpt lat="44.3759214" lon="11.3399991"><ele>180.0</ele><time>2026-04-04T14:21:21.819Z</time></trkpt><trkpt lat="44.3760454" lon="11.3399463"><ele>180.0</ele><time>2026-04-04T14:21:22.819Z</time></trkpt><trkpt lat="44.3761563" lon="11.3398962"><ele>180.0</ele><time>2026-04-04T14:21:23.818Z</time></trkpt><trkpt lat="44.3762546" lon="11.3398864"><ele>180.0</ele><time>2026-04-04T14:21:24.819Z</time></trkpt><trkpt lat="44.3763382" lon="11.3399194"><ele>180.0</ele><time>2026-04-04T14:21:25.819Z</time></trkpt><trkpt lat="44.376401" lon="11.3399996"><ele>179.25</ele><time>2026-04-04T14:21:26.819Z</time></trkpt><trkpt lat="44.3764366" lon="11.3401312"><ele>178.5</ele><time>2026-04-04T14:21:27.818Z</time></trkpt><trkpt lat="44.3764647" lon="11.3403043"><ele>177.75</ele><time>2026-04-04T14:21:28.818Z</time></trkpt><trkpt lat="44.3764993" lon="11.3405186"><ele>177.0</ele><time>2026-04-04T14:21:29.819Z</time></trkpt><trkpt lat="44.3765423" lon="11.3407266"><ele>177.0</ele><time>2026-04-04T14:21:30.819Z</time></trkpt><trkpt lat="44.3766074" lon="11.3409182"><ele>177.0</ele><time>2026-04-04T14:21:31.82Z</time></trkpt><trkpt lat="44.3766968" lon="11.3410857"><ele>177.0</ele><time>2026-04-04T14:21:32.82Z</time></trkpt><trkpt lat="44.3768043" lon="11.3412234"><ele>177.0</ele><time>2026-04-04T14:21:33.819Z</time></trkpt><trkpt lat="44.3769138" lon="11.34134"><ele>178.25</ele><time>2026-04-04T14:21:34.819Z</time></trkpt><trkpt lat="44.3770212" lon="11.3414378"><ele>179.5</ele><time>2026-04-04T14:21:35.819Z</time></trkpt><trkpt lat="44.3771249" lon="11.3415314"><ele>180.75</ele><time>2026-04-04T14:21:36.82Z</time></trkpt><trkpt lat="44.3772238" lon="11.3416228"><ele>182.0</ele><time>2026-04-04T14:21:37.819Z</time></trkpt><trkpt lat="44.3773172" lon="11.341705"><ele>179.83333333333331</ele><time>2026-04-04T14:21:38.819Z</time></trkpt><trkpt lat="44.3774019" lon="11.341778"><ele>177.66666666666666</ele><time>2026-04-04T14:21:39.82Z</time></trkpt><trkpt lat="44.3774759" lon="11.3418424"><ele>175.5</ele><time>2026-04-04T14:21:40.82Z</time></trkpt><trkpt lat="44.3775412" lon="11.3418963"><ele>173.33333333333334</ele><time>2026-04-04T14:21:41.818Z</time></trkpt><trkpt lat="44.3776005" lon="11.3419428"><ele>171.16666666666669</ele><time>2026-04-04T14:21:42.819Z</time></trkpt><trkpt lat="44.3776567" lon="11.3419829"><ele>169.0</ele><time>2026-04-04T14:21:43.819Z</time></trkpt><trkpt lat="44.3777572" lon="11.342029"><ele>169.0</ele><time>2026-04-04T14:21:45.819Z</time></trkpt><trkpt lat="44.3778449" lon="11.3421318"><ele>169.0</ele><time>2026-04-04T14:21:47.819Z</time></trkpt><trkpt lat="44.3779228" lon="11.3422325"><ele>169.0</ele><time>2026-04-04T14:21:49.819Z</time></trkpt><trkpt lat="44.3780379" lon="11.3422171"><ele>169.0</ele><time>2026-04-04T14:21:51.819Z</time></trkpt><trkpt lat="44.3781375" lon="11.3421524"><ele>169.0</ele><time>2026-04-04T14:21:53.818Z</time></trkpt><trkpt lat="44.3782622" lon="11.3421217"><ele>168.2</ele><time>2026-04-04T14:21:55.818Z</time></trkpt><trkpt lat="44.3783441" lon="11.3421245"><ele>167.39999999999998</ele><time>2026-04-04T14:21:56.818Z</time></trkpt><trkpt lat="44.378444" lon="11.3421464"><ele>166.6</ele><time>2026-04-04T14:21:57.818Z</time></trkpt><trkpt lat="44.3785575" lon="11.3421794"><ele>165.8</ele><time>2026-04-04T14:21:58.818Z</time></trkpt><trkpt lat="44.3786885" lon="11.3422147"><ele>165.0</ele><time>2026-04-04T14:21:59.819Z</time></trkpt><trkpt lat="44.3788555" lon="11.3422594"><ele>164.66666666666666</ele><time>2026-04-04T14:22:00.819Z</time></trkpt><trkpt lat="44.379052" lon="11.3423227"><ele>164.33333333333331</ele><time>2026-04-04T14:22:01.818Z</time></trkpt><trkpt lat="44.3792644" lon="11.3423785"><ele>164.0</ele><time>2026-04-04T14:22:02.819Z</time></trkpt><trkpt lat="44.3794475" lon="11.3424208"><ele>164.0</ele><time>2026-04-04T14:22:03.819Z</time></trkpt><trkpt lat="44.3796112" lon="11.3424515"><ele>164.0</ele><time>2026-04-04T14:22:04.819Z</time></trkpt><trkpt lat="44.3797949" lon="11.3424704"><ele>164.0</ele><time>2026-04-04T14:22:05.818Z</time></trkpt><trkpt lat="44.3799989" lon="11.3424961"><ele>165.66666666666666</ele><time>2026-04-04T14:22:06.818Z</time></trkpt><trkpt lat="44.3802118" lon="11.3425254"><ele>167.33333333333334</ele><time>2026-04-04T14:22:07.818Z</time></trkpt><trkpt lat="44.380421" lon="11.3425265"><ele>169.0</ele><time>2026-04-04T14:22:08.818Z</time></trkpt><trkpt lat="44.3806071" lon="11.342512"><ele>170.33333333333334</ele><time>2026-04-04T14:22:09.818Z</time></trkpt><trkpt lat="44.3807729" lon="11.3424715"><ele>171.66666666666666</ele><time>2026-04-04T14:22:10.819Z</time></trkpt><trkpt lat="44.3809302" lon="11.3423738"><ele>173.0</ele><time>2026-04-04T14:22:11.819Z</time></trkpt><trkpt lat="44.3810844" lon="11.3422257"><ele>174.0</ele><time>2026-04-04T14:22:12.819Z</time></trkpt><trkpt lat="44.381238" lon="11.3420627"><ele>175.0</ele><time>2026-04-04T14:22:13.819Z</time></trkpt><trkpt lat="44.3813761" lon="11.3419239"><ele>176.0</ele><time>2026-04-04T14:22:14.819Z</time></trkpt><trkpt lat="44.3815031" lon="11.3417987"><ele>176.0</ele><time>2026-04-04T14:22:15.819Z</time></trkpt><trkpt lat="44.3816239" lon="11.3417028"><ele>176.0</ele><time>2026-04-04T14:22:16.819Z</time></trkpt><trkpt lat="44.3817398" lon="11.3416451"><ele>176.0</ele><time>2026-04-04T14:22:17.819Z</time></trkpt><trkpt lat="44.3818465" lon="11.3416217"><ele>176.0</ele><time>2026-04-04T14:22:18.819Z</time></trkpt><trkpt lat="44.3819552" lon="11.3416379"><ele>176.0</ele><time>2026-04-04T14:22:19.818Z</time></trkpt><trkpt lat="44.3820781" lon="11.3416905"><ele>176.0</ele><time>2026-04-04T14:22:20.818Z</time></trkpt><trkpt lat="44.3822154" lon="11.3417789"><ele>176.0</ele><time>2026-04-04T14:22:21.818Z</time></trkpt><trkpt lat="44.3823682" lon="11.3419017"><ele>176.0</ele><time>2026-04-04T14:22:22.818Z</time></trkpt><trkpt lat="44.3825411" lon="11.3420327"><ele>176.0</ele><time>2026-04-04T14:22:23.818Z</time></trkpt><trkpt lat="44.382702" lon="11.342129"><ele>176.0</ele><time>2026-04-04T14:22:24.819Z</time></trkpt><trkpt lat="44.3828622" lon="11.3421775"><ele>176.66666666666666</ele><time>2026-04-04T14:22:25.819Z</time></trkpt><trkpt lat="44.3830355" lon="11.3421652"><ele>177.33333333333334</ele><time>2026-04-04T14:22:26.819Z</time></trkpt><trkpt lat="44.3832134" lon="11.342097"><ele>178.0</ele><time>2026-04-04T14:22:27.819Z</time></trkpt><trkpt lat="44.3833856" lon="11.3419764"><ele>178.0</ele><time>2026-04-04T14:22:28.817Z</time></trkpt><trkpt lat="44.3835554" lon="11.3418412"><ele>178.0</ele><time>2026-04-04T14:22:29.818Z</time></trkpt><trkpt lat="44.3837179" lon="11.3417185"><ele>178.0</ele><time>2026-04-04T14:22:30.818Z</time></trkpt><trkpt lat="44.3838686" lon="11.3416161"><ele>181.66666666666669</ele><time>2026-04-04T14:22:31.819Z</time></trkpt><trkpt lat="44.3840188" lon="11.3415338"><ele>185.33333333333334</ele><time>2026-04-04T14:22:32.818Z</time></trkpt><trkpt lat="44.3841724" lon="11.3414822"><ele>189.0</ele><time>2026-04-04T14:22:33.818Z</time></trkpt><trkpt lat="44.3843289" lon="11.3414662"><ele>189.0</ele><time>2026-04-04T14:22:34.817Z</time></trkpt><trkpt lat="44.3844806" lon="11.3414714"><ele>189.0</ele><time>2026-04-04T14:22:35.818Z</time></trkpt><trkpt lat="44.3846155" lon="11.3414754"><ele>189.0</ele><time>2026-04-04T14:22:36.819Z</time></trkpt><trkpt lat="44.3847382" lon="11.3414777"><ele>189.0</ele><time>2026-04-04T14:22:37.819Z</time></trkpt><trkpt lat="44.3848447" lon="11.3414805"><ele>190.0</ele><time>2026-04-04T14:22:38.818Z</time></trkpt><trkpt lat="44.384943" lon="11.3414817"><ele>191.0</ele><time>2026-04-04T14:22:39.817Z</time></trkpt><trkpt lat="44.3850516" lon="11.3414815"><ele>192.0</ele><time>2026-04-04T14:22:40.818Z</time></trkpt><trkpt lat="44.3851689" lon="11.3414874"><ele>193.0</ele><time>2026-04-04T14:22:41.818Z</time></trkpt><trkpt lat="44.385292" lon="11.3414898"><ele>194.0</ele><time>2026-04-04T14:22:42.817Z</time></trkpt><trkpt lat="44.3854243" lon="11.3414954"><ele>193.75</ele><time>2026-04-04T14:22:43.818Z</time></trkpt><trkpt lat="44.3855582" lon="11.3415009"><ele>193.5</ele><time>2026-04-04T14:22:44.819Z</time></trkpt><trkpt lat="44.3856975" lon="11.3415096"><ele>193.25</ele><time>2026-04-04T14:22:45.818Z</time></trkpt><trkpt lat="44.3858499" lon="11.3415074"><ele>193.0</ele><time>2026-04-04T14:22:46.819Z</time></trkpt><trkpt lat="44.3860259" lon="11.3414722"><ele>193.0</ele><time>2026-04-04T14:22:47.819Z</time></trkpt><trkpt lat="44.3862304" lon="11.3414137"><ele>193.0</ele><time>2026-04-04T14:22:48.819Z</time></trkpt><trkpt lat="44.3864581" lon="11.341352"><ele>193.0</ele><time>2026-04-04T14:22:49.818Z</time></trkpt><trkpt lat="44.386665" lon="11.3412841"><ele>190.66666666666666</ele><time>2026-04-04T14:22:50.819Z</time></trkpt><trkpt lat="44.386866" lon="11.3412117"><ele>188.33333333333331</ele><time>2026-04-04T14:22:51.819Z</time></trkpt><trkpt lat="44.3870581" lon="11.3411318"><ele>186.0</ele><time>2026-04-04T14:22:52.818Z</time></trkpt><trkpt lat="44.3872355" lon="11.3410558"><ele>186.0</ele><time>2026-04-04T14:22:53.819Z</time></trkpt><trkpt lat="44.3874013" lon="11.3409863"><ele>186.0</ele><time>2026-04-04T14:22:54.818Z</time></trkpt><trkpt lat="44.3875279" lon="11.3409379"><ele>186.0</ele><time>2026-04-04T14:22:55.818Z</time></trkpt><trkpt lat="44.3876181" lon="11.3409164"><ele>186.0</ele><time>2026-04-04T14:22:56.818Z</time></trkpt><trkpt lat="44.3876897" lon="11.3409083"><ele>186.0</ele><time>2026-04-04T14:22:57.819Z</time></trkpt><trkpt lat="44.3877657" lon="11.3408963"><ele>186.0</ele><time>2026-04-04T14:22:58.819Z</time></trkpt><trkpt lat="44.387864" lon="11.3408916"><ele>186.0</ele><time>2026-04-04T14:22:59.819Z</time></trkpt><trkpt lat="44.3879858" lon="11.3408962"><ele>186.0</ele><time>2026-04-04T14:23:00.818Z</time></trkpt><trkpt lat="44.3881262" lon="11.3408961"><ele>186.0</ele><time>2026-04-04T14:23:01.818Z</time></trkpt><trkpt lat="44.3882908" lon="11.3408981"><ele>185.33333333333334</ele><time>2026-04-04T14:23:02.819Z</time></trkpt><trkpt lat="44.3884713" lon="11.3409032"><ele>184.66666666666669</ele><time>2026-04-04T14:23:03.819Z</time></trkpt><trkpt lat="44.3886627" lon="11.3409241"><ele>184.0</ele><time>2026-04-04T14:23:04.818Z</time></trkpt><trkpt lat="44.3888514" lon="11.34095"><ele>184.0</ele><time>2026-04-04T14:23:05.819Z</time></trkpt><trkpt lat="44.3890409" lon="11.340983"><ele>184.0</ele><time>2026-04-04T14:23:06.818Z</time></trkpt><trkpt lat="44.3892443" lon="11.3410332"><ele>184.0</ele><time>2026-04-04T14:23:07.819Z</time></trkpt><trkpt lat="44.3894412" lon="11.3410921"><ele>184.0</ele><time>2026-04-04T14:23:08.818Z</time></trkpt><trkpt lat="44.3896331" lon="11.3411524"><ele>184.0</ele><time>2026-04-04T14:23:09.818Z</time></trkpt><trkpt lat="44.389814" lon="11.3412057"><ele>184.0</ele><time>2026-04-04T14:23:10.819Z</time></trkpt><trkpt lat="44.389989" lon="11.3412577"><ele>182.66666666666669</ele><time>2026-04-04T14:23:11.819Z</time></trkpt><trkpt lat="44.3901606" lon="11.3413076"><ele>181.33333333333334</ele><time>2026-04-04T14:23:12.819Z</time></trkpt><trkpt lat="44.3903254" lon="11.3413345"><ele>180.0</ele><time>2026-04-04T14:23:13.819Z</time></trkpt><trkpt lat="44.390483" lon="11.3413286"><ele>180.0</ele><time>2026-04-04T14:23:14.817Z</time></trkpt><trkpt lat="44.3906287" lon="11.3413035"><ele>180.0</ele><time>2026-04-04T14:23:15.818Z</time></trkpt><trkpt lat="44.3907556" lon="11.3412786"><ele>180.0</ele><time>2026-04-04T14:23:16.819Z</time></trkpt><trkpt lat="44.390871" lon="11.3412718"><ele>180.0</ele><time>2026-04-04T14:23:17.818Z</time></trkpt><trkpt lat="44.3909722" lon="11.3413212"><ele>180.0</ele><time>2026-04-04T14:23:18.817Z</time></trkpt><trkpt lat="44.391055" lon="11.3414045"><ele>180.0</ele><time>2026-04-04T14:23:19.818Z</time></trkpt><trkpt lat="44.3911288" lon="11.3414473"><ele>180.0</ele><time>2026-04-04T14:23:20.817Z</time></trkpt><trkpt lat="44.3912015" lon="11.3414219"><ele>180.0</ele><time>2026-04-04T14:23:21.818Z</time></trkpt><trkpt lat="44.3912576" lon="11.3413451"><ele>180.0</ele><time>2026-04-04T14:23:22.818Z</time></trkpt><trkpt lat="44.3913064" lon="11.3412336"><ele>180.0</ele><time>2026-04-04T14:23:23.818Z</time></trkpt><trkpt lat="44.3913939" lon="11.3411375"><ele>180.25</ele><time>2026-04-04T14:23:24.818Z</time></trkpt><trkpt lat="44.3915152" lon="11.3410683"><ele>180.5</ele><time>2026-04-04T14:23:25.819Z</time></trkpt><trkpt lat="44.3916619" lon="11.3410196"><ele>180.75</ele><time>2026-04-04T14:23:26.818Z</time></trkpt><trkpt lat="44.3918225" lon="11.3409994"><ele>181.0</ele><time>2026-04-04T14:23:27.817Z</time></trkpt><trkpt lat="44.391997" lon="11.3409883"><ele>181.0</ele><time>2026-04-04T14:23:28.818Z</time></trkpt><trkpt lat="44.3921867" lon="11.3409719"><ele>181.0</ele><time>2026-04-04T14:23:29.818Z</time></trkpt><trkpt lat="44.3923956" lon="11.3409564"><ele>181.0</ele><time>2026-04-04T14:23:30.818Z</time></trkpt><trkpt lat="44.3926156" lon="11.3409587"><ele>181.0</ele><time>2026-04-04T14:23:31.818Z</time></trkpt><trkpt lat="44.3928285" lon="11.3409676"><ele>181.0</ele><time>2026-04-04T14:23:32.817Z</time></trkpt><trkpt lat="44.3930306" lon="11.3409654"><ele>181.0</ele><time>2026-04-04T14:23:33.819Z</time></trkpt><trkpt lat="44.3932214" lon="11.3409592"><ele>180.33333333333334</ele><time>2026-04-04T14:23:34.819Z</time></trkpt><trkpt lat="44.3934009" lon="11.3409477"><ele>179.66666666666666</ele><time>2026-04-04T14:23:35.819Z</time></trkpt><trkpt lat="44.3935785" lon="11.3409365"><ele>179.0</ele><time>2026-04-04T14:23:36.818Z</time></trkpt><trkpt lat="44.3937548" lon="11.3409549"><ele>177.0</ele><time>2026-04-04T14:23:37.818Z</time></trkpt><trkpt lat="44.3939271" lon="11.3410225"><ele>175.0</ele><time>2026-04-04T14:23:38.818Z</time></trkpt><trkpt lat="44.3941021" lon="11.3411289"><ele>173.0</ele><time>2026-04-04T14:23:39.819Z</time></trkpt><trkpt lat="44.3942834" lon="11.3412585"><ele>173.66666666666666</ele><time>2026-04-04T14:23:40.819Z</time></trkpt><trkpt lat="44.3944729" lon="11.341395"><ele>174.33333333333334</ele><time>2026-04-04T14:23:41.818Z</time></trkpt><trkpt lat="44.3946691" lon="11.341535"><ele>175.0</ele><time>2026-04-04T14:23:42.817Z</time></trkpt><trkpt lat="44.3948637" lon="11.3416824"><ele>173.0</ele><time>2026-04-04T14:23:43.817Z</time></trkpt><trkpt lat="44.3950687" lon="11.3418333"><ele>171.0</ele><time>2026-04-04T14:23:44.818Z</time></trkpt><trkpt lat="44.3952779" lon="11.3419925"><ele>171.0</ele><time>2026-04-04T14:23:45.817Z</time></trkpt><trkpt lat="44.3954833" lon="11.3421481"><ele>171.0</ele><time>2026-04-04T14:23:46.819Z</time></trkpt><trkpt lat="44.3956821" lon="11.3423014"><ele>171.66666666666666</ele><time>2026-04-04T14:23:47.819Z</time></trkpt><trkpt lat="44.395871" lon="11.3424569"><ele>172.33333333333331</ele><time>2026-04-04T14:23:48.819Z</time></trkpt><trkpt lat="44.3960515" lon="11.3426116"><ele>173.0</ele><time>2026-04-04T14:23:49.818Z</time></trkpt><trkpt lat="44.3962291" lon="11.3427648"><ele>172.33333333333331</ele><time>2026-04-04T14:23:50.818Z</time></trkpt><trkpt lat="44.3964035" lon="11.3429184"><ele>171.66666666666666</ele><time>2026-04-04T14:23:51.818Z</time></trkpt><trkpt lat="44.3965765" lon="11.3430704"><ele>171.0</ele><time>2026-04-04T14:23:52.819Z</time></trkpt><trkpt lat="44.3967475" lon="11.3432175"><ele>171.0</ele><time>2026-04-04T14:23:53.819Z</time></trkpt><trkpt lat="44.3969155" lon="11.3433631"><ele>171.0</ele><time>2026-04-04T14:23:54.817Z</time></trkpt><trkpt lat="44.3970832" lon="11.3435065"><ele>171.0</ele><time>2026-04-04T14:23:55.817Z</time></trkpt><trkpt lat="44.397248" lon="11.3436495"><ele>170.66666666666666</ele><time>2026-04-04T14:23:56.819Z</time></trkpt><trkpt lat="44.397412" lon="11.343798"><ele>170.33333333333331</ele><time>2026-04-04T14:23:57.819Z</time></trkpt><trkpt lat="44.3975749" lon="11.3439432"><ele>170.0</ele><time>2026-04-04T14:23:58.819Z</time></trkpt><trkpt lat="44.3977388" lon="11.3440865"><ele>170.0</ele><time>2026-04-04T14:23:59.819Z</time></trkpt><trkpt lat="44.3978998" lon="11.3442298"><ele>170.0</ele><time>2026-04-04T14:24:00.819Z</time></trkpt><trkpt lat="44.3980563" lon="11.3443712"><ele>170.0</ele><time>2026-04-04T14:24:01.819Z</time></trkpt><trkpt lat="44.3982027" lon="11.3445076"><ele>169.33333333333331</ele><time>2026-04-04T14:24:02.817Z</time></trkpt><trkpt lat="44.3983444" lon="11.3446416"><ele>168.66666666666666</ele><time>2026-04-04T14:24:03.818Z</time></trkpt><trkpt lat="44.398481" lon="11.3447662"><ele>168.0</ele><time>2026-04-04T14:24:04.818Z</time></trkpt><trkpt lat="44.398612" lon="11.3448813"><ele>168.0</ele><time>2026-04-04T14:24:05.818Z</time></trkpt><trkpt lat="44.3987323" lon="11.3449855"><ele>168.0</ele><time>2026-04-04T14:24:06.817Z</time></trkpt><trkpt lat="44.3988484" lon="11.345091"><ele>168.0</ele><time>2026-04-04T14:24:07.818Z</time></trkpt><trkpt lat="44.3989738" lon="11.3451954"><ele>168.0</ele><time>2026-04-04T14:24:08.819Z</time></trkpt><trkpt lat="44.3991121" lon="11.3453012"><ele>168.0</ele><time>2026-04-04T14:24:09.819Z</time></trkpt><trkpt lat="44.3992616" lon="11.3453975"><ele>168.0</ele><time>2026-04-04T14:24:10.818Z</time></trkpt><trkpt lat="44.3994123" lon="11.3454942"><ele>168.0</ele><time>2026-04-04T14:24:11.818Z</time></trkpt><trkpt lat="44.3995613" lon="11.3455932"><ele>167.33333333333334</ele><time>2026-04-04T14:24:12.818Z</time></trkpt><trkpt lat="44.3997211" lon="11.3456993"><ele>166.66666666666669</ele><time>2026-04-04T14:24:13.819Z</time></trkpt><trkpt lat="44.3998837" lon="11.3458101"><ele>166.0</ele><time>2026-04-04T14:24:14.818Z</time></trkpt><trkpt lat="44.4000478" lon="11.3459237"><ele>166.0</ele><time>2026-04-04T14:24:15.818Z</time></trkpt><trkpt lat="44.4002117" lon="11.3460375"><ele>166.0</ele><time>2026-04-04T14:24:16.818Z</time></trkpt><trkpt lat="44.4003783" lon="11.3461521"><ele>166.0</ele><time>2026-04-04T14:24:17.819Z</time></trkpt><trkpt lat="44.4005498" lon="11.3462715"><ele>162.66666666666669</ele><time>2026-04-04T14:24:18.818Z</time></trkpt><trkpt lat="44.4007357" lon="11.3463927"><ele>159.33333333333334</ele><time>2026-04-04T14:24:19.818Z</time></trkpt><trkpt lat="44.4009401" lon="11.3465204"><ele>156.0</ele><time>2026-04-04T14:24:20.819Z</time></trkpt><trkpt lat="44.4011531" lon="11.3466634"><ele>157.0</ele><time>2026-04-04T14:24:21.819Z</time></trkpt><trkpt lat="44.4013752" lon="11.3468328"><ele>158.0</ele><time>2026-04-04T14:24:22.818Z</time></trkpt><trkpt lat="44.4016086" lon="11.3470114"><ele>158.0</ele><time>2026-04-04T14:24:23.818Z</time></trkpt><trkpt lat="44.4018598" lon="11.3471853"><ele>158.0</ele><time>2026-04-04T14:24:24.818Z</time></trkpt><trkpt lat="44.4021047" lon="11.347359"><ele>156.0</ele><time>2026-04-04T14:24:25.819Z</time></trkpt><trkpt lat="44.4023393" lon="11.3475172"><ele>154.0</ele><time>2026-04-04T14:24:26.819Z</time></trkpt><trkpt lat="44.4025628" lon="11.347669"><ele>154.0</ele><time>2026-04-04T14:24:27.819Z</time></trkpt><trkpt lat="44.4027729" lon="11.3478132"><ele>154.0</ele><time>2026-04-04T14:24:28.818Z</time></trkpt><trkpt lat="44.4029862" lon="11.3479377"><ele>155.0</ele><time>2026-04-04T14:24:29.819Z</time></trkpt><trkpt lat="44.4032048" lon="11.3480265"><ele>156.0</ele><time>2026-04-04T14:24:30.818Z</time></trkpt><trkpt lat="44.4034195" lon="11.3480755"><ele>157.0</ele><time>2026-04-04T14:24:31.818Z</time></trkpt><trkpt lat="44.4036369" lon="11.3480832"><ele>153.66666666666669</ele><time>2026-04-04T14:24:32.818Z</time></trkpt><trkpt lat="44.4038406" lon="11.3480576"><ele>150.33333333333334</ele><time>2026-04-04T14:24:33.817Z</time></trkpt><trkpt lat="44.404023" lon="11.3479788"><ele>147.0</ele><time>2026-04-04T14:24:34.819Z</time></trkpt><trkpt lat="44.4042004" lon="11.3478994"><ele>147.0</ele><time>2026-04-04T14:24:35.818Z</time></trkpt><trkpt lat="44.4043444" lon="11.3476657"><ele>147.0</ele><time>2026-04-04T14:24:36.819Z</time></trkpt><trkpt lat="44.4045089" lon="11.3474943"><ele>147.0</ele><time>2026-04-04T14:24:37.818Z</time></trkpt><trkpt lat="44.4046734" lon="11.347325"><ele>143.33333333333334</ele><time>2026-04-04T14:24:38.819Z</time></trkpt><trkpt lat="44.4048371" lon="11.3471655"><ele>139.66666666666669</ele><time>2026-04-04T14:24:39.818Z</time></trkpt><trkpt lat="44.405014" lon="11.3469984"><ele>136.0</ele><time>2026-04-04T14:24:40.818Z</time></trkpt><trkpt lat="44.405192" lon="11.3468311"><ele>136.0</ele><time>2026-04-04T14:24:41.817Z</time></trkpt><trkpt lat="44.4054061" lon="11.3466457"><ele>136.0</ele><time>2026-04-04T14:24:42.818Z</time></trkpt><trkpt lat="44.4056139" lon="11.3464674"><ele>135.5</ele><time>2026-04-04T14:24:43.819Z</time></trkpt><trkpt lat="44.4058127" lon="11.3463111"><ele>135.0</ele><time>2026-04-04T14:24:44.818Z</time></trkpt><trkpt lat="44.4060053" lon="11.346148"><ele>135.0</ele><time>2026-04-04T14:24:45.819Z</time></trkpt><trkpt lat="44.4061922" lon="11.3459843"><ele>135.0</ele><time>2026-04-04T14:24:46.818Z</time></trkpt><trkpt lat="44.406366" lon="11.3458209"><ele>135.0</ele><time>2026-04-04T14:24:47.818Z</time></trkpt><trkpt lat="44.4065258" lon="11.3456599"><ele>133.66666666666666</ele><time>2026-04-04T14:24:48.817Z</time></trkpt><trkpt lat="44.4066749" lon="11.3455099"><ele>132.33333333333331</ele><time>2026-04-04T14:24:49.819Z</time></trkpt><trkpt lat="44.4068183" lon="11.3453801"><ele>131.0</ele><time>2026-04-04T14:24:50.818Z</time></trkpt><trkpt lat="44.4069663" lon="11.3453052"><ele>131.0</ele><time>2026-04-04T14:24:51.818Z</time></trkpt><trkpt lat="44.4071251" lon="11.3452826"><ele>131.0</ele><time>2026-04-04T14:24:52.817Z</time></trkpt><trkpt lat="44.4072912" lon="11.345316"><ele>131.0</ele><time>2026-04-04T14:24:53.817Z</time></trkpt><trkpt lat="44.4074667" lon="11.3453967"><ele>131.33333333333331</ele><time>2026-04-04T14:24:54.816Z</time></trkpt><trkpt lat="44.4076549" lon="11.3454813"><ele>131.66666666666666</ele><time>2026-04-04T14:24:55.818Z</time></trkpt><trkpt lat="44.4078559" lon="11.34557"><ele>132.0</ele><time>2026-04-04T14:24:56.817Z</time></trkpt><trkpt lat="44.4080573" lon="11.3456681"><ele>131.33333333333334</ele><time>2026-04-04T14:24:57.817Z</time></trkpt><trkpt lat="44.40824" lon="11.3457876"><ele>130.66666666666669</ele><time>2026-04-04T14:24:58.818Z</time></trkpt><trkpt lat="44.4083998" lon="11.3459245"><ele>130.0</ele><time>2026-04-04T14:24:59.818Z</time></trkpt><trkpt lat="44.4085426" lon="11.3460699"><ele>130.0</ele><time>2026-04-04T14:25:00.818Z</time></trkpt><trkpt lat="44.4086663" lon="11.3462051"><ele>130.0</ele><time>2026-04-04T14:25:01.818Z</time></trkpt><trkpt lat="44.4087681" lon="11.346302"><ele>130.0</ele><time>2026-04-04T14:25:02.817Z</time></trkpt><trkpt lat="44.4088655" lon="11.3463347"><ele>130.0</ele><time>2026-04-04T14:25:03.818Z</time></trkpt><trkpt lat="44.4089471" lon="11.3463038"><ele>129.75</ele><time>2026-04-04T14:25:04.817Z</time></trkpt><trkpt lat="44.4090302" lon="11.3462103"><ele>129.5</ele><time>2026-04-04T14:25:05.817Z</time></trkpt><trkpt lat="44.4091085" lon="11.3460612"><ele>129.25</ele><time>2026-04-04T14:25:06.818Z</time></trkpt><trkpt lat="44.4091898" lon="11.3458745"><ele>129.0</ele><time>2026-04-04T14:25:07.818Z</time></trkpt><trkpt lat="44.4092848" lon="11.3456636"><ele>130.0</ele><time>2026-04-04T14:25:08.818Z</time></trkpt><trkpt lat="44.4093868" lon="11.3454132"><ele>131.0</ele><time>2026-04-04T14:25:09.818Z</time></trkpt><trkpt lat="44.409485" lon="11.3451477"><ele>132.0</ele><time>2026-04-04T14:25:10.818Z</time></trkpt><trkpt lat="44.409578" lon="11.3448938"><ele>131.0</ele><time>2026-04-04T14:25:11.818Z</time></trkpt><trkpt lat="44.4096647" lon="11.3446545"><ele>130.0</ele><time>2026-04-04T14:25:12.818Z</time></trkpt><trkpt lat="44.4097468" lon="11.3444404"><ele>129.0</ele><time>2026-04-04T14:25:13.818Z</time></trkpt><trkpt lat="44.4098171" lon="11.3442667"><ele>129.0</ele><time>2026-04-04T14:25:14.817Z</time></trkpt><trkpt lat="44.4098828" lon="11.3441296"><ele>129.0</ele><time>2026-04-04T14:25:15.818Z</time></trkpt><trkpt lat="44.4099553" lon="11.3440536"><ele>129.0</ele><time>2026-04-04T14:25:16.818Z</time></trkpt><trkpt lat="44.4100213" lon="11.3440378"><ele>129.0</ele><time>2026-04-04T14:25:17.816Z</time></trkpt><trkpt lat="44.4100973" lon="11.3440657"><ele>129.0</ele><time>2026-04-04T14:25:18.817Z</time></trkpt><trkpt lat="44.4101914" lon="11.3441429"><ele>129.0</ele><time>2026-04-04T14:25:19.818Z</time></trkpt><trkpt lat="44.410311" lon="11.344231"><ele>129.0</ele><time>2026-04-04T14:25:20.818Z</time></trkpt><trkpt lat="44.410461" lon="11.3443232"><ele>129.0</ele><time>2026-04-04T14:25:21.818Z</time></trkpt><trkpt lat="44.4106293" lon="11.3444286"><ele>129.0</ele><time>2026-04-04T14:25:22.818Z</time></trkpt><trkpt lat="44.4108198" lon="11.3445584"><ele>129.0</ele><time>2026-04-04T14:25:23.818Z</time></trkpt><trkpt lat="44.4110285" lon="11.3447016"><ele>129.0</ele><time>2026-04-04T14:25:24.817Z</time></trkpt><trkpt lat="44.4112499" lon="11.344853"><ele>127.5</ele><time>2026-04-04T14:25:25.817Z</time></trkpt><trkpt lat="44.4114839" lon="11.3450143"><ele>126.0</ele><time>2026-04-04T14:25:26.818Z</time></trkpt><trkpt lat="44.4117302" lon="11.3451822"><ele>126.0</ele><time>2026-04-04T14:25:27.818Z</time></trkpt><trkpt lat="44.411991" lon="11.345344"><ele>126.0</ele><time>2026-04-04T14:25:28.817Z</time></trkpt><trkpt lat="44.4122624" lon="11.3454898"><ele>127.0</ele><time>2026-04-04T14:25:29.817Z</time></trkpt><trkpt lat="44.4125447" lon="11.345618"><ele>128.0</ele><time>2026-04-04T14:25:30.817Z</time></trkpt><trkpt lat="44.4128388" lon="11.3457246"><ele>128.0</ele><time>2026-04-04T14:25:31.818Z</time></trkpt><trkpt lat="44.4131406" lon="11.3458052"><ele>128.0</ele><time>2026-04-04T14:25:32.817Z</time></trkpt><trkpt lat="44.4134438" lon="11.3458531"><ele>128.0</ele><time>2026-04-04T14:25:33.818Z</time></trkpt><trkpt lat="44.413744" lon="11.3458706"><ele>128.0</ele><time>2026-04-04T14:25:34.818Z</time></trkpt><trkpt lat="44.4140375" lon="11.3458575"><ele>127.5</ele><time>2026-04-04T14:25:35.817Z</time></trkpt><trkpt lat="44.4143232" lon="11.3458238"><ele>127.0</ele><time>2026-04-04T14:25:36.818Z</time></trkpt><trkpt lat="44.4146097" lon="11.3457823"><ele>126.0</ele><time>2026-04-04T14:25:37.818Z</time></trkpt><trkpt lat="44.4149008" lon="11.3457366"><ele>125.0</ele><time>2026-04-04T14:25:38.818Z</time></trkpt><trkpt lat="44.4151973" lon="11.3456911"><ele>123.5</ele><time>2026-04-04T14:25:39.818Z</time></trkpt><trkpt lat="44.4154992" lon="11.345653"><ele>122.0</ele><time>2026-04-04T14:25:40.818Z</time></trkpt><trkpt lat="44.4158052" lon="11.3456332"><ele>122.0</ele><time>2026-04-04T14:25:41.818Z</time></trkpt><trkpt lat="44.4161172" lon="11.3456134"><ele>122.0</ele><time>2026-04-04T14:25:42.817Z</time></trkpt><trkpt lat="44.4164343" lon="11.3455919"><ele>122.0</ele><time>2026-04-04T14:25:43.817Z</time></trkpt><trkpt lat="44.4167558" lon="11.3455747"><ele>122.0</ele><time>2026-04-04T14:25:44.817Z</time></trkpt><trkpt lat="44.4170812" lon="11.3455576"><ele>123.0</ele><time>2026-04-04T14:25:45.817Z</time></trkpt><trkpt lat="44.4174106" lon="11.3455346"><ele>124.0</ele><time>2026-04-04T14:25:46.817Z</time></trkpt><trkpt lat="44.4177392" lon="11.3455032"><ele>123.0</ele><time>2026-04-04T14:25:47.817Z</time></trkpt><trkpt lat="44.4180703" lon="11.345473"><ele>122.0</ele><time>2026-04-04T14:25:48.816Z</time></trkpt><trkpt lat="44.4184027" lon="11.345438"><ele>122.0</ele><time>2026-04-04T14:25:49.816Z</time></trkpt><trkpt lat="44.4187389" lon="11.3453973"><ele>122.0</ele><time>2026-04-04T14:25:50.817Z</time></trkpt><trkpt lat="44.419076" lon="11.3453567"><ele>123.0</ele><time>2026-04-04T14:25:51.816Z</time></trkpt><trkpt lat="44.4194146" lon="11.3453101"><ele>124.0</ele><time>2026-04-04T14:25:52.818Z</time></trkpt><trkpt lat="44.4197564" lon="11.3452611"><ele>124.0</ele><time>2026-04-04T14:25:53.818Z</time></trkpt><trkpt lat="44.4201017" lon="11.345216"><ele>124.0</ele><time>2026-04-04T14:25:54.817Z</time></trkpt><trkpt lat="44.4204483" lon="11.3451728"><ele>119.5</ele><time>2026-04-04T14:25:55.818Z</time></trkpt><trkpt lat="44.4207973" lon="11.3451325"><ele>115.0</ele><time>2026-04-04T14:25:56.817Z</time></trkpt><trkpt lat="44.4211379" lon="11.345091"><ele>116.5</ele><time>2026-04-04T14:25:57.818Z</time></trkpt><trkpt lat="44.4214543" lon="11.345053"><ele>118.0</ele><time>2026-04-04T14:25:58.818Z</time></trkpt><trkpt lat="44.4217528" lon="11.3450273"><ele>118.0</ele><time>2026-04-04T14:25:59.818Z</time></trkpt><trkpt lat="44.4220321" lon="11.3450236"><ele>118.0</ele><time>2026-04-04T14:26:00.817Z</time></trkpt><trkpt lat="44.4222943" lon="11.345039"><ele>117.0</ele><time>2026-04-04T14:26:01.817Z</time></trkpt><trkpt lat="44.422539" lon="11.345076"><ele>116.0</ele><time>2026-04-04T14:26:02.817Z</time></trkpt><trkpt lat="44.4227621" lon="11.3451178"><ele>116.0</ele><time>2026-04-04T14:26:03.817Z</time></trkpt><trkpt lat="44.4229695" lon="11.3451706"><ele>116.0</ele><time>2026-04-04T14:26:04.817Z</time></trkpt><trkpt lat="44.4231624" lon="11.34523"><ele>116.0</ele><time>2026-04-04T14:26:05.818Z</time></trkpt><trkpt lat="44.4233406" lon="11.3452937"><ele>118.0</ele><time>2026-04-04T14:26:06.818Z</time></trkpt><trkpt lat="44.4235085" lon="11.3453659"><ele>120.0</ele><time>2026-04-04T14:26:07.818Z</time></trkpt><trkpt lat="44.4236739" lon="11.3454461"><ele>122.0</ele><time>2026-04-04T14:26:08.818Z</time></trkpt><trkpt lat="44.4238397" lon="11.3455295"><ele>119.33333333333333</ele><time>2026-04-04T14:26:09.818Z</time></trkpt><trkpt lat="44.424004" lon="11.3456225"><ele>116.66666666666666</ele><time>2026-04-04T14:26:10.816Z</time></trkpt><trkpt lat="44.4241652" lon="11.3457233"><ele>114.0</ele><time>2026-04-04T14:26:11.817Z</time></trkpt><trkpt lat="44.4243236" lon="11.3458288"><ele>114.0</ele><time>2026-04-04T14:26:12.817Z</time></trkpt><trkpt lat="44.4244759" lon="11.3459446"><ele>114.0</ele><time>2026-04-04T14:26:13.818Z</time></trkpt><trkpt lat="44.4246238" lon="11.3460588"><ele>114.0</ele><time>2026-04-04T14:26:14.817Z</time></trkpt><trkpt lat="44.4247634" lon="11.3461782"><ele>113.66666666666666</ele><time>2026-04-04T14:26:15.818Z</time></trkpt><trkpt lat="44.4249027" lon="11.3462993"><ele>113.33333333333333</ele><time>2026-04-04T14:26:16.817Z</time></trkpt><trkpt lat="44.4250386" lon="11.3464314"><ele>113.0</ele><time>2026-04-04T14:26:17.816Z</time></trkpt><trkpt lat="44.4251743" lon="11.3465753"><ele>113.0</ele><time>2026-04-04T14:26:18.817Z</time></trkpt><trkpt lat="44.4253074" lon="11.3467247"><ele>113.0</ele><time>2026-04-04T14:26:19.818Z</time></trkpt><trkpt lat="44.4254376" lon="11.3468761"><ele>113.0</ele><time>2026-04-04T14:26:20.818Z</time></trkpt><trkpt lat="44.4255593" lon="11.3470276"><ele>113.0</ele><time>2026-04-04T14:26:21.817Z</time></trkpt><trkpt lat="44.4256699" lon="11.3471853"><ele>113.0</ele><time>2026-04-04T14:26:22.817Z</time></trkpt><trkpt lat="44.425777" lon="11.3473383"><ele>113.0</ele><time>2026-04-04T14:26:23.818Z</time></trkpt><trkpt lat="44.4258857" lon="11.3474916"><ele>113.0</ele><time>2026-04-04T14:26:24.818Z</time></trkpt><trkpt lat="44.4259921" lon="11.347647"><ele>113.0</ele><time>2026-04-04T14:26:25.817Z</time></trkpt><trkpt lat="44.4260991" lon="11.3478017"><ele>113.0</ele><time>2026-04-04T14:26:26.817Z</time></trkpt><trkpt lat="44.4262059" lon="11.3479505"><ele>112.66666666666666</ele><time>2026-04-04T14:26:27.817Z</time></trkpt><trkpt lat="44.426326" lon="11.3481033"><ele>112.33333333333334</ele><time>2026-04-04T14:26:28.817Z</time></trkpt><trkpt lat="44.4264732" lon="11.3482716"><ele>112.0</ele><time>2026-04-04T14:26:29.818Z</time></trkpt><trkpt lat="44.4266468" lon="11.3484337"><ele>112.0</ele><time>2026-04-04T14:26:30.817Z</time></trkpt><trkpt lat="44.4268206" lon="11.3485849"><ele>112.0</ele><time>2026-04-04T14:26:31.817Z</time></trkpt><trkpt lat="44.426997" lon="11.3487148"><ele>112.0</ele><time>2026-04-04T14:26:32.817Z</time></trkpt><trkpt lat="44.4271816" lon="11.3488239"><ele>111.5</ele><time>2026-04-04T14:26:33.817Z</time></trkpt><trkpt lat="44.4273941" lon="11.3489199"><ele>111.0</ele><time>2026-04-04T14:26:34.818Z</time></trkpt><trkpt lat="44.4276265" lon="11.3490178"><ele>111.0</ele><time>2026-04-04T14:26:35.818Z</time></trkpt><trkpt lat="44.4278751" lon="11.3491259"><ele>111.0</ele><time>2026-04-04T14:26:36.817Z</time></trkpt><trkpt lat="44.4281289" lon="11.3492365"><ele>110.0</ele><time>2026-04-04T14:26:37.817Z</time></trkpt><trkpt lat="44.4283872" lon="11.3493552"><ele>109.0</ele><time>2026-04-04T14:26:38.817Z</time></trkpt><trkpt lat="44.4286568" lon="11.3494812"><ele>109.0</ele><time>2026-04-04T14:26:39.817Z</time></trkpt><trkpt lat="44.4289351" lon="11.3496139"><ele>109.0</ele><time>2026-04-04T14:26:40.818Z</time></trkpt><trkpt lat="44.4292161" lon="11.3497546"><ele>109.0</ele><time>2026-04-04T14:26:41.818Z</time></trkpt><trkpt lat="44.4295017" lon="11.3498944"><ele>109.0</ele><time>2026-04-04T14:26:42.818Z</time></trkpt><trkpt lat="44.4297992" lon="11.3500314"><ele>109.0</ele><time>2026-04-04T14:26:43.818Z</time></trkpt><trkpt lat="44.4300968" lon="11.3501709"><ele>109.0</ele><time>2026-04-04T14:26:44.818Z</time></trkpt><trkpt lat="44.4303965" lon="11.3503084"><ele>109.0</ele><time>2026-04-04T14:26:45.818Z</time></trkpt><trkpt lat="44.4307017" lon="11.3504451"><ele>109.0</ele><time>2026-04-04T14:26:46.817Z</time></trkpt><trkpt lat="44.4310114" lon="11.3505853"><ele>110.5</ele><time>2026-04-04T14:26:47.817Z</time></trkpt><trkpt lat="44.431324" lon="11.3507265"><ele>112.0</ele><time>2026-04-04T14:26:48.817Z</time></trkpt><trkpt lat="44.4316379" lon="11.3508698"><ele>112.0</ele><time>2026-04-04T14:26:49.817Z</time></trkpt><trkpt lat="44.4319539" lon="11.3510163"><ele>112.0</ele><time>2026-04-04T14:26:50.816Z</time></trkpt><trkpt lat="44.4322705" lon="11.3511669"><ele>109.5</ele><time>2026-04-04T14:26:51.816Z</time></trkpt><trkpt lat="44.4325668" lon="11.3513088"><ele>107.0</ele><time>2026-04-04T14:26:52.818Z</time></trkpt><trkpt lat="44.4328403" lon="11.3514354"><ele>107.0</ele><time>2026-04-04T14:26:53.817Z</time></trkpt><trkpt lat="44.4331158" lon="11.3515381"><ele>107.0</ele><time>2026-04-04T14:26:54.817Z</time></trkpt><trkpt lat="44.4333986" lon="11.3516137"><ele>107.0</ele><time>2026-04-04T14:26:55.818Z</time></trkpt><trkpt lat="44.4336896" lon="11.351659"><ele>107.0</ele><time>2026-04-04T14:26:56.817Z</time></trkpt><trkpt lat="44.4339885" lon="11.3516794"><ele>106.5</ele><time>2026-04-04T14:26:57.818Z</time></trkpt><trkpt lat="44.434293" lon="11.3516997"><ele>106.0</ele><time>2026-04-04T14:26:58.816Z</time></trkpt><trkpt lat="44.434603" lon="11.3517268"><ele>106.5</ele><time>2026-04-04T14:26:59.818Z</time></trkpt><trkpt lat="44.4349179" lon="11.3517616"><ele>107.0</ele><time>2026-04-04T14:27:00.817Z</time></trkpt><trkpt lat="44.4352375" lon="11.3518013"><ele>106.5</ele><time>2026-04-04T14:27:01.818Z</time></trkpt><trkpt lat="44.4355597" lon="11.3518376"><ele>106.0</ele><time>2026-04-04T14:27:02.817Z</time></trkpt><trkpt lat="44.4358853" lon="11.3518698"><ele>106.0</ele><time>2026-04-04T14:27:03.818Z</time></trkpt><trkpt lat="44.4362129" lon="11.3519119"><ele>106.0</ele><time>2026-04-04T14:27:04.817Z</time></trkpt><trkpt lat="44.436542" lon="11.3519483"><ele>104.0</ele><time>2026-04-04T14:27:05.817Z</time></trkpt><trkpt lat="44.4368732" lon="11.3519775"><ele>102.0</ele><time>2026-04-04T14:27:06.817Z</time></trkpt><trkpt lat="44.4372071" lon="11.3520035"><ele>100.5</ele><time>2026-04-04T14:27:07.817Z</time></trkpt><trkpt lat="44.4375415" lon="11.3520321"><ele>99.0</ele><time>2026-04-04T14:27:08.818Z</time></trkpt><trkpt lat="44.437867" lon="11.3520576"><ele>99.0</ele><time>2026-04-04T14:27:09.818Z</time></trkpt><trkpt lat="44.4381848" lon="11.3520814"><ele>99.0</ele><time>2026-04-04T14:27:10.818Z</time></trkpt><trkpt lat="44.4384841" lon="11.3520983"><ele>99.0</ele><time>2026-04-04T14:27:11.818Z</time></trkpt><trkpt lat="44.4387515" lon="11.3521079"><ele>99.0</ele><time>2026-04-04T14:27:12.817Z</time></trkpt><trkpt lat="44.4389772" lon="11.3521135"><ele>100.0</ele><time>2026-04-04T14:27:13.817Z</time></trkpt><trkpt lat="44.4391695" lon="11.3521199"><ele>101.0</ele><time>2026-04-04T14:27:14.817Z</time></trkpt><trkpt lat="44.4393371" lon="11.3521257"><ele>102.0</ele><time>2026-04-04T14:27:15.817Z</time></trkpt><trkpt lat="44.4394836" lon="11.3521339"><ele>102.0</ele><time>2026-04-04T14:27:16.818Z</time></trkpt><trkpt lat="44.4396101" lon="11.3521515"><ele>102.0</ele><time>2026-04-04T14:27:17.818Z</time></trkpt><trkpt lat="44.439717" lon="11.3522062"><ele>102.0</ele><time>2026-04-04T14:27:18.818Z</time></trkpt><trkpt lat="44.4398067" lon="11.3522817"><ele>102.0</ele><time>2026-04-04T14:27:19.818Z</time></trkpt><trkpt lat="44.4399071" lon="11.3523216"><ele>101.75</ele><time>2026-04-04T14:27:20.818Z</time></trkpt><trkpt lat="44.4400153" lon="11.3523055"><ele>101.5</ele><time>2026-04-04T14:27:21.817Z</time></trkpt><trkpt lat="44.4401372" lon="11.3522411"><ele>101.25</ele><time>2026-04-04T14:27:22.818Z</time></trkpt><trkpt lat="44.4402831" lon="11.3522095"><ele>101.0</ele><time>2026-04-04T14:27:23.817Z</time></trkpt><trkpt lat="44.4404594" lon="11.3522177"><ele>100.66666666666666</ele><time>2026-04-04T14:27:24.818Z</time></trkpt><trkpt lat="44.4406588" lon="11.3522055"><ele>100.33333333333334</ele><time>2026-04-04T14:27:25.818Z</time></trkpt><trkpt lat="44.4408627" lon="11.3521626"><ele>100.0</ele><time>2026-04-04T14:27:26.818Z</time></trkpt><trkpt lat="44.4410651" lon="11.3520889"><ele>100.0</ele><time>2026-04-04T14:27:27.818Z</time></trkpt><trkpt lat="44.4412478" lon="11.3520164"><ele>100.0</ele><time>2026-04-04T14:27:28.817Z</time></trkpt><trkpt lat="44.4414197" lon="11.3519448"><ele>100.0</ele><time>2026-04-04T14:27:29.818Z</time></trkpt><trkpt lat="44.4415735" lon="11.3518778"><ele>100.25</ele><time>2026-04-04T14:27:30.818Z</time></trkpt><trkpt lat="44.4417075" lon="11.3518304"><ele>100.5</ele><time>2026-04-04T14:27:31.818Z</time></trkpt><trkpt lat="44.4418358" lon="11.3517965"><ele>100.75</ele><time>2026-04-04T14:27:32.818Z</time></trkpt><trkpt lat="44.4419562" lon="11.3517868"><ele>101.0</ele><time>2026-04-04T14:27:33.818Z</time></trkpt><trkpt lat="44.442059" lon="11.3517873"><ele>100.0</ele><time>2026-04-04T14:27:34.817Z</time></trkpt><trkpt lat="44.4421561" lon="11.351796"><ele>99.0</ele><time>2026-04-04T14:27:35.817Z</time></trkpt><trkpt lat="44.4422641" lon="11.3518141"><ele>98.0</ele><time>2026-04-04T14:27:36.817Z</time></trkpt><trkpt lat="44.4423626" lon="11.3518393"><ele>97.0</ele><time>2026-04-04T14:27:37.818Z</time></trkpt><trkpt lat="44.4424607" lon="11.3518746"><ele>96.0</ele><time>2026-04-04T14:27:38.818Z</time></trkpt><trkpt lat="44.4425561" lon="11.3519138"><ele>96.0</ele><time>2026-04-04T14:27:39.817Z</time></trkpt><trkpt lat="44.4426469" lon="11.3519668"><ele>96.0</ele><time>2026-04-04T14:27:40.817Z</time></trkpt><trkpt lat="44.442726" lon="11.352031"><ele>96.0</ele><time>2026-04-04T14:27:41.817Z</time></trkpt><trkpt lat="44.4427975" lon="11.3520947"><ele>96.0</ele><time>2026-04-04T14:27:42.817Z</time></trkpt><trkpt lat="44.4428663" lon="11.3521605"><ele>96.0</ele><time>2026-04-04T14:27:43.818Z</time></trkpt><trkpt lat="44.4429391" lon="11.3522434"><ele>96.8</ele><time>2026-04-04T14:27:44.818Z</time></trkpt><trkpt lat="44.4430123" lon="11.3523423"><ele>97.6</ele><time>2026-04-04T14:27:45.818Z</time></trkpt><trkpt lat="44.4430868" lon="11.3524575"><ele>98.4</ele><time>2026-04-04T14:27:46.818Z</time></trkpt><trkpt lat="44.4431542" lon="11.3525858"><ele>99.2</ele><time>2026-04-04T14:27:47.817Z</time></trkpt><trkpt lat="44.4432154" lon="11.3527218"><ele>100.0</ele><time>2026-04-04T14:27:48.816Z</time></trkpt><trkpt lat="44.4432749" lon="11.3528717"><ele>100.0</ele><time>2026-04-04T14:27:49.816Z</time></trkpt><trkpt lat="44.4433273" lon="11.3530306"><ele>100.0</ele><time>2026-04-04T14:27:50.815Z</time></trkpt><trkpt lat="44.4433889" lon="11.3531944"><ele>100.0</ele><time>2026-04-04T14:27:51.816Z</time></trkpt><trkpt lat="44.4434619" lon="11.3533585"><ele>100.0</ele><time>2026-04-04T14:27:52.816Z</time></trkpt><trkpt lat="44.4435481" lon="11.3535118"><ele>100.25</ele><time>2026-04-04T14:27:53.815Z</time></trkpt><trkpt lat="44.4436396" lon="11.3536423"><ele>100.5</ele><time>2026-04-04T14:27:54.815Z</time></trkpt><trkpt lat="44.4437269" lon="11.3537551"><ele>100.75</ele><time>2026-04-04T14:27:55.816Z</time></trkpt><trkpt lat="44.4438066" lon="11.3538558"><ele>101.0</ele><time>2026-04-04T14:27:56.817Z</time></trkpt><trkpt lat="44.4438717" lon="11.3539592"><ele>101.16666666666666</ele><time>2026-04-04T14:27:57.816Z</time></trkpt><trkpt lat="44.4439203" lon="11.3540676"><ele>101.33333333333333</ele><time>2026-04-04T14:27:58.817Z</time></trkpt><trkpt lat="44.4439595" lon="11.3541662"><ele>101.5</ele><time>2026-04-04T14:27:59.817Z</time></trkpt><trkpt lat="44.4440153" lon="11.3542338"><ele>101.66666666666666</ele><time>2026-04-04T14:28:00.817Z</time></trkpt><trkpt lat="44.4440828" lon="11.3542597"><ele>101.83333333333333</ele><time>2026-04-04T14:28:01.817Z</time></trkpt><trkpt lat="44.4441498" lon="11.3542451"><ele>102.0</ele><time>2026-04-04T14:28:02.815Z</time></trkpt><trkpt lat="44.4442258" lon="11.354106"><ele>102.0</ele><time>2026-04-04T14:28:04.817Z</time></trkpt><trkpt lat="44.4442197" lon="11.3540108"><ele>102.0</ele><time>2026-04-04T14:28:05.815Z</time></trkpt><trkpt lat="44.444181" lon="11.353927"><ele>102.0</ele><time>2026-04-04T14:28:06.816Z</time></trkpt><trkpt lat="44.4441168" lon="11.3538734"><ele>102.0</ele><time>2026-04-04T14:28:07.817Z</time></trkpt><trkpt lat="44.4440319" lon="11.3538575"><ele>102.0</ele><time>2026-04-04T14:28:08.817Z</time></trkpt><trkpt lat="44.4439363" lon="11.3538402"><ele>102.0</ele><time>2026-04-04T14:28:09.815Z</time></trkpt><trkpt lat="44.4438276" lon="11.3537704"><ele>101.66666666666666</ele><time>2026-04-04T14:28:10.816Z</time></trkpt><trkpt lat="44.4437093" lon="11.3536533"><ele>101.33333333333333</ele><time>2026-04-04T14:28:11.816Z</time></trkpt><trkpt lat="44.443592" lon="11.3534911"><ele>101.0</ele><time>2026-04-04T14:28:12.816Z</time></trkpt><trkpt lat="44.4434834" lon="11.3532758"><ele>100.66666666666666</ele><time>2026-04-04T14:28:13.815Z</time></trkpt><trkpt lat="44.4433871" lon="11.3530295"><ele>100.33333333333334</ele><time>2026-04-04T14:28:14.816Z</time></trkpt><trkpt lat="44.4433031" lon="11.3527786"><ele>100.0</ele><time>2026-04-04T14:28:15.816Z</time></trkpt><trkpt lat="44.4432092" lon="11.3525459"><ele>100.0</ele><time>2026-04-04T14:28:16.816Z</time></trkpt><trkpt lat="44.4430835" lon="11.3523223"><ele>100.0</ele><time>2026-04-04T14:28:17.816Z</time></trkpt><trkpt lat="44.4429256" lon="11.3521227"><ele>100.0</ele><time>2026-04-04T14:28:18.817Z</time></trkpt><trkpt lat="44.4427504" lon="11.3519484"><ele>98.66666666666667</ele><time>2026-04-04T14:28:19.816Z</time></trkpt><trkpt lat="44.442559" lon="11.3518219"><ele>97.33333333333334</ele><time>2026-04-04T14:28:20.817Z</time></trkpt><trkpt lat="44.4423596" lon="11.3517416"><ele>96.0</ele><time>2026-04-04T14:28:21.816Z</time></trkpt><trkpt lat="44.4421509" lon="11.3517094"><ele>97.66666666666666</ele><time>2026-04-04T14:28:22.816Z</time></trkpt><trkpt lat="44.4419329" lon="11.3517232"><ele>99.33333333333333</ele><time>2026-04-04T14:28:23.816Z</time></trkpt><trkpt lat="44.4417112" lon="11.3517867"><ele>101.0</ele><time>2026-04-04T14:28:24.815Z</time></trkpt><trkpt lat="44.4414915" lon="11.3518835"><ele>100.66666666666666</ele><time>2026-04-04T14:28:25.817Z</time></trkpt><trkpt lat="44.441288" lon="11.3519809"><ele>100.33333333333334</ele><time>2026-04-04T14:28:26.817Z</time></trkpt><trkpt lat="44.4410964" lon="11.3520588"><ele>100.0</ele><time>2026-04-04T14:28:27.817Z</time></trkpt><trkpt lat="44.440915" lon="11.3521199"><ele>100.0</ele><time>2026-04-04T14:28:28.816Z</time></trkpt><trkpt lat="44.4407419" lon="11.3521615"><ele>100.0</ele><time>2026-04-04T14:28:29.817Z</time></trkpt><trkpt lat="44.4405779" lon="11.3521783"><ele>100.0</ele><time>2026-04-04T14:28:30.817Z</time></trkpt><trkpt lat="44.4404251" lon="11.3521739"><ele>100.5</ele><time>2026-04-04T14:28:31.817Z</time></trkpt><trkpt lat="44.4402933" lon="11.3521495"><ele>101.0</ele><time>2026-04-04T14:28:32.817Z</time></trkpt><trkpt lat="44.4401803" lon="11.3520988"><ele>101.5</ele><time>2026-04-04T14:28:33.815Z</time></trkpt><trkpt lat="44.440096" lon="11.3520102"><ele>102.0</ele><time>2026-04-04T14:28:34.817Z</time></trkpt><trkpt lat="44.4400259" lon="11.3519182"><ele>102.0</ele><time>2026-04-04T14:28:35.816Z</time></trkpt><trkpt lat="44.4399437" lon="11.351887"><ele>102.0</ele><time>2026-04-04T14:28:36.817Z</time></trkpt><trkpt lat="44.439869" lon="11.3519122"><ele>102.0</ele><time>2026-04-04T14:28:37.817Z</time></trkpt><trkpt lat="44.4398085" lon="11.3519842"><ele>102.0</ele><time>2026-04-04T14:28:38.816Z</time></trkpt><trkpt lat="44.4397778" lon="11.3520956"><ele>102.0</ele><time>2026-04-04T14:28:39.816Z</time></trkpt><trkpt lat="44.4397867" lon="11.3522215"><ele>102.0</ele><time>2026-04-04T14:28:40.815Z</time></trkpt><trkpt lat="44.4398365" lon="11.3523339"><ele>101.75</ele><time>2026-04-04T14:28:41.816Z</time></trkpt><trkpt lat="44.4399053" lon="11.3524627"><ele>101.5</ele><time>2026-04-04T14:28:42.816Z</time></trkpt><trkpt lat="44.4399438" lon="11.3526497"><ele>101.25</ele><time>2026-04-04T14:28:43.817Z</time></trkpt><trkpt lat="44.4399736" lon="11.352871"><ele>101.0</ele><time>2026-04-04T14:28:44.816Z</time></trkpt><trkpt lat="44.4400055" lon="11.3531028"><ele>100.5</ele><time>2026-04-04T14:28:45.817Z</time></trkpt><trkpt lat="44.4400333" lon="11.3533111"><ele>100.0</ele><time>2026-04-04T14:28:46.817Z</time></trkpt><trkpt lat="44.4400609" lon="11.353505"><ele>99.5</ele><time>2026-04-04T14:28:47.817Z</time></trkpt><trkpt lat="44.4400861" lon="11.3536779"><ele>99.0</ele><time>2026-04-04T14:28:48.816Z</time></trkpt><trkpt lat="44.4400952" lon="11.3538118"><ele>99.71428571428572</ele><time>2026-04-04T14:28:49.816Z</time></trkpt><trkpt lat="44.4400839" lon="11.3539154"><ele>100.42857142857142</ele><time>2026-04-04T14:28:50.817Z</time></trkpt><trkpt lat="44.4400475" lon="11.3539962"><ele>101.14285714285714</ele><time>2026-04-04T14:28:51.817Z</time></trkpt><trkpt lat="44.4399901" lon="11.3540686"><ele>101.85714285714286</ele><time>2026-04-04T14:28:52.817Z</time></trkpt><trkpt lat="44.4399399" lon="11.354148"><ele>102.57142857142858</ele><time>2026-04-04T14:28:53.817Z</time></trkpt><trkpt lat="44.4399356" lon="11.3542384"><ele>103.28571428571428</ele><time>2026-04-04T14:28:54.816Z</time></trkpt><trkpt lat="44.439966" lon="11.3543316"><ele>104.0</ele><time>2026-04-04T14:28:55.817Z</time></trkpt><trkpt lat="44.4400243" lon="11.3543816"><ele>104.0</ele><time>2026-04-04T14:28:56.817Z</time></trkpt><trkpt lat="44.4400991" lon="11.3543804"><ele>104.0</ele><time>2026-04-04T14:28:57.817Z</time></trkpt><trkpt lat="44.4401733" lon="11.3543287"><ele>104.0</ele><time>2026-04-04T14:28:58.817Z</time></trkpt><trkpt lat="44.4402591" lon="11.3542527"><ele>104.0</ele><time>2026-04-04T14:28:59.817Z</time></trkpt><trkpt lat="44.4403749" lon="11.3542009"><ele>104.0</ele><time>2026-04-04T14:29:00.817Z</time></trkpt><trkpt lat="44.440525" lon="11.3541573"><ele>104.25</ele><time>2026-04-04T14:29:01.816Z</time></trkpt><trkpt lat="44.4406701" lon="11.3541355"><ele>104.5</ele><time>2026-04-04T14:29:02.817Z</time></trkpt><trkpt lat="44.440798" lon="11.3541314"><ele>104.75</ele><time>2026-04-04T14:29:03.817Z</time></trkpt><trkpt lat="44.4409254" lon="11.3541179"><ele>105.0</ele><time>2026-04-04T14:29:04.817Z</time></trkpt><trkpt lat="44.4410489" lon="11.3541013"><ele>105.0</ele><time>2026-04-04T14:29:05.817Z</time></trkpt><trkpt lat="44.4411699" lon="11.3540786"><ele>105.0</ele><time>2026-04-04T14:29:06.817Z</time></trkpt><trkpt lat="44.441282" lon="11.3540583"><ele>105.0</ele><time>2026-04-04T14:29:07.816Z</time></trkpt><trkpt lat="44.4413969" lon="11.3540645"><ele>105.0</ele><time>2026-04-04T14:29:08.817Z</time></trkpt><trkpt lat="44.441512" lon="11.3540959"><ele>105.0</ele><time>2026-04-04T14:29:09.816Z</time></trkpt><trkpt lat="44.4416193" lon="11.3541504"><ele>105.0</ele><time>2026-04-04T14:29:10.817Z</time></trkpt><trkpt lat="44.4417176" lon="11.3542073"><ele>105.0</ele><time>2026-04-04T14:29:11.816Z</time></trkpt><trkpt lat="44.4418098" lon="11.3542624"><ele>105.0</ele><time>2026-04-04T14:29:12.817Z</time></trkpt><trkpt lat="44.4418967" lon="11.3543159"><ele>105.0</ele><time>2026-04-04T14:29:13.817Z</time></trkpt><trkpt lat="44.441982" lon="11.3543768"><ele>105.0</ele><time>2026-04-04T14:29:14.817Z</time></trkpt><trkpt lat="44.4420665" lon="11.354441"><ele>105.0</ele><time>2026-04-04T14:29:15.817Z</time></trkpt><trkpt lat="44.4421591" lon="11.3544992"><ele>105.0</ele><time>2026-04-04T14:29:16.817Z</time></trkpt><trkpt lat="44.4422573" lon="11.3545489"><ele>105.0</ele><time>2026-04-04T14:29:17.817Z</time></trkpt><trkpt lat="44.4423551" lon="11.3545974"><ele>105.0</ele><time>2026-04-04T14:29:18.816Z</time></trkpt><trkpt lat="44.4424507" lon="11.3546436"><ele>104.83333333333333</ele><time>2026-04-04T14:29:19.816Z</time></trkpt><trkpt lat="44.4425372" lon="11.3546987"><ele>104.66666666666666</ele><time>2026-04-04T14:29:20.816Z</time></trkpt><trkpt lat="44.4426137" lon="11.3547604"><ele>104.5</ele><time>2026-04-04T14:29:21.815Z</time></trkpt><trkpt lat="44.44269" lon="11.354824"><ele>104.33333333333333</ele><time>2026-04-04T14:29:22.817Z</time></trkpt><trkpt lat="44.442765" lon="11.3548829"><ele>104.16666666666666</ele><time>2026-04-04T14:29:23.817Z</time></trkpt><trkpt lat="44.4428345" lon="11.3549486"><ele>104.0</ele><time>2026-04-04T14:29:24.817Z</time></trkpt><trkpt lat="44.4429033" lon="11.3550114"><ele>103.6</ele><time>2026-04-04T14:29:25.817Z</time></trkpt><trkpt lat="44.4429785" lon="11.3550786"><ele>103.2</ele><time>2026-04-04T14:29:26.816Z</time></trkpt><trkpt lat="44.4430496" lon="11.3551498"><ele>102.8</ele><time>2026-04-04T14:29:27.817Z</time></trkpt><trkpt lat="44.4431188" lon="11.3552281"><ele>102.39999999999999</ele><time>2026-04-04T14:29:28.816Z</time></trkpt><trkpt lat="44.4431883" lon="11.3553172"><ele>102.0</ele><time>2026-04-04T14:29:29.816Z</time></trkpt><trkpt lat="44.4432563" lon="11.3554089"><ele>102.0</ele><time>2026-04-04T14:29:30.817Z</time></trkpt><trkpt lat="44.4433249" lon="11.355506"><ele>102.0</ele><time>2026-04-04T14:29:31.817Z</time></trkpt><trkpt lat="44.4433934" lon="11.3556042"><ele>102.0</ele><time>2026-04-04T14:29:32.815Z</time></trkpt><trkpt lat="44.4434604" lon="11.3557084"><ele>102.0</ele><time>2026-04-04T14:29:33.815Z</time></trkpt><trkpt lat="44.443523" lon="11.3558175"><ele>102.0</ele><time>2026-04-04T14:29:34.817Z</time></trkpt><trkpt lat="44.4435874" lon="11.3559324"><ele>102.0</ele><time>2026-04-04T14:29:35.817Z</time></trkpt><trkpt lat="44.4436596" lon="11.3560496"><ele>102.0</ele><time>2026-04-04T14:29:36.816Z</time></trkpt><trkpt lat="44.4437321" lon="11.3561789"><ele>102.0</ele><time>2026-04-04T14:29:37.817Z</time></trkpt><trkpt lat="44.4437981" lon="11.3563198"><ele>102.0</ele><time>2026-04-04T14:29:38.815Z</time></trkpt><trkpt lat="44.4438593" lon="11.3564729"><ele>102.0</ele><time>2026-04-04T14:29:39.815Z</time></trkpt><trkpt lat="44.4439206" lon="11.3566291"><ele>102.0</ele><time>2026-04-04T14:29:40.816Z</time></trkpt><trkpt lat="44.4439766" lon="11.3567765"><ele>102.0</ele><time>2026-04-04T14:29:41.817Z</time></trkpt><trkpt lat="44.4440249" lon="11.3569026"><ele>102.0</ele><time>2026-04-04T14:29:42.817Z</time></trkpt><trkpt lat="44.4440608" lon="11.3570001"><ele>102.0</ele><time>2026-04-04T14:29:43.817Z</time></trkpt><trkpt lat="44.4440447" lon="11.3571644"><ele>101.8</ele><time>2026-04-04T14:29:45.816Z</time></trkpt><trkpt lat="44.443984" lon="11.3572236"><ele>101.6</ele><time>2026-04-04T14:29:46.817Z</time></trkpt><trkpt lat="44.4438922" lon="11.3572854"><ele>101.39999999999999</ele><time>2026-04-04T14:29:47.816Z</time></trkpt><trkpt lat="44.4437881" lon="11.3573459"><ele>101.19999999999999</ele><time>2026-04-04T14:29:48.817Z</time></trkpt><trkpt lat="44.44369" lon="11.3573941"><ele>101.0</ele><time>2026-04-04T14:29:49.816Z</time></trkpt><trkpt lat="44.443597" lon="11.3574497"><ele>101.4</ele><time>2026-04-04T14:29:50.817Z</time></trkpt><trkpt lat="44.4435186" lon="11.357502"><ele>101.8</ele><time>2026-04-04T14:29:51.817Z</time></trkpt><trkpt lat="44.4434459" lon="11.3576496"><ele>102.2</ele><time>2026-04-04T14:29:52.816Z</time></trkpt><trkpt lat="44.443377" lon="11.357742"><ele>102.60000000000001</ele><time>2026-04-04T14:29:53.816Z</time></trkpt><trkpt lat="44.4433323" lon="11.3579003"><ele>103.0</ele><time>2026-04-04T14:29:55.817Z</time></trkpt><trkpt lat="44.443353" lon="11.3579869"><ele>102.80000000000001</ele><time>2026-04-04T14:29:56.816Z</time></trkpt><trkpt lat="44.4434551" lon="11.3580621"><ele>102.6</ele><time>2026-04-04T14:29:58.817Z</time></trkpt><trkpt lat="44.4435304" lon="11.358099"><ele>102.4</ele><time>2026-04-04T14:29:59.817Z</time></trkpt><trkpt lat="44.4436288" lon="11.358162"><ele>102.19999999999999</ele><time>2026-04-04T14:30:00.817Z</time></trkpt><trkpt lat="44.443741" lon="11.358248"><ele>102.0</ele><time>2026-04-04T14:30:01.815Z</time></trkpt><trkpt lat="44.4438822" lon="11.3583536"><ele>102.0</ele><time>2026-04-04T14:30:02.816Z</time></trkpt><trkpt lat="44.444042" lon="11.358475"><ele>102.0</ele><time>2026-04-04T14:30:03.816Z</time></trkpt><trkpt lat="44.4442076" lon="11.3586106"><ele>102.0</ele><time>2026-04-04T14:30:04.817Z</time></trkpt><trkpt lat="44.4443845" lon="11.3587546"><ele>103.33333333333334</ele><time>2026-04-04T14:30:05.817Z</time></trkpt><trkpt lat="44.4445616" lon="11.3589032"><ele>104.66666666666667</ele><time>2026-04-04T14:30:06.817Z</time></trkpt><trkpt lat="44.4447307" lon="11.3590373"><ele>106.0</ele><time>2026-04-04T14:30:07.817Z</time></trkpt><trkpt lat="44.4448815" lon="11.3591506"><ele>106.0</ele><time>2026-04-04T14:30:08.816Z</time></trkpt><trkpt lat="44.4450155" lon="11.3592427"><ele>106.0</ele><time>2026-04-04T14:30:09.817Z</time></trkpt><trkpt lat="44.4451257" lon="11.3593116"><ele>106.0</ele><time>2026-04-04T14:30:10.816Z</time></trkpt><trkpt lat="44.4452008" lon="11.3593868"><ele>106.0</ele><time>2026-04-04T14:30:11.816Z</time></trkpt><trkpt lat="44.4452325" lon="11.3594738"><ele>106.0</ele><time>2026-04-04T14:30:12.816Z</time></trkpt><trkpt lat="44.445186" lon="11.3596095"><ele>109.25</ele><time>2026-04-04T14:30:14.817Z</time></trkpt><trkpt lat="44.4450598" lon="11.3597239"><ele>112.5</ele><time>2026-04-04T14:30:16.816Z</time></trkpt><trkpt lat="44.4449387" lon="11.3597895"><ele>115.75</ele><time>2026-04-04T14:30:17.816Z</time></trkpt><trkpt lat="44.4448715" lon="11.3599128"><ele>119.0</ele><time>2026-04-04T14:30:18.817Z</time></trkpt><trkpt lat="44.4448179" lon="11.3600388"><ele>119.0</ele><time>2026-04-04T14:30:19.817Z</time></trkpt><trkpt lat="44.4448065" lon="11.3601863"><ele>119.0</ele><time>2026-04-04T14:30:20.817Z</time></trkpt><trkpt lat="44.4447973" lon="11.3603337"><ele>119.0</ele><time>2026-04-04T14:30:21.816Z</time></trkpt><trkpt lat="44.444768" lon="11.360459"><ele>119.0</ele><time>2026-04-04T14:30:22.817Z</time></trkpt><trkpt lat="44.4447278" lon="11.3605726"><ele>119.0</ele><time>2026-04-04T14:30:23.817Z</time></trkpt><trkpt lat="44.4446644" lon="11.3607086"><ele>121.25</ele><time>2026-04-04T14:30:24.817Z</time></trkpt><trkpt lat="44.4445802" lon="11.3608458"><ele>123.5</ele><time>2026-04-04T14:30:25.817Z</time></trkpt><trkpt lat="44.4444767" lon="11.3609855"><ele>125.75</ele><time>2026-04-04T14:30:26.817Z</time></trkpt><trkpt lat="44.444372" lon="11.3610843"><ele>128.0</ele><time>2026-04-04T14:30:27.817Z</time></trkpt><trkpt lat="44.4442528" lon="11.3611784"><ele>128.0</ele><time>2026-04-04T14:30:28.817Z</time></trkpt><trkpt lat="44.4441148" lon="11.3612669"><ele>128.0</ele><time>2026-04-04T14:30:29.816Z</time></trkpt><trkpt lat="44.4439545" lon="11.3613523"><ele>128.0</ele><time>2026-04-04T14:30:30.816Z</time></trkpt><trkpt lat="44.4437728" lon="11.3614506"><ele>132.33333333333331</ele><time>2026-04-04T14:30:31.817Z</time></trkpt><trkpt lat="44.4435796" lon="11.3615473"><ele>136.66666666666666</ele><time>2026-04-04T14:30:32.817Z</time></trkpt><trkpt lat="44.4433799" lon="11.3616491"><ele>141.0</ele><time>2026-04-04T14:30:33.817Z</time></trkpt><trkpt lat="44.4431778" lon="11.3617628"><ele>141.0</ele><time>2026-04-04T14:30:34.817Z</time></trkpt><trkpt lat="44.442977" lon="11.3618958"><ele>141.0</ele><time>2026-04-04T14:30:35.817Z</time></trkpt><trkpt lat="44.4428038" lon="11.3620297"><ele>141.0</ele><time>2026-04-04T14:30:36.815Z</time></trkpt><trkpt lat="44.4426392" lon="11.3621528"><ele>143.33333333333334</ele><time>2026-04-04T14:30:37.816Z</time></trkpt><trkpt lat="44.4424909" lon="11.3622792"><ele>145.66666666666669</ele><time>2026-04-04T14:30:38.816Z</time></trkpt><trkpt lat="44.4423529" lon="11.3623992"><ele>148.0</ele><time>2026-04-04T14:30:39.816Z</time></trkpt><trkpt lat="44.4422229" lon="11.36253"><ele>147.75</ele><time>2026-04-04T14:30:40.816Z</time></trkpt><trkpt lat="44.442107" lon="11.3626681"><ele>147.5</ele><time>2026-04-04T14:30:41.817Z</time></trkpt><trkpt lat="44.4420258" lon="11.3628107"><ele>147.25</ele><time>2026-04-04T14:30:42.817Z</time></trkpt><trkpt lat="44.4419797" lon="11.3629664"><ele>147.0</ele><time>2026-04-04T14:30:43.817Z</time></trkpt><trkpt lat="44.4419665" lon="11.3631352"><ele>147.0</ele><time>2026-04-04T14:30:44.817Z</time></trkpt><trkpt lat="44.4419859" lon="11.3633081"><ele>147.0</ele><time>2026-04-04T14:30:45.816Z</time></trkpt><trkpt lat="44.4420134" lon="11.3634921"><ele>147.0</ele><time>2026-04-04T14:30:46.816Z</time></trkpt><trkpt lat="44.442036" lon="11.3636893"><ele>147.0</ele><time>2026-04-04T14:30:47.816Z</time></trkpt><trkpt lat="44.4420601" lon="11.363882"><ele>150.0</ele><time>2026-04-04T14:30:48.816Z</time></trkpt><trkpt lat="44.4421068" lon="11.3640641"><ele>153.0</ele><time>2026-04-04T14:30:49.816Z</time></trkpt><trkpt lat="44.4421847" lon="11.3642414"><ele>156.0</ele><time>2026-04-04T14:30:50.816Z</time></trkpt><trkpt lat="44.4422749" lon="11.3644249"><ele>159.0</ele><time>2026-04-04T14:30:51.815Z</time></trkpt><trkpt lat="44.4423829" lon="11.3646031"><ele>164.33333333333334</ele><time>2026-04-04T14:30:52.815Z</time></trkpt><trkpt lat="44.4425039" lon="11.3647854"><ele>169.66666666666669</ele><time>2026-04-04T14:30:53.816Z</time></trkpt><trkpt lat="44.4426281" lon="11.3649724"><ele>175.0</ele><time>2026-04-04T14:30:54.816Z</time></trkpt><trkpt lat="44.4427447" lon="11.3651559"><ele>175.0</ele><time>2026-04-04T14:30:55.816Z</time></trkpt><trkpt lat="44.4428494" lon="11.3653155"><ele>175.0</ele><time>2026-04-04T14:30:56.816Z</time></trkpt><trkpt lat="44.4429405" lon="11.3654528"><ele>175.0</ele><time>2026-04-04T14:30:57.815Z</time></trkpt><trkpt lat="44.4430071" lon="11.3655817"><ele>175.0</ele><time>2026-04-04T14:30:58.815Z</time></trkpt><trkpt lat="44.4430477" lon="11.3657322"><ele>176.75</ele><time>2026-04-04T14:30:59.814Z</time></trkpt><trkpt lat="44.4430734" lon="11.3659061"><ele>178.5</ele><time>2026-04-04T14:31:00.815Z</time></trkpt><trkpt lat="44.4430795" lon="11.3660858"><ele>180.25</ele><time>2026-04-04T14:31:01.815Z</time></trkpt><trkpt lat="44.4430579" lon="11.3662639"><ele>182.0</ele><time>2026-04-04T14:31:02.815Z</time></trkpt><trkpt lat="44.4430089" lon="11.3664417"><ele>185.0</ele><time>2026-04-04T14:31:03.816Z</time></trkpt><trkpt lat="44.4429404" lon="11.366627"><ele>188.0</ele><time>2026-04-04T14:31:04.815Z</time></trkpt><trkpt lat="44.4428669" lon="11.3668355"><ele>191.0</ele><time>2026-04-04T14:31:05.816Z</time></trkpt><trkpt lat="44.4427882" lon="11.3670621"><ele>193.33333333333331</ele><time>2026-04-04T14:31:06.814Z</time></trkpt><trkpt lat="44.4427015" lon="11.3673051"><ele>195.66666666666666</ele><time>2026-04-04T14:31:07.816Z</time></trkpt><trkpt lat="44.4426048" lon="11.3675633"><ele>198.0</ele><time>2026-04-04T14:31:08.816Z</time></trkpt><trkpt lat="44.4424964" lon="11.3678331"><ele>201.33333333333331</ele><time>2026-04-04T14:31:09.816Z</time></trkpt><trkpt lat="44.4423812" lon="11.3681017"><ele>204.66666666666666</ele><time>2026-04-04T14:31:10.816Z</time></trkpt><trkpt lat="44.4422654" lon="11.3683609"><ele>208.0</ele><time>2026-04-04T14:31:11.815Z</time></trkpt><trkpt lat="44.442162" lon="11.3685955"><ele>209.66666666666666</ele><time>2026-04-04T14:31:12.816Z</time></trkpt><trkpt lat="44.4420675" lon="11.3688099"><ele>211.33333333333331</ele><time>2026-04-04T14:31:13.815Z</time></trkpt><trkpt lat="44.4419823" lon="11.3690052"><ele>213.0</ele><time>2026-04-04T14:31:14.816Z</time></trkpt><trkpt lat="44.4419037" lon="11.3691832"><ele>213.0</ele><time>2026-04-04T14:31:15.815Z</time></trkpt><trkpt lat="44.4418403" lon="11.3693428"><ele>213.0</ele><time>2026-04-04T14:31:16.815Z</time></trkpt><trkpt lat="44.4418069" lon="11.3694911"><ele>213.0</ele><time>2026-04-04T14:31:17.815Z</time></trkpt><trkpt lat="44.4417987" lon="11.3696485"><ele>213.0</ele><time>2026-04-04T14:31:18.815Z</time></trkpt><trkpt lat="44.4417781" lon="11.3698028"><ele>214.66666666666666</ele><time>2026-04-04T14:31:19.816Z</time></trkpt><trkpt lat="44.4417282" lon="11.3699424"><ele>216.33333333333331</ele><time>2026-04-04T14:31:20.816Z</time></trkpt><trkpt lat="44.4416696" lon="11.3700438"><ele>218.0</ele><time>2026-04-04T14:31:21.816Z</time></trkpt><trkpt lat="44.4416204" lon="11.3701132"><ele>219.66666666666666</ele><time>2026-04-04T14:31:22.816Z</time></trkpt><trkpt lat="44.4416069" lon="11.3702118"><ele>221.33333333333331</ele><time>2026-04-04T14:31:25.816Z</time></trkpt><trkpt lat="44.4416354" lon="11.3703254"><ele>223.0</ele><time>2026-04-04T14:31:27.816Z</time></trkpt><trkpt lat="44.4416643" lon="11.3704193"><ele>224.25</ele><time>2026-04-04T14:31:28.815Z</time></trkpt><trkpt lat="44.4416976" lon="11.3705368"><ele>225.5</ele><time>2026-04-04T14:31:29.816Z</time></trkpt><trkpt lat="44.4417272" lon="11.3706834"><ele>226.75</ele><time>2026-04-04T14:31:30.816Z</time></trkpt><trkpt lat="44.4417519" lon="11.3708566"><ele>228.0</ele><time>2026-04-04T14:31:31.815Z</time></trkpt><trkpt lat="44.4417727" lon="11.3710465"><ele>228.0</ele><time>2026-04-04T14:31:32.816Z</time></trkpt><trkpt lat="44.4417957" lon="11.3712591"><ele>228.0</ele><time>2026-04-04T14:31:33.816Z</time></trkpt><trkpt lat="44.4418223" lon="11.3714784"><ele>228.0</ele><time>2026-04-04T14:31:34.816Z</time></trkpt><trkpt lat="44.4418526" lon="11.3716951"><ele>229.25</ele><time>2026-04-04T14:31:35.816Z</time></trkpt><trkpt lat="44.4418816" lon="11.3718907"><ele>230.5</ele><time>2026-04-04T14:31:36.816Z</time></trkpt><trkpt lat="44.4419192" lon="11.3720596"><ele>231.75</ele><time>2026-04-04T14:31:37.816Z</time></trkpt><trkpt lat="44.4419695" lon="11.3722107"><ele>233.0</ele><time>2026-04-04T14:31:38.816Z</time></trkpt><trkpt lat="44.442041" lon="11.372336"><ele>233.5</ele><time>2026-04-04T14:31:39.814Z</time></trkpt><trkpt lat="44.4421373" lon="11.3724402"><ele>234.0</ele><time>2026-04-04T14:31:40.816Z</time></trkpt><trkpt lat="44.4422469" lon="11.3725324"><ele>234.5</ele><time>2026-04-04T14:31:41.815Z</time></trkpt><trkpt lat="44.4423569" lon="11.372635"><ele>235.0</ele><time>2026-04-04T14:31:42.815Z</time></trkpt><trkpt lat="44.4424575" lon="11.3727229"><ele>234.99999999999997</ele><time>2026-04-04T14:31:43.816Z</time></trkpt><trkpt lat="44.4425467" lon="11.3728134"><ele>235.0</ele><time>2026-04-04T14:31:44.815Z</time></trkpt><trkpt lat="44.4425995" lon="11.372895"><ele>235.0</ele><time>2026-04-04T14:31:45.816Z</time></trkpt><trkpt lat="44.4426399" lon="11.3729896"><ele>235.0</ele><time>2026-04-04T14:31:46.816Z</time></trkpt><trkpt lat="44.4426568" lon="11.3730898"><ele>234.99999999999997</ele><time>2026-04-04T14:31:47.815Z</time></trkpt><trkpt lat="44.4426441" lon="11.3732133"><ele>235.0</ele><time>2026-04-04T14:31:48.816Z</time></trkpt><trkpt lat="44.4426266" lon="11.3733591"><ele>235.75</ele><time>2026-04-04T14:31:49.815Z</time></trkpt><trkpt lat="44.4426071" lon="11.3735394"><ele>236.5</ele><time>2026-04-04T14:31:50.815Z</time></trkpt><trkpt lat="44.442593" lon="11.3737447"><ele>237.25</ele><time>2026-04-04T14:31:51.815Z</time></trkpt><trkpt lat="44.442578" lon="11.3739527"><ele>238.0</ele><time>2026-04-04T14:31:52.816Z</time></trkpt><trkpt lat="44.4425551" lon="11.374143"><ele>235.75</ele><time>2026-04-04T14:31:53.816Z</time></trkpt><trkpt lat="44.4425208" lon="11.3743116"><ele>233.5</ele><time>2026-04-04T14:31:54.816Z</time></trkpt><trkpt lat="44.4424701" lon="11.3744483"><ele>231.25</ele><time>2026-04-04T14:31:55.815Z</time></trkpt><trkpt lat="44.4423984" lon="11.3745687"><ele>229.0</ele><time>2026-04-04T14:31:56.816Z</time></trkpt><trkpt lat="44.4423169" lon="11.3747066"><ele>228.5</ele><time>2026-04-04T14:31:57.816Z</time></trkpt><trkpt lat="44.4422335" lon="11.3748556"><ele>228.0</ele><time>2026-04-04T14:31:58.815Z</time></trkpt><trkpt lat="44.4421471" lon="11.375018"><ele>227.5</ele><time>2026-04-04T14:31:59.814Z</time></trkpt><trkpt lat="44.4420517" lon="11.3752067"><ele>227.0</ele><time>2026-04-04T14:32:00.816Z</time></trkpt><trkpt lat="44.4419534" lon="11.37541"><ele>230.0</ele><time>2026-04-04T14:32:01.816Z</time></trkpt><trkpt lat="44.4418608" lon="11.3756038"><ele>233.0</ele><time>2026-04-04T14:32:02.816Z</time></trkpt><trkpt lat="44.4417767" lon="11.3757817"><ele>236.0</ele><time>2026-04-04T14:32:03.816Z</time></trkpt><trkpt lat="44.4416959" lon="11.3759446"><ele>236.0</ele><time>2026-04-04T14:32:04.815Z</time></trkpt><trkpt lat="44.4416115" lon="11.3761058"><ele>236.0</ele><time>2026-04-04T14:32:05.816Z</time></trkpt><trkpt lat="44.4415261" lon="11.3762641"><ele>236.0</ele><time>2026-04-04T14:32:06.815Z</time></trkpt><trkpt lat="44.4414385" lon="11.3764234"><ele>236.0</ele><time>2026-04-04T14:32:07.816Z</time></trkpt><trkpt lat="44.4413548" lon="11.376572"><ele>235.8</ele><time>2026-04-04T14:32:08.816Z</time></trkpt><trkpt lat="44.4412886" lon="11.3767028"><ele>235.60000000000002</ele><time>2026-04-04T14:32:09.816Z</time></trkpt><trkpt lat="44.4412459" lon="11.3768289"><ele>235.4</ele><time>2026-04-04T14:32:10.816Z</time></trkpt><trkpt lat="44.4412373" lon="11.3769594"><ele>235.2</ele><time>2026-04-04T14:32:11.815Z</time></trkpt><trkpt lat="44.4412705" lon="11.3770975"><ele>235.0</ele><time>2026-04-04T14:32:12.815Z</time></trkpt><trkpt lat="44.4413343" lon="11.3772353"><ele>235.0</ele><time>2026-04-04T14:32:13.814Z</time></trkpt><trkpt lat="44.4414031" lon="11.3773691"><ele>235.0</ele><time>2026-04-04T14:32:14.816Z</time></trkpt><trkpt lat="44.4415314" lon="11.3774619"><ele>235.0</ele><time>2026-04-04T14:32:15.815Z</time></trkpt><trkpt lat="44.4416403" lon="11.3775314"><ele>235.0</ele><time>2026-04-04T14:32:16.814Z</time></trkpt><trkpt lat="44.4417244" lon="11.3775944"><ele>235.0</ele><time>2026-04-04T14:32:17.816Z</time></trkpt><trkpt lat="44.4417967" lon="11.377673"><ele>235.0</ele><time>2026-04-04T14:32:18.815Z</time></trkpt><trkpt lat="44.4418691" lon="11.3777875"><ele>235.0</ele><time>2026-04-04T14:32:19.816Z</time></trkpt><trkpt lat="44.4419555" lon="11.3779041"><ele>235.0</ele><time>2026-04-04T14:32:20.816Z</time></trkpt><trkpt lat="44.4420772" lon="11.3779886"><ele>234.0</ele><time>2026-04-04T14:32:21.815Z</time></trkpt><trkpt lat="44.4422139" lon="11.3780833"><ele>233.0</ele><time>2026-04-04T14:32:22.815Z</time></trkpt><trkpt lat="44.4423617" lon="11.3782139"><ele>232.0</ele><time>2026-04-04T14:32:23.815Z</time></trkpt><trkpt lat="44.4425321" lon="11.3783548"><ele>232.0</ele><time>2026-04-04T14:32:24.816Z</time></trkpt><trkpt lat="44.4426922" lon="11.378495"><ele>232.0</ele><time>2026-04-04T14:32:25.815Z</time></trkpt><trkpt lat="44.4428382" lon="11.378627"><ele>232.0</ele><time>2026-04-04T14:32:26.816Z</time></trkpt><trkpt lat="44.4429621" lon="11.3787536"><ele>230.0</ele><time>2026-04-04T14:32:27.815Z</time></trkpt><trkpt lat="44.4430578" lon="11.3788635"><ele>228.0</ele><time>2026-04-04T14:32:28.816Z</time></trkpt><trkpt lat="44.4431213" lon="11.3789729"><ele>226.0</ele><time>2026-04-04T14:32:29.816Z</time></trkpt><trkpt lat="44.4431527" lon="11.3790794"><ele>224.0</ele><time>2026-04-04T14:32:30.816Z</time></trkpt><trkpt lat="44.4431469" lon="11.3791735"><ele>222.0</ele><time>2026-04-04T14:32:31.816Z</time></trkpt><trkpt lat="44.443105" lon="11.3792769"><ele>222.0</ele><time>2026-04-04T14:32:32.816Z</time></trkpt><trkpt lat="44.4430577" lon="11.3794103"><ele>222.0</ele><time>2026-04-04T14:32:33.815Z</time></trkpt><trkpt lat="44.4430312" lon="11.3795702"><ele>222.0</ele><time>2026-04-04T14:32:34.815Z</time></trkpt><trkpt lat="44.4430302" lon="11.3797518"><ele>222.0</ele><time>2026-04-04T14:32:35.815Z</time></trkpt><trkpt lat="44.443035" lon="11.3799298"><ele>221.0</ele><time>2026-04-04T14:32:36.815Z</time></trkpt><trkpt lat="44.4430475" lon="11.3801125"><ele>220.0</ele><time>2026-04-04T14:32:37.815Z</time></trkpt><trkpt lat="44.4431629" lon="11.38026"><ele>219.0</ele><time>2026-04-04T14:32:38.815Z</time></trkpt><trkpt lat="44.4432457" lon="11.3804169"><ele>218.0</ele><time>2026-04-04T14:32:39.816Z</time></trkpt><trkpt lat="44.4433205" lon="11.3805575"><ele>217.8</ele><time>2026-04-04T14:32:40.815Z</time></trkpt><trkpt lat="44.443385" lon="11.3806975"><ele>217.60000000000002</ele><time>2026-04-04T14:32:41.814Z</time></trkpt><trkpt lat="44.4434202" lon="11.3808374"><ele>217.39999999999998</ele><time>2026-04-04T14:32:42.815Z</time></trkpt><trkpt lat="44.4434228" lon="11.3809804"><ele>217.2</ele><time>2026-04-04T14:32:43.816Z</time></trkpt><trkpt lat="44.4433891" lon="11.381141"><ele>217.0</ele><time>2026-04-04T14:32:44.816Z</time></trkpt><trkpt lat="44.4433302" lon="11.3813167"><ele>216.75</ele><time>2026-04-04T14:32:45.815Z</time></trkpt><trkpt lat="44.4432872" lon="11.3815019"><ele>216.5</ele><time>2026-04-04T14:32:46.815Z</time></trkpt><trkpt lat="44.4432564" lon="11.3816856"><ele>216.25</ele><time>2026-04-04T14:32:47.816Z</time></trkpt><trkpt lat="44.4432268" lon="11.3818729"><ele>216.0</ele><time>2026-04-04T14:32:48.815Z</time></trkpt><trkpt lat="44.4431968" lon="11.3820764"><ele>216.0</ele><time>2026-04-04T14:32:49.816Z</time></trkpt><trkpt lat="44.4431664" lon="11.3822976"><ele>216.0</ele><time>2026-04-04T14:32:50.816Z</time></trkpt><trkpt lat="44.4431385" lon="11.3825103"><ele>216.0</ele><time>2026-04-04T14:32:51.816Z</time></trkpt><trkpt lat="44.4431093" lon="11.3827085"><ele>216.0</ele><time>2026-04-04T14:32:52.814Z</time></trkpt><trkpt lat="44.4430795" lon="11.3829112"><ele>216.0</ele><time>2026-04-04T14:32:53.815Z</time></trkpt><trkpt lat="44.4430526" lon="11.3831213"><ele>216.0</ele><time>2026-04-04T14:32:54.815Z</time></trkpt><trkpt lat="44.4430296" lon="11.3833388"><ele>215.33333333333331</ele><time>2026-04-04T14:32:55.815Z</time></trkpt><trkpt lat="44.4430035" lon="11.3835538"><ele>214.66666666666666</ele><time>2026-04-04T14:32:56.816Z</time></trkpt><trkpt lat="44.4429742" lon="11.3837667"><ele>214.0</ele><time>2026-04-04T14:32:57.816Z</time></trkpt><trkpt lat="44.4429463" lon="11.3839781"><ele>216.5</ele><time>2026-04-04T14:32:58.816Z</time></trkpt><trkpt lat="44.4429187" lon="11.3841805"><ele>219.0</ele><time>2026-04-04T14:32:59.816Z</time></trkpt><trkpt lat="44.4428937" lon="11.3843769"><ele>221.5</ele><time>2026-04-04T14:33:00.816Z</time></trkpt><trkpt lat="44.4428685" lon="11.3845696"><ele>224.0</ele><time>2026-04-04T14:33:01.816Z</time></trkpt><trkpt lat="44.4428485" lon="11.3847662"><ele>225.39999999999998</ele><time>2026-04-04T14:33:02.815Z</time></trkpt><trkpt lat="44.4428317" lon="11.3849527"><ele>226.79999999999998</ele><time>2026-04-04T14:33:03.815Z</time></trkpt><trkpt lat="44.4428151" lon="11.3851185"><ele>228.20000000000002</ele><time>2026-04-04T14:33:04.814Z</time></trkpt><trkpt lat="44.442795" lon="11.385262"><ele>229.60000000000002</ele><time>2026-04-04T14:33:05.815Z</time></trkpt><trkpt lat="44.4427733" lon="11.3853803"><ele>231.0</ele><time>2026-04-04T14:33:06.815Z</time></trkpt><trkpt lat="44.4427607" lon="11.3854908"><ele>231.0</ele><time>2026-04-04T14:33:08.816Z</time></trkpt><trkpt lat="44.4428122" lon="11.3855424"><ele>231.00000000000003</ele><time>2026-04-04T14:33:10.816Z</time></trkpt><trkpt lat="44.4429146" lon="11.3856276"><ele>231.00000000000003</ele><time>2026-04-04T14:33:12.815Z</time></trkpt><trkpt lat="44.4430067" lon="11.3856623"><ele>231.0</ele><time>2026-04-04T14:33:13.815Z</time></trkpt><trkpt lat="44.4431151" lon="11.3857034"><ele>231.0</ele><time>2026-04-04T14:33:14.816Z</time></trkpt><trkpt lat="44.4432429" lon="11.3857388"><ele>228.5</ele><time>2026-04-04T14:33:15.816Z</time></trkpt><trkpt lat="44.4433692" lon="11.3857603"><ele>226.0</ele><time>2026-04-04T14:33:16.816Z</time></trkpt><trkpt lat="44.4434823" lon="11.385771"><ele>223.5</ele><time>2026-04-04T14:33:17.816Z</time></trkpt><trkpt lat="44.4435883" lon="11.38579"><ele>221.0</ele><time>2026-04-04T14:33:18.816Z</time></trkpt><trkpt lat="44.4436887" lon="11.3858252"><ele>221.0</ele><time>2026-04-04T14:33:19.816Z</time></trkpt><trkpt lat="44.4437825" lon="11.3858747"><ele>221.00000000000003</ele><time>2026-04-04T14:33:20.816Z</time></trkpt><trkpt lat="44.4438687" lon="11.3859416"><ele>221.00000000000003</ele><time>2026-04-04T14:33:21.816Z</time></trkpt><trkpt lat="44.4439475" lon="11.3860165"><ele>221.0</ele><time>2026-04-04T14:33:22.816Z</time></trkpt><trkpt lat="44.4440298" lon="11.3860897"><ele>221.0</ele><time>2026-04-04T14:33:23.816Z</time></trkpt><trkpt lat="44.4441139" lon="11.3861671"><ele>219.4</ele><time>2026-04-04T14:33:24.816Z</time></trkpt><trkpt lat="44.4441963" lon="11.3862401"><ele>217.8</ele><time>2026-04-04T14:33:25.816Z</time></trkpt><trkpt lat="44.4442829" lon="11.3863113"><ele>216.20000000000002</ele><time>2026-04-04T14:33:26.816Z</time></trkpt><trkpt lat="44.4443678" lon="11.3863871"><ele>214.60000000000002</ele><time>2026-04-04T14:33:27.816Z</time></trkpt><trkpt lat="44.4444497" lon="11.3864657"><ele>213.0</ele><time>2026-04-04T14:33:28.815Z</time></trkpt><trkpt lat="44.444532" lon="11.3865401"><ele>213.0</ele><time>2026-04-04T14:33:29.816Z</time></trkpt><trkpt lat="44.4446133" lon="11.3866104"><ele>213.0</ele><time>2026-04-04T14:33:30.816Z</time></trkpt><trkpt lat="44.4446935" lon="11.3866809"><ele>213.0</ele><time>2026-04-04T14:33:31.816Z</time></trkpt><trkpt lat="44.4447706" lon="11.3867453"><ele>213.0</ele><time>2026-04-04T14:33:32.816Z</time></trkpt><trkpt lat="44.4448423" lon="11.3867845"><ele>213.0</ele><time>2026-04-04T14:33:33.816Z</time></trkpt><trkpt lat="44.4449323" lon="11.3867906"><ele>213.0</ele><time>2026-04-04T14:33:35.816Z</time></trkpt><trkpt lat="44.4449529" lon="11.3866961"><ele>212.0</ele><time>2026-04-04T14:33:38.815Z</time></trkpt><trkpt lat="44.4449548" lon="11.3867998"><ele>211.0</ele><time>2026-04-04T14:36:21.815Z</time></trkpt><trkpt lat="44.4450577" lon="11.3867985"><ele>210.0</ele><time>2026-04-04T14:36:23.815Z</time></trkpt><trkpt lat="44.4451713" lon="11.3867784"><ele>209.0</ele><time>2026-04-04T14:36:25.815Z</time></trkpt><trkpt lat="44.445235" lon="11.386781"><ele>208.0</ele><time>2026-04-04T14:36:26.814Z</time></trkpt><trkpt lat="44.4453006" lon="11.3867919"><ele>207.0</ele><time>2026-04-04T14:36:27.815Z</time></trkpt><trkpt lat="44.4453692" lon="11.3868235"><ele>207.0</ele><time>2026-04-04T14:36:28.815Z</time></trkpt><trkpt lat="44.4454381" lon="11.3868792"><ele>207.0</ele><time>2026-04-04T14:36:29.814Z</time></trkpt><trkpt lat="44.4455118" lon="11.3869576"><ele>207.0</ele><time>2026-04-04T14:36:30.814Z</time></trkpt><trkpt lat="44.4455871" lon="11.3870409"><ele>207.0</ele><time>2026-04-04T14:36:31.815Z</time></trkpt><trkpt lat="44.4456576" lon="11.3871235"><ele>207.0</ele><time>2026-04-04T14:36:32.815Z</time></trkpt><trkpt lat="44.4457279" lon="11.3871976"><ele>207.0</ele><time>2026-04-04T14:36:33.814Z</time></trkpt><trkpt lat="44.445801" lon="11.3872546"><ele>206.5</ele><time>2026-04-04T14:36:34.813Z</time></trkpt><trkpt lat="44.4458694" lon="11.3873112"><ele>206.0</ele><time>2026-04-04T14:36:35.814Z</time></trkpt><trkpt lat="44.4459329" lon="11.3873663"><ele>205.5</ele><time>2026-04-04T14:36:36.814Z</time></trkpt><trkpt lat="44.4460028" lon="11.3874142"><ele>205.0</ele><time>2026-04-04T14:36:37.814Z</time></trkpt><trkpt lat="44.4460825" lon="11.3874634"><ele>204.5</ele><time>2026-04-04T14:36:38.814Z</time></trkpt><trkpt lat="44.4461752" lon="11.3875273"><ele>204.0</ele><time>2026-04-04T14:36:39.814Z</time></trkpt><trkpt lat="44.4462697" lon="11.3876094"><ele>200.75</ele><time>2026-04-04T14:36:40.814Z</time></trkpt><trkpt lat="44.4463695" lon="11.387704"><ele>197.5</ele><time>2026-04-04T14:36:41.813Z</time></trkpt><trkpt lat="44.446471" lon="11.3877995"><ele>194.25</ele><time>2026-04-04T14:36:42.813Z</time></trkpt><trkpt lat="44.4465757" lon="11.3878876"><ele>191.0</ele><time>2026-04-04T14:36:43.813Z</time></trkpt><trkpt lat="44.4466872" lon="11.387959"><ele>191.0</ele><time>2026-04-04T14:36:44.813Z</time></trkpt><trkpt lat="44.4468007" lon="11.3879982"><ele>191.0</ele><time>2026-04-04T14:36:45.813Z</time></trkpt><trkpt lat="44.4469233" lon="11.3880167"><ele>191.0</ele><time>2026-04-04T14:36:46.813Z</time></trkpt><trkpt lat="44.4470461" lon="11.3880373"><ele>191.0</ele><time>2026-04-04T14:36:47.814Z</time></trkpt><trkpt lat="44.4471727" lon="11.3880513"><ele>191.5</ele><time>2026-04-04T14:36:48.814Z</time></trkpt><trkpt lat="44.4472989" lon="11.3880536"><ele>192.0</ele><time>2026-04-04T14:36:49.814Z</time></trkpt><trkpt lat="44.4474181" lon="11.3880412"><ele>192.5</ele><time>2026-04-04T14:36:50.813Z</time></trkpt><trkpt lat="44.4475332" lon="11.3880207"><ele>193.0</ele><time>2026-04-04T14:36:51.814Z</time></trkpt><trkpt lat="44.447645" lon="11.3879984"><ele>193.0</ele><time>2026-04-04T14:36:52.814Z</time></trkpt><trkpt lat="44.4477534" lon="11.3880039"><ele>193.0</ele><time>2026-04-04T14:36:53.814Z</time></trkpt><trkpt lat="44.4478691" lon="11.3880234"><ele>193.0</ele><time>2026-04-04T14:36:54.814Z</time></trkpt><trkpt lat="44.4479838" lon="11.3880525"><ele>193.0</ele><time>2026-04-04T14:36:55.814Z</time></trkpt><trkpt lat="44.4481015" lon="11.3880754"><ele>190.75</ele><time>2026-04-04T14:36:56.813Z</time></trkpt><trkpt lat="44.4482168" lon="11.3880981"><ele>188.5</ele><time>2026-04-04T14:36:57.812Z</time></trkpt><trkpt lat="44.4483447" lon="11.3881201"><ele>186.25</ele><time>2026-04-04T14:36:58.814Z</time></trkpt><trkpt lat="44.4484724" lon="11.3881389"><ele>184.0</ele><time>2026-04-04T14:36:59.812Z</time></trkpt><trkpt lat="44.4485958" lon="11.3881479"><ele>184.0</ele><time>2026-04-04T14:37:00.813Z</time></trkpt><trkpt lat="44.4487171" lon="11.3881587"><ele>184.0</ele><time>2026-04-04T14:37:01.814Z</time></trkpt><trkpt lat="44.448835" lon="11.3881662"><ele>184.0</ele><time>2026-04-04T14:37:02.813Z</time></trkpt><trkpt lat="44.4489565" lon="11.3881751"><ele>184.0</ele><time>2026-04-04T14:37:03.813Z</time></trkpt><trkpt lat="44.4490755" lon="11.3881807"><ele>182.0</ele><time>2026-04-04T14:37:04.813Z</time></trkpt><trkpt lat="44.4492045" lon="11.388202"><ele>180.0</ele><time>2026-04-04T14:37:05.813Z</time></trkpt><trkpt lat="44.4493311" lon="11.3882189"><ele>178.0</ele><time>2026-04-04T14:37:06.813Z</time></trkpt><trkpt lat="44.4494363" lon="11.3882492"><ele>176.0</ele><time>2026-04-04T14:37:07.812Z</time></trkpt><trkpt lat="44.4495576" lon="11.3883019"><ele>174.25</ele><time>2026-04-04T14:37:08.814Z</time></trkpt><trkpt lat="44.4496753" lon="11.3883619"><ele>172.5</ele><time>2026-04-04T14:37:09.814Z</time></trkpt><trkpt lat="44.4497915" lon="11.3884144"><ele>170.75</ele><time>2026-04-04T14:37:10.814Z</time></trkpt><trkpt lat="44.4499403" lon="11.3884453"><ele>169.0</ele><time>2026-04-04T14:37:11.814Z</time></trkpt><trkpt lat="44.4500602" lon="11.3884814"><ele>169.0</ele><time>2026-04-04T14:37:12.814Z</time></trkpt><trkpt lat="44.4501809" lon="11.3884777"><ele>169.0</ele><time>2026-04-04T14:37:13.814Z</time></trkpt><trkpt lat="44.4503021" lon="11.3884776"><ele>169.0</ele><time>2026-04-04T14:37:14.814Z</time></trkpt><trkpt lat="44.4504189" lon="11.3884274"><ele>169.0</ele><time>2026-04-04T14:37:15.813Z</time></trkpt><trkpt lat="44.4505269" lon="11.3883567"><ele>167.25</ele><time>2026-04-04T14:37:16.813Z</time></trkpt><trkpt lat="44.4506292" lon="11.3883257"><ele>165.5</ele><time>2026-04-04T14:37:17.812Z</time></trkpt><trkpt lat="44.4507423" lon="11.3883176"><ele>163.75</ele><time>2026-04-04T14:37:18.813Z</time></trkpt><trkpt lat="44.4508789" lon="11.3883525"><ele>162.0</ele><time>2026-04-04T14:37:19.813Z</time></trkpt><trkpt lat="44.4510107" lon="11.3883785"><ele>162.0</ele><time>2026-04-04T14:37:20.814Z</time></trkpt><trkpt lat="44.4511503" lon="11.3884147"><ele>162.0</ele><time>2026-04-04T14:37:21.812Z</time></trkpt><trkpt lat="44.4512945" lon="11.3884523"><ele>162.0</ele><time>2026-04-04T14:37:22.814Z</time></trkpt><trkpt lat="44.4514402" lon="11.3884962"><ele>162.0</ele><time>2026-04-04T14:37:23.814Z</time></trkpt><trkpt lat="44.4515982" lon="11.388541"><ele>162.0</ele><time>2026-04-04T14:37:24.812Z</time></trkpt><trkpt lat="44.4517572" lon="11.3885821"><ele>162.0</ele><time>2026-04-04T14:37:25.813Z</time></trkpt><trkpt lat="44.4519132" lon="11.3886217"><ele>162.0</ele><time>2026-04-04T14:37:26.814Z</time></trkpt><trkpt lat="44.452052" lon="11.388661"><ele>162.8</ele><time>2026-04-04T14:37:27.813Z</time></trkpt><trkpt lat="44.4521745" lon="11.3887038"><ele>163.6</ele><time>2026-04-04T14:37:28.813Z</time></trkpt><trkpt lat="44.4522689" lon="11.3887523"><ele>164.4</ele><time>2026-04-04T14:37:29.813Z</time></trkpt><trkpt lat="44.4523496" lon="11.3888171"><ele>165.20000000000002</ele><time>2026-04-04T14:37:30.814Z</time></trkpt><trkpt lat="44.4524313" lon="11.3888926"><ele>166.0</ele><time>2026-04-04T14:37:31.814Z</time></trkpt><trkpt lat="44.4525199" lon="11.3889825"><ele>166.25</ele><time>2026-04-04T14:37:32.814Z</time></trkpt><trkpt lat="44.452614" lon="11.3890681"><ele>166.5</ele><time>2026-04-04T14:37:33.814Z</time></trkpt><trkpt lat="44.4527181" lon="11.3891579"><ele>166.75</ele><time>2026-04-04T14:37:34.813Z</time></trkpt><trkpt lat="44.4528288" lon="11.3892601"><ele>167.0</ele><time>2026-04-04T14:37:35.813Z</time></trkpt><trkpt lat="44.4529443" lon="11.3893702"><ele>165.0</ele><time>2026-04-04T14:37:36.814Z</time></trkpt><trkpt lat="44.4530666" lon="11.389485"><ele>163.0</ele><time>2026-04-04T14:37:37.814Z</time></trkpt><trkpt lat="44.4531943" lon="11.3896038"><ele>161.0</ele><time>2026-04-04T14:37:38.813Z</time></trkpt><trkpt lat="44.4533239" lon="11.3897163"><ele>160.75</ele><time>2026-04-04T14:37:39.814Z</time></trkpt><trkpt lat="44.4534504" lon="11.389825"><ele>160.5</ele><time>2026-04-04T14:37:40.813Z</time></trkpt><trkpt lat="44.4535726" lon="11.3899341"><ele>160.25</ele><time>2026-04-04T14:37:41.814Z</time></trkpt><trkpt lat="44.4536908" lon="11.3900389"><ele>160.0</ele><time>2026-04-04T14:37:42.813Z</time></trkpt><trkpt lat="44.453806" lon="11.3901418"><ele>158.75</ele><time>2026-04-04T14:37:43.814Z</time></trkpt><trkpt lat="44.4539189" lon="11.3902402"><ele>157.5</ele><time>2026-04-04T14:37:44.813Z</time></trkpt><trkpt lat="44.4540264" lon="11.3903406"><ele>156.25</ele><time>2026-04-04T14:37:45.814Z</time></trkpt><trkpt lat="44.4541241" lon="11.3904536"><ele>155.0</ele><time>2026-04-04T14:37:46.812Z</time></trkpt><trkpt lat="44.4542118" lon="11.3905697"><ele>155.0</ele><time>2026-04-04T14:37:47.812Z</time></trkpt><trkpt lat="44.4542927" lon="11.3906952"><ele>155.0</ele><time>2026-04-04T14:37:48.813Z</time></trkpt><trkpt lat="44.4543689" lon="11.3908216"><ele>155.0</ele><time>2026-04-04T14:37:49.814Z</time></trkpt><trkpt lat="44.4544371" lon="11.3909578"><ele>155.0</ele><time>2026-04-04T14:37:50.813Z</time></trkpt><trkpt lat="44.4544761" lon="11.391096"><ele>155.0</ele><time>2026-04-04T14:37:51.814Z</time></trkpt><trkpt lat="44.4544853" lon="11.3912249"><ele>155.0</ele><time>2026-04-04T14:37:52.812Z</time></trkpt><trkpt lat="44.4544627" lon="11.3913441"><ele>155.0</ele><time>2026-04-04T14:37:53.814Z</time></trkpt><trkpt lat="44.4544288" lon="11.3914663"><ele>155.0</ele><time>2026-04-04T14:37:54.813Z</time></trkpt><trkpt lat="44.4544044" lon="11.3915922"><ele>155.0</ele><time>2026-04-04T14:37:55.814Z</time></trkpt><trkpt lat="44.4544029" lon="11.391717"><ele>153.25</ele><time>2026-04-04T14:37:56.813Z</time></trkpt><trkpt lat="44.4544338" lon="11.3918233"><ele>151.5</ele><time>2026-04-04T14:37:57.814Z</time></trkpt><trkpt lat="44.4544946" lon="11.3919622"><ele>149.75</ele><time>2026-04-04T14:37:58.813Z</time></trkpt><trkpt lat="44.4545708" lon="11.3921218"><ele>148.0</ele><time>2026-04-04T14:37:59.813Z</time></trkpt><trkpt lat="44.4546526" lon="11.3923003"><ele>143.66666666666669</ele><time>2026-04-04T14:38:00.813Z</time></trkpt><trkpt lat="44.4547413" lon="11.3924865"><ele>139.33333333333334</ele><time>2026-04-04T14:38:01.813Z</time></trkpt><trkpt lat="44.4548264" lon="11.39267"><ele>135.0</ele><time>2026-04-04T14:38:02.814Z</time></trkpt><trkpt lat="44.4549092" lon="11.3928504"><ele>133.25</ele><time>2026-04-04T14:38:03.812Z</time></trkpt><trkpt lat="44.4549922" lon="11.3930214"><ele>131.5</ele><time>2026-04-04T14:38:04.813Z</time></trkpt><trkpt lat="44.4550915" lon="11.3931637"><ele>129.75</ele><time>2026-04-04T14:38:05.813Z</time></trkpt><trkpt lat="44.4552207" lon="11.393274"><ele>128.0</ele><time>2026-04-04T14:38:06.813Z</time></trkpt><trkpt lat="44.4553774" lon="11.3933674"><ele>126.66666666666666</ele><time>2026-04-04T14:38:07.814Z</time></trkpt><trkpt lat="44.4555468" lon="11.3934612"><ele>125.33333333333334</ele><time>2026-04-04T14:38:08.813Z</time></trkpt><trkpt lat="44.4557248" lon="11.3935617"><ele>124.0</ele><time>2026-04-04T14:38:09.813Z</time></trkpt><trkpt lat="44.4559074" lon="11.3936624"><ele>124.0</ele><time>2026-04-04T14:38:10.813Z</time></trkpt><trkpt lat="44.4560892" lon="11.3937555"><ele>124.0</ele><time>2026-04-04T14:38:11.814Z</time></trkpt><trkpt lat="44.4562711" lon="11.393857"><ele>124.0</ele><time>2026-04-04T14:38:12.814Z</time></trkpt><trkpt lat="44.456452" lon="11.3939772"><ele>120.66666666666667</ele><time>2026-04-04T14:38:13.814Z</time></trkpt><trkpt lat="44.4566319" lon="11.3941178"><ele>117.33333333333334</ele><time>2026-04-04T14:38:14.814Z</time></trkpt><trkpt lat="44.4568201" lon="11.3942621"><ele>114.0</ele><time>2026-04-04T14:38:15.814Z</time></trkpt><trkpt lat="44.4570115" lon="11.3944077"><ele>113.66666666666666</ele><time>2026-04-04T14:38:16.813Z</time></trkpt><trkpt lat="44.4571901" lon="11.3945468"><ele>113.33333333333333</ele><time>2026-04-04T14:38:17.813Z</time></trkpt><trkpt lat="44.4573567" lon="11.3946647"><ele>113.0</ele><time>2026-04-04T14:38:18.814Z</time></trkpt><trkpt lat="44.4575288" lon="11.3947563"><ele>113.0</ele><time>2026-04-04T14:38:19.813Z</time></trkpt><trkpt lat="44.4576734" lon="11.3948003"><ele>113.0</ele><time>2026-04-04T14:38:20.814Z</time></trkpt><trkpt lat="44.4578343" lon="11.3948536"><ele>113.0</ele><time>2026-04-04T14:38:21.814Z</time></trkpt><trkpt lat="44.4579832" lon="11.3948028"><ele>112.0</ele><time>2026-04-04T14:38:22.814Z</time></trkpt><trkpt lat="44.458132" lon="11.3947364"><ele>111.0</ele><time>2026-04-04T14:38:23.814Z</time></trkpt><trkpt lat="44.458276" lon="11.3946496"><ele>110.0</ele><time>2026-04-04T14:38:24.814Z</time></trkpt><trkpt lat="44.4584048" lon="11.3945502"><ele>108.75</ele><time>2026-04-04T14:38:25.813Z</time></trkpt><trkpt lat="44.4585261" lon="11.3944511"><ele>107.5</ele><time>2026-04-04T14:38:26.813Z</time></trkpt><trkpt lat="44.4586368" lon="11.3943698"><ele>106.25</ele><time>2026-04-04T14:38:27.814Z</time></trkpt><trkpt lat="44.4587281" lon="11.394319"><ele>105.0</ele><time>2026-04-04T14:38:28.814Z</time></trkpt><trkpt lat="44.4588149" lon="11.3943076"><ele>104.0</ele><time>2026-04-04T14:38:29.814Z</time></trkpt><trkpt lat="44.4589048" lon="11.3943448"><ele>103.0</ele><time>2026-04-04T14:38:30.814Z</time></trkpt><trkpt lat="44.4590052" lon="11.3944184"><ele>102.0</ele><time>2026-04-04T14:38:31.813Z</time></trkpt><trkpt lat="44.4591257" lon="11.3945197"><ele>101.0</ele><time>2026-04-04T14:38:32.814Z</time></trkpt><trkpt lat="44.4592651" lon="11.394621"><ele>100.33333333333333</ele><time>2026-04-04T14:38:33.814Z</time></trkpt><trkpt lat="44.4594333" lon="11.3947373"><ele>99.66666666666666</ele><time>2026-04-04T14:38:34.813Z</time></trkpt><trkpt lat="44.4596275" lon="11.3948682"><ele>99.0</ele><time>2026-04-04T14:38:35.814Z</time></trkpt><trkpt lat="44.4598338" lon="11.3950153"><ele>99.0</ele><time>2026-04-04T14:38:36.814Z</time></trkpt><trkpt lat="44.4600436" lon="11.3951737"><ele>99.0</ele><time>2026-04-04T14:38:37.813Z</time></trkpt><trkpt lat="44.4602428" lon="11.395328"><ele>99.0</ele><time>2026-04-04T14:38:38.812Z</time></trkpt><trkpt lat="44.4604263" lon="11.3954847"><ele>99.0</ele><time>2026-04-04T14:38:39.814Z</time></trkpt><trkpt lat="44.4605947" lon="11.395641"><ele>99.0</ele><time>2026-04-04T14:38:40.813Z</time></trkpt><trkpt lat="44.4607511" lon="11.3957991"><ele>99.33333333333334</ele><time>2026-04-04T14:38:41.814Z</time></trkpt><trkpt lat="44.4608918" lon="11.3959646"><ele>99.66666666666667</ele><time>2026-04-04T14:38:42.813Z</time></trkpt><trkpt lat="44.4610179" lon="11.3961441"><ele>100.0</ele><time>2026-04-04T14:38:43.814Z</time></trkpt><trkpt lat="44.4611363" lon="11.3963355"><ele>100.0</ele><time>2026-04-04T14:38:44.813Z</time></trkpt><trkpt lat="44.4612585" lon="11.3965276"><ele>100.0</ele><time>2026-04-04T14:38:45.814Z</time></trkpt><trkpt lat="44.461377" lon="11.396716"><ele>100.0</ele><time>2026-04-04T14:38:46.813Z</time></trkpt><trkpt lat="44.4614953" lon="11.3968981"><ele>98.0</ele><time>2026-04-04T14:38:47.814Z</time></trkpt><trkpt lat="44.4616159" lon="11.3970811"><ele>96.0</ele><time>2026-04-04T14:38:48.814Z</time></trkpt><trkpt lat="44.4617392" lon="11.3972684"><ele>94.0</ele><time>2026-04-04T14:38:49.814Z</time></trkpt><trkpt lat="44.4618606" lon="11.3974565"><ele>92.66666666666666</ele><time>2026-04-04T14:38:50.812Z</time></trkpt><trkpt lat="44.4619863" lon="11.3976493"><ele>91.33333333333333</ele><time>2026-04-04T14:38:51.814Z</time></trkpt><trkpt lat="44.462116" lon="11.3978405"><ele>90.0</ele><time>2026-04-04T14:38:52.813Z</time></trkpt><trkpt lat="44.462258" lon="11.3980278"><ele>88.66666666666667</ele><time>2026-04-04T14:38:53.814Z</time></trkpt><trkpt lat="44.4624066" lon="11.398206"><ele>87.33333333333334</ele><time>2026-04-04T14:38:54.813Z</time></trkpt><trkpt lat="44.4625573" lon="11.3983818"><ele>86.0</ele><time>2026-04-04T14:38:55.812Z</time></trkpt><trkpt lat="44.4627094" lon="11.3985585"><ele>86.0</ele><time>2026-04-04T14:38:56.812Z</time></trkpt><trkpt lat="44.462859" lon="11.398731"><ele>86.0</ele><time>2026-04-04T14:38:57.813Z</time></trkpt><trkpt lat="44.4630082" lon="11.3989005"><ele>86.0</ele><time>2026-04-04T14:38:58.813Z</time></trkpt><trkpt lat="44.4631568" lon="11.399064"><ele>85.66666666666667</ele><time>2026-04-04T14:38:59.813Z</time></trkpt><trkpt lat="44.4633065" lon="11.3992241"><ele>85.33333333333333</ele><time>2026-04-04T14:39:00.814Z</time></trkpt><trkpt lat="44.4634551" lon="11.3993852"><ele>85.0</ele><time>2026-04-04T14:39:01.813Z</time></trkpt><trkpt lat="44.4635988" lon="11.3995407"><ele>84.33333333333333</ele><time>2026-04-04T14:39:02.814Z</time></trkpt><trkpt lat="44.4637336" lon="11.399691"><ele>83.66666666666667</ele><time>2026-04-04T14:39:03.813Z</time></trkpt><trkpt lat="44.4638577" lon="11.399824"><ele>83.0</ele><time>2026-04-04T14:39:04.814Z</time></trkpt><trkpt lat="44.4639672" lon="11.3999431"><ele>82.5</ele><time>2026-04-04T14:39:05.814Z</time></trkpt><trkpt lat="44.4640569" lon="11.4000437"><ele>82.0</ele><time>2026-04-04T14:39:06.812Z</time></trkpt><trkpt lat="44.4641311" lon="11.4001238"><ele>81.5</ele><time>2026-04-04T14:39:07.813Z</time></trkpt><trkpt lat="44.4641941" lon="11.4001799"><ele>81.0</ele><time>2026-04-04T14:39:08.813Z</time></trkpt><trkpt lat="44.4642635" lon="11.4002263"><ele>80.5</ele><time>2026-04-04T14:39:10.814Z</time></trkpt><trkpt lat="44.4643371" lon="11.4001659"><ele>80.0</ele><time>2026-04-04T14:39:12.814Z</time></trkpt><trkpt lat="44.4644042" lon="11.4000734"><ele>80.0</ele><time>2026-04-04T14:39:13.812Z</time></trkpt><trkpt lat="44.4644825" lon="11.3999401"><ele>80.0</ele><time>2026-04-04T14:39:14.813Z</time></trkpt><trkpt lat="44.4645718" lon="11.3997644"><ele>80.0</ele><time>2026-04-04T14:39:15.813Z</time></trkpt><trkpt lat="44.4646742" lon="11.3995616"><ele>79.0</ele><time>2026-04-04T14:39:16.813Z</time></trkpt><trkpt lat="44.4647942" lon="11.3993383"><ele>78.0</ele><time>2026-04-04T14:39:17.814Z</time></trkpt><trkpt lat="44.464936" lon="11.3990998"><ele>77.0</ele><time>2026-04-04T14:39:18.814Z</time></trkpt><trkpt lat="44.4650884" lon="11.3988542"><ele>77.33333333333334</ele><time>2026-04-04T14:39:19.814Z</time></trkpt><trkpt lat="44.4652309" lon="11.3986257"><ele>77.66666666666667</ele><time>2026-04-04T14:39:20.814Z</time></trkpt><trkpt lat="44.465367" lon="11.398419"><ele>78.0</ele><time>2026-04-04T14:39:21.814Z</time></trkpt><trkpt lat="44.465496" lon="11.3982264"><ele>78.0</ele><time>2026-04-04T14:39:22.814Z</time></trkpt><trkpt lat="44.4656136" lon="11.3980529"><ele>78.0</ele><time>2026-04-04T14:39:23.812Z</time></trkpt><trkpt lat="44.4657202" lon="11.3978881"><ele>78.0</ele><time>2026-04-04T14:39:24.813Z</time></trkpt><trkpt lat="44.4658173" lon="11.39774"><ele>77.75</ele><time>2026-04-04T14:39:25.813Z</time></trkpt><trkpt lat="44.4659025" lon="11.3975971"><ele>77.5</ele><time>2026-04-04T14:39:26.813Z</time></trkpt><trkpt lat="44.4659836" lon="11.3974628"><ele>77.25</ele><time>2026-04-04T14:39:27.812Z</time></trkpt><trkpt lat="44.4660687" lon="11.3973331"><ele>77.0</ele><time>2026-04-04T14:39:28.812Z</time></trkpt><trkpt lat="44.4661556" lon="11.397199"><ele>77.5</ele><time>2026-04-04T14:39:29.812Z</time></trkpt><trkpt lat="44.4662515" lon="11.397067"><ele>78.0</ele><time>2026-04-04T14:39:30.813Z</time></trkpt><trkpt lat="44.4663549" lon="11.3969524"><ele>78.5</ele><time>2026-04-04T14:39:31.812Z</time></trkpt><trkpt lat="44.4664587" lon="11.3968542"><ele>79.0</ele><time>2026-04-04T14:39:32.813Z</time></trkpt><trkpt lat="44.4665665" lon="11.3967623"><ele>77.5</ele><time>2026-04-04T14:39:33.812Z</time></trkpt><trkpt lat="44.4666764" lon="11.3966727"><ele>76.0</ele><time>2026-04-04T14:39:34.811Z</time></trkpt><trkpt lat="44.4667813" lon="11.3965926"><ele>74.5</ele><time>2026-04-04T14:39:35.811Z</time></trkpt><trkpt lat="44.466882" lon="11.3965199"><ele>73.0</ele><time>2026-04-04T14:39:36.812Z</time></trkpt><trkpt lat="44.4669812" lon="11.3964464"><ele>73.0</ele><time>2026-04-04T14:39:37.812Z</time></trkpt><trkpt lat="44.4670791" lon="11.3963717"><ele>73.0</ele><time>2026-04-04T14:39:38.812Z</time></trkpt><trkpt lat="44.4671789" lon="11.3962961"><ele>73.0</ele><time>2026-04-04T14:39:39.813Z</time></trkpt><trkpt lat="44.4672833" lon="11.3962134"><ele>73.0</ele><time>2026-04-04T14:39:40.811Z</time></trkpt><trkpt lat="44.4673948" lon="11.3961276"><ele>73.0</ele><time>2026-04-04T14:39:41.811Z</time></trkpt><trkpt lat="44.4675059" lon="11.3960365"><ele>73.0</ele><time>2026-04-04T14:39:42.811Z</time></trkpt><trkpt lat="44.4676209" lon="11.3959461"><ele>73.0</ele><time>2026-04-04T14:39:43.812Z</time></trkpt><trkpt lat="44.4677359" lon="11.3958539"><ele>73.0</ele><time>2026-04-04T14:39:44.813Z</time></trkpt><trkpt lat="44.4678521" lon="11.3957636"><ele>72.0</ele><time>2026-04-04T14:39:45.813Z</time></trkpt><trkpt lat="44.467967" lon="11.3956717"><ele>71.0</ele><time>2026-04-04T14:39:46.813Z</time></trkpt><trkpt lat="44.4680783" lon="11.395583"><ele>70.0</ele><time>2026-04-04T14:39:47.813Z</time></trkpt><trkpt lat="44.4681812" lon="11.3954997"><ele>69.0</ele><time>2026-04-04T14:39:48.812Z</time></trkpt><trkpt lat="44.4682836" lon="11.3954212"><ele>68.25</ele><time>2026-04-04T14:39:49.812Z</time></trkpt><trkpt lat="44.4683862" lon="11.3953424"><ele>67.5</ele><time>2026-04-04T14:39:50.812Z</time></trkpt><trkpt lat="44.4684862" lon="11.3952638"><ele>66.75</ele><time>2026-04-04T14:39:51.812Z</time></trkpt><trkpt lat="44.4685864" lon="11.3951826"><ele>66.0</ele><time>2026-04-04T14:39:52.813Z</time></trkpt><trkpt lat="44.4686924" lon="11.3951033"><ele>66.5</ele><time>2026-04-04T14:39:53.812Z</time></trkpt><trkpt lat="44.4688021" lon="11.3950255"><ele>67.0</ele><time>2026-04-04T14:39:54.813Z</time></trkpt><trkpt lat="44.4689161" lon="11.3949626"><ele>67.5</ele><time>2026-04-04T14:39:55.812Z</time></trkpt><trkpt lat="44.4690515" lon="11.3949072"><ele>68.0</ele><time>2026-04-04T14:39:56.811Z</time></trkpt><trkpt lat="44.4692064" lon="11.3948567"><ele>68.0</ele><time>2026-04-04T14:39:57.812Z</time></trkpt><trkpt lat="44.4693891" lon="11.3947976"><ele>68.0</ele><time>2026-04-04T14:39:58.812Z</time></trkpt><trkpt lat="44.469586" lon="11.3947417"><ele>68.0</ele><time>2026-04-04T14:39:59.812Z</time></trkpt><trkpt lat="44.4697949" lon="11.394701"><ele>67.0</ele><time>2026-04-04T14:40:00.813Z</time></trkpt><trkpt lat="44.4700182" lon="11.3946978"><ele>66.0</ele><time>2026-04-04T14:40:01.812Z</time></trkpt><trkpt lat="44.4702489" lon="11.394733"><ele>66.66666666666667</ele><time>2026-04-04T14:40:02.811Z</time></trkpt><trkpt lat="44.4704752" lon="11.3948043"><ele>67.33333333333334</ele><time>2026-04-04T14:40:03.812Z</time></trkpt><trkpt lat="44.4706851" lon="11.3948844"><ele>68.0</ele><time>2026-04-04T14:40:04.813Z</time></trkpt><trkpt lat="44.4708618" lon="11.3949575"><ele>68.0</ele><time>2026-04-04T14:40:05.813Z</time></trkpt><trkpt lat="44.4710074" lon="11.3950211"><ele>68.0</ele><time>2026-04-04T14:40:06.813Z</time></trkpt><trkpt lat="44.4711358" lon="11.3950737"><ele>68.0</ele><time>2026-04-04T14:40:07.812Z</time></trkpt><trkpt lat="44.4712606" lon="11.3951219"><ele>68.0</ele><time>2026-04-04T14:40:08.812Z</time></trkpt><trkpt lat="44.4713847" lon="11.3951748"><ele>68.75</ele><time>2026-04-04T14:40:09.813Z</time></trkpt><trkpt lat="44.4715072" lon="11.3952255"><ele>69.5</ele><time>2026-04-04T14:40:10.813Z</time></trkpt><trkpt lat="44.4716221" lon="11.3952704"><ele>70.25</ele><time>2026-04-04T14:40:11.812Z</time></trkpt><trkpt lat="44.4717348" lon="11.3953098"><ele>71.0</ele><time>2026-04-04T14:40:12.813Z</time></trkpt><trkpt lat="44.4718444" lon="11.3953553"><ele>71.0</ele><time>2026-04-04T14:40:13.813Z</time></trkpt><trkpt lat="44.4719552" lon="11.3954018"><ele>71.0</ele><time>2026-04-04T14:40:14.813Z</time></trkpt><trkpt lat="44.4720661" lon="11.3954494"><ele>71.0</ele><time>2026-04-04T14:40:15.813Z</time></trkpt><trkpt lat="44.472175" lon="11.3955016"><ele>71.0</ele><time>2026-04-04T14:40:16.813Z</time></trkpt><trkpt lat="44.4722821" lon="11.3955586"><ele>70.25</ele><time>2026-04-04T14:40:17.811Z</time></trkpt><trkpt lat="44.4723869" lon="11.395615"><ele>69.5</ele><time>2026-04-04T14:40:18.812Z</time></trkpt><trkpt lat="44.4724912" lon="11.3956771"><ele>68.75</ele><time>2026-04-04T14:40:19.811Z</time></trkpt><trkpt lat="44.4725973" lon="11.3957408"><ele>68.0</ele><time>2026-04-04T14:40:20.812Z</time></trkpt><trkpt lat="44.4727054" lon="11.3958093"><ele>68.0</ele><time>2026-04-04T14:40:21.812Z</time></trkpt><trkpt lat="44.4728082" lon="11.3958791"><ele>68.0</ele><time>2026-04-04T14:40:22.813Z</time></trkpt><trkpt lat="44.4729121" lon="11.3959545"><ele>68.0</ele><time>2026-04-04T14:40:23.812Z</time></trkpt><trkpt lat="44.4730143" lon="11.3960349"><ele>68.0</ele><time>2026-04-04T14:40:24.811Z</time></trkpt><trkpt lat="44.4731187" lon="11.3961176"><ele>67.6</ele><time>2026-04-04T14:40:25.813Z</time></trkpt><trkpt lat="44.473221" lon="11.3961955"><ele>67.19999999999999</ele><time>2026-04-04T14:40:26.813Z</time></trkpt><trkpt lat="44.4733199" lon="11.3962687"><ele>66.8</ele><time>2026-04-04T14:40:27.813Z</time></trkpt><trkpt lat="44.4734157" lon="11.3963433"><ele>66.39999999999999</ele><time>2026-04-04T14:40:28.813Z</time></trkpt><trkpt lat="44.4735124" lon="11.3964162"><ele>66.0</ele><time>2026-04-04T14:40:29.813Z</time></trkpt><trkpt lat="44.4736057" lon="11.3964889"><ele>66.0</ele><time>2026-04-04T14:40:30.813Z</time></trkpt><trkpt lat="44.4737008" lon="11.3965597"><ele>66.0</ele><time>2026-04-04T14:40:31.812Z</time></trkpt><trkpt lat="44.4737892" lon="11.3966313"><ele>66.0</ele><time>2026-04-04T14:40:32.812Z</time></trkpt><trkpt lat="44.4738439" lon="11.3966849"><ele>66.0</ele><time>2026-04-04T14:40:33.811Z</time></trkpt><trkpt lat="44.4738295" lon="11.3967908"><ele>66.0</ele><time>2026-04-04T14:40:36.813Z</time></trkpt><trkpt lat="44.4737648" lon="11.3968556"><ele>66.0</ele><time>2026-04-04T14:40:38.813Z</time></trkpt><trkpt lat="44.4738267" lon="11.3968126"><ele>65.66666666666667</ele><time>2026-04-04T14:42:42.811Z</time></trkpt><trkpt lat="44.4738833" lon="11.3967621"><ele>65.33333333333333</ele><time>2026-04-04T14:42:44.812Z</time></trkpt><trkpt lat="44.4739638" lon="11.3967689"><ele>65.0</ele><time>2026-04-04T14:42:49.812Z</time></trkpt><trkpt lat="44.4740244" lon="11.3967995"><ele>64.66666666666666</ele><time>2026-04-04T14:42:50.812Z</time></trkpt><trkpt lat="44.4741078" lon="11.3968638"><ele>64.33333333333333</ele><time>2026-04-04T14:42:51.811Z</time></trkpt><trkpt lat="44.4741902" lon="11.3969309"><ele>64.0</ele><time>2026-04-04T14:42:52.812Z</time></trkpt><trkpt lat="44.4742685" lon="11.3970075"><ele>64.0</ele><time>2026-04-04T14:42:53.811Z</time></trkpt><trkpt lat="44.4743321" lon="11.3970905"><ele>64.0</ele><time>2026-04-04T14:42:54.811Z</time></trkpt><trkpt lat="44.4743833" lon="11.3971985"><ele>64.0</ele><time>2026-04-04T14:42:55.81Z</time></trkpt><trkpt lat="44.474428" lon="11.3973503"><ele>64.0</ele><time>2026-04-04T14:42:56.81Z</time></trkpt><trkpt lat="44.474475" lon="11.3975148"><ele>64.0</ele><time>2026-04-04T14:42:57.81Z</time></trkpt><trkpt lat="44.4745073" lon="11.3976653"><ele>64.60000000000001</ele><time>2026-04-04T14:42:58.811Z</time></trkpt><trkpt lat="44.4745239" lon="11.3978091"><ele>65.2</ele><time>2026-04-04T14:42:59.812Z</time></trkpt><trkpt lat="44.4745202" lon="11.397946"><ele>65.80000000000001</ele><time>2026-04-04T14:43:00.812Z</time></trkpt><trkpt lat="44.4744977" lon="11.3980765"><ele>66.4</ele><time>2026-04-04T14:43:01.812Z</time></trkpt><trkpt lat="44.4744473" lon="11.3982233"><ele>67.0</ele><time>2026-04-04T14:43:02.812Z</time></trkpt><trkpt lat="44.4743842" lon="11.3983825"><ele>67.0</ele><time>2026-04-04T14:43:03.811Z</time></trkpt><trkpt lat="44.4743162" lon="11.3985605"><ele>67.0</ele><time>2026-04-04T14:43:04.811Z</time></trkpt><trkpt lat="44.4742446" lon="11.3987402"><ele>67.0</ele><time>2026-04-04T14:43:05.812Z</time></trkpt><trkpt lat="44.4741826" lon="11.3989063"><ele>67.0</ele><time>2026-04-04T14:43:06.812Z</time></trkpt><trkpt lat="44.4741228" lon="11.3990619"><ele>67.0</ele><time>2026-04-04T14:43:07.811Z</time></trkpt><trkpt lat="44.4740663" lon="11.3992076"><ele>67.0</ele><time>2026-04-04T14:43:08.811Z</time></trkpt><trkpt lat="44.4740126" lon="11.3993533"><ele>67.0</ele><time>2026-04-04T14:43:09.811Z</time></trkpt><trkpt lat="44.4739607" lon="11.3994942"><ele>67.0</ele><time>2026-04-04T14:43:10.811Z</time></trkpt><trkpt lat="44.473909" lon="11.3996276"><ele>67.25</ele><time>2026-04-04T14:43:11.812Z</time></trkpt><trkpt lat="44.4738549" lon="11.3997663"><ele>67.5</ele><time>2026-04-04T14:43:12.812Z</time></trkpt><trkpt lat="44.4737955" lon="11.3999077"><ele>67.75</ele><time>2026-04-04T14:43:13.811Z</time></trkpt><trkpt lat="44.4737358" lon="11.4000493"><ele>68.0</ele><time>2026-04-04T14:43:14.812Z</time></trkpt><trkpt lat="44.4736786" lon="11.4001872"><ele>67.2</ele><time>2026-04-04T14:43:15.811Z</time></trkpt><trkpt lat="44.4736216" lon="11.4003258"><ele>66.4</ele><time>2026-04-04T14:43:16.81Z</time></trkpt><trkpt lat="44.4735702" lon="11.4004556"><ele>65.60000000000001</ele><time>2026-04-04T14:43:17.812Z</time></trkpt><trkpt lat="44.4735188" lon="11.4005836"><ele>64.8</ele><time>2026-04-04T14:43:18.81Z</time></trkpt><trkpt lat="44.4734783" lon="11.4007104"><ele>64.0</ele><time>2026-04-04T14:43:19.811Z</time></trkpt><trkpt lat="44.473445" lon="11.4008385"><ele>63.666666666666664</ele><time>2026-04-04T14:43:20.811Z</time></trkpt><trkpt lat="44.4734143" lon="11.4009575"><ele>63.33333333333333</ele><time>2026-04-04T14:43:21.812Z</time></trkpt><trkpt lat="44.4733829" lon="11.4010665"><ele>63.0</ele><time>2026-04-04T14:43:22.811Z</time></trkpt><trkpt lat="44.4733488" lon="11.4011725"><ele>62.66666666666667</ele><time>2026-04-04T14:43:23.812Z</time></trkpt><trkpt lat="44.473313" lon="11.4012843"><ele>62.333333333333336</ele><time>2026-04-04T14:43:24.812Z</time></trkpt><trkpt lat="44.4732758" lon="11.4013896"><ele>62.0</ele><time>2026-04-04T14:43:25.812Z</time></trkpt><trkpt lat="44.4732395" lon="11.4014881"><ele>62.0</ele><time>2026-04-04T14:43:26.812Z</time></trkpt><trkpt lat="44.4731954" lon="11.4016021"><ele>62.0</ele><time>2026-04-04T14:43:28.812Z</time></trkpt><trkpt lat="44.4731718" lon="11.4016913"><ele>62.0</ele><time>2026-04-04T14:44:17.811Z</time></trkpt><trkpt lat="44.4731229" lon="11.4018145"><ele>62.0</ele><time>2026-04-04T14:44:19.812Z</time></trkpt><trkpt lat="44.4730683" lon="11.4019803"><ele>62.0</ele><time>2026-04-04T14:44:21.811Z</time></trkpt><trkpt lat="44.4730373" lon="11.4020609"><ele>62.00000000000001</ele><time>2026-04-04T14:44:22.812Z</time></trkpt><trkpt lat="44.4729992" lon="11.4021453"><ele>62.0</ele><time>2026-04-04T14:44:23.812Z</time></trkpt><trkpt lat="44.4729594" lon="11.402256"><ele>62.0</ele><time>2026-04-04T14:44:24.812Z</time></trkpt><trkpt lat="44.4729156" lon="11.402371"><ele>62.0</ele><time>2026-04-04T14:44:25.812Z</time></trkpt><trkpt lat="44.4728737" lon="11.4024943"><ele>62.00000000000001</ele><time>2026-04-04T14:44:26.812Z</time></trkpt><trkpt lat="44.4728323" lon="11.4026149"><ele>62.0</ele><time>2026-04-04T14:44:27.812Z</time></trkpt><trkpt lat="44.4727906" lon="11.4027411"><ele>63.2</ele><time>2026-04-04T14:44:28.811Z</time></trkpt><trkpt lat="44.4727487" lon="11.4028702"><ele>64.4</ele><time>2026-04-04T14:44:29.811Z</time></trkpt><trkpt lat="44.4727032" lon="11.4029961"><ele>65.6</ele><time>2026-04-04T14:44:30.812Z</time></trkpt><trkpt lat="44.4726569" lon="11.4031254"><ele>66.8</ele><time>2026-04-04T14:44:31.812Z</time></trkpt><trkpt lat="44.4726111" lon="11.4032549"><ele>68.0</ele><time>2026-04-04T14:44:32.812Z</time></trkpt><trkpt lat="44.4725641" lon="11.4033792"><ele>68.0</ele><time>2026-04-04T14:44:33.81Z</time></trkpt><trkpt lat="44.4725196" lon="11.4035025"><ele>68.0</ele><time>2026-04-04T14:44:34.812Z</time></trkpt><trkpt lat="44.4724755" lon="11.4036236"><ele>68.0</ele><time>2026-04-04T14:44:35.811Z</time></trkpt><trkpt lat="44.4724315" lon="11.4037408"><ele>68.0</ele><time>2026-04-04T14:44:36.811Z</time></trkpt><trkpt lat="44.4723859" lon="11.4038538"><ele>68.0</ele><time>2026-04-04T14:44:37.812Z</time></trkpt><trkpt lat="44.4723426" lon="11.4039686"><ele>67.8</ele><time>2026-04-04T14:44:38.811Z</time></trkpt><trkpt lat="44.4722976" lon="11.4040836"><ele>67.6</ele><time>2026-04-04T14:44:39.811Z</time></trkpt><trkpt lat="44.4722503" lon="11.4041973"><ele>67.4</ele><time>2026-04-04T14:44:40.812Z</time></trkpt><trkpt lat="44.4722042" lon="11.4043141"><ele>67.2</ele><time>2026-04-04T14:44:41.812Z</time></trkpt><trkpt lat="44.4721653" lon="11.4044282"><ele>67.0</ele><time>2026-04-04T14:44:42.81Z</time></trkpt><trkpt lat="44.472127" lon="11.404533"><ele>67.0</ele><time>2026-04-04T14:44:43.811Z</time></trkpt><trkpt lat="44.4720933" lon="11.4046196"><ele>67.0</ele><time>2026-04-04T14:44:44.812Z</time></trkpt><trkpt lat="44.472049" lon="11.4047525"><ele>67.0</ele><time>2026-04-04T14:44:46.812Z</time></trkpt><trkpt lat="44.4720098" lon="11.4048369"><ele>67.0</ele><time>2026-04-04T14:44:48.812Z</time></trkpt><trkpt lat="44.4719618" lon="11.4049516"><ele>67.0</ele><time>2026-04-04T14:44:50.811Z</time></trkpt><trkpt lat="44.4719368" lon="11.4050348"><ele>67.0</ele><time>2026-04-04T14:44:51.812Z</time></trkpt><trkpt lat="44.4719039" lon="11.4051333"><ele>66.75</ele><time>2026-04-04T14:44:52.811Z</time></trkpt><trkpt lat="44.4718541" lon="11.4052597"><ele>66.5</ele><time>2026-04-04T14:44:53.812Z</time></trkpt><trkpt lat="44.471789" lon="11.4054211"><ele>66.25</ele><time>2026-04-04T14:44:54.812Z</time></trkpt><trkpt lat="44.4717165" lon="11.4056021"><ele>66.0</ele><time>2026-04-04T14:44:55.811Z</time></trkpt><trkpt lat="44.4716486" lon="11.4057766"><ele>66.0</ele><time>2026-04-04T14:44:56.811Z</time></trkpt><trkpt lat="44.4715892" lon="11.4059354"><ele>66.0</ele><time>2026-04-04T14:44:57.812Z</time></trkpt><trkpt lat="44.4715324" lon="11.4060841"><ele>66.0</ele><time>2026-04-04T14:44:58.811Z</time></trkpt><trkpt lat="44.4714763" lon="11.4062369"><ele>66.0</ele><time>2026-04-04T14:44:59.811Z</time></trkpt><trkpt lat="44.4714233" lon="11.4063896"><ele>66.0</ele><time>2026-04-04T14:45:00.812Z</time></trkpt><trkpt lat="44.4713678" lon="11.4065311"><ele>66.0</ele><time>2026-04-04T14:45:01.812Z</time></trkpt><trkpt lat="44.4713101" lon="11.406673"><ele>66.0</ele><time>2026-04-04T14:45:02.811Z</time></trkpt><trkpt lat="44.471256" lon="11.4068075"><ele>66.0</ele><time>2026-04-04T14:45:03.811Z</time></trkpt><trkpt lat="44.4712039" lon="11.4069452"><ele>65.8</ele><time>2026-04-04T14:45:04.812Z</time></trkpt><trkpt lat="44.4711472" lon="11.4070781"><ele>65.6</ele><time>2026-04-04T14:45:05.812Z</time></trkpt><trkpt lat="44.4710937" lon="11.4072181"><ele>65.4</ele><time>2026-04-04T14:45:06.811Z</time></trkpt><trkpt lat="44.4710395" lon="11.4073546"><ele>65.2</ele><time>2026-04-04T14:45:07.811Z</time></trkpt><trkpt lat="44.4709852" lon="11.4074897"><ele>65.0</ele><time>2026-04-04T14:45:08.811Z</time></trkpt><trkpt lat="44.4709306" lon="11.4076243"><ele>65.16666666666667</ele><time>2026-04-04T14:45:09.81Z</time></trkpt><trkpt lat="44.4708814" lon="11.4077469"><ele>65.33333333333334</ele><time>2026-04-04T14:45:10.811Z</time></trkpt><trkpt lat="44.470838" lon="11.4078579"><ele>65.5</ele><time>2026-04-04T14:45:11.811Z</time></trkpt><trkpt lat="44.4707965" lon="11.4079663"><ele>65.66666666666667</ele><time>2026-04-04T14:45:12.811Z</time></trkpt><trkpt lat="44.4707551" lon="11.4080614"><ele>65.83333333333333</ele><time>2026-04-04T14:45:13.811Z</time></trkpt><trkpt lat="44.4707171" lon="11.4081536"><ele>66.0</ele><time>2026-04-04T14:45:14.81Z</time></trkpt><trkpt lat="44.4706808" lon="11.4082399"><ele>66.0</ele><time>2026-04-04T14:45:15.811Z</time></trkpt><trkpt lat="44.4706453" lon="11.4083608"><ele>66.0</ele><time>2026-04-04T14:45:17.811Z</time></trkpt><trkpt lat="44.4705754" lon="11.4085284"><ele>66.0</ele><time>2026-04-04T14:45:19.81Z</time></trkpt><trkpt lat="44.4705362" lon="11.4086419"><ele>66.0</ele><time>2026-04-04T14:45:20.81Z</time></trkpt><trkpt lat="44.4705028" lon="11.4087532"><ele>66.0</ele><time>2026-04-04T14:45:21.81Z</time></trkpt><trkpt lat="44.4704667" lon="11.4088481"><ele>66.0</ele><time>2026-04-04T14:45:22.81Z</time></trkpt><trkpt lat="44.4704342" lon="11.4089279"><ele>66.0</ele><time>2026-04-04T14:45:23.811Z</time></trkpt><trkpt lat="44.4703906" lon="11.4090508"><ele>66.0</ele><time>2026-04-04T14:45:25.811Z</time></trkpt><trkpt lat="44.4703659" lon="11.4091465"><ele>66.0</ele><time>2026-04-04T14:45:29.81Z</time></trkpt><trkpt lat="44.4703375" lon="11.4092433"><ele>66.0</ele><time>2026-04-04T14:45:34.81Z</time></trkpt><trkpt lat="44.470309" lon="11.4093421"><ele>66.0</ele><time>2026-04-04T14:45:37.811Z</time></trkpt><trkpt lat="44.4702773" lon="11.4094678"><ele>66.0</ele><time>2026-04-04T14:45:39.81Z</time></trkpt><trkpt lat="44.4702893" lon="11.4095809"><ele>66.0</ele><time>2026-04-04T14:45:40.809Z</time></trkpt><trkpt lat="44.4703272" lon="11.4096834"><ele>66.0</ele><time>2026-04-04T14:45:41.811Z</time></trkpt><trkpt lat="44.4703956" lon="11.4097761"><ele>66.0</ele><time>2026-04-04T14:45:42.81Z</time></trkpt><trkpt lat="44.4704845" lon="11.4098678"><ele>66.0</ele><time>2026-04-04T14:45:43.811Z</time></trkpt><trkpt lat="44.4705719" lon="11.4099477"><ele>65.0</ele><time>2026-04-04T14:45:44.811Z</time></trkpt><trkpt lat="44.4706549" lon="11.410026"><ele>63.99999999999999</ele><time>2026-04-04T14:45:45.81Z</time></trkpt><trkpt lat="44.4707421" lon="11.4101089"><ele>62.99999999999999</ele><time>2026-04-04T14:45:46.811Z</time></trkpt><trkpt lat="44.4708242" lon="11.410187"><ele>62.0</ele><time>2026-04-04T14:45:47.809Z</time></trkpt><trkpt lat="44.4708992" lon="11.4102681"><ele>61.0</ele><time>2026-04-04T14:45:48.81Z</time></trkpt><trkpt lat="44.4709735" lon="11.4103385"><ele>60.99999999999999</ele><time>2026-04-04T14:45:49.811Z</time></trkpt><trkpt lat="44.4710486" lon="11.4104114"><ele>61.0</ele><time>2026-04-04T14:45:50.81Z</time></trkpt><trkpt lat="44.4711222" lon="11.4104778"><ele>61.0</ele><time>2026-04-04T14:45:51.811Z</time></trkpt><trkpt lat="44.4711871" lon="11.4105414"><ele>61.0</ele><time>2026-04-04T14:45:52.811Z</time></trkpt><trkpt lat="44.4712482" lon="11.4105961"><ele>60.99999999999999</ele><time>2026-04-04T14:45:53.81Z</time></trkpt><trkpt lat="44.4713015" lon="11.4106445"><ele>61.0</ele><time>2026-04-04T14:45:54.81Z</time></trkpt><trkpt lat="44.4713563" lon="11.4106965"><ele>60.99999999999999</ele><time>2026-04-04T14:45:55.811Z</time></trkpt><trkpt lat="44.4714138" lon="11.4107507"><ele>61.0</ele><time>2026-04-04T14:45:56.811Z</time></trkpt><trkpt lat="44.4714728" lon="11.4108105"><ele>61.0</ele><time>2026-04-04T14:45:57.81Z</time></trkpt><trkpt lat="44.4715307" lon="11.4108735"><ele>61.0</ele><time>2026-04-04T14:45:58.811Z</time></trkpt><trkpt lat="44.471579" lon="11.4109316"><ele>60.99999999999999</ele><time>2026-04-04T14:45:59.81Z</time></trkpt><trkpt lat="44.4716592" lon="11.4110189"><ele>61.0</ele><time>2026-04-04T14:46:01.81Z</time></trkpt><trkpt lat="44.4717184" lon="11.4110683"><ele>61.0</ele><time>2026-04-04T14:46:15.811Z</time></trkpt><trkpt lat="44.4718067" lon="11.4111526"><ele>61.0</ele><time>2026-04-04T14:46:17.81Z</time></trkpt><trkpt lat="44.4718936" lon="11.4112473"><ele>61.0</ele><time>2026-04-04T14:46:18.809Z</time></trkpt><trkpt lat="44.4719911" lon="11.4113594"><ele>61.0</ele><time>2026-04-04T14:46:19.809Z</time></trkpt><trkpt lat="44.4721078" lon="11.4114903"><ele>59.666666666666664</ele><time>2026-04-04T14:46:20.811Z</time></trkpt><trkpt lat="44.4722337" lon="11.4116588"><ele>58.33333333333333</ele><time>2026-04-04T14:46:21.811Z</time></trkpt><trkpt lat="44.4723561" lon="11.4118564"><ele>57.0</ele><time>2026-04-04T14:46:22.811Z</time></trkpt><trkpt lat="44.4724838" lon="11.4120752"><ele>56.33333333333333</ele><time>2026-04-04T14:46:23.811Z</time></trkpt><trkpt lat="44.472612" lon="11.4122975"><ele>55.666666666666664</ele><time>2026-04-04T14:46:24.81Z</time></trkpt><trkpt lat="44.472728" lon="11.4124985"><ele>55.0</ele><time>2026-04-04T14:46:25.811Z</time></trkpt><trkpt lat="44.4728384" lon="11.4126898"><ele>55.0</ele><time>2026-04-04T14:46:26.81Z</time></trkpt><trkpt lat="44.4729417" lon="11.4128662"><ele>55.0</ele><time>2026-04-04T14:46:27.81Z</time></trkpt><trkpt lat="44.4730487" lon="11.4130357"><ele>55.0</ele><time>2026-04-04T14:46:28.811Z</time></trkpt><trkpt lat="44.4731776" lon="11.4131956"><ele>55.0</ele><time>2026-04-04T14:46:29.811Z</time></trkpt><trkpt lat="44.4733342" lon="11.4133391"><ele>55.0</ele><time>2026-04-04T14:46:30.81Z</time></trkpt><trkpt lat="44.4734916" lon="11.4134836"><ele>55.0</ele><time>2026-04-04T14:46:31.81Z</time></trkpt><trkpt lat="44.473634" lon="11.4136201"><ele>55.0</ele><time>2026-04-04T14:46:32.811Z</time></trkpt><trkpt lat="44.4737693" lon="11.4137458"><ele>55.0</ele><time>2026-04-04T14:46:33.809Z</time></trkpt><trkpt lat="44.4738962" lon="11.4138624"><ele>55.0</ele><time>2026-04-04T14:46:34.811Z</time></trkpt><trkpt lat="44.4740168" lon="11.4139738"><ele>55.666666666666664</ele><time>2026-04-04T14:46:35.81Z</time></trkpt><trkpt lat="44.4741469" lon="11.4140959"><ele>56.33333333333333</ele><time>2026-04-04T14:46:36.809Z</time></trkpt><trkpt lat="44.4742883" lon="11.4142328"><ele>57.0</ele><time>2026-04-04T14:46:37.811Z</time></trkpt><trkpt lat="44.4744434" lon="11.4143857"><ele>57.33333333333333</ele><time>2026-04-04T14:46:38.811Z</time></trkpt><trkpt lat="44.474615" lon="11.414548"><ele>57.666666666666664</ele><time>2026-04-04T14:46:39.81Z</time></trkpt><trkpt lat="44.4747964" lon="11.4147097"><ele>58.0</ele><time>2026-04-04T14:46:40.81Z</time></trkpt><trkpt lat="44.4749787" lon="11.4148757"><ele>57.0</ele><time>2026-04-04T14:46:41.811Z</time></trkpt><trkpt lat="44.4751579" lon="11.4150397"><ele>56.0</ele><time>2026-04-04T14:46:42.811Z</time></trkpt><trkpt lat="44.4753313" lon="11.415198"><ele>55.0</ele><time>2026-04-04T14:46:43.81Z</time></trkpt><trkpt lat="44.4754967" lon="11.415357"><ele>54.33333333333333</ele><time>2026-04-04T14:46:44.811Z</time></trkpt><trkpt lat="44.4756552" lon="11.4155109"><ele>53.66666666666667</ele><time>2026-04-04T14:46:45.811Z</time></trkpt><trkpt lat="44.4758103" lon="11.4156593"><ele>53.0</ele><time>2026-04-04T14:46:46.811Z</time></trkpt><trkpt lat="44.4759566" lon="11.415802"><ele>53.0</ele><time>2026-04-04T14:46:47.811Z</time></trkpt><trkpt lat="44.4760936" lon="11.415934"><ele>53.0</ele><time>2026-04-04T14:46:48.811Z</time></trkpt><trkpt lat="44.4762172" lon="11.4160574"><ele>53.0</ele><time>2026-04-04T14:46:49.811Z</time></trkpt><trkpt lat="44.4763227" lon="11.416168"><ele>52.833333333333336</ele><time>2026-04-04T14:46:50.81Z</time></trkpt><trkpt lat="44.4764036" lon="11.4162689"><ele>52.66666666666667</ele><time>2026-04-04T14:46:51.811Z</time></trkpt><trkpt lat="44.4764462" lon="11.4163665"><ele>52.5</ele><time>2026-04-04T14:46:52.81Z</time></trkpt><trkpt lat="44.4764588" lon="11.4164627"><ele>52.33333333333333</ele><time>2026-04-04T14:46:53.811Z</time></trkpt><trkpt lat="44.4764396" lon="11.4165494"><ele>52.166666666666664</ele><time>2026-04-04T14:46:54.811Z</time></trkpt><trkpt lat="44.4764017" lon="11.4166353"><ele>52.0</ele><time>2026-04-04T14:46:55.809Z</time></trkpt><trkpt lat="44.4763514" lon="11.4167369"><ele>52.0</ele><time>2026-04-04T14:46:56.809Z</time></trkpt><trkpt lat="44.4762948" lon="11.4168565"><ele>52.0</ele><time>2026-04-04T14:46:57.811Z</time></trkpt><trkpt lat="44.4762717" lon="11.4169875"><ele>52.0</ele><time>2026-04-04T14:46:58.811Z</time></trkpt><trkpt lat="44.4762758" lon="11.4171493"><ele>52.0</ele><time>2026-04-04T14:46:59.811Z</time></trkpt><trkpt lat="44.4762809" lon="11.4173296"><ele>52.0</ele><time>2026-04-04T14:47:00.81Z</time></trkpt><trkpt lat="44.4762781" lon="11.4175217"><ele>52.0</ele><time>2026-04-04T14:47:01.81Z</time></trkpt><trkpt lat="44.4762606" lon="11.4177189"><ele>52.0</ele><time>2026-04-04T14:47:02.811Z</time></trkpt><trkpt lat="44.476217" lon="11.4179126"><ele>52.0</ele><time>2026-04-04T14:47:03.809Z</time></trkpt><trkpt lat="44.4761435" lon="11.418102"><ele>52.0</ele><time>2026-04-04T14:47:04.81Z</time></trkpt><trkpt lat="44.4760496" lon="11.4182984"><ele>52.0</ele><time>2026-04-04T14:47:05.81Z</time></trkpt><trkpt lat="44.4759499" lon="11.4185099"><ele>52.0</ele><time>2026-04-04T14:47:06.81Z</time></trkpt><trkpt lat="44.4758456" lon="11.4187381"><ele>52.0</ele><time>2026-04-04T14:47:07.811Z</time></trkpt><trkpt lat="44.4757451" lon="11.4189548"><ele>52.666666666666664</ele><time>2026-04-04T14:47:08.81Z</time></trkpt><trkpt lat="44.475655" lon="11.4191563"><ele>53.33333333333333</ele><time>2026-04-04T14:47:09.81Z</time></trkpt><trkpt lat="44.475575" lon="11.4193421"><ele>54.0</ele><time>2026-04-04T14:47:10.811Z</time></trkpt><trkpt lat="44.4754992" lon="11.4194864"><ele>53.800000000000004</ele><time>2026-04-04T14:47:11.811Z</time></trkpt><trkpt lat="44.4754244" lon="11.4195936"><ele>53.60000000000001</ele><time>2026-04-04T14:47:12.811Z</time></trkpt><trkpt lat="44.4753433" lon="11.4196788"><ele>53.4</ele><time>2026-04-04T14:47:13.81Z</time></trkpt><trkpt lat="44.4752648" lon="11.4197442"><ele>53.2</ele><time>2026-04-04T14:47:14.81Z</time></trkpt><trkpt lat="44.4751958" lon="11.4198046"><ele>53.0</ele><time>2026-04-04T14:47:15.809Z</time></trkpt><trkpt lat="44.475139" lon="11.4198657"><ele>52.66666666666667</ele><time>2026-04-04T14:47:16.81Z</time></trkpt><trkpt lat="44.4750846" lon="11.4199402"><ele>52.333333333333336</ele><time>2026-04-04T14:47:17.81Z</time></trkpt><trkpt lat="44.4750464" lon="11.4200437"><ele>52.0</ele><time>2026-04-04T14:47:18.81Z</time></trkpt><trkpt lat="44.4750322" lon="11.4201593"><ele>51.66666666666667</ele><time>2026-04-04T14:47:19.811Z</time></trkpt><trkpt lat="44.4750536" lon="11.4202777"><ele>51.333333333333336</ele><time>2026-04-04T14:47:20.81Z</time></trkpt><trkpt lat="44.4751041" lon="11.4203772"><ele>51.0</ele><time>2026-04-04T14:47:21.811Z</time></trkpt><trkpt lat="44.475174" lon="11.4204509"><ele>51.0</ele><time>2026-04-04T14:47:22.811Z</time></trkpt><trkpt lat="44.4752556" lon="11.4204927"><ele>51.0</ele><time>2026-04-04T14:47:23.81Z</time></trkpt><trkpt lat="44.4753412" lon="11.4205067"><ele>51.0</ele><time>2026-04-04T14:47:24.811Z</time></trkpt><trkpt lat="44.475427" lon="11.4205042"><ele>51.0</ele><time>2026-04-04T14:47:25.81Z</time></trkpt><trkpt lat="44.475515" lon="11.4205054"><ele>51.0</ele><time>2026-04-04T14:47:26.81Z</time></trkpt><trkpt lat="44.4756021" lon="11.4205372"><ele>51.0</ele><time>2026-04-04T14:47:27.81Z</time></trkpt><trkpt lat="44.4756954" lon="11.420596"><ele>51.25</ele><time>2026-04-04T14:47:28.811Z</time></trkpt><trkpt lat="44.4758055" lon="11.4206782"><ele>51.5</ele><time>2026-04-04T14:47:29.811Z</time></trkpt><trkpt lat="44.4759227" lon="11.4207657"><ele>51.75</ele><time>2026-04-04T14:47:30.811Z</time></trkpt><trkpt lat="44.4760484" lon="11.4208641"><ele>52.0</ele><time>2026-04-04T14:47:31.81Z</time></trkpt><trkpt lat="44.4761796" lon="11.4209601"><ele>52.0</ele><time>2026-04-04T14:47:32.81Z</time></trkpt><trkpt lat="44.4763401" lon="11.4210652"><ele>52.0</ele><time>2026-04-04T14:47:33.811Z</time></trkpt><trkpt lat="44.476519" lon="11.4212025"><ele>52.0</ele><time>2026-04-04T14:47:34.81Z</time></trkpt><trkpt lat="44.476705" lon="11.421347"><ele>52.0</ele><time>2026-04-04T14:47:35.81Z</time></trkpt><trkpt lat="44.4769024" lon="11.4214956"><ele>52.0</ele><time>2026-04-04T14:47:36.811Z</time></trkpt><trkpt lat="44.4771001" lon="11.4216717"><ele>50.5</ele><time>2026-04-04T14:47:37.811Z</time></trkpt><trkpt lat="44.4773198" lon="11.4218304"><ele>49.0</ele><time>2026-04-04T14:47:38.81Z</time></trkpt><trkpt lat="44.4775096" lon="11.4219637"><ele>49.0</ele><time>2026-04-04T14:47:39.811Z</time></trkpt><trkpt lat="44.4776936" lon="11.4220595"><ele>49.0</ele><time>2026-04-04T14:47:40.811Z</time></trkpt><trkpt lat="44.4778723" lon="11.4221032"><ele>49.0</ele><time>2026-04-04T14:47:41.811Z</time></trkpt><trkpt lat="44.4780393" lon="11.4220954"><ele>49.33333333333333</ele><time>2026-04-04T14:47:42.809Z</time></trkpt><trkpt lat="44.4782043" lon="11.4220425"><ele>49.66666666666667</ele><time>2026-04-04T14:47:43.809Z</time></trkpt><trkpt lat="44.478345" lon="11.4219466"><ele>50.0</ele><time>2026-04-04T14:47:44.811Z</time></trkpt><trkpt lat="44.4784631" lon="11.4218295"><ele>50.0</ele><time>2026-04-04T14:47:45.811Z</time></trkpt><trkpt lat="44.4785635" lon="11.4217007"><ele>50.0</ele><time>2026-04-04T14:47:46.809Z</time></trkpt><trkpt lat="44.4786368" lon="11.421554"><ele>50.0</ele><time>2026-04-04T14:47:47.81Z</time></trkpt><trkpt lat="44.4786855" lon="11.4213761"><ele>50.0</ele><time>2026-04-04T14:47:48.811Z</time></trkpt><trkpt lat="44.4787304" lon="11.4211622"><ele>50.0</ele><time>2026-04-04T14:47:49.81Z</time></trkpt><trkpt lat="44.4787702" lon="11.42092"><ele>50.0</ele><time>2026-04-04T14:47:50.811Z</time></trkpt><trkpt lat="44.4788071" lon="11.4206529"><ele>50.0</ele><time>2026-04-04T14:47:51.811Z</time></trkpt><trkpt lat="44.4788509" lon="11.4203852"><ele>50.66666666666667</ele><time>2026-04-04T14:47:52.81Z</time></trkpt><trkpt lat="44.4788909" lon="11.4201331"><ele>51.33333333333333</ele><time>2026-04-04T14:47:53.809Z</time></trkpt><trkpt lat="44.4789254" lon="11.4199027"><ele>52.0</ele><time>2026-04-04T14:47:54.81Z</time></trkpt><trkpt lat="44.4789594" lon="11.4196899"><ele>52.2</ele><time>2026-04-04T14:47:55.81Z</time></trkpt><trkpt lat="44.4789994" lon="11.4195113"><ele>52.400000000000006</ele><time>2026-04-04T14:47:56.809Z</time></trkpt><trkpt lat="44.4790377" lon="11.4193885"><ele>52.599999999999994</ele><time>2026-04-04T14:47:57.81Z</time></trkpt><trkpt lat="44.4790766" lon="11.4192973"><ele>52.8</ele><time>2026-04-04T14:47:58.809Z</time></trkpt><trkpt lat="44.4791244" lon="11.4192271"><ele>53.0</ele><time>2026-04-04T14:47:59.809Z</time></trkpt><trkpt lat="44.4792283" lon="11.4191314"><ele>53.0</ele><time>2026-04-04T14:48:01.81Z</time></trkpt><trkpt lat="44.4793149" lon="11.4191131"><ele>53.0</ele><time>2026-04-04T14:48:02.809Z</time></trkpt><trkpt lat="44.4794351" lon="11.4191096"><ele>53.0</ele><time>2026-04-04T14:48:03.81Z</time></trkpt><trkpt lat="44.4795664" lon="11.4190882"><ele>53.0</ele><time>2026-04-04T14:48:04.808Z</time></trkpt><trkpt lat="44.4796937" lon="11.419055"><ele>53.0</ele><time>2026-04-04T14:48:05.809Z</time></trkpt><trkpt lat="44.4798169" lon="11.4190963"><ele>53.0</ele><time>2026-04-04T14:48:06.809Z</time></trkpt><trkpt lat="44.4799431" lon="11.4191842"><ele>53.0</ele><time>2026-04-04T14:48:07.809Z</time></trkpt><trkpt lat="44.4800792" lon="11.4193072"><ele>53.0</ele><time>2026-04-04T14:48:08.809Z</time></trkpt><trkpt lat="44.4802325" lon="11.4194419"><ele>53.0</ele><time>2026-04-04T14:48:09.81Z</time></trkpt><trkpt lat="44.4804029" lon="11.4196012"><ele>53.0</ele><time>2026-04-04T14:48:10.81Z</time></trkpt><trkpt lat="44.4805818" lon="11.4197592"><ele>53.0</ele><time>2026-04-04T14:48:11.81Z</time></trkpt><trkpt lat="44.4807641" lon="11.4199051"><ele>52.66666666666667</ele><time>2026-04-04T14:48:12.809Z</time></trkpt><trkpt lat="44.4809392" lon="11.4200359"><ele>52.33333333333333</ele><time>2026-04-04T14:48:13.809Z</time></trkpt><trkpt lat="44.4811101" lon="11.4201597"><ele>52.0</ele><time>2026-04-04T14:48:14.809Z</time></trkpt><trkpt lat="44.4812802" lon="11.4202799"><ele>52.0</ele><time>2026-04-04T14:48:15.81Z</time></trkpt><trkpt lat="44.4814419" lon="11.4203914"><ele>52.0</ele><time>2026-04-04T14:48:16.81Z</time></trkpt><trkpt lat="44.4816131" lon="11.4204411"><ele>52.0</ele><time>2026-04-04T14:48:17.808Z</time></trkpt><trkpt lat="44.4817348" lon="11.4205274"><ele>51.75</ele><time>2026-04-04T14:48:18.81Z</time></trkpt><trkpt lat="44.4818652" lon="11.4206032"><ele>51.5</ele><time>2026-04-04T14:48:19.809Z</time></trkpt><trkpt lat="44.4819753" lon="11.4206801"><ele>51.25</ele><time>2026-04-04T14:48:20.809Z</time></trkpt><trkpt lat="44.482061" lon="11.4207714"><ele>51.0</ele><time>2026-04-04T14:48:21.809Z</time></trkpt><trkpt lat="44.4821336" lon="11.4208774"><ele>50.8</ele><time>2026-04-04T14:48:22.809Z</time></trkpt><trkpt lat="44.4821906" lon="11.4209866"><ele>50.599999999999994</ele><time>2026-04-04T14:48:23.808Z</time></trkpt><trkpt lat="44.4822587" lon="11.421086"><ele>50.4</ele><time>2026-04-04T14:48:24.81Z</time></trkpt><trkpt lat="44.4823374" lon="11.4211628"><ele>50.2</ele><time>2026-04-04T14:48:25.809Z</time></trkpt><trkpt lat="44.4824317" lon="11.4212113"><ele>50.0</ele><time>2026-04-04T14:48:26.809Z</time></trkpt><trkpt lat="44.4825309" lon="11.4212164"><ele>50.0</ele><time>2026-04-04T14:48:27.81Z</time></trkpt><trkpt lat="44.4826257" lon="11.4211876"><ele>50.0</ele><time>2026-04-04T14:48:28.809Z</time></trkpt><trkpt lat="44.4827126" lon="11.4211373"><ele>50.0</ele><time>2026-04-04T14:48:29.809Z</time></trkpt><trkpt lat="44.4827999" lon="11.4211121"><ele>50.0</ele><time>2026-04-04T14:48:30.81Z</time></trkpt><trkpt lat="44.4828863" lon="11.4211204"><ele>50.0</ele><time>2026-04-04T14:48:31.81Z</time></trkpt><trkpt lat="44.4829693" lon="11.4211522"><ele>50.5</ele><time>2026-04-04T14:48:32.81Z</time></trkpt><trkpt lat="44.4830299" lon="11.4211923"><ele>51.0</ele><time>2026-04-04T14:48:33.81Z</time></trkpt><trkpt lat="44.4831438" lon="11.4212989"><ele>51.5</ele><time>2026-04-04T14:48:35.81Z</time></trkpt><trkpt lat="44.4832476" lon="11.4213647"><ele>52.0</ele><time>2026-04-04T14:48:36.81Z</time></trkpt><trkpt lat="44.4833796" lon="11.421436"><ele>52.0</ele><time>2026-04-04T14:48:37.81Z</time></trkpt><trkpt lat="44.4835067" lon="11.4214879"><ele>52.0</ele><time>2026-04-04T14:48:38.809Z</time></trkpt><trkpt lat="44.4836276" lon="11.4215164"><ele>52.0</ele><time>2026-04-04T14:48:39.81Z</time></trkpt><trkpt lat="44.4837424" lon="11.4215255"><ele>52.0</ele><time>2026-04-04T14:48:40.809Z</time></trkpt><trkpt lat="44.4838483" lon="11.4215268"><ele>52.0</ele><time>2026-04-04T14:48:41.81Z</time></trkpt><trkpt lat="44.4839446" lon="11.4215249"><ele>52.0</ele><time>2026-04-04T14:48:42.81Z</time></trkpt><trkpt lat="44.4840436" lon="11.4215281"><ele>52.0</ele><time>2026-04-04T14:48:43.809Z</time></trkpt><trkpt lat="44.4841492" lon="11.4215346"><ele>52.0</ele><time>2026-04-04T14:48:44.81Z</time></trkpt><trkpt lat="44.4842595" lon="11.4215534"><ele>52.0</ele><time>2026-04-04T14:48:45.809Z</time></trkpt><trkpt lat="44.4843779" lon="11.4215983"><ele>52.0</ele><time>2026-04-04T14:48:46.809Z</time></trkpt><trkpt lat="44.4845228" lon="11.421678"><ele>52.0</ele><time>2026-04-04T14:48:47.809Z</time></trkpt><trkpt lat="44.4846799" lon="11.4217694"><ele>52.0</ele><time>2026-04-04T14:48:48.81Z</time></trkpt><trkpt lat="44.4848517" lon="11.4218726"><ele>51.0</ele><time>2026-04-04T14:48:49.81Z</time></trkpt><trkpt lat="44.4850333" lon="11.4219853"><ele>50.0</ele><time>2026-04-04T14:48:50.81Z</time></trkpt><trkpt lat="44.4852295" lon="11.4221011"><ele>49.0</ele><time>2026-04-04T14:48:51.809Z</time></trkpt><trkpt lat="44.4854312" lon="11.4222253"><ele>49.0</ele><time>2026-04-04T14:48:52.808Z</time></trkpt><trkpt lat="44.4856402" lon="11.4223588"><ele>49.0</ele><time>2026-04-04T14:48:53.81Z</time></trkpt><trkpt lat="44.4858431" lon="11.4224851"><ele>49.0</ele><time>2026-04-04T14:48:54.81Z</time></trkpt><trkpt lat="44.4860365" lon="11.4226064"><ele>49.0</ele><time>2026-04-04T14:48:55.809Z</time></trkpt><trkpt lat="44.4862244" lon="11.4227258"><ele>49.0</ele><time>2026-04-04T14:48:56.809Z</time></trkpt><trkpt lat="44.4864128" lon="11.4228441"><ele>48.33333333333333</ele><time>2026-04-04T14:48:57.809Z</time></trkpt><trkpt lat="44.4865999" lon="11.4229598"><ele>47.666666666666664</ele><time>2026-04-04T14:48:58.81Z</time></trkpt><trkpt lat="44.4867822" lon="11.4230722"><ele>47.0</ele><time>2026-04-04T14:48:59.809Z</time></trkpt><trkpt lat="44.4869581" lon="11.4231781"><ele>47.33333333333333</ele><time>2026-04-04T14:49:00.809Z</time></trkpt><trkpt lat="44.4871298" lon="11.4232784"><ele>47.666666666666664</ele><time>2026-04-04T14:49:01.808Z</time></trkpt><trkpt lat="44.4872951" lon="11.4233726"><ele>48.0</ele><time>2026-04-04T14:49:02.81Z</time></trkpt><trkpt lat="44.487452" lon="11.4234649"><ele>48.0</ele><time>2026-04-04T14:49:03.809Z</time></trkpt><trkpt lat="44.4876054" lon="11.4235564"><ele>48.0</ele><time>2026-04-04T14:49:04.809Z</time></trkpt><trkpt lat="44.4877561" lon="11.4236445"><ele>48.0</ele><time>2026-04-04T14:49:05.809Z</time></trkpt><trkpt lat="44.4879004" lon="11.4237218"><ele>47.599999999999994</ele><time>2026-04-04T14:49:06.81Z</time></trkpt><trkpt lat="44.4880285" lon="11.4237891"><ele>47.199999999999996</ele><time>2026-04-04T14:49:07.809Z</time></trkpt><trkpt lat="44.4881367" lon="11.4238478"><ele>46.8</ele><time>2026-04-04T14:49:08.809Z</time></trkpt><trkpt lat="44.4882259" lon="11.4238983"><ele>46.4</ele><time>2026-04-04T14:49:09.81Z</time></trkpt><trkpt lat="44.4882995" lon="11.4239483"><ele>46.0</ele><time>2026-04-04T14:49:10.81Z</time></trkpt><trkpt lat="44.488355" lon="11.4240073"><ele>46.0</ele><time>2026-04-04T14:49:11.809Z</time></trkpt><trkpt lat="44.4884017" lon="11.4240894"><ele>46.0</ele><time>2026-04-04T14:49:12.808Z</time></trkpt><trkpt lat="44.4884443" lon="11.4242005"><ele>46.0</ele><time>2026-04-04T14:49:13.809Z</time></trkpt><trkpt lat="44.4884896" lon="11.4243236"><ele>46.0</ele><time>2026-04-04T14:49:14.808Z</time></trkpt><trkpt lat="44.4885526" lon="11.4244159"><ele>46.0</ele><time>2026-04-04T14:49:15.809Z</time></trkpt><trkpt lat="44.4886273" lon="11.4244746"><ele>46.0</ele><time>2026-04-04T14:49:16.81Z</time></trkpt><trkpt lat="44.4887147" lon="11.424499"><ele>46.0</ele><time>2026-04-04T14:49:17.81Z</time></trkpt><trkpt lat="44.4888076" lon="11.4244924"><ele>46.0</ele><time>2026-04-04T14:49:18.809Z</time></trkpt><trkpt lat="44.4889081" lon="11.4244562"><ele>46.0</ele><time>2026-04-04T14:49:19.81Z</time></trkpt><trkpt lat="44.4890223" lon="11.4243877"><ele>46.0</ele><time>2026-04-04T14:49:20.81Z</time></trkpt><trkpt lat="44.4891514" lon="11.4243409"><ele>46.0</ele><time>2026-04-04T14:49:21.81Z</time></trkpt><trkpt lat="44.4893014" lon="11.4243521"><ele>46.0</ele><time>2026-04-04T14:49:22.809Z</time></trkpt><trkpt lat="44.4894738" lon="11.4244022"><ele>46.0</ele><time>2026-04-04T14:49:23.81Z</time></trkpt><trkpt lat="44.4896571" lon="11.4244577"><ele>46.333333333333336</ele><time>2026-04-04T14:49:24.81Z</time></trkpt><trkpt lat="44.4898382" lon="11.4245085"><ele>46.666666666666664</ele><time>2026-04-04T14:49:25.81Z</time></trkpt><trkpt lat="44.4900065" lon="11.4245577"><ele>47.0</ele><time>2026-04-04T14:49:26.809Z</time></trkpt><trkpt lat="44.4901664" lon="11.4246023"><ele>47.0</ele><time>2026-04-04T14:49:27.809Z</time></trkpt><trkpt lat="44.4903175" lon="11.4246412"><ele>47.0</ele><time>2026-04-04T14:49:28.809Z</time></trkpt><trkpt lat="44.49046" lon="11.4246801"><ele>47.0</ele><time>2026-04-04T14:49:29.81Z</time></trkpt><trkpt lat="44.4906143" lon="11.4247278"><ele>47.666666666666664</ele><time>2026-04-04T14:49:30.809Z</time></trkpt><trkpt lat="44.4907827" lon="11.4247891"><ele>48.33333333333333</ele><time>2026-04-04T14:49:31.81Z</time></trkpt><trkpt lat="44.4909465" lon="11.4248633"><ele>49.0</ele><time>2026-04-04T14:49:32.81Z</time></trkpt><trkpt lat="44.4911026" lon="11.4249413"><ele>49.0</ele><time>2026-04-04T14:49:33.808Z</time></trkpt><trkpt lat="44.4912511" lon="11.4250233"><ele>49.0</ele><time>2026-04-04T14:49:34.81Z</time></trkpt><trkpt lat="44.4913956" lon="11.425106"><ele>49.0</ele><time>2026-04-04T14:49:35.809Z</time></trkpt><trkpt lat="44.4915355" lon="11.4251874"><ele>49.666666666666664</ele><time>2026-04-04T14:49:36.81Z</time></trkpt><trkpt lat="44.4916704" lon="11.4252706"><ele>50.33333333333333</ele><time>2026-04-04T14:49:37.809Z</time></trkpt><trkpt lat="44.4918078" lon="11.4253567"><ele>51.0</ele><time>2026-04-04T14:49:38.81Z</time></trkpt><trkpt lat="44.491948" lon="11.4254495"><ele>50.33333333333333</ele><time>2026-04-04T14:49:39.809Z</time></trkpt><trkpt lat="44.4920902" lon="11.4255461"><ele>49.666666666666664</ele><time>2026-04-04T14:49:40.808Z</time></trkpt><trkpt lat="44.4922375" lon="11.4256469"><ele>49.0</ele><time>2026-04-04T14:49:41.809Z</time></trkpt><trkpt lat="44.4923998" lon="11.4257544"><ele>49.0</ele><time>2026-04-04T14:49:42.808Z</time></trkpt><trkpt lat="44.4925722" lon="11.4258677"><ele>49.0</ele><time>2026-04-04T14:49:43.81Z</time></trkpt><trkpt lat="44.4927384" lon="11.425981"><ele>49.0</ele><time>2026-04-04T14:49:44.809Z</time></trkpt><trkpt lat="44.4928997" lon="11.4260884"><ele>49.0</ele><time>2026-04-04T14:49:45.81Z</time></trkpt><trkpt lat="44.4930568" lon="11.4261882"><ele>49.0</ele><time>2026-04-04T14:49:46.81Z</time></trkpt><trkpt lat="44.4932075" lon="11.4262786"><ele>49.0</ele><time>2026-04-04T14:49:47.81Z</time></trkpt><trkpt lat="44.4933476" lon="11.4263606"><ele>49.25</ele><time>2026-04-04T14:49:48.809Z</time></trkpt><trkpt lat="44.4934786" lon="11.4264368"><ele>49.5</ele><time>2026-04-04T14:49:49.809Z</time></trkpt><trkpt lat="44.4936024" lon="11.4265074"><ele>49.75</ele><time>2026-04-04T14:49:50.808Z</time></trkpt><trkpt lat="44.4937221" lon="11.4265784"><ele>50.0</ele><time>2026-04-04T14:49:51.808Z</time></trkpt><trkpt lat="44.4938331" lon="11.4266424"><ele>49.4</ele><time>2026-04-04T14:49:52.81Z</time></trkpt><trkpt lat="44.4939423" lon="11.4267016"><ele>48.8</ele><time>2026-04-04T14:49:53.809Z</time></trkpt><trkpt lat="44.4940451" lon="11.4267588"><ele>48.2</ele><time>2026-04-04T14:49:54.809Z</time></trkpt><trkpt lat="44.4941413" lon="11.4268117"><ele>47.6</ele><time>2026-04-04T14:49:55.809Z</time></trkpt><trkpt lat="44.4942232" lon="11.4268629"><ele>47.0</ele><time>2026-04-04T14:49:56.81Z</time></trkpt><trkpt lat="44.4943005" lon="11.4269181"><ele>47.0</ele><time>2026-04-04T14:49:57.809Z</time></trkpt><trkpt lat="44.4943996" lon="11.4269807"><ele>47.0</ele><time>2026-04-04T14:49:58.809Z</time></trkpt><trkpt lat="44.4945228" lon="11.427051"><ele>47.0</ele><time>2026-04-04T14:49:59.81Z</time></trkpt><trkpt lat="44.494647" lon="11.4271131"><ele>47.0</ele><time>2026-04-04T14:50:00.81Z</time></trkpt><trkpt lat="44.4947609" lon="11.4271666"><ele>47.400000000000006</ele><time>2026-04-04T14:50:01.809Z</time></trkpt><trkpt lat="44.4948636" lon="11.4272222"><ele>47.800000000000004</ele><time>2026-04-04T14:50:02.81Z</time></trkpt><trkpt lat="44.4949604" lon="11.4272737"><ele>48.2</ele><time>2026-04-04T14:50:03.809Z</time></trkpt><trkpt lat="44.4950571" lon="11.4273187"><ele>48.6</ele><time>2026-04-04T14:50:04.81Z</time></trkpt><trkpt lat="44.4951579" lon="11.4273758"><ele>49.0</ele><time>2026-04-04T14:50:05.809Z</time></trkpt><trkpt lat="44.4952648" lon="11.4274372"><ele>49.0</ele><time>2026-04-04T14:50:06.809Z</time></trkpt><trkpt lat="44.4953773" lon="11.4274978"><ele>49.0</ele><time>2026-04-04T14:50:07.809Z</time></trkpt><trkpt lat="44.4955077" lon="11.4275675"><ele>49.0</ele><time>2026-04-04T14:50:08.809Z</time></trkpt><trkpt lat="44.4956473" lon="11.4276493"><ele>49.0</ele><time>2026-04-04T14:50:09.81Z</time></trkpt><trkpt lat="44.4957779" lon="11.4277261"><ele>48.75</ele><time>2026-04-04T14:50:10.81Z</time></trkpt><trkpt lat="44.4959039" lon="11.4278025"><ele>48.5</ele><time>2026-04-04T14:50:11.81Z</time></trkpt><trkpt lat="44.4960436" lon="11.4278901"><ele>48.25</ele><time>2026-04-04T14:50:12.81Z</time></trkpt><trkpt lat="44.4961815" lon="11.4279843"><ele>48.0</ele><time>2026-04-04T14:50:13.809Z</time></trkpt><trkpt lat="44.4963063" lon="11.4280697"><ele>47.5</ele><time>2026-04-04T14:50:14.81Z</time></trkpt><trkpt lat="44.4964245" lon="11.4281528"><ele>47.0</ele><time>2026-04-04T14:50:15.809Z</time></trkpt><trkpt lat="44.4965454" lon="11.4282401"><ele>46.5</ele><time>2026-04-04T14:50:16.81Z</time></trkpt><trkpt lat="44.4966746" lon="11.4283256"><ele>46.0</ele><time>2026-04-04T14:50:17.809Z</time></trkpt><trkpt lat="44.4968076" lon="11.4284227"><ele>46.0</ele><time>2026-04-04T14:50:18.81Z</time></trkpt><trkpt lat="44.4969346" lon="11.4285215"><ele>46.0</ele><time>2026-04-04T14:50:19.81Z</time></trkpt><trkpt lat="44.497053" lon="11.4286147"><ele>46.0</ele><time>2026-04-04T14:50:20.809Z</time></trkpt><trkpt lat="44.4971622" lon="11.4287037"><ele>46.0</ele><time>2026-04-04T14:50:21.809Z</time></trkpt><trkpt lat="44.4972636" lon="11.4287825"><ele>46.4</ele><time>2026-04-04T14:50:22.809Z</time></trkpt><trkpt lat="44.4973598" lon="11.4288678"><ele>46.8</ele><time>2026-04-04T14:50:23.808Z</time></trkpt><trkpt lat="44.4974379" lon="11.4289615"><ele>47.199999999999996</ele><time>2026-04-04T14:50:24.809Z</time></trkpt><trkpt lat="44.4974991" lon="11.4290572"><ele>47.599999999999994</ele><time>2026-04-04T14:50:25.808Z</time></trkpt><trkpt lat="44.4975433" lon="11.4291532"><ele>48.0</ele><time>2026-04-04T14:50:26.809Z</time></trkpt><trkpt lat="44.49757" lon="11.4292411"><ele>48.0</ele><time>2026-04-04T14:50:27.81Z</time></trkpt><trkpt lat="44.4976067" lon="11.4293855"><ele>48.0</ele><time>2026-04-04T14:50:29.81Z</time></trkpt><trkpt lat="44.4976305" lon="11.4294892"><ele>48.0</ele><time>2026-04-04T14:50:30.81Z</time></trkpt><trkpt lat="44.497665" lon="11.4296299"><ele>48.0</ele><time>2026-04-04T14:50:31.811Z</time></trkpt><trkpt lat="44.4977087" lon="11.4297597"><ele>48.0</ele><time>2026-04-04T14:50:32.809Z</time></trkpt><trkpt lat="44.4977736" lon="11.4298681"><ele>47.8</ele><time>2026-04-04T14:50:33.81Z</time></trkpt><trkpt lat="44.497857" lon="11.429946"><ele>47.599999999999994</ele><time>2026-04-04T14:50:34.81Z</time></trkpt><trkpt lat="44.4979524" lon="11.4299796"><ele>47.400000000000006</ele><time>2026-04-04T14:50:35.811Z</time></trkpt><trkpt lat="44.4980555" lon="11.4299693"><ele>47.2</ele><time>2026-04-04T14:50:36.809Z</time></trkpt><trkpt lat="44.4981614" lon="11.4299225"><ele>47.0</ele><time>2026-04-04T14:50:37.81Z</time></trkpt><trkpt lat="44.4982617" lon="11.4298534"><ele>47.0</ele><time>2026-04-04T14:50:38.81Z</time></trkpt><trkpt lat="44.4983575" lon="11.4298098"><ele>47.0</ele><time>2026-04-04T14:50:39.809Z</time></trkpt><trkpt lat="44.4984682" lon="11.4298232"><ele>47.0</ele><time>2026-04-04T14:50:40.809Z</time></trkpt><trkpt lat="44.4985835" lon="11.4298774"><ele>47.0</ele><time>2026-04-04T14:50:41.809Z</time></trkpt><trkpt lat="44.498694" lon="11.429968"><ele>46.5</ele><time>2026-04-04T14:50:42.809Z</time></trkpt><trkpt lat="44.498797" lon="11.4300892"><ele>46.0</ele><time>2026-04-04T14:50:43.808Z</time></trkpt><trkpt lat="44.4988817" lon="11.4302268"><ele>45.5</ele><time>2026-04-04T14:50:44.809Z</time></trkpt><trkpt lat="44.4989551" lon="11.430369"><ele>45.0</ele><time>2026-04-04T14:50:45.809Z</time></trkpt><trkpt lat="44.499026" lon="11.4305068"><ele>45.0</ele><time>2026-04-04T14:50:46.808Z</time></trkpt><trkpt lat="44.4990967" lon="11.4306374"><ele>45.0</ele><time>2026-04-04T14:50:47.809Z</time></trkpt><trkpt lat="44.4991665" lon="11.4307661"><ele>45.0</ele><time>2026-04-04T14:50:48.809Z</time></trkpt><trkpt lat="44.4992407" lon="11.4309047"><ele>45.0</ele><time>2026-04-04T14:50:49.809Z</time></trkpt><trkpt lat="44.4993108" lon="11.4310341"><ele>45.0</ele><time>2026-04-04T14:50:50.808Z</time></trkpt><trkpt lat="44.4993823" lon="11.431158"><ele>45.0</ele><time>2026-04-04T14:50:51.809Z</time></trkpt><trkpt lat="44.4994606" lon="11.4312599"><ele>45.0</ele><time>2026-04-04T14:50:52.809Z</time></trkpt><trkpt lat="44.4995585" lon="11.4313275"><ele>45.0</ele><time>2026-04-04T14:50:53.809Z</time></trkpt><trkpt lat="44.4996678" lon="11.4313471"><ele>45.0</ele><time>2026-04-04T14:50:54.809Z</time></trkpt><trkpt lat="44.4997725" lon="11.4313065"><ele>44.75</ele><time>2026-04-04T14:50:55.809Z</time></trkpt><trkpt lat="44.4998663" lon="11.4312182"><ele>44.5</ele><time>2026-04-04T14:50:56.809Z</time></trkpt><trkpt lat="44.4999643" lon="11.4311355"><ele>44.25</ele><time>2026-04-04T14:50:57.809Z</time></trkpt><trkpt lat="44.5000792" lon="11.4311211"><ele>44.0</ele><time>2026-04-04T14:50:58.808Z</time></trkpt><trkpt lat="44.5002024" lon="11.4311484"><ele>44.0</ele><time>2026-04-04T14:50:59.809Z</time></trkpt><trkpt lat="44.5003339" lon="11.4312229"><ele>44.0</ele><time>2026-04-04T14:51:00.808Z</time></trkpt><trkpt lat="44.5004759" lon="11.4313079"><ele>44.0</ele><time>2026-04-04T14:51:01.807Z</time></trkpt><trkpt lat="44.5006063" lon="11.4313917"><ele>44.0</ele><time>2026-04-04T14:51:02.808Z</time></trkpt><trkpt lat="44.5007237" lon="11.4314757"><ele>44.0</ele><time>2026-04-04T14:51:03.809Z</time></trkpt><trkpt lat="44.5008431" lon="11.4315652"><ele>44.0</ele><time>2026-04-04T14:51:04.809Z</time></trkpt><trkpt lat="44.5009694" lon="11.4316561"><ele>44.0</ele><time>2026-04-04T14:51:05.808Z</time></trkpt><trkpt lat="44.5011047" lon="11.4317516"><ele>44.0</ele><time>2026-04-04T14:51:06.808Z</time></trkpt><trkpt lat="44.5012529" lon="11.4318572"><ele>44.0</ele><time>2026-04-04T14:51:07.809Z</time></trkpt><trkpt lat="44.5013955" lon="11.431957"><ele>44.0</ele><time>2026-04-04T14:51:08.809Z</time></trkpt><trkpt lat="44.5015338" lon="11.432054"><ele>44.0</ele><time>2026-04-04T14:51:09.809Z</time></trkpt><trkpt lat="44.5016675" lon="11.4321423"><ele>44.0</ele><time>2026-04-04T14:51:10.809Z</time></trkpt><trkpt lat="44.5018028" lon="11.4322285"><ele>44.0</ele><time>2026-04-04T14:51:11.809Z</time></trkpt><trkpt lat="44.5019421" lon="11.4323127"><ele>44.0</ele><time>2026-04-04T14:51:12.809Z</time></trkpt><trkpt lat="44.5020817" lon="11.4323933"><ele>44.0</ele><time>2026-04-04T14:51:13.808Z</time></trkpt><trkpt lat="44.5022208" lon="11.4324718"><ele>44.0</ele><time>2026-04-04T14:51:14.807Z</time></trkpt><trkpt lat="44.5023648" lon="11.4325534"><ele>44.0</ele><time>2026-04-04T14:51:15.807Z</time></trkpt><trkpt lat="44.502509" lon="11.432635"><ele>44.0</ele><time>2026-04-04T14:51:16.808Z</time></trkpt><trkpt lat="44.5026455" lon="11.4327122"><ele>44.0</ele><time>2026-04-04T14:51:17.808Z</time></trkpt><trkpt lat="44.5027752" lon="11.4327837"><ele>44.0</ele><time>2026-04-04T14:51:18.809Z</time></trkpt><trkpt lat="44.5028999" lon="11.4328503"><ele>44.0</ele><time>2026-04-04T14:51:19.808Z</time></trkpt><trkpt lat="44.5030248" lon="11.432917"><ele>44.25</ele><time>2026-04-04T14:51:20.809Z</time></trkpt><trkpt lat="44.5031478" lon="11.4329838"><ele>44.5</ele><time>2026-04-04T14:51:21.808Z</time></trkpt><trkpt lat="44.5032702" lon="11.4330486"><ele>44.75</ele><time>2026-04-04T14:51:22.809Z</time></trkpt><trkpt lat="44.5033919" lon="11.4331147"><ele>45.0</ele><time>2026-04-04T14:51:23.808Z</time></trkpt><trkpt lat="44.5035098" lon="11.4331759"><ele>45.0</ele><time>2026-04-04T14:51:24.809Z</time></trkpt><trkpt lat="44.5036243" lon="11.433225"><ele>45.0</ele><time>2026-04-04T14:51:25.809Z</time></trkpt><trkpt lat="44.503741" lon="11.4332682"><ele>45.0</ele><time>2026-04-04T14:51:26.809Z</time></trkpt><trkpt lat="44.5038584" lon="11.4333038"><ele>45.0</ele><time>2026-04-04T14:51:27.809Z</time></trkpt><trkpt lat="44.5039774" lon="11.4333408"><ele>45.0</ele><time>2026-04-04T14:51:28.809Z</time></trkpt><trkpt lat="44.5040988" lon="11.4333873"><ele>45.0</ele><time>2026-04-04T14:51:29.809Z</time></trkpt><trkpt lat="44.5042083" lon="11.4334482"><ele>45.0</ele><time>2026-04-04T14:51:30.809Z</time></trkpt><trkpt lat="44.5043089" lon="11.4335152"><ele>45.0</ele><time>2026-04-04T14:51:31.808Z</time></trkpt><trkpt lat="44.5044076" lon="11.4335825"><ele>45.0</ele><time>2026-04-04T14:51:32.809Z</time></trkpt><trkpt lat="44.5044988" lon="11.4336399"><ele>45.0</ele><time>2026-04-04T14:51:33.809Z</time></trkpt><trkpt lat="44.5045894" lon="11.4336955"><ele>45.0</ele><time>2026-04-04T14:51:34.809Z</time></trkpt><trkpt lat="44.5046768" lon="11.4337508"><ele>45.0</ele><time>2026-04-04T14:51:35.809Z</time></trkpt><trkpt lat="44.5047606" lon="11.433808"><ele>45.0</ele><time>2026-04-04T14:51:36.809Z</time></trkpt><trkpt lat="44.5048361" lon="11.4338615"><ele>44.4</ele><time>2026-04-04T14:51:37.809Z</time></trkpt><trkpt lat="44.5048965" lon="11.433899"><ele>43.8</ele><time>2026-04-04T14:51:38.809Z</time></trkpt><trkpt lat="44.5049767" lon="11.4339826"><ele>43.2</ele><time>2026-04-04T14:51:40.808Z</time></trkpt><trkpt lat="44.5050468" lon="11.4340702"><ele>42.6</ele><time>2026-04-04T14:51:42.809Z</time></trkpt><trkpt lat="44.5051406" lon="11.4340362"><ele>42.0</ele><time>2026-04-04T14:51:44.808Z</time></trkpt><trkpt lat="44.5051698" lon="11.4338713"><ele>42.2</ele><time>2026-04-04T14:51:46.808Z</time></trkpt><trkpt lat="44.5051823" lon="11.4337599"><ele>42.400000000000006</ele><time>2026-04-04T14:51:47.808Z</time></trkpt><trkpt lat="44.5052055" lon="11.4336266"><ele>42.599999999999994</ele><time>2026-04-04T14:51:48.808Z</time></trkpt><trkpt lat="44.5052341" lon="11.4334862"><ele>42.8</ele><time>2026-04-04T14:51:49.808Z</time></trkpt><trkpt lat="44.5052636" lon="11.4333507"><ele>43.0</ele><time>2026-04-04T14:51:50.808Z</time></trkpt><trkpt lat="44.5052986" lon="11.4332016"><ele>43.0</ele><time>2026-04-04T14:51:51.808Z</time></trkpt><trkpt lat="44.505334" lon="11.4330513"><ele>43.0</ele><time>2026-04-04T14:51:52.809Z</time></trkpt><trkpt lat="44.5053648" lon="11.4329009"><ele>43.0</ele><time>2026-04-04T14:51:53.809Z</time></trkpt><trkpt lat="44.5053987" lon="11.4327584"><ele>43.0</ele><time>2026-04-04T14:51:54.808Z</time></trkpt><trkpt lat="44.5054324" lon="11.432625"><ele>43.0</ele><time>2026-04-04T14:51:55.808Z</time></trkpt><trkpt lat="44.505469" lon="11.4325061"><ele>42.8</ele><time>2026-04-04T14:51:56.809Z</time></trkpt><trkpt lat="44.5055017" lon="11.4323935"><ele>42.599999999999994</ele><time>2026-04-04T14:51:57.809Z</time></trkpt><trkpt lat="44.5055427" lon="11.4322691"><ele>42.400000000000006</ele><time>2026-04-04T14:51:58.808Z</time></trkpt><trkpt lat="44.505573" lon="11.4321446"><ele>42.2</ele><time>2026-04-04T14:51:59.809Z</time></trkpt><trkpt lat="44.5056023" lon="11.4320269"><ele>42.0</ele><time>2026-04-04T14:52:00.809Z</time></trkpt><trkpt lat="44.505645" lon="11.4319203"><ele>42.0</ele><time>2026-04-04T14:52:01.808Z</time></trkpt><trkpt lat="44.5057031" lon="11.4318397"><ele>42.0</ele><time>2026-04-04T14:52:02.809Z</time></trkpt><trkpt lat="44.505769" lon="11.431766"><ele>42.0</ele><time>2026-04-04T14:52:03.809Z</time></trkpt><trkpt lat="44.5058578" lon="11.4316991"><ele>42.0</ele><time>2026-04-04T14:52:04.808Z</time></trkpt><trkpt lat="44.5059836" lon="11.4316266"><ele>42.0</ele><time>2026-04-04T14:52:05.808Z</time></trkpt><trkpt lat="44.5060976" lon="11.4315812"><ele>42.0</ele><time>2026-04-04T14:52:06.808Z</time></trkpt><trkpt lat="44.5062318" lon="11.431585"><ele>42.0</ele><time>2026-04-04T14:52:07.808Z</time></trkpt><trkpt lat="44.5063801" lon="11.4316279"><ele>42.0</ele><time>2026-04-04T14:52:08.809Z</time></trkpt><trkpt lat="44.5065432" lon="11.431718"><ele>41.666666666666664</ele><time>2026-04-04T14:52:09.808Z</time></trkpt><trkpt lat="44.506721" lon="11.4318282"><ele>41.33333333333333</ele><time>2026-04-04T14:52:10.809Z</time></trkpt><trkpt lat="44.5068934" lon="11.431947"><ele>41.0</ele><time>2026-04-04T14:52:11.809Z</time></trkpt><trkpt lat="44.5070713" lon="11.4320792"><ele>40.5</ele><time>2026-04-04T14:52:12.809Z</time></trkpt><trkpt lat="44.5072683" lon="11.4322288"><ele>40.0</ele><time>2026-04-04T14:52:13.809Z</time></trkpt><trkpt lat="44.5074754" lon="11.4323911"><ele>40.0</ele><time>2026-04-04T14:52:14.809Z</time></trkpt><trkpt lat="44.5076904" lon="11.4325603"><ele>40.0</ele><time>2026-04-04T14:52:15.809Z</time></trkpt><trkpt lat="44.5079222" lon="11.4327311"><ele>40.0</ele><time>2026-04-04T14:52:16.809Z</time></trkpt><trkpt lat="44.5081731" lon="11.4328844"><ele>40.0</ele><time>2026-04-04T14:52:17.809Z</time></trkpt><trkpt lat="44.5084333" lon="11.4330141"><ele>40.0</ele><time>2026-04-04T14:52:18.808Z</time></trkpt><trkpt lat="44.5087065" lon="11.4331279"><ele>40.0</ele><time>2026-04-04T14:52:19.809Z</time></trkpt><trkpt lat="44.5089906" lon="11.4332255"><ele>40.0</ele><time>2026-04-04T14:52:20.808Z</time></trkpt><trkpt lat="44.5092837" lon="11.4333022"><ele>40.0</ele><time>2026-04-04T14:52:21.809Z</time></trkpt><trkpt lat="44.5095761" lon="11.4333625"><ele>38.5</ele><time>2026-04-04T14:52:22.808Z</time></trkpt><trkpt lat="44.5098759" lon="11.4334026"><ele>37.0</ele><time>2026-04-04T14:52:23.807Z</time></trkpt><trkpt lat="44.5101761" lon="11.433419"><ele>36.5</ele><time>2026-04-04T14:52:24.809Z</time></trkpt><trkpt lat="44.5104766" lon="11.433413"><ele>36.0</ele><time>2026-04-04T14:52:25.808Z</time></trkpt><trkpt lat="44.5107798" lon="11.4333883"><ele>36.0</ele><time>2026-04-04T14:52:26.808Z</time></trkpt><trkpt lat="44.5110666" lon="11.4333504"><ele>36.0</ele><time>2026-04-04T14:52:27.807Z</time></trkpt><trkpt lat="44.5113333" lon="11.4333171"><ele>36.5</ele><time>2026-04-04T14:52:28.808Z</time></trkpt><trkpt lat="44.5115852" lon="11.4332897"><ele>37.0</ele><time>2026-04-04T14:52:29.807Z</time></trkpt><trkpt lat="44.5118226" lon="11.4332643"><ele>37.0</ele><time>2026-04-04T14:52:30.809Z</time></trkpt><trkpt lat="44.5120449" lon="11.4332378"><ele>37.0</ele><time>2026-04-04T14:52:31.808Z</time></trkpt><trkpt lat="44.5122542" lon="11.4332121"><ele>37.0</ele><time>2026-04-04T14:52:32.809Z</time></trkpt><trkpt lat="44.5124478" lon="11.4331902"><ele>37.333333333333336</ele><time>2026-04-04T14:52:33.807Z</time></trkpt><trkpt lat="44.512621" lon="11.4331814"><ele>37.666666666666664</ele><time>2026-04-04T14:52:34.808Z</time></trkpt><trkpt lat="44.5127843" lon="11.4332168"><ele>38.0</ele><time>2026-04-04T14:52:35.808Z</time></trkpt><trkpt lat="44.5129221" lon="11.4333016"><ele>38.0</ele><time>2026-04-04T14:52:36.808Z</time></trkpt><trkpt lat="44.513035" lon="11.4334141"><ele>38.0</ele><time>2026-04-04T14:52:37.809Z</time></trkpt><trkpt lat="44.5131517" lon="11.4335073"><ele>38.0</ele><time>2026-04-04T14:52:38.809Z</time></trkpt><trkpt lat="44.5132924" lon="11.4335644"><ele>38.0</ele><time>2026-04-04T14:52:39.809Z</time></trkpt><trkpt lat="44.5134241" lon="11.4335646"><ele>38.0</ele><time>2026-04-04T14:52:40.807Z</time></trkpt><trkpt lat="44.5135466" lon="11.4335071"><ele>38.0</ele><time>2026-04-04T14:52:41.807Z</time></trkpt><trkpt lat="44.5136568" lon="11.4333933"><ele>38.0</ele><time>2026-04-04T14:52:42.808Z</time></trkpt><trkpt lat="44.5137509" lon="11.4332269"><ele>38.0</ele><time>2026-04-04T14:52:43.808Z</time></trkpt><trkpt lat="44.5138327" lon="11.4330353"><ele>37.75</ele><time>2026-04-04T14:52:44.808Z</time></trkpt><trkpt lat="44.5138938" lon="11.4328588"><ele>37.5</ele><time>2026-04-04T14:52:45.809Z</time></trkpt><trkpt lat="44.5139493" lon="11.4326912"><ele>37.25</ele><time>2026-04-04T14:52:46.807Z</time></trkpt><trkpt lat="44.5140294" lon="11.4325612"><ele>37.0</ele><time>2026-04-04T14:52:47.808Z</time></trkpt><trkpt lat="44.5141471" lon="11.4324529"><ele>37.0</ele><time>2026-04-04T14:52:48.807Z</time></trkpt><trkpt lat="44.5142982" lon="11.4323669"><ele>37.0</ele><time>2026-04-04T14:52:49.808Z</time></trkpt><trkpt lat="44.5144779" lon="11.4322914"><ele>37.0</ele><time>2026-04-04T14:52:50.808Z</time></trkpt><trkpt lat="44.5146824" lon="11.4322087"><ele>37.5</ele><time>2026-04-04T14:52:51.808Z</time></trkpt><trkpt lat="44.5149037" lon="11.4321094"><ele>38.0</ele><time>2026-04-04T14:52:52.808Z</time></trkpt><trkpt lat="44.5151333" lon="11.4320024"><ele>38.0</ele><time>2026-04-04T14:52:53.809Z</time></trkpt><trkpt lat="44.5153779" lon="11.4319063"><ele>38.0</ele><time>2026-04-04T14:52:54.808Z</time></trkpt><trkpt lat="44.5156396" lon="11.4318398"><ele>36.5</ele><time>2026-04-04T14:52:55.809Z</time></trkpt><trkpt lat="44.515907" lon="11.4318011"><ele>35.0</ele><time>2026-04-04T14:52:56.809Z</time></trkpt><trkpt lat="44.516184" lon="11.4317937"><ele>36.5</ele><time>2026-04-04T14:52:57.809Z</time></trkpt><trkpt lat="44.5164656" lon="11.4318294"><ele>38.0</ele><time>2026-04-04T14:52:58.808Z</time></trkpt><trkpt lat="44.5167502" lon="11.4318958"><ele>38.0</ele><time>2026-04-04T14:52:59.808Z</time></trkpt><trkpt lat="44.517039" lon="11.4319692"><ele>38.0</ele><time>2026-04-04T14:53:00.809Z</time></trkpt><trkpt lat="44.5173318" lon="11.4320478"><ele>37.5</ele><time>2026-04-04T14:53:01.809Z</time></trkpt><trkpt lat="44.5176194" lon="11.4321322"><ele>37.0</ele><time>2026-04-04T14:53:02.809Z</time></trkpt><trkpt lat="44.5179051" lon="11.4322169"><ele>36.5</ele><time>2026-04-04T14:53:03.809Z</time></trkpt><trkpt lat="44.5181858" lon="11.4322962"><ele>36.0</ele><time>2026-04-04T14:53:04.808Z</time></trkpt><trkpt lat="44.518462" lon="11.4323804"><ele>36.0</ele><time>2026-04-04T14:53:05.809Z</time></trkpt><trkpt lat="44.5187301" lon="11.4324671"><ele>36.0</ele><time>2026-04-04T14:53:06.808Z</time></trkpt><trkpt lat="44.5189923" lon="11.43256"><ele>35.5</ele><time>2026-04-04T14:53:07.809Z</time></trkpt><trkpt lat="44.5192447" lon="11.4326715"><ele>35.0</ele><time>2026-04-04T14:53:08.809Z</time></trkpt><trkpt lat="44.5194856" lon="11.4327987"><ele>35.0</ele><time>2026-04-04T14:53:09.807Z</time></trkpt><trkpt lat="44.5197207" lon="11.4329371"><ele>35.0</ele><time>2026-04-04T14:53:10.809Z</time></trkpt><trkpt lat="44.51995" lon="11.433083"><ele>34.5</ele><time>2026-04-04T14:53:11.808Z</time></trkpt><trkpt lat="44.5201781" lon="11.4332331"><ele>34.0</ele><time>2026-04-04T14:53:12.807Z</time></trkpt><trkpt lat="44.5204039" lon="11.433388"><ele>34.0</ele><time>2026-04-04T14:53:13.809Z</time></trkpt><trkpt lat="44.5206339" lon="11.433545"><ele>34.0</ele><time>2026-04-04T14:53:14.809Z</time></trkpt><trkpt lat="44.5208653" lon="11.433702"><ele>34.0</ele><time>2026-04-04T14:53:15.808Z</time></trkpt><trkpt lat="44.5210962" lon="11.4338582"><ele>34.0</ele><time>2026-04-04T14:53:16.809Z</time></trkpt><trkpt lat="44.5213289" lon="11.4340098"><ele>34.5</ele><time>2026-04-04T14:53:17.808Z</time></trkpt><trkpt lat="44.5215565" lon="11.4341661"><ele>35.0</ele><time>2026-04-04T14:53:18.808Z</time></trkpt><trkpt lat="44.5217884" lon="11.4343186"><ele>35.0</ele><time>2026-04-04T14:53:19.808Z</time></trkpt><trkpt lat="44.5220152" lon="11.4344742"><ele>35.0</ele><time>2026-04-04T14:53:20.809Z</time></trkpt><trkpt lat="44.5222424" lon="11.4346249"><ele>34.0</ele><time>2026-04-04T14:53:21.807Z</time></trkpt><trkpt lat="44.5224685" lon="11.4347719"><ele>33.0</ele><time>2026-04-04T14:53:22.809Z</time></trkpt><trkpt lat="44.5226904" lon="11.4349144"><ele>32.5</ele><time>2026-04-04T14:53:23.809Z</time></trkpt><trkpt lat="44.5229104" lon="11.435064"><ele>32.0</ele><time>2026-04-04T14:53:24.809Z</time></trkpt><trkpt lat="44.5231338" lon="11.4352173"><ele>32.0</ele><time>2026-04-04T14:53:25.809Z</time></trkpt><trkpt lat="44.5233596" lon="11.435374"><ele>32.0</ele><time>2026-04-04T14:53:26.807Z</time></trkpt><trkpt lat="44.5235861" lon="11.4355326"><ele>33.0</ele><time>2026-04-04T14:53:27.806Z</time></trkpt><trkpt lat="44.5238074" lon="11.4356931"><ele>34.0</ele><time>2026-04-04T14:53:28.807Z</time></trkpt><trkpt lat="44.5240245" lon="11.4358497"><ele>34.0</ele><time>2026-04-04T14:53:29.807Z</time></trkpt><trkpt lat="44.5242414" lon="11.4359975"><ele>34.0</ele><time>2026-04-04T14:53:30.808Z</time></trkpt><trkpt lat="44.5244553" lon="11.4361446"><ele>34.0</ele><time>2026-04-04T14:53:31.808Z</time></trkpt><trkpt lat="44.5246691" lon="11.4362935"><ele>34.0</ele><time>2026-04-04T14:53:32.807Z</time></trkpt><trkpt lat="44.5248835" lon="11.436443"><ele>34.0</ele><time>2026-04-04T14:53:33.808Z</time></trkpt><trkpt lat="44.5250984" lon="11.4365925"><ele>34.0</ele><time>2026-04-04T14:53:34.808Z</time></trkpt><trkpt lat="44.5253158" lon="11.4367364"><ele>34.0</ele><time>2026-04-04T14:53:35.807Z</time></trkpt><trkpt lat="44.5255308" lon="11.436883"><ele>34.0</ele><time>2026-04-04T14:53:36.807Z</time></trkpt><trkpt lat="44.5257496" lon="11.4370271"><ele>33.5</ele><time>2026-04-04T14:53:37.808Z</time></trkpt><trkpt lat="44.5259657" lon="11.4371768"><ele>33.0</ele><time>2026-04-04T14:53:38.808Z</time></trkpt><trkpt lat="44.526187" lon="11.4373323"><ele>33.0</ele><time>2026-04-04T14:53:39.807Z</time></trkpt><trkpt lat="44.5264063" lon="11.4374821"><ele>33.0</ele><time>2026-04-04T14:53:40.808Z</time></trkpt><trkpt lat="44.5266294" lon="11.4376316"><ele>33.0</ele><time>2026-04-04T14:53:41.807Z</time></trkpt><trkpt lat="44.5268494" lon="11.4377828"><ele>33.0</ele><time>2026-04-04T14:53:42.808Z</time></trkpt><trkpt lat="44.5270701" lon="11.4379342"><ele>32.5</ele><time>2026-04-04T14:53:43.808Z</time></trkpt><trkpt lat="44.5272886" lon="11.4380848"><ele>32.0</ele><time>2026-04-04T14:53:44.807Z</time></trkpt><trkpt lat="44.527509" lon="11.4382377"><ele>32.0</ele><time>2026-04-04T14:53:45.808Z</time></trkpt><trkpt lat="44.5277266" lon="11.4383815"><ele>32.0</ele><time>2026-04-04T14:53:46.807Z</time></trkpt><trkpt lat="44.5279435" lon="11.4385205"><ele>32.5</ele><time>2026-04-04T14:53:47.808Z</time></trkpt><trkpt lat="44.5281626" lon="11.4386533"><ele>33.0</ele><time>2026-04-04T14:53:48.808Z</time></trkpt><trkpt lat="44.5283841" lon="11.438776"><ele>32.5</ele><time>2026-04-04T14:53:49.808Z</time></trkpt><trkpt lat="44.5286066" lon="11.4388905"><ele>32.0</ele><time>2026-04-04T14:53:50.807Z</time></trkpt><trkpt lat="44.5288288" lon="11.4389926"><ele>32.0</ele><time>2026-04-04T14:53:51.807Z</time></trkpt><trkpt lat="44.529053" lon="11.4390871"><ele>32.0</ele><time>2026-04-04T14:53:52.808Z</time></trkpt><trkpt lat="44.5292756" lon="11.4391829"><ele>32.0</ele><time>2026-04-04T14:53:53.806Z</time></trkpt><trkpt lat="44.5294948" lon="11.4392749"><ele>32.0</ele><time>2026-04-04T14:53:54.807Z</time></trkpt><trkpt lat="44.5297144" lon="11.4393657"><ele>32.0</ele><time>2026-04-04T14:53:55.807Z</time></trkpt><trkpt lat="44.5299299" lon="11.439462"><ele>32.0</ele><time>2026-04-04T14:53:56.808Z</time></trkpt><trkpt lat="44.5301436" lon="11.4395547"><ele>32.0</ele><time>2026-04-04T14:53:57.808Z</time></trkpt><trkpt lat="44.5303583" lon="11.4396486"><ele>32.0</ele><time>2026-04-04T14:53:58.808Z</time></trkpt><trkpt lat="44.5305747" lon="11.4397401"><ele>32.0</ele><time>2026-04-04T14:53:59.808Z</time></trkpt><trkpt lat="44.5307907" lon="11.4398327"><ele>32.0</ele><time>2026-04-04T14:54:00.808Z</time></trkpt><trkpt lat="44.5310099" lon="11.4399229"><ele>32.33333333333333</ele><time>2026-04-04T14:54:01.806Z</time></trkpt><trkpt lat="44.5312254" lon="11.4400107"><ele>32.666666666666664</ele><time>2026-04-04T14:54:02.808Z</time></trkpt><trkpt lat="44.5314407" lon="11.4401004"><ele>33.0</ele><time>2026-04-04T14:54:03.809Z</time></trkpt><trkpt lat="44.5316537" lon="11.4401924"><ele>33.0</ele><time>2026-04-04T14:54:04.807Z</time></trkpt><trkpt lat="44.5318637" lon="11.4402845"><ele>33.0</ele><time>2026-04-04T14:54:05.809Z</time></trkpt><trkpt lat="44.5320756" lon="11.4403802"><ele>33.0</ele><time>2026-04-04T14:54:06.808Z</time></trkpt><trkpt lat="44.5322862" lon="11.4404752"><ele>32.5</ele><time>2026-04-04T14:54:07.808Z</time></trkpt><trkpt lat="44.5324991" lon="11.440576"><ele>32.0</ele><time>2026-04-04T14:54:08.807Z</time></trkpt><trkpt lat="44.5327129" lon="11.4406831"><ele>31.0</ele><time>2026-04-04T14:54:09.808Z</time></trkpt><trkpt lat="44.5329254" lon="11.4407959"><ele>30.0</ele><time>2026-04-04T14:54:10.808Z</time></trkpt><trkpt lat="44.533145" lon="11.440915"><ele>30.0</ele><time>2026-04-04T14:54:11.808Z</time></trkpt><trkpt lat="44.5333723" lon="11.4410411"><ele>30.0</ele><time>2026-04-04T14:54:12.808Z</time></trkpt><trkpt lat="44.533597" lon="11.4411801"><ele>29.5</ele><time>2026-04-04T14:54:13.808Z</time></trkpt><trkpt lat="44.5338196" lon="11.441342"><ele>29.0</ele><time>2026-04-04T14:54:14.807Z</time></trkpt><trkpt lat="44.5340404" lon="11.4415117"><ele>29.0</ele><time>2026-04-04T14:54:15.807Z</time></trkpt><trkpt lat="44.5342555" lon="11.4416811"><ele>29.0</ele><time>2026-04-04T14:54:16.808Z</time></trkpt><trkpt lat="44.5344667" lon="11.4418479"><ele>29.5</ele><time>2026-04-04T14:54:17.807Z</time></trkpt><trkpt lat="44.5346693" lon="11.442013"><ele>30.0</ele><time>2026-04-04T14:54:18.807Z</time></trkpt><trkpt lat="44.5348672" lon="11.4421763"><ele>30.0</ele><time>2026-04-04T14:54:19.806Z</time></trkpt><trkpt lat="44.5350582" lon="11.4423389"><ele>30.0</ele><time>2026-04-04T14:54:20.806Z</time></trkpt><trkpt lat="44.5352418" lon="11.4425"><ele>30.0</ele><time>2026-04-04T14:54:21.808Z</time></trkpt><trkpt lat="44.535424" lon="11.4426593"><ele>30.0</ele><time>2026-04-04T14:54:22.807Z</time></trkpt><trkpt lat="44.5356035" lon="11.4428161"><ele>30.0</ele><time>2026-04-04T14:54:23.807Z</time></trkpt><trkpt lat="44.5357826" lon="11.4429735"><ele>30.0</ele><time>2026-04-04T14:54:24.808Z</time></trkpt><trkpt lat="44.5359615" lon="11.4431323"><ele>30.0</ele><time>2026-04-04T14:54:25.807Z</time></trkpt><trkpt lat="44.5361346" lon="11.4433016"><ele>30.0</ele><time>2026-04-04T14:54:26.807Z</time></trkpt><trkpt lat="44.5363076" lon="11.4434816"><ele>30.0</ele><time>2026-04-04T14:54:27.807Z</time></trkpt><trkpt lat="44.5364753" lon="11.4436677"><ele>30.0</ele><time>2026-04-04T14:54:28.808Z</time></trkpt><trkpt lat="44.5366326" lon="11.4438557"><ele>30.0</ele><time>2026-04-04T14:54:29.808Z</time></trkpt><trkpt lat="44.536782" lon="11.4440512"><ele>30.0</ele><time>2026-04-04T14:54:30.807Z</time></trkpt><trkpt lat="44.536926" lon="11.4442433"><ele>29.666666666666664</ele><time>2026-04-04T14:54:31.808Z</time></trkpt><trkpt lat="44.5370681" lon="11.4444298"><ele>29.333333333333332</ele><time>2026-04-04T14:54:32.808Z</time></trkpt><trkpt lat="44.5372076" lon="11.4446093"><ele>29.0</ele><time>2026-04-04T14:54:33.808Z</time></trkpt><trkpt lat="44.5373453" lon="11.4447786"><ele>29.0</ele><time>2026-04-04T14:54:34.807Z</time></trkpt><trkpt lat="44.5374847" lon="11.4449408"><ele>29.0</ele><time>2026-04-04T14:54:35.808Z</time></trkpt><trkpt lat="44.5376395" lon="11.4451063"><ele>29.0</ele><time>2026-04-04T14:54:36.808Z</time></trkpt><trkpt lat="44.537809" lon="11.4452754"><ele>29.0</ele><time>2026-04-04T14:54:37.808Z</time></trkpt><trkpt lat="44.5379893" lon="11.4454503"><ele>29.0</ele><time>2026-04-04T14:54:38.807Z</time></trkpt><trkpt lat="44.5381762" lon="11.4456217"><ele>29.0</ele><time>2026-04-04T14:54:39.808Z</time></trkpt><trkpt lat="44.5383627" lon="11.4457937"><ele>29.333333333333332</ele><time>2026-04-04T14:54:40.808Z</time></trkpt><trkpt lat="44.5385452" lon="11.4459526"><ele>29.666666666666664</ele><time>2026-04-04T14:54:41.808Z</time></trkpt><trkpt lat="44.5387276" lon="11.4461142"><ele>30.0</ele><time>2026-04-04T14:54:42.808Z</time></trkpt><trkpt lat="44.5389221" lon="11.4462827"><ele>30.0</ele><time>2026-04-04T14:54:43.807Z</time></trkpt><trkpt lat="44.5391251" lon="11.4464507"><ele>30.0</ele><time>2026-04-04T14:54:44.807Z</time></trkpt><trkpt lat="44.5393331" lon="11.4466239"><ele>30.0</ele><time>2026-04-04T14:54:45.807Z</time></trkpt><trkpt lat="44.5395433" lon="11.4468144"><ele>30.0</ele><time>2026-04-04T14:54:46.807Z</time></trkpt><trkpt lat="44.5397584" lon="11.4470112"><ele>29.5</ele><time>2026-04-04T14:54:47.808Z</time></trkpt><trkpt lat="44.5399756" lon="11.4472117"><ele>29.0</ele><time>2026-04-04T14:54:48.808Z</time></trkpt><trkpt lat="44.5401994" lon="11.4474138"><ele>29.0</ele><time>2026-04-04T14:54:49.808Z</time></trkpt><trkpt lat="44.5404233" lon="11.4476157"><ele>29.0</ele><time>2026-04-04T14:54:50.808Z</time></trkpt><trkpt lat="44.540645" lon="11.4478302"><ele>28.5</ele><time>2026-04-04T14:54:51.807Z</time></trkpt><trkpt lat="44.5408514" lon="11.4480659"><ele>28.0</ele><time>2026-04-04T14:54:52.808Z</time></trkpt><trkpt lat="44.5410505" lon="11.4483174"><ele>28.5</ele><time>2026-04-04T14:54:53.808Z</time></trkpt><trkpt lat="44.5412405" lon="11.4485914"><ele>29.0</ele><time>2026-04-04T14:54:54.806Z</time></trkpt><trkpt lat="44.5414222" lon="11.4488823"><ele>29.0</ele><time>2026-04-04T14:54:55.806Z</time></trkpt><trkpt lat="44.5415935" lon="11.449182"><ele>29.0</ele><time>2026-04-04T14:54:56.808Z</time></trkpt><trkpt lat="44.541747" lon="11.4494956"><ele>29.0</ele><time>2026-04-04T14:54:57.807Z</time></trkpt><trkpt lat="44.5418868" lon="11.4498216"><ele>29.0</ele><time>2026-04-04T14:54:58.807Z</time></trkpt><trkpt lat="44.5420163" lon="11.4501541"><ele>29.0</ele><time>2026-04-04T14:54:59.806Z</time></trkpt><trkpt lat="44.5421392" lon="11.4504881"><ele>29.0</ele><time>2026-04-04T14:55:00.808Z</time></trkpt><trkpt lat="44.5422623" lon="11.450822"><ele>29.0</ele><time>2026-04-04T14:55:01.806Z</time></trkpt><trkpt lat="44.5423892" lon="11.4511577"><ele>29.0</ele><time>2026-04-04T14:55:02.808Z</time></trkpt><trkpt lat="44.5425147" lon="11.4514973"><ele>28.5</ele><time>2026-04-04T14:55:03.808Z</time></trkpt><trkpt lat="44.542638" lon="11.4518351"><ele>28.0</ele><time>2026-04-04T14:55:04.807Z</time></trkpt><trkpt lat="44.5427625" lon="11.4521743"><ele>28.0</ele><time>2026-04-04T14:55:05.806Z</time></trkpt><trkpt lat="44.5428844" lon="11.4525095"><ele>28.0</ele><time>2026-04-04T14:55:06.808Z</time></trkpt><trkpt lat="44.5430083" lon="11.4528471"><ele>28.0</ele><time>2026-04-04T14:55:07.807Z</time></trkpt><trkpt lat="44.5431346" lon="11.4531786"><ele>28.0</ele><time>2026-04-04T14:55:08.807Z</time></trkpt><trkpt lat="44.5432664" lon="11.4535088"><ele>27.5</ele><time>2026-04-04T14:55:09.807Z</time></trkpt><trkpt lat="44.5434063" lon="11.4538311"><ele>27.0</ele><time>2026-04-04T14:55:10.808Z</time></trkpt><trkpt lat="44.5435622" lon="11.4541446"><ele>27.0</ele><time>2026-04-04T14:55:11.807Z</time></trkpt><trkpt lat="44.5437324" lon="11.4544416"><ele>27.0</ele><time>2026-04-04T14:55:12.808Z</time></trkpt><trkpt lat="44.5439143" lon="11.4547211"><ele>27.0</ele><time>2026-04-04T14:55:13.807Z</time></trkpt><trkpt lat="44.5441101" lon="11.4549838"><ele>27.0</ele><time>2026-04-04T14:55:14.806Z</time></trkpt><trkpt lat="44.5443152" lon="11.4552331"><ele>26.5</ele><time>2026-04-04T14:55:15.808Z</time></trkpt><trkpt lat="44.5445304" lon="11.4554641"><ele>26.0</ele><time>2026-04-04T14:55:16.807Z</time></trkpt><trkpt lat="44.5447534" lon="11.4556796"><ele>26.0</ele><time>2026-04-04T14:55:17.806Z</time></trkpt><trkpt lat="44.5449877" lon="11.4558737"><ele>26.0</ele><time>2026-04-04T14:55:18.807Z</time></trkpt><trkpt lat="44.5452312" lon="11.4560483"><ele>26.0</ele><time>2026-04-04T14:55:19.807Z</time></trkpt><trkpt lat="44.5454819" lon="11.4561986"><ele>26.0</ele><time>2026-04-04T14:55:20.808Z</time></trkpt><trkpt lat="44.5457389" lon="11.4563303"><ele>26.0</ele><time>2026-04-04T14:55:21.808Z</time></trkpt><trkpt lat="44.5459981" lon="11.4564457"><ele>26.0</ele><time>2026-04-04T14:55:22.808Z</time></trkpt><trkpt lat="44.5462587" lon="11.4565503"><ele>26.5</ele><time>2026-04-04T14:55:23.806Z</time></trkpt><trkpt lat="44.546517" lon="11.4566628"><ele>27.0</ele><time>2026-04-04T14:55:24.807Z</time></trkpt><trkpt lat="44.5467707" lon="11.4567909"><ele>27.0</ele><time>2026-04-04T14:55:25.808Z</time></trkpt><trkpt lat="44.547018" lon="11.4569373"><ele>27.0</ele><time>2026-04-04T14:55:26.807Z</time></trkpt><trkpt lat="44.5472633" lon="11.4570879"><ele>27.0</ele><time>2026-04-04T14:55:27.808Z</time></trkpt><trkpt lat="44.5475068" lon="11.4572445"><ele>27.0</ele><time>2026-04-04T14:55:28.808Z</time></trkpt><trkpt lat="44.5477479" lon="11.4574001"><ele>26.0</ele><time>2026-04-04T14:55:29.807Z</time></trkpt><trkpt lat="44.547992" lon="11.4575561"><ele>25.0</ele><time>2026-04-04T14:55:30.808Z</time></trkpt><trkpt lat="44.5482381" lon="11.4577178"><ele>25.0</ele><time>2026-04-04T14:55:31.807Z</time></trkpt><trkpt lat="44.5484932" lon="11.4578765"><ele>25.0</ele><time>2026-04-04T14:55:32.808Z</time></trkpt><trkpt lat="44.5487557" lon="11.4580446"><ele>24.5</ele><time>2026-04-04T14:55:33.808Z</time></trkpt><trkpt lat="44.5490252" lon="11.4582086"><ele>24.0</ele><time>2026-04-04T14:55:34.808Z</time></trkpt><trkpt lat="44.5492819" lon="11.4583762"><ele>24.0</ele><time>2026-04-04T14:55:35.808Z</time></trkpt><trkpt lat="44.5495408" lon="11.4585486"><ele>24.0</ele><time>2026-04-04T14:55:36.808Z</time></trkpt><trkpt lat="44.5498062" lon="11.4587216"><ele>23.5</ele><time>2026-04-04T14:55:37.808Z</time></trkpt><trkpt lat="44.5500765" lon="11.458899"><ele>23.0</ele><time>2026-04-04T14:55:38.808Z</time></trkpt><trkpt lat="44.5503435" lon="11.4590825"><ele>24.0</ele><time>2026-04-04T14:55:39.807Z</time></trkpt><trkpt lat="44.5506104" lon="11.4592603"><ele>25.0</ele><time>2026-04-04T14:55:40.807Z</time></trkpt><trkpt lat="44.5508818" lon="11.4594232"><ele>25.0</ele><time>2026-04-04T14:55:41.807Z</time></trkpt><trkpt lat="44.5511575" lon="11.4595629"><ele>25.0</ele><time>2026-04-04T14:55:42.808Z</time></trkpt><trkpt lat="44.551439" lon="11.4596771"><ele>25.0</ele><time>2026-04-04T14:55:43.808Z</time></trkpt><trkpt lat="44.5517245" lon="11.4597632"><ele>25.0</ele><time>2026-04-04T14:55:44.807Z</time></trkpt><trkpt lat="44.5520125" lon="11.4598225"><ele>25.0</ele><time>2026-04-04T14:55:45.807Z</time></trkpt><trkpt lat="44.5523008" lon="11.4598574"><ele>25.0</ele><time>2026-04-04T14:55:46.807Z</time></trkpt><trkpt lat="44.552587" lon="11.4598682"><ele>25.0</ele><time>2026-04-04T14:55:47.807Z</time></trkpt><trkpt lat="44.5528708" lon="11.4598501"><ele>25.0</ele><time>2026-04-04T14:55:48.808Z</time></trkpt><trkpt lat="44.5531527" lon="11.4598077"><ele>25.0</ele><time>2026-04-04T14:55:49.808Z</time></trkpt><trkpt lat="44.5534366" lon="11.4597521"><ele>25.0</ele><time>2026-04-04T14:55:50.807Z</time></trkpt><trkpt lat="44.5537219" lon="11.4596898"><ele>25.0</ele><time>2026-04-04T14:55:51.807Z</time></trkpt><trkpt lat="44.5540079" lon="11.4596246"><ele>25.0</ele><time>2026-04-04T14:55:52.808Z</time></trkpt><trkpt lat="44.5542911" lon="11.4595672"><ele>24.5</ele><time>2026-04-04T14:55:53.808Z</time></trkpt><trkpt lat="44.5545737" lon="11.4595071"><ele>24.0</ele><time>2026-04-04T14:55:54.807Z</time></trkpt><trkpt lat="44.5548565" lon="11.4594435"><ele>24.0</ele><time>2026-04-04T14:55:55.807Z</time></trkpt><trkpt lat="44.555139" lon="11.459378"><ele>24.0</ele><time>2026-04-04T14:55:56.808Z</time></trkpt><trkpt lat="44.5554227" lon="11.4593085"><ele>24.0</ele><time>2026-04-04T14:55:57.808Z</time></trkpt><trkpt lat="44.5557041" lon="11.4592312"><ele>24.0</ele><time>2026-04-04T14:55:58.808Z</time></trkpt><trkpt lat="44.5559821" lon="11.4591307"><ele>23.5</ele><time>2026-04-04T14:55:59.808Z</time></trkpt><trkpt lat="44.5562549" lon="11.4590026"><ele>23.0</ele><time>2026-04-04T14:56:00.808Z</time></trkpt><trkpt lat="44.5565189" lon="11.4588492"><ele>23.5</ele><time>2026-04-04T14:56:01.808Z</time></trkpt><trkpt lat="44.5567742" lon="11.4586688"><ele>24.0</ele><time>2026-04-04T14:56:02.807Z</time></trkpt><trkpt lat="44.5570245" lon="11.4584789"><ele>22.5</ele><time>2026-04-04T14:56:03.807Z</time></trkpt><trkpt lat="44.5572678" lon="11.4582707"><ele>21.0</ele><time>2026-04-04T14:56:04.808Z</time></trkpt><trkpt lat="44.557509" lon="11.4580572"><ele>21.5</ele><time>2026-04-04T14:56:05.808Z</time></trkpt><trkpt lat="44.5577511" lon="11.4578426"><ele>22.0</ele><time>2026-04-04T14:56:06.807Z</time></trkpt><trkpt lat="44.5579939" lon="11.4576352"><ele>22.0</ele><time>2026-04-04T14:56:07.808Z</time></trkpt><trkpt lat="44.5582345" lon="11.457424"><ele>22.0</ele><time>2026-04-04T14:56:08.807Z</time></trkpt><trkpt lat="44.5584711" lon="11.4572132"><ele>22.0</ele><time>2026-04-04T14:56:09.808Z</time></trkpt><trkpt lat="44.5587124" lon="11.4570073"><ele>22.0</ele><time>2026-04-04T14:56:10.807Z</time></trkpt><trkpt lat="44.5589604" lon="11.45683"><ele>22.0</ele><time>2026-04-04T14:56:11.807Z</time></trkpt><trkpt lat="44.5592175" lon="11.4566838"><ele>22.0</ele><time>2026-04-04T14:56:12.806Z</time></trkpt><trkpt lat="44.5594836" lon="11.4565691"><ele>21.0</ele><time>2026-04-04T14:56:13.807Z</time></trkpt><trkpt lat="44.5597511" lon="11.4564881"><ele>20.0</ele><time>2026-04-04T14:56:14.807Z</time></trkpt><trkpt lat="44.5600211" lon="11.4564434"><ele>20.0</ele><time>2026-04-04T14:56:15.807Z</time></trkpt><trkpt lat="44.560292" lon="11.4564354"><ele>20.0</ele><time>2026-04-04T14:56:16.807Z</time></trkpt><trkpt lat="44.5605622" lon="11.4564727"><ele>20.5</ele><time>2026-04-04T14:56:17.807Z</time></trkpt><trkpt lat="44.5608337" lon="11.4565232"><ele>21.0</ele><time>2026-04-04T14:56:18.806Z</time></trkpt><trkpt lat="44.5611116" lon="11.4565727"><ele>21.0</ele><time>2026-04-04T14:56:19.806Z</time></trkpt><trkpt lat="44.5613919" lon="11.456628"><ele>21.0</ele><time>2026-04-04T14:56:20.807Z</time></trkpt><trkpt lat="44.5616743" lon="11.4566843"><ele>21.0</ele><time>2026-04-04T14:56:21.807Z</time></trkpt><trkpt lat="44.561961" lon="11.4567423"><ele>21.0</ele><time>2026-04-04T14:56:22.806Z</time></trkpt><trkpt lat="44.5622442" lon="11.4567971"><ele>20.0</ele><time>2026-04-04T14:56:23.807Z</time></trkpt><trkpt lat="44.5625194" lon="11.4568556"><ele>19.0</ele><time>2026-04-04T14:56:24.806Z</time></trkpt><trkpt lat="44.5627803" lon="11.4569134"><ele>19.5</ele><time>2026-04-04T14:56:25.806Z</time></trkpt><trkpt lat="44.5630355" lon="11.4569578"><ele>20.0</ele><time>2026-04-04T14:56:26.806Z</time></trkpt><trkpt lat="44.5632834" lon="11.4569699"><ele>20.0</ele><time>2026-04-04T14:56:27.805Z</time></trkpt><trkpt lat="44.5635274" lon="11.4569372"><ele>20.0</ele><time>2026-04-04T14:56:28.807Z</time></trkpt><trkpt lat="44.5637729" lon="11.4568569"><ele>18.5</ele><time>2026-04-04T14:56:29.806Z</time></trkpt><trkpt lat="44.5640167" lon="11.456734"><ele>17.0</ele><time>2026-04-04T14:56:30.807Z</time></trkpt><trkpt lat="44.5642477" lon="11.4565785"><ele>17.0</ele><time>2026-04-04T14:56:31.807Z</time></trkpt><trkpt lat="44.5644651" lon="11.4564172"><ele>17.0</ele><time>2026-04-04T14:56:32.806Z</time></trkpt><trkpt lat="44.5646784" lon="11.4562871"><ele>17.666666666666668</ele><time>2026-04-04T14:56:33.807Z</time></trkpt><trkpt lat="44.5648793" lon="11.4562164"><ele>18.333333333333332</ele><time>2026-04-04T14:56:34.807Z</time></trkpt><trkpt lat="44.5650698" lon="11.456166"><ele>19.0</ele><time>2026-04-04T14:56:35.806Z</time></trkpt><trkpt lat="44.5652481" lon="11.4561364"><ele>19.0</ele><time>2026-04-04T14:56:36.807Z</time></trkpt><trkpt lat="44.5654182" lon="11.4561274"><ele>19.0</ele><time>2026-04-04T14:56:37.807Z</time></trkpt><trkpt lat="44.5655773" lon="11.4561226"><ele>19.0</ele><time>2026-04-04T14:56:38.807Z</time></trkpt><trkpt lat="44.5657269" lon="11.4561239"><ele>19.0</ele><time>2026-04-04T14:56:39.807Z</time></trkpt><trkpt lat="44.5658823" lon="11.4561364"><ele>19.0</ele><time>2026-04-04T14:56:40.807Z</time></trkpt><trkpt lat="44.5660476" lon="11.4561797"><ele>19.0</ele><time>2026-04-04T14:56:41.806Z</time></trkpt><trkpt lat="44.5662159" lon="11.4562695"><ele>19.333333333333332</ele><time>2026-04-04T14:56:42.807Z</time></trkpt><trkpt lat="44.566389" lon="11.4563901"><ele>19.666666666666668</ele><time>2026-04-04T14:56:43.807Z</time></trkpt><trkpt lat="44.5665715" lon="11.4565231"><ele>20.0</ele><time>2026-04-04T14:56:44.807Z</time></trkpt><trkpt lat="44.5667677" lon="11.4566615"><ele>20.0</ele><time>2026-04-04T14:56:45.806Z</time></trkpt><trkpt lat="44.566972" lon="11.4568084"><ele>20.0</ele><time>2026-04-04T14:56:46.807Z</time></trkpt><trkpt lat="44.5671839" lon="11.4569629"><ele>20.0</ele><time>2026-04-04T14:56:47.807Z</time></trkpt><trkpt lat="44.5674049" lon="11.4571114"><ele>20.0</ele><time>2026-04-04T14:56:48.807Z</time></trkpt><trkpt lat="44.5676329" lon="11.4572551"><ele>20.0</ele><time>2026-04-04T14:56:49.806Z</time></trkpt><trkpt lat="44.5678587" lon="11.4574054"><ele>20.0</ele><time>2026-04-04T14:56:50.806Z</time></trkpt><trkpt lat="44.5680886" lon="11.4575211"><ele>20.0</ele><time>2026-04-04T14:56:51.806Z</time></trkpt><trkpt lat="44.5683182" lon="11.4576297"><ele>20.0</ele><time>2026-04-04T14:56:52.806Z</time></trkpt><trkpt lat="44.568547" lon="11.4577294"><ele>20.5</ele><time>2026-04-04T14:56:53.806Z</time></trkpt><trkpt lat="44.5687695" lon="11.4578344"><ele>21.0</ele><time>2026-04-04T14:56:54.807Z</time></trkpt><trkpt lat="44.5689944" lon="11.457944"><ele>21.0</ele><time>2026-04-04T14:56:55.807Z</time></trkpt><trkpt lat="44.5692175" lon="11.4580693"><ele>21.0</ele><time>2026-04-04T14:56:56.807Z</time></trkpt><trkpt lat="44.5694358" lon="11.4582052"><ele>20.0</ele><time>2026-04-04T14:56:57.806Z</time></trkpt><trkpt lat="44.5696523" lon="11.458347"><ele>19.0</ele><time>2026-04-04T14:56:58.806Z</time></trkpt><trkpt lat="44.5698695" lon="11.4584892"><ele>19.0</ele><time>2026-04-04T14:56:59.807Z</time></trkpt><trkpt lat="44.5700848" lon="11.4586312"><ele>19.0</ele><time>2026-04-04T14:57:00.806Z</time></trkpt><trkpt lat="44.570304" lon="11.4587779"><ele>19.0</ele><time>2026-04-04T14:57:01.806Z</time></trkpt><trkpt lat="44.5705274" lon="11.4589266"><ele>19.0</ele><time>2026-04-04T14:57:02.805Z</time></trkpt><trkpt lat="44.5707469" lon="11.459067"><ele>19.0</ele><time>2026-04-04T14:57:03.805Z</time></trkpt><trkpt lat="44.5709506" lon="11.4592024"><ele>19.0</ele><time>2026-04-04T14:57:04.807Z</time></trkpt><trkpt lat="44.5711492" lon="11.4593258"><ele>19.0</ele><time>2026-04-04T14:57:05.806Z</time></trkpt><trkpt lat="44.5713531" lon="11.4594225"><ele>18.666666666666664</ele><time>2026-04-04T14:57:06.806Z</time></trkpt><trkpt lat="44.5715681" lon="11.4594802"><ele>18.333333333333332</ele><time>2026-04-04T14:57:07.807Z</time></trkpt><trkpt lat="44.5717861" lon="11.4594996"><ele>18.0</ele><time>2026-04-04T14:57:08.807Z</time></trkpt><trkpt lat="44.5719913" lon="11.4594763"><ele>17.666666666666668</ele><time>2026-04-04T14:57:09.806Z</time></trkpt><trkpt lat="44.572182" lon="11.4594201"><ele>17.333333333333336</ele><time>2026-04-04T14:57:10.806Z</time></trkpt><trkpt lat="44.5723604" lon="11.4593433"><ele>17.0</ele><time>2026-04-04T14:57:11.807Z</time></trkpt><trkpt lat="44.5725154" lon="11.4592383"><ele>17.0</ele><time>2026-04-04T14:57:12.807Z</time></trkpt><trkpt lat="44.5726655" lon="11.4591049"><ele>17.0</ele><time>2026-04-04T14:57:13.807Z</time></trkpt><trkpt lat="44.572812" lon="11.4589309"><ele>17.0</ele><time>2026-04-04T14:57:14.806Z</time></trkpt><trkpt lat="44.5729494" lon="11.4587148"><ele>17.0</ele><time>2026-04-04T14:57:15.807Z</time></trkpt><trkpt lat="44.5731003" lon="11.4584904"><ele>17.0</ele><time>2026-04-04T14:57:16.807Z</time></trkpt><trkpt lat="44.5732665" lon="11.4582663"><ele>17.0</ele><time>2026-04-04T14:57:17.806Z</time></trkpt><trkpt lat="44.5734442" lon="11.4580394"><ele>17.0</ele><time>2026-04-04T14:57:18.807Z</time></trkpt><trkpt lat="44.573613" lon="11.4578118"><ele>17.0</ele><time>2026-04-04T14:57:19.807Z</time></trkpt><trkpt lat="44.5737752" lon="11.4575969"><ele>17.0</ele><time>2026-04-04T14:57:20.806Z</time></trkpt><trkpt lat="44.5739504" lon="11.457405"><ele>17.0</ele><time>2026-04-04T14:57:21.807Z</time></trkpt><trkpt lat="44.5741421" lon="11.457251"><ele>17.0</ele><time>2026-04-04T14:57:22.807Z</time></trkpt><trkpt lat="44.5743471" lon="11.4571354"><ele>17.0</ele><time>2026-04-04T14:57:23.806Z</time></trkpt><trkpt lat="44.5745553" lon="11.4570622"><ele>17.0</ele><time>2026-04-04T14:57:24.807Z</time></trkpt><trkpt lat="44.574769" lon="11.4570242"><ele>17.5</ele><time>2026-04-04T14:57:25.807Z</time></trkpt><trkpt lat="44.5749903" lon="11.4570301"><ele>18.0</ele><time>2026-04-04T14:57:26.807Z</time></trkpt><trkpt lat="44.5752169" lon="11.4570794"><ele>18.0</ele><time>2026-04-04T14:57:27.807Z</time></trkpt><trkpt lat="44.5754446" lon="11.4571775"><ele>18.0</ele><time>2026-04-04T14:57:28.807Z</time></trkpt><trkpt lat="44.5756738" lon="11.457304"><ele>18.0</ele><time>2026-04-04T14:57:29.806Z</time></trkpt><trkpt lat="44.5759124" lon="11.4574367"><ele>18.0</ele><time>2026-04-04T14:57:30.806Z</time></trkpt><trkpt lat="44.5761586" lon="11.457567"><ele>18.0</ele><time>2026-04-04T14:57:31.806Z</time></trkpt><trkpt lat="44.5764135" lon="11.4576995"><ele>18.0</ele><time>2026-04-04T14:57:32.806Z</time></trkpt><trkpt lat="44.5766734" lon="11.4578386"><ele>17.5</ele><time>2026-04-04T14:57:33.806Z</time></trkpt><trkpt lat="44.5769404" lon="11.4579814"><ele>17.0</ele><time>2026-04-04T14:57:34.806Z</time></trkpt><trkpt lat="44.5772142" lon="11.4581264"><ele>17.0</ele><time>2026-04-04T14:57:35.806Z</time></trkpt><trkpt lat="44.5774924" lon="11.4582718"><ele>17.0</ele><time>2026-04-04T14:57:36.807Z</time></trkpt><trkpt lat="44.5777761" lon="11.4584169"><ele>17.5</ele><time>2026-04-04T14:57:37.807Z</time></trkpt><trkpt lat="44.5780595" lon="11.458573"><ele>18.0</ele><time>2026-04-04T14:57:38.805Z</time></trkpt><trkpt lat="44.5783418" lon="11.458742"><ele>18.5</ele><time>2026-04-04T14:57:39.806Z</time></trkpt><trkpt lat="44.5786296" lon="11.4589058"><ele>19.0</ele><time>2026-04-04T14:57:40.807Z</time></trkpt><trkpt lat="44.5789172" lon="11.4590609"><ele>20.5</ele><time>2026-04-04T14:57:41.807Z</time></trkpt><trkpt lat="44.5792006" lon="11.4592128"><ele>22.0</ele><time>2026-04-04T14:57:42.806Z</time></trkpt><trkpt lat="44.5794742" lon="11.4593598"><ele>20.5</ele><time>2026-04-04T14:57:43.806Z</time></trkpt><trkpt lat="44.5797389" lon="11.459509"><ele>19.0</ele><time>2026-04-04T14:57:44.807Z</time></trkpt><trkpt lat="44.5799922" lon="11.4596632"><ele>19.0</ele><time>2026-04-04T14:57:45.807Z</time></trkpt><trkpt lat="44.5802439" lon="11.4598221"><ele>19.0</ele><time>2026-04-04T14:57:46.806Z</time></trkpt><trkpt lat="44.5804964" lon="11.4599867"><ele>18.5</ele><time>2026-04-04T14:57:47.806Z</time></trkpt><trkpt lat="44.5807407" lon="11.4601457"><ele>18.0</ele><time>2026-04-04T14:57:48.806Z</time></trkpt><trkpt lat="44.5809716" lon="11.4603079"><ele>18.5</ele><time>2026-04-04T14:57:49.807Z</time></trkpt><trkpt lat="44.5811927" lon="11.46046"><ele>19.0</ele><time>2026-04-04T14:57:50.807Z</time></trkpt><trkpt lat="44.5814147" lon="11.4606172"><ele>19.0</ele><time>2026-04-04T14:57:51.805Z</time></trkpt><trkpt lat="44.581636" lon="11.4607721"><ele>19.0</ele><time>2026-04-04T14:57:52.807Z</time></trkpt><trkpt lat="44.581849" lon="11.4609221"><ele>18.333333333333332</ele><time>2026-04-04T14:57:53.807Z</time></trkpt><trkpt lat="44.5820524" lon="11.4610488"><ele>17.666666666666668</ele><time>2026-04-04T14:57:54.807Z</time></trkpt><trkpt lat="44.5822503" lon="11.4611278"><ele>17.0</ele><time>2026-04-04T14:57:55.806Z</time></trkpt><trkpt lat="44.5824569" lon="11.4611784"><ele>17.0</ele><time>2026-04-04T14:57:56.807Z</time></trkpt><trkpt lat="44.5826748" lon="11.4611882"><ele>17.0</ele><time>2026-04-04T14:57:57.806Z</time></trkpt><trkpt lat="44.582897" lon="11.4611525"><ele>17.0</ele><time>2026-04-04T14:57:58.806Z</time></trkpt><trkpt lat="44.5831193" lon="11.4610643"><ele>17.0</ele><time>2026-04-04T14:57:59.807Z</time></trkpt><trkpt lat="44.583339" lon="11.4609276"><ele>17.0</ele><time>2026-04-04T14:58:00.806Z</time></trkpt><trkpt lat="44.5835557" lon="11.4607534"><ele>17.5</ele><time>2026-04-04T14:58:01.806Z</time></trkpt><trkpt lat="44.5837647" lon="11.4605525"><ele>18.0</ele><time>2026-04-04T14:58:02.806Z</time></trkpt><trkpt lat="44.583978" lon="11.4603563"><ele>19.0</ele><time>2026-04-04T14:58:03.807Z</time></trkpt><trkpt lat="44.5841832" lon="11.4601689"><ele>20.0</ele><time>2026-04-04T14:58:04.807Z</time></trkpt><trkpt lat="44.5843773" lon="11.4599932"><ele>20.0</ele><time>2026-04-04T14:58:05.807Z</time></trkpt><trkpt lat="44.5845675" lon="11.459837"><ele>20.0</ele><time>2026-04-04T14:58:06.806Z</time></trkpt><trkpt lat="44.5847631" lon="11.4597127"><ele>20.0</ele><time>2026-04-04T14:58:07.807Z</time></trkpt><trkpt lat="44.5849753" lon="11.4596164"><ele>20.0</ele><time>2026-04-04T14:58:08.807Z</time></trkpt><trkpt lat="44.585196" lon="11.4595541"><ele>20.0</ele><time>2026-04-04T14:58:09.806Z</time></trkpt><trkpt lat="44.5854247" lon="11.4595367"><ele>19.5</ele><time>2026-04-04T14:58:10.807Z</time></trkpt><trkpt lat="44.5856596" lon="11.4595612"><ele>19.0</ele><time>2026-04-04T14:58:11.807Z</time></trkpt><trkpt lat="44.5858989" lon="11.4596224"><ele>18.5</ele><time>2026-04-04T14:58:12.807Z</time></trkpt><trkpt lat="44.5861375" lon="11.4597322"><ele>18.0</ele><time>2026-04-04T14:58:13.807Z</time></trkpt><trkpt lat="44.5863739" lon="11.4598815"><ele>18.0</ele><time>2026-04-04T14:58:14.806Z</time></trkpt><trkpt lat="44.5866033" lon="11.4600354"><ele>18.0</ele><time>2026-04-04T14:58:15.807Z</time></trkpt><trkpt lat="44.5868337" lon="11.4601797"><ele>18.0</ele><time>2026-04-04T14:58:16.806Z</time></trkpt><trkpt lat="44.5870584" lon="11.4603227"><ele>18.0</ele><time>2026-04-04T14:58:17.807Z</time></trkpt><trkpt lat="44.5872776" lon="11.4604582"><ele>18.5</ele><time>2026-04-04T14:58:18.806Z</time></trkpt><trkpt lat="44.58749" lon="11.4605971"><ele>19.0</ele><time>2026-04-04T14:58:19.806Z</time></trkpt><trkpt lat="44.5876941" lon="11.4607305"><ele>19.5</ele><time>2026-04-04T14:58:20.806Z</time></trkpt><trkpt lat="44.5879061" lon="11.4608368"><ele>20.0</ele><time>2026-04-04T14:58:21.807Z</time></trkpt><trkpt lat="44.5881286" lon="11.4609106"><ele>20.0</ele><time>2026-04-04T14:58:22.806Z</time></trkpt><trkpt lat="44.5883606" lon="11.4609482"><ele>20.0</ele><time>2026-04-04T14:58:23.806Z</time></trkpt><trkpt lat="44.5885971" lon="11.4609459"><ele>20.0</ele><time>2026-04-04T14:58:24.807Z</time></trkpt><trkpt lat="44.5888384" lon="11.4609067"><ele>20.0</ele><time>2026-04-04T14:58:25.807Z</time></trkpt><trkpt lat="44.5890849" lon="11.4608408"><ele>20.0</ele><time>2026-04-04T14:58:26.805Z</time></trkpt><trkpt lat="44.5893352" lon="11.4607776"><ele>20.0</ele><time>2026-04-04T14:58:27.806Z</time></trkpt><trkpt lat="44.5895889" lon="11.4607193"><ele>19.0</ele><time>2026-04-04T14:58:28.806Z</time></trkpt><trkpt lat="44.5898401" lon="11.4606719"><ele>18.0</ele><time>2026-04-04T14:58:29.806Z</time></trkpt><trkpt lat="44.5900858" lon="11.460664"><ele>18.0</ele><time>2026-04-04T14:58:30.807Z</time></trkpt><trkpt lat="44.5903274" lon="11.4607008"><ele>18.0</ele><time>2026-04-04T14:58:31.807Z</time></trkpt><trkpt lat="44.5905697" lon="11.4607698"><ele>18.0</ele><time>2026-04-04T14:58:32.807Z</time></trkpt><trkpt lat="44.5908057" lon="11.4608772"><ele>18.0</ele><time>2026-04-04T14:58:33.806Z</time></trkpt><trkpt lat="44.5910351" lon="11.4610145"><ele>17.0</ele><time>2026-04-04T14:58:34.805Z</time></trkpt><trkpt lat="44.5912546" lon="11.4611872"><ele>16.0</ele><time>2026-04-04T14:58:35.807Z</time></trkpt><trkpt lat="44.5914694" lon="11.4613755"><ele>16.0</ele><time>2026-04-04T14:58:36.807Z</time></trkpt><trkpt lat="44.5916841" lon="11.46156"><ele>16.0</ele><time>2026-04-04T14:58:37.806Z</time></trkpt><trkpt lat="44.5918978" lon="11.4617396"><ele>15.5</ele><time>2026-04-04T14:58:38.806Z</time></trkpt><trkpt lat="44.5921121" lon="11.4619167"><ele>15.0</ele><time>2026-04-04T14:58:39.806Z</time></trkpt><trkpt lat="44.5923249" lon="11.4620952"><ele>16.5</ele><time>2026-04-04T14:58:40.807Z</time></trkpt><trkpt lat="44.5925359" lon="11.4622746"><ele>18.0</ele><time>2026-04-04T14:58:41.807Z</time></trkpt><trkpt lat="44.5927461" lon="11.462456"><ele>17.0</ele><time>2026-04-04T14:58:42.807Z</time></trkpt><trkpt lat="44.5929582" lon="11.4626361"><ele>16.0</ele><time>2026-04-04T14:58:43.806Z</time></trkpt><trkpt lat="44.5931689" lon="11.462812"><ele>18.0</ele><time>2026-04-04T14:58:44.807Z</time></trkpt><trkpt lat="44.5933772" lon="11.4629775"><ele>20.0</ele><time>2026-04-04T14:58:45.807Z</time></trkpt><trkpt lat="44.5935962" lon="11.4631191"><ele>19.5</ele><time>2026-04-04T14:58:46.807Z</time></trkpt><trkpt lat="44.5938259" lon="11.4632459"><ele>19.0</ele><time>2026-04-04T14:58:47.806Z</time></trkpt><trkpt lat="44.5940594" lon="11.4633537"><ele>19.0</ele><time>2026-04-04T14:58:48.807Z</time></trkpt><trkpt lat="44.5942864" lon="11.4634528"><ele>19.0</ele><time>2026-04-04T14:58:49.807Z</time></trkpt><trkpt lat="44.5945086" lon="11.4635499"><ele>19.0</ele><time>2026-04-04T14:58:50.807Z</time></trkpt><trkpt lat="44.5947258" lon="11.4636437"><ele>19.0</ele><time>2026-04-04T14:58:51.806Z</time></trkpt><trkpt lat="44.594941" lon="11.4637343"><ele>18.5</ele><time>2026-04-04T14:58:52.806Z</time></trkpt><trkpt lat="44.5951548" lon="11.4638531"><ele>18.0</ele><time>2026-04-04T14:58:53.806Z</time></trkpt><trkpt lat="44.5953595" lon="11.4640023"><ele>18.0</ele><time>2026-04-04T14:58:54.807Z</time></trkpt><trkpt lat="44.5955527" lon="11.4641865"><ele>18.0</ele><time>2026-04-04T14:58:55.807Z</time></trkpt><trkpt lat="44.5957346" lon="11.4644047"><ele>17.5</ele><time>2026-04-04T14:58:56.807Z</time></trkpt><trkpt lat="44.5958933" lon="11.4646523"><ele>17.0</ele><time>2026-04-04T14:58:57.807Z</time></trkpt><trkpt lat="44.5960295" lon="11.4649298"><ele>17.0</ele><time>2026-04-04T14:58:58.806Z</time></trkpt><trkpt lat="44.5961453" lon="11.4652341"><ele>17.0</ele><time>2026-04-04T14:58:59.805Z</time></trkpt><trkpt lat="44.5962488" lon="11.4655497"><ele>17.0</ele><time>2026-04-04T14:59:00.806Z</time></trkpt><trkpt lat="44.5963469" lon="11.4658772"><ele>17.0</ele><time>2026-04-04T14:59:01.806Z</time></trkpt><trkpt lat="44.5964345" lon="11.4662132"><ele>17.5</ele><time>2026-04-04T14:59:02.806Z</time></trkpt><trkpt lat="44.5965179" lon="11.4665456"><ele>18.0</ele><time>2026-04-04T14:59:03.805Z</time></trkpt><trkpt lat="44.5966079" lon="11.4668756"><ele>17.0</ele><time>2026-04-04T14:59:04.806Z</time></trkpt><trkpt lat="44.5967039" lon="11.467196"><ele>16.0</ele><time>2026-04-04T14:59:05.805Z</time></trkpt><trkpt lat="44.5968171" lon="11.4675017"><ele>16.0</ele><time>2026-04-04T14:59:06.806Z</time></trkpt><trkpt lat="44.5969486" lon="11.4677918"><ele>16.0</ele><time>2026-04-04T14:59:07.806Z</time></trkpt><trkpt lat="44.5970874" lon="11.4680699"><ele>16.5</ele><time>2026-04-04T14:59:08.805Z</time></trkpt><trkpt lat="44.5972312" lon="11.4683324"><ele>17.0</ele><time>2026-04-04T14:59:09.806Z</time></trkpt><trkpt lat="44.597393" lon="11.4685763"><ele>17.0</ele><time>2026-04-04T14:59:10.805Z</time></trkpt><trkpt lat="44.5975758" lon="11.4687983"><ele>17.0</ele><time>2026-04-04T14:59:11.806Z</time></trkpt><trkpt lat="44.5977786" lon="11.4689988"><ele>16.0</ele><time>2026-04-04T14:59:12.806Z</time></trkpt><trkpt lat="44.5979918" lon="11.4691869"><ele>15.0</ele><time>2026-04-04T14:59:13.805Z</time></trkpt><trkpt lat="44.5982042" lon="11.4693794"><ele>15.0</ele><time>2026-04-04T14:59:14.805Z</time></trkpt><trkpt lat="44.5984171" lon="11.4695741"><ele>15.0</ele><time>2026-04-04T14:59:15.806Z</time></trkpt><trkpt lat="44.5986359" lon="11.4697609"><ele>16.0</ele><time>2026-04-04T14:59:16.806Z</time></trkpt><trkpt lat="44.5988646" lon="11.4699342"><ele>17.0</ele><time>2026-04-04T14:59:17.805Z</time></trkpt><trkpt lat="44.5990979" lon="11.4700878"><ele>17.0</ele><time>2026-04-04T14:59:18.804Z</time></trkpt><trkpt lat="44.5993318" lon="11.4702299"><ele>17.0</ele><time>2026-04-04T14:59:19.806Z</time></trkpt><trkpt lat="44.5995658" lon="11.4703622"><ele>17.5</ele><time>2026-04-04T14:59:20.806Z</time></trkpt><trkpt lat="44.5997968" lon="11.4704941"><ele>18.0</ele><time>2026-04-04T14:59:21.806Z</time></trkpt><trkpt lat="44.6000214" lon="11.4706351"><ele>18.0</ele><time>2026-04-04T14:59:22.805Z</time></trkpt><trkpt lat="44.6002397" lon="11.4707957"><ele>18.0</ele><time>2026-04-04T14:59:23.805Z</time></trkpt><trkpt lat="44.6004535" lon="11.4709759"><ele>17.0</ele><time>2026-04-04T14:59:24.805Z</time></trkpt><trkpt lat="44.6006709" lon="11.4711606"><ele>16.0</ele><time>2026-04-04T14:59:25.805Z</time></trkpt><trkpt lat="44.6008894" lon="11.4713401"><ele>16.0</ele><time>2026-04-04T14:59:26.805Z</time></trkpt><trkpt lat="44.6011089" lon="11.4715165"><ele>16.0</ele><time>2026-04-04T14:59:27.805Z</time></trkpt><trkpt lat="44.601329" lon="11.4716971"><ele>17.5</ele><time>2026-04-04T14:59:28.806Z</time></trkpt><trkpt lat="44.601546" lon="11.4718765"><ele>19.0</ele><time>2026-04-04T14:59:29.805Z</time></trkpt><trkpt lat="44.6017618" lon="11.4720543"><ele>19.0</ele><time>2026-04-04T14:59:30.806Z</time></trkpt><trkpt lat="44.601976" lon="11.472234"><ele>19.0</ele><time>2026-04-04T14:59:31.805Z</time></trkpt><trkpt lat="44.6021912" lon="11.4724106"><ele>19.0</ele><time>2026-04-04T14:59:32.805Z</time></trkpt><trkpt lat="44.6024043" lon="11.4725881"><ele>19.0</ele><time>2026-04-04T14:59:33.805Z</time></trkpt><trkpt lat="44.6026164" lon="11.4727645"><ele>18.0</ele><time>2026-04-04T14:59:34.805Z</time></trkpt><trkpt lat="44.6028268" lon="11.4729406"><ele>17.0</ele><time>2026-04-04T14:59:35.806Z</time></trkpt><trkpt lat="44.6030348" lon="11.4731233"><ele>17.0</ele><time>2026-04-04T14:59:36.806Z</time></trkpt><trkpt lat="44.6032299" lon="11.4733279"><ele>17.0</ele><time>2026-04-04T14:59:37.806Z</time></trkpt><trkpt lat="44.6034154" lon="11.4735566"><ele>16.5</ele><time>2026-04-04T14:59:38.805Z</time></trkpt><trkpt lat="44.6035994" lon="11.4737927"><ele>16.0</ele><time>2026-04-04T14:59:39.804Z</time></trkpt><trkpt lat="44.6037789" lon="11.4740189"><ele>16.0</ele><time>2026-04-04T14:59:40.805Z</time></trkpt><trkpt lat="44.6039591" lon="11.474229"><ele>16.0</ele><time>2026-04-04T14:59:41.805Z</time></trkpt><trkpt lat="44.6041494" lon="11.4744109"><ele>16.0</ele><time>2026-04-04T14:59:42.806Z</time></trkpt><trkpt lat="44.604357" lon="11.4745567"><ele>16.0</ele><time>2026-04-04T14:59:43.806Z</time></trkpt><trkpt lat="44.6045762" lon="11.4746806"><ele>16.5</ele><time>2026-04-04T14:59:44.805Z</time></trkpt><trkpt lat="44.6047884" lon="11.474806"><ele>17.0</ele><time>2026-04-04T14:59:45.806Z</time></trkpt><trkpt lat="44.6049919" lon="11.4749475"><ele>17.0</ele><time>2026-04-04T14:59:46.805Z</time></trkpt><trkpt lat="44.6051863" lon="11.4751133"><ele>17.0</ele><time>2026-04-04T14:59:47.806Z</time></trkpt><trkpt lat="44.6053682" lon="11.4752934"><ele>17.0</ele><time>2026-04-04T14:59:48.806Z</time></trkpt><trkpt lat="44.6055316" lon="11.4754729"><ele>17.0</ele><time>2026-04-04T14:59:49.806Z</time></trkpt><trkpt lat="44.6056827" lon="11.4756464"><ele>17.0</ele><time>2026-04-04T14:59:50.805Z</time></trkpt><trkpt lat="44.6058329" lon="11.475812"><ele>17.0</ele><time>2026-04-04T14:59:51.805Z</time></trkpt><trkpt lat="44.6059967" lon="11.4759647"><ele>17.0</ele><time>2026-04-04T14:59:52.806Z</time></trkpt><trkpt lat="44.6061752" lon="11.4760865"><ele>17.0</ele><time>2026-04-04T14:59:53.806Z</time></trkpt><trkpt lat="44.6063607" lon="11.4761817"><ele>16.666666666666668</ele><time>2026-04-04T14:59:54.806Z</time></trkpt><trkpt lat="44.606556" lon="11.4762486"><ele>16.333333333333332</ele><time>2026-04-04T14:59:55.806Z</time></trkpt><trkpt lat="44.6067532" lon="11.4762963"><ele>16.0</ele><time>2026-04-04T14:59:56.805Z</time></trkpt><trkpt lat="44.6069503" lon="11.4763304"><ele>15.666666666666666</ele><time>2026-04-04T14:59:57.806Z</time></trkpt><trkpt lat="44.6071437" lon="11.476356"><ele>15.333333333333332</ele><time>2026-04-04T14:59:58.806Z</time></trkpt><trkpt lat="44.6073249" lon="11.4763768"><ele>15.0</ele><time>2026-04-04T14:59:59.806Z</time></trkpt><trkpt lat="44.6074988" lon="11.4763969"><ele>15.0</ele><time>2026-04-04T15:00:00.805Z</time></trkpt><trkpt lat="44.6076764" lon="11.4764122"><ele>15.0</ele><time>2026-04-04T15:00:01.805Z</time></trkpt><trkpt lat="44.6078545" lon="11.4764184"><ele>15.0</ele><time>2026-04-04T15:00:02.805Z</time></trkpt><trkpt lat="44.6080334" lon="11.4764014"><ele>16.0</ele><time>2026-04-04T15:00:03.805Z</time></trkpt><trkpt lat="44.6082133" lon="11.4763737"><ele>17.0</ele><time>2026-04-04T15:00:04.806Z</time></trkpt><trkpt lat="44.6083933" lon="11.4763481"><ele>18.0</ele><time>2026-04-04T15:00:05.805Z</time></trkpt><trkpt lat="44.608565" lon="11.4763327"><ele>18.0</ele><time>2026-04-04T15:00:06.805Z</time></trkpt><trkpt lat="44.6087239" lon="11.4763407"><ele>18.0</ele><time>2026-04-04T15:00:07.805Z</time></trkpt><trkpt lat="44.6088774" lon="11.4763896"><ele>18.0</ele><time>2026-04-04T15:00:08.806Z</time></trkpt><trkpt lat="44.6090223" lon="11.4764831"><ele>18.0</ele><time>2026-04-04T15:00:09.805Z</time></trkpt><trkpt lat="44.6091541" lon="11.4766039"><ele>18.0</ele><time>2026-04-04T15:00:10.804Z</time></trkpt><trkpt lat="44.6092745" lon="11.47674"><ele>18.0</ele><time>2026-04-04T15:00:11.805Z</time></trkpt><trkpt lat="44.609382" lon="11.4768746"><ele>18.0</ele><time>2026-04-04T15:00:12.805Z</time></trkpt><trkpt lat="44.6094786" lon="11.4770026"><ele>18.0</ele><time>2026-04-04T15:00:13.804Z</time></trkpt><trkpt lat="44.6095616" lon="11.4771157"><ele>18.0</ele><time>2026-04-04T15:00:14.805Z</time></trkpt><trkpt lat="44.6096315" lon="11.4772021"><ele>18.0</ele><time>2026-04-04T15:00:15.805Z</time></trkpt><trkpt lat="44.6096916" lon="11.4772725"><ele>18.0</ele><time>2026-04-04T15:00:16.805Z</time></trkpt><trkpt lat="44.6097461" lon="11.4773392"><ele>17.8</ele><time>2026-04-04T15:00:17.806Z</time></trkpt><trkpt lat="44.6097962" lon="11.4774059"><ele>17.6</ele><time>2026-04-04T15:00:18.805Z</time></trkpt><trkpt lat="44.6098483" lon="11.4774866"><ele>17.4</ele><time>2026-04-04T15:00:19.805Z</time></trkpt><trkpt lat="44.6099079" lon="11.4775808"><ele>17.2</ele><time>2026-04-04T15:00:20.805Z</time></trkpt><trkpt lat="44.6099734" lon="11.4776904"><ele>17.0</ele><time>2026-04-04T15:00:21.805Z</time></trkpt><trkpt lat="44.610044" lon="11.4778177"><ele>17.0</ele><time>2026-04-04T15:00:22.806Z</time></trkpt><trkpt lat="44.6101217" lon="11.4779505"><ele>17.0</ele><time>2026-04-04T15:00:23.806Z</time></trkpt><trkpt lat="44.6102049" lon="11.4780809"><ele>17.0</ele><time>2026-04-04T15:00:24.805Z</time></trkpt><trkpt lat="44.610284" lon="11.4782035"><ele>17.0</ele><time>2026-04-04T15:00:25.806Z</time></trkpt><trkpt lat="44.610361" lon="11.4783215"><ele>16.75</ele><time>2026-04-04T15:00:26.805Z</time></trkpt><trkpt lat="44.6104408" lon="11.4784433"><ele>16.5</ele><time>2026-04-04T15:00:27.805Z</time></trkpt><trkpt lat="44.6105233" lon="11.4785619"><ele>16.25</ele><time>2026-04-04T15:00:28.806Z</time></trkpt><trkpt lat="44.6106092" lon="11.4786859"><ele>16.0</ele><time>2026-04-04T15:00:29.806Z</time></trkpt><trkpt lat="44.6107" lon="11.4788124"><ele>16.0</ele><time>2026-04-04T15:00:30.805Z</time></trkpt><trkpt lat="44.6107969" lon="11.4789445"><ele>16.0</ele><time>2026-04-04T15:00:31.806Z</time></trkpt><trkpt lat="44.6108949" lon="11.4790734"><ele>16.0</ele><time>2026-04-04T15:00:32.805Z</time></trkpt><trkpt lat="44.6109941" lon="11.4792048"><ele>16.0</ele><time>2026-04-04T15:00:33.806Z</time></trkpt><trkpt lat="44.6110926" lon="11.479339"><ele>16.0</ele><time>2026-04-04T15:00:34.805Z</time></trkpt><trkpt lat="44.6111944" lon="11.4794652"><ele>16.0</ele><time>2026-04-04T15:00:35.806Z</time></trkpt><trkpt lat="44.6113004" lon="11.479594"><ele>16.0</ele><time>2026-04-04T15:00:36.805Z</time></trkpt><trkpt lat="44.6114133" lon="11.4797147"><ele>16.0</ele><time>2026-04-04T15:00:37.806Z</time></trkpt><trkpt lat="44.6115273" lon="11.4798281"><ele>16.25</ele><time>2026-04-04T15:00:38.806Z</time></trkpt><trkpt lat="44.6116447" lon="11.479934"><ele>16.5</ele><time>2026-04-04T15:00:39.805Z</time></trkpt><trkpt lat="44.6117571" lon="11.4800304"><ele>16.75</ele><time>2026-04-04T15:00:40.806Z</time></trkpt><trkpt lat="44.6118654" lon="11.4801075"><ele>17.0</ele><time>2026-04-04T15:00:41.806Z</time></trkpt><trkpt lat="44.6119719" lon="11.4801661"><ele>17.4</ele><time>2026-04-04T15:00:42.806Z</time></trkpt><trkpt lat="44.6120722" lon="11.4802175"><ele>17.799999999999997</ele><time>2026-04-04T15:00:43.806Z</time></trkpt><trkpt lat="44.6121691" lon="11.4802678"><ele>18.2</ele><time>2026-04-04T15:00:44.804Z</time></trkpt><trkpt lat="44.6122624" lon="11.4803117"><ele>18.599999999999998</ele><time>2026-04-04T15:00:45.806Z</time></trkpt><trkpt lat="44.6123506" lon="11.4803561"><ele>19.0</ele><time>2026-04-04T15:00:46.806Z</time></trkpt><trkpt lat="44.6124326" lon="11.4804012"><ele>19.0</ele><time>2026-04-04T15:00:47.806Z</time></trkpt><trkpt lat="44.6125198" lon="11.4804499"><ele>19.0</ele><time>2026-04-04T15:00:48.804Z</time></trkpt><trkpt lat="44.6126091" lon="11.4805023"><ele>19.0</ele><time>2026-04-04T15:00:49.806Z</time></trkpt><trkpt lat="44.6127037" lon="11.4805631"><ele>19.0</ele><time>2026-04-04T15:00:50.806Z</time></trkpt><trkpt lat="44.6128009" lon="11.4806325"><ele>19.0</ele><time>2026-04-04T15:00:51.805Z</time></trkpt><trkpt lat="44.612902" lon="11.4807086"><ele>18.5</ele><time>2026-04-04T15:00:52.804Z</time></trkpt><trkpt lat="44.6130062" lon="11.4807983"><ele>18.0</ele><time>2026-04-04T15:00:53.805Z</time></trkpt><trkpt lat="44.6131118" lon="11.4808979"><ele>17.5</ele><time>2026-04-04T15:00:54.805Z</time></trkpt><trkpt lat="44.6132198" lon="11.4809989"><ele>17.0</ele><time>2026-04-04T15:00:55.806Z</time></trkpt><trkpt lat="44.6133302" lon="11.4810995"><ele>17.0</ele><time>2026-04-04T15:00:56.805Z</time></trkpt><trkpt lat="44.6134357" lon="11.4811932"><ele>17.0</ele><time>2026-04-04T15:00:57.805Z</time></trkpt><trkpt lat="44.6135332" lon="11.4812799"><ele>17.0</ele><time>2026-04-04T15:00:58.805Z</time></trkpt><trkpt lat="44.6136216" lon="11.481367"><ele>17.0</ele><time>2026-04-04T15:00:59.805Z</time></trkpt><trkpt lat="44.613697" lon="11.4814368"><ele>17.0</ele><time>2026-04-04T15:01:00.806Z</time></trkpt><trkpt lat="44.6137556" lon="11.4814909"><ele>16.8</ele><time>2026-04-04T15:01:01.805Z</time></trkpt><trkpt lat="44.613819" lon="11.4815566"><ele>16.6</ele><time>2026-04-04T15:01:03.805Z</time></trkpt><trkpt lat="44.6138921" lon="11.4816256"><ele>16.400000000000002</ele><time>2026-04-04T15:01:05.806Z</time></trkpt><trkpt lat="44.6139891" lon="11.4817106"><ele>16.2</ele><time>2026-04-04T15:01:07.806Z</time></trkpt><trkpt lat="44.614103" lon="11.4818128"><ele>16.0</ele><time>2026-04-04T15:01:09.806Z</time></trkpt><trkpt lat="44.6141983" lon="11.4818928"><ele>16.0</ele><time>2026-04-04T15:01:10.805Z</time></trkpt><trkpt lat="44.6143142" lon="11.4819917"><ele>16.0</ele><time>2026-04-04T15:01:11.806Z</time></trkpt><trkpt lat="44.6144512" lon="11.4821094"><ele>16.0</ele><time>2026-04-04T15:01:12.806Z</time></trkpt><trkpt lat="44.6146024" lon="11.4822441"><ele>15.333333333333332</ele><time>2026-04-04T15:01:13.806Z</time></trkpt><trkpt lat="44.6147712" lon="11.4823881"><ele>14.666666666666668</ele><time>2026-04-04T15:01:14.806Z</time></trkpt><trkpt lat="44.6149582" lon="11.4825483"><ele>14.0</ele><time>2026-04-04T15:01:15.805Z</time></trkpt><trkpt lat="44.6151527" lon="11.4827114"><ele>14.333333333333334</ele><time>2026-04-04T15:01:16.805Z</time></trkpt><trkpt lat="44.6153457" lon="11.4828734"><ele>14.666666666666668</ele><time>2026-04-04T15:01:17.805Z</time></trkpt><trkpt lat="44.6155273" lon="11.4830276"><ele>15.0</ele><time>2026-04-04T15:01:18.806Z</time></trkpt><trkpt lat="44.6156994" lon="11.4831727"><ele>15.0</ele><time>2026-04-04T15:01:19.806Z</time></trkpt><trkpt lat="44.615861" lon="11.4833127"><ele>15.0</ele><time>2026-04-04T15:01:20.806Z</time></trkpt><trkpt lat="44.6160195" lon="11.483443"><ele>15.0</ele><time>2026-04-04T15:01:21.805Z</time></trkpt><trkpt lat="44.6161726" lon="11.4835695"><ele>15.0</ele><time>2026-04-04T15:01:22.806Z</time></trkpt><trkpt lat="44.6163234" lon="11.483697"><ele>15.0</ele><time>2026-04-04T15:01:23.805Z</time></trkpt><trkpt lat="44.6164637" lon="11.4838161"><ele>15.0</ele><time>2026-04-04T15:01:24.806Z</time></trkpt><trkpt lat="44.6166022" lon="11.4839321"><ele>15.0</ele><time>2026-04-04T15:01:25.805Z</time></trkpt><trkpt lat="44.6167358" lon="11.4840484"><ele>15.0</ele><time>2026-04-04T15:01:26.806Z</time></trkpt><trkpt lat="44.6168692" lon="11.4841615"><ele>15.0</ele><time>2026-04-04T15:01:27.805Z</time></trkpt><trkpt lat="44.6170047" lon="11.4842727"><ele>15.333333333333332</ele><time>2026-04-04T15:01:28.806Z</time></trkpt><trkpt lat="44.6171448" lon="11.4843887"><ele>15.666666666666666</ele><time>2026-04-04T15:01:29.805Z</time></trkpt><trkpt lat="44.6172914" lon="11.484509"><ele>16.0</ele><time>2026-04-04T15:01:30.804Z</time></trkpt><trkpt lat="44.6174386" lon="11.4846309"><ele>16.0</ele><time>2026-04-04T15:01:31.806Z</time></trkpt><trkpt lat="44.6175826" lon="11.484751"><ele>16.0</ele><time>2026-04-04T15:01:32.806Z</time></trkpt><trkpt lat="44.6177181" lon="11.4848651"><ele>16.0</ele><time>2026-04-04T15:01:33.806Z</time></trkpt><trkpt lat="44.6178471" lon="11.4849782"><ele>15.75</ele><time>2026-04-04T15:01:34.805Z</time></trkpt><trkpt lat="44.6179663" lon="11.4850864"><ele>15.5</ele><time>2026-04-04T15:01:35.806Z</time></trkpt><trkpt lat="44.6180817" lon="11.4851827"><ele>15.25</ele><time>2026-04-04T15:01:36.806Z</time></trkpt><trkpt lat="44.6181916" lon="11.4852738"><ele>15.0</ele><time>2026-04-04T15:01:37.805Z</time></trkpt><trkpt lat="44.6182986" lon="11.4853539"><ele>15.2</ele><time>2026-04-04T15:01:38.805Z</time></trkpt><trkpt lat="44.6184024" lon="11.4854291"><ele>15.4</ele><time>2026-04-04T15:01:39.805Z</time></trkpt><trkpt lat="44.6185023" lon="11.4854955"><ele>15.600000000000001</ele><time>2026-04-04T15:01:40.805Z</time></trkpt><trkpt lat="44.6186009" lon="11.4855598"><ele>15.8</ele><time>2026-04-04T15:01:41.804Z</time></trkpt><trkpt lat="44.6186911" lon="11.4856184"><ele>16.0</ele><time>2026-04-04T15:01:42.806Z</time></trkpt><trkpt lat="44.6187779" lon="11.485675"><ele>16.0</ele><time>2026-04-04T15:01:43.806Z</time></trkpt><trkpt lat="44.6188604" lon="11.4857305"><ele>16.0</ele><time>2026-04-04T15:01:44.806Z</time></trkpt><trkpt lat="44.6189499" lon="11.485785"><ele>16.0</ele><time>2026-04-04T15:01:45.805Z</time></trkpt><trkpt lat="44.6190523" lon="11.4858518"><ele>16.0</ele><time>2026-04-04T15:01:46.806Z</time></trkpt><trkpt lat="44.6191724" lon="11.4859256"><ele>16.0</ele><time>2026-04-04T15:01:47.805Z</time></trkpt><trkpt lat="44.6193119" lon="11.4860249"><ele>16.0</ele><time>2026-04-04T15:01:48.805Z</time></trkpt><trkpt lat="44.6194642" lon="11.4861237"><ele>16.0</ele><time>2026-04-04T15:01:49.806Z</time></trkpt><trkpt lat="44.6196289" lon="11.4862244"><ele>16.0</ele><time>2026-04-04T15:01:50.806Z</time></trkpt><trkpt lat="44.619795" lon="11.4863177"><ele>16.666666666666664</ele><time>2026-04-04T15:01:51.806Z</time></trkpt><trkpt lat="44.6199683" lon="11.4864276"><ele>17.333333333333332</ele><time>2026-04-04T15:01:52.804Z</time></trkpt><trkpt lat="44.6201463" lon="11.4865345"><ele>18.0</ele><time>2026-04-04T15:01:53.804Z</time></trkpt><trkpt lat="44.6203179" lon="11.4866314"><ele>18.0</ele><time>2026-04-04T15:01:54.805Z</time></trkpt><trkpt lat="44.6204757" lon="11.4867272"><ele>18.0</ele><time>2026-04-04T15:01:55.803Z</time></trkpt><trkpt lat="44.6206297" lon="11.4868216"><ele>18.0</ele><time>2026-04-04T15:01:56.804Z</time></trkpt><trkpt lat="44.6207835" lon="11.4869061"><ele>18.0</ele><time>2026-04-04T15:01:57.804Z</time></trkpt><trkpt lat="44.6209458" lon="11.4870049"><ele>18.0</ele><time>2026-04-04T15:01:58.804Z</time></trkpt><trkpt lat="44.6211183" lon="11.4871231"><ele>18.0</ele><time>2026-04-04T15:01:59.804Z</time></trkpt><trkpt lat="44.6212971" lon="11.4872455"><ele>17.333333333333332</ele><time>2026-04-04T15:02:00.804Z</time></trkpt><trkpt lat="44.6214686" lon="11.487362"><ele>16.666666666666664</ele><time>2026-04-04T15:02:01.805Z</time></trkpt><trkpt lat="44.6216378" lon="11.4874719"><ele>16.0</ele><time>2026-04-04T15:02:02.805Z</time></trkpt><trkpt lat="44.6217969" lon="11.4875718"><ele>16.0</ele><time>2026-04-04T15:02:03.803Z</time></trkpt><trkpt lat="44.6219489" lon="11.4876684"><ele>16.0</ele><time>2026-04-04T15:02:04.803Z</time></trkpt><trkpt lat="44.6220908" lon="11.4877622"><ele>16.0</ele><time>2026-04-04T15:02:05.804Z</time></trkpt><trkpt lat="44.622225" lon="11.4878584"><ele>16.0</ele><time>2026-04-04T15:02:06.805Z</time></trkpt><trkpt lat="44.6223545" lon="11.4879645"><ele>16.0</ele><time>2026-04-04T15:02:07.805Z</time></trkpt><trkpt lat="44.6224772" lon="11.4880698"><ele>16.0</ele><time>2026-04-04T15:02:08.805Z</time></trkpt><trkpt lat="44.6225917" lon="11.4881794"><ele>16.0</ele><time>2026-04-04T15:02:09.803Z</time></trkpt><trkpt lat="44.6226956" lon="11.4882947"><ele>16.0</ele><time>2026-04-04T15:02:10.803Z</time></trkpt><trkpt lat="44.6227853" lon="11.4884018"><ele>16.0</ele><time>2026-04-04T15:02:11.805Z</time></trkpt><trkpt lat="44.6228642" lon="11.488503"><ele>16.0</ele><time>2026-04-04T15:02:12.804Z</time></trkpt><trkpt lat="44.6229328" lon="11.4885969"><ele>16.0</ele><time>2026-04-04T15:02:13.805Z</time></trkpt><trkpt lat="44.6230005" lon="11.4886873"><ele>16.0</ele><time>2026-04-04T15:02:14.805Z</time></trkpt><trkpt lat="44.6230651" lon="11.4887767"><ele>15.999999999999998</ele><time>2026-04-04T15:02:15.805Z</time></trkpt><trkpt lat="44.6231273" lon="11.4888643"><ele>16.0</ele><time>2026-04-04T15:02:16.805Z</time></trkpt><trkpt lat="44.6231795" lon="11.4889545"><ele>16.0</ele><time>2026-04-04T15:02:17.804Z</time></trkpt><trkpt lat="44.6232337" lon="11.4890401"><ele>16.0</ele><time>2026-04-04T15:02:18.803Z</time></trkpt><trkpt lat="44.6232838" lon="11.489123"><ele>15.999999999999998</ele><time>2026-04-04T15:02:19.805Z</time></trkpt><trkpt lat="44.6233318" lon="11.4891853"><ele>16.0</ele><time>2026-04-04T15:02:20.805Z</time></trkpt><trkpt lat="44.6234019" lon="11.4892915"><ele>16.0</ele><time>2026-04-04T15:02:22.805Z</time></trkpt><trkpt lat="44.6234602" lon="11.4893829"><ele>16.0</ele><time>2026-04-04T15:02:24.804Z</time></trkpt><trkpt lat="44.6235358" lon="11.4894799"><ele>16.0</ele><time>2026-04-04T15:02:26.804Z</time></trkpt><trkpt lat="44.6236351" lon="11.4895645"><ele>16.0</ele><time>2026-04-04T15:02:28.805Z</time></trkpt><trkpt lat="44.6236913" lon="11.4896136"><ele>16.0</ele><time>2026-04-04T15:02:29.805Z</time></trkpt><trkpt lat="44.623772" lon="11.4896866"><ele>16.5</ele><time>2026-04-04T15:02:30.804Z</time></trkpt><trkpt lat="44.6238825" lon="11.4898011"><ele>17.0</ele><time>2026-04-04T15:02:31.805Z</time></trkpt><trkpt lat="44.6239947" lon="11.489912"><ele>17.5</ele><time>2026-04-04T15:02:32.803Z</time></trkpt><trkpt lat="44.6240744" lon="11.4900003"><ele>18.0</ele><time>2026-04-04T15:02:33.804Z</time></trkpt><trkpt lat="44.6241257" lon="11.4900744"><ele>18.0</ele><time>2026-04-04T15:02:34.804Z</time></trkpt><trkpt lat="44.6241842" lon="11.4901511"><ele>18.0</ele><time>2026-04-04T15:02:35.805Z</time></trkpt><trkpt lat="44.6242541" lon="11.4902185"><ele>18.0</ele><time>2026-04-04T15:02:36.805Z</time></trkpt><trkpt lat="44.6243522" lon="11.4902994"><ele>18.0</ele><time>2026-04-04T15:02:37.803Z</time></trkpt><trkpt lat="44.6245034" lon="11.4904214"><ele>17.333333333333332</ele><time>2026-04-04T15:02:38.805Z</time></trkpt><trkpt lat="44.6246406" lon="11.4905509"><ele>16.666666666666664</ele><time>2026-04-04T15:02:39.803Z</time></trkpt><trkpt lat="44.6247782" lon="11.4906964"><ele>16.0</ele><time>2026-04-04T15:02:40.804Z</time></trkpt><trkpt lat="44.6249365" lon="11.490845"><ele>16.0</ele><time>2026-04-04T15:02:41.804Z</time></trkpt><trkpt lat="44.6250944" lon="11.4909971"><ele>16.0</ele><time>2026-04-04T15:02:42.804Z</time></trkpt><trkpt lat="44.6252416" lon="11.4911418"><ele>16.0</ele><time>2026-04-04T15:02:43.805Z</time></trkpt><trkpt lat="44.6253821" lon="11.491287"><ele>15.666666666666666</ele><time>2026-04-04T15:02:44.805Z</time></trkpt><trkpt lat="44.6255217" lon="11.4914275"><ele>15.333333333333332</ele><time>2026-04-04T15:02:45.805Z</time></trkpt><trkpt lat="44.6256551" lon="11.4915619"><ele>15.0</ele><time>2026-04-04T15:02:46.805Z</time></trkpt><trkpt lat="44.6257827" lon="11.4916907"><ele>15.0</ele><time>2026-04-04T15:02:47.805Z</time></trkpt><trkpt lat="44.6259097" lon="11.4918151"><ele>15.0</ele><time>2026-04-04T15:02:48.804Z</time></trkpt><trkpt lat="44.6260467" lon="11.491931"><ele>15.0</ele><time>2026-04-04T15:02:49.805Z</time></trkpt><trkpt lat="44.6261893" lon="11.4920233"><ele>15.0</ele><time>2026-04-04T15:02:50.805Z</time></trkpt><trkpt lat="44.6263255" lon="11.4920881"><ele>15.0</ele><time>2026-04-04T15:02:51.804Z</time></trkpt><trkpt lat="44.6264501" lon="11.4921209"><ele>15.0</ele><time>2026-04-04T15:02:52.804Z</time></trkpt><trkpt lat="44.6265628" lon="11.492144"><ele>15.0</ele><time>2026-04-04T15:02:53.805Z</time></trkpt><trkpt lat="44.6266703" lon="11.4921873"><ele>15.0</ele><time>2026-04-04T15:02:54.805Z</time></trkpt><trkpt lat="44.6267826" lon="11.4922268"><ele>15.0</ele><time>2026-04-04T15:02:55.805Z</time></trkpt><trkpt lat="44.6269101" lon="11.492281"><ele>15.0</ele><time>2026-04-04T15:02:56.804Z</time></trkpt><trkpt lat="44.6270468" lon="11.4923452"><ele>15.0</ele><time>2026-04-04T15:02:57.804Z</time></trkpt><trkpt lat="44.6271935" lon="11.4924127"><ele>14.666666666666668</ele><time>2026-04-04T15:02:58.805Z</time></trkpt><trkpt lat="44.6273417" lon="11.4924834"><ele>14.333333333333334</ele><time>2026-04-04T15:02:59.804Z</time></trkpt><trkpt lat="44.627493" lon="11.4925555"><ele>14.0</ele><time>2026-04-04T15:03:00.805Z</time></trkpt><trkpt lat="44.6276396" lon="11.4926393"><ele>14.0</ele><time>2026-04-04T15:03:01.804Z</time></trkpt><trkpt lat="44.6277708" lon="11.492738"><ele>14.0</ele><time>2026-04-04T15:03:02.805Z</time></trkpt><trkpt lat="44.627877" lon="11.4928501"><ele>14.0</ele><time>2026-04-04T15:03:03.805Z</time></trkpt><trkpt lat="44.6279556" lon="11.4929546"><ele>14.0</ele><time>2026-04-04T15:03:04.804Z</time></trkpt><trkpt lat="44.6280104" lon="11.493047"><ele>14.2</ele><time>2026-04-04T15:03:05.804Z</time></trkpt><trkpt lat="44.6280568" lon="11.4931269"><ele>14.399999999999999</ele><time>2026-04-04T15:03:07.804Z</time></trkpt><trkpt lat="44.6281085" lon="11.4932234"><ele>14.6</ele><time>2026-04-04T15:03:32.805Z</time></trkpt><trkpt lat="44.6281551" lon="11.4933174"><ele>14.8</ele><time>2026-04-04T15:03:35.804Z</time></trkpt><trkpt lat="44.6281938" lon="11.4933951"><ele>15.0</ele><time>2026-04-04T15:03:41.804Z</time></trkpt><trkpt lat="44.6283341" lon="11.4933651"><ele>15.0</ele><time>2026-04-04T15:03:43.804Z</time></trkpt><trkpt lat="44.6284438" lon="11.4932979"><ele>15.0</ele><time>2026-04-04T15:03:44.804Z</time></trkpt><trkpt lat="44.62856" lon="11.493185"><ele>15.0</ele><time>2026-04-04T15:03:45.804Z</time></trkpt><trkpt lat="44.6287029" lon="11.4930399"><ele>15.0</ele><time>2026-04-04T15:03:46.804Z</time></trkpt><trkpt lat="44.628857" lon="11.4928941"><ele>15.0</ele><time>2026-04-04T15:03:47.805Z</time></trkpt><trkpt lat="44.6290268" lon="11.4927332"><ele>15.0</ele><time>2026-04-04T15:03:48.805Z</time></trkpt><trkpt lat="44.6292037" lon="11.4925718"><ele>15.0</ele><time>2026-04-04T15:03:49.804Z</time></trkpt><trkpt lat="44.6293752" lon="11.4924153"><ele>14.333333333333332</ele><time>2026-04-04T15:03:50.805Z</time></trkpt><trkpt lat="44.6295317" lon="11.4922691"><ele>13.666666666666666</ele><time>2026-04-04T15:03:51.803Z</time></trkpt><trkpt lat="44.6296913" lon="11.4921222"><ele>13.0</ele><time>2026-04-04T15:03:52.805Z</time></trkpt><trkpt lat="44.6298523" lon="11.4919661"><ele>13.0</ele><time>2026-04-04T15:03:53.803Z</time></trkpt><trkpt lat="44.6300126" lon="11.4917924"><ele>13.0</ele><time>2026-04-04T15:03:54.805Z</time></trkpt><trkpt lat="44.6301695" lon="11.4915913"><ele>13.0</ele><time>2026-04-04T15:03:55.804Z</time></trkpt><trkpt lat="44.630319" lon="11.4913729"><ele>12.5</ele><time>2026-04-04T15:03:56.803Z</time></trkpt><trkpt lat="44.6304681" lon="11.4911401"><ele>12.0</ele><time>2026-04-04T15:03:57.805Z</time></trkpt><trkpt lat="44.6306164" lon="11.4908965"><ele>12.0</ele><time>2026-04-04T15:03:58.805Z</time></trkpt><trkpt lat="44.6307656" lon="11.4906356"><ele>12.0</ele><time>2026-04-04T15:03:59.805Z</time></trkpt><trkpt lat="44.6309163" lon="11.4903602"><ele>12.0</ele><time>2026-04-04T15:04:00.804Z</time></trkpt><trkpt lat="44.631068" lon="11.490074"><ele>12.0</ele><time>2026-04-04T15:04:01.805Z</time></trkpt><trkpt lat="44.6312202" lon="11.489787"><ele>11.0</ele><time>2026-04-04T15:04:02.803Z</time></trkpt><trkpt lat="44.6313725" lon="11.4894991"><ele>10.0</ele><time>2026-04-04T15:04:03.803Z</time></trkpt><trkpt lat="44.631523" lon="11.4892116"><ele>10.0</ele><time>2026-04-04T15:04:04.804Z</time></trkpt><trkpt lat="44.631672" lon="11.4889289"><ele>10.0</ele><time>2026-04-04T15:04:05.803Z</time></trkpt><trkpt lat="44.6318191" lon="11.4886528"><ele>11.0</ele><time>2026-04-04T15:04:06.805Z</time></trkpt><trkpt lat="44.6319623" lon="11.4883867"><ele>12.0</ele><time>2026-04-04T15:04:07.805Z</time></trkpt><trkpt lat="44.6320945" lon="11.4881317"><ele>12.0</ele><time>2026-04-04T15:04:08.805Z</time></trkpt><trkpt lat="44.6322157" lon="11.4878952"><ele>12.0</ele><time>2026-04-04T15:04:09.805Z</time></trkpt><trkpt lat="44.6323292" lon="11.4876755"><ele>12.0</ele><time>2026-04-04T15:04:10.805Z</time></trkpt><trkpt lat="44.6324356" lon="11.4874687"><ele>12.0</ele><time>2026-04-04T15:04:11.804Z</time></trkpt><trkpt lat="44.6325329" lon="11.4872719"><ele>12.0</ele><time>2026-04-04T15:04:12.803Z</time></trkpt><trkpt lat="44.6326233" lon="11.4870905"><ele>12.0</ele><time>2026-04-04T15:04:13.804Z</time></trkpt><trkpt lat="44.6327157" lon="11.4869304"><ele>12.0</ele><time>2026-04-04T15:04:14.804Z</time></trkpt><trkpt lat="44.6328171" lon="11.4868015"><ele>12.0</ele><time>2026-04-04T15:04:15.805Z</time></trkpt><trkpt lat="44.6329276" lon="11.4867194"><ele>12.0</ele><time>2026-04-04T15:04:16.805Z</time></trkpt><trkpt lat="44.6330354" lon="11.4866556"><ele>12.0</ele><time>2026-04-04T15:04:17.805Z</time></trkpt><trkpt lat="44.6331109" lon="11.4865612"><ele>12.0</ele><time>2026-04-04T15:04:18.805Z</time></trkpt><trkpt lat="44.6331516" lon="11.4864281"><ele>12.0</ele><time>2026-04-04T15:04:19.803Z</time></trkpt><trkpt lat="44.6331606" lon="11.4862756"><ele>12.0</ele><time>2026-04-04T15:04:20.803Z</time></trkpt><trkpt lat="44.6331721" lon="11.4861062"><ele>12.0</ele><time>2026-04-04T15:04:21.804Z</time></trkpt><trkpt lat="44.633221" lon="11.4859209"><ele>11.666666666666666</ele><time>2026-04-04T15:04:22.804Z</time></trkpt><trkpt lat="44.6332914" lon="11.4857207"><ele>11.333333333333332</ele><time>2026-04-04T15:04:23.804Z</time></trkpt><trkpt lat="44.6333711" lon="11.4855022"><ele>11.0</ele><time>2026-04-04T15:04:24.804Z</time></trkpt><trkpt lat="44.6334583" lon="11.4852584"><ele>10.666666666666666</ele><time>2026-04-04T15:04:25.803Z</time></trkpt><trkpt lat="44.63355" lon="11.4849914"><ele>10.333333333333334</ele><time>2026-04-04T15:04:26.803Z</time></trkpt><trkpt lat="44.6336514" lon="11.4847056"><ele>10.0</ele><time>2026-04-04T15:04:27.804Z</time></trkpt><trkpt lat="44.6337546" lon="11.4844046"><ele>10.666666666666668</ele><time>2026-04-04T15:04:28.804Z</time></trkpt><trkpt lat="44.6338518" lon="11.484121"><ele>11.333333333333334</ele><time>2026-04-04T15:04:29.803Z</time></trkpt><trkpt lat="44.6339422" lon="11.4838587"><ele>12.0</ele><time>2026-04-04T15:04:30.804Z</time></trkpt><trkpt lat="44.6340194" lon="11.4836254"><ele>12.0</ele><time>2026-04-04T15:04:31.803Z</time></trkpt><trkpt lat="44.6340926" lon="11.4833972"><ele>12.0</ele><time>2026-04-04T15:04:32.805Z</time></trkpt><trkpt lat="44.6341842" lon="11.4831571"><ele>12.0</ele><time>2026-04-04T15:04:33.805Z</time></trkpt><trkpt lat="44.6342989" lon="11.4829192"><ele>11.666666666666666</ele><time>2026-04-04T15:04:34.805Z</time></trkpt><trkpt lat="44.6344225" lon="11.482669"><ele>11.333333333333332</ele><time>2026-04-04T15:04:35.804Z</time></trkpt><trkpt lat="44.6345504" lon="11.4824048"><ele>11.0</ele><time>2026-04-04T15:04:36.805Z</time></trkpt><trkpt lat="44.6346808" lon="11.4821336"><ele>10.333333333333332</ele><time>2026-04-04T15:04:37.805Z</time></trkpt><trkpt lat="44.6348028" lon="11.4818813"><ele>9.666666666666666</ele><time>2026-04-04T15:04:38.805Z</time></trkpt><trkpt lat="44.6349164" lon="11.481643"><ele>9.0</ele><time>2026-04-04T15:04:39.805Z</time></trkpt><trkpt lat="44.6350219" lon="11.4814271"><ele>9.333333333333334</ele><time>2026-04-04T15:04:40.805Z</time></trkpt><trkpt lat="44.6351252" lon="11.4812224"><ele>9.666666666666668</ele><time>2026-04-04T15:04:41.804Z</time></trkpt><trkpt lat="44.6352274" lon="11.4810362"><ele>10.0</ele><time>2026-04-04T15:04:42.804Z</time></trkpt><trkpt lat="44.6353361" lon="11.4808612"><ele>10.0</ele><time>2026-04-04T15:04:43.804Z</time></trkpt><trkpt lat="44.6354451" lon="11.4806941"><ele>10.0</ele><time>2026-04-04T15:04:44.804Z</time></trkpt><trkpt lat="44.6355544" lon="11.4805288"><ele>10.0</ele><time>2026-04-04T15:04:45.802Z</time></trkpt><trkpt lat="44.6356627" lon="11.4803705"><ele>10.25</ele><time>2026-04-04T15:04:46.803Z</time></trkpt><trkpt lat="44.6357705" lon="11.4802162"><ele>10.5</ele><time>2026-04-04T15:04:47.804Z</time></trkpt><trkpt lat="44.6358746" lon="11.4800656"><ele>10.75</ele><time>2026-04-04T15:04:48.804Z</time></trkpt><trkpt lat="44.6359751" lon="11.4799186"><ele>11.0</ele><time>2026-04-04T15:04:49.803Z</time></trkpt><trkpt lat="44.6360701" lon="11.4797824"><ele>11.5</ele><time>2026-04-04T15:04:50.804Z</time></trkpt><trkpt lat="44.6361598" lon="11.479654"><ele>12.0</ele><time>2026-04-04T15:04:51.803Z</time></trkpt><trkpt lat="44.63624" lon="11.4795316"><ele>12.5</ele><time>2026-04-04T15:04:52.804Z</time></trkpt><trkpt lat="44.6363145" lon="11.4794109"><ele>13.0</ele><time>2026-04-04T15:04:53.803Z</time></trkpt><trkpt lat="44.6363832" lon="11.479288"><ele>13.0</ele><time>2026-04-04T15:04:54.803Z</time></trkpt><trkpt lat="44.636458" lon="11.4791556"><ele>13.0</ele><time>2026-04-04T15:04:55.803Z</time></trkpt><trkpt lat="44.6365443" lon="11.4790084"><ele>13.0</ele><time>2026-04-04T15:04:56.804Z</time></trkpt><trkpt lat="44.6366348" lon="11.478836"><ele>13.0</ele><time>2026-04-04T15:04:57.803Z</time></trkpt><trkpt lat="44.6367333" lon="11.4786398"><ele>13.0</ele><time>2026-04-04T15:04:58.803Z</time></trkpt><trkpt lat="44.6368383" lon="11.478419"><ele>13.0</ele><time>2026-04-04T15:04:59.804Z</time></trkpt><trkpt lat="44.6369472" lon="11.4781722"><ele>13.0</ele><time>2026-04-04T15:05:00.803Z</time></trkpt><trkpt lat="44.637063" lon="11.477899"><ele>12.5</ele><time>2026-04-04T15:05:01.804Z</time></trkpt><trkpt lat="44.6371839" lon="11.4776052"><ele>12.0</ele><time>2026-04-04T15:05:02.804Z</time></trkpt><trkpt lat="44.6373029" lon="11.4773086"><ele>11.5</ele><time>2026-04-04T15:05:03.804Z</time></trkpt><trkpt lat="44.6374173" lon="11.4770048"><ele>11.0</ele><time>2026-04-04T15:05:04.804Z</time></trkpt><trkpt lat="44.6375209" lon="11.4767162"><ele>11.0</ele><time>2026-04-04T15:05:05.804Z</time></trkpt><trkpt lat="44.6376129" lon="11.476442"><ele>11.0</ele><time>2026-04-04T15:05:06.804Z</time></trkpt><trkpt lat="44.6376942" lon="11.4761695"><ele>11.0</ele><time>2026-04-04T15:05:07.804Z</time></trkpt><trkpt lat="44.6377634" lon="11.4758808"><ele>11.333333333333332</ele><time>2026-04-04T15:05:08.804Z</time></trkpt><trkpt lat="44.6378289" lon="11.4755865"><ele>11.666666666666666</ele><time>2026-04-04T15:05:09.803Z</time></trkpt><trkpt lat="44.6379132" lon="11.4752899"><ele>12.0</ele><time>2026-04-04T15:05:10.804Z</time></trkpt><trkpt lat="44.6380105" lon="11.4749864"><ele>12.0</ele><time>2026-04-04T15:05:11.803Z</time></trkpt><trkpt lat="44.6381217" lon="11.4746746"><ele>12.0</ele><time>2026-04-04T15:05:12.803Z</time></trkpt><trkpt lat="44.6382406" lon="11.4743527"><ele>11.5</ele><time>2026-04-04T15:05:13.803Z</time></trkpt><trkpt lat="44.6383617" lon="11.4740296"><ele>11.0</ele><time>2026-04-04T15:05:14.803Z</time></trkpt><trkpt lat="44.6384817" lon="11.4737236"><ele>12.0</ele><time>2026-04-04T15:05:15.803Z</time></trkpt><trkpt lat="44.6385958" lon="11.4734462"><ele>13.0</ele><time>2026-04-04T15:05:16.802Z</time></trkpt><trkpt lat="44.6387065" lon="11.4731924"><ele>14.0</ele><time>2026-04-04T15:05:17.802Z</time></trkpt><trkpt lat="44.6388058" lon="11.4729704"><ele>14.25</ele><time>2026-04-04T15:05:18.804Z</time></trkpt><trkpt lat="44.6388881" lon="11.4727867"><ele>14.5</ele><time>2026-04-04T15:05:19.804Z</time></trkpt><trkpt lat="44.6389562" lon="11.4726351"><ele>14.75</ele><time>2026-04-04T15:05:20.804Z</time></trkpt><trkpt lat="44.6390119" lon="11.4725194"><ele>15.0</ele><time>2026-04-04T15:05:21.804Z</time></trkpt><trkpt lat="44.6390499" lon="11.4724373"><ele>15.0</ele><time>2026-04-04T15:05:22.804Z</time></trkpt><trkpt lat="44.6391045" lon="11.4723328"><ele>15.0</ele><time>2026-04-04T15:06:32.803Z</time></trkpt><trkpt lat="44.6391762" lon="11.4722623"><ele>15.0</ele><time>2026-04-04T15:06:34.803Z</time></trkpt><trkpt lat="44.6392385" lon="11.4722803"><ele>15.0</ele><time>2026-04-04T15:06:35.803Z</time></trkpt><trkpt lat="44.6393161" lon="11.4723391"><ele>15.0</ele><time>2026-04-04T15:06:36.803Z</time></trkpt><trkpt lat="44.6394137" lon="11.472436"><ele>14.0</ele><time>2026-04-04T15:06:37.803Z</time></trkpt><trkpt lat="44.6395257" lon="11.4725507"><ele>13.0</ele><time>2026-04-04T15:06:38.804Z</time></trkpt><trkpt lat="44.6396635" lon="11.4726834"><ele>12.0</ele><time>2026-04-04T15:06:39.803Z</time></trkpt><trkpt lat="44.639814" lon="11.4728222"><ele>12.333333333333332</ele><time>2026-04-04T15:06:40.804Z</time></trkpt><trkpt lat="44.6399755" lon="11.4729727"><ele>12.666666666666666</ele><time>2026-04-04T15:06:41.804Z</time></trkpt><trkpt lat="44.6401493" lon="11.4731382"><ele>13.0</ele><time>2026-04-04T15:06:42.803Z</time></trkpt><trkpt lat="44.6403388" lon="11.473318"><ele>12.0</ele><time>2026-04-04T15:06:43.804Z</time></trkpt><trkpt lat="44.6405373" lon="11.4735052"><ele>11.0</ele><time>2026-04-04T15:06:44.804Z</time></trkpt><trkpt lat="44.640744" lon="11.473705"><ele>11.0</ele><time>2026-04-04T15:06:45.804Z</time></trkpt><trkpt lat="44.6409642" lon="11.4739128"><ele>11.0</ele><time>2026-04-04T15:06:46.803Z</time></trkpt><trkpt lat="44.6411923" lon="11.4741266"><ele>11.0</ele><time>2026-04-04T15:06:47.803Z</time></trkpt><trkpt lat="44.6414292" lon="11.4743476"><ele>11.0</ele><time>2026-04-04T15:06:48.803Z</time></trkpt><trkpt lat="44.6416678" lon="11.4745648"><ele>11.5</ele><time>2026-04-04T15:06:49.802Z</time></trkpt><trkpt lat="44.6419111" lon="11.4747898"><ele>12.0</ele><time>2026-04-04T15:06:50.803Z</time></trkpt><trkpt lat="44.6421569" lon="11.475021"><ele>12.0</ele><time>2026-04-04T15:06:51.803Z</time></trkpt><trkpt lat="44.6424015" lon="11.4752532"><ele>12.0</ele><time>2026-04-04T15:06:52.804Z</time></trkpt><trkpt lat="44.6426474" lon="11.4754786"><ele>11.5</ele><time>2026-04-04T15:06:53.804Z</time></trkpt><trkpt lat="44.642891" lon="11.4757103"><ele>11.0</ele><time>2026-04-04T15:06:54.804Z</time></trkpt><trkpt lat="44.6431385" lon="11.475937"><ele>11.0</ele><time>2026-04-04T15:06:55.804Z</time></trkpt><trkpt lat="44.6433838" lon="11.4761653"><ele>11.0</ele><time>2026-04-04T15:06:56.803Z</time></trkpt><trkpt lat="44.6436284" lon="11.4763939"><ele>11.0</ele><time>2026-04-04T15:06:57.804Z</time></trkpt><trkpt lat="44.6438726" lon="11.4766194"><ele>11.0</ele><time>2026-04-04T15:06:58.803Z</time></trkpt><trkpt lat="44.6441192" lon="11.4768481"><ele>11.0</ele><time>2026-04-04T15:06:59.803Z</time></trkpt><trkpt lat="44.6443645" lon="11.4770768"><ele>11.0</ele><time>2026-04-04T15:07:00.804Z</time></trkpt><trkpt lat="44.6446099" lon="11.4773042"><ele>12.0</ele><time>2026-04-04T15:07:01.804Z</time></trkpt><trkpt lat="44.6448557" lon="11.4775285"><ele>13.0</ele><time>2026-04-04T15:07:02.804Z</time></trkpt><trkpt lat="44.6451016" lon="11.477757"><ele>13.5</ele><time>2026-04-04T15:07:03.804Z</time></trkpt><trkpt lat="44.6453438" lon="11.4779847"><ele>14.0</ele><time>2026-04-04T15:07:04.804Z</time></trkpt><trkpt lat="44.6455908" lon="11.4782148"><ele>14.0</ele><time>2026-04-04T15:07:05.804Z</time></trkpt><trkpt lat="44.6458353" lon="11.4784412"><ele>14.0</ele><time>2026-04-04T15:07:06.804Z</time></trkpt><trkpt lat="44.6460762" lon="11.4786643"><ele>13.5</ele><time>2026-04-04T15:07:07.804Z</time></trkpt><trkpt lat="44.6463188" lon="11.478889"><ele>13.0</ele><time>2026-04-04T15:07:08.803Z</time></trkpt><trkpt lat="44.6465608" lon="11.4791133"><ele>13.0</ele><time>2026-04-04T15:07:09.802Z</time></trkpt><trkpt lat="44.6467977" lon="11.4793389"><ele>13.0</ele><time>2026-04-04T15:07:10.803Z</time></trkpt><trkpt lat="44.6470368" lon="11.4795628"><ele>13.5</ele><time>2026-04-04T15:07:11.803Z</time></trkpt><trkpt lat="44.647277" lon="11.4797818"><ele>14.0</ele><time>2026-04-04T15:07:12.804Z</time></trkpt><trkpt lat="44.6475156" lon="11.4800032"><ele>14.0</ele><time>2026-04-04T15:07:13.804Z</time></trkpt><trkpt lat="44.6477542" lon="11.4802239"><ele>14.0</ele><time>2026-04-04T15:07:14.804Z</time></trkpt><trkpt lat="44.6479912" lon="11.4804421"><ele>14.0</ele><time>2026-04-04T15:07:15.804Z</time></trkpt><trkpt lat="44.6482278" lon="11.4806637"><ele>14.0</ele><time>2026-04-04T15:07:16.804Z</time></trkpt><trkpt lat="44.648464" lon="11.4808839"><ele>14.0</ele><time>2026-04-04T15:07:17.804Z</time></trkpt><trkpt lat="44.6487019" lon="11.4811006"><ele>14.0</ele><time>2026-04-04T15:07:18.803Z</time></trkpt><trkpt lat="44.6489407" lon="11.4813219"><ele>14.0</ele><time>2026-04-04T15:07:19.804Z</time></trkpt><trkpt lat="44.6491769" lon="11.4815437"><ele>14.0</ele><time>2026-04-04T15:07:20.803Z</time></trkpt><trkpt lat="44.6494133" lon="11.4817635"><ele>13.5</ele><time>2026-04-04T15:07:21.803Z</time></trkpt><trkpt lat="44.6496475" lon="11.4819833"><ele>13.0</ele><time>2026-04-04T15:07:22.803Z</time></trkpt><trkpt lat="44.6498834" lon="11.4822043"><ele>13.0</ele><time>2026-04-04T15:07:23.802Z</time></trkpt><trkpt lat="44.6501172" lon="11.4824215"><ele>13.0</ele><time>2026-04-04T15:07:24.804Z</time></trkpt><trkpt lat="44.6503527" lon="11.4826316"><ele>12.5</ele><time>2026-04-04T15:07:25.804Z</time></trkpt><trkpt lat="44.6505873" lon="11.4828349"><ele>12.0</ele><time>2026-04-04T15:07:26.804Z</time></trkpt><trkpt lat="44.6508225" lon="11.4830323"><ele>12.0</ele><time>2026-04-04T15:07:27.804Z</time></trkpt><trkpt lat="44.651059" lon="11.4832279"><ele>12.0</ele><time>2026-04-04T15:07:28.803Z</time></trkpt><trkpt lat="44.6512949" lon="11.4834234"><ele>11.5</ele><time>2026-04-04T15:07:29.804Z</time></trkpt><trkpt lat="44.6515236" lon="11.4836182"><ele>11.0</ele><time>2026-04-04T15:07:30.804Z</time></trkpt><trkpt lat="44.6517503" lon="11.4838178"><ele>12.0</ele><time>2026-04-04T15:07:31.804Z</time></trkpt><trkpt lat="44.6519744" lon="11.4840226"><ele>13.0</ele><time>2026-04-04T15:07:32.804Z</time></trkpt><trkpt lat="44.6521985" lon="11.4842246"><ele>13.0</ele><time>2026-04-04T15:07:33.804Z</time></trkpt><trkpt lat="44.6524229" lon="11.484425"><ele>13.0</ele><time>2026-04-04T15:07:34.804Z</time></trkpt><trkpt lat="44.6526475" lon="11.4846281"><ele>14.0</ele><time>2026-04-04T15:07:35.804Z</time></trkpt><trkpt lat="44.6528701" lon="11.4848314"><ele>15.0</ele><time>2026-04-04T15:07:36.804Z</time></trkpt><trkpt lat="44.653092" lon="11.4850415"><ele>15.0</ele><time>2026-04-04T15:07:37.803Z</time></trkpt><trkpt lat="44.6533132" lon="11.4852523"><ele>15.0</ele><time>2026-04-04T15:07:38.804Z</time></trkpt><trkpt lat="44.6535296" lon="11.485468"><ele>14.0</ele><time>2026-04-04T15:07:39.803Z</time></trkpt><trkpt lat="44.6537415" lon="11.485688"><ele>13.0</ele><time>2026-04-04T15:07:40.803Z</time></trkpt><trkpt lat="44.6539519" lon="11.4859121"><ele>13.0</ele><time>2026-04-04T15:07:41.803Z</time></trkpt><trkpt lat="44.6541623" lon="11.4861351"><ele>13.0</ele><time>2026-04-04T15:07:42.803Z</time></trkpt><trkpt lat="44.6543783" lon="11.4863485"><ele>12.5</ele><time>2026-04-04T15:07:43.802Z</time></trkpt><trkpt lat="44.6545963" lon="11.4865493"><ele>12.0</ele><time>2026-04-04T15:07:44.802Z</time></trkpt><trkpt lat="44.6548163" lon="11.4867428"><ele>12.0</ele><time>2026-04-04T15:07:45.802Z</time></trkpt><trkpt lat="44.6550326" lon="11.486935"><ele>12.0</ele><time>2026-04-04T15:07:46.802Z</time></trkpt><trkpt lat="44.6552486" lon="11.4871289"><ele>12.5</ele><time>2026-04-04T15:07:47.801Z</time></trkpt><trkpt lat="44.6554669" lon="11.4873225"><ele>13.0</ele><time>2026-04-04T15:07:48.802Z</time></trkpt><trkpt lat="44.6556867" lon="11.4875191"><ele>13.0</ele><time>2026-04-04T15:07:49.802Z</time></trkpt><trkpt lat="44.6559053" lon="11.4877259"><ele>13.0</ele><time>2026-04-04T15:07:50.803Z</time></trkpt><trkpt lat="44.6561318" lon="11.4879407"><ele>12.0</ele><time>2026-04-04T15:07:51.803Z</time></trkpt><trkpt lat="44.6563654" lon="11.4881589"><ele>11.0</ele><time>2026-04-04T15:07:52.803Z</time></trkpt><trkpt lat="44.6566042" lon="11.4883833"><ele>11.0</ele><time>2026-04-04T15:07:53.802Z</time></trkpt><trkpt lat="44.6568404" lon="11.4886242"><ele>11.0</ele><time>2026-04-04T15:07:54.803Z</time></trkpt><trkpt lat="44.6570753" lon="11.4888537"><ele>11.0</ele><time>2026-04-04T15:07:55.803Z</time></trkpt><trkpt lat="44.6573063" lon="11.4890759"><ele>11.0</ele><time>2026-04-04T15:07:56.803Z</time></trkpt><trkpt lat="44.6575407" lon="11.4892975"><ele>11.0</ele><time>2026-04-04T15:07:57.803Z</time></trkpt><trkpt lat="44.6577755" lon="11.4895217"><ele>11.0</ele><time>2026-04-04T15:07:58.802Z</time></trkpt><trkpt lat="44.658013" lon="11.4897462"><ele>12.0</ele><time>2026-04-04T15:07:59.803Z</time></trkpt><trkpt lat="44.6582513" lon="11.4899684"><ele>13.0</ele><time>2026-04-04T15:08:00.802Z</time></trkpt><trkpt lat="44.6584806" lon="11.4901835"><ele>13.0</ele><time>2026-04-04T15:08:01.803Z</time></trkpt><trkpt lat="44.6586919" lon="11.4903821"><ele>13.0</ele><time>2026-04-04T15:08:02.803Z</time></trkpt><trkpt lat="44.6588911" lon="11.4905685"><ele>13.0</ele><time>2026-04-04T15:08:03.802Z</time></trkpt><trkpt lat="44.6590776" lon="11.4907465"><ele>13.0</ele><time>2026-04-04T15:08:04.803Z</time></trkpt><trkpt lat="44.659254" lon="11.4909131"><ele>13.0</ele><time>2026-04-04T15:08:05.803Z</time></trkpt><trkpt lat="44.6594254" lon="11.4910753"><ele>12.666666666666666</ele><time>2026-04-04T15:08:06.802Z</time></trkpt><trkpt lat="44.6595847" lon="11.4912229"><ele>12.333333333333332</ele><time>2026-04-04T15:08:07.803Z</time></trkpt><trkpt lat="44.6597319" lon="11.4913364"><ele>12.0</ele><time>2026-04-04T15:08:08.802Z</time></trkpt><trkpt lat="44.659883" lon="11.4914001"><ele>12.0</ele><time>2026-04-04T15:08:09.802Z</time></trkpt><trkpt lat="44.6600317" lon="11.4914227"><ele>12.0</ele><time>2026-04-04T15:08:10.802Z</time></trkpt><trkpt lat="44.6601714" lon="11.4914276"><ele>12.0</ele><time>2026-04-04T15:08:11.803Z</time></trkpt><trkpt lat="44.6603" lon="11.4914556"><ele>12.0</ele><time>2026-04-04T15:08:12.803Z</time></trkpt><trkpt lat="44.660413" lon="11.4915235"><ele>12.0</ele><time>2026-04-04T15:08:13.803Z</time></trkpt><trkpt lat="44.6605049" lon="11.4916088"><ele>12.0</ele><time>2026-04-04T15:08:14.803Z</time></trkpt><trkpt lat="44.660601" lon="11.4916297"><ele>12.0</ele><time>2026-04-04T15:08:15.802Z</time></trkpt><trkpt lat="44.66068" lon="11.491565"><ele>12.0</ele><time>2026-04-04T15:08:16.803Z</time></trkpt><trkpt lat="44.6607515" lon="11.4914527"><ele>12.0</ele><time>2026-04-04T15:08:17.802Z</time></trkpt><trkpt lat="44.6608201" lon="11.4913139"><ele>11.666666666666666</ele><time>2026-04-04T15:08:18.802Z</time></trkpt><trkpt lat="44.6609317" lon="11.4911943"><ele>11.333333333333332</ele><time>2026-04-04T15:08:19.803Z</time></trkpt><trkpt lat="44.6610691" lon="11.4910652"><ele>11.0</ele><time>2026-04-04T15:08:20.802Z</time></trkpt><trkpt lat="44.6612021" lon="11.4908826"><ele>11.0</ele><time>2026-04-04T15:08:21.803Z</time></trkpt><trkpt lat="44.6613143" lon="11.4906745"><ele>11.0</ele><time>2026-04-04T15:08:22.802Z</time></trkpt><trkpt lat="44.6614031" lon="11.4904643"><ele>11.0</ele><time>2026-04-04T15:08:23.802Z</time></trkpt><trkpt lat="44.6614746" lon="11.4902564"><ele>11.0</ele><time>2026-04-04T15:08:24.802Z</time></trkpt><trkpt lat="44.6615348" lon="11.490054"><ele>11.0</ele><time>2026-04-04T15:08:25.803Z</time></trkpt><trkpt lat="44.6615874" lon="11.4898637"><ele>11.0</ele><time>2026-04-04T15:08:26.802Z</time></trkpt><trkpt lat="44.6616393" lon="11.4896855"><ele>11.0</ele><time>2026-04-04T15:08:27.803Z</time></trkpt><trkpt lat="44.6616905" lon="11.4895189"><ele>11.0</ele><time>2026-04-04T15:08:28.803Z</time></trkpt><trkpt lat="44.6617381" lon="11.489361"><ele>11.0</ele><time>2026-04-04T15:08:29.803Z</time></trkpt><trkpt lat="44.661784" lon="11.4892035"><ele>11.0</ele><time>2026-04-04T15:08:30.803Z</time></trkpt><trkpt lat="44.6618297" lon="11.4890467"><ele>11.0</ele><time>2026-04-04T15:08:31.803Z</time></trkpt><trkpt lat="44.6618759" lon="11.4888905"><ele>10.75</ele><time>2026-04-04T15:08:32.802Z</time></trkpt><trkpt lat="44.6619206" lon="11.4887335"><ele>10.5</ele><time>2026-04-04T15:08:33.803Z</time></trkpt><trkpt lat="44.6619663" lon="11.4885753"><ele>10.25</ele><time>2026-04-04T15:08:34.802Z</time></trkpt><trkpt lat="44.6620105" lon="11.4884162"><ele>10.0</ele><time>2026-04-04T15:08:35.803Z</time></trkpt><trkpt lat="44.6620587" lon="11.4882494"><ele>10.6</ele><time>2026-04-04T15:08:36.803Z</time></trkpt><trkpt lat="44.6621066" lon="11.4880884"><ele>11.2</ele><time>2026-04-04T15:08:37.803Z</time></trkpt><trkpt lat="44.662151" lon="11.487936"><ele>11.8</ele><time>2026-04-04T15:08:38.802Z</time></trkpt><trkpt lat="44.6621898" lon="11.4877945"><ele>12.4</ele><time>2026-04-04T15:08:39.802Z</time></trkpt><trkpt lat="44.6622259" lon="11.487669"><ele>13.0</ele><time>2026-04-04T15:08:40.803Z</time></trkpt><trkpt lat="44.6622615" lon="11.4875543"><ele>13.0</ele><time>2026-04-04T15:08:41.803Z</time></trkpt><trkpt lat="44.6622943" lon="11.4874434"><ele>13.0</ele><time>2026-04-04T15:08:42.803Z</time></trkpt><trkpt lat="44.6623286" lon="11.4873219"><ele>13.0</ele><time>2026-04-04T15:08:43.803Z</time></trkpt><trkpt lat="44.6623656" lon="11.4871959"><ele>13.0</ele><time>2026-04-04T15:08:44.803Z</time></trkpt><trkpt lat="44.6624011" lon="11.4870696"><ele>13.0</ele><time>2026-04-04T15:08:45.802Z</time></trkpt><trkpt lat="44.6624362" lon="11.4869426"><ele>13.2</ele><time>2026-04-04T15:08:46.802Z</time></trkpt><trkpt lat="44.6624739" lon="11.4868098"><ele>13.4</ele><time>2026-04-04T15:08:47.802Z</time></trkpt><trkpt lat="44.6625183" lon="11.4866779"><ele>13.599999999999998</ele><time>2026-04-04T15:08:48.802Z</time></trkpt><trkpt lat="44.6625674" lon="11.4865475"><ele>13.799999999999999</ele><time>2026-04-04T15:08:49.802Z</time></trkpt><trkpt lat="44.6626239" lon="11.4864122"><ele>14.0</ele><time>2026-04-04T15:08:50.802Z</time></trkpt><trkpt lat="44.6626869" lon="11.4862913"><ele>14.0</ele><time>2026-04-04T15:08:51.802Z</time></trkpt><trkpt lat="44.6627611" lon="11.4861806"><ele>13.999999999999998</ele><time>2026-04-04T15:08:52.801Z</time></trkpt><trkpt lat="44.6628481" lon="11.486083"><ele>13.999999999999998</ele><time>2026-04-04T15:08:53.801Z</time></trkpt><trkpt lat="44.6629411" lon="11.486002"><ele>14.0</ele><time>2026-04-04T15:08:54.802Z</time></trkpt><trkpt lat="44.6630359" lon="11.4859412"><ele>14.0</ele><time>2026-04-04T15:08:55.803Z</time></trkpt><trkpt lat="44.6631373" lon="11.4859006"><ele>14.0</ele><time>2026-04-04T15:08:56.803Z</time></trkpt><trkpt lat="44.663239" lon="11.485884"><ele>13.999999999999998</ele><time>2026-04-04T15:08:57.803Z</time></trkpt><trkpt lat="44.6633347" lon="11.4858868"><ele>13.999999999999998</ele><time>2026-04-04T15:08:58.803Z</time></trkpt><trkpt lat="44.6634335" lon="11.4859027"><ele>14.0</ele><time>2026-04-04T15:08:59.802Z</time></trkpt><trkpt lat="44.6635301" lon="11.485938"><ele>14.0</ele><time>2026-04-04T15:09:00.802Z</time></trkpt><trkpt lat="44.663619" lon="11.4859855"><ele>14.0</ele><time>2026-04-04T15:09:01.802Z</time></trkpt><trkpt lat="44.6637018" lon="11.4860396"><ele>13.999999999999998</ele><time>2026-04-04T15:09:02.802Z</time></trkpt><trkpt lat="44.6637861" lon="11.4860884"><ele>13.999999999999998</ele><time>2026-04-04T15:09:03.802Z</time></trkpt><trkpt lat="44.6638755" lon="11.486141"><ele>14.0</ele><time>2026-04-04T15:09:04.801Z</time></trkpt><trkpt lat="44.6639664" lon="11.4861991"><ele>14.0</ele><time>2026-04-04T15:09:05.802Z</time></trkpt><trkpt lat="44.6640546" lon="11.4862509"><ele>14.0</ele><time>2026-04-04T15:09:06.802Z</time></trkpt><trkpt lat="44.6641366" lon="11.4863016"><ele>13.999999999999998</ele><time>2026-04-04T15:09:07.803Z</time></trkpt><trkpt lat="44.6642209" lon="11.4863501"><ele>13.999999999999998</ele><time>2026-04-04T15:09:08.803Z</time></trkpt><trkpt lat="44.6643172" lon="11.4864136"><ele>14.0</ele><time>2026-04-04T15:09:09.803Z</time></trkpt><trkpt lat="44.6644249" lon="11.4864824"><ele>14.0</ele><time>2026-04-04T15:09:10.803Z</time></trkpt><trkpt lat="44.6645291" lon="11.4865573"><ele>14.25</ele><time>2026-04-04T15:09:11.803Z</time></trkpt><trkpt lat="44.6646229" lon="11.4866238"><ele>14.5</ele><time>2026-04-04T15:09:12.803Z</time></trkpt><trkpt lat="44.6647205" lon="11.4866877"><ele>14.75</ele><time>2026-04-04T15:09:13.802Z</time></trkpt><trkpt lat="44.6648334" lon="11.486762"><ele>15.0</ele><time>2026-04-04T15:09:14.802Z</time></trkpt><trkpt lat="44.6649542" lon="11.4868587"><ele>15.0</ele><time>2026-04-04T15:09:15.802Z</time></trkpt><trkpt lat="44.6650762" lon="11.4869494"><ele>15.0</ele><time>2026-04-04T15:09:16.802Z</time></trkpt><trkpt lat="44.665197" lon="11.4870346"><ele>15.0</ele><time>2026-04-04T15:09:17.803Z</time></trkpt><trkpt lat="44.6653211" lon="11.4871229"><ele>15.0</ele><time>2026-04-04T15:09:18.803Z</time></trkpt><trkpt lat="44.6654581" lon="11.4872157"><ele>14.75</ele><time>2026-04-04T15:09:19.803Z</time></trkpt><trkpt lat="44.6655806" lon="11.48731"><ele>14.5</ele><time>2026-04-04T15:09:20.803Z</time></trkpt><trkpt lat="44.6656988" lon="11.4873947"><ele>14.25</ele><time>2026-04-04T15:09:21.803Z</time></trkpt><trkpt lat="44.6658231" lon="11.4874722"><ele>14.0</ele><time>2026-04-04T15:09:22.803Z</time></trkpt><trkpt lat="44.6659435" lon="11.4875501"><ele>14.0</ele><time>2026-04-04T15:09:23.801Z</time></trkpt><trkpt lat="44.6660709" lon="11.4876247"><ele>14.0</ele><time>2026-04-04T15:09:24.802Z</time></trkpt><trkpt lat="44.6662131" lon="11.4877097"><ele>14.0</ele><time>2026-04-04T15:09:25.802Z</time></trkpt><trkpt lat="44.6663602" lon="11.4878222"><ele>14.0</ele><time>2026-04-04T15:09:26.802Z</time></trkpt><trkpt lat="44.6664969" lon="11.487924"><ele>14.0</ele><time>2026-04-04T15:09:27.802Z</time></trkpt><trkpt lat="44.6666297" lon="11.4880125"><ele>14.0</ele><time>2026-04-04T15:09:28.802Z</time></trkpt><trkpt lat="44.6667703" lon="11.488097"><ele>14.0</ele><time>2026-04-04T15:09:29.803Z</time></trkpt><trkpt lat="44.6669176" lon="11.4881741"><ele>14.0</ele><time>2026-04-04T15:09:30.802Z</time></trkpt><trkpt lat="44.6670598" lon="11.4882492"><ele>14.0</ele><time>2026-04-04T15:09:31.802Z</time></trkpt><trkpt lat="44.6671975" lon="11.4883237"><ele>14.25</ele><time>2026-04-04T15:09:32.802Z</time></trkpt><trkpt lat="44.6673294" lon="11.4883959"><ele>14.5</ele><time>2026-04-04T15:09:33.802Z</time></trkpt><trkpt lat="44.6674617" lon="11.4884668"><ele>14.75</ele><time>2026-04-04T15:09:34.802Z</time></trkpt><trkpt lat="44.6675857" lon="11.4885285"><ele>15.0</ele><time>2026-04-04T15:09:35.802Z</time></trkpt><trkpt lat="44.6676955" lon="11.4885785"><ele>14.8</ele><time>2026-04-04T15:09:36.803Z</time></trkpt><trkpt lat="44.6677909" lon="11.488626"><ele>14.6</ele><time>2026-04-04T15:09:37.801Z</time></trkpt><trkpt lat="44.6678757" lon="11.4886671"><ele>14.399999999999999</ele><time>2026-04-04T15:09:38.803Z</time></trkpt><trkpt lat="44.6679807" lon="11.4887149"><ele>14.2</ele><time>2026-04-04T15:09:39.802Z</time></trkpt><trkpt lat="44.6680939" lon="11.488778"><ele>14.0</ele><time>2026-04-04T15:09:40.803Z</time></trkpt><trkpt lat="44.6681917" lon="11.4888592"><ele>14.0</ele><time>2026-04-04T15:09:41.802Z</time></trkpt><trkpt lat="44.6683379" lon="11.4889359"><ele>14.0</ele><time>2026-04-04T15:09:42.802Z</time></trkpt><trkpt lat="44.6685033" lon="11.489009"><ele>14.0</ele><time>2026-04-04T15:09:43.803Z</time></trkpt><trkpt lat="44.6686501" lon="11.4890737"><ele>14.5</ele><time>2026-04-04T15:09:44.802Z</time></trkpt><trkpt lat="44.6687831" lon="11.4891298"><ele>15.0</ele><time>2026-04-04T15:09:45.802Z</time></trkpt><trkpt lat="44.6689026" lon="11.489176"><ele>15.5</ele><time>2026-04-04T15:09:46.803Z</time></trkpt><trkpt lat="44.6690107" lon="11.489215"><ele>16.0</ele><time>2026-04-04T15:09:47.802Z</time></trkpt><trkpt lat="44.6691116" lon="11.4892526"><ele>16.0</ele><time>2026-04-04T15:09:48.802Z</time></trkpt><trkpt lat="44.6692203" lon="11.4892944"><ele>16.0</ele><time>2026-04-04T15:09:49.803Z</time></trkpt><trkpt lat="44.6693585" lon="11.4893541"><ele>16.0</ele><time>2026-04-04T15:09:50.803Z</time></trkpt><trkpt lat="44.6695175" lon="11.4894289"><ele>16.0</ele><time>2026-04-04T15:09:51.801Z</time></trkpt><trkpt lat="44.6697008" lon="11.4895049"><ele>15.5</ele><time>2026-04-04T15:09:52.801Z</time></trkpt><trkpt lat="44.6699105" lon="11.4895839"><ele>15.0</ele><time>2026-04-04T15:09:53.802Z</time></trkpt><trkpt lat="44.6701386" lon="11.4896724"><ele>14.5</ele><time>2026-04-04T15:09:54.803Z</time></trkpt><trkpt lat="44.670373" lon="11.4897659"><ele>14.0</ele><time>2026-04-04T15:09:55.803Z</time></trkpt><trkpt lat="44.6706261" lon="11.4898638"><ele>14.0</ele><time>2026-04-04T15:09:56.803Z</time></trkpt><trkpt lat="44.6708831" lon="11.4899596"><ele>14.0</ele><time>2026-04-04T15:09:57.803Z</time></trkpt><trkpt lat="44.6711301" lon="11.4900501"><ele>14.333333333333334</ele><time>2026-04-04T15:09:58.803Z</time></trkpt><trkpt lat="44.6713553" lon="11.4901323"><ele>14.666666666666668</ele><time>2026-04-04T15:09:59.803Z</time></trkpt><trkpt lat="44.6715617" lon="11.4902081"><ele>15.0</ele><time>2026-04-04T15:10:00.803Z</time></trkpt><trkpt lat="44.6717225" lon="11.4902591"><ele>15.0</ele><time>2026-04-04T15:10:01.803Z</time></trkpt><trkpt lat="44.671878" lon="11.4903048"><ele>15.0</ele><time>2026-04-04T15:10:02.803Z</time></trkpt><trkpt lat="44.6720326" lon="11.4903633"><ele>15.0</ele><time>2026-04-04T15:10:03.802Z</time></trkpt><trkpt lat="44.6722035" lon="11.490433"><ele>15.0</ele><time>2026-04-04T15:10:04.802Z</time></trkpt><trkpt lat="44.6723766" lon="11.490497"><ele>15.0</ele><time>2026-04-04T15:10:05.802Z</time></trkpt><trkpt lat="44.6725554" lon="11.4905589"><ele>15.0</ele><time>2026-04-04T15:10:06.802Z</time></trkpt><trkpt lat="44.6727314" lon="11.4906212"><ele>14.0</ele><time>2026-04-04T15:10:07.803Z</time></trkpt><trkpt lat="44.6729063" lon="11.4906829"><ele>13.0</ele><time>2026-04-04T15:10:08.802Z</time></trkpt><trkpt lat="44.6730858" lon="11.4907514"><ele>12.0</ele><time>2026-04-04T15:10:09.803Z</time></trkpt><trkpt lat="44.6732713" lon="11.4908287"><ele>12.0</ele><time>2026-04-04T15:10:10.803Z</time></trkpt><trkpt lat="44.6734554" lon="11.4909118"><ele>12.0</ele><time>2026-04-04T15:10:11.803Z</time></trkpt><trkpt lat="44.6736429" lon="11.4910031"><ele>12.0</ele><time>2026-04-04T15:10:12.802Z</time></trkpt><trkpt lat="44.6738387" lon="11.4910977"><ele>12.0</ele><time>2026-04-04T15:10:13.802Z</time></trkpt><trkpt lat="44.6740457" lon="11.4911971"><ele>12.0</ele><time>2026-04-04T15:10:14.803Z</time></trkpt><trkpt lat="44.6742573" lon="11.4913039"><ele>12.0</ele><time>2026-04-04T15:10:15.803Z</time></trkpt><trkpt lat="44.6744604" lon="11.4914085"><ele>11.666666666666666</ele><time>2026-04-04T15:10:16.803Z</time></trkpt><trkpt lat="44.6746483" lon="11.4915153"><ele>11.333333333333332</ele><time>2026-04-04T15:10:17.803Z</time></trkpt><trkpt lat="44.6748253" lon="11.4916128"><ele>11.0</ele><time>2026-04-04T15:10:18.803Z</time></trkpt><trkpt lat="44.6749922" lon="11.4917007"><ele>11.0</ele><time>2026-04-04T15:10:19.803Z</time></trkpt><trkpt lat="44.6751495" lon="11.4917834"><ele>11.0</ele><time>2026-04-04T15:10:20.801Z</time></trkpt><trkpt lat="44.675299" lon="11.4918608"><ele>11.0</ele><time>2026-04-04T15:10:21.802Z</time></trkpt><trkpt lat="44.6754418" lon="11.4919474"><ele>11.0</ele><time>2026-04-04T15:10:22.802Z</time></trkpt><trkpt lat="44.6755761" lon="11.4920385"><ele>11.0</ele><time>2026-04-04T15:10:23.803Z</time></trkpt><trkpt lat="44.6757177" lon="11.4921428"><ele>11.0</ele><time>2026-04-04T15:10:24.801Z</time></trkpt><trkpt lat="44.6758737" lon="11.4922654"><ele>11.0</ele><time>2026-04-04T15:10:25.801Z</time></trkpt><trkpt lat="44.6760395" lon="11.4924115"><ele>11.0</ele><time>2026-04-04T15:10:26.802Z</time></trkpt><trkpt lat="44.6762187" lon="11.4925742"><ele>11.0</ele><time>2026-04-04T15:10:27.801Z</time></trkpt><trkpt lat="44.6764138" lon="11.4927428"><ele>11.0</ele><time>2026-04-04T15:10:28.802Z</time></trkpt><trkpt lat="44.6766244" lon="11.4929214"><ele>11.0</ele><time>2026-04-04T15:10:29.803Z</time></trkpt><trkpt lat="44.6768454" lon="11.4931184"><ele>11.0</ele><time>2026-04-04T15:10:30.803Z</time></trkpt><trkpt lat="44.6770722" lon="11.4933182"><ele>11.0</ele><time>2026-04-04T15:10:31.803Z</time></trkpt><trkpt lat="44.6773067" lon="11.4935187"><ele>11.0</ele><time>2026-04-04T15:10:32.803Z</time></trkpt><trkpt lat="44.6775456" lon="11.4937229"><ele>11.0</ele><time>2026-04-04T15:10:33.802Z</time></trkpt><trkpt lat="44.6777878" lon="11.4939265"><ele>11.0</ele><time>2026-04-04T15:10:34.802Z</time></trkpt><trkpt lat="44.6780153" lon="11.4941184"><ele>11.0</ele><time>2026-04-04T15:10:35.802Z</time></trkpt><trkpt lat="44.6782258" lon="11.4942972"><ele>11.0</ele><time>2026-04-04T15:10:36.802Z</time></trkpt><trkpt lat="44.678422" lon="11.4944632"><ele>11.0</ele><time>2026-04-04T15:10:37.803Z</time></trkpt><trkpt lat="44.678609" lon="11.4946196"><ele>11.0</ele><time>2026-04-04T15:10:38.801Z</time></trkpt><trkpt lat="44.6787916" lon="11.49477"><ele>11.5</ele><time>2026-04-04T15:10:39.801Z</time></trkpt><trkpt lat="44.6789857" lon="11.494918"><ele>12.0</ele><time>2026-04-04T15:10:40.802Z</time></trkpt><trkpt lat="44.6791863" lon="11.4950864"><ele>12.0</ele><time>2026-04-04T15:10:41.802Z</time></trkpt><trkpt lat="44.6793906" lon="11.4952734"><ele>12.0</ele><time>2026-04-04T15:10:42.802Z</time></trkpt><trkpt lat="44.6796081" lon="11.4954591"><ele>11.0</ele><time>2026-04-04T15:10:43.802Z</time></trkpt><trkpt lat="44.6798359" lon="11.495646"><ele>10.0</ele><time>2026-04-04T15:10:44.802Z</time></trkpt><trkpt lat="44.68006" lon="11.4958301"><ele>10.0</ele><time>2026-04-04T15:10:45.801Z</time></trkpt><trkpt lat="44.6802687" lon="11.4960017"><ele>10.0</ele><time>2026-04-04T15:10:46.801Z</time></trkpt><trkpt lat="44.680484" lon="11.4961748"><ele>10.0</ele><time>2026-04-04T15:10:47.801Z</time></trkpt><trkpt lat="44.6806929" lon="11.4963599"><ele>10.0</ele><time>2026-04-04T15:10:48.8Z</time></trkpt><trkpt lat="44.680904" lon="11.4965402"><ele>10.0</ele><time>2026-04-04T15:10:49.801Z</time></trkpt><trkpt lat="44.6811353" lon="11.4967022"><ele>10.0</ele><time>2026-04-04T15:10:50.8Z</time></trkpt><trkpt lat="44.6813788" lon="11.4968466"><ele>10.0</ele><time>2026-04-04T15:10:51.8Z</time></trkpt><trkpt lat="44.6816092" lon="11.4969693"><ele>10.0</ele><time>2026-04-04T15:10:52.802Z</time></trkpt><trkpt lat="44.6818264" lon="11.4970795"><ele>9.666666666666668</ele><time>2026-04-04T15:10:53.802Z</time></trkpt><trkpt lat="44.6820277" lon="11.4971831"><ele>9.333333333333334</ele><time>2026-04-04T15:10:54.802Z</time></trkpt><trkpt lat="44.6822184" lon="11.4972794"><ele>9.0</ele><time>2026-04-04T15:10:55.802Z</time></trkpt><trkpt lat="44.682416" lon="11.4973716"><ele>9.0</ele><time>2026-04-04T15:10:56.802Z</time></trkpt><trkpt lat="44.6826249" lon="11.4974583"><ele>9.0</ele><time>2026-04-04T15:10:57.801Z</time></trkpt><trkpt lat="44.6828395" lon="11.4975558"><ele>9.0</ele><time>2026-04-04T15:10:58.801Z</time></trkpt><trkpt lat="44.6830648" lon="11.4976619"><ele>9.5</ele><time>2026-04-04T15:10:59.802Z</time></trkpt><trkpt lat="44.6832995" lon="11.497771"><ele>10.0</ele><time>2026-04-04T15:11:00.802Z</time></trkpt><trkpt lat="44.6835444" lon="11.4978876"><ele>9.0</ele><time>2026-04-04T15:11:01.801Z</time></trkpt><trkpt lat="44.6837979" lon="11.498009"><ele>8.0</ele><time>2026-04-04T15:11:02.801Z</time></trkpt><trkpt lat="44.6840563" lon="11.4981396"><ele>8.0</ele><time>2026-04-04T15:11:03.801Z</time></trkpt><trkpt lat="44.6843155" lon="11.4982781"><ele>8.0</ele><time>2026-04-04T15:11:04.8Z</time></trkpt><trkpt lat="44.6845741" lon="11.4984328"><ele>8.0</ele><time>2026-04-04T15:11:05.801Z</time></trkpt><trkpt lat="44.6848234" lon="11.4985962"><ele>8.0</ele><time>2026-04-04T15:11:06.801Z</time></trkpt><trkpt lat="44.6850577" lon="11.4987628"><ele>9.5</ele><time>2026-04-04T15:11:07.801Z</time></trkpt><trkpt lat="44.6852739" lon="11.4989285"><ele>11.0</ele><time>2026-04-04T15:11:08.802Z</time></trkpt><trkpt lat="44.6854758" lon="11.4990841"><ele>11.0</ele><time>2026-04-04T15:11:09.802Z</time></trkpt><trkpt lat="44.6856648" lon="11.4992285"><ele>11.0</ele><time>2026-04-04T15:11:10.801Z</time></trkpt><trkpt lat="44.6858457" lon="11.4993687"><ele>11.0</ele><time>2026-04-04T15:11:11.8Z</time></trkpt><trkpt lat="44.6860219" lon="11.4995093"><ele>10.666666666666666</ele><time>2026-04-04T15:11:12.8Z</time></trkpt><trkpt lat="44.6861991" lon="11.4996503"><ele>10.333333333333334</ele><time>2026-04-04T15:11:13.801Z</time></trkpt><trkpt lat="44.6863843" lon="11.4997985"><ele>10.0</ele><time>2026-04-04T15:11:14.801Z</time></trkpt><trkpt lat="44.6865721" lon="11.4999435"><ele>10.0</ele><time>2026-04-04T15:11:15.801Z</time></trkpt><trkpt lat="44.6867586" lon="11.5000732"><ele>10.0</ele><time>2026-04-04T15:11:16.8Z</time></trkpt><trkpt lat="44.6869429" lon="11.5001877"><ele>10.0</ele><time>2026-04-04T15:11:17.801Z</time></trkpt><trkpt lat="44.6871181" lon="11.5002819"><ele>10.0</ele><time>2026-04-04T15:11:18.802Z</time></trkpt><trkpt lat="44.6872864" lon="11.50036"><ele>10.0</ele><time>2026-04-04T15:11:19.802Z</time></trkpt><trkpt lat="44.6874439" lon="11.5004374"><ele>10.0</ele><time>2026-04-04T15:11:20.801Z</time></trkpt><trkpt lat="44.6875949" lon="11.5005134"><ele>10.333333333333334</ele><time>2026-04-04T15:11:21.802Z</time></trkpt><trkpt lat="44.6877444" lon="11.5005903"><ele>10.666666666666666</ele><time>2026-04-04T15:11:22.802Z</time></trkpt><trkpt lat="44.6879048" lon="11.500671"><ele>11.0</ele><time>2026-04-04T15:11:23.802Z</time></trkpt><trkpt lat="44.6880848" lon="11.5007549"><ele>11.0</ele><time>2026-04-04T15:11:24.801Z</time></trkpt><trkpt lat="44.6882827" lon="11.5008459"><ele>11.0</ele><time>2026-04-04T15:11:25.801Z</time></trkpt><trkpt lat="44.6884991" lon="11.5009454"><ele>11.0</ele><time>2026-04-04T15:11:26.801Z</time></trkpt><trkpt lat="44.6887294" lon="11.501063"><ele>10.5</ele><time>2026-04-04T15:11:27.801Z</time></trkpt><trkpt lat="44.6889647" lon="11.5011974"><ele>10.0</ele><time>2026-04-04T15:11:28.8Z</time></trkpt><trkpt lat="44.6892165" lon="11.5013363"><ele>10.5</ele><time>2026-04-04T15:11:29.802Z</time></trkpt><trkpt lat="44.6894638" lon="11.501467"><ele>11.0</ele><time>2026-04-04T15:11:30.802Z</time></trkpt><trkpt lat="44.6896866" lon="11.5015773"><ele>11.0</ele><time>2026-04-04T15:11:31.802Z</time></trkpt><trkpt lat="44.6898785" lon="11.5016824"><ele>11.0</ele><time>2026-04-04T15:11:32.801Z</time></trkpt><trkpt lat="44.6900337" lon="11.5017595"><ele>11.0</ele><time>2026-04-04T15:11:33.801Z</time></trkpt><trkpt lat="44.6901801" lon="11.5018158"><ele>10.666666666666666</ele><time>2026-04-04T15:11:34.802Z</time></trkpt><trkpt lat="44.6903295" lon="11.5018739"><ele>10.333333333333334</ele><time>2026-04-04T15:11:35.802Z</time></trkpt><trkpt lat="44.6904819" lon="11.5019272"><ele>10.0</ele><time>2026-04-04T15:11:36.802Z</time></trkpt><trkpt lat="44.6906423" lon="11.5019781"><ele>10.0</ele><time>2026-04-04T15:11:37.802Z</time></trkpt><trkpt lat="44.6908123" lon="11.5020367"><ele>10.0</ele><time>2026-04-04T15:11:38.802Z</time></trkpt><trkpt lat="44.6909942" lon="11.502098"><ele>10.0</ele><time>2026-04-04T15:11:39.802Z</time></trkpt><trkpt lat="44.6911913" lon="11.5021649"><ele>10.0</ele><time>2026-04-04T15:11:40.8Z</time></trkpt><trkpt lat="44.6913915" lon="11.5022351"><ele>10.0</ele><time>2026-04-04T15:11:41.801Z</time></trkpt><trkpt lat="44.6915983" lon="11.5023035"><ele>10.0</ele><time>2026-04-04T15:11:42.802Z</time></trkpt><trkpt lat="44.6918141" lon="11.5023738"><ele>9.5</ele><time>2026-04-04T15:11:43.802Z</time></trkpt><trkpt lat="44.6920453" lon="11.5024463"><ele>9.0</ele><time>2026-04-04T15:11:44.802Z</time></trkpt><trkpt lat="44.6922865" lon="11.5025208"><ele>9.0</ele><time>2026-04-04T15:11:45.802Z</time></trkpt><trkpt lat="44.6925228" lon="11.5025893"><ele>9.0</ele><time>2026-04-04T15:11:46.801Z</time></trkpt><trkpt lat="44.6927443" lon="11.5026525"><ele>9.333333333333334</ele><time>2026-04-04T15:11:47.802Z</time></trkpt><trkpt lat="44.6929563" lon="11.5026918"><ele>9.666666666666668</ele><time>2026-04-04T15:11:48.801Z</time></trkpt><trkpt lat="44.6931769" lon="11.5026736"><ele>10.0</ele><time>2026-04-04T15:11:49.801Z</time></trkpt><trkpt lat="44.6934055" lon="11.5026128"><ele>10.0</ele><time>2026-04-04T15:11:50.802Z</time></trkpt><trkpt lat="44.693641" lon="11.5025414"><ele>10.0</ele><time>2026-04-04T15:11:51.802Z</time></trkpt><trkpt lat="44.6938838" lon="11.5024688"><ele>10.0</ele><time>2026-04-04T15:11:52.801Z</time></trkpt><trkpt lat="44.6941246" lon="11.5023961"><ele>10.0</ele><time>2026-04-04T15:11:53.801Z</time></trkpt><trkpt lat="44.694359" lon="11.5023239"><ele>9.5</ele><time>2026-04-04T15:11:54.8Z</time></trkpt><trkpt lat="44.6945865" lon="11.5022378"><ele>9.0</ele><time>2026-04-04T15:11:55.801Z</time></trkpt><trkpt lat="44.6948056" lon="11.5021241"><ele>9.5</ele><time>2026-04-04T15:11:56.801Z</time></trkpt><trkpt lat="44.695018" lon="11.5019699"><ele>10.0</ele><time>2026-04-04T15:11:57.801Z</time></trkpt><trkpt lat="44.6952271" lon="11.5018046"><ele>9.5</ele><time>2026-04-04T15:11:58.802Z</time></trkpt><trkpt lat="44.6954394" lon="11.5016577"><ele>9.0</ele><time>2026-04-04T15:11:59.801Z</time></trkpt><trkpt lat="44.6956537" lon="11.5015157"><ele>9.0</ele><time>2026-04-04T15:12:00.801Z</time></trkpt><trkpt lat="44.69587" lon="11.50139"><ele>9.0</ele><time>2026-04-04T15:12:01.801Z</time></trkpt><trkpt lat="44.6960864" lon="11.5012913"><ele>9.333333333333334</ele><time>2026-04-04T15:12:02.801Z</time></trkpt><trkpt lat="44.6962934" lon="11.5012196"><ele>9.666666666666668</ele><time>2026-04-04T15:12:03.801Z</time></trkpt><trkpt lat="44.6965015" lon="11.5011651"><ele>10.0</ele><time>2026-04-04T15:12:04.802Z</time></trkpt><trkpt lat="44.6967141" lon="11.5011382"><ele>10.0</ele><time>2026-04-04T15:12:05.801Z</time></trkpt><trkpt lat="44.6969117" lon="11.5011539"><ele>10.0</ele><time>2026-04-04T15:12:06.802Z</time></trkpt><trkpt lat="44.6971144" lon="11.5011987"><ele>10.0</ele><time>2026-04-04T15:12:07.802Z</time></trkpt><trkpt lat="44.6973114" lon="11.501249"><ele>10.0</ele><time>2026-04-04T15:12:08.802Z</time></trkpt><trkpt lat="44.6974991" lon="11.5012872"><ele>10.0</ele><time>2026-04-04T15:12:09.801Z</time></trkpt><trkpt lat="44.6976987" lon="11.5013254"><ele>10.0</ele><time>2026-04-04T15:12:10.802Z</time></trkpt><trkpt lat="44.6979108" lon="11.5013857"><ele>10.0</ele><time>2026-04-04T15:12:11.802Z</time></trkpt><trkpt lat="44.6981325" lon="11.5014742"><ele>10.0</ele><time>2026-04-04T15:12:12.801Z</time></trkpt><trkpt lat="44.6983626" lon="11.5016036"><ele>10.0</ele><time>2026-04-04T15:12:13.802Z</time></trkpt><trkpt lat="44.6986004" lon="11.5017604"><ele>10.0</ele><time>2026-04-04T15:12:14.801Z</time></trkpt><trkpt lat="44.6988446" lon="11.5019414"><ele>10.5</ele><time>2026-04-04T15:12:15.802Z</time></trkpt><trkpt lat="44.6991003" lon="11.5021273"><ele>11.0</ele><time>2026-04-04T15:12:16.801Z</time></trkpt><trkpt lat="44.6993588" lon="11.502308"><ele>11.5</ele><time>2026-04-04T15:12:17.801Z</time></trkpt><trkpt lat="44.6996217" lon="11.5024902"><ele>12.0</ele><time>2026-04-04T15:12:18.802Z</time></trkpt><trkpt lat="44.6998775" lon="11.502665"><ele>12.0</ele><time>2026-04-04T15:12:19.802Z</time></trkpt><trkpt lat="44.7001266" lon="11.5028309"><ele>12.0</ele><time>2026-04-04T15:12:20.801Z</time></trkpt><trkpt lat="44.7003737" lon="11.5029954"><ele>11.0</ele><time>2026-04-04T15:12:21.801Z</time></trkpt><trkpt lat="44.7006157" lon="11.5031583"><ele>10.0</ele><time>2026-04-04T15:12:22.801Z</time></trkpt><trkpt lat="44.7008468" lon="11.5033246"><ele>10.0</ele><time>2026-04-04T15:12:23.802Z</time></trkpt><trkpt lat="44.7010604" lon="11.5034814"><ele>10.0</ele><time>2026-04-04T15:12:24.802Z</time></trkpt><trkpt lat="44.7012589" lon="11.503632"><ele>9.333333333333334</ele><time>2026-04-04T15:12:25.802Z</time></trkpt><trkpt lat="44.7014421" lon="11.5037809"><ele>8.666666666666666</ele><time>2026-04-04T15:12:26.801Z</time></trkpt><trkpt lat="44.7016103" lon="11.503927"><ele>8.0</ele><time>2026-04-04T15:12:27.801Z</time></trkpt><trkpt lat="44.7017643" lon="11.5040848"><ele>8.0</ele><time>2026-04-04T15:12:28.801Z</time></trkpt><trkpt lat="44.7018943" lon="11.5042657"><ele>8.0</ele><time>2026-04-04T15:12:29.802Z</time></trkpt><trkpt lat="44.7019976" lon="11.5044561"><ele>8.0</ele><time>2026-04-04T15:12:30.802Z</time></trkpt><trkpt lat="44.7020857" lon="11.5046554"><ele>8.666666666666666</ele><time>2026-04-04T15:12:31.8Z</time></trkpt><trkpt lat="44.7021689" lon="11.5048481"><ele>9.333333333333334</ele><time>2026-04-04T15:12:32.802Z</time></trkpt><trkpt lat="44.7022501" lon="11.5050335"><ele>10.0</ele><time>2026-04-04T15:12:33.802Z</time></trkpt><trkpt lat="44.7023393" lon="11.5052126"><ele>10.0</ele><time>2026-04-04T15:12:34.802Z</time></trkpt><trkpt lat="44.702443" lon="11.5053846"><ele>10.0</ele><time>2026-04-04T15:12:35.802Z</time></trkpt><trkpt lat="44.702562" lon="11.505531"><ele>10.0</ele><time>2026-04-04T15:12:36.801Z</time></trkpt><trkpt lat="44.7026873" lon="11.5056561"><ele>10.0</ele><time>2026-04-04T15:12:37.802Z</time></trkpt><trkpt lat="44.7028128" lon="11.5057806"><ele>10.0</ele><time>2026-04-04T15:12:38.801Z</time></trkpt><trkpt lat="44.7029397" lon="11.5059144"><ele>10.0</ele><time>2026-04-04T15:12:39.801Z</time></trkpt><trkpt lat="44.7030661" lon="11.5060511"><ele>10.0</ele><time>2026-04-04T15:12:40.802Z</time></trkpt><trkpt lat="44.7031886" lon="11.5061963"><ele>10.0</ele><time>2026-04-04T15:12:41.801Z</time></trkpt><trkpt lat="44.7033015" lon="11.5063543"><ele>10.0</ele><time>2026-04-04T15:12:42.801Z</time></trkpt><trkpt lat="44.7034015" lon="11.5065344"><ele>9.666666666666668</ele><time>2026-04-04T15:12:43.801Z</time></trkpt><trkpt lat="44.7034936" lon="11.5067208"><ele>9.333333333333334</ele><time>2026-04-04T15:12:44.802Z</time></trkpt><trkpt lat="44.7035846" lon="11.5069099"><ele>9.0</ele><time>2026-04-04T15:12:45.802Z</time></trkpt><trkpt lat="44.7036774" lon="11.5071002"><ele>9.0</ele><time>2026-04-04T15:12:46.801Z</time></trkpt><trkpt lat="44.7037721" lon="11.5072933"><ele>9.0</ele><time>2026-04-04T15:12:47.801Z</time></trkpt><trkpt lat="44.703864" lon="11.507483"><ele>9.0</ele><time>2026-04-04T15:12:48.801Z</time></trkpt><trkpt lat="44.7039576" lon="11.5076682"><ele>9.0</ele><time>2026-04-04T15:12:49.801Z</time></trkpt><trkpt lat="44.7040529" lon="11.5078483"><ele>9.0</ele><time>2026-04-04T15:12:50.801Z</time></trkpt><trkpt lat="44.704151" lon="11.5080245"><ele>9.0</ele><time>2026-04-04T15:12:51.802Z</time></trkpt><trkpt lat="44.7042566" lon="11.5081934"><ele>9.0</ele><time>2026-04-04T15:12:52.801Z</time></trkpt><trkpt lat="44.7043711" lon="11.5083496"><ele>9.0</ele><time>2026-04-04T15:12:53.8Z</time></trkpt><trkpt lat="44.704489" lon="11.5084945"><ele>9.0</ele><time>2026-04-04T15:12:54.802Z</time></trkpt><trkpt lat="44.7046063" lon="11.5086408"><ele>9.333333333333334</ele><time>2026-04-04T15:12:55.802Z</time></trkpt><trkpt lat="44.7047226" lon="11.5087855"><ele>9.666666666666668</ele><time>2026-04-04T15:12:56.801Z</time></trkpt><trkpt lat="44.7048394" lon="11.5089311"><ele>10.0</ele><time>2026-04-04T15:12:57.802Z</time></trkpt><trkpt lat="44.704956" lon="11.509076"><ele>10.0</ele><time>2026-04-04T15:12:58.802Z</time></trkpt><trkpt lat="44.7050721" lon="11.5092165"><ele>10.0</ele><time>2026-04-04T15:12:59.802Z</time></trkpt><trkpt lat="44.7051885" lon="11.5093538"><ele>10.0</ele><time>2026-04-04T15:13:00.801Z</time></trkpt><trkpt lat="44.705306" lon="11.5094941"><ele>10.0</ele><time>2026-04-04T15:13:01.801Z</time></trkpt><trkpt lat="44.7054224" lon="11.5096331"><ele>10.0</ele><time>2026-04-04T15:13:02.801Z</time></trkpt><trkpt lat="44.7055356" lon="11.509781"><ele>10.0</ele><time>2026-04-04T15:13:03.802Z</time></trkpt><trkpt lat="44.705637" lon="11.5099424"><ele>10.0</ele><time>2026-04-04T15:13:04.801Z</time></trkpt><trkpt lat="44.7057372" lon="11.5101245"><ele>10.0</ele><time>2026-04-04T15:13:05.802Z</time></trkpt><trkpt lat="44.7058434" lon="11.5103156"><ele>10.0</ele><time>2026-04-04T15:13:06.801Z</time></trkpt><trkpt lat="44.7059601" lon="11.5105074"><ele>10.0</ele><time>2026-04-04T15:13:07.801Z</time></trkpt><trkpt lat="44.7061012" lon="11.5107006"><ele>10.0</ele><time>2026-04-04T15:13:08.801Z</time></trkpt><trkpt lat="44.7062624" lon="11.5108959"><ele>10.0</ele><time>2026-04-04T15:13:09.802Z</time></trkpt><trkpt lat="44.7064348" lon="11.5111079"><ele>9.333333333333334</ele><time>2026-04-04T15:13:10.802Z</time></trkpt><trkpt lat="44.7065954" lon="11.5113368"><ele>8.666666666666666</ele><time>2026-04-04T15:13:11.802Z</time></trkpt><trkpt lat="44.7067394" lon="11.511571"><ele>8.0</ele><time>2026-04-04T15:13:12.8Z</time></trkpt><trkpt lat="44.7068868" lon="11.5117918"><ele>8.5</ele><time>2026-04-04T15:13:13.801Z</time></trkpt><trkpt lat="44.7070556" lon="11.5120215"><ele>9.0</ele><time>2026-04-04T15:13:14.802Z</time></trkpt><trkpt lat="44.7072301" lon="11.5122673"><ele>9.0</ele><time>2026-04-04T15:13:15.8Z</time></trkpt><trkpt lat="44.7074151" lon="11.5125284"><ele>9.0</ele><time>2026-04-04T15:13:16.801Z</time></trkpt><trkpt lat="44.7076074" lon="11.5128015"><ele>9.5</ele><time>2026-04-04T15:13:17.802Z</time></trkpt><trkpt lat="44.7078043" lon="11.5130919"><ele>10.0</ele><time>2026-04-04T15:13:18.801Z</time></trkpt><trkpt lat="44.7080039" lon="11.5133947"><ele>10.0</ele><time>2026-04-04T15:13:19.8Z</time></trkpt><trkpt lat="44.7082067" lon="11.5137082"><ele>10.0</ele><time>2026-04-04T15:13:20.801Z</time></trkpt><trkpt lat="44.7084071" lon="11.5140205"><ele>9.0</ele><time>2026-04-04T15:13:21.802Z</time></trkpt><trkpt lat="44.7086118" lon="11.5143427"><ele>8.0</ele><time>2026-04-04T15:13:22.801Z</time></trkpt><trkpt lat="44.7088184" lon="11.5146613"><ele>8.0</ele><time>2026-04-04T15:13:23.802Z</time></trkpt><trkpt lat="44.7090215" lon="11.5149613"><ele>8.0</ele><time>2026-04-04T15:13:24.802Z</time></trkpt><trkpt lat="44.7092228" lon="11.5152462"><ele>9.0</ele><time>2026-04-04T15:13:25.802Z</time></trkpt><trkpt lat="44.7094382" lon="11.5155206"><ele>10.0</ele><time>2026-04-04T15:13:26.802Z</time></trkpt><trkpt lat="44.709658" lon="11.5157939"><ele>10.0</ele><time>2026-04-04T15:13:27.801Z</time></trkpt><trkpt lat="44.7098759" lon="11.5160647"><ele>10.0</ele><time>2026-04-04T15:13:28.801Z</time></trkpt><trkpt lat="44.7100944" lon="11.5163368"><ele>8.5</ele><time>2026-04-04T15:13:29.802Z</time></trkpt><trkpt lat="44.7103082" lon="11.5166099"><ele>7.0</ele><time>2026-04-04T15:13:30.802Z</time></trkpt><trkpt lat="44.7105201" lon="11.5168845"><ele>8.0</ele><time>2026-04-04T15:13:31.802Z</time></trkpt><trkpt lat="44.7107289" lon="11.5171627"><ele>9.0</ele><time>2026-04-04T15:13:32.802Z</time></trkpt><trkpt lat="44.7109385" lon="11.5174437"><ele>9.0</ele><time>2026-04-04T15:13:33.8Z</time></trkpt><trkpt lat="44.7111529" lon="11.5177283"><ele>9.0</ele><time>2026-04-04T15:13:34.801Z</time></trkpt><trkpt lat="44.7113688" lon="11.5180161"><ele>9.0</ele><time>2026-04-04T15:13:35.801Z</time></trkpt><trkpt lat="44.7115826" lon="11.5183088"><ele>9.0</ele><time>2026-04-04T15:13:36.801Z</time></trkpt><trkpt lat="44.7117969" lon="11.518604"><ele>9.0</ele><time>2026-04-04T15:13:37.8Z</time></trkpt><trkpt lat="44.712011" lon="11.5188993"><ele>9.0</ele><time>2026-04-04T15:13:38.8Z</time></trkpt><trkpt lat="44.7122253" lon="11.5192032"><ele>9.0</ele><time>2026-04-04T15:13:39.801Z</time></trkpt><trkpt lat="44.7124454" lon="11.51951"><ele>9.0</ele><time>2026-04-04T15:13:40.801Z</time></trkpt><trkpt lat="44.7126669" lon="11.51982"><ele>9.0</ele><time>2026-04-04T15:13:41.801Z</time></trkpt><trkpt lat="44.7128914" lon="11.5201382"><ele>9.0</ele><time>2026-04-04T15:13:42.801Z</time></trkpt><trkpt lat="44.7131211" lon="11.5204595"><ele>9.0</ele><time>2026-04-04T15:13:43.801Z</time></trkpt><trkpt lat="44.7133522" lon="11.5207872"><ele>9.0</ele><time>2026-04-04T15:13:44.8Z</time></trkpt><trkpt lat="44.7135762" lon="11.5211013"><ele>8.5</ele><time>2026-04-04T15:13:45.801Z</time></trkpt><trkpt lat="44.713785" lon="11.5213951"><ele>8.0</ele><time>2026-04-04T15:13:46.801Z</time></trkpt><trkpt lat="44.7139966" lon="11.5216832"><ele>8.0</ele><time>2026-04-04T15:13:47.799Z</time></trkpt><trkpt lat="44.7142052" lon="11.521968"><ele>8.0</ele><time>2026-04-04T15:13:48.8Z</time></trkpt><trkpt lat="44.714401" lon="11.5222401"><ele>8.5</ele><time>2026-04-04T15:13:49.801Z</time></trkpt><trkpt lat="44.7145834" lon="11.5224925"><ele>9.0</ele><time>2026-04-04T15:13:50.801Z</time></trkpt><trkpt lat="44.7147454" lon="11.5227208"><ele>9.0</ele><time>2026-04-04T15:13:51.8Z</time></trkpt><trkpt lat="44.7148892" lon="11.5229201"><ele>9.0</ele><time>2026-04-04T15:13:52.8Z</time></trkpt><trkpt lat="44.7150182" lon="11.5231005"><ele>9.0</ele><time>2026-04-04T15:13:53.8Z</time></trkpt><trkpt lat="44.715137" lon="11.5232692"><ele>9.0</ele><time>2026-04-04T15:13:54.801Z</time></trkpt><trkpt lat="44.7152455" lon="11.5234329"><ele>9.0</ele><time>2026-04-04T15:13:55.799Z</time></trkpt><trkpt lat="44.7153436" lon="11.5235909"><ele>9.0</ele><time>2026-04-04T15:13:56.8Z</time></trkpt><trkpt lat="44.7154338" lon="11.5237475"><ele>9.0</ele><time>2026-04-04T15:13:57.8Z</time></trkpt><trkpt lat="44.7155226" lon="11.5239098"><ele>9.0</ele><time>2026-04-04T15:13:58.8Z</time></trkpt><trkpt lat="44.715607" lon="11.5240823"><ele>9.0</ele><time>2026-04-04T15:13:59.8Z</time></trkpt><trkpt lat="44.7156922" lon="11.5242578"><ele>9.0</ele><time>2026-04-04T15:14:00.8Z</time></trkpt><trkpt lat="44.7157701" lon="11.5244358"><ele>8.75</ele><time>2026-04-04T15:14:01.801Z</time></trkpt><trkpt lat="44.7158397" lon="11.5246084"><ele>8.5</ele><time>2026-04-04T15:14:02.8Z</time></trkpt><trkpt lat="44.7159042" lon="11.5247828"><ele>8.25</ele><time>2026-04-04T15:14:03.8Z</time></trkpt><trkpt lat="44.7159669" lon="11.5249544"><ele>8.0</ele><time>2026-04-04T15:14:04.8Z</time></trkpt><trkpt lat="44.7160226" lon="11.5251247"><ele>8.0</ele><time>2026-04-04T15:14:05.801Z</time></trkpt><trkpt lat="44.7160777" lon="11.5253046"><ele>8.0</ele><time>2026-04-04T15:14:06.8Z</time></trkpt><trkpt lat="44.7161307" lon="11.5254918"><ele>8.0</ele><time>2026-04-04T15:14:07.8Z</time></trkpt><trkpt lat="44.7161834" lon="11.5256724"><ele>8.0</ele><time>2026-04-04T15:14:08.799Z</time></trkpt><trkpt lat="44.7162358" lon="11.5258499"><ele>8.0</ele><time>2026-04-04T15:14:09.799Z</time></trkpt><trkpt lat="44.716285" lon="11.5260174"><ele>8.0</ele><time>2026-04-04T15:14:10.801Z</time></trkpt><trkpt lat="44.7163308" lon="11.5261761"><ele>8.0</ele><time>2026-04-04T15:14:11.8Z</time></trkpt><trkpt lat="44.7163768" lon="11.5263401"><ele>8.0</ele><time>2026-04-04T15:14:12.801Z</time></trkpt><trkpt lat="44.7164245" lon="11.5265089"><ele>8.0</ele><time>2026-04-04T15:14:13.801Z</time></trkpt><trkpt lat="44.7164744" lon="11.5266791"><ele>8.0</ele><time>2026-04-04T15:14:14.8Z</time></trkpt><trkpt lat="44.7165242" lon="11.5268574"><ele>8.0</ele><time>2026-04-04T15:14:15.799Z</time></trkpt><trkpt lat="44.7165753" lon="11.5270395"><ele>8.0</ele><time>2026-04-04T15:14:16.8Z</time></trkpt><trkpt lat="44.716627" lon="11.5272255"><ele>9.0</ele><time>2026-04-04T15:14:17.8Z</time></trkpt><trkpt lat="44.7166783" lon="11.5274079"><ele>9.0</ele><time>2026-04-04T15:14:18.801Z</time></trkpt><trkpt lat="44.7167164" lon="11.5275611"><ele>9.0</ele><time>2026-04-04T15:14:19.801Z</time></trkpt><trkpt lat="44.7167392" lon="11.5276781"><ele>9.0</ele><time>2026-04-04T15:14:20.801Z</time></trkpt><trkpt lat="44.7167419" lon="11.5277676"><ele>9.0</ele><time>2026-04-04T15:14:22.801Z</time></trkpt></trkseg></trk></gpx>